<?xml version="1.0" encoding="UTF-8" standalone="no" ?>
<gpx xmlns="http://www.topografix.com/GPX/1/1" xmlns:xsi="http://www.w3.org/2001/XMLSchema-instance" xsi:schemaLocation="http://www.topografix.com/GPX/1/1 http://www.topografix.com/GPX/1/1/gpx.xsd" version="1.1" creator="VisuGPX - https://www.visugpx.com">
  <metadata>
    <name>Grenoble Trail - Guy Pape - Bastille - Jalla - Serlin - Quichat - Chemin des batteries - Mont Rachais - Bec Aigu - Bec du Corbeau - Bastille - Grenoble</name>
    <desc><![CDATA[Grenoble Trail - Guy Pape - Bastille - Jalla - Serlin - Quichat - Chemin des batteries - Mont Rachais - Bec Aigu - Bec du Corbeau - Bastille - Grenoble]]></desc>
  </metadata>
  <trk>
    <name><![CDATA[Grenoble Trail]]></name>
    <trkseg>
      <trkpt lat="45.19653" lon="5.73974">
        <ele>242.80000305176</ele>
        <time>2021-05-29T03:38:45.000Z</time>
      </trkpt>
      <trkpt lat="45.19651" lon="5.73976">
        <ele>242.80000305176</ele>
        <time>2021-05-29T03:38:48.000Z</time>
      </trkpt>
      <trkpt lat="45.19648" lon="5.73982">
        <ele>242.80000305176</ele>
        <time>2021-05-29T03:38:51.000Z</time>
      </trkpt>
      <trkpt lat="45.19644" lon="5.73987">
        <ele>242.80000305176</ele>
        <time>2021-05-29T03:38:54.000Z</time>
      </trkpt>
      <trkpt lat="45.19637" lon="5.7399">
        <ele>243.19999694824</ele>
        <time>2021-05-29T03:38:59.000Z</time>
      </trkpt>
      <trkpt lat="45.19635" lon="5.73991">
        <ele>243</ele>
        <time>2021-05-29T03:39:01.000Z</time>
      </trkpt>
      <trkpt lat="45.19632" lon="5.73991">
        <ele>243</ele>
        <time>2021-05-29T03:39:06.000Z</time>
      </trkpt>
      <trkpt lat="45.19631" lon="5.73994">
        <ele>243</ele>
        <time>2021-05-29T03:39:07.000Z</time>
      </trkpt>
      <trkpt lat="45.19632" lon="5.73995">
        <ele>243</ele>
        <time>2021-05-29T03:39:08.000Z</time>
      </trkpt>
      <trkpt lat="45.19631" lon="5.73996">
        <ele>242.60000610352</ele>
        <time>2021-05-29T03:39:10.000Z</time>
      </trkpt>
      <trkpt lat="45.1963" lon="5.73997">
        <ele>242.19999694824</ele>
        <time>2021-05-29T03:39:11.000Z</time>
      </trkpt>
      <trkpt lat="45.19629" lon="5.73997">
        <ele>241.60000610352</ele>
        <time>2021-05-29T03:39:13.000Z</time>
      </trkpt>
      <trkpt lat="45.19631" lon="5.74018">
        <ele>240.19999694824</ele>
        <time>2021-05-29T03:39:19.000Z</time>
      </trkpt>
      <trkpt lat="45.1963" lon="5.74017">
        <ele>240</ele>
        <time>2021-05-29T03:39:20.000Z</time>
      </trkpt>
      <trkpt lat="45.1963" lon="5.74015">
        <ele>239.60000610352</ele>
        <time>2021-05-29T03:39:21.000Z</time>
      </trkpt>
      <trkpt lat="45.19629" lon="5.74013">
        <ele>239</ele>
        <time>2021-05-29T03:39:22.000Z</time>
      </trkpt>
      <trkpt lat="45.19628" lon="5.7401">
        <ele>238.60000610352</ele>
        <time>2021-05-29T03:39:23.000Z</time>
      </trkpt>
      <trkpt lat="45.19626" lon="5.73998">
        <ele>237</ele>
        <time>2021-05-29T03:39:31.000Z</time>
      </trkpt>
      <trkpt lat="45.19623" lon="5.74001">
        <ele>236.80000305176</ele>
        <time>2021-05-29T03:39:32.000Z</time>
      </trkpt>
      <trkpt lat="45.19625" lon="5.73997">
        <ele>235.60000610352</ele>
        <time>2021-05-29T03:39:33.000Z</time>
      </trkpt>
      <trkpt lat="45.19625" lon="5.73995">
        <ele>235.19999694824</ele>
        <time>2021-05-29T03:39:37.000Z</time>
      </trkpt>
      <trkpt lat="45.19638" lon="5.73984">
        <ele>235.19999694824</ele>
        <time>2021-05-29T03:39:45.000Z</time>
      </trkpt>
      <trkpt lat="45.1964" lon="5.7398">
        <ele>235.19999694824</ele>
        <time>2021-05-29T03:39:47.000Z</time>
      </trkpt>
      <trkpt lat="45.19647" lon="5.73981">
        <ele>235.39999389648</ele>
        <time>2021-05-29T03:39:51.000Z</time>
      </trkpt>
      <trkpt lat="45.19659" lon="5.73966">
        <ele>235.19999694824</ele>
        <time>2021-05-29T03:39:56.000Z</time>
      </trkpt>
      <trkpt lat="45.19667" lon="5.73956">
        <ele>235.19999694824</ele>
        <time>2021-05-29T03:40:00.000Z</time>
      </trkpt>
      <trkpt lat="45.19667" lon="5.73955">
        <ele>235.19999694824</ele>
        <time>2021-05-29T03:40:01.000Z</time>
      </trkpt>
      <trkpt lat="45.19668" lon="5.73954">
        <ele>235.19999694824</ele>
        <time>2021-05-29T03:40:03.000Z</time>
      </trkpt>
      <trkpt lat="45.19674" lon="5.73947">
        <ele>235</ele>
        <time>2021-05-29T03:40:07.000Z</time>
      </trkpt>
      <trkpt lat="45.19681" lon="5.73953">
        <ele>234.80000305176</ele>
        <time>2021-05-29T03:40:13.000Z</time>
      </trkpt>
      <trkpt lat="45.19681" lon="5.73955">
        <ele>234.80000305176</ele>
        <time>2021-05-29T03:40:14.000Z</time>
      </trkpt>
      <trkpt lat="45.19685" lon="5.73972">
        <ele>234.80000305176</ele>
        <time>2021-05-29T03:40:20.000Z</time>
      </trkpt>
      <trkpt lat="45.19687" lon="5.73993">
        <ele>235</ele>
        <time>2021-05-29T03:40:27.000Z</time>
      </trkpt>
      <trkpt lat="45.19692" lon="5.74013">
        <ele>235.19999694824</ele>
        <time>2021-05-29T03:40:32.000Z</time>
      </trkpt>
      <trkpt lat="45.19693" lon="5.74017">
        <ele>235.19999694824</ele>
        <time>2021-05-29T03:40:33.000Z</time>
      </trkpt>
      <trkpt lat="45.19699" lon="5.74036">
        <ele>235.19999694824</ele>
        <time>2021-05-29T03:40:38.000Z</time>
      </trkpt>
      <trkpt lat="45.197" lon="5.74046">
        <ele>235.39999389648</ele>
        <time>2021-05-29T03:40:41.000Z</time>
      </trkpt>
      <trkpt lat="45.19701" lon="5.74049">
        <ele>235.19999694824</ele>
        <time>2021-05-29T03:40:42.000Z</time>
      </trkpt>
      <trkpt lat="45.19701" lon="5.74052">
        <ele>235.19999694824</ele>
        <time>2021-05-29T03:40:43.000Z</time>
      </trkpt>
      <trkpt lat="45.19704" lon="5.74073">
        <ele>235.19999694824</ele>
        <time>2021-05-29T03:40:49.000Z</time>
      </trkpt>
      <trkpt lat="45.19706" lon="5.74101">
        <ele>235.19999694824</ele>
        <time>2021-05-29T03:40:57.000Z</time>
      </trkpt>
      <trkpt lat="45.19705" lon="5.74105">
        <ele>235.19999694824</ele>
        <time>2021-05-29T03:40:58.000Z</time>
      </trkpt>
      <trkpt lat="45.19706" lon="5.74112">
        <ele>235.19999694824</ele>
        <time>2021-05-29T03:41:00.000Z</time>
      </trkpt>
      <trkpt lat="45.19707" lon="5.74116">
        <ele>235.39999389648</ele>
        <time>2021-05-29T03:41:02.000Z</time>
      </trkpt>
      <trkpt lat="45.19709" lon="5.74126">
        <ele>235.19999694824</ele>
        <time>2021-05-29T03:41:05.000Z</time>
      </trkpt>
      <trkpt lat="45.19714" lon="5.74143">
        <ele>235.19999694824</ele>
        <time>2021-05-29T03:41:10.000Z</time>
      </trkpt>
      <trkpt lat="45.19715" lon="5.74147">
        <ele>235.19999694824</ele>
        <time>2021-05-29T03:41:11.000Z</time>
      </trkpt>
      <trkpt lat="45.19719" lon="5.74157">
        <ele>235</ele>
        <time>2021-05-29T03:41:14.000Z</time>
      </trkpt>
      <trkpt lat="45.19719" lon="5.74173">
        <ele>235.19999694824</ele>
        <time>2021-05-29T03:41:19.000Z</time>
      </trkpt>
      <trkpt lat="45.19725" lon="5.74199">
        <ele>235.19999694824</ele>
        <time>2021-05-29T03:41:25.000Z</time>
      </trkpt>
      <trkpt lat="45.19725" lon="5.74202">
        <ele>235.19999694824</ele>
        <time>2021-05-29T03:41:26.000Z</time>
      </trkpt>
      <trkpt lat="45.19727" lon="5.74222">
        <ele>235.19999694824</ele>
        <time>2021-05-29T03:41:33.000Z</time>
      </trkpt>
      <trkpt lat="45.19735" lon="5.74232">
        <ele>235.19999694824</ele>
        <time>2021-05-29T03:41:37.000Z</time>
      </trkpt>
      <trkpt lat="45.19735" lon="5.74234">
        <ele>235.39999389648</ele>
        <time>2021-05-29T03:41:38.000Z</time>
      </trkpt>
      <trkpt lat="45.19737" lon="5.7424">
        <ele>236.60000610352</ele>
        <time>2021-05-29T03:41:43.000Z</time>
      </trkpt>
      <trkpt lat="45.19739" lon="5.7424">
        <ele>236.80000305176</ele>
        <time>2021-05-29T03:41:44.000Z</time>
      </trkpt>
      <trkpt lat="45.19745" lon="5.74239">
        <ele>237</ele>
        <time>2021-05-29T03:41:47.000Z</time>
      </trkpt>
      <trkpt lat="45.19747" lon="5.74238">
        <ele>237</ele>
        <time>2021-05-29T03:41:48.000Z</time>
      </trkpt>
      <trkpt lat="45.19764" lon="5.74234">
        <ele>237</ele>
        <time>2021-05-29T03:41:56.000Z</time>
      </trkpt>
      <trkpt lat="45.19779" lon="5.74233">
        <ele>237.19999694824</ele>
        <time>2021-05-29T03:42:05.000Z</time>
      </trkpt>
      <trkpt lat="45.1979" lon="5.74239">
        <ele>237.19999694824</ele>
        <time>2021-05-29T03:42:13.000Z</time>
      </trkpt>
      <trkpt lat="45.19808" lon="5.74227">
        <ele>237.19999694824</ele>
        <time>2021-05-29T03:42:19.000Z</time>
      </trkpt>
      <trkpt lat="45.19818" lon="5.74223">
        <ele>237</ele>
        <time>2021-05-29T03:42:23.000Z</time>
      </trkpt>
      <trkpt lat="45.1982" lon="5.74222">
        <ele>236.80000305176</ele>
        <time>2021-05-29T03:42:24.000Z</time>
      </trkpt>
      <trkpt lat="45.19829" lon="5.74217">
        <ele>237.19999694824</ele>
        <time>2021-05-29T03:42:28.000Z</time>
      </trkpt>
      <trkpt lat="45.19834" lon="5.74215">
        <ele>237</ele>
        <time>2021-05-29T03:42:30.000Z</time>
      </trkpt>
      <trkpt lat="45.19843" lon="5.74211">
        <ele>237.19999694824</ele>
        <time>2021-05-29T03:42:33.000Z</time>
      </trkpt>
      <trkpt lat="45.19844" lon="5.74209">
        <ele>237.19999694824</ele>
        <time>2021-05-29T03:42:34.000Z</time>
      </trkpt>
      <trkpt lat="45.19848" lon="5.74206">
        <ele>237.19999694824</ele>
        <time>2021-05-29T03:42:36.000Z</time>
      </trkpt>
      <trkpt lat="45.19858" lon="5.742">
        <ele>237.39999389648</ele>
        <time>2021-05-29T03:42:41.000Z</time>
      </trkpt>
      <trkpt lat="45.19881" lon="5.7419">
        <ele>237.19999694824</ele>
        <time>2021-05-29T03:42:47.000Z</time>
      </trkpt>
      <trkpt lat="45.19889" lon="5.74186">
        <ele>237.19999694824</ele>
        <time>2021-05-29T03:42:50.000Z</time>
      </trkpt>
      <trkpt lat="45.1991" lon="5.7418">
        <ele>237.19999694824</ele>
        <time>2021-05-29T03:42:58.000Z</time>
      </trkpt>
      <trkpt lat="45.19922" lon="5.74174">
        <ele>237.39999389648</ele>
        <time>2021-05-29T03:43:03.000Z</time>
      </trkpt>
      <trkpt lat="45.19933" lon="5.74164">
        <ele>237.39999389648</ele>
        <time>2021-05-29T03:43:07.000Z</time>
      </trkpt>
      <trkpt lat="45.19938" lon="5.7416">
        <ele>237.39999389648</ele>
        <time>2021-05-29T03:43:09.000Z</time>
      </trkpt>
      <trkpt lat="45.19954" lon="5.74151">
        <ele>237.39999389648</ele>
        <time>2021-05-29T03:43:15.000Z</time>
      </trkpt>
      <trkpt lat="45.19966" lon="5.74134">
        <ele>237.19999694824</ele>
        <time>2021-05-29T03:43:22.000Z</time>
      </trkpt>
      <trkpt lat="45.19974" lon="5.74126">
        <ele>237.19999694824</ele>
        <time>2021-05-29T03:43:27.000Z</time>
      </trkpt>
      <trkpt lat="45.19985" lon="5.74115">
        <ele>235.80000305176</ele>
        <time>2021-05-29T03:43:32.000Z</time>
      </trkpt>
      <trkpt lat="45.19987" lon="5.74112">
        <ele>235.60000610352</ele>
        <time>2021-05-29T03:43:33.000Z</time>
      </trkpt>
      <trkpt lat="45.2" lon="5.74093">
        <ele>234.80000305176</ele>
        <time>2021-05-29T03:43:40.000Z</time>
      </trkpt>
      <trkpt lat="45.20002" lon="5.7409">
        <ele>234.80000305176</ele>
        <time>2021-05-29T03:43:41.000Z</time>
      </trkpt>
      <trkpt lat="45.20041" lon="5.74055">
        <ele>235.19999694824</ele>
        <time>2021-05-29T03:43:55.000Z</time>
      </trkpt>
      <trkpt lat="45.20037" lon="5.74049">
        <ele>235.60000610352</ele>
        <time>2021-05-29T03:43:57.000Z</time>
      </trkpt>
      <trkpt lat="45.2004" lon="5.74044">
        <ele>235.80000305176</ele>
        <time>2021-05-29T03:43:58.000Z</time>
      </trkpt>
      <trkpt lat="45.20044" lon="5.74036">
        <ele>236.19999694824</ele>
        <time>2021-05-29T03:44:00.000Z</time>
      </trkpt>
      <trkpt lat="45.20048" lon="5.74031">
        <ele>236.60000610352</ele>
        <time>2021-05-29T03:44:03.000Z</time>
      </trkpt>
      <trkpt lat="45.20051" lon="5.74025">
        <ele>237</ele>
        <time>2021-05-29T03:44:05.000Z</time>
      </trkpt>
      <trkpt lat="45.20059" lon="5.74012">
        <ele>236.80000305176</ele>
        <time>2021-05-29T03:44:10.000Z</time>
      </trkpt>
      <trkpt lat="45.20061" lon="5.7401">
        <ele>236.80000305176</ele>
        <time>2021-05-29T03:44:11.000Z</time>
      </trkpt>
      <trkpt lat="45.20066" lon="5.74005">
        <ele>236.60000610352</ele>
        <time>2021-05-29T03:44:13.000Z</time>
      </trkpt>
      <trkpt lat="45.2007" lon="5.74003">
        <ele>236.60000610352</ele>
        <time>2021-05-29T03:44:14.000Z</time>
      </trkpt>
      <trkpt lat="45.20077" lon="5.73995">
        <ele>236.19999694824</ele>
        <time>2021-05-29T03:44:18.000Z</time>
      </trkpt>
      <trkpt lat="45.20079" lon="5.7399">
        <ele>236.19999694824</ele>
        <time>2021-05-29T03:44:20.000Z</time>
      </trkpt>
      <trkpt lat="45.20084" lon="5.73983">
        <ele>236.19999694824</ele>
        <time>2021-05-29T03:44:22.000Z</time>
      </trkpt>
      <trkpt lat="45.20089" lon="5.73972">
        <ele>236</ele>
        <time>2021-05-29T03:44:25.000Z</time>
      </trkpt>
      <trkpt lat="45.20094" lon="5.73965">
        <ele>236</ele>
        <time>2021-05-29T03:44:27.000Z</time>
      </trkpt>
      <trkpt lat="45.20107" lon="5.73951">
        <ele>235.60000610352</ele>
        <time>2021-05-29T03:44:32.000Z</time>
      </trkpt>
      <trkpt lat="45.20118" lon="5.73934">
        <ele>236</ele>
        <time>2021-05-29T03:44:38.000Z</time>
      </trkpt>
      <trkpt lat="45.20133" lon="5.73914">
        <ele>236.19999694824</ele>
        <time>2021-05-29T03:44:45.000Z</time>
      </trkpt>
      <trkpt lat="45.20143" lon="5.73899">
        <ele>236.19999694824</ele>
        <time>2021-05-29T03:44:50.000Z</time>
      </trkpt>
      <trkpt lat="45.20147" lon="5.73889">
        <ele>236</ele>
        <time>2021-05-29T03:44:53.000Z</time>
      </trkpt>
      <trkpt lat="45.20157" lon="5.7386">
        <ele>236</ele>
        <time>2021-05-29T03:45:01.000Z</time>
      </trkpt>
      <trkpt lat="45.20162" lon="5.73833">
        <ele>236</ele>
        <time>2021-05-29T03:45:08.000Z</time>
      </trkpt>
      <trkpt lat="45.20166" lon="5.73812">
        <ele>236</ele>
        <time>2021-05-29T03:45:14.000Z</time>
      </trkpt>
      <trkpt lat="45.20167" lon="5.73797">
        <ele>236</ele>
        <time>2021-05-29T03:45:18.000Z</time>
      </trkpt>
      <trkpt lat="45.20167" lon="5.73793">
        <ele>236</ele>
        <time>2021-05-29T03:45:19.000Z</time>
      </trkpt>
      <trkpt lat="45.20168" lon="5.73774">
        <ele>236</ele>
        <time>2021-05-29T03:45:24.000Z</time>
      </trkpt>
      <trkpt lat="45.20168" lon="5.73758">
        <ele>236.39999389648</ele>
        <time>2021-05-29T03:45:28.000Z</time>
      </trkpt>
      <trkpt lat="45.20165" lon="5.73737">
        <ele>236.19999694824</ele>
        <time>2021-05-29T03:45:34.000Z</time>
      </trkpt>
      <trkpt lat="45.20165" lon="5.73715">
        <ele>236.19999694824</ele>
        <time>2021-05-29T03:45:40.000Z</time>
      </trkpt>
      <trkpt lat="45.20161" lon="5.73689">
        <ele>236.19999694824</ele>
        <time>2021-05-29T03:45:47.000Z</time>
      </trkpt>
      <trkpt lat="45.20159" lon="5.73674">
        <ele>236.19999694824</ele>
        <time>2021-05-29T03:45:51.000Z</time>
      </trkpt>
      <trkpt lat="45.20152" lon="5.73652">
        <ele>236</ele>
        <time>2021-05-29T03:45:58.000Z</time>
      </trkpt>
      <trkpt lat="45.20145" lon="5.73628">
        <ele>235.60000610352</ele>
        <time>2021-05-29T03:46:04.000Z</time>
      </trkpt>
      <trkpt lat="45.20142" lon="5.73625">
        <ele>235.80000305176</ele>
        <time>2021-05-29T03:46:06.000Z</time>
      </trkpt>
      <trkpt lat="45.20131" lon="5.73602">
        <ele>236</ele>
        <time>2021-05-29T03:46:12.000Z</time>
      </trkpt>
      <trkpt lat="45.2013" lon="5.73599">
        <ele>236</ele>
        <time>2021-05-29T03:46:13.000Z</time>
      </trkpt>
      <trkpt lat="45.20124" lon="5.73591">
        <ele>236.19999694824</ele>
        <time>2021-05-29T03:46:17.000Z</time>
      </trkpt>
      <trkpt lat="45.20121" lon="5.73589">
        <ele>236.19999694824</ele>
        <time>2021-05-29T03:46:18.000Z</time>
      </trkpt>
      <trkpt lat="45.20118" lon="5.73587">
        <ele>236.19999694824</ele>
        <time>2021-05-29T03:46:19.000Z</time>
      </trkpt>
      <trkpt lat="45.20107" lon="5.7357">
        <ele>236.19999694824</ele>
        <time>2021-05-29T03:46:25.000Z</time>
      </trkpt>
      <trkpt lat="45.20099" lon="5.73559">
        <ele>236.19999694824</ele>
        <time>2021-05-29T03:46:30.000Z</time>
      </trkpt>
      <trkpt lat="45.20087" lon="5.73539">
        <ele>236.19999694824</ele>
        <time>2021-05-29T03:46:37.000Z</time>
      </trkpt>
      <trkpt lat="45.20085" lon="5.73536">
        <ele>236.19999694824</ele>
        <time>2021-05-29T03:46:38.000Z</time>
      </trkpt>
      <trkpt lat="45.20068" lon="5.73523">
        <ele>236.80000305176</ele>
        <time>2021-05-29T03:46:44.000Z</time>
      </trkpt>
      <trkpt lat="45.20066" lon="5.73522">
        <ele>236.80000305176</ele>
        <time>2021-05-29T03:46:45.000Z</time>
      </trkpt>
      <trkpt lat="45.20048" lon="5.73515">
        <ele>236.19999694824</ele>
        <time>2021-05-29T03:46:51.000Z</time>
      </trkpt>
      <trkpt lat="45.20035" lon="5.7351">
        <ele>236.19999694824</ele>
        <time>2021-05-29T03:46:56.000Z</time>
      </trkpt>
      <trkpt lat="45.2003" lon="5.73508">
        <ele>235.80000305176</ele>
        <time>2021-05-29T03:46:58.000Z</time>
      </trkpt>
      <trkpt lat="45.20027" lon="5.73506">
        <ele>235.80000305176</ele>
        <time>2021-05-29T03:46:59.000Z</time>
      </trkpt>
      <trkpt lat="45.20023" lon="5.73503">
        <ele>235.60000610352</ele>
        <time>2021-05-29T03:47:01.000Z</time>
      </trkpt>
      <trkpt lat="45.20011" lon="5.73492">
        <ele>235</ele>
        <time>2021-05-29T03:47:06.000Z</time>
      </trkpt>
      <trkpt lat="45.2001" lon="5.73488">
        <ele>234.80000305176</ele>
        <time>2021-05-29T03:47:07.000Z</time>
      </trkpt>
      <trkpt lat="45.2" lon="5.73481">
        <ele>235.19999694824</ele>
        <time>2021-05-29T03:47:11.000Z</time>
      </trkpt>
      <trkpt lat="45.19994" lon="5.73473">
        <ele>235.80000305176</ele>
        <time>2021-05-29T03:47:14.000Z</time>
      </trkpt>
      <trkpt lat="45.19989" lon="5.73468">
        <ele>236</ele>
        <time>2021-05-29T03:47:16.000Z</time>
      </trkpt>
      <trkpt lat="45.19987" lon="5.73466">
        <ele>236</ele>
        <time>2021-05-29T03:47:17.000Z</time>
      </trkpt>
      <trkpt lat="45.19984" lon="5.73464">
        <ele>236</ele>
        <time>2021-05-29T03:47:18.000Z</time>
      </trkpt>
      <trkpt lat="45.19977" lon="5.73457">
        <ele>236.19999694824</ele>
        <time>2021-05-29T03:47:21.000Z</time>
      </trkpt>
      <trkpt lat="45.1996" lon="5.7345">
        <ele>236</ele>
        <time>2021-05-29T03:47:27.000Z</time>
      </trkpt>
      <trkpt lat="45.19957" lon="5.73449">
        <ele>235.80000305176</ele>
        <time>2021-05-29T03:47:28.000Z</time>
      </trkpt>
      <trkpt lat="45.19944" lon="5.73443">
        <ele>236.19999694824</ele>
        <time>2021-05-29T03:47:33.000Z</time>
      </trkpt>
      <trkpt lat="45.19925" lon="5.73434">
        <ele>236</ele>
        <time>2021-05-29T03:47:40.000Z</time>
      </trkpt>
      <trkpt lat="45.19919" lon="5.73432">
        <ele>236</ele>
        <time>2021-05-29T03:47:42.000Z</time>
      </trkpt>
      <trkpt lat="45.19906" lon="5.73427">
        <ele>236</ele>
        <time>2021-05-29T03:47:47.000Z</time>
      </trkpt>
      <trkpt lat="45.19897" lon="5.73425">
        <ele>236</ele>
        <time>2021-05-29T03:47:50.000Z</time>
      </trkpt>
      <trkpt lat="45.19878" lon="5.73417">
        <ele>236</ele>
        <time>2021-05-29T03:47:58.000Z</time>
      </trkpt>
      <trkpt lat="45.19876" lon="5.73417">
        <ele>236</ele>
        <time>2021-05-29T03:47:59.000Z</time>
      </trkpt>
      <trkpt lat="45.19857" lon="5.73413">
        <ele>236.19999694824</ele>
        <time>2021-05-29T03:48:05.000Z</time>
      </trkpt>
      <trkpt lat="45.19854" lon="5.73411">
        <ele>236.19999694824</ele>
        <time>2021-05-29T03:48:06.000Z</time>
      </trkpt>
      <trkpt lat="45.19849" lon="5.73408">
        <ele>236.19999694824</ele>
        <time>2021-05-29T03:48:08.000Z</time>
      </trkpt>
      <trkpt lat="45.19842" lon="5.73405">
        <ele>236.19999694824</ele>
        <time>2021-05-29T03:48:11.000Z</time>
      </trkpt>
      <trkpt lat="45.19833" lon="5.73403">
        <ele>236.19999694824</ele>
        <time>2021-05-29T03:48:14.000Z</time>
      </trkpt>
      <trkpt lat="45.1982" lon="5.73398">
        <ele>236.19999694824</ele>
        <time>2021-05-29T03:48:19.000Z</time>
      </trkpt>
      <trkpt lat="45.19801" lon="5.73394">
        <ele>236.19999694824</ele>
        <time>2021-05-29T03:48:25.000Z</time>
      </trkpt>
      <trkpt lat="45.19792" lon="5.73392">
        <ele>236.19999694824</ele>
        <time>2021-05-29T03:48:28.000Z</time>
      </trkpt>
      <trkpt lat="45.19781" lon="5.73389">
        <ele>236.19999694824</ele>
        <time>2021-05-29T03:48:32.000Z</time>
      </trkpt>
      <trkpt lat="45.19771" lon="5.73387">
        <ele>236</ele>
        <time>2021-05-29T03:48:35.000Z</time>
      </trkpt>
      <trkpt lat="45.19752" lon="5.73384">
        <ele>236.80000305176</ele>
        <time>2021-05-29T03:48:42.000Z</time>
      </trkpt>
      <trkpt lat="45.19738" lon="5.73382">
        <ele>237</ele>
        <time>2021-05-29T03:48:47.000Z</time>
      </trkpt>
      <trkpt lat="45.19731" lon="5.73382">
        <ele>237.60000610352</ele>
        <time>2021-05-29T03:48:50.000Z</time>
      </trkpt>
      <trkpt lat="45.19724" lon="5.7338">
        <ele>238</ele>
        <time>2021-05-29T03:48:53.000Z</time>
      </trkpt>
      <trkpt lat="45.19721" lon="5.73379">
        <ele>238</ele>
        <time>2021-05-29T03:48:54.000Z</time>
      </trkpt>
      <trkpt lat="45.19708" lon="5.73372">
        <ele>238</ele>
        <time>2021-05-29T03:48:59.000Z</time>
      </trkpt>
      <trkpt lat="45.19689" lon="5.73364">
        <ele>237.60000610352</ele>
        <time>2021-05-29T03:49:06.000Z</time>
      </trkpt>
      <trkpt lat="45.19685" lon="5.73362">
        <ele>237.19999694824</ele>
        <time>2021-05-29T03:49:08.000Z</time>
      </trkpt>
      <trkpt lat="45.19678" lon="5.73356">
        <ele>236.80000305176</ele>
        <time>2021-05-29T03:49:11.000Z</time>
      </trkpt>
      <trkpt lat="45.19671" lon="5.73349">
        <ele>236.60000610352</ele>
        <time>2021-05-29T03:49:14.000Z</time>
      </trkpt>
      <trkpt lat="45.19665" lon="5.73344">
        <ele>236.80000305176</ele>
        <time>2021-05-29T03:49:17.000Z</time>
      </trkpt>
      <trkpt lat="45.19654" lon="5.73335">
        <ele>236.60000610352</ele>
        <time>2021-05-29T03:49:22.000Z</time>
      </trkpt>
      <trkpt lat="45.19641" lon="5.73323">
        <ele>236.60000610352</ele>
        <time>2021-05-29T03:49:28.000Z</time>
      </trkpt>
      <trkpt lat="45.19638" lon="5.73321">
        <ele>236.60000610352</ele>
        <time>2021-05-29T03:49:29.000Z</time>
      </trkpt>
      <trkpt lat="45.19633" lon="5.73316">
        <ele>236.60000610352</ele>
        <time>2021-05-29T03:49:32.000Z</time>
      </trkpt>
      <trkpt lat="45.19624" lon="5.73306">
        <ele>236.60000610352</ele>
        <time>2021-05-29T03:49:36.000Z</time>
      </trkpt>
      <trkpt lat="45.19622" lon="5.73304">
        <ele>236.60000610352</ele>
        <time>2021-05-29T03:49:37.000Z</time>
      </trkpt>
      <trkpt lat="45.19613" lon="5.73289">
        <ele>236.80000305176</ele>
        <time>2021-05-29T03:49:42.000Z</time>
      </trkpt>
      <trkpt lat="45.19608" lon="5.73283">
        <ele>237</ele>
        <time>2021-05-29T03:49:44.000Z</time>
      </trkpt>
      <trkpt lat="45.19606" lon="5.7328">
        <ele>237</ele>
        <time>2021-05-29T03:49:45.000Z</time>
      </trkpt>
      <trkpt lat="45.19602" lon="5.73275">
        <ele>236.80000305176</ele>
        <time>2021-05-29T03:49:47.000Z</time>
      </trkpt>
      <trkpt lat="45.19594" lon="5.73264">
        <ele>237.39999389648</ele>
        <time>2021-05-29T03:49:51.000Z</time>
      </trkpt>
      <trkpt lat="45.1958" lon="5.73244">
        <ele>237.19999694824</ele>
        <time>2021-05-29T03:49:58.000Z</time>
      </trkpt>
      <trkpt lat="45.19575" lon="5.7324">
        <ele>237.39999389648</ele>
        <time>2021-05-29T03:50:00.000Z</time>
      </trkpt>
      <trkpt lat="45.19563" lon="5.73228">
        <ele>237.80000305176</ele>
        <time>2021-05-29T03:50:05.000Z</time>
      </trkpt>
      <trkpt lat="45.19563" lon="5.73228">
        <ele>237.80000305176</ele>
        <time>2021-05-29T03:50:06.000Z</time>
      </trkpt>
      <trkpt lat="45.19553" lon="5.73204">
        <ele>237.80000305176</ele>
        <time>2021-05-29T03:50:12.000Z</time>
      </trkpt>
      <trkpt lat="45.19551" lon="5.732">
        <ele>237.80000305176</ele>
        <time>2021-05-29T03:50:13.000Z</time>
      </trkpt>
      <trkpt lat="45.19548" lon="5.73191">
        <ele>237.80000305176</ele>
        <time>2021-05-29T03:50:15.000Z</time>
      </trkpt>
      <trkpt lat="45.19543" lon="5.7318">
        <ele>238</ele>
        <time>2021-05-29T03:50:18.000Z</time>
      </trkpt>
      <trkpt lat="45.19536" lon="5.73162">
        <ele>238.19999694824</ele>
        <time>2021-05-29T03:50:23.000Z</time>
      </trkpt>
      <trkpt lat="45.19525" lon="5.73155">
        <ele>238.39999389648</ele>
        <time>2021-05-29T03:50:28.000Z</time>
      </trkpt>
      <trkpt lat="45.19513" lon="5.73138">
        <ele>238.60000610352</ele>
        <time>2021-05-29T03:50:34.000Z</time>
      </trkpt>
      <trkpt lat="45.1951" lon="5.73132">
        <ele>238.80000305176</ele>
        <time>2021-05-29T03:50:36.000Z</time>
      </trkpt>
      <trkpt lat="45.19509" lon="5.73128">
        <ele>238.80000305176</ele>
        <time>2021-05-29T03:50:37.000Z</time>
      </trkpt>
      <trkpt lat="45.19504" lon="5.73112">
        <ele>239</ele>
        <time>2021-05-29T03:50:41.000Z</time>
      </trkpt>
      <trkpt lat="45.19494" lon="5.73097">
        <ele>239</ele>
        <time>2021-05-29T03:50:46.000Z</time>
      </trkpt>
      <trkpt lat="45.19492" lon="5.73091">
        <ele>239</ele>
        <time>2021-05-29T03:50:48.000Z</time>
      </trkpt>
      <trkpt lat="45.19489" lon="5.73088">
        <ele>238.80000305176</ele>
        <time>2021-05-29T03:50:50.000Z</time>
      </trkpt>
      <trkpt lat="45.19484" lon="5.73087">
        <ele>239</ele>
        <time>2021-05-29T03:50:52.000Z</time>
      </trkpt>
      <trkpt lat="45.19471" lon="5.73082">
        <ele>239</ele>
        <time>2021-05-29T03:50:57.000Z</time>
      </trkpt>
      <trkpt lat="45.19464" lon="5.73077">
        <ele>239</ele>
        <time>2021-05-29T03:51:00.000Z</time>
      </trkpt>
      <trkpt lat="45.19461" lon="5.73072">
        <ele>239</ele>
        <time>2021-05-29T03:51:02.000Z</time>
      </trkpt>
      <trkpt lat="45.19451" lon="5.73054">
        <ele>238.80000305176</ele>
        <time>2021-05-29T03:51:08.000Z</time>
      </trkpt>
      <trkpt lat="45.19437" lon="5.7304">
        <ele>238.39999389648</ele>
        <time>2021-05-29T03:51:14.000Z</time>
      </trkpt>
      <trkpt lat="45.19422" lon="5.7302">
        <ele>238.39999389648</ele>
        <time>2021-05-29T03:51:21.000Z</time>
      </trkpt>
      <trkpt lat="45.19421" lon="5.73016">
        <ele>238.39999389648</ele>
        <time>2021-05-29T03:51:22.000Z</time>
      </trkpt>
      <trkpt lat="45.19421" lon="5.73013">
        <ele>238.19999694824</ele>
        <time>2021-05-29T03:51:23.000Z</time>
      </trkpt>
      <trkpt lat="45.19423" lon="5.73006">
        <ele>238.19999694824</ele>
        <time>2021-05-29T03:51:25.000Z</time>
      </trkpt>
      <trkpt lat="45.19426" lon="5.73001">
        <ele>238.19999694824</ele>
        <time>2021-05-29T03:51:27.000Z</time>
      </trkpt>
      <trkpt lat="45.19423" lon="5.72995">
        <ele>238</ele>
        <time>2021-05-29T03:51:29.000Z</time>
      </trkpt>
      <trkpt lat="45.1942" lon="5.72993">
        <ele>238</ele>
        <time>2021-05-29T03:51:30.000Z</time>
      </trkpt>
      <trkpt lat="45.19419" lon="5.72991">
        <ele>237.60000610352</ele>
        <time>2021-05-29T03:51:31.000Z</time>
      </trkpt>
      <trkpt lat="45.19418" lon="5.72988">
        <ele>237.80000305176</ele>
        <time>2021-05-29T03:51:32.000Z</time>
      </trkpt>
      <trkpt lat="45.19409" lon="5.72972">
        <ele>237.39999389648</ele>
        <time>2021-05-29T03:51:37.000Z</time>
      </trkpt>
      <trkpt lat="45.19408" lon="5.72968">
        <ele>237.39999389648</ele>
        <time>2021-05-29T03:51:39.000Z</time>
      </trkpt>
      <trkpt lat="45.19406" lon="5.72962">
        <ele>237.39999389648</ele>
        <time>2021-05-29T03:51:41.000Z</time>
      </trkpt>
      <trkpt lat="45.19407" lon="5.72958">
        <ele>237.19999694824</ele>
        <time>2021-05-29T03:51:42.000Z</time>
      </trkpt>
      <trkpt lat="45.19404" lon="5.72953">
        <ele>237.19999694824</ele>
        <time>2021-05-29T03:51:44.000Z</time>
      </trkpt>
      <trkpt lat="45.19398" lon="5.72947">
        <ele>237.19999694824</ele>
        <time>2021-05-29T03:51:47.000Z</time>
      </trkpt>
      <trkpt lat="45.19397" lon="5.72945">
        <ele>236.80000305176</ele>
        <time>2021-05-29T03:51:49.000Z</time>
      </trkpt>
      <trkpt lat="45.19397" lon="5.72943">
        <ele>236.60000610352</ele>
        <time>2021-05-29T03:51:51.000Z</time>
      </trkpt>
      <trkpt lat="45.19397" lon="5.72941">
        <ele>236.39999389648</ele>
        <time>2021-05-29T03:51:52.000Z</time>
      </trkpt>
      <trkpt lat="45.19395" lon="5.72939">
        <ele>236.39999389648</ele>
        <time>2021-05-29T03:51:53.000Z</time>
      </trkpt>
      <trkpt lat="45.19393" lon="5.72938">
        <ele>236.19999694824</ele>
        <time>2021-05-29T03:51:54.000Z</time>
      </trkpt>
      <trkpt lat="45.19388" lon="5.72936">
        <ele>236.19999694824</ele>
        <time>2021-05-29T03:51:56.000Z</time>
      </trkpt>
      <trkpt lat="45.19386" lon="5.72935">
        <ele>236.19999694824</ele>
        <time>2021-05-29T03:51:57.000Z</time>
      </trkpt>
      <trkpt lat="45.19382" lon="5.72934">
        <ele>236.39999389648</ele>
        <time>2021-05-29T03:51:59.000Z</time>
      </trkpt>
      <trkpt lat="45.19376" lon="5.72935">
        <ele>236.60000610352</ele>
        <time>2021-05-29T03:52:01.000Z</time>
      </trkpt>
      <trkpt lat="45.19361" lon="5.72936">
        <ele>236.80000305176</ele>
        <time>2021-05-29T03:52:06.000Z</time>
      </trkpt>
      <trkpt lat="45.19359" lon="5.72936">
        <ele>236.80000305176</ele>
        <time>2021-05-29T03:52:07.000Z</time>
      </trkpt>
      <trkpt lat="45.19347" lon="5.72933">
        <ele>237</ele>
        <time>2021-05-29T03:52:11.000Z</time>
      </trkpt>
      <trkpt lat="45.19343" lon="5.72933">
        <ele>237</ele>
        <time>2021-05-29T03:52:12.000Z</time>
      </trkpt>
      <trkpt lat="45.19339" lon="5.72934">
        <ele>237</ele>
        <time>2021-05-29T03:52:13.000Z</time>
      </trkpt>
      <trkpt lat="45.19331" lon="5.72934">
        <ele>237.19999694824</ele>
        <time>2021-05-29T03:52:15.000Z</time>
      </trkpt>
      <trkpt lat="45.19329" lon="5.72932">
        <ele>237.19999694824</ele>
        <time>2021-05-29T03:52:16.000Z</time>
      </trkpt>
      <trkpt lat="45.19328" lon="5.72923">
        <ele>237.19999694824</ele>
        <time>2021-05-29T03:52:18.000Z</time>
      </trkpt>
      <trkpt lat="45.19329" lon="5.72908">
        <ele>237.19999694824</ele>
        <time>2021-05-29T03:52:21.000Z</time>
      </trkpt>
      <trkpt lat="45.19328" lon="5.72895">
        <ele>237.19999694824</ele>
        <time>2021-05-29T03:52:24.000Z</time>
      </trkpt>
      <trkpt lat="45.19319" lon="5.72866">
        <ele>237</ele>
        <time>2021-05-29T03:52:31.000Z</time>
      </trkpt>
      <trkpt lat="45.19305" lon="5.72841">
        <ele>236.80000305176</ele>
        <time>2021-05-29T03:52:38.000Z</time>
      </trkpt>
      <trkpt lat="45.19302" lon="5.72834">
        <ele>236.60000610352</ele>
        <time>2021-05-29T03:52:40.000Z</time>
      </trkpt>
      <trkpt lat="45.19299" lon="5.72827">
        <ele>236.60000610352</ele>
        <time>2021-05-29T03:52:42.000Z</time>
      </trkpt>
      <trkpt lat="45.19299" lon="5.72819">
        <ele>236.80000305176</ele>
        <time>2021-05-29T03:52:44.000Z</time>
      </trkpt>
      <trkpt lat="45.19301" lon="5.72811">
        <ele>236.80000305176</ele>
        <time>2021-05-29T03:52:46.000Z</time>
      </trkpt>
      <trkpt lat="45.19309" lon="5.72786">
        <ele>236.60000610352</ele>
        <time>2021-05-29T03:52:52.000Z</time>
      </trkpt>
      <trkpt lat="45.19308" lon="5.72773">
        <ele>236.60000610352</ele>
        <time>2021-05-29T03:52:55.000Z</time>
      </trkpt>
      <trkpt lat="45.19307" lon="5.72765">
        <ele>236.60000610352</ele>
        <time>2021-05-29T03:52:57.000Z</time>
      </trkpt>
      <trkpt lat="45.193" lon="5.72752">
        <ele>236.39999389648</ele>
        <time>2021-05-29T03:53:00.000Z</time>
      </trkpt>
      <trkpt lat="45.19294" lon="5.72737">
        <ele>236</ele>
        <time>2021-05-29T03:53:04.000Z</time>
      </trkpt>
      <trkpt lat="45.1929" lon="5.72724">
        <ele>236</ele>
        <time>2021-05-29T03:53:08.000Z</time>
      </trkpt>
      <trkpt lat="45.19288" lon="5.72721">
        <ele>235.80000305176</ele>
        <time>2021-05-29T03:53:09.000Z</time>
      </trkpt>
      <trkpt lat="45.19285" lon="5.72694">
        <ele>235.60000610352</ele>
        <time>2021-05-29T03:53:15.000Z</time>
      </trkpt>
      <trkpt lat="45.19285" lon="5.72668">
        <ele>235.60000610352</ele>
        <time>2021-05-29T03:53:20.000Z</time>
      </trkpt>
      <trkpt lat="45.19282" lon="5.72655">
        <ele>235.80000305176</ele>
        <time>2021-05-29T03:53:24.000Z</time>
      </trkpt>
      <trkpt lat="45.19283" lon="5.72646">
        <ele>235.80000305176</ele>
        <time>2021-05-29T03:53:26.000Z</time>
      </trkpt>
      <trkpt lat="45.1928" lon="5.72624">
        <ele>235.80000305176</ele>
        <time>2021-05-29T03:53:30.000Z</time>
      </trkpt>
      <trkpt lat="45.1928" lon="5.72618">
        <ele>235.60000610352</ele>
        <time>2021-05-29T03:53:31.000Z</time>
      </trkpt>
      <trkpt lat="45.19279" lon="5.72609">
        <ele>235.80000305176</ele>
        <time>2021-05-29T03:53:33.000Z</time>
      </trkpt>
      <trkpt lat="45.19279" lon="5.726">
        <ele>236</ele>
        <time>2021-05-29T03:53:35.000Z</time>
      </trkpt>
      <trkpt lat="45.19281" lon="5.72596">
        <ele>236.19999694824</ele>
        <time>2021-05-29T03:53:36.000Z</time>
      </trkpt>
      <trkpt lat="45.19283" lon="5.72592">
        <ele>236.19999694824</ele>
        <time>2021-05-29T03:53:37.000Z</time>
      </trkpt>
      <trkpt lat="45.19285" lon="5.72588">
        <ele>236.39999389648</ele>
        <time>2021-05-29T03:53:38.000Z</time>
      </trkpt>
      <trkpt lat="45.19291" lon="5.72569">
        <ele>236.19999694824</ele>
        <time>2021-05-29T03:53:43.000Z</time>
      </trkpt>
      <trkpt lat="45.19289" lon="5.72552">
        <ele>236</ele>
        <time>2021-05-29T03:53:48.000Z</time>
      </trkpt>
      <trkpt lat="45.19285" lon="5.72529">
        <ele>236.19999694824</ele>
        <time>2021-05-29T03:53:54.000Z</time>
      </trkpt>
      <trkpt lat="45.19281" lon="5.72512">
        <ele>236.39999389648</ele>
        <time>2021-05-29T03:53:58.000Z</time>
      </trkpt>
      <trkpt lat="45.1928" lon="5.72502">
        <ele>236.60000610352</ele>
        <time>2021-05-29T03:54:01.000Z</time>
      </trkpt>
      <trkpt lat="45.19279" lon="5.7248">
        <ele>237.19999694824</ele>
        <time>2021-05-29T03:54:07.000Z</time>
      </trkpt>
      <trkpt lat="45.19278" lon="5.72461">
        <ele>237.60000610352</ele>
        <time>2021-05-29T03:54:12.000Z</time>
      </trkpt>
      <trkpt lat="45.19278" lon="5.72455">
        <ele>237.80000305176</ele>
        <time>2021-05-29T03:54:14.000Z</time>
      </trkpt>
      <trkpt lat="45.19278" lon="5.72439">
        <ele>238.39999389648</ele>
        <time>2021-05-29T03:54:19.000Z</time>
      </trkpt>
      <trkpt lat="45.19286" lon="5.72424">
        <ele>238.80000305176</ele>
        <time>2021-05-29T03:54:23.000Z</time>
      </trkpt>
      <trkpt lat="45.19288" lon="5.72422">
        <ele>238.80000305176</ele>
        <time>2021-05-29T03:54:24.000Z</time>
      </trkpt>
      <trkpt lat="45.19301" lon="5.72412">
        <ele>239</ele>
        <time>2021-05-29T03:54:29.000Z</time>
      </trkpt>
      <trkpt lat="45.19306" lon="5.72408">
        <ele>239</ele>
        <time>2021-05-29T03:54:31.000Z</time>
      </trkpt>
      <trkpt lat="45.19325" lon="5.724">
        <ele>239.39999389648</ele>
        <time>2021-05-29T03:54:38.000Z</time>
      </trkpt>
      <trkpt lat="45.19334" lon="5.72397">
        <ele>239.19999694824</ele>
        <time>2021-05-29T03:54:41.000Z</time>
      </trkpt>
      <trkpt lat="45.19353" lon="5.72389">
        <ele>238.60000610352</ele>
        <time>2021-05-29T03:54:48.000Z</time>
      </trkpt>
      <trkpt lat="45.19355" lon="5.72387">
        <ele>238.60000610352</ele>
        <time>2021-05-29T03:54:49.000Z</time>
      </trkpt>
      <trkpt lat="45.19358" lon="5.72379">
        <ele>238.60000610352</ele>
        <time>2021-05-29T03:54:52.000Z</time>
      </trkpt>
      <trkpt lat="45.19359" lon="5.72376">
        <ele>238.80000305176</ele>
        <time>2021-05-29T03:54:53.000Z</time>
      </trkpt>
      <trkpt lat="45.19356" lon="5.72364">
        <ele>238.60000610352</ele>
        <time>2021-05-29T03:54:57.000Z</time>
      </trkpt>
      <trkpt lat="45.19354" lon="5.72355">
        <ele>239</ele>
        <time>2021-05-29T03:54:59.000Z</time>
      </trkpt>
      <trkpt lat="45.19353" lon="5.72347">
        <ele>239</ele>
        <time>2021-05-29T03:55:01.000Z</time>
      </trkpt>
      <trkpt lat="45.19348" lon="5.72326">
        <ele>239.39999389648</ele>
        <time>2021-05-29T03:55:06.000Z</time>
      </trkpt>
      <trkpt lat="45.19346" lon="5.72321">
        <ele>239.39999389648</ele>
        <time>2021-05-29T03:55:08.000Z</time>
      </trkpt>
      <trkpt lat="45.19344" lon="5.72318">
        <ele>239.39999389648</ele>
        <time>2021-05-29T03:55:09.000Z</time>
      </trkpt>
      <trkpt lat="45.19342" lon="5.72311">
        <ele>239.80000305176</ele>
        <time>2021-05-29T03:55:11.000Z</time>
      </trkpt>
      <trkpt lat="45.19341" lon="5.72307">
        <ele>239.80000305176</ele>
        <time>2021-05-29T03:55:12.000Z</time>
      </trkpt>
      <trkpt lat="45.19338" lon="5.72297">
        <ele>239.80000305176</ele>
        <time>2021-05-29T03:55:16.000Z</time>
      </trkpt>
      <trkpt lat="45.19339" lon="5.72277">
        <ele>240</ele>
        <time>2021-05-29T03:55:21.000Z</time>
      </trkpt>
      <trkpt lat="45.19339" lon="5.72274">
        <ele>240</ele>
        <time>2021-05-29T03:55:22.000Z</time>
      </trkpt>
      <trkpt lat="45.19335" lon="5.72257">
        <ele>239.80000305176</ele>
        <time>2021-05-29T03:55:26.000Z</time>
      </trkpt>
      <trkpt lat="45.19335" lon="5.72255">
        <ele>239.80000305176</ele>
        <time>2021-05-29T03:55:27.000Z</time>
      </trkpt>
      <trkpt lat="45.19333" lon="5.72234">
        <ele>239.60000610352</ele>
        <time>2021-05-29T03:55:33.000Z</time>
      </trkpt>
      <trkpt lat="45.19333" lon="5.72206">
        <ele>239.39999389648</ele>
        <time>2021-05-29T03:55:39.000Z</time>
      </trkpt>
      <trkpt lat="45.19333" lon="5.72193">
        <ele>239.39999389648</ele>
        <time>2021-05-29T03:55:42.000Z</time>
      </trkpt>
      <trkpt lat="45.19333" lon="5.72186">
        <ele>239</ele>
        <time>2021-05-29T03:55:44.000Z</time>
      </trkpt>
      <trkpt lat="45.19328" lon="5.7216">
        <ele>239</ele>
        <time>2021-05-29T03:55:50.000Z</time>
      </trkpt>
      <trkpt lat="45.19325" lon="5.72146">
        <ele>238.60000610352</ele>
        <time>2021-05-29T03:55:53.000Z</time>
      </trkpt>
      <trkpt lat="45.19324" lon="5.72129">
        <ele>238.60000610352</ele>
        <time>2021-05-29T03:55:57.000Z</time>
      </trkpt>
      <trkpt lat="45.19326" lon="5.72115">
        <ele>238.39999389648</ele>
        <time>2021-05-29T03:56:00.000Z</time>
      </trkpt>
      <trkpt lat="45.1933" lon="5.72086">
        <ele>238.39999389648</ele>
        <time>2021-05-29T03:56:06.000Z</time>
      </trkpt>
      <trkpt lat="45.19331" lon="5.72078">
        <ele>238.39999389648</ele>
        <time>2021-05-29T03:56:08.000Z</time>
      </trkpt>
      <trkpt lat="45.19332" lon="5.72058">
        <ele>238</ele>
        <time>2021-05-29T03:56:12.000Z</time>
      </trkpt>
      <trkpt lat="45.19335" lon="5.72027">
        <ele>237.80000305176</ele>
        <time>2021-05-29T03:56:18.000Z</time>
      </trkpt>
      <trkpt lat="45.19337" lon="5.72016">
        <ele>237.60000610352</ele>
        <time>2021-05-29T03:56:20.000Z</time>
      </trkpt>
      <trkpt lat="45.19346" lon="5.7199">
        <ele>237.39999389648</ele>
        <time>2021-05-29T03:56:26.000Z</time>
      </trkpt>
      <trkpt lat="45.19353" lon="5.71964">
        <ele>237</ele>
        <time>2021-05-29T03:56:32.000Z</time>
      </trkpt>
      <trkpt lat="45.19356" lon="5.71961">
        <ele>237</ele>
        <time>2021-05-29T03:56:33.000Z</time>
      </trkpt>
      <trkpt lat="45.19358" lon="5.71953">
        <ele>236.80000305176</ele>
        <time>2021-05-29T03:56:35.000Z</time>
      </trkpt>
      <trkpt lat="45.19367" lon="5.71929">
        <ele>236.80000305176</ele>
        <time>2021-05-29T03:56:41.000Z</time>
      </trkpt>
      <trkpt lat="45.19368" lon="5.71924">
        <ele>236.80000305176</ele>
        <time>2021-05-29T03:56:42.000Z</time>
      </trkpt>
      <trkpt lat="45.19373" lon="5.71918">
        <ele>236.80000305176</ele>
        <time>2021-05-29T03:56:44.000Z</time>
      </trkpt>
      <trkpt lat="45.19378" lon="5.71913">
        <ele>236.60000610352</ele>
        <time>2021-05-29T03:56:46.000Z</time>
      </trkpt>
      <trkpt lat="45.1938" lon="5.71911">
        <ele>236.60000610352</ele>
        <time>2021-05-29T03:56:47.000Z</time>
      </trkpt>
      <trkpt lat="45.19382" lon="5.71909">
        <ele>236.39999389648</ele>
        <time>2021-05-29T03:56:48.000Z</time>
      </trkpt>
      <trkpt lat="45.19391" lon="5.71906">
        <ele>236.19999694824</ele>
        <time>2021-05-29T03:56:51.000Z</time>
      </trkpt>
      <trkpt lat="45.19402" lon="5.719">
        <ele>236.19999694824</ele>
        <time>2021-05-29T03:56:55.000Z</time>
      </trkpt>
      <trkpt lat="45.19407" lon="5.71898">
        <ele>236</ele>
        <time>2021-05-29T03:56:56.000Z</time>
      </trkpt>
      <trkpt lat="45.19426" lon="5.71901">
        <ele>236</ele>
        <time>2021-05-29T03:57:01.000Z</time>
      </trkpt>
      <trkpt lat="45.19426" lon="5.71901">
        <ele>236</ele>
        <time>2021-05-29T03:57:02.000Z</time>
      </trkpt>
      <trkpt lat="45.19446" lon="5.71898">
        <ele>236</ele>
        <time>2021-05-29T03:57:08.000Z</time>
      </trkpt>
      <trkpt lat="45.19456" lon="5.71896">
        <ele>236</ele>
        <time>2021-05-29T03:57:11.000Z</time>
      </trkpt>
      <trkpt lat="45.19475" lon="5.71897">
        <ele>236.19999694824</ele>
        <time>2021-05-29T03:57:17.000Z</time>
      </trkpt>
      <trkpt lat="45.19478" lon="5.71897">
        <ele>236</ele>
        <time>2021-05-29T03:57:18.000Z</time>
      </trkpt>
      <trkpt lat="45.19497" lon="5.719">
        <ele>236</ele>
        <time>2021-05-29T03:57:23.000Z</time>
      </trkpt>
      <trkpt lat="45.19503" lon="5.719">
        <ele>236.19999694824</ele>
        <time>2021-05-29T03:57:25.000Z</time>
      </trkpt>
      <trkpt lat="45.19513" lon="5.71896">
        <ele>236.19999694824</ele>
        <time>2021-05-29T03:57:28.000Z</time>
      </trkpt>
      <trkpt lat="45.1953" lon="5.71894">
        <ele>236.39999389648</ele>
        <time>2021-05-29T03:57:34.000Z</time>
      </trkpt>
      <trkpt lat="45.19542" lon="5.71894">
        <ele>236.19999694824</ele>
        <time>2021-05-29T03:57:39.000Z</time>
      </trkpt>
      <trkpt lat="45.19542" lon="5.71901">
        <ele>237</ele>
        <time>2021-05-29T03:57:42.000Z</time>
      </trkpt>
      <trkpt lat="45.19542" lon="5.71902">
        <ele>237.19999694824</ele>
        <time>2021-05-29T03:57:43.000Z</time>
      </trkpt>
      <trkpt lat="45.19543" lon="5.71904">
        <ele>237.39999389648</ele>
        <time>2021-05-29T03:57:44.000Z</time>
      </trkpt>
      <trkpt lat="45.19545" lon="5.71905">
        <ele>237.80000305176</ele>
        <time>2021-05-29T03:57:45.000Z</time>
      </trkpt>
      <trkpt lat="45.19547" lon="5.71909">
        <ele>238.60000610352</ele>
        <time>2021-05-29T03:57:48.000Z</time>
      </trkpt>
      <trkpt lat="45.19547" lon="5.71912">
        <ele>239</ele>
        <time>2021-05-29T03:57:49.000Z</time>
      </trkpt>
      <trkpt lat="45.19548" lon="5.7192">
        <ele>239.80000305176</ele>
        <time>2021-05-29T03:57:52.000Z</time>
      </trkpt>
      <trkpt lat="45.19548" lon="5.71922">
        <ele>240.19999694824</ele>
        <time>2021-05-29T03:57:53.000Z</time>
      </trkpt>
      <trkpt lat="45.19547" lon="5.71931">
        <ele>241.39999389648</ele>
        <time>2021-05-29T03:57:56.000Z</time>
      </trkpt>
      <trkpt lat="45.19549" lon="5.71937">
        <ele>242.19999694824</ele>
        <time>2021-05-29T03:57:59.000Z</time>
      </trkpt>
      <trkpt lat="45.1955" lon="5.71939">
        <ele>242.60000610352</ele>
        <time>2021-05-29T03:58:00.000Z</time>
      </trkpt>
      <trkpt lat="45.19553" lon="5.71941">
        <ele>243.19999694824</ele>
        <time>2021-05-29T03:58:02.000Z</time>
      </trkpt>
      <trkpt lat="45.19559" lon="5.71949">
        <ele>243.80000305176</ele>
        <time>2021-05-29T03:58:05.000Z</time>
      </trkpt>
      <trkpt lat="45.1956" lon="5.71951">
        <ele>244.19999694824</ele>
        <time>2021-05-29T03:58:06.000Z</time>
      </trkpt>
      <trkpt lat="45.19566" lon="5.71957">
        <ele>245.19999694824</ele>
        <time>2021-05-29T03:58:09.000Z</time>
      </trkpt>
      <trkpt lat="45.19569" lon="5.71961">
        <ele>246</ele>
        <time>2021-05-29T03:58:11.000Z</time>
      </trkpt>
      <trkpt lat="45.19572" lon="5.71964">
        <ele>246.39999389648</ele>
        <time>2021-05-29T03:58:12.000Z</time>
      </trkpt>
      <trkpt lat="45.1958" lon="5.71969">
        <ele>247.60000610352</ele>
        <time>2021-05-29T03:58:16.000Z</time>
      </trkpt>
      <trkpt lat="45.19584" lon="5.71973">
        <ele>248.80000305176</ele>
        <time>2021-05-29T03:58:19.000Z</time>
      </trkpt>
      <trkpt lat="45.19589" lon="5.71977">
        <ele>250</ele>
        <time>2021-05-29T03:58:23.000Z</time>
      </trkpt>
      <trkpt lat="45.19596" lon="5.71981">
        <ele>251</ele>
        <time>2021-05-29T03:58:27.000Z</time>
      </trkpt>
      <trkpt lat="45.19597" lon="5.71982">
        <ele>251.39999389648</ele>
        <time>2021-05-29T03:58:28.000Z</time>
      </trkpt>
      <trkpt lat="45.19603" lon="5.71985">
        <ele>252.60000610352</ele>
        <time>2021-05-29T03:58:32.000Z</time>
      </trkpt>
      <trkpt lat="45.19606" lon="5.71987">
        <ele>253.19999694824</ele>
        <time>2021-05-29T03:58:34.000Z</time>
      </trkpt>
      <trkpt lat="45.19608" lon="5.71988">
        <ele>254</ele>
        <time>2021-05-29T03:58:36.000Z</time>
      </trkpt>
      <trkpt lat="45.19615" lon="5.71992">
        <ele>255.19999694824</ele>
        <time>2021-05-29T03:58:40.000Z</time>
      </trkpt>
      <trkpt lat="45.19617" lon="5.71994">
        <ele>256</ele>
        <time>2021-05-29T03:58:42.000Z</time>
      </trkpt>
      <trkpt lat="45.19618" lon="5.71995">
        <ele>256.39999389648</ele>
        <time>2021-05-29T03:58:43.000Z</time>
      </trkpt>
      <trkpt lat="45.19621" lon="5.71998">
        <ele>257.60000610352</ele>
        <time>2021-05-29T03:58:47.000Z</time>
      </trkpt>
      <trkpt lat="45.19622" lon="5.71999">
        <ele>258</ele>
        <time>2021-05-29T03:58:48.000Z</time>
      </trkpt>
      <trkpt lat="45.19625" lon="5.72">
        <ele>258.79998779297</ele>
        <time>2021-05-29T03:58:50.000Z</time>
      </trkpt>
      <trkpt lat="45.19629" lon="5.72004">
        <ele>259.79998779297</ele>
        <time>2021-05-29T03:58:53.000Z</time>
      </trkpt>
      <trkpt lat="45.19631" lon="5.72006">
        <ele>260.60000610352</ele>
        <time>2021-05-29T03:58:55.000Z</time>
      </trkpt>
      <trkpt lat="45.19632" lon="5.72006">
        <ele>261</ele>
        <time>2021-05-29T03:58:56.000Z</time>
      </trkpt>
      <trkpt lat="45.19634" lon="5.7201">
        <ele>262.39999389648</ele>
        <time>2021-05-29T03:59:00.000Z</time>
      </trkpt>
      <trkpt lat="45.19637" lon="5.72012">
        <ele>263.60000610352</ele>
        <time>2021-05-29T03:59:03.000Z</time>
      </trkpt>
      <trkpt lat="45.19637" lon="5.72014">
        <ele>264.79998779297</ele>
        <time>2021-05-29T03:59:05.000Z</time>
      </trkpt>
      <trkpt lat="45.19639" lon="5.72015">
        <ele>266.20001220703</ele>
        <time>2021-05-29T03:59:08.000Z</time>
      </trkpt>
      <trkpt lat="45.1964" lon="5.72017">
        <ele>266.39999389648</ele>
        <time>2021-05-29T03:59:09.000Z</time>
      </trkpt>
      <trkpt lat="45.19642" lon="5.72021">
        <ele>267.20001220703</ele>
        <time>2021-05-29T03:59:11.000Z</time>
      </trkpt>
      <trkpt lat="45.19643" lon="5.72022">
        <ele>267.39999389648</ele>
        <time>2021-05-29T03:59:12.000Z</time>
      </trkpt>
      <trkpt lat="45.19645" lon="5.72029">
        <ele>268.39999389648</ele>
        <time>2021-05-29T03:59:16.000Z</time>
      </trkpt>
      <trkpt lat="45.19646" lon="5.72031">
        <ele>268.60000610352</ele>
        <time>2021-05-29T03:59:17.000Z</time>
      </trkpt>
      <trkpt lat="45.19645" lon="5.72032">
        <ele>268.60000610352</ele>
        <time>2021-05-29T03:59:18.000Z</time>
      </trkpt>
      <trkpt lat="45.19645" lon="5.72035">
        <ele>269.20001220703</ele>
        <time>2021-05-29T03:59:20.000Z</time>
      </trkpt>
      <trkpt lat="45.19645" lon="5.72037">
        <ele>269.60000610352</ele>
        <time>2021-05-29T03:59:21.000Z</time>
      </trkpt>
      <trkpt lat="45.19646" lon="5.72039">
        <ele>269.79998779297</ele>
        <time>2021-05-29T03:59:22.000Z</time>
      </trkpt>
      <trkpt lat="45.19646" lon="5.72039">
        <ele>270.20001220703</ele>
        <time>2021-05-29T03:59:23.000Z</time>
      </trkpt>
      <trkpt lat="45.19646" lon="5.72042">
        <ele>270.39999389648</ele>
        <time>2021-05-29T03:59:25.000Z</time>
      </trkpt>
      <trkpt lat="45.19646" lon="5.72043">
        <ele>270.79998779297</ele>
        <time>2021-05-29T03:59:26.000Z</time>
      </trkpt>
      <trkpt lat="45.19647" lon="5.72049">
        <ele>271</ele>
        <time>2021-05-29T03:59:28.000Z</time>
      </trkpt>
      <trkpt lat="45.19646" lon="5.72057">
        <ele>271.79998779297</ele>
        <time>2021-05-29T03:59:31.000Z</time>
      </trkpt>
      <trkpt lat="45.19646" lon="5.7206">
        <ele>272.39999389648</ele>
        <time>2021-05-29T03:59:33.000Z</time>
      </trkpt>
      <trkpt lat="45.19645" lon="5.72062">
        <ele>272.39999389648</ele>
        <time>2021-05-29T03:59:34.000Z</time>
      </trkpt>
      <trkpt lat="45.19644" lon="5.72066">
        <ele>272.79998779297</ele>
        <time>2021-05-29T03:59:36.000Z</time>
      </trkpt>
      <trkpt lat="45.19642" lon="5.72068">
        <ele>273.39999389648</ele>
        <time>2021-05-29T03:59:38.000Z</time>
      </trkpt>
      <trkpt lat="45.19641" lon="5.7207">
        <ele>273.39999389648</ele>
        <time>2021-05-29T03:59:39.000Z</time>
      </trkpt>
      <trkpt lat="45.19641" lon="5.72074">
        <ele>274</ele>
        <time>2021-05-29T03:59:41.000Z</time>
      </trkpt>
      <trkpt lat="45.19642" lon="5.72075">
        <ele>274.39999389648</ele>
        <time>2021-05-29T03:59:43.000Z</time>
      </trkpt>
      <trkpt lat="45.19643" lon="5.72074">
        <ele>275.20001220703</ele>
        <time>2021-05-29T03:59:45.000Z</time>
      </trkpt>
      <trkpt lat="45.19644" lon="5.72074">
        <ele>275.79998779297</ele>
        <time>2021-05-29T03:59:47.000Z</time>
      </trkpt>
      <trkpt lat="45.19644" lon="5.72073">
        <ele>276</ele>
        <time>2021-05-29T03:59:48.000Z</time>
      </trkpt>
      <trkpt lat="45.19645" lon="5.72073">
        <ele>276.20001220703</ele>
        <time>2021-05-29T03:59:49.000Z</time>
      </trkpt>
      <trkpt lat="45.19645" lon="5.72072">
        <ele>276.60000610352</ele>
        <time>2021-05-29T03:59:50.000Z</time>
      </trkpt>
      <trkpt lat="45.19647" lon="5.72073">
        <ele>277.20001220703</ele>
        <time>2021-05-29T03:59:52.000Z</time>
      </trkpt>
      <trkpt lat="45.19648" lon="5.72072">
        <ele>277.39999389648</ele>
        <time>2021-05-29T03:59:53.000Z</time>
      </trkpt>
      <trkpt lat="45.19649" lon="5.72073">
        <ele>277.39999389648</ele>
        <time>2021-05-29T03:59:54.000Z</time>
      </trkpt>
      <trkpt lat="45.19651" lon="5.72075">
        <ele>278.60000610352</ele>
        <time>2021-05-29T03:59:58.000Z</time>
      </trkpt>
      <trkpt lat="45.19653" lon="5.72076">
        <ele>279</ele>
        <time>2021-05-29T04:00:00.000Z</time>
      </trkpt>
      <trkpt lat="45.19654" lon="5.7208">
        <ele>279.60000610352</ele>
        <time>2021-05-29T04:00:01.000Z</time>
      </trkpt>
      <trkpt lat="45.19653" lon="5.72086">
        <ele>280.39999389648</ele>
        <time>2021-05-29T04:00:04.000Z</time>
      </trkpt>
      <trkpt lat="45.19652" lon="5.72087">
        <ele>280.60000610352</ele>
        <time>2021-05-29T04:00:05.000Z</time>
      </trkpt>
      <trkpt lat="45.19652" lon="5.72088">
        <ele>280.79998779297</ele>
        <time>2021-05-29T04:00:06.000Z</time>
      </trkpt>
      <trkpt lat="45.19654" lon="5.72088">
        <ele>281.60000610352</ele>
        <time>2021-05-29T04:00:09.000Z</time>
      </trkpt>
      <trkpt lat="45.19654" lon="5.72088">
        <ele>281.79998779297</ele>
        <time>2021-05-29T04:00:10.000Z</time>
      </trkpt>
      <trkpt lat="45.19657" lon="5.72088">
        <ele>282.39999389648</ele>
        <time>2021-05-29T04:00:13.000Z</time>
      </trkpt>
      <trkpt lat="45.19657" lon="5.72087">
        <ele>282.79998779297</ele>
        <time>2021-05-29T04:00:14.000Z</time>
      </trkpt>
      <trkpt lat="45.19658" lon="5.72088">
        <ele>283.20001220703</ele>
        <time>2021-05-29T04:00:15.000Z</time>
      </trkpt>
      <trkpt lat="45.19661" lon="5.7209">
        <ele>283.60000610352</ele>
        <time>2021-05-29T04:00:17.000Z</time>
      </trkpt>
      <trkpt lat="45.19662" lon="5.72092">
        <ele>284</ele>
        <time>2021-05-29T04:00:18.000Z</time>
      </trkpt>
      <trkpt lat="45.19662" lon="5.72093">
        <ele>284.20001220703</ele>
        <time>2021-05-29T04:00:19.000Z</time>
      </trkpt>
      <trkpt lat="45.19661" lon="5.72093">
        <ele>284.39999389648</ele>
        <time>2021-05-29T04:00:20.000Z</time>
      </trkpt>
      <trkpt lat="45.1966" lon="5.72094">
        <ele>285.20001220703</ele>
        <time>2021-05-29T04:00:22.000Z</time>
      </trkpt>
      <trkpt lat="45.1966" lon="5.72094">
        <ele>286</ele>
        <time>2021-05-29T04:00:24.000Z</time>
      </trkpt>
      <trkpt lat="45.1966" lon="5.72095">
        <ele>286.60000610352</ele>
        <time>2021-05-29T04:00:26.000Z</time>
      </trkpt>
      <trkpt lat="45.1966" lon="5.72095">
        <ele>286.79998779297</ele>
        <time>2021-05-29T04:00:27.000Z</time>
      </trkpt>
      <trkpt lat="45.19658" lon="5.72097">
        <ele>287.79998779297</ele>
        <time>2021-05-29T04:00:30.000Z</time>
      </trkpt>
      <trkpt lat="45.19657" lon="5.72098">
        <ele>288.20001220703</ele>
        <time>2021-05-29T04:00:31.000Z</time>
      </trkpt>
      <trkpt lat="45.19658" lon="5.72098">
        <ele>288.39999389648</ele>
        <time>2021-05-29T04:00:32.000Z</time>
      </trkpt>
      <trkpt lat="45.19659" lon="5.72099">
        <ele>288.60000610352</ele>
        <time>2021-05-29T04:00:33.000Z</time>
      </trkpt>
      <trkpt lat="45.1966" lon="5.721">
        <ele>289</ele>
        <time>2021-05-29T04:00:34.000Z</time>
      </trkpt>
      <trkpt lat="45.1966" lon="5.72101">
        <ele>290</ele>
        <time>2021-05-29T04:00:37.000Z</time>
      </trkpt>
      <trkpt lat="45.1966" lon="5.72102">
        <ele>290.39999389648</ele>
        <time>2021-05-29T04:00:38.000Z</time>
      </trkpt>
      <trkpt lat="45.1966" lon="5.72102">
        <ele>290.60000610352</ele>
        <time>2021-05-29T04:00:39.000Z</time>
      </trkpt>
      <trkpt lat="45.1966" lon="5.72104">
        <ele>291</ele>
        <time>2021-05-29T04:00:40.000Z</time>
      </trkpt>
      <trkpt lat="45.19658" lon="5.72107">
        <ele>291.39999389648</ele>
        <time>2021-05-29T04:00:42.000Z</time>
      </trkpt>
      <trkpt lat="45.19657" lon="5.72109">
        <ele>292.20001220703</ele>
        <time>2021-05-29T04:00:44.000Z</time>
      </trkpt>
      <trkpt lat="45.19657" lon="5.7211">
        <ele>292.39999389648</ele>
        <time>2021-05-29T04:00:45.000Z</time>
      </trkpt>
      <trkpt lat="45.19655" lon="5.72118">
        <ele>293.60000610352</ele>
        <time>2021-05-29T04:00:49.000Z</time>
      </trkpt>
      <trkpt lat="45.19654" lon="5.72123">
        <ele>294</ele>
        <time>2021-05-29T04:00:51.000Z</time>
      </trkpt>
      <trkpt lat="45.19653" lon="5.72132">
        <ele>294.60000610352</ele>
        <time>2021-05-29T04:00:55.000Z</time>
      </trkpt>
      <trkpt lat="45.19647" lon="5.72139">
        <ele>294.79998779297</ele>
        <time>2021-05-29T04:00:58.000Z</time>
      </trkpt>
      <trkpt lat="45.19633" lon="5.72147">
        <ele>294.60000610352</ele>
        <time>2021-05-29T04:01:04.000Z</time>
      </trkpt>
      <trkpt lat="45.19614" lon="5.72154">
        <ele>293.60000610352</ele>
        <time>2021-05-29T04:01:11.000Z</time>
      </trkpt>
      <trkpt lat="45.19611" lon="5.72155">
        <ele>293.60000610352</ele>
        <time>2021-05-29T04:01:12.000Z</time>
      </trkpt>
      <trkpt lat="45.19603" lon="5.72156">
        <ele>293</ele>
        <time>2021-05-29T04:01:15.000Z</time>
      </trkpt>
      <trkpt lat="45.19599" lon="5.72158">
        <ele>292.79998779297</ele>
        <time>2021-05-29T04:01:17.000Z</time>
      </trkpt>
      <trkpt lat="45.19594" lon="5.7216">
        <ele>292.60000610352</ele>
        <time>2021-05-29T04:01:19.000Z</time>
      </trkpt>
      <trkpt lat="45.19585" lon="5.72165">
        <ele>292.39999389648</ele>
        <time>2021-05-29T04:01:23.000Z</time>
      </trkpt>
      <trkpt lat="45.19572" lon="5.72178">
        <ele>292.79998779297</ele>
        <time>2021-05-29T04:01:29.000Z</time>
      </trkpt>
      <trkpt lat="45.19568" lon="5.7218">
        <ele>292.79998779297</ele>
        <time>2021-05-29T04:01:31.000Z</time>
      </trkpt>
      <trkpt lat="45.19565" lon="5.72181">
        <ele>293.20001220703</ele>
        <time>2021-05-29T04:01:33.000Z</time>
      </trkpt>
      <trkpt lat="45.19565" lon="5.72186">
        <ele>294</ele>
        <time>2021-05-29T04:01:36.000Z</time>
      </trkpt>
      <trkpt lat="45.19564" lon="5.7219">
        <ele>294.60000610352</ele>
        <time>2021-05-29T04:01:38.000Z</time>
      </trkpt>
      <trkpt lat="45.19562" lon="5.72192">
        <ele>295.20001220703</ele>
        <time>2021-05-29T04:01:40.000Z</time>
      </trkpt>
      <trkpt lat="45.1956" lon="5.72193">
        <ele>295.39999389648</ele>
        <time>2021-05-29T04:01:41.000Z</time>
      </trkpt>
      <trkpt lat="45.19559" lon="5.72193">
        <ele>295.79998779297</ele>
        <time>2021-05-29T04:01:42.000Z</time>
      </trkpt>
      <trkpt lat="45.19557" lon="5.72194">
        <ele>296.20001220703</ele>
        <time>2021-05-29T04:01:43.000Z</time>
      </trkpt>
      <trkpt lat="45.19555" lon="5.72194">
        <ele>296.20001220703</ele>
        <time>2021-05-29T04:01:44.000Z</time>
      </trkpt>
      <trkpt lat="45.19544" lon="5.72193">
        <ele>297.20001220703</ele>
        <time>2021-05-29T04:01:49.000Z</time>
      </trkpt>
      <trkpt lat="45.1954" lon="5.72192">
        <ele>297.20001220703</ele>
        <time>2021-05-29T04:01:52.000Z</time>
      </trkpt>
      <trkpt lat="45.19528" lon="5.72188">
        <ele>297</ele>
        <time>2021-05-29T04:01:58.000Z</time>
      </trkpt>
      <trkpt lat="45.19523" lon="5.72189">
        <ele>297.39999389648</ele>
        <time>2021-05-29T04:02:00.000Z</time>
      </trkpt>
      <trkpt lat="45.19521" lon="5.72189">
        <ele>297.39999389648</ele>
        <time>2021-05-29T04:02:01.000Z</time>
      </trkpt>
      <trkpt lat="45.19512" lon="5.72187">
        <ele>297.79998779297</ele>
        <time>2021-05-29T04:02:05.000Z</time>
      </trkpt>
      <trkpt lat="45.19505" lon="5.72185">
        <ele>298.20001220703</ele>
        <time>2021-05-29T04:02:08.000Z</time>
      </trkpt>
      <trkpt lat="45.19503" lon="5.72185">
        <ele>298.39999389648</ele>
        <time>2021-05-29T04:02:09.000Z</time>
      </trkpt>
      <trkpt lat="45.19491" lon="5.72181">
        <ele>299.20001220703</ele>
        <time>2021-05-29T04:02:15.000Z</time>
      </trkpt>
      <trkpt lat="45.19489" lon="5.72181">
        <ele>299.60000610352</ele>
        <time>2021-05-29T04:02:16.000Z</time>
      </trkpt>
      <trkpt lat="45.19484" lon="5.72179">
        <ele>300.79998779297</ele>
        <time>2021-05-29T04:02:20.000Z</time>
      </trkpt>
      <trkpt lat="45.19483" lon="5.72179">
        <ele>301</ele>
        <time>2021-05-29T04:02:21.000Z</time>
      </trkpt>
      <trkpt lat="45.19476" lon="5.72178">
        <ele>302.20001220703</ele>
        <time>2021-05-29T04:02:24.000Z</time>
      </trkpt>
      <trkpt lat="45.19472" lon="5.72178">
        <ele>303.20001220703</ele>
        <time>2021-05-29T04:02:27.000Z</time>
      </trkpt>
      <trkpt lat="45.19471" lon="5.72178">
        <ele>303.39999389648</ele>
        <time>2021-05-29T04:02:28.000Z</time>
      </trkpt>
      <trkpt lat="45.1947" lon="5.72179">
        <ele>303.79998779297</ele>
        <time>2021-05-29T04:02:29.000Z</time>
      </trkpt>
      <trkpt lat="45.1947" lon="5.72182">
        <ele>304.60000610352</ele>
        <time>2021-05-29T04:02:32.000Z</time>
      </trkpt>
      <trkpt lat="45.1947" lon="5.72182">
        <ele>305</ele>
        <time>2021-05-29T04:02:33.000Z</time>
      </trkpt>
      <trkpt lat="45.19471" lon="5.72183">
        <ele>305</ele>
        <time>2021-05-29T04:02:34.000Z</time>
      </trkpt>
      <trkpt lat="45.19474" lon="5.72186">
        <ele>306</ele>
        <time>2021-05-29T04:02:37.000Z</time>
      </trkpt>
      <trkpt lat="45.19479" lon="5.72193">
        <ele>307.20001220703</ele>
        <time>2021-05-29T04:02:41.000Z</time>
      </trkpt>
      <trkpt lat="45.1948" lon="5.72195">
        <ele>307.79998779297</ele>
        <time>2021-05-29T04:02:43.000Z</time>
      </trkpt>
      <trkpt lat="45.19482" lon="5.72196">
        <ele>308.39999389648</ele>
        <time>2021-05-29T04:02:44.000Z</time>
      </trkpt>
      <trkpt lat="45.19484" lon="5.72197">
        <ele>309.39999389648</ele>
        <time>2021-05-29T04:02:47.000Z</time>
      </trkpt>
      <trkpt lat="45.19487" lon="5.722">
        <ele>310.60000610352</ele>
        <time>2021-05-29T04:02:50.000Z</time>
      </trkpt>
      <trkpt lat="45.1949" lon="5.72201">
        <ele>311.79998779297</ele>
        <time>2021-05-29T04:02:53.000Z</time>
      </trkpt>
      <trkpt lat="45.19494" lon="5.72202">
        <ele>313</ele>
        <time>2021-05-29T04:02:58.000Z</time>
      </trkpt>
      <trkpt lat="45.19497" lon="5.72203">
        <ele>313.39999389648</ele>
        <time>2021-05-29T04:03:00.000Z</time>
      </trkpt>
      <trkpt lat="45.19502" lon="5.72204">
        <ele>314.20001220703</ele>
        <time>2021-05-29T04:03:03.000Z</time>
      </trkpt>
      <trkpt lat="45.19508" lon="5.72208">
        <ele>315.20001220703</ele>
        <time>2021-05-29T04:03:07.000Z</time>
      </trkpt>
      <trkpt lat="45.19517" lon="5.72214">
        <ele>316.20001220703</ele>
        <time>2021-05-29T04:03:13.000Z</time>
      </trkpt>
      <trkpt lat="45.19518" lon="5.72215">
        <ele>316.60000610352</ele>
        <time>2021-05-29T04:03:14.000Z</time>
      </trkpt>
      <trkpt lat="45.19523" lon="5.72221">
        <ele>317.60000610352</ele>
        <time>2021-05-29T04:03:19.000Z</time>
      </trkpt>
      <trkpt lat="45.19524" lon="5.72228">
        <ele>318.20001220703</ele>
        <time>2021-05-29T04:03:22.000Z</time>
      </trkpt>
      <trkpt lat="45.19525" lon="5.72229">
        <ele>318.79998779297</ele>
        <time>2021-05-29T04:03:23.000Z</time>
      </trkpt>
      <trkpt lat="45.19526" lon="5.7223">
        <ele>319.20001220703</ele>
        <time>2021-05-29T04:03:24.000Z</time>
      </trkpt>
      <trkpt lat="45.19527" lon="5.72234">
        <ele>320.20001220703</ele>
        <time>2021-05-29T04:03:26.000Z</time>
      </trkpt>
      <trkpt lat="45.19529" lon="5.72237">
        <ele>321.20001220703</ele>
        <time>2021-05-29T04:03:28.000Z</time>
      </trkpt>
      <trkpt lat="45.19531" lon="5.72237">
        <ele>322.20001220703</ele>
        <time>2021-05-29T04:03:30.000Z</time>
      </trkpt>
      <trkpt lat="45.19532" lon="5.72237">
        <ele>322.60000610352</ele>
        <time>2021-05-29T04:03:31.000Z</time>
      </trkpt>
      <trkpt lat="45.19533" lon="5.72236">
        <ele>323</ele>
        <time>2021-05-29T04:03:32.000Z</time>
      </trkpt>
      <trkpt lat="45.19538" lon="5.72232">
        <ele>323.79998779297</ele>
        <time>2021-05-29T04:03:36.000Z</time>
      </trkpt>
      <trkpt lat="45.1954" lon="5.72232">
        <ele>324</ele>
        <time>2021-05-29T04:03:37.000Z</time>
      </trkpt>
      <trkpt lat="45.19549" lon="5.72234">
        <ele>324.79998779297</ele>
        <time>2021-05-29T04:03:42.000Z</time>
      </trkpt>
      <trkpt lat="45.19554" lon="5.72237">
        <ele>325.39999389648</ele>
        <time>2021-05-29T04:03:45.000Z</time>
      </trkpt>
      <trkpt lat="45.19557" lon="5.72239">
        <ele>325.79998779297</ele>
        <time>2021-05-29T04:03:48.000Z</time>
      </trkpt>
      <trkpt lat="45.19562" lon="5.72243">
        <ele>327</ele>
        <time>2021-05-29T04:03:52.000Z</time>
      </trkpt>
      <trkpt lat="45.19568" lon="5.72247">
        <ele>328</ele>
        <time>2021-05-29T04:03:57.000Z</time>
      </trkpt>
      <trkpt lat="45.19571" lon="5.72249">
        <ele>328.20001220703</ele>
        <time>2021-05-29T04:03:59.000Z</time>
      </trkpt>
      <trkpt lat="45.19575" lon="5.72251">
        <ele>329.39999389648</ele>
        <time>2021-05-29T04:04:02.000Z</time>
      </trkpt>
      <trkpt lat="45.1958" lon="5.72252">
        <ele>330</ele>
        <time>2021-05-29T04:04:06.000Z</time>
      </trkpt>
      <trkpt lat="45.19582" lon="5.72253">
        <ele>330.39999389648</ele>
        <time>2021-05-29T04:04:08.000Z</time>
      </trkpt>
      <trkpt lat="45.19589" lon="5.72253">
        <ele>331.60000610352</ele>
        <time>2021-05-29T04:04:13.000Z</time>
      </trkpt>
      <trkpt lat="45.19599" lon="5.72257">
        <ele>332.39999389648</ele>
        <time>2021-05-29T04:04:19.000Z</time>
      </trkpt>
      <trkpt lat="45.196" lon="5.72258">
        <ele>332.60000610352</ele>
        <time>2021-05-29T04:04:20.000Z</time>
      </trkpt>
      <trkpt lat="45.19609" lon="5.72261">
        <ele>333.79998779297</ele>
        <time>2021-05-29T04:04:27.000Z</time>
      </trkpt>
      <trkpt lat="45.19611" lon="5.72261">
        <ele>333.79998779297</ele>
        <time>2021-05-29T04:04:28.000Z</time>
      </trkpt>
      <trkpt lat="45.19617" lon="5.72263">
        <ele>334.39999389648</ele>
        <time>2021-05-29T04:04:32.000Z</time>
      </trkpt>
      <trkpt lat="45.19621" lon="5.72263">
        <ele>334.79998779297</ele>
        <time>2021-05-29T04:04:34.000Z</time>
      </trkpt>
      <trkpt lat="45.19625" lon="5.72264">
        <ele>335.20001220703</ele>
        <time>2021-05-29T04:04:37.000Z</time>
      </trkpt>
      <trkpt lat="45.19627" lon="5.72264">
        <ele>335.60000610352</ele>
        <time>2021-05-29T04:04:38.000Z</time>
      </trkpt>
      <trkpt lat="45.19629" lon="5.72264">
        <ele>335.79998779297</ele>
        <time>2021-05-29T04:04:39.000Z</time>
      </trkpt>
      <trkpt lat="45.1963" lon="5.72263">
        <ele>336</ele>
        <time>2021-05-29T04:04:40.000Z</time>
      </trkpt>
      <trkpt lat="45.19637" lon="5.72261">
        <ele>337</ele>
        <time>2021-05-29T04:04:45.000Z</time>
      </trkpt>
      <trkpt lat="45.1965" lon="5.72259">
        <ele>338</ele>
        <time>2021-05-29T04:04:51.000Z</time>
      </trkpt>
      <trkpt lat="45.19652" lon="5.72259">
        <ele>338</ele>
        <time>2021-05-29T04:04:52.000Z</time>
      </trkpt>
      <trkpt lat="45.19658" lon="5.72256">
        <ele>339</ele>
        <time>2021-05-29T04:04:57.000Z</time>
      </trkpt>
      <trkpt lat="45.19659" lon="5.72254">
        <ele>339.20001220703</ele>
        <time>2021-05-29T04:04:58.000Z</time>
      </trkpt>
      <trkpt lat="45.19661" lon="5.72251">
        <ele>339.79998779297</ele>
        <time>2021-05-29T04:05:01.000Z</time>
      </trkpt>
      <trkpt lat="45.19663" lon="5.72247">
        <ele>340.20001220703</ele>
        <time>2021-05-29T04:05:03.000Z</time>
      </trkpt>
      <trkpt lat="45.19664" lon="5.72246">
        <ele>340.20001220703</ele>
        <time>2021-05-29T04:05:04.000Z</time>
      </trkpt>
      <trkpt lat="45.19667" lon="5.72244">
        <ele>340.79998779297</ele>
        <time>2021-05-29T04:05:06.000Z</time>
      </trkpt>
      <trkpt lat="45.19668" lon="5.7224">
        <ele>341.20001220703</ele>
        <time>2021-05-29T04:05:08.000Z</time>
      </trkpt>
      <trkpt lat="45.19669" lon="5.72237">
        <ele>341.20001220703</ele>
        <time>2021-05-29T04:05:09.000Z</time>
      </trkpt>
      <trkpt lat="45.19671" lon="5.72234">
        <ele>341.39999389648</ele>
        <time>2021-05-29T04:05:11.000Z</time>
      </trkpt>
      <trkpt lat="45.19674" lon="5.72225">
        <ele>342.20001220703</ele>
        <time>2021-05-29T04:05:15.000Z</time>
      </trkpt>
      <trkpt lat="45.19676" lon="5.72223">
        <ele>342.39999389648</ele>
        <time>2021-05-29T04:05:16.000Z</time>
      </trkpt>
      <trkpt lat="45.19678" lon="5.72219">
        <ele>342.79998779297</ele>
        <time>2021-05-29T04:05:18.000Z</time>
      </trkpt>
      <trkpt lat="45.19681" lon="5.72213">
        <ele>343.39999389648</ele>
        <time>2021-05-29T04:05:21.000Z</time>
      </trkpt>
      <trkpt lat="45.1969" lon="5.72205">
        <ele>344.60000610352</ele>
        <time>2021-05-29T04:05:26.000Z</time>
      </trkpt>
      <trkpt lat="45.19692" lon="5.72204">
        <ele>344.79998779297</ele>
        <time>2021-05-29T04:05:27.000Z</time>
      </trkpt>
      <trkpt lat="45.19701" lon="5.72201">
        <ele>345.60000610352</ele>
        <time>2021-05-29T04:05:31.000Z</time>
      </trkpt>
      <trkpt lat="45.19707" lon="5.72199">
        <ele>346.20001220703</ele>
        <time>2021-05-29T04:05:34.000Z</time>
      </trkpt>
      <trkpt lat="45.19709" lon="5.72199">
        <ele>346.20001220703</ele>
        <time>2021-05-29T04:05:35.000Z</time>
      </trkpt>
      <trkpt lat="45.19713" lon="5.72201">
        <ele>346.79998779297</ele>
        <time>2021-05-29T04:05:37.000Z</time>
      </trkpt>
      <trkpt lat="45.19716" lon="5.72204">
        <ele>347</ele>
        <time>2021-05-29T04:05:39.000Z</time>
      </trkpt>
      <trkpt lat="45.19718" lon="5.72207">
        <ele>347.79998779297</ele>
        <time>2021-05-29T04:05:41.000Z</time>
      </trkpt>
      <trkpt lat="45.19718" lon="5.72208">
        <ele>348</ele>
        <time>2021-05-29T04:05:42.000Z</time>
      </trkpt>
      <trkpt lat="45.19716" lon="5.72212">
        <ele>348.39999389648</ele>
        <time>2021-05-29T04:05:45.000Z</time>
      </trkpt>
      <trkpt lat="45.19716" lon="5.72212">
        <ele>348.60000610352</ele>
        <time>2021-05-29T04:05:46.000Z</time>
      </trkpt>
      <trkpt lat="45.19716" lon="5.72215">
        <ele>348.79998779297</ele>
        <time>2021-05-29T04:05:47.000Z</time>
      </trkpt>
      <trkpt lat="45.19716" lon="5.72218">
        <ele>349</ele>
        <time>2021-05-29T04:05:48.000Z</time>
      </trkpt>
      <trkpt lat="45.19712" lon="5.72223">
        <ele>350</ele>
        <time>2021-05-29T04:05:52.000Z</time>
      </trkpt>
      <trkpt lat="45.1971" lon="5.72223">
        <ele>350.20001220703</ele>
        <time>2021-05-29T04:05:53.000Z</time>
      </trkpt>
      <trkpt lat="45.19709" lon="5.72224">
        <ele>350.39999389648</ele>
        <time>2021-05-29T04:05:54.000Z</time>
      </trkpt>
      <trkpt lat="45.19706" lon="5.72226">
        <ele>351.20001220703</ele>
        <time>2021-05-29T04:05:57.000Z</time>
      </trkpt>
      <trkpt lat="45.19705" lon="5.72229">
        <ele>351.79998779297</ele>
        <time>2021-05-29T04:05:59.000Z</time>
      </trkpt>
      <trkpt lat="45.19704" lon="5.7223">
        <ele>352</ele>
        <time>2021-05-29T04:06:00.000Z</time>
      </trkpt>
      <trkpt lat="45.19703" lon="5.72232">
        <ele>352.39999389648</ele>
        <time>2021-05-29T04:06:02.000Z</time>
      </trkpt>
      <trkpt lat="45.19701" lon="5.72232">
        <ele>352.39999389648</ele>
        <time>2021-05-29T04:06:03.000Z</time>
      </trkpt>
      <trkpt lat="45.19699" lon="5.72235">
        <ele>352.79998779297</ele>
        <time>2021-05-29T04:06:05.000Z</time>
      </trkpt>
      <trkpt lat="45.19698" lon="5.72237">
        <ele>353</ele>
        <time>2021-05-29T04:06:06.000Z</time>
      </trkpt>
      <trkpt lat="45.19694" lon="5.72242">
        <ele>353.39999389648</ele>
        <time>2021-05-29T04:06:09.000Z</time>
      </trkpt>
      <trkpt lat="45.19691" lon="5.72245">
        <ele>353.79998779297</ele>
        <time>2021-05-29T04:06:11.000Z</time>
      </trkpt>
      <trkpt lat="45.19692" lon="5.72247">
        <ele>354.20001220703</ele>
        <time>2021-05-29T04:06:12.000Z</time>
      </trkpt>
      <trkpt lat="45.19694" lon="5.72248">
        <ele>354.60000610352</ele>
        <time>2021-05-29T04:06:14.000Z</time>
      </trkpt>
      <trkpt lat="45.19696" lon="5.72247">
        <ele>355</ele>
        <time>2021-05-29T04:06:16.000Z</time>
      </trkpt>
      <trkpt lat="45.19701" lon="5.72244">
        <ele>355.60000610352</ele>
        <time>2021-05-29T04:06:20.000Z</time>
      </trkpt>
      <trkpt lat="45.19704" lon="5.72244">
        <ele>356</ele>
        <time>2021-05-29T04:06:22.000Z</time>
      </trkpt>
      <trkpt lat="45.19705" lon="5.72244">
        <ele>356.39999389648</ele>
        <time>2021-05-29T04:06:23.000Z</time>
      </trkpt>
      <trkpt lat="45.19706" lon="5.72244">
        <ele>356.60000610352</ele>
        <time>2021-05-29T04:06:24.000Z</time>
      </trkpt>
      <trkpt lat="45.19712" lon="5.72243">
        <ele>357.79998779297</ele>
        <time>2021-05-29T04:06:29.000Z</time>
      </trkpt>
      <trkpt lat="45.19713" lon="5.72244">
        <ele>358.20001220703</ele>
        <time>2021-05-29T04:06:31.000Z</time>
      </trkpt>
      <trkpt lat="45.19713" lon="5.72244">
        <ele>358.60000610352</ele>
        <time>2021-05-29T04:06:32.000Z</time>
      </trkpt>
      <trkpt lat="45.19714" lon="5.72243">
        <ele>359</ele>
        <time>2021-05-29T04:06:33.000Z</time>
      </trkpt>
      <trkpt lat="45.19716" lon="5.72243">
        <ele>359.39999389648</ele>
        <time>2021-05-29T04:06:35.000Z</time>
      </trkpt>
      <trkpt lat="45.19717" lon="5.72243">
        <ele>359.39999389648</ele>
        <time>2021-05-29T04:06:36.000Z</time>
      </trkpt>
      <trkpt lat="45.1972" lon="5.72241">
        <ele>360</ele>
        <time>2021-05-29T04:06:39.000Z</time>
      </trkpt>
      <trkpt lat="45.19722" lon="5.7224">
        <ele>360.39999389648</ele>
        <time>2021-05-29T04:06:40.000Z</time>
      </trkpt>
      <trkpt lat="45.19727" lon="5.72241">
        <ele>360.79998779297</ele>
        <time>2021-05-29T04:06:43.000Z</time>
      </trkpt>
      <trkpt lat="45.19728" lon="5.72241">
        <ele>361.20001220703</ele>
        <time>2021-05-29T04:06:44.000Z</time>
      </trkpt>
      <trkpt lat="45.1973" lon="5.72241">
        <ele>361.20001220703</ele>
        <time>2021-05-29T04:06:45.000Z</time>
      </trkpt>
      <trkpt lat="45.19739" lon="5.72239">
        <ele>361.79998779297</ele>
        <time>2021-05-29T04:06:50.000Z</time>
      </trkpt>
      <trkpt lat="45.1974" lon="5.72239">
        <ele>362.20001220703</ele>
        <time>2021-05-29T04:06:51.000Z</time>
      </trkpt>
      <trkpt lat="45.19745" lon="5.72235">
        <ele>363</ele>
        <time>2021-05-29T04:06:55.000Z</time>
      </trkpt>
      <trkpt lat="45.19747" lon="5.72235">
        <ele>363.20001220703</ele>
        <time>2021-05-29T04:06:56.000Z</time>
      </trkpt>
      <trkpt lat="45.19749" lon="5.72235">
        <ele>363.39999389648</ele>
        <time>2021-05-29T04:06:57.000Z</time>
      </trkpt>
      <trkpt lat="45.19755" lon="5.72233">
        <ele>364.39999389648</ele>
        <time>2021-05-29T04:07:01.000Z</time>
      </trkpt>
      <trkpt lat="45.19757" lon="5.72233">
        <ele>364.39999389648</ele>
        <time>2021-05-29T04:07:02.000Z</time>
      </trkpt>
      <trkpt lat="45.19761" lon="5.72234">
        <ele>365.20001220703</ele>
        <time>2021-05-29T04:07:04.000Z</time>
      </trkpt>
      <trkpt lat="45.19762" lon="5.72235">
        <ele>365.39999389648</ele>
        <time>2021-05-29T04:07:05.000Z</time>
      </trkpt>
      <trkpt lat="45.19762" lon="5.72236">
        <ele>365.60000610352</ele>
        <time>2021-05-29T04:07:06.000Z</time>
      </trkpt>
      <trkpt lat="45.19762" lon="5.72239">
        <ele>366</ele>
        <time>2021-05-29T04:07:08.000Z</time>
      </trkpt>
      <trkpt lat="45.1976" lon="5.72242">
        <ele>366.79998779297</ele>
        <time>2021-05-29T04:07:11.000Z</time>
      </trkpt>
      <trkpt lat="45.19759" lon="5.72244">
        <ele>367.20001220703</ele>
        <time>2021-05-29T04:07:12.000Z</time>
      </trkpt>
      <trkpt lat="45.19756" lon="5.72246">
        <ele>367.79998779297</ele>
        <time>2021-05-29T04:07:17.000Z</time>
      </trkpt>
      <trkpt lat="45.19757" lon="5.72245">
        <ele>367.79998779297</ele>
        <time>2021-05-29T04:07:18.000Z</time>
      </trkpt>
      <trkpt lat="45.19759" lon="5.72243">
        <ele>368.20001220703</ele>
        <time>2021-05-29T04:07:20.000Z</time>
      </trkpt>
      <trkpt lat="45.19761" lon="5.72241">
        <ele>368.79998779297</ele>
        <time>2021-05-29T04:07:22.000Z</time>
      </trkpt>
      <trkpt lat="45.19762" lon="5.72239">
        <ele>369.20001220703</ele>
        <time>2021-05-29T04:07:24.000Z</time>
      </trkpt>
      <trkpt lat="45.19763" lon="5.72239">
        <ele>369.39999389648</ele>
        <time>2021-05-29T04:07:25.000Z</time>
      </trkpt>
      <trkpt lat="45.19764" lon="5.72239">
        <ele>369.60000610352</ele>
        <time>2021-05-29T04:07:27.000Z</time>
      </trkpt>
      <trkpt lat="45.19764" lon="5.72238">
        <ele>369.79998779297</ele>
        <time>2021-05-29T04:07:28.000Z</time>
      </trkpt>
      <trkpt lat="45.19764" lon="5.72236">
        <ele>370.20001220703</ele>
        <time>2021-05-29T04:07:29.000Z</time>
      </trkpt>
      <trkpt lat="45.19768" lon="5.72232">
        <ele>370.39999389648</ele>
        <time>2021-05-29T04:07:32.000Z</time>
      </trkpt>
      <trkpt lat="45.19767" lon="5.72235">
        <ele>370.79998779297</ele>
        <time>2021-05-29T04:07:35.000Z</time>
      </trkpt>
      <trkpt lat="45.19766" lon="5.72235">
        <ele>371.20001220703</ele>
        <time>2021-05-29T04:07:38.000Z</time>
      </trkpt>
      <trkpt lat="45.19767" lon="5.72235">
        <ele>371.20001220703</ele>
        <time>2021-05-29T04:07:39.000Z</time>
      </trkpt>
      <trkpt lat="45.19769" lon="5.72233">
        <ele>372.39999389648</ele>
        <time>2021-05-29T04:07:42.000Z</time>
      </trkpt>
      <trkpt lat="45.1977" lon="5.72233">
        <ele>372.60000610352</ele>
        <time>2021-05-29T04:07:44.000Z</time>
      </trkpt>
      <trkpt lat="45.19771" lon="5.72233">
        <ele>372.79998779297</ele>
        <time>2021-05-29T04:07:45.000Z</time>
      </trkpt>
      <trkpt lat="45.1977" lon="5.72233">
        <ele>373</ele>
        <time>2021-05-29T04:07:46.000Z</time>
      </trkpt>
      <trkpt lat="45.1977" lon="5.72234">
        <ele>373.20001220703</ele>
        <time>2021-05-29T04:07:47.000Z</time>
      </trkpt>
      <trkpt lat="45.1977" lon="5.72235">
        <ele>373.20001220703</ele>
        <time>2021-05-29T04:07:48.000Z</time>
      </trkpt>
      <trkpt lat="45.19769" lon="5.72235">
        <ele>373.60000610352</ele>
        <time>2021-05-29T04:07:49.000Z</time>
      </trkpt>
      <trkpt lat="45.19769" lon="5.72237">
        <ele>374.39999389648</ele>
        <time>2021-05-29T04:07:52.000Z</time>
      </trkpt>
      <trkpt lat="45.1977" lon="5.72237">
        <ele>374.60000610352</ele>
        <time>2021-05-29T04:07:53.000Z</time>
      </trkpt>
      <trkpt lat="45.19774" lon="5.72234">
        <ele>375.39999389648</ele>
        <time>2021-05-29T04:07:57.000Z</time>
      </trkpt>
      <trkpt lat="45.19775" lon="5.72234">
        <ele>375.39999389648</ele>
        <time>2021-05-29T04:07:58.000Z</time>
      </trkpt>
      <trkpt lat="45.19774" lon="5.72236">
        <ele>375.60000610352</ele>
        <time>2021-05-29T04:08:00.000Z</time>
      </trkpt>
      <trkpt lat="45.19772" lon="5.72236">
        <ele>376.20001220703</ele>
        <time>2021-05-29T04:08:01.000Z</time>
      </trkpt>
      <trkpt lat="45.19771" lon="5.72237">
        <ele>376.79998779297</ele>
        <time>2021-05-29T04:08:03.000Z</time>
      </trkpt>
      <trkpt lat="45.1977" lon="5.72238">
        <ele>377</ele>
        <time>2021-05-29T04:08:04.000Z</time>
      </trkpt>
      <trkpt lat="45.19769" lon="5.72239">
        <ele>377.60000610352</ele>
        <time>2021-05-29T04:08:06.000Z</time>
      </trkpt>
      <trkpt lat="45.1977" lon="5.72239">
        <ele>378</ele>
        <time>2021-05-29T04:08:08.000Z</time>
      </trkpt>
      <trkpt lat="45.1977" lon="5.72238">
        <ele>378.20001220703</ele>
        <time>2021-05-29T04:08:09.000Z</time>
      </trkpt>
      <trkpt lat="45.19771" lon="5.72236">
        <ele>378.60000610352</ele>
        <time>2021-05-29T04:08:11.000Z</time>
      </trkpt>
      <trkpt lat="45.19775" lon="5.72233">
        <ele>379.20001220703</ele>
        <time>2021-05-29T04:08:14.000Z</time>
      </trkpt>
      <trkpt lat="45.19775" lon="5.72235">
        <ele>379.60000610352</ele>
        <time>2021-05-29T04:08:16.000Z</time>
      </trkpt>
      <trkpt lat="45.19772" lon="5.72236">
        <ele>380</ele>
        <time>2021-05-29T04:08:18.000Z</time>
      </trkpt>
      <trkpt lat="45.19772" lon="5.72237">
        <ele>380.20001220703</ele>
        <time>2021-05-29T04:08:19.000Z</time>
      </trkpt>
      <trkpt lat="45.19772" lon="5.72241">
        <ele>380.60000610352</ele>
        <time>2021-05-29T04:08:21.000Z</time>
      </trkpt>
      <trkpt lat="45.19773" lon="5.72238">
        <ele>381</ele>
        <time>2021-05-29T04:08:24.000Z</time>
      </trkpt>
      <trkpt lat="45.19773" lon="5.72238">
        <ele>381.20001220703</ele>
        <time>2021-05-29T04:08:25.000Z</time>
      </trkpt>
      <trkpt lat="45.19776" lon="5.72238">
        <ele>381.79998779297</ele>
        <time>2021-05-29T04:08:28.000Z</time>
      </trkpt>
      <trkpt lat="45.19775" lon="5.72239">
        <ele>382</ele>
        <time>2021-05-29T04:08:29.000Z</time>
      </trkpt>
      <trkpt lat="45.19775" lon="5.72241">
        <ele>382.20001220703</ele>
        <time>2021-05-29T04:08:30.000Z</time>
      </trkpt>
      <trkpt lat="45.19774" lon="5.72242">
        <ele>382.39999389648</ele>
        <time>2021-05-29T04:08:31.000Z</time>
      </trkpt>
      <trkpt lat="45.19773" lon="5.72246">
        <ele>383.39999389648</ele>
        <time>2021-05-29T04:08:35.000Z</time>
      </trkpt>
      <trkpt lat="45.19774" lon="5.72246">
        <ele>383.60000610352</ele>
        <time>2021-05-29T04:08:36.000Z</time>
      </trkpt>
      <trkpt lat="45.19777" lon="5.72243">
        <ele>384.20001220703</ele>
        <time>2021-05-29T04:08:39.000Z</time>
      </trkpt>
      <trkpt lat="45.19777" lon="5.72242">
        <ele>384.60000610352</ele>
        <time>2021-05-29T04:08:40.000Z</time>
      </trkpt>
      <trkpt lat="45.19778" lon="5.72245">
        <ele>385</ele>
        <time>2021-05-29T04:08:43.000Z</time>
      </trkpt>
      <trkpt lat="45.19776" lon="5.72247">
        <ele>385.79998779297</ele>
        <time>2021-05-29T04:08:45.000Z</time>
      </trkpt>
      <trkpt lat="45.19773" lon="5.72249">
        <ele>386.39999389648</ele>
        <time>2021-05-29T04:08:47.000Z</time>
      </trkpt>
      <trkpt lat="45.19773" lon="5.72249">
        <ele>386.60000610352</ele>
        <time>2021-05-29T04:08:48.000Z</time>
      </trkpt>
      <trkpt lat="45.19774" lon="5.7225">
        <ele>387</ele>
        <time>2021-05-29T04:08:50.000Z</time>
      </trkpt>
      <trkpt lat="45.19775" lon="5.72249">
        <ele>387.20001220703</ele>
        <time>2021-05-29T04:08:51.000Z</time>
      </trkpt>
      <trkpt lat="45.19779" lon="5.72252">
        <ele>388.20001220703</ele>
        <time>2021-05-29T04:08:54.000Z</time>
      </trkpt>
      <trkpt lat="45.19781" lon="5.72253">
        <ele>389.20001220703</ele>
        <time>2021-05-29T04:08:56.000Z</time>
      </trkpt>
      <trkpt lat="45.19781" lon="5.72254">
        <ele>389.39999389648</ele>
        <time>2021-05-29T04:08:57.000Z</time>
      </trkpt>
      <trkpt lat="45.19782" lon="5.72257">
        <ele>389.79998779297</ele>
        <time>2021-05-29T04:09:00.000Z</time>
      </trkpt>
      <trkpt lat="45.19783" lon="5.72257">
        <ele>389.79998779297</ele>
        <time>2021-05-29T04:09:01.000Z</time>
      </trkpt>
      <trkpt lat="45.19782" lon="5.72257">
        <ele>390</ele>
        <time>2021-05-29T04:09:02.000Z</time>
      </trkpt>
      <trkpt lat="45.19782" lon="5.72256">
        <ele>390.20001220703</ele>
        <time>2021-05-29T04:09:03.000Z</time>
      </trkpt>
      <trkpt lat="45.19782" lon="5.72256">
        <ele>390.79998779297</ele>
        <time>2021-05-29T04:09:04.000Z</time>
      </trkpt>
      <trkpt lat="45.19781" lon="5.72256">
        <ele>391.20001220703</ele>
        <time>2021-05-29T04:09:05.000Z</time>
      </trkpt>
      <trkpt lat="45.19781" lon="5.72256">
        <ele>391.39999389648</ele>
        <time>2021-05-29T04:09:06.000Z</time>
      </trkpt>
      <trkpt lat="45.19781" lon="5.72257">
        <ele>392</ele>
        <time>2021-05-29T04:09:07.000Z</time>
      </trkpt>
      <trkpt lat="45.1978" lon="5.72255">
        <ele>392.60000610352</ele>
        <time>2021-05-29T04:09:11.000Z</time>
      </trkpt>
      <trkpt lat="45.19778" lon="5.72256">
        <ele>392.79998779297</ele>
        <time>2021-05-29T04:09:12.000Z</time>
      </trkpt>
      <trkpt lat="45.19777" lon="5.72256">
        <ele>393.60000610352</ele>
        <time>2021-05-29T04:09:13.000Z</time>
      </trkpt>
      <trkpt lat="45.19775" lon="5.72253">
        <ele>394.60000610352</ele>
        <time>2021-05-29T04:09:15.000Z</time>
      </trkpt>
      <trkpt lat="45.19775" lon="5.72253">
        <ele>394.79998779297</ele>
        <time>2021-05-29T04:09:16.000Z</time>
      </trkpt>
      <trkpt lat="45.19776" lon="5.72253">
        <ele>395.20001220703</ele>
        <time>2021-05-29T04:09:17.000Z</time>
      </trkpt>
      <trkpt lat="45.19777" lon="5.72252">
        <ele>395.60000610352</ele>
        <time>2021-05-29T04:09:18.000Z</time>
      </trkpt>
      <trkpt lat="45.19777" lon="5.72251">
        <ele>395.79998779297</ele>
        <time>2021-05-29T04:09:19.000Z</time>
      </trkpt>
      <trkpt lat="45.19778" lon="5.72251">
        <ele>396.39999389648</ele>
        <time>2021-05-29T04:09:20.000Z</time>
      </trkpt>
      <trkpt lat="45.19779" lon="5.72248">
        <ele>397</ele>
        <time>2021-05-29T04:09:22.000Z</time>
      </trkpt>
      <trkpt lat="45.19779" lon="5.72246">
        <ele>397.39999389648</ele>
        <time>2021-05-29T04:09:23.000Z</time>
      </trkpt>
      <trkpt lat="45.1978" lon="5.72242">
        <ele>397.79998779297</ele>
        <time>2021-05-29T04:09:25.000Z</time>
      </trkpt>
      <trkpt lat="45.1978" lon="5.7224">
        <ele>398</ele>
        <time>2021-05-29T04:09:26.000Z</time>
      </trkpt>
      <trkpt lat="45.19781" lon="5.72238">
        <ele>398.20001220703</ele>
        <time>2021-05-29T04:09:27.000Z</time>
      </trkpt>
      <trkpt lat="45.19783" lon="5.72232">
        <ele>398.60000610352</ele>
        <time>2021-05-29T04:09:30.000Z</time>
      </trkpt>
      <trkpt lat="45.19788" lon="5.72226">
        <ele>399</ele>
        <time>2021-05-29T04:09:33.000Z</time>
      </trkpt>
      <trkpt lat="45.19791" lon="5.72225">
        <ele>399.20001220703</ele>
        <time>2021-05-29T04:09:35.000Z</time>
      </trkpt>
      <trkpt lat="45.19792" lon="5.72225">
        <ele>399.20001220703</ele>
        <time>2021-05-29T04:09:36.000Z</time>
      </trkpt>
      <trkpt lat="45.19798" lon="5.72229">
        <ele>400</ele>
        <time>2021-05-29T04:09:40.000Z</time>
      </trkpt>
      <trkpt lat="45.19798" lon="5.72231">
        <ele>400.20001220703</ele>
        <time>2021-05-29T04:09:41.000Z</time>
      </trkpt>
      <trkpt lat="45.19798" lon="5.72233">
        <ele>400.79998779297</ele>
        <time>2021-05-29T04:09:43.000Z</time>
      </trkpt>
      <trkpt lat="45.19799" lon="5.72236">
        <ele>401.20001220703</ele>
        <time>2021-05-29T04:09:45.000Z</time>
      </trkpt>
      <trkpt lat="45.19799" lon="5.72237">
        <ele>401.60000610352</ele>
        <time>2021-05-29T04:09:46.000Z</time>
      </trkpt>
      <trkpt lat="45.19798" lon="5.72237">
        <ele>402</ele>
        <time>2021-05-29T04:09:48.000Z</time>
      </trkpt>
      <trkpt lat="45.198" lon="5.72237">
        <ele>402.20001220703</ele>
        <time>2021-05-29T04:09:50.000Z</time>
      </trkpt>
      <trkpt lat="45.19801" lon="5.72236">
        <ele>402.60000610352</ele>
        <time>2021-05-29T04:09:51.000Z</time>
      </trkpt>
      <trkpt lat="45.19806" lon="5.72236">
        <ele>403.39999389648</ele>
        <time>2021-05-29T04:09:55.000Z</time>
      </trkpt>
      <trkpt lat="45.19809" lon="5.72238">
        <ele>404.39999389648</ele>
        <time>2021-05-29T04:09:58.000Z</time>
      </trkpt>
      <trkpt lat="45.1981" lon="5.7224">
        <ele>405.20001220703</ele>
        <time>2021-05-29T04:10:00.000Z</time>
      </trkpt>
      <trkpt lat="45.19809" lon="5.72242">
        <ele>405.60000610352</ele>
        <time>2021-05-29T04:10:02.000Z</time>
      </trkpt>
      <trkpt lat="45.19808" lon="5.72245">
        <ele>406.20001220703</ele>
        <time>2021-05-29T04:10:04.000Z</time>
      </trkpt>
      <trkpt lat="45.19808" lon="5.72246">
        <ele>406.79998779297</ele>
        <time>2021-05-29T04:10:05.000Z</time>
      </trkpt>
      <trkpt lat="45.19808" lon="5.72248">
        <ele>407.39999389648</ele>
        <time>2021-05-29T04:10:08.000Z</time>
      </trkpt>
      <trkpt lat="45.19808" lon="5.72249">
        <ele>407.39999389648</ele>
        <time>2021-05-29T04:10:09.000Z</time>
      </trkpt>
      <trkpt lat="45.19809" lon="5.72252">
        <ele>407.79998779297</ele>
        <time>2021-05-29T04:10:11.000Z</time>
      </trkpt>
      <trkpt lat="45.19809" lon="5.72253">
        <ele>408</ele>
        <time>2021-05-29T04:10:12.000Z</time>
      </trkpt>
      <trkpt lat="45.19808" lon="5.72254">
        <ele>408.39999389648</ele>
        <time>2021-05-29T04:10:13.000Z</time>
      </trkpt>
      <trkpt lat="45.19809" lon="5.72255">
        <ele>409</ele>
        <time>2021-05-29T04:10:16.000Z</time>
      </trkpt>
      <trkpt lat="45.19827" lon="5.72256">
        <ele>418.39999389648</ele>
        <time>2021-05-29T04:10:41.000Z</time>
      </trkpt>
      <trkpt lat="45.1983" lon="5.72257">
        <ele>419</ele>
        <time>2021-05-29T04:10:44.000Z</time>
      </trkpt>
      <trkpt lat="45.19826" lon="5.72257">
        <ele>419.20001220703</ele>
        <time>2021-05-29T04:10:45.000Z</time>
      </trkpt>
      <trkpt lat="45.19826" lon="5.72258">
        <ele>419.79998779297</ele>
        <time>2021-05-29T04:10:47.000Z</time>
      </trkpt>
      <trkpt lat="45.19826" lon="5.72259">
        <ele>420.20001220703</ele>
        <time>2021-05-29T04:10:48.000Z</time>
      </trkpt>
      <trkpt lat="45.19826" lon="5.72259">
        <ele>420.79998779297</ele>
        <time>2021-05-29T04:10:49.000Z</time>
      </trkpt>
      <trkpt lat="45.19827" lon="5.7226">
        <ele>421.39999389648</ele>
        <time>2021-05-29T04:10:50.000Z</time>
      </trkpt>
      <trkpt lat="45.19828" lon="5.7226">
        <ele>421.79998779297</ele>
        <time>2021-05-29T04:10:51.000Z</time>
      </trkpt>
      <trkpt lat="45.19828" lon="5.7226">
        <ele>422.20001220703</ele>
        <time>2021-05-29T04:10:53.000Z</time>
      </trkpt>
      <trkpt lat="45.19828" lon="5.72261">
        <ele>422.39999389648</ele>
        <time>2021-05-29T04:10:54.000Z</time>
      </trkpt>
      <trkpt lat="45.19827" lon="5.72264">
        <ele>422.79998779297</ele>
        <time>2021-05-29T04:10:57.000Z</time>
      </trkpt>
      <trkpt lat="45.19826" lon="5.72266">
        <ele>423</ele>
        <time>2021-05-29T04:10:58.000Z</time>
      </trkpt>
      <trkpt lat="45.1982" lon="5.72272">
        <ele>423.39999389648</ele>
        <time>2021-05-29T04:11:04.000Z</time>
      </trkpt>
      <trkpt lat="45.19817" lon="5.72287">
        <ele>424.20001220703</ele>
        <time>2021-05-29T04:11:10.000Z</time>
      </trkpt>
      <trkpt lat="45.19817" lon="5.72291">
        <ele>424.60000610352</ele>
        <time>2021-05-29T04:11:12.000Z</time>
      </trkpt>
      <trkpt lat="45.19817" lon="5.7229">
        <ele>424.79998779297</ele>
        <time>2021-05-29T04:11:14.000Z</time>
      </trkpt>
      <trkpt lat="45.19816" lon="5.72289">
        <ele>425.39999389648</ele>
        <time>2021-05-29T04:11:16.000Z</time>
      </trkpt>
      <trkpt lat="45.19817" lon="5.72288">
        <ele>425.79998779297</ele>
        <time>2021-05-29T04:11:17.000Z</time>
      </trkpt>
      <trkpt lat="45.19817" lon="5.72287">
        <ele>426</ele>
        <time>2021-05-29T04:11:18.000Z</time>
      </trkpt>
      <trkpt lat="45.19818" lon="5.72284">
        <ele>426.79998779297</ele>
        <time>2021-05-29T04:11:20.000Z</time>
      </trkpt>
      <trkpt lat="45.1982" lon="5.72281">
        <ele>427.20001220703</ele>
        <time>2021-05-29T04:11:22.000Z</time>
      </trkpt>
      <trkpt lat="45.19822" lon="5.7228">
        <ele>427.39999389648</ele>
        <time>2021-05-29T04:11:23.000Z</time>
      </trkpt>
      <trkpt lat="45.19823" lon="5.7228">
        <ele>428</ele>
        <time>2021-05-29T04:11:25.000Z</time>
      </trkpt>
      <trkpt lat="45.19823" lon="5.72281">
        <ele>428.39999389648</ele>
        <time>2021-05-29T04:11:27.000Z</time>
      </trkpt>
      <trkpt lat="45.19823" lon="5.72281">
        <ele>428.60000610352</ele>
        <time>2021-05-29T04:11:29.000Z</time>
      </trkpt>
      <trkpt lat="45.19822" lon="5.72282">
        <ele>428</ele>
        <time>2021-05-29T04:11:30.000Z</time>
      </trkpt>
      <trkpt lat="45.1982" lon="5.72287">
        <ele>427</ele>
        <time>2021-05-29T04:11:34.000Z</time>
      </trkpt>
      <trkpt lat="45.19819" lon="5.7229">
        <ele>426.20001220703</ele>
        <time>2021-05-29T04:11:36.000Z</time>
      </trkpt>
      <trkpt lat="45.19819" lon="5.72291">
        <ele>426</ele>
        <time>2021-05-29T04:11:37.000Z</time>
      </trkpt>
      <trkpt lat="45.19814" lon="5.723">
        <ele>425</ele>
        <time>2021-05-29T04:11:42.000Z</time>
      </trkpt>
      <trkpt lat="45.19812" lon="5.72302">
        <ele>424.79998779297</ele>
        <time>2021-05-29T04:11:43.000Z</time>
      </trkpt>
      <trkpt lat="45.19808" lon="5.7231">
        <ele>425.60000610352</ele>
        <time>2021-05-29T04:11:47.000Z</time>
      </trkpt>
      <trkpt lat="45.19803" lon="5.7233">
        <ele>426</ele>
        <time>2021-05-29T04:11:54.000Z</time>
      </trkpt>
      <trkpt lat="45.19804" lon="5.72333">
        <ele>426.20001220703</ele>
        <time>2021-05-29T04:11:56.000Z</time>
      </trkpt>
      <trkpt lat="45.19805" lon="5.72337">
        <ele>426.39999389648</ele>
        <time>2021-05-29T04:11:58.000Z</time>
      </trkpt>
      <trkpt lat="45.19809" lon="5.72347">
        <ele>436.20001220703</ele>
        <time>2021-05-29T04:12:27.000Z</time>
      </trkpt>
      <trkpt lat="45.19807" lon="5.72342">
        <ele>436.39999389648</ele>
        <time>2021-05-29T04:12:29.000Z</time>
      </trkpt>
      <trkpt lat="45.19813" lon="5.72332">
        <ele>436.39999389648</ele>
        <time>2021-05-29T04:12:32.000Z</time>
      </trkpt>
      <trkpt lat="45.19815" lon="5.72331">
        <ele>436.60000610352</ele>
        <time>2021-05-29T04:12:34.000Z</time>
      </trkpt>
      <trkpt lat="45.19817" lon="5.72333">
        <ele>437</ele>
        <time>2021-05-29T04:12:36.000Z</time>
      </trkpt>
      <trkpt lat="45.19817" lon="5.72335">
        <ele>437.20001220703</ele>
        <time>2021-05-29T04:12:37.000Z</time>
      </trkpt>
      <trkpt lat="45.19817" lon="5.72337">
        <ele>437.39999389648</ele>
        <time>2021-05-29T04:12:38.000Z</time>
      </trkpt>
      <trkpt lat="45.19817" lon="5.7234">
        <ele>438.60000610352</ele>
        <time>2021-05-29T04:12:40.000Z</time>
      </trkpt>
      <trkpt lat="45.19817" lon="5.72341">
        <ele>439.39999389648</ele>
        <time>2021-05-29T04:12:42.000Z</time>
      </trkpt>
      <trkpt lat="45.19817" lon="5.72342">
        <ele>440</ele>
        <time>2021-05-29T04:12:43.000Z</time>
      </trkpt>
      <trkpt lat="45.19818" lon="5.72342">
        <ele>440.79998779297</ele>
        <time>2021-05-29T04:12:45.000Z</time>
      </trkpt>
      <trkpt lat="45.19819" lon="5.72343">
        <ele>441</ele>
        <time>2021-05-29T04:12:46.000Z</time>
      </trkpt>
      <trkpt lat="45.19819" lon="5.72345">
        <ele>442</ele>
        <time>2021-05-29T04:12:48.000Z</time>
      </trkpt>
      <trkpt lat="45.19819" lon="5.72348">
        <ele>442.79998779297</ele>
        <time>2021-05-29T04:12:51.000Z</time>
      </trkpt>
      <trkpt lat="45.19819" lon="5.72349">
        <ele>443</ele>
        <time>2021-05-29T04:12:52.000Z</time>
      </trkpt>
      <trkpt lat="45.19819" lon="5.7235">
        <ele>443.39999389648</ele>
        <time>2021-05-29T04:12:53.000Z</time>
      </trkpt>
      <trkpt lat="45.19819" lon="5.72351">
        <ele>445</ele>
        <time>2021-05-29T04:12:55.000Z</time>
      </trkpt>
      <trkpt lat="45.19819" lon="5.72351">
        <ele>445.39999389648</ele>
        <time>2021-05-29T04:12:56.000Z</time>
      </trkpt>
      <trkpt lat="45.19819" lon="5.72354">
        <ele>445.79998779297</ele>
        <time>2021-05-29T04:12:58.000Z</time>
      </trkpt>
      <trkpt lat="45.19819" lon="5.72356">
        <ele>446</ele>
        <time>2021-05-29T04:12:59.000Z</time>
      </trkpt>
      <trkpt lat="45.19819" lon="5.72358">
        <ele>446.39999389648</ele>
        <time>2021-05-29T04:13:01.000Z</time>
      </trkpt>
      <trkpt lat="45.19819" lon="5.7236">
        <ele>447</ele>
        <time>2021-05-29T04:13:02.000Z</time>
      </trkpt>
      <trkpt lat="45.19818" lon="5.72363">
        <ele>447.79998779297</ele>
        <time>2021-05-29T04:13:05.000Z</time>
      </trkpt>
      <trkpt lat="45.19814" lon="5.72366">
        <ele>447.79998779297</ele>
        <time>2021-05-29T04:13:07.000Z</time>
      </trkpt>
      <trkpt lat="45.19812" lon="5.72368">
        <ele>447.79998779297</ele>
        <time>2021-05-29T04:13:08.000Z</time>
      </trkpt>
      <trkpt lat="45.1981" lon="5.72373">
        <ele>448</ele>
        <time>2021-05-29T04:13:10.000Z</time>
      </trkpt>
      <trkpt lat="45.19809" lon="5.72375">
        <ele>448.20001220703</ele>
        <time>2021-05-29T04:13:11.000Z</time>
      </trkpt>
      <trkpt lat="45.19809" lon="5.72377">
        <ele>448.20001220703</ele>
        <time>2021-05-29T04:13:12.000Z</time>
      </trkpt>
      <trkpt lat="45.19811" lon="5.72379">
        <ele>448.39999389648</ele>
        <time>2021-05-29T04:13:14.000Z</time>
      </trkpt>
      <trkpt lat="45.19813" lon="5.72378">
        <ele>449.60000610352</ele>
        <time>2021-05-29T04:13:17.000Z</time>
      </trkpt>
      <trkpt lat="45.19814" lon="5.72378">
        <ele>450</ele>
        <time>2021-05-29T04:13:18.000Z</time>
      </trkpt>
      <trkpt lat="45.19814" lon="5.72376">
        <ele>450.20001220703</ele>
        <time>2021-05-29T04:13:19.000Z</time>
      </trkpt>
      <trkpt lat="45.19814" lon="5.72374">
        <ele>450.60000610352</ele>
        <time>2021-05-29T04:13:20.000Z</time>
      </trkpt>
      <trkpt lat="45.19814" lon="5.72373">
        <ele>451.60000610352</ele>
        <time>2021-05-29T04:13:22.000Z</time>
      </trkpt>
      <trkpt lat="45.19815" lon="5.72373">
        <ele>452.20001220703</ele>
        <time>2021-05-29T04:13:23.000Z</time>
      </trkpt>
      <trkpt lat="45.19815" lon="5.72374">
        <ele>452.39999389648</ele>
        <time>2021-05-29T04:13:24.000Z</time>
      </trkpt>
      <trkpt lat="45.19813" lon="5.72376">
        <ele>452.60000610352</ele>
        <time>2021-05-29T04:13:26.000Z</time>
      </trkpt>
      <trkpt lat="45.19813" lon="5.72377">
        <ele>453</ele>
        <time>2021-05-29T04:13:27.000Z</time>
      </trkpt>
      <trkpt lat="45.19814" lon="5.72379">
        <ele>453.39999389648</ele>
        <time>2021-05-29T04:13:28.000Z</time>
      </trkpt>
      <trkpt lat="45.19814" lon="5.72382">
        <ele>454</ele>
        <time>2021-05-29T04:13:30.000Z</time>
      </trkpt>
      <trkpt lat="45.19816" lon="5.72386">
        <ele>454.39999389648</ele>
        <time>2021-05-29T04:13:32.000Z</time>
      </trkpt>
      <trkpt lat="45.1982" lon="5.72392">
        <ele>455</ele>
        <time>2021-05-29T04:13:36.000Z</time>
      </trkpt>
      <trkpt lat="45.19822" lon="5.72395">
        <ele>455.20001220703</ele>
        <time>2021-05-29T04:13:38.000Z</time>
      </trkpt>
      <trkpt lat="45.19824" lon="5.72396">
        <ele>456</ele>
        <time>2021-05-29T04:13:41.000Z</time>
      </trkpt>
      <trkpt lat="45.19825" lon="5.72396">
        <ele>456.20001220703</ele>
        <time>2021-05-29T04:13:42.000Z</time>
      </trkpt>
      <trkpt lat="45.19827" lon="5.72394">
        <ele>456.39999389648</ele>
        <time>2021-05-29T04:13:44.000Z</time>
      </trkpt>
      <trkpt lat="45.19829" lon="5.72394">
        <ele>456.79998779297</ele>
        <time>2021-05-29T04:13:46.000Z</time>
      </trkpt>
      <trkpt lat="45.19829" lon="5.72394">
        <ele>457.39999389648</ele>
        <time>2021-05-29T04:13:47.000Z</time>
      </trkpt>
      <trkpt lat="45.1983" lon="5.72394">
        <ele>458.39999389648</ele>
        <time>2021-05-29T04:13:49.000Z</time>
      </trkpt>
      <trkpt lat="45.19831" lon="5.72394">
        <ele>458.60000610352</ele>
        <time>2021-05-29T04:13:50.000Z</time>
      </trkpt>
      <trkpt lat="45.19832" lon="5.72393">
        <ele>459</ele>
        <time>2021-05-29T04:13:51.000Z</time>
      </trkpt>
      <trkpt lat="45.19839" lon="5.72391">
        <ele>459.79998779297</ele>
        <time>2021-05-29T04:13:56.000Z</time>
      </trkpt>
      <trkpt lat="45.1984" lon="5.72392">
        <ele>460</ele>
        <time>2021-05-29T04:13:57.000Z</time>
      </trkpt>
      <trkpt lat="45.1984" lon="5.72396">
        <ele>461</ele>
        <time>2021-05-29T04:14:00.000Z</time>
      </trkpt>
      <trkpt lat="45.1984" lon="5.72397">
        <ele>461.20001220703</ele>
        <time>2021-05-29T04:14:01.000Z</time>
      </trkpt>
      <trkpt lat="45.1984" lon="5.72399">
        <ele>461.79998779297</ele>
        <time>2021-05-29T04:14:03.000Z</time>
      </trkpt>
      <trkpt lat="45.1984" lon="5.72399">
        <ele>462.20001220703</ele>
        <time>2021-05-29T04:14:04.000Z</time>
      </trkpt>
      <trkpt lat="45.1984" lon="5.72399">
        <ele>463</ele>
        <time>2021-05-29T04:14:06.000Z</time>
      </trkpt>
      <trkpt lat="45.1984" lon="5.72399">
        <ele>463.20001220703</ele>
        <time>2021-05-29T04:14:07.000Z</time>
      </trkpt>
      <trkpt lat="45.19841" lon="5.72399">
        <ele>464.39999389648</ele>
        <time>2021-05-29T04:14:11.000Z</time>
      </trkpt>
      <trkpt lat="45.1984" lon="5.724">
        <ele>464.79998779297</ele>
        <time>2021-05-29T04:14:12.000Z</time>
      </trkpt>
      <trkpt lat="45.1984" lon="5.72403">
        <ele>465.39999389648</ele>
        <time>2021-05-29T04:14:14.000Z</time>
      </trkpt>
      <trkpt lat="45.19839" lon="5.72405">
        <ele>467</ele>
        <time>2021-05-29T04:14:17.000Z</time>
      </trkpt>
      <trkpt lat="45.19838" lon="5.72406">
        <ele>468</ele>
        <time>2021-05-29T04:14:19.000Z</time>
      </trkpt>
      <trkpt lat="45.19839" lon="5.72408">
        <ele>468.39999389648</ele>
        <time>2021-05-29T04:14:20.000Z</time>
      </trkpt>
      <trkpt lat="45.19839" lon="5.72409">
        <ele>469.39999389648</ele>
        <time>2021-05-29T04:14:23.000Z</time>
      </trkpt>
      <trkpt lat="45.1984" lon="5.72412">
        <ele>470.39999389648</ele>
        <time>2021-05-29T04:14:25.000Z</time>
      </trkpt>
      <trkpt lat="45.1984" lon="5.72412">
        <ele>470.79998779297</ele>
        <time>2021-05-29T04:14:26.000Z</time>
      </trkpt>
      <trkpt lat="45.1984" lon="5.7241">
        <ele>472</ele>
        <time>2021-05-29T04:14:29.000Z</time>
      </trkpt>
      <trkpt lat="45.1984" lon="5.7241">
        <ele>472.20001220703</ele>
        <time>2021-05-29T04:14:30.000Z</time>
      </trkpt>
      <trkpt lat="45.1984" lon="5.72409">
        <ele>472.60000610352</ele>
        <time>2021-05-29T04:14:31.000Z</time>
      </trkpt>
      <trkpt lat="45.19842" lon="5.72409">
        <ele>473</ele>
        <time>2021-05-29T04:14:33.000Z</time>
      </trkpt>
      <trkpt lat="45.19845" lon="5.72411">
        <ele>474</ele>
        <time>2021-05-29T04:14:36.000Z</time>
      </trkpt>
      <trkpt lat="45.19845" lon="5.72411">
        <ele>474.20001220703</ele>
        <time>2021-05-29T04:14:37.000Z</time>
      </trkpt>
      <trkpt lat="45.19844" lon="5.72417">
        <ele>475.20001220703</ele>
        <time>2021-05-29T04:14:42.000Z</time>
      </trkpt>
      <trkpt lat="45.19844" lon="5.72418">
        <ele>476.60000610352</ele>
        <time>2021-05-29T04:14:44.000Z</time>
      </trkpt>
      <trkpt lat="45.19844" lon="5.72419">
        <ele>477.20001220703</ele>
        <time>2021-05-29T04:14:45.000Z</time>
      </trkpt>
      <trkpt lat="45.19844" lon="5.7242">
        <ele>477.79998779297</ele>
        <time>2021-05-29T04:14:47.000Z</time>
      </trkpt>
      <trkpt lat="45.19844" lon="5.72422">
        <ele>479</ele>
        <time>2021-05-29T04:14:50.000Z</time>
      </trkpt>
      <trkpt lat="45.19844" lon="5.72423">
        <ele>479.20001220703</ele>
        <time>2021-05-29T04:14:51.000Z</time>
      </trkpt>
      <trkpt lat="45.19844" lon="5.72426">
        <ele>480.39999389648</ele>
        <time>2021-05-29T04:14:54.000Z</time>
      </trkpt>
      <trkpt lat="45.19844" lon="5.7243">
        <ele>482</ele>
        <time>2021-05-29T04:14:58.000Z</time>
      </trkpt>
      <trkpt lat="45.19844" lon="5.72432">
        <ele>482.39999389648</ele>
        <time>2021-05-29T04:14:59.000Z</time>
      </trkpt>
      <trkpt lat="45.19845" lon="5.72438">
        <ele>483.20001220703</ele>
        <time>2021-05-29T04:15:03.000Z</time>
      </trkpt>
      <trkpt lat="45.19845" lon="5.72441">
        <ele>483.39999389648</ele>
        <time>2021-05-29T04:15:05.000Z</time>
      </trkpt>
      <trkpt lat="45.19844" lon="5.72446">
        <ele>483.79998779297</ele>
        <time>2021-05-29T04:15:07.000Z</time>
      </trkpt>
      <trkpt lat="45.19842" lon="5.72457">
        <ele>484.39999389648</ele>
        <time>2021-05-29T04:15:12.000Z</time>
      </trkpt>
      <trkpt lat="45.19843" lon="5.72459">
        <ele>484.60000610352</ele>
        <time>2021-05-29T04:15:13.000Z</time>
      </trkpt>
      <trkpt lat="45.19847" lon="5.72469">
        <ele>485.39999389648</ele>
        <time>2021-05-29T04:15:16.000Z</time>
      </trkpt>
      <trkpt lat="45.19848" lon="5.72481">
        <ele>486.20001220703</ele>
        <time>2021-05-29T04:15:21.000Z</time>
      </trkpt>
      <trkpt lat="45.19848" lon="5.72484">
        <ele>486.39999389648</ele>
        <time>2021-05-29T04:15:22.000Z</time>
      </trkpt>
      <trkpt lat="45.19846" lon="5.72501">
        <ele>487.60000610352</ele>
        <time>2021-05-29T04:15:28.000Z</time>
      </trkpt>
      <trkpt lat="45.19845" lon="5.72508">
        <ele>488</ele>
        <time>2021-05-29T04:15:30.000Z</time>
      </trkpt>
      <trkpt lat="45.19844" lon="5.72516">
        <ele>488.60000610352</ele>
        <time>2021-05-29T04:15:33.000Z</time>
      </trkpt>
      <trkpt lat="45.19844" lon="5.72517">
        <ele>488.79998779297</ele>
        <time>2021-05-29T04:15:34.000Z</time>
      </trkpt>
      <trkpt lat="45.19849" lon="5.72534">
        <ele>490</ele>
        <time>2021-05-29T04:15:41.000Z</time>
      </trkpt>
      <trkpt lat="45.19853" lon="5.72552">
        <ele>491</ele>
        <time>2021-05-29T04:15:47.000Z</time>
      </trkpt>
      <trkpt lat="45.19854" lon="5.72556">
        <ele>491.39999389648</ele>
        <time>2021-05-29T04:15:49.000Z</time>
      </trkpt>
      <trkpt lat="45.19855" lon="5.72556">
        <ele>491.60000610352</ele>
        <time>2021-05-29T04:15:50.000Z</time>
      </trkpt>
      <trkpt lat="45.19857" lon="5.72555">
        <ele>491.79998779297</ele>
        <time>2021-05-29T04:15:52.000Z</time>
      </trkpt>
      <trkpt lat="45.19856" lon="5.72553">
        <ele>492</ele>
        <time>2021-05-29T04:15:53.000Z</time>
      </trkpt>
      <trkpt lat="45.19856" lon="5.72552">
        <ele>492.20001220703</ele>
        <time>2021-05-29T04:15:54.000Z</time>
      </trkpt>
      <trkpt lat="45.19854" lon="5.72547">
        <ele>492.60000610352</ele>
        <time>2021-05-29T04:15:56.000Z</time>
      </trkpt>
      <trkpt lat="45.19853" lon="5.7254">
        <ele>493.39999389648</ele>
        <time>2021-05-29T04:15:59.000Z</time>
      </trkpt>
      <trkpt lat="45.19852" lon="5.72528">
        <ele>494.39999389648</ele>
        <time>2021-05-29T04:16:03.000Z</time>
      </trkpt>
      <trkpt lat="45.19852" lon="5.72525">
        <ele>494.79998779297</ele>
        <time>2021-05-29T04:16:04.000Z</time>
      </trkpt>
      <trkpt lat="45.19851" lon="5.72503">
        <ele>495.20001220703</ele>
        <time>2021-05-29T04:16:11.000Z</time>
      </trkpt>
      <trkpt lat="45.19854" lon="5.72491">
        <ele>495.60000610352</ele>
        <time>2021-05-29T04:16:15.000Z</time>
      </trkpt>
      <trkpt lat="45.19854" lon="5.72488">
        <ele>495.60000610352</ele>
        <time>2021-05-29T04:16:16.000Z</time>
      </trkpt>
      <trkpt lat="45.19862" lon="5.7248">
        <ele>496.39999389648</ele>
        <time>2021-05-29T04:16:21.000Z</time>
      </trkpt>
      <trkpt lat="45.19875" lon="5.72479">
        <ele>496.60000610352</ele>
        <time>2021-05-29T04:16:27.000Z</time>
      </trkpt>
      <trkpt lat="45.19883" lon="5.7247">
        <ele>496.39999389648</ele>
        <time>2021-05-29T04:16:33.000Z</time>
      </trkpt>
      <trkpt lat="45.19883" lon="5.72463">
        <ele>496.39999389648</ele>
        <time>2021-05-29T04:16:35.000Z</time>
      </trkpt>
      <trkpt lat="45.19888" lon="5.7245">
        <ele>495.79998779297</ele>
        <time>2021-05-29T04:16:39.000Z</time>
      </trkpt>
      <trkpt lat="45.19898" lon="5.72439">
        <ele>494.79998779297</ele>
        <time>2021-05-29T04:16:43.000Z</time>
      </trkpt>
      <trkpt lat="45.19901" lon="5.72439">
        <ele>494.39999389648</ele>
        <time>2021-05-29T04:16:44.000Z</time>
      </trkpt>
      <trkpt lat="45.19908" lon="5.72435">
        <ele>493.60000610352</ele>
        <time>2021-05-29T04:16:46.000Z</time>
      </trkpt>
      <trkpt lat="45.19913" lon="5.72432">
        <ele>493.39999389648</ele>
        <time>2021-05-29T04:16:48.000Z</time>
      </trkpt>
      <trkpt lat="45.19916" lon="5.72431">
        <ele>493.20001220703</ele>
        <time>2021-05-29T04:16:49.000Z</time>
      </trkpt>
      <trkpt lat="45.19927" lon="5.72428">
        <ele>492.60000610352</ele>
        <time>2021-05-29T04:16:53.000Z</time>
      </trkpt>
      <trkpt lat="45.19939" lon="5.72427">
        <ele>492.39999389648</ele>
        <time>2021-05-29T04:16:57.000Z</time>
      </trkpt>
      <trkpt lat="45.19952" lon="5.72426">
        <ele>492.79998779297</ele>
        <time>2021-05-29T04:17:02.000Z</time>
      </trkpt>
      <trkpt lat="45.19955" lon="5.72426">
        <ele>492.79998779297</ele>
        <time>2021-05-29T04:17:03.000Z</time>
      </trkpt>
      <trkpt lat="45.19963" lon="5.72425">
        <ele>493.39999389648</ele>
        <time>2021-05-29T04:17:06.000Z</time>
      </trkpt>
      <trkpt lat="45.19974" lon="5.72426">
        <ele>494.39999389648</ele>
        <time>2021-05-29T04:17:11.000Z</time>
      </trkpt>
      <trkpt lat="45.19985" lon="5.72425">
        <ele>495.79998779297</ele>
        <time>2021-05-29T04:17:16.000Z</time>
      </trkpt>
      <trkpt lat="45.19996" lon="5.72425">
        <ele>497.20001220703</ele>
        <time>2021-05-29T04:17:21.000Z</time>
      </trkpt>
      <trkpt lat="45.20009" lon="5.72426">
        <ele>498.39999389648</ele>
        <time>2021-05-29T04:17:27.000Z</time>
      </trkpt>
      <trkpt lat="45.20015" lon="5.72426">
        <ele>499</ele>
        <time>2021-05-29T04:17:30.000Z</time>
      </trkpt>
      <trkpt lat="45.2002" lon="5.72426">
        <ele>499.60000610352</ele>
        <time>2021-05-29T04:17:32.000Z</time>
      </trkpt>
      <trkpt lat="45.20024" lon="5.72426">
        <ele>500</ele>
        <time>2021-05-29T04:17:34.000Z</time>
      </trkpt>
      <trkpt lat="45.20029" lon="5.72426">
        <ele>500.60000610352</ele>
        <time>2021-05-29T04:17:36.000Z</time>
      </trkpt>
      <trkpt lat="45.20037" lon="5.72426">
        <ele>501.39999389648</ele>
        <time>2021-05-29T04:17:40.000Z</time>
      </trkpt>
      <trkpt lat="45.20041" lon="5.72426">
        <ele>501.60000610352</ele>
        <time>2021-05-29T04:17:42.000Z</time>
      </trkpt>
      <trkpt lat="45.20049" lon="5.72425">
        <ele>502.60000610352</ele>
        <time>2021-05-29T04:17:46.000Z</time>
      </trkpt>
      <trkpt lat="45.20051" lon="5.72424">
        <ele>502.79998779297</ele>
        <time>2021-05-29T04:17:47.000Z</time>
      </trkpt>
      <trkpt lat="45.20058" lon="5.72424">
        <ele>503.79998779297</ele>
        <time>2021-05-29T04:17:51.000Z</time>
      </trkpt>
      <trkpt lat="45.20064" lon="5.72426">
        <ele>504.60000610352</ele>
        <time>2021-05-29T04:17:54.000Z</time>
      </trkpt>
      <trkpt lat="45.20065" lon="5.72427">
        <ele>505</ele>
        <time>2021-05-29T04:17:55.000Z</time>
      </trkpt>
      <trkpt lat="45.20072" lon="5.72436">
        <ele>506</ele>
        <time>2021-05-29T04:18:00.000Z</time>
      </trkpt>
      <trkpt lat="45.20073" lon="5.72442">
        <ele>506.39999389648</ele>
        <time>2021-05-29T04:18:02.000Z</time>
      </trkpt>
      <trkpt lat="45.20074" lon="5.72445">
        <ele>506.60000610352</ele>
        <time>2021-05-29T04:18:03.000Z</time>
      </trkpt>
      <trkpt lat="45.20075" lon="5.72451">
        <ele>507.20001220703</ele>
        <time>2021-05-29T04:18:05.000Z</time>
      </trkpt>
      <trkpt lat="45.20078" lon="5.72466">
        <ele>508.20001220703</ele>
        <time>2021-05-29T04:18:10.000Z</time>
      </trkpt>
      <trkpt lat="45.2008" lon="5.72474">
        <ele>508.79998779297</ele>
        <time>2021-05-29T04:18:13.000Z</time>
      </trkpt>
      <trkpt lat="45.20083" lon="5.72476">
        <ele>509.20001220703</ele>
        <time>2021-05-29T04:18:15.000Z</time>
      </trkpt>
      <trkpt lat="45.20084" lon="5.72476">
        <ele>509.39999389648</ele>
        <time>2021-05-29T04:18:16.000Z</time>
      </trkpt>
      <trkpt lat="45.20089" lon="5.72482">
        <ele>510.60000610352</ele>
        <time>2021-05-29T04:18:20.000Z</time>
      </trkpt>
      <trkpt lat="45.2009" lon="5.72484">
        <ele>510.79998779297</ele>
        <time>2021-05-29T04:18:21.000Z</time>
      </trkpt>
      <trkpt lat="45.20093" lon="5.72488">
        <ele>511.60000610352</ele>
        <time>2021-05-29T04:18:24.000Z</time>
      </trkpt>
      <trkpt lat="45.20095" lon="5.72491">
        <ele>512</ele>
        <time>2021-05-29T04:18:26.000Z</time>
      </trkpt>
      <trkpt lat="45.20098" lon="5.72494">
        <ele>512.59997558594</ele>
        <time>2021-05-29T04:18:29.000Z</time>
      </trkpt>
      <trkpt lat="45.20099" lon="5.72498">
        <ele>512.79998779297</ele>
        <time>2021-05-29T04:18:31.000Z</time>
      </trkpt>
      <trkpt lat="45.20099" lon="5.72499">
        <ele>513.40002441406</ele>
        <time>2021-05-29T04:18:32.000Z</time>
      </trkpt>
      <trkpt lat="45.20099" lon="5.72502">
        <ele>513.79998779297</ele>
        <time>2021-05-29T04:18:34.000Z</time>
      </trkpt>
      <trkpt lat="45.201" lon="5.72503">
        <ele>514</ele>
        <time>2021-05-29T04:18:35.000Z</time>
      </trkpt>
      <trkpt lat="45.201" lon="5.72505">
        <ele>514.40002441406</ele>
        <time>2021-05-29T04:18:36.000Z</time>
      </trkpt>
      <trkpt lat="45.20101" lon="5.72507">
        <ele>515</ele>
        <time>2021-05-29T04:18:38.000Z</time>
      </trkpt>
      <trkpt lat="45.20103" lon="5.72512">
        <ele>516.20001220703</ele>
        <time>2021-05-29T04:18:42.000Z</time>
      </trkpt>
      <trkpt lat="45.20104" lon="5.72514">
        <ele>517.20001220703</ele>
        <time>2021-05-29T04:18:45.000Z</time>
      </trkpt>
      <trkpt lat="45.20104" lon="5.72515">
        <ele>517.40002441406</ele>
        <time>2021-05-29T04:18:46.000Z</time>
      </trkpt>
      <trkpt lat="45.20105" lon="5.72515">
        <ele>517.59997558594</ele>
        <time>2021-05-29T04:18:47.000Z</time>
      </trkpt>
      <trkpt lat="45.20107" lon="5.72517">
        <ele>518.59997558594</ele>
        <time>2021-05-29T04:18:50.000Z</time>
      </trkpt>
      <trkpt lat="45.20107" lon="5.72517">
        <ele>518.79998779297</ele>
        <time>2021-05-29T04:18:51.000Z</time>
      </trkpt>
      <trkpt lat="45.20108" lon="5.72517">
        <ele>519.20001220703</ele>
        <time>2021-05-29T04:18:52.000Z</time>
      </trkpt>
      <trkpt lat="45.20109" lon="5.72518">
        <ele>519.79998779297</ele>
        <time>2021-05-29T04:18:54.000Z</time>
      </trkpt>
      <trkpt lat="45.20111" lon="5.72518">
        <ele>520.40002441406</ele>
        <time>2021-05-29T04:18:57.000Z</time>
      </trkpt>
      <trkpt lat="45.20111" lon="5.72517">
        <ele>520.79998779297</ele>
        <time>2021-05-29T04:18:58.000Z</time>
      </trkpt>
      <trkpt lat="45.20111" lon="5.72515">
        <ele>520.79998779297</ele>
        <time>2021-05-29T04:18:59.000Z</time>
      </trkpt>
      <trkpt lat="45.20112" lon="5.72512">
        <ele>521.20001220703</ele>
        <time>2021-05-29T04:19:00.000Z</time>
      </trkpt>
      <trkpt lat="45.20113" lon="5.72511">
        <ele>522</ele>
        <time>2021-05-29T04:19:02.000Z</time>
      </trkpt>
      <trkpt lat="45.20113" lon="5.72509">
        <ele>522.40002441406</ele>
        <time>2021-05-29T04:19:03.000Z</time>
      </trkpt>
      <trkpt lat="45.20113" lon="5.72508">
        <ele>522.40002441406</ele>
        <time>2021-05-29T04:19:04.000Z</time>
      </trkpt>
      <trkpt lat="45.20114" lon="5.72507">
        <ele>522.79998779297</ele>
        <time>2021-05-29T04:19:05.000Z</time>
      </trkpt>
      <trkpt lat="45.20116" lon="5.72506">
        <ele>523.40002441406</ele>
        <time>2021-05-29T04:19:06.000Z</time>
      </trkpt>
      <trkpt lat="45.20117" lon="5.72504">
        <ele>524</ele>
        <time>2021-05-29T04:19:08.000Z</time>
      </trkpt>
      <trkpt lat="45.2012" lon="5.725">
        <ele>524.59997558594</ele>
        <time>2021-05-29T04:19:11.000Z</time>
      </trkpt>
      <trkpt lat="45.20124" lon="5.72494">
        <ele>526</ele>
        <time>2021-05-29T04:19:16.000Z</time>
      </trkpt>
      <trkpt lat="45.20126" lon="5.72492">
        <ele>526.59997558594</ele>
        <time>2021-05-29T04:19:18.000Z</time>
      </trkpt>
      <trkpt lat="45.20127" lon="5.72492">
        <ele>526.79998779297</ele>
        <time>2021-05-29T04:19:19.000Z</time>
      </trkpt>
      <trkpt lat="45.20127" lon="5.72491">
        <ele>527</ele>
        <time>2021-05-29T04:19:20.000Z</time>
      </trkpt>
      <trkpt lat="45.2013" lon="5.72483">
        <ele>528.20001220703</ele>
        <time>2021-05-29T04:19:25.000Z</time>
      </trkpt>
      <trkpt lat="45.20131" lon="5.72482">
        <ele>529</ele>
        <time>2021-05-29T04:19:27.000Z</time>
      </trkpt>
      <trkpt lat="45.20131" lon="5.72481">
        <ele>529.40002441406</ele>
        <time>2021-05-29T04:19:28.000Z</time>
      </trkpt>
      <trkpt lat="45.20131" lon="5.7248">
        <ele>529.79998779297</ele>
        <time>2021-05-29T04:19:29.000Z</time>
      </trkpt>
      <trkpt lat="45.20133" lon="5.72475">
        <ele>530.20001220703</ele>
        <time>2021-05-29T04:19:32.000Z</time>
      </trkpt>
      <trkpt lat="45.20133" lon="5.72474">
        <ele>530.79998779297</ele>
        <time>2021-05-29T04:19:33.000Z</time>
      </trkpt>
      <trkpt lat="45.20133" lon="5.72473">
        <ele>531.20001220703</ele>
        <time>2021-05-29T04:19:34.000Z</time>
      </trkpt>
      <trkpt lat="45.20133" lon="5.72472">
        <ele>531.40002441406</ele>
        <time>2021-05-29T04:19:35.000Z</time>
      </trkpt>
      <trkpt lat="45.20134" lon="5.7247">
        <ele>531.79998779297</ele>
        <time>2021-05-29T04:19:37.000Z</time>
      </trkpt>
      <trkpt lat="45.20135" lon="5.72469">
        <ele>532</ele>
        <time>2021-05-29T04:19:38.000Z</time>
      </trkpt>
      <trkpt lat="45.20137" lon="5.72468">
        <ele>532.59997558594</ele>
        <time>2021-05-29T04:19:40.000Z</time>
      </trkpt>
      <trkpt lat="45.20138" lon="5.72466">
        <ele>533.20001220703</ele>
        <time>2021-05-29T04:19:42.000Z</time>
      </trkpt>
      <trkpt lat="45.20139" lon="5.72464">
        <ele>533.79998779297</ele>
        <time>2021-05-29T04:19:44.000Z</time>
      </trkpt>
      <trkpt lat="45.2014" lon="5.72464">
        <ele>534</ele>
        <time>2021-05-29T04:19:45.000Z</time>
      </trkpt>
      <trkpt lat="45.20141" lon="5.72465">
        <ele>534.20001220703</ele>
        <time>2021-05-29T04:19:46.000Z</time>
      </trkpt>
      <trkpt lat="45.20141" lon="5.72466">
        <ele>535</ele>
        <time>2021-05-29T04:19:47.000Z</time>
      </trkpt>
      <trkpt lat="45.20142" lon="5.72469">
        <ele>535.59997558594</ele>
        <time>2021-05-29T04:19:50.000Z</time>
      </trkpt>
      <trkpt lat="45.20142" lon="5.72471">
        <ele>535.59997558594</ele>
        <time>2021-05-29T04:19:51.000Z</time>
      </trkpt>
      <trkpt lat="45.20143" lon="5.72473">
        <ele>536.20001220703</ele>
        <time>2021-05-29T04:19:52.000Z</time>
      </trkpt>
      <trkpt lat="45.20143" lon="5.72474">
        <ele>536.59997558594</ele>
        <time>2021-05-29T04:19:53.000Z</time>
      </trkpt>
      <trkpt lat="45.20143" lon="5.72478">
        <ele>537.40002441406</ele>
        <time>2021-05-29T04:19:56.000Z</time>
      </trkpt>
      <trkpt lat="45.20146" lon="5.72479">
        <ele>537.79998779297</ele>
        <time>2021-05-29T04:19:58.000Z</time>
      </trkpt>
      <trkpt lat="45.20147" lon="5.7248">
        <ele>538.20001220703</ele>
        <time>2021-05-29T04:20:00.000Z</time>
      </trkpt>
      <trkpt lat="45.20148" lon="5.72479">
        <ele>538.40002441406</ele>
        <time>2021-05-29T04:20:01.000Z</time>
      </trkpt>
      <trkpt lat="45.20148" lon="5.72477">
        <ele>538.79998779297</ele>
        <time>2021-05-29T04:20:03.000Z</time>
      </trkpt>
      <trkpt lat="45.20148" lon="5.72476">
        <ele>539.20001220703</ele>
        <time>2021-05-29T04:20:04.000Z</time>
      </trkpt>
      <trkpt lat="45.20149" lon="5.72475">
        <ele>539.79998779297</ele>
        <time>2021-05-29T04:20:06.000Z</time>
      </trkpt>
      <trkpt lat="45.20151" lon="5.72476">
        <ele>541.20001220703</ele>
        <time>2021-05-29T04:20:09.000Z</time>
      </trkpt>
      <trkpt lat="45.20153" lon="5.72475">
        <ele>542</ele>
        <time>2021-05-29T04:20:11.000Z</time>
      </trkpt>
      <trkpt lat="45.20153" lon="5.72475">
        <ele>542.20001220703</ele>
        <time>2021-05-29T04:20:12.000Z</time>
      </trkpt>
      <trkpt lat="45.20156" lon="5.7247">
        <ele>543.20001220703</ele>
        <time>2021-05-29T04:20:18.000Z</time>
      </trkpt>
      <trkpt lat="45.20157" lon="5.72469">
        <ele>543.59997558594</ele>
        <time>2021-05-29T04:20:19.000Z</time>
      </trkpt>
      <trkpt lat="45.20158" lon="5.72469">
        <ele>544.79998779297</ele>
        <time>2021-05-29T04:20:21.000Z</time>
      </trkpt>
      <trkpt lat="45.20159" lon="5.72469">
        <ele>545.40002441406</ele>
        <time>2021-05-29T04:20:23.000Z</time>
      </trkpt>
      <trkpt lat="45.20161" lon="5.72469">
        <ele>546</ele>
        <time>2021-05-29T04:20:26.000Z</time>
      </trkpt>
      <trkpt lat="45.20161" lon="5.72469">
        <ele>546.40002441406</ele>
        <time>2021-05-29T04:20:27.000Z</time>
      </trkpt>
      <trkpt lat="45.20162" lon="5.7247">
        <ele>546.59997558594</ele>
        <time>2021-05-29T04:20:28.000Z</time>
      </trkpt>
      <trkpt lat="45.20165" lon="5.72472">
        <ele>547.59997558594</ele>
        <time>2021-05-29T04:20:31.000Z</time>
      </trkpt>
      <trkpt lat="45.20166" lon="5.72474">
        <ele>548.40002441406</ele>
        <time>2021-05-29T04:20:33.000Z</time>
      </trkpt>
      <trkpt lat="45.20166" lon="5.72476">
        <ele>548.79998779297</ele>
        <time>2021-05-29T04:20:34.000Z</time>
      </trkpt>
      <trkpt lat="45.20167" lon="5.72477">
        <ele>548.79998779297</ele>
        <time>2021-05-29T04:20:35.000Z</time>
      </trkpt>
      <trkpt lat="45.20169" lon="5.72478">
        <ele>549.79998779297</ele>
        <time>2021-05-29T04:20:37.000Z</time>
      </trkpt>
      <trkpt lat="45.20171" lon="5.72481">
        <ele>550.40002441406</ele>
        <time>2021-05-29T04:20:40.000Z</time>
      </trkpt>
      <trkpt lat="45.20172" lon="5.72482">
        <ele>550.79998779297</ele>
        <time>2021-05-29T04:20:41.000Z</time>
      </trkpt>
      <trkpt lat="45.20177" lon="5.7249">
        <ele>552.20001220703</ele>
        <time>2021-05-29T04:20:47.000Z</time>
      </trkpt>
      <trkpt lat="45.20179" lon="5.72489">
        <ele>552.79998779297</ele>
        <time>2021-05-29T04:20:49.000Z</time>
      </trkpt>
      <trkpt lat="45.2018" lon="5.72488">
        <ele>553</ele>
        <time>2021-05-29T04:20:50.000Z</time>
      </trkpt>
      <trkpt lat="45.2018" lon="5.72489">
        <ele>553.20001220703</ele>
        <time>2021-05-29T04:20:51.000Z</time>
      </trkpt>
      <trkpt lat="45.20183" lon="5.72491">
        <ele>554</ele>
        <time>2021-05-29T04:20:54.000Z</time>
      </trkpt>
      <trkpt lat="45.20183" lon="5.72492">
        <ele>554</ele>
        <time>2021-05-29T04:20:55.000Z</time>
      </trkpt>
      <trkpt lat="45.20184" lon="5.72493">
        <ele>554.20001220703</ele>
        <time>2021-05-29T04:20:56.000Z</time>
      </trkpt>
      <trkpt lat="45.2019" lon="5.725">
        <ele>555.20001220703</ele>
        <time>2021-05-29T04:21:02.000Z</time>
      </trkpt>
      <trkpt lat="45.20191" lon="5.72503">
        <ele>555.59997558594</ele>
        <time>2021-05-29T04:21:05.000Z</time>
      </trkpt>
      <trkpt lat="45.20193" lon="5.72505">
        <ele>556.40002441406</ele>
        <time>2021-05-29T04:21:08.000Z</time>
      </trkpt>
      <trkpt lat="45.20198" lon="5.72507">
        <ele>557.79998779297</ele>
        <time>2021-05-29T04:21:14.000Z</time>
      </trkpt>
      <trkpt lat="45.20201" lon="5.72513">
        <ele>558.79998779297</ele>
        <time>2021-05-29T04:21:19.000Z</time>
      </trkpt>
      <trkpt lat="45.20203" lon="5.72514">
        <ele>559.40002441406</ele>
        <time>2021-05-29T04:21:21.000Z</time>
      </trkpt>
      <trkpt lat="45.20206" lon="5.72516">
        <ele>560</ele>
        <time>2021-05-29T04:21:24.000Z</time>
      </trkpt>
      <trkpt lat="45.20208" lon="5.72517">
        <ele>560.20001220703</ele>
        <time>2021-05-29T04:21:25.000Z</time>
      </trkpt>
      <trkpt lat="45.20212" lon="5.72516">
        <ele>561.20001220703</ele>
        <time>2021-05-29T04:21:27.000Z</time>
      </trkpt>
      <trkpt lat="45.20212" lon="5.72516">
        <ele>561.59997558594</ele>
        <time>2021-05-29T04:21:28.000Z</time>
      </trkpt>
      <trkpt lat="45.20213" lon="5.72516">
        <ele>561.79998779297</ele>
        <time>2021-05-29T04:21:29.000Z</time>
      </trkpt>
      <trkpt lat="45.20213" lon="5.72518">
        <ele>562.20001220703</ele>
        <time>2021-05-29T04:21:31.000Z</time>
      </trkpt>
      <trkpt lat="45.20214" lon="5.72519">
        <ele>562.40002441406</ele>
        <time>2021-05-29T04:21:32.000Z</time>
      </trkpt>
      <trkpt lat="45.20216" lon="5.7252">
        <ele>563</ele>
        <time>2021-05-29T04:21:34.000Z</time>
      </trkpt>
      <trkpt lat="45.20217" lon="5.7252">
        <ele>563.59997558594</ele>
        <time>2021-05-29T04:21:35.000Z</time>
      </trkpt>
      <trkpt lat="45.20221" lon="5.7252">
        <ele>564.20001220703</ele>
        <time>2021-05-29T04:21:38.000Z</time>
      </trkpt>
      <trkpt lat="45.20222" lon="5.72519">
        <ele>564.79998779297</ele>
        <time>2021-05-29T04:21:40.000Z</time>
      </trkpt>
      <trkpt lat="45.20224" lon="5.7252">
        <ele>565.20001220703</ele>
        <time>2021-05-29T04:21:42.000Z</time>
      </trkpt>
      <trkpt lat="45.20225" lon="5.7252">
        <ele>565.40002441406</ele>
        <time>2021-05-29T04:21:43.000Z</time>
      </trkpt>
      <trkpt lat="45.20227" lon="5.72521">
        <ele>566</ele>
        <time>2021-05-29T04:21:45.000Z</time>
      </trkpt>
      <trkpt lat="45.20227" lon="5.72521">
        <ele>566.59997558594</ele>
        <time>2021-05-29T04:21:47.000Z</time>
      </trkpt>
      <trkpt lat="45.20228" lon="5.72519">
        <ele>567</ele>
        <time>2021-05-29T04:21:49.000Z</time>
      </trkpt>
      <trkpt lat="45.20232" lon="5.72519">
        <ele>568.20001220703</ele>
        <time>2021-05-29T04:21:52.000Z</time>
      </trkpt>
      <trkpt lat="45.20237" lon="5.72519">
        <ele>569.20001220703</ele>
        <time>2021-05-29T04:21:56.000Z</time>
      </trkpt>
      <trkpt lat="45.20238" lon="5.72518">
        <ele>569.40002441406</ele>
        <time>2021-05-29T04:21:57.000Z</time>
      </trkpt>
      <trkpt lat="45.20241" lon="5.72517">
        <ele>570.40002441406</ele>
        <time>2021-05-29T04:22:00.000Z</time>
      </trkpt>
      <trkpt lat="45.20242" lon="5.72516">
        <ele>570.59997558594</ele>
        <time>2021-05-29T04:22:01.000Z</time>
      </trkpt>
      <trkpt lat="45.20243" lon="5.72516">
        <ele>571.20001220703</ele>
        <time>2021-05-29T04:22:03.000Z</time>
      </trkpt>
      <trkpt lat="45.20244" lon="5.72516">
        <ele>571.20001220703</ele>
        <time>2021-05-29T04:22:04.000Z</time>
      </trkpt>
      <trkpt lat="45.20244" lon="5.72516">
        <ele>571.40002441406</ele>
        <time>2021-05-29T04:22:05.000Z</time>
      </trkpt>
      <trkpt lat="45.20246" lon="5.72515">
        <ele>572.20001220703</ele>
        <time>2021-05-29T04:22:07.000Z</time>
      </trkpt>
      <trkpt lat="45.20248" lon="5.72515">
        <ele>572.59997558594</ele>
        <time>2021-05-29T04:22:08.000Z</time>
      </trkpt>
      <trkpt lat="45.20248" lon="5.72515">
        <ele>572.79998779297</ele>
        <time>2021-05-29T04:22:09.000Z</time>
      </trkpt>
      <trkpt lat="45.20249" lon="5.72515">
        <ele>573.20001220703</ele>
        <time>2021-05-29T04:22:10.000Z</time>
      </trkpt>
      <trkpt lat="45.2025" lon="5.72516">
        <ele>573.59997558594</ele>
        <time>2021-05-29T04:22:12.000Z</time>
      </trkpt>
      <trkpt lat="45.20253" lon="5.72516">
        <ele>574.40002441406</ele>
        <time>2021-05-29T04:22:15.000Z</time>
      </trkpt>
      <trkpt lat="45.20254" lon="5.72517">
        <ele>574.79998779297</ele>
        <time>2021-05-29T04:22:16.000Z</time>
      </trkpt>
      <trkpt lat="45.20256" lon="5.72518">
        <ele>575.20001220703</ele>
        <time>2021-05-29T04:22:19.000Z</time>
      </trkpt>
      <trkpt lat="45.20258" lon="5.72518">
        <ele>575.79998779297</ele>
        <time>2021-05-29T04:22:22.000Z</time>
      </trkpt>
      <trkpt lat="45.20259" lon="5.72519">
        <ele>576.20001220703</ele>
        <time>2021-05-29T04:22:23.000Z</time>
      </trkpt>
      <trkpt lat="45.2026" lon="5.72519">
        <ele>576.79998779297</ele>
        <time>2021-05-29T04:22:26.000Z</time>
      </trkpt>
      <trkpt lat="45.20262" lon="5.72518">
        <ele>577.59997558594</ele>
        <time>2021-05-29T04:22:29.000Z</time>
      </trkpt>
      <trkpt lat="45.20265" lon="5.72519">
        <ele>578</ele>
        <time>2021-05-29T04:22:31.000Z</time>
      </trkpt>
      <trkpt lat="45.20269" lon="5.7252">
        <ele>579</ele>
        <time>2021-05-29T04:22:35.000Z</time>
      </trkpt>
      <trkpt lat="45.2027" lon="5.7252">
        <ele>579.20001220703</ele>
        <time>2021-05-29T04:22:36.000Z</time>
      </trkpt>
      <trkpt lat="45.20275" lon="5.72521">
        <ele>580.40002441406</ele>
        <time>2021-05-29T04:22:41.000Z</time>
      </trkpt>
      <trkpt lat="45.20276" lon="5.72521">
        <ele>580.40002441406</ele>
        <time>2021-05-29T04:22:42.000Z</time>
      </trkpt>
      <trkpt lat="45.20283" lon="5.72519">
        <ele>581.40002441406</ele>
        <time>2021-05-29T04:22:46.000Z</time>
      </trkpt>
      <trkpt lat="45.20285" lon="5.72519">
        <ele>581.79998779297</ele>
        <time>2021-05-29T04:22:49.000Z</time>
      </trkpt>
      <trkpt lat="45.20287" lon="5.72519">
        <ele>582.40002441406</ele>
        <time>2021-05-29T04:22:51.000Z</time>
      </trkpt>
      <trkpt lat="45.20295" lon="5.72517">
        <ele>583.79998779297</ele>
        <time>2021-05-29T04:22:56.000Z</time>
      </trkpt>
      <trkpt lat="45.20297" lon="5.72517">
        <ele>584.20001220703</ele>
        <time>2021-05-29T04:22:58.000Z</time>
      </trkpt>
      <trkpt lat="45.20299" lon="5.72517">
        <ele>584.79998779297</ele>
        <time>2021-05-29T04:23:00.000Z</time>
      </trkpt>
      <trkpt lat="45.203" lon="5.72517">
        <ele>585.40002441406</ele>
        <time>2021-05-29T04:23:02.000Z</time>
      </trkpt>
      <trkpt lat="45.20301" lon="5.72518">
        <ele>586</ele>
        <time>2021-05-29T04:23:04.000Z</time>
      </trkpt>
      <trkpt lat="45.20304" lon="5.72518">
        <ele>587.20001220703</ele>
        <time>2021-05-29T04:23:08.000Z</time>
      </trkpt>
      <trkpt lat="45.20307" lon="5.72517">
        <ele>588</ele>
        <time>2021-05-29T04:23:11.000Z</time>
      </trkpt>
      <trkpt lat="45.20308" lon="5.72517">
        <ele>588.40002441406</ele>
        <time>2021-05-29T04:23:12.000Z</time>
      </trkpt>
      <trkpt lat="45.20313" lon="5.7252">
        <ele>589.59997558594</ele>
        <time>2021-05-29T04:23:16.000Z</time>
      </trkpt>
      <trkpt lat="45.20314" lon="5.72521">
        <ele>590.40002441406</ele>
        <time>2021-05-29T04:23:18.000Z</time>
      </trkpt>
      <trkpt lat="45.20315" lon="5.7252">
        <ele>590.79998779297</ele>
        <time>2021-05-29T04:23:20.000Z</time>
      </trkpt>
      <trkpt lat="45.20319" lon="5.7252">
        <ele>592</ele>
        <time>2021-05-29T04:23:24.000Z</time>
      </trkpt>
      <trkpt lat="45.20322" lon="5.72521">
        <ele>593</ele>
        <time>2021-05-29T04:23:28.000Z</time>
      </trkpt>
      <trkpt lat="45.20323" lon="5.72522">
        <ele>593.20001220703</ele>
        <time>2021-05-29T04:23:29.000Z</time>
      </trkpt>
      <trkpt lat="45.20325" lon="5.72522">
        <ele>593.79998779297</ele>
        <time>2021-05-29T04:23:31.000Z</time>
      </trkpt>
      <trkpt lat="45.20325" lon="5.72522">
        <ele>594</ele>
        <time>2021-05-29T04:23:32.000Z</time>
      </trkpt>
      <trkpt lat="45.20326" lon="5.72522">
        <ele>594.59997558594</ele>
        <time>2021-05-29T04:23:34.000Z</time>
      </trkpt>
      <trkpt lat="45.20326" lon="5.72522">
        <ele>595.20001220703</ele>
        <time>2021-05-29T04:23:35.000Z</time>
      </trkpt>
      <trkpt lat="45.20325" lon="5.72522">
        <ele>596.20001220703</ele>
        <time>2021-05-29T04:23:37.000Z</time>
      </trkpt>
      <trkpt lat="45.20327" lon="5.72521">
        <ele>596.40002441406</ele>
        <time>2021-05-29T04:23:38.000Z</time>
      </trkpt>
      <trkpt lat="45.2033" lon="5.72523">
        <ele>596.79998779297</ele>
        <time>2021-05-29T04:23:40.000Z</time>
      </trkpt>
      <trkpt lat="45.20332" lon="5.72524">
        <ele>597.20001220703</ele>
        <time>2021-05-29T04:23:42.000Z</time>
      </trkpt>
      <trkpt lat="45.20334" lon="5.72524">
        <ele>597.79998779297</ele>
        <time>2021-05-29T04:23:44.000Z</time>
      </trkpt>
      <trkpt lat="45.20335" lon="5.72524">
        <ele>598</ele>
        <time>2021-05-29T04:23:45.000Z</time>
      </trkpt>
      <trkpt lat="45.20338" lon="5.72525">
        <ele>598.59997558594</ele>
        <time>2021-05-29T04:23:48.000Z</time>
      </trkpt>
      <trkpt lat="45.20339" lon="5.72525">
        <ele>599</ele>
        <time>2021-05-29T04:23:49.000Z</time>
      </trkpt>
      <trkpt lat="45.2034" lon="5.72525">
        <ele>599.59997558594</ele>
        <time>2021-05-29T04:23:51.000Z</time>
      </trkpt>
      <trkpt lat="45.20341" lon="5.72525">
        <ele>600.20001220703</ele>
        <time>2021-05-29T04:23:53.000Z</time>
      </trkpt>
      <trkpt lat="45.20341" lon="5.72524">
        <ele>601</ele>
        <time>2021-05-29T04:23:55.000Z</time>
      </trkpt>
      <trkpt lat="45.20342" lon="5.72524">
        <ele>601.40002441406</ele>
        <time>2021-05-29T04:23:57.000Z</time>
      </trkpt>
      <trkpt lat="45.20343" lon="5.72523">
        <ele>602</ele>
        <time>2021-05-29T04:23:59.000Z</time>
      </trkpt>
      <trkpt lat="45.20345" lon="5.72523">
        <ele>602.40002441406</ele>
        <time>2021-05-29T04:24:02.000Z</time>
      </trkpt>
      <trkpt lat="45.20346" lon="5.72524">
        <ele>602.59997558594</ele>
        <time>2021-05-29T04:24:03.000Z</time>
      </trkpt>
      <trkpt lat="45.20347" lon="5.72524">
        <ele>602.59997558594</ele>
        <time>2021-05-29T04:24:04.000Z</time>
      </trkpt>
      <trkpt lat="45.20348" lon="5.72524">
        <ele>603.40002441406</ele>
        <time>2021-05-29T04:24:07.000Z</time>
      </trkpt>
      <trkpt lat="45.20354" lon="5.72523">
        <ele>604.40002441406</ele>
        <time>2021-05-29T04:24:11.000Z</time>
      </trkpt>
      <trkpt lat="45.20355" lon="5.72523">
        <ele>604.59997558594</ele>
        <time>2021-05-29T04:24:12.000Z</time>
      </trkpt>
      <trkpt lat="45.20359" lon="5.72523">
        <ele>605.79998779297</ele>
        <time>2021-05-29T04:24:16.000Z</time>
      </trkpt>
      <trkpt lat="45.20363" lon="5.72526">
        <ele>606.59997558594</ele>
        <time>2021-05-29T04:24:20.000Z</time>
      </trkpt>
      <trkpt lat="45.20364" lon="5.72527">
        <ele>606.79998779297</ele>
        <time>2021-05-29T04:24:21.000Z</time>
      </trkpt>
      <trkpt lat="45.20365" lon="5.7253">
        <ele>607</ele>
        <time>2021-05-29T04:24:23.000Z</time>
      </trkpt>
      <trkpt lat="45.20366" lon="5.72531">
        <ele>607.40002441406</ele>
        <time>2021-05-29T04:24:24.000Z</time>
      </trkpt>
      <trkpt lat="45.20366" lon="5.72532">
        <ele>607.79998779297</ele>
        <time>2021-05-29T04:24:25.000Z</time>
      </trkpt>
      <trkpt lat="45.20367" lon="5.72532">
        <ele>608</ele>
        <time>2021-05-29T04:24:26.000Z</time>
      </trkpt>
      <trkpt lat="45.20368" lon="5.72532">
        <ele>608.79998779297</ele>
        <time>2021-05-29T04:24:28.000Z</time>
      </trkpt>
      <trkpt lat="45.20369" lon="5.72533">
        <ele>609.40002441406</ele>
        <time>2021-05-29T04:24:30.000Z</time>
      </trkpt>
      <trkpt lat="45.2037" lon="5.72533">
        <ele>609.79998779297</ele>
        <time>2021-05-29T04:24:31.000Z</time>
      </trkpt>
      <trkpt lat="45.20372" lon="5.72534">
        <ele>610.79998779297</ele>
        <time>2021-05-29T04:24:34.000Z</time>
      </trkpt>
      <trkpt lat="45.20374" lon="5.72535">
        <ele>611.40002441406</ele>
        <time>2021-05-29T04:24:37.000Z</time>
      </trkpt>
      <trkpt lat="45.20376" lon="5.72538">
        <ele>612</ele>
        <time>2021-05-29T04:24:39.000Z</time>
      </trkpt>
      <trkpt lat="45.20382" lon="5.72541">
        <ele>612.79998779297</ele>
        <time>2021-05-29T04:24:43.000Z</time>
      </trkpt>
      <trkpt lat="45.20384" lon="5.7254">
        <ele>613</ele>
        <time>2021-05-29T04:24:45.000Z</time>
      </trkpt>
      <trkpt lat="45.20385" lon="5.7254">
        <ele>613.79998779297</ele>
        <time>2021-05-29T04:24:47.000Z</time>
      </trkpt>
      <trkpt lat="45.20385" lon="5.7254">
        <ele>614.40002441406</ele>
        <time>2021-05-29T04:24:48.000Z</time>
      </trkpt>
      <trkpt lat="45.20385" lon="5.7254">
        <ele>614.79998779297</ele>
        <time>2021-05-29T04:24:49.000Z</time>
      </trkpt>
      <trkpt lat="45.20386" lon="5.72539">
        <ele>615.79998779297</ele>
        <time>2021-05-29T04:24:52.000Z</time>
      </trkpt>
      <trkpt lat="45.20389" lon="5.7254">
        <ele>616.79998779297</ele>
        <time>2021-05-29T04:24:56.000Z</time>
      </trkpt>
      <trkpt lat="45.20392" lon="5.72542">
        <ele>617</ele>
        <time>2021-05-29T04:24:58.000Z</time>
      </trkpt>
      <trkpt lat="45.20395" lon="5.72541">
        <ele>618.20001220703</ele>
        <time>2021-05-29T04:25:03.000Z</time>
      </trkpt>
      <trkpt lat="45.20399" lon="5.72539">
        <ele>619.40002441406</ele>
        <time>2021-05-29T04:25:08.000Z</time>
      </trkpt>
      <trkpt lat="45.20401" lon="5.72537">
        <ele>620.59997558594</ele>
        <time>2021-05-29T04:25:12.000Z</time>
      </trkpt>
      <trkpt lat="45.20406" lon="5.72532">
        <ele>622</ele>
        <time>2021-05-29T04:25:17.000Z</time>
      </trkpt>
      <trkpt lat="45.20406" lon="5.72532">
        <ele>622</ele>
        <time>2021-05-29T04:25:18.000Z</time>
      </trkpt>
      <trkpt lat="45.20408" lon="5.72531">
        <ele>622.40002441406</ele>
        <time>2021-05-29T04:25:20.000Z</time>
      </trkpt>
      <trkpt lat="45.20408" lon="5.72531">
        <ele>623</ele>
        <time>2021-05-29T04:25:21.000Z</time>
      </trkpt>
      <trkpt lat="45.20408" lon="5.72532">
        <ele>623.59997558594</ele>
        <time>2021-05-29T04:25:23.000Z</time>
      </trkpt>
      <trkpt lat="45.20409" lon="5.7253">
        <ele>624</ele>
        <time>2021-05-29T04:25:26.000Z</time>
      </trkpt>
      <trkpt lat="45.20409" lon="5.72529">
        <ele>624.40002441406</ele>
        <time>2021-05-29T04:25:27.000Z</time>
      </trkpt>
      <trkpt lat="45.20411" lon="5.72524">
        <ele>625.20001220703</ele>
        <time>2021-05-29T04:25:31.000Z</time>
      </trkpt>
      <trkpt lat="45.20412" lon="5.72524">
        <ele>626.20001220703</ele>
        <time>2021-05-29T04:25:34.000Z</time>
      </trkpt>
      <trkpt lat="45.20414" lon="5.72523">
        <ele>627.40002441406</ele>
        <time>2021-05-29T04:25:38.000Z</time>
      </trkpt>
      <trkpt lat="45.20416" lon="5.72521">
        <ele>628.20001220703</ele>
        <time>2021-05-29T04:25:40.000Z</time>
      </trkpt>
      <trkpt lat="45.20418" lon="5.7252">
        <ele>628.40002441406</ele>
        <time>2021-05-29T04:25:41.000Z</time>
      </trkpt>
      <trkpt lat="45.20422" lon="5.72519">
        <ele>629.59997558594</ele>
        <time>2021-05-29T04:25:45.000Z</time>
      </trkpt>
      <trkpt lat="45.20423" lon="5.72519">
        <ele>629.79998779297</ele>
        <time>2021-05-29T04:25:46.000Z</time>
      </trkpt>
      <trkpt lat="45.20424" lon="5.72519">
        <ele>631</ele>
        <time>2021-05-29T04:25:48.000Z</time>
      </trkpt>
      <trkpt lat="45.20426" lon="5.72518">
        <ele>632</ele>
        <time>2021-05-29T04:25:52.000Z</time>
      </trkpt>
      <trkpt lat="45.20427" lon="5.72518">
        <ele>632.40002441406</ele>
        <time>2021-05-29T04:25:53.000Z</time>
      </trkpt>
      <trkpt lat="45.20428" lon="5.72516">
        <ele>633.20001220703</ele>
        <time>2021-05-29T04:25:55.000Z</time>
      </trkpt>
      <trkpt lat="45.20431" lon="5.72514">
        <ele>633.79998779297</ele>
        <time>2021-05-29T04:25:57.000Z</time>
      </trkpt>
      <trkpt lat="45.20435" lon="5.72514">
        <ele>634.20001220703</ele>
        <time>2021-05-29T04:25:59.000Z</time>
      </trkpt>
      <trkpt lat="45.20436" lon="5.72514">
        <ele>634.20001220703</ele>
        <time>2021-05-29T04:26:00.000Z</time>
      </trkpt>
      <trkpt lat="45.2044" lon="5.72515">
        <ele>634.20001220703</ele>
        <time>2021-05-29T04:26:02.000Z</time>
      </trkpt>
      <trkpt lat="45.20442" lon="5.72517">
        <ele>634.79998779297</ele>
        <time>2021-05-29T04:26:04.000Z</time>
      </trkpt>
      <trkpt lat="45.20445" lon="5.72517">
        <ele>635.20001220703</ele>
        <time>2021-05-29T04:26:05.000Z</time>
      </trkpt>
      <trkpt lat="45.20447" lon="5.72518">
        <ele>635.20001220703</ele>
        <time>2021-05-29T04:26:06.000Z</time>
      </trkpt>
      <trkpt lat="45.20454" lon="5.72528">
        <ele>636.40002441406</ele>
        <time>2021-05-29T04:26:12.000Z</time>
      </trkpt>
      <trkpt lat="45.20456" lon="5.72531">
        <ele>636.79998779297</ele>
        <time>2021-05-29T04:26:14.000Z</time>
      </trkpt>
      <trkpt lat="45.20461" lon="5.72537">
        <ele>637.59997558594</ele>
        <time>2021-05-29T04:26:18.000Z</time>
      </trkpt>
      <trkpt lat="45.20468" lon="5.72544">
        <ele>638.59997558594</ele>
        <time>2021-05-29T04:26:24.000Z</time>
      </trkpt>
      <trkpt lat="45.20478" lon="5.72552">
        <ele>639.59997558594</ele>
        <time>2021-05-29T04:26:31.000Z</time>
      </trkpt>
      <trkpt lat="45.20479" lon="5.72553">
        <ele>639.79998779297</ele>
        <time>2021-05-29T04:26:32.000Z</time>
      </trkpt>
      <trkpt lat="45.20482" lon="5.72553">
        <ele>640.20001220703</ele>
        <time>2021-05-29T04:26:34.000Z</time>
      </trkpt>
      <trkpt lat="45.20484" lon="5.72548">
        <ele>640.79998779297</ele>
        <time>2021-05-29T04:26:37.000Z</time>
      </trkpt>
      <trkpt lat="45.20483" lon="5.72544">
        <ele>641.79998779297</ele>
        <time>2021-05-29T04:26:41.000Z</time>
      </trkpt>
      <trkpt lat="45.20482" lon="5.72543">
        <ele>642.20001220703</ele>
        <time>2021-05-29T04:26:42.000Z</time>
      </trkpt>
      <trkpt lat="45.20481" lon="5.72539">
        <ele>642.79998779297</ele>
        <time>2021-05-29T04:26:45.000Z</time>
      </trkpt>
      <trkpt lat="45.2048" lon="5.72537">
        <ele>643.40002441406</ele>
        <time>2021-05-29T04:26:46.000Z</time>
      </trkpt>
      <trkpt lat="45.20479" lon="5.72532">
        <ele>644.20001220703</ele>
        <time>2021-05-29T04:26:51.000Z</time>
      </trkpt>
      <trkpt lat="45.20478" lon="5.72529">
        <ele>644.59997558594</ele>
        <time>2021-05-29T04:26:53.000Z</time>
      </trkpt>
      <trkpt lat="45.20479" lon="5.7252">
        <ele>645.59997558594</ele>
        <time>2021-05-29T04:26:57.000Z</time>
      </trkpt>
      <trkpt lat="45.20479" lon="5.72516">
        <ele>646</ele>
        <time>2021-05-29T04:26:59.000Z</time>
      </trkpt>
      <trkpt lat="45.20479" lon="5.72512">
        <ele>645.79998779297</ele>
        <time>2021-05-29T04:27:01.000Z</time>
      </trkpt>
      <trkpt lat="45.20474" lon="5.72499">
        <ele>645.59997558594</ele>
        <time>2021-05-29T04:27:06.000Z</time>
      </trkpt>
      <trkpt lat="45.20469" lon="5.72485">
        <ele>646.20001220703</ele>
        <time>2021-05-29T04:27:12.000Z</time>
      </trkpt>
      <trkpt lat="45.2047" lon="5.72474">
        <ele>646.79998779297</ele>
        <time>2021-05-29T04:27:15.000Z</time>
      </trkpt>
      <trkpt lat="45.20469" lon="5.72467">
        <ele>647.59997558594</ele>
        <time>2021-05-29T04:27:18.000Z</time>
      </trkpt>
      <trkpt lat="45.20469" lon="5.72465">
        <ele>648</ele>
        <time>2021-05-29T04:27:19.000Z</time>
      </trkpt>
      <trkpt lat="45.20469" lon="5.72463">
        <ele>648.20001220703</ele>
        <time>2021-05-29T04:27:20.000Z</time>
      </trkpt>
      <trkpt lat="45.20467" lon="5.72457">
        <ele>649.20001220703</ele>
        <time>2021-05-29T04:27:23.000Z</time>
      </trkpt>
      <trkpt lat="45.20467" lon="5.72456">
        <ele>649.40002441406</ele>
        <time>2021-05-29T04:27:24.000Z</time>
      </trkpt>
      <trkpt lat="45.20465" lon="5.72448">
        <ele>650.40002441406</ele>
        <time>2021-05-29T04:27:28.000Z</time>
      </trkpt>
      <trkpt lat="45.20464" lon="5.72444">
        <ele>650.59997558594</ele>
        <time>2021-05-29T04:27:30.000Z</time>
      </trkpt>
      <trkpt lat="45.20461" lon="5.72439">
        <ele>650.59997558594</ele>
        <time>2021-05-29T04:27:32.000Z</time>
      </trkpt>
      <trkpt lat="45.20451" lon="5.72433">
        <ele>650.79998779297</ele>
        <time>2021-05-29T04:27:38.000Z</time>
      </trkpt>
      <trkpt lat="45.20448" lon="5.72432">
        <ele>650.79998779297</ele>
        <time>2021-05-29T04:27:40.000Z</time>
      </trkpt>
      <trkpt lat="45.20441" lon="5.72429">
        <ele>650.59997558594</ele>
        <time>2021-05-29T04:27:44.000Z</time>
      </trkpt>
      <trkpt lat="45.20433" lon="5.72426">
        <ele>650.40002441406</ele>
        <time>2021-05-29T04:27:48.000Z</time>
      </trkpt>
      <trkpt lat="45.2043" lon="5.72427">
        <ele>650.40002441406</ele>
        <time>2021-05-29T04:27:50.000Z</time>
      </trkpt>
      <trkpt lat="45.20428" lon="5.72427">
        <ele>650.40002441406</ele>
        <time>2021-05-29T04:27:51.000Z</time>
      </trkpt>
      <trkpt lat="45.2042" lon="5.72428">
        <ele>650.79998779297</ele>
        <time>2021-05-29T04:27:56.000Z</time>
      </trkpt>
      <trkpt lat="45.20414" lon="5.72431">
        <ele>651</ele>
        <time>2021-05-29T04:27:59.000Z</time>
      </trkpt>
      <trkpt lat="45.20412" lon="5.72431">
        <ele>651</ele>
        <time>2021-05-29T04:28:00.000Z</time>
      </trkpt>
      <trkpt lat="45.20406" lon="5.72431">
        <ele>651.40002441406</ele>
        <time>2021-05-29T04:28:03.000Z</time>
      </trkpt>
      <trkpt lat="45.20396" lon="5.72432">
        <ele>651.79998779297</ele>
        <time>2021-05-29T04:28:07.000Z</time>
      </trkpt>
      <trkpt lat="45.20394" lon="5.72431">
        <ele>651.59997558594</ele>
        <time>2021-05-29T04:28:08.000Z</time>
      </trkpt>
      <trkpt lat="45.20393" lon="5.7243">
        <ele>651.59997558594</ele>
        <time>2021-05-29T04:28:09.000Z</time>
      </trkpt>
      <trkpt lat="45.20392" lon="5.72421">
        <ele>651.79998779297</ele>
        <time>2021-05-29T04:28:11.000Z</time>
      </trkpt>
      <trkpt lat="45.20392" lon="5.72421">
        <ele>651.79998779297</ele>
        <time>2021-05-29T04:28:12.000Z</time>
      </trkpt>
      <trkpt lat="45.20392" lon="5.72421">
        <ele>651.79998779297</ele>
        <time>2021-05-29T04:28:13.000Z</time>
      </trkpt>
      <trkpt lat="45.20389" lon="5.72422">
        <ele>651.79998779297</ele>
        <time>2021-05-29T04:28:15.000Z</time>
      </trkpt>
      <trkpt lat="45.20383" lon="5.72426">
        <ele>650.40002441406</ele>
        <time>2021-05-29T04:28:21.000Z</time>
      </trkpt>
      <trkpt lat="45.20382" lon="5.72425">
        <ele>649.59997558594</ele>
        <time>2021-05-29T04:28:23.000Z</time>
      </trkpt>
      <trkpt lat="45.2038" lon="5.72425">
        <ele>649</ele>
        <time>2021-05-29T04:28:25.000Z</time>
      </trkpt>
      <trkpt lat="45.20377" lon="5.72426">
        <ele>648.59997558594</ele>
        <time>2021-05-29T04:28:28.000Z</time>
      </trkpt>
      <trkpt lat="45.20375" lon="5.72427">
        <ele>648</ele>
        <time>2021-05-29T04:28:30.000Z</time>
      </trkpt>
      <trkpt lat="45.20373" lon="5.72426">
        <ele>648</ele>
        <time>2021-05-29T04:28:31.000Z</time>
      </trkpt>
      <trkpt lat="45.20369" lon="5.72424">
        <ele>647</ele>
        <time>2021-05-29T04:28:34.000Z</time>
      </trkpt>
      <trkpt lat="45.20368" lon="5.72424">
        <ele>646.59997558594</ele>
        <time>2021-05-29T04:28:35.000Z</time>
      </trkpt>
      <trkpt lat="45.20365" lon="5.72427">
        <ele>646</ele>
        <time>2021-05-29T04:28:37.000Z</time>
      </trkpt>
      <trkpt lat="45.20362" lon="5.72431">
        <ele>646</ele>
        <time>2021-05-29T04:28:39.000Z</time>
      </trkpt>
      <trkpt lat="45.20362" lon="5.72431">
        <ele>645.79998779297</ele>
        <time>2021-05-29T04:28:42.000Z</time>
      </trkpt>
      <trkpt lat="45.20362" lon="5.72429">
        <ele>645.79998779297</ele>
        <time>2021-05-29T04:28:43.000Z</time>
      </trkpt>
      <trkpt lat="45.20365" lon="5.72412">
        <ele>646</ele>
        <time>2021-05-29T04:28:48.000Z</time>
      </trkpt>
      <trkpt lat="45.20368" lon="5.72405">
        <ele>646</ele>
        <time>2021-05-29T04:28:50.000Z</time>
      </trkpt>
      <trkpt lat="45.20374" lon="5.72397">
        <ele>645.59997558594</ele>
        <time>2021-05-29T04:28:53.000Z</time>
      </trkpt>
      <trkpt lat="45.20377" lon="5.72395">
        <ele>645.59997558594</ele>
        <time>2021-05-29T04:28:54.000Z</time>
      </trkpt>
      <trkpt lat="45.20392" lon="5.72388">
        <ele>645.79998779297</ele>
        <time>2021-05-29T04:29:00.000Z</time>
      </trkpt>
      <trkpt lat="45.20408" lon="5.72387">
        <ele>646</ele>
        <time>2021-05-29T04:29:06.000Z</time>
      </trkpt>
      <trkpt lat="45.20427" lon="5.72392">
        <ele>646.40002441406</ele>
        <time>2021-05-29T04:29:13.000Z</time>
      </trkpt>
      <trkpt lat="45.20433" lon="5.7239">
        <ele>646.20001220703</ele>
        <time>2021-05-29T04:29:15.000Z</time>
      </trkpt>
      <trkpt lat="45.20446" lon="5.72388">
        <ele>646.40002441406</ele>
        <time>2021-05-29T04:29:20.000Z</time>
      </trkpt>
      <trkpt lat="45.20452" lon="5.72388">
        <ele>646.40002441406</ele>
        <time>2021-05-29T04:29:22.000Z</time>
      </trkpt>
      <trkpt lat="45.20462" lon="5.72389">
        <ele>646.79998779297</ele>
        <time>2021-05-29T04:29:26.000Z</time>
      </trkpt>
      <trkpt lat="45.20476" lon="5.72392">
        <ele>646.79998779297</ele>
        <time>2021-05-29T04:29:31.000Z</time>
      </trkpt>
      <trkpt lat="45.20494" lon="5.72395">
        <ele>646.79998779297</ele>
        <time>2021-05-29T04:29:38.000Z</time>
      </trkpt>
      <trkpt lat="45.20502" lon="5.72395">
        <ele>647</ele>
        <time>2021-05-29T04:29:40.000Z</time>
      </trkpt>
      <trkpt lat="45.20519" lon="5.72399">
        <ele>646.59997558594</ele>
        <time>2021-05-29T04:29:48.000Z</time>
      </trkpt>
      <trkpt lat="45.20529" lon="5.724">
        <ele>646.59997558594</ele>
        <time>2021-05-29T04:29:53.000Z</time>
      </trkpt>
      <trkpt lat="45.20533" lon="5.724">
        <ele>646.40002441406</ele>
        <time>2021-05-29T04:29:55.000Z</time>
      </trkpt>
      <trkpt lat="45.20541" lon="5.72399">
        <ele>646.79998779297</ele>
        <time>2021-05-29T04:29:58.000Z</time>
      </trkpt>
      <trkpt lat="45.20552" lon="5.72402">
        <ele>646.59997558594</ele>
        <time>2021-05-29T04:30:03.000Z</time>
      </trkpt>
      <trkpt lat="45.20556" lon="5.72403">
        <ele>646.59997558594</ele>
        <time>2021-05-29T04:30:05.000Z</time>
      </trkpt>
      <trkpt lat="45.20561" lon="5.72406">
        <ele>646.79998779297</ele>
        <time>2021-05-29T04:30:08.000Z</time>
      </trkpt>
      <trkpt lat="45.20572" lon="5.72409">
        <ele>646.59997558594</ele>
        <time>2021-05-29T04:30:13.000Z</time>
      </trkpt>
      <trkpt lat="45.2059" lon="5.72408">
        <ele>646.79998779297</ele>
        <time>2021-05-29T04:30:21.000Z</time>
      </trkpt>
      <trkpt lat="45.20599" lon="5.72408">
        <ele>647.40002441406</ele>
        <time>2021-05-29T04:30:25.000Z</time>
      </trkpt>
      <trkpt lat="45.20615" lon="5.72404">
        <ele>647.59997558594</ele>
        <time>2021-05-29T04:30:31.000Z</time>
      </trkpt>
      <trkpt lat="45.20631" lon="5.72399">
        <ele>647.40002441406</ele>
        <time>2021-05-29T04:30:37.000Z</time>
      </trkpt>
      <trkpt lat="45.2065" lon="5.72396">
        <ele>647.59997558594</ele>
        <time>2021-05-29T04:30:43.000Z</time>
      </trkpt>
      <trkpt lat="45.20656" lon="5.72396">
        <ele>647.79998779297</ele>
        <time>2021-05-29T04:30:45.000Z</time>
      </trkpt>
      <trkpt lat="45.20664" lon="5.72397">
        <ele>647.79998779297</ele>
        <time>2021-05-29T04:30:48.000Z</time>
      </trkpt>
      <trkpt lat="45.20673" lon="5.72398">
        <ele>648</ele>
        <time>2021-05-29T04:30:51.000Z</time>
      </trkpt>
      <trkpt lat="45.20691" lon="5.72404">
        <ele>647.79998779297</ele>
        <time>2021-05-29T04:30:58.000Z</time>
      </trkpt>
      <trkpt lat="45.20707" lon="5.7241">
        <ele>648</ele>
        <time>2021-05-29T04:31:03.000Z</time>
      </trkpt>
      <trkpt lat="45.20712" lon="5.72412">
        <ele>648</ele>
        <time>2021-05-29T04:31:06.000Z</time>
      </trkpt>
      <trkpt lat="45.20726" lon="5.72417">
        <ele>648</ele>
        <time>2021-05-29T04:31:11.000Z</time>
      </trkpt>
      <trkpt lat="45.20745" lon="5.72422">
        <ele>647.79998779297</ele>
        <time>2021-05-29T04:31:18.000Z</time>
      </trkpt>
      <trkpt lat="45.20756" lon="5.72425">
        <ele>648</ele>
        <time>2021-05-29T04:31:22.000Z</time>
      </trkpt>
      <trkpt lat="45.20761" lon="5.72426">
        <ele>648</ele>
        <time>2021-05-29T04:31:24.000Z</time>
      </trkpt>
      <trkpt lat="45.20769" lon="5.72429">
        <ele>648</ele>
        <time>2021-05-29T04:31:27.000Z</time>
      </trkpt>
      <trkpt lat="45.20777" lon="5.72432">
        <ele>648</ele>
        <time>2021-05-29T04:31:30.000Z</time>
      </trkpt>
      <trkpt lat="45.20786" lon="5.72434">
        <ele>648</ele>
        <time>2021-05-29T04:31:33.000Z</time>
      </trkpt>
      <trkpt lat="45.20793" lon="5.72438">
        <ele>648.20001220703</ele>
        <time>2021-05-29T04:31:36.000Z</time>
      </trkpt>
      <trkpt lat="45.208" lon="5.72442">
        <ele>648.20001220703</ele>
        <time>2021-05-29T04:31:39.000Z</time>
      </trkpt>
      <trkpt lat="45.20805" lon="5.72444">
        <ele>648.59997558594</ele>
        <time>2021-05-29T04:31:41.000Z</time>
      </trkpt>
      <trkpt lat="45.20813" lon="5.72446">
        <ele>648.79998779297</ele>
        <time>2021-05-29T04:31:44.000Z</time>
      </trkpt>
      <trkpt lat="45.20816" lon="5.72446">
        <ele>649</ele>
        <time>2021-05-29T04:31:45.000Z</time>
      </trkpt>
      <trkpt lat="45.20828" lon="5.72449">
        <ele>648.79998779297</ele>
        <time>2021-05-29T04:31:50.000Z</time>
      </trkpt>
      <trkpt lat="45.20848" lon="5.72455">
        <ele>648.79998779297</ele>
        <time>2021-05-29T04:31:57.000Z</time>
      </trkpt>
      <trkpt lat="45.20863" lon="5.72463">
        <ele>649</ele>
        <time>2021-05-29T04:32:03.000Z</time>
      </trkpt>
      <trkpt lat="45.20884" lon="5.7247">
        <ele>649</ele>
        <time>2021-05-29T04:32:10.000Z</time>
      </trkpt>
      <trkpt lat="45.20887" lon="5.72471">
        <ele>649.20001220703</ele>
        <time>2021-05-29T04:32:11.000Z</time>
      </trkpt>
      <trkpt lat="45.20907" lon="5.72476">
        <ele>649.20001220703</ele>
        <time>2021-05-29T04:32:18.000Z</time>
      </trkpt>
      <trkpt lat="45.20912" lon="5.72478">
        <ele>649</ele>
        <time>2021-05-29T04:32:20.000Z</time>
      </trkpt>
      <trkpt lat="45.20915" lon="5.7248">
        <ele>649</ele>
        <time>2021-05-29T04:32:21.000Z</time>
      </trkpt>
      <trkpt lat="45.20922" lon="5.72486">
        <ele>649.20001220703</ele>
        <time>2021-05-29T04:32:24.000Z</time>
      </trkpt>
      <trkpt lat="45.20928" lon="5.7249">
        <ele>649.20001220703</ele>
        <time>2021-05-29T04:32:27.000Z</time>
      </trkpt>
      <trkpt lat="45.2093" lon="5.72491">
        <ele>649.20001220703</ele>
        <time>2021-05-29T04:32:28.000Z</time>
      </trkpt>
      <trkpt lat="45.20943" lon="5.72498">
        <ele>649</ele>
        <time>2021-05-29T04:32:33.000Z</time>
      </trkpt>
      <trkpt lat="45.20951" lon="5.72502">
        <ele>649</ele>
        <time>2021-05-29T04:32:36.000Z</time>
      </trkpt>
      <trkpt lat="45.20953" lon="5.72503">
        <ele>649.20001220703</ele>
        <time>2021-05-29T04:32:37.000Z</time>
      </trkpt>
      <trkpt lat="45.20959" lon="5.72505">
        <ele>649.20001220703</ele>
        <time>2021-05-29T04:32:39.000Z</time>
      </trkpt>
      <trkpt lat="45.20967" lon="5.72507">
        <ele>649.40002441406</ele>
        <time>2021-05-29T04:32:42.000Z</time>
      </trkpt>
      <trkpt lat="45.20977" lon="5.72507">
        <ele>649.79998779297</ele>
        <time>2021-05-29T04:32:45.000Z</time>
      </trkpt>
      <trkpt lat="45.2098" lon="5.72508">
        <ele>649.79998779297</ele>
        <time>2021-05-29T04:32:47.000Z</time>
      </trkpt>
      <trkpt lat="45.20982" lon="5.72507">
        <ele>650</ele>
        <time>2021-05-29T04:32:48.000Z</time>
      </trkpt>
      <trkpt lat="45.20995" lon="5.72506">
        <ele>650</ele>
        <time>2021-05-29T04:32:53.000Z</time>
      </trkpt>
      <trkpt lat="45.21002" lon="5.72506">
        <ele>650</ele>
        <time>2021-05-29T04:32:56.000Z</time>
      </trkpt>
      <trkpt lat="45.21015" lon="5.725">
        <ele>649.20001220703</ele>
        <time>2021-05-29T04:33:02.000Z</time>
      </trkpt>
      <trkpt lat="45.21018" lon="5.72501">
        <ele>648.79998779297</ele>
        <time>2021-05-29T04:33:03.000Z</time>
      </trkpt>
      <trkpt lat="45.21027" lon="5.725">
        <ele>648</ele>
        <time>2021-05-29T04:33:07.000Z</time>
      </trkpt>
      <trkpt lat="45.21028" lon="5.72499">
        <ele>647.59997558594</ele>
        <time>2021-05-29T04:33:08.000Z</time>
      </trkpt>
      <trkpt lat="45.21034" lon="5.725">
        <ele>646</ele>
        <time>2021-05-29T04:33:11.000Z</time>
      </trkpt>
      <trkpt lat="45.21039" lon="5.72498">
        <ele>645</ele>
        <time>2021-05-29T04:33:14.000Z</time>
      </trkpt>
      <trkpt lat="45.21043" lon="5.72496">
        <ele>643.59997558594</ele>
        <time>2021-05-29T04:33:16.000Z</time>
      </trkpt>
      <trkpt lat="45.21049" lon="5.72492">
        <ele>642.40002441406</ele>
        <time>2021-05-29T04:33:19.000Z</time>
      </trkpt>
      <trkpt lat="45.2105" lon="5.72491">
        <ele>642.20001220703</ele>
        <time>2021-05-29T04:33:20.000Z</time>
      </trkpt>
      <trkpt lat="45.21055" lon="5.7249">
        <ele>641.40002441406</ele>
        <time>2021-05-29T04:33:22.000Z</time>
      </trkpt>
      <trkpt lat="45.21057" lon="5.72489">
        <ele>641</ele>
        <time>2021-05-29T04:33:23.000Z</time>
      </trkpt>
      <trkpt lat="45.21061" lon="5.72489">
        <ele>640.40002441406</ele>
        <time>2021-05-29T04:33:25.000Z</time>
      </trkpt>
      <trkpt lat="45.21062" lon="5.7249">
        <ele>640.40002441406</ele>
        <time>2021-05-29T04:33:26.000Z</time>
      </trkpt>
      <trkpt lat="45.21063" lon="5.7249">
        <ele>640</ele>
        <time>2021-05-29T04:33:27.000Z</time>
      </trkpt>
      <trkpt lat="45.21067" lon="5.7249">
        <ele>638.79998779297</ele>
        <time>2021-05-29T04:33:29.000Z</time>
      </trkpt>
      <trkpt lat="45.21071" lon="5.72487">
        <ele>637.59997558594</ele>
        <time>2021-05-29T04:33:31.000Z</time>
      </trkpt>
      <trkpt lat="45.21076" lon="5.72484">
        <ele>636.40002441406</ele>
        <time>2021-05-29T04:33:34.000Z</time>
      </trkpt>
      <trkpt lat="45.21081" lon="5.72478">
        <ele>635.40002441406</ele>
        <time>2021-05-29T04:33:37.000Z</time>
      </trkpt>
      <trkpt lat="45.21083" lon="5.72477">
        <ele>635</ele>
        <time>2021-05-29T04:33:38.000Z</time>
      </trkpt>
      <trkpt lat="45.21084" lon="5.72477">
        <ele>634.79998779297</ele>
        <time>2021-05-29T04:33:39.000Z</time>
      </trkpt>
      <trkpt lat="45.21087" lon="5.72475">
        <ele>633.79998779297</ele>
        <time>2021-05-29T04:33:41.000Z</time>
      </trkpt>
      <trkpt lat="45.2109" lon="5.72474">
        <ele>632.79998779297</ele>
        <time>2021-05-29T04:33:43.000Z</time>
      </trkpt>
      <trkpt lat="45.21092" lon="5.72474">
        <ele>632.59997558594</ele>
        <time>2021-05-29T04:33:44.000Z</time>
      </trkpt>
      <trkpt lat="45.21095" lon="5.72474">
        <ele>631.79998779297</ele>
        <time>2021-05-29T04:33:46.000Z</time>
      </trkpt>
      <trkpt lat="45.21097" lon="5.72474">
        <ele>631</ele>
        <time>2021-05-29T04:33:47.000Z</time>
      </trkpt>
      <trkpt lat="45.21099" lon="5.72474">
        <ele>630.59997558594</ele>
        <time>2021-05-29T04:33:48.000Z</time>
      </trkpt>
      <trkpt lat="45.211" lon="5.72472">
        <ele>630.20001220703</ele>
        <time>2021-05-29T04:33:49.000Z</time>
      </trkpt>
      <trkpt lat="45.21102" lon="5.72471">
        <ele>629.79998779297</ele>
        <time>2021-05-29T04:33:50.000Z</time>
      </trkpt>
      <trkpt lat="45.21105" lon="5.7247">
        <ele>629.20001220703</ele>
        <time>2021-05-29T04:33:52.000Z</time>
      </trkpt>
      <trkpt lat="45.2111" lon="5.72467">
        <ele>628.59997558594</ele>
        <time>2021-05-29T04:33:54.000Z</time>
      </trkpt>
      <trkpt lat="45.21112" lon="5.72466">
        <ele>628.20001220703</ele>
        <time>2021-05-29T04:33:55.000Z</time>
      </trkpt>
      <trkpt lat="45.21115" lon="5.72467">
        <ele>627.79998779297</ele>
        <time>2021-05-29T04:33:56.000Z</time>
      </trkpt>
      <trkpt lat="45.21117" lon="5.72466">
        <ele>627.40002441406</ele>
        <time>2021-05-29T04:33:57.000Z</time>
      </trkpt>
      <trkpt lat="45.21122" lon="5.72462">
        <ele>626.40002441406</ele>
        <time>2021-05-29T04:33:59.000Z</time>
      </trkpt>
      <trkpt lat="45.21124" lon="5.72461">
        <ele>626.20001220703</ele>
        <time>2021-05-29T04:34:00.000Z</time>
      </trkpt>
      <trkpt lat="45.21135" lon="5.72461">
        <ele>624.79998779297</ele>
        <time>2021-05-29T04:34:04.000Z</time>
      </trkpt>
      <trkpt lat="45.21138" lon="5.72461">
        <ele>624.20001220703</ele>
        <time>2021-05-29T04:34:06.000Z</time>
      </trkpt>
      <trkpt lat="45.21141" lon="5.72461">
        <ele>623.79998779297</ele>
        <time>2021-05-29T04:34:07.000Z</time>
      </trkpt>
      <trkpt lat="45.21147" lon="5.72462">
        <ele>622.59997558594</ele>
        <time>2021-05-29T04:34:10.000Z</time>
      </trkpt>
      <trkpt lat="45.21151" lon="5.72463">
        <ele>622.20001220703</ele>
        <time>2021-05-29T04:34:12.000Z</time>
      </trkpt>
      <trkpt lat="45.21156" lon="5.72462">
        <ele>621.40002441406</ele>
        <time>2021-05-29T04:34:14.000Z</time>
      </trkpt>
      <trkpt lat="45.21162" lon="5.72457">
        <ele>620.59997558594</ele>
        <time>2021-05-29T04:34:17.000Z</time>
      </trkpt>
      <trkpt lat="45.21164" lon="5.72456">
        <ele>620.40002441406</ele>
        <time>2021-05-29T04:34:18.000Z</time>
      </trkpt>
      <trkpt lat="45.21172" lon="5.72445">
        <ele>619.79998779297</ele>
        <time>2021-05-29T04:34:22.000Z</time>
      </trkpt>
      <trkpt lat="45.21175" lon="5.7244">
        <ele>619.59997558594</ele>
        <time>2021-05-29T04:34:24.000Z</time>
      </trkpt>
      <trkpt lat="45.21178" lon="5.72438">
        <ele>619.40002441406</ele>
        <time>2021-05-29T04:34:25.000Z</time>
      </trkpt>
      <trkpt lat="45.21183" lon="5.72431">
        <ele>618.79998779297</ele>
        <time>2021-05-29T04:34:28.000Z</time>
      </trkpt>
      <trkpt lat="45.21187" lon="5.72415">
        <ele>618.40002441406</ele>
        <time>2021-05-29T04:34:33.000Z</time>
      </trkpt>
      <trkpt lat="45.21187" lon="5.72402">
        <ele>618.20001220703</ele>
        <time>2021-05-29T04:34:36.000Z</time>
      </trkpt>
      <trkpt lat="45.21184" lon="5.72391">
        <ele>618.20001220703</ele>
        <time>2021-05-29T04:34:38.000Z</time>
      </trkpt>
      <trkpt lat="45.21182" lon="5.72373">
        <ele>617.79998779297</ele>
        <time>2021-05-29T04:34:43.000Z</time>
      </trkpt>
      <trkpt lat="45.21182" lon="5.72361">
        <ele>617.79998779297</ele>
        <time>2021-05-29T04:34:46.000Z</time>
      </trkpt>
      <trkpt lat="45.21183" lon="5.72357">
        <ele>617.79998779297</ele>
        <time>2021-05-29T04:34:47.000Z</time>
      </trkpt>
      <trkpt lat="45.21183" lon="5.72345">
        <ele>617.40002441406</ele>
        <time>2021-05-29T04:34:50.000Z</time>
      </trkpt>
      <trkpt lat="45.21183" lon="5.7233">
        <ele>617.20001220703</ele>
        <time>2021-05-29T04:34:54.000Z</time>
      </trkpt>
      <trkpt lat="45.21185" lon="5.72327">
        <ele>616.79998779297</ele>
        <time>2021-05-29T04:34:55.000Z</time>
      </trkpt>
      <trkpt lat="45.21187" lon="5.72325">
        <ele>616.79998779297</ele>
        <time>2021-05-29T04:34:56.000Z</time>
      </trkpt>
      <trkpt lat="45.21193" lon="5.72324">
        <ele>616.40002441406</ele>
        <time>2021-05-29T04:34:58.000Z</time>
      </trkpt>
      <trkpt lat="45.21202" lon="5.72325">
        <ele>615.79998779297</ele>
        <time>2021-05-29T04:35:01.000Z</time>
      </trkpt>
      <trkpt lat="45.21207" lon="5.72325">
        <ele>615.20001220703</ele>
        <time>2021-05-29T04:35:03.000Z</time>
      </trkpt>
      <trkpt lat="45.21216" lon="5.72326">
        <ele>614.59997558594</ele>
        <time>2021-05-29T04:35:06.000Z</time>
      </trkpt>
      <trkpt lat="45.2123" lon="5.72329">
        <ele>613.59997558594</ele>
        <time>2021-05-29T04:35:11.000Z</time>
      </trkpt>
      <trkpt lat="45.2124" lon="5.72329">
        <ele>613</ele>
        <time>2021-05-29T04:35:15.000Z</time>
      </trkpt>
      <trkpt lat="45.21243" lon="5.72329">
        <ele>612.59997558594</ele>
        <time>2021-05-29T04:35:16.000Z</time>
      </trkpt>
      <trkpt lat="45.21246" lon="5.72327">
        <ele>612.40002441406</ele>
        <time>2021-05-29T04:35:17.000Z</time>
      </trkpt>
      <trkpt lat="45.21252" lon="5.72326">
        <ele>612</ele>
        <time>2021-05-29T04:35:19.000Z</time>
      </trkpt>
      <trkpt lat="45.21263" lon="5.72326">
        <ele>611</ele>
        <time>2021-05-29T04:35:23.000Z</time>
      </trkpt>
      <trkpt lat="45.21268" lon="5.72326">
        <ele>610.20001220703</ele>
        <time>2021-05-29T04:35:25.000Z</time>
      </trkpt>
      <trkpt lat="45.21272" lon="5.72325">
        <ele>609.79998779297</ele>
        <time>2021-05-29T04:35:27.000Z</time>
      </trkpt>
      <trkpt lat="45.21274" lon="5.72326">
        <ele>609.40002441406</ele>
        <time>2021-05-29T04:35:28.000Z</time>
      </trkpt>
      <trkpt lat="45.21279" lon="5.72328">
        <ele>608.40002441406</ele>
        <time>2021-05-29T04:35:30.000Z</time>
      </trkpt>
      <trkpt lat="45.21288" lon="5.72328">
        <ele>606.79998779297</ele>
        <time>2021-05-29T04:35:34.000Z</time>
      </trkpt>
      <trkpt lat="45.21291" lon="5.72326">
        <ele>605.79998779297</ele>
        <time>2021-05-29T04:35:36.000Z</time>
      </trkpt>
      <trkpt lat="45.21293" lon="5.72327">
        <ele>605.40002441406</ele>
        <time>2021-05-29T04:35:37.000Z</time>
      </trkpt>
      <trkpt lat="45.21299" lon="5.72328">
        <ele>604.59997558594</ele>
        <time>2021-05-29T04:35:40.000Z</time>
      </trkpt>
      <trkpt lat="45.213" lon="5.72329">
        <ele>604</ele>
        <time>2021-05-29T04:35:41.000Z</time>
      </trkpt>
      <trkpt lat="45.21303" lon="5.72329">
        <ele>603.59997558594</ele>
        <time>2021-05-29T04:35:42.000Z</time>
      </trkpt>
      <trkpt lat="45.21305" lon="5.7233">
        <ele>603</ele>
        <time>2021-05-29T04:35:43.000Z</time>
      </trkpt>
      <trkpt lat="45.21311" lon="5.72331">
        <ele>601.79998779297</ele>
        <time>2021-05-29T04:35:46.000Z</time>
      </trkpt>
      <trkpt lat="45.21313" lon="5.72331">
        <ele>601.59997558594</ele>
        <time>2021-05-29T04:35:47.000Z</time>
      </trkpt>
      <trkpt lat="45.21316" lon="5.72332">
        <ele>601.20001220703</ele>
        <time>2021-05-29T04:35:49.000Z</time>
      </trkpt>
      <trkpt lat="45.21318" lon="5.72333">
        <ele>600.40002441406</ele>
        <time>2021-05-29T04:35:50.000Z</time>
      </trkpt>
      <trkpt lat="45.21321" lon="5.72334">
        <ele>599</ele>
        <time>2021-05-29T04:35:52.000Z</time>
      </trkpt>
      <trkpt lat="45.21326" lon="5.72338">
        <ele>598.20001220703</ele>
        <time>2021-05-29T04:35:55.000Z</time>
      </trkpt>
      <trkpt lat="45.21328" lon="5.7234">
        <ele>598</ele>
        <time>2021-05-29T04:35:56.000Z</time>
      </trkpt>
      <trkpt lat="45.21333" lon="5.72344">
        <ele>597.79998779297</ele>
        <time>2021-05-29T04:35:59.000Z</time>
      </trkpt>
      <trkpt lat="45.21334" lon="5.72346">
        <ele>598</ele>
        <time>2021-05-29T04:36:00.000Z</time>
      </trkpt>
      <trkpt lat="45.21335" lon="5.72345">
        <ele>598.20001220703</ele>
        <time>2021-05-29T04:36:01.000Z</time>
      </trkpt>
      <trkpt lat="45.21337" lon="5.72347">
        <ele>599.20001220703</ele>
        <time>2021-05-29T04:36:03.000Z</time>
      </trkpt>
      <trkpt lat="45.21338" lon="5.72349">
        <ele>599.40002441406</ele>
        <time>2021-05-29T04:36:04.000Z</time>
      </trkpt>
      <trkpt lat="45.21339" lon="5.72351">
        <ele>599.59997558594</ele>
        <time>2021-05-29T04:36:05.000Z</time>
      </trkpt>
      <trkpt lat="45.2134" lon="5.72354">
        <ele>600.20001220703</ele>
        <time>2021-05-29T04:36:06.000Z</time>
      </trkpt>
      <trkpt lat="45.21342" lon="5.72356">
        <ele>601</ele>
        <time>2021-05-29T04:36:08.000Z</time>
      </trkpt>
      <trkpt lat="45.21342" lon="5.72354">
        <ele>601.20001220703</ele>
        <time>2021-05-29T04:36:09.000Z</time>
      </trkpt>
      <trkpt lat="45.21344" lon="5.72355">
        <ele>602</ele>
        <time>2021-05-29T04:36:11.000Z</time>
      </trkpt>
      <trkpt lat="45.21346" lon="5.72357">
        <ele>602.40002441406</ele>
        <time>2021-05-29T04:36:13.000Z</time>
      </trkpt>
      <trkpt lat="45.21347" lon="5.72359">
        <ele>603.59997558594</ele>
        <time>2021-05-29T04:36:16.000Z</time>
      </trkpt>
      <trkpt lat="45.21349" lon="5.72362">
        <ele>604.20001220703</ele>
        <time>2021-05-29T04:36:18.000Z</time>
      </trkpt>
      <trkpt lat="45.2135" lon="5.72362">
        <ele>605</ele>
        <time>2021-05-29T04:36:21.000Z</time>
      </trkpt>
      <trkpt lat="45.21351" lon="5.72361">
        <ele>605.20001220703</ele>
        <time>2021-05-29T04:36:22.000Z</time>
      </trkpt>
      <trkpt lat="45.21351" lon="5.7236">
        <ele>605.59997558594</ele>
        <time>2021-05-29T04:36:23.000Z</time>
      </trkpt>
      <trkpt lat="45.21353" lon="5.72361">
        <ele>605.79998779297</ele>
        <time>2021-05-29T04:36:24.000Z</time>
      </trkpt>
      <trkpt lat="45.21354" lon="5.72363">
        <ele>606</ele>
        <time>2021-05-29T04:36:25.000Z</time>
      </trkpt>
      <trkpt lat="45.21355" lon="5.72362">
        <ele>606.79998779297</ele>
        <time>2021-05-29T04:36:27.000Z</time>
      </trkpt>
      <trkpt lat="45.21357" lon="5.72362">
        <ele>607.20001220703</ele>
        <time>2021-05-29T04:36:28.000Z</time>
      </trkpt>
      <trkpt lat="45.21358" lon="5.72364">
        <ele>607.40002441406</ele>
        <time>2021-05-29T04:36:29.000Z</time>
      </trkpt>
      <trkpt lat="45.2136" lon="5.72364">
        <ele>607.79998779297</ele>
        <time>2021-05-29T04:36:30.000Z</time>
      </trkpt>
      <trkpt lat="45.21361" lon="5.72364">
        <ele>608.20001220703</ele>
        <time>2021-05-29T04:36:32.000Z</time>
      </trkpt>
      <trkpt lat="45.21362" lon="5.72364">
        <ele>608.59997558594</ele>
        <time>2021-05-29T04:36:33.000Z</time>
      </trkpt>
      <trkpt lat="45.21364" lon="5.72366">
        <ele>609.20001220703</ele>
        <time>2021-05-29T04:36:35.000Z</time>
      </trkpt>
      <trkpt lat="45.21365" lon="5.72368">
        <ele>609.40002441406</ele>
        <time>2021-05-29T04:36:36.000Z</time>
      </trkpt>
      <trkpt lat="45.21367" lon="5.72371">
        <ele>609.59997558594</ele>
        <time>2021-05-29T04:36:38.000Z</time>
      </trkpt>
      <trkpt lat="45.21369" lon="5.72375">
        <ele>610.59997558594</ele>
        <time>2021-05-29T04:36:40.000Z</time>
      </trkpt>
      <trkpt lat="45.21373" lon="5.72381">
        <ele>611.40002441406</ele>
        <time>2021-05-29T04:36:44.000Z</time>
      </trkpt>
      <trkpt lat="45.21374" lon="5.72382">
        <ele>611.59997558594</ele>
        <time>2021-05-29T04:36:45.000Z</time>
      </trkpt>
      <trkpt lat="45.21375" lon="5.72382">
        <ele>612.20001220703</ele>
        <time>2021-05-29T04:36:46.000Z</time>
      </trkpt>
      <trkpt lat="45.21377" lon="5.72383">
        <ele>612.79998779297</ele>
        <time>2021-05-29T04:36:48.000Z</time>
      </trkpt>
      <trkpt lat="45.21378" lon="5.72384">
        <ele>613.40002441406</ele>
        <time>2021-05-29T04:36:50.000Z</time>
      </trkpt>
      <trkpt lat="45.2138" lon="5.72384">
        <ele>614</ele>
        <time>2021-05-29T04:36:53.000Z</time>
      </trkpt>
      <trkpt lat="45.21381" lon="5.72384">
        <ele>614.79998779297</ele>
        <time>2021-05-29T04:36:55.000Z</time>
      </trkpt>
      <trkpt lat="45.21381" lon="5.72385">
        <ele>615.20001220703</ele>
        <time>2021-05-29T04:36:56.000Z</time>
      </trkpt>
      <trkpt lat="45.21383" lon="5.72387">
        <ele>616</ele>
        <time>2021-05-29T04:36:58.000Z</time>
      </trkpt>
      <trkpt lat="45.21384" lon="5.72388">
        <ele>616.40002441406</ele>
        <time>2021-05-29T04:36:59.000Z</time>
      </trkpt>
      <trkpt lat="45.21385" lon="5.72392">
        <ele>617.40002441406</ele>
        <time>2021-05-29T04:37:02.000Z</time>
      </trkpt>
      <trkpt lat="45.21386" lon="5.72391">
        <ele>617.79998779297</ele>
        <time>2021-05-29T04:37:03.000Z</time>
      </trkpt>
      <trkpt lat="45.21388" lon="5.7239">
        <ele>618.20001220703</ele>
        <time>2021-05-29T04:37:04.000Z</time>
      </trkpt>
      <trkpt lat="45.21389" lon="5.7239">
        <ele>618.59997558594</ele>
        <time>2021-05-29T04:37:06.000Z</time>
      </trkpt>
      <trkpt lat="45.2139" lon="5.72392">
        <ele>619.59997558594</ele>
        <time>2021-05-29T04:37:09.000Z</time>
      </trkpt>
      <trkpt lat="45.21391" lon="5.72393">
        <ele>619.79998779297</ele>
        <time>2021-05-29T04:37:10.000Z</time>
      </trkpt>
      <trkpt lat="45.21392" lon="5.72394">
        <ele>620</ele>
        <time>2021-05-29T04:37:11.000Z</time>
      </trkpt>
      <trkpt lat="45.21393" lon="5.72394">
        <ele>621</ele>
        <time>2021-05-29T04:37:13.000Z</time>
      </trkpt>
      <trkpt lat="45.21394" lon="5.72394">
        <ele>621.79998779297</ele>
        <time>2021-05-29T04:37:15.000Z</time>
      </trkpt>
      <trkpt lat="45.21395" lon="5.72396">
        <ele>622</ele>
        <time>2021-05-29T04:37:16.000Z</time>
      </trkpt>
      <trkpt lat="45.21396" lon="5.72399">
        <ele>623.20001220703</ele>
        <time>2021-05-29T04:37:19.000Z</time>
      </trkpt>
      <trkpt lat="45.21398" lon="5.72401">
        <ele>623.79998779297</ele>
        <time>2021-05-29T04:37:22.000Z</time>
      </trkpt>
      <trkpt lat="45.21399" lon="5.724">
        <ele>624.20001220703</ele>
        <time>2021-05-29T04:37:23.000Z</time>
      </trkpt>
      <trkpt lat="45.214" lon="5.724">
        <ele>625.20001220703</ele>
        <time>2021-05-29T04:37:26.000Z</time>
      </trkpt>
      <trkpt lat="45.21401" lon="5.72399">
        <ele>625.40002441406</ele>
        <time>2021-05-29T04:37:27.000Z</time>
      </trkpt>
      <trkpt lat="45.21404" lon="5.72399">
        <ele>625.79998779297</ele>
        <time>2021-05-29T04:37:29.000Z</time>
      </trkpt>
      <trkpt lat="45.21406" lon="5.72397">
        <ele>626.20001220703</ele>
        <time>2021-05-29T04:37:31.000Z</time>
      </trkpt>
      <trkpt lat="45.21407" lon="5.72398">
        <ele>626.40002441406</ele>
        <time>2021-05-29T04:37:32.000Z</time>
      </trkpt>
      <trkpt lat="45.21408" lon="5.72398">
        <ele>626.79998779297</ele>
        <time>2021-05-29T04:37:33.000Z</time>
      </trkpt>
      <trkpt lat="45.21411" lon="5.72402">
        <ele>627.59997558594</ele>
        <time>2021-05-29T04:37:35.000Z</time>
      </trkpt>
      <trkpt lat="45.21412" lon="5.72403">
        <ele>627.79998779297</ele>
        <time>2021-05-29T04:37:36.000Z</time>
      </trkpt>
      <trkpt lat="45.21414" lon="5.72405">
        <ele>628</ele>
        <time>2021-05-29T04:37:37.000Z</time>
      </trkpt>
      <trkpt lat="45.21417" lon="5.72406">
        <ele>628.79998779297</ele>
        <time>2021-05-29T04:37:41.000Z</time>
      </trkpt>
      <trkpt lat="45.21419" lon="5.72408">
        <ele>629.20001220703</ele>
        <time>2021-05-29T04:37:43.000Z</time>
      </trkpt>
      <trkpt lat="45.21422" lon="5.72412">
        <ele>630</ele>
        <time>2021-05-29T04:37:46.000Z</time>
      </trkpt>
      <trkpt lat="45.21424" lon="5.72414">
        <ele>630.20001220703</ele>
        <time>2021-05-29T04:37:48.000Z</time>
      </trkpt>
      <trkpt lat="45.21428" lon="5.72413">
        <ele>631</ele>
        <time>2021-05-29T04:37:51.000Z</time>
      </trkpt>
      <trkpt lat="45.21431" lon="5.72414">
        <ele>631.40002441406</ele>
        <time>2021-05-29T04:37:54.000Z</time>
      </trkpt>
      <trkpt lat="45.21433" lon="5.72413">
        <ele>631.59997558594</ele>
        <time>2021-05-29T04:37:56.000Z</time>
      </trkpt>
      <trkpt lat="45.21433" lon="5.72413">
        <ele>632</ele>
        <time>2021-05-29T04:37:57.000Z</time>
      </trkpt>
      <trkpt lat="45.21435" lon="5.72413">
        <ele>632.40002441406</ele>
        <time>2021-05-29T04:37:59.000Z</time>
      </trkpt>
      <trkpt lat="45.21438" lon="5.72415">
        <ele>632.59997558594</ele>
        <time>2021-05-29T04:38:01.000Z</time>
      </trkpt>
      <trkpt lat="45.2144" lon="5.72415">
        <ele>633.20001220703</ele>
        <time>2021-05-29T04:38:03.000Z</time>
      </trkpt>
      <trkpt lat="45.21441" lon="5.72415">
        <ele>633.40002441406</ele>
        <time>2021-05-29T04:38:04.000Z</time>
      </trkpt>
      <trkpt lat="45.21443" lon="5.72416">
        <ele>633.59997558594</ele>
        <time>2021-05-29T04:38:05.000Z</time>
      </trkpt>
      <trkpt lat="45.21447" lon="5.72421">
        <ele>634.20001220703</ele>
        <time>2021-05-29T04:38:08.000Z</time>
      </trkpt>
      <trkpt lat="45.21449" lon="5.72422">
        <ele>634.20001220703</ele>
        <time>2021-05-29T04:38:09.000Z</time>
      </trkpt>
      <trkpt lat="45.21452" lon="5.72427">
        <ele>635</ele>
        <time>2021-05-29T04:38:12.000Z</time>
      </trkpt>
      <trkpt lat="45.21454" lon="5.72428">
        <ele>635.40002441406</ele>
        <time>2021-05-29T04:38:14.000Z</time>
      </trkpt>
      <trkpt lat="45.21455" lon="5.72429">
        <ele>635.59997558594</ele>
        <time>2021-05-29T04:38:15.000Z</time>
      </trkpt>
      <trkpt lat="45.21462" lon="5.72432">
        <ele>636.40002441406</ele>
        <time>2021-05-29T04:38:20.000Z</time>
      </trkpt>
      <trkpt lat="45.21464" lon="5.72434">
        <ele>636.59997558594</ele>
        <time>2021-05-29T04:38:21.000Z</time>
      </trkpt>
      <trkpt lat="45.2147" lon="5.72437">
        <ele>637.40002441406</ele>
        <time>2021-05-29T04:38:25.000Z</time>
      </trkpt>
      <trkpt lat="45.21472" lon="5.72439">
        <ele>637.59997558594</ele>
        <time>2021-05-29T04:38:26.000Z</time>
      </trkpt>
      <trkpt lat="45.21481" lon="5.72445">
        <ele>638.20001220703</ele>
        <time>2021-05-29T04:38:31.000Z</time>
      </trkpt>
      <trkpt lat="45.21491" lon="5.72451">
        <ele>637.40002441406</ele>
        <time>2021-05-29T04:38:36.000Z</time>
      </trkpt>
      <trkpt lat="45.21494" lon="5.72452">
        <ele>637.20001220703</ele>
        <time>2021-05-29T04:38:38.000Z</time>
      </trkpt>
      <trkpt lat="45.21496" lon="5.72453">
        <ele>637</ele>
        <time>2021-05-29T04:38:39.000Z</time>
      </trkpt>
      <trkpt lat="45.215" lon="5.72454">
        <ele>637</ele>
        <time>2021-05-29T04:38:41.000Z</time>
      </trkpt>
      <trkpt lat="45.21505" lon="5.72458">
        <ele>636.40002441406</ele>
        <time>2021-05-29T04:38:44.000Z</time>
      </trkpt>
      <trkpt lat="45.21511" lon="5.72463">
        <ele>635.79998779297</ele>
        <time>2021-05-29T04:38:47.000Z</time>
      </trkpt>
      <trkpt lat="45.21514" lon="5.72464">
        <ele>635.59997558594</ele>
        <time>2021-05-29T04:38:48.000Z</time>
      </trkpt>
      <trkpt lat="45.21523" lon="5.72472">
        <ele>635.59997558594</ele>
        <time>2021-05-29T04:38:54.000Z</time>
      </trkpt>
      <trkpt lat="45.21533" lon="5.72478">
        <ele>635.20001220703</ele>
        <time>2021-05-29T04:38:59.000Z</time>
      </trkpt>
      <trkpt lat="45.21537" lon="5.72478">
        <ele>635.20001220703</ele>
        <time>2021-05-29T04:39:01.000Z</time>
      </trkpt>
      <trkpt lat="45.21539" lon="5.72478">
        <ele>635.20001220703</ele>
        <time>2021-05-29T04:39:02.000Z</time>
      </trkpt>
      <trkpt lat="45.21543" lon="5.72478">
        <ele>635.20001220703</ele>
        <time>2021-05-29T04:39:04.000Z</time>
      </trkpt>
      <trkpt lat="45.21544" lon="5.72478">
        <ele>635.20001220703</ele>
        <time>2021-05-29T04:39:05.000Z</time>
      </trkpt>
      <trkpt lat="45.21548" lon="5.7248">
        <ele>635.20001220703</ele>
        <time>2021-05-29T04:39:07.000Z</time>
      </trkpt>
      <trkpt lat="45.21552" lon="5.72482">
        <ele>635.40002441406</ele>
        <time>2021-05-29T04:39:09.000Z</time>
      </trkpt>
      <trkpt lat="45.21553" lon="5.72483">
        <ele>635.40002441406</ele>
        <time>2021-05-29T04:39:10.000Z</time>
      </trkpt>
      <trkpt lat="45.2156" lon="5.72487">
        <ele>635.40002441406</ele>
        <time>2021-05-29T04:39:13.000Z</time>
      </trkpt>
      <trkpt lat="45.21562" lon="5.72489">
        <ele>635.40002441406</ele>
        <time>2021-05-29T04:39:14.000Z</time>
      </trkpt>
      <trkpt lat="45.21567" lon="5.72491">
        <ele>635.59997558594</ele>
        <time>2021-05-29T04:39:16.000Z</time>
      </trkpt>
      <trkpt lat="45.2158" lon="5.72496">
        <ele>636.20001220703</ele>
        <time>2021-05-29T04:39:22.000Z</time>
      </trkpt>
      <trkpt lat="45.21583" lon="5.72497">
        <ele>636.40002441406</ele>
        <time>2021-05-29T04:39:23.000Z</time>
      </trkpt>
      <trkpt lat="45.21585" lon="5.72498">
        <ele>636.40002441406</ele>
        <time>2021-05-29T04:39:24.000Z</time>
      </trkpt>
      <trkpt lat="45.21598" lon="5.72501">
        <ele>637</ele>
        <time>2021-05-29T04:39:30.000Z</time>
      </trkpt>
      <trkpt lat="45.21602" lon="5.72502">
        <ele>637.20001220703</ele>
        <time>2021-05-29T04:39:32.000Z</time>
      </trkpt>
      <trkpt lat="45.21606" lon="5.72506">
        <ele>637.40002441406</ele>
        <time>2021-05-29T04:39:34.000Z</time>
      </trkpt>
      <trkpt lat="45.21608" lon="5.72506">
        <ele>637.59997558594</ele>
        <time>2021-05-29T04:39:35.000Z</time>
      </trkpt>
      <trkpt lat="45.21617" lon="5.72508">
        <ele>638.40002441406</ele>
        <time>2021-05-29T04:39:39.000Z</time>
      </trkpt>
      <trkpt lat="45.21618" lon="5.72508">
        <ele>638.59997558594</ele>
        <time>2021-05-29T04:39:40.000Z</time>
      </trkpt>
      <trkpt lat="45.21623" lon="5.72507">
        <ele>639.40002441406</ele>
        <time>2021-05-29T04:39:43.000Z</time>
      </trkpt>
      <trkpt lat="45.21626" lon="5.72507">
        <ele>640.20001220703</ele>
        <time>2021-05-29T04:39:45.000Z</time>
      </trkpt>
      <trkpt lat="45.21627" lon="5.72507">
        <ele>640.20001220703</ele>
        <time>2021-05-29T04:39:46.000Z</time>
      </trkpt>
      <trkpt lat="45.21631" lon="5.72509">
        <ele>640.59997558594</ele>
        <time>2021-05-29T04:39:48.000Z</time>
      </trkpt>
      <trkpt lat="45.21637" lon="5.72512">
        <ele>641</ele>
        <time>2021-05-29T04:39:51.000Z</time>
      </trkpt>
      <trkpt lat="45.21646" lon="5.72516">
        <ele>641</ele>
        <time>2021-05-29T04:39:55.000Z</time>
      </trkpt>
      <trkpt lat="45.21649" lon="5.72519">
        <ele>641.40002441406</ele>
        <time>2021-05-29T04:39:57.000Z</time>
      </trkpt>
      <trkpt lat="45.21653" lon="5.72521">
        <ele>641.59997558594</ele>
        <time>2021-05-29T04:39:59.000Z</time>
      </trkpt>
      <trkpt lat="45.21666" lon="5.72524">
        <ele>642.40002441406</ele>
        <time>2021-05-29T04:40:05.000Z</time>
      </trkpt>
      <trkpt lat="45.21668" lon="5.72523">
        <ele>642.79998779297</ele>
        <time>2021-05-29T04:40:06.000Z</time>
      </trkpt>
      <trkpt lat="45.21676" lon="5.72523">
        <ele>643.59997558594</ele>
        <time>2021-05-29T04:40:09.000Z</time>
      </trkpt>
      <trkpt lat="45.21695" lon="5.72532">
        <ele>643.79998779297</ele>
        <time>2021-05-29T04:40:17.000Z</time>
      </trkpt>
      <trkpt lat="45.217" lon="5.72534">
        <ele>643.79998779297</ele>
        <time>2021-05-29T04:40:20.000Z</time>
      </trkpt>
      <trkpt lat="45.21706" lon="5.72536">
        <ele>644</ele>
        <time>2021-05-29T04:40:23.000Z</time>
      </trkpt>
      <trkpt lat="45.21715" lon="5.72539">
        <ele>644</ele>
        <time>2021-05-29T04:40:27.000Z</time>
      </trkpt>
      <trkpt lat="45.21719" lon="5.72543">
        <ele>644</ele>
        <time>2021-05-29T04:40:29.000Z</time>
      </trkpt>
      <trkpt lat="45.2173" lon="5.7255">
        <ele>644.40002441406</ele>
        <time>2021-05-29T04:40:35.000Z</time>
      </trkpt>
      <trkpt lat="45.21735" lon="5.72552">
        <ele>644.79998779297</ele>
        <time>2021-05-29T04:40:38.000Z</time>
      </trkpt>
      <trkpt lat="45.21739" lon="5.72554">
        <ele>645</ele>
        <time>2021-05-29T04:40:40.000Z</time>
      </trkpt>
      <trkpt lat="45.2174" lon="5.72555">
        <ele>645</ele>
        <time>2021-05-29T04:40:41.000Z</time>
      </trkpt>
      <trkpt lat="45.21751" lon="5.7256">
        <ele>646.20001220703</ele>
        <time>2021-05-29T04:40:47.000Z</time>
      </trkpt>
      <trkpt lat="45.21755" lon="5.72562">
        <ele>646.59997558594</ele>
        <time>2021-05-29T04:40:49.000Z</time>
      </trkpt>
      <trkpt lat="45.21765" lon="5.72568">
        <ele>647.20001220703</ele>
        <time>2021-05-29T04:40:54.000Z</time>
      </trkpt>
      <trkpt lat="45.21767" lon="5.72569">
        <ele>647.40002441406</ele>
        <time>2021-05-29T04:40:55.000Z</time>
      </trkpt>
      <trkpt lat="45.21772" lon="5.72572">
        <ele>648.20001220703</ele>
        <time>2021-05-29T04:40:58.000Z</time>
      </trkpt>
      <trkpt lat="45.21773" lon="5.72573">
        <ele>648.59997558594</ele>
        <time>2021-05-29T04:40:59.000Z</time>
      </trkpt>
      <trkpt lat="45.21776" lon="5.72574">
        <ele>649.20001220703</ele>
        <time>2021-05-29T04:41:01.000Z</time>
      </trkpt>
      <trkpt lat="45.21779" lon="5.72576">
        <ele>649.20001220703</ele>
        <time>2021-05-29T04:41:03.000Z</time>
      </trkpt>
      <trkpt lat="45.21783" lon="5.72574">
        <ele>649</ele>
        <time>2021-05-29T04:41:06.000Z</time>
      </trkpt>
      <trkpt lat="45.21793" lon="5.72575">
        <ele>647.40002441406</ele>
        <time>2021-05-29T04:41:10.000Z</time>
      </trkpt>
      <trkpt lat="45.21795" lon="5.72575">
        <ele>647.20001220703</ele>
        <time>2021-05-29T04:41:11.000Z</time>
      </trkpt>
      <trkpt lat="45.21797" lon="5.72575">
        <ele>647</ele>
        <time>2021-05-29T04:41:12.000Z</time>
      </trkpt>
      <trkpt lat="45.21799" lon="5.72574">
        <ele>646.40002441406</ele>
        <time>2021-05-29T04:41:13.000Z</time>
      </trkpt>
      <trkpt lat="45.21801" lon="5.72575">
        <ele>646</ele>
        <time>2021-05-29T04:41:14.000Z</time>
      </trkpt>
      <trkpt lat="45.21804" lon="5.72575">
        <ele>645.20001220703</ele>
        <time>2021-05-29T04:41:16.000Z</time>
      </trkpt>
      <trkpt lat="45.21809" lon="5.72575">
        <ele>643.40002441406</ele>
        <time>2021-05-29T04:41:19.000Z</time>
      </trkpt>
      <trkpt lat="45.21815" lon="5.72575">
        <ele>642.20001220703</ele>
        <time>2021-05-29T04:41:22.000Z</time>
      </trkpt>
      <trkpt lat="45.21819" lon="5.72575">
        <ele>641.40002441406</ele>
        <time>2021-05-29T04:41:24.000Z</time>
      </trkpt>
      <trkpt lat="45.21821" lon="5.72576">
        <ele>641.20001220703</ele>
        <time>2021-05-29T04:41:25.000Z</time>
      </trkpt>
      <trkpt lat="45.21823" lon="5.72577">
        <ele>640.79998779297</ele>
        <time>2021-05-29T04:41:26.000Z</time>
      </trkpt>
      <trkpt lat="45.21825" lon="5.72578">
        <ele>640.40002441406</ele>
        <time>2021-05-29T04:41:27.000Z</time>
      </trkpt>
      <trkpt lat="45.21827" lon="5.72579">
        <ele>640</ele>
        <time>2021-05-29T04:41:28.000Z</time>
      </trkpt>
      <trkpt lat="45.21829" lon="5.7258">
        <ele>639.59997558594</ele>
        <time>2021-05-29T04:41:29.000Z</time>
      </trkpt>
      <trkpt lat="45.21839" lon="5.72584">
        <ele>638.20001220703</ele>
        <time>2021-05-29T04:41:34.000Z</time>
      </trkpt>
      <trkpt lat="45.21845" lon="5.72586">
        <ele>637.40002441406</ele>
        <time>2021-05-29T04:41:38.000Z</time>
      </trkpt>
      <trkpt lat="45.21845" lon="5.72587">
        <ele>637.40002441406</ele>
        <time>2021-05-29T04:41:39.000Z</time>
      </trkpt>
      <trkpt lat="45.21845" lon="5.72589">
        <ele>637.59997558594</ele>
        <time>2021-05-29T04:41:41.000Z</time>
      </trkpt>
      <trkpt lat="45.21843" lon="5.72591">
        <ele>638.20001220703</ele>
        <time>2021-05-29T04:41:44.000Z</time>
      </trkpt>
      <trkpt lat="45.21845" lon="5.72592">
        <ele>639.40002441406</ele>
        <time>2021-05-29T04:41:47.000Z</time>
      </trkpt>
      <trkpt lat="45.21845" lon="5.72594">
        <ele>639.79998779297</ele>
        <time>2021-05-29T04:41:49.000Z</time>
      </trkpt>
      <trkpt lat="45.21844" lon="5.72594">
        <ele>640.40002441406</ele>
        <time>2021-05-29T04:41:50.000Z</time>
      </trkpt>
      <trkpt lat="45.21844" lon="5.72595">
        <ele>640.79998779297</ele>
        <time>2021-05-29T04:41:51.000Z</time>
      </trkpt>
      <trkpt lat="45.21844" lon="5.72595">
        <ele>641</ele>
        <time>2021-05-29T04:41:52.000Z</time>
      </trkpt>
      <trkpt lat="45.21843" lon="5.72596">
        <ele>641.20001220703</ele>
        <time>2021-05-29T04:41:53.000Z</time>
      </trkpt>
      <trkpt lat="45.21843" lon="5.72597">
        <ele>641.59997558594</ele>
        <time>2021-05-29T04:41:54.000Z</time>
      </trkpt>
      <trkpt lat="45.21843" lon="5.72599">
        <ele>642.20001220703</ele>
        <time>2021-05-29T04:41:56.000Z</time>
      </trkpt>
      <trkpt lat="45.21842" lon="5.72601">
        <ele>642.79998779297</ele>
        <time>2021-05-29T04:41:58.000Z</time>
      </trkpt>
      <trkpt lat="45.21842" lon="5.72603">
        <ele>643.20001220703</ele>
        <time>2021-05-29T04:41:59.000Z</time>
      </trkpt>
      <trkpt lat="45.21842" lon="5.72604">
        <ele>643.79998779297</ele>
        <time>2021-05-29T04:42:01.000Z</time>
      </trkpt>
      <trkpt lat="45.21843" lon="5.72607">
        <ele>644.79998779297</ele>
        <time>2021-05-29T04:42:03.000Z</time>
      </trkpt>
      <trkpt lat="45.21843" lon="5.72609">
        <ele>645.20001220703</ele>
        <time>2021-05-29T04:42:04.000Z</time>
      </trkpt>
      <trkpt lat="45.21843" lon="5.7261">
        <ele>645.40002441406</ele>
        <time>2021-05-29T04:42:05.000Z</time>
      </trkpt>
      <trkpt lat="45.21842" lon="5.72612">
        <ele>645.40002441406</ele>
        <time>2021-05-29T04:42:06.000Z</time>
      </trkpt>
      <trkpt lat="45.21843" lon="5.72613">
        <ele>646.40002441406</ele>
        <time>2021-05-29T04:42:08.000Z</time>
      </trkpt>
      <trkpt lat="45.21843" lon="5.72617">
        <ele>646.79998779297</ele>
        <time>2021-05-29T04:42:10.000Z</time>
      </trkpt>
      <trkpt lat="45.21843" lon="5.72618">
        <ele>647</ele>
        <time>2021-05-29T04:42:11.000Z</time>
      </trkpt>
      <trkpt lat="45.21844" lon="5.72619">
        <ele>647.59997558594</ele>
        <time>2021-05-29T04:42:12.000Z</time>
      </trkpt>
      <trkpt lat="45.21844" lon="5.7262">
        <ele>647.79998779297</ele>
        <time>2021-05-29T04:42:13.000Z</time>
      </trkpt>
      <trkpt lat="45.21844" lon="5.72622">
        <ele>648.40002441406</ele>
        <time>2021-05-29T04:42:15.000Z</time>
      </trkpt>
      <trkpt lat="45.21844" lon="5.72623">
        <ele>648.79998779297</ele>
        <time>2021-05-29T04:42:16.000Z</time>
      </trkpt>
      <trkpt lat="45.21843" lon="5.72625">
        <ele>649.59997558594</ele>
        <time>2021-05-29T04:42:18.000Z</time>
      </trkpt>
      <trkpt lat="45.21843" lon="5.72626">
        <ele>649.79998779297</ele>
        <time>2021-05-29T04:42:19.000Z</time>
      </trkpt>
      <trkpt lat="45.21844" lon="5.72628">
        <ele>650.20001220703</ele>
        <time>2021-05-29T04:42:20.000Z</time>
      </trkpt>
      <trkpt lat="45.21844" lon="5.72629">
        <ele>650.59997558594</ele>
        <time>2021-05-29T04:42:21.000Z</time>
      </trkpt>
      <trkpt lat="45.21845" lon="5.72632">
        <ele>651</ele>
        <time>2021-05-29T04:42:23.000Z</time>
      </trkpt>
      <trkpt lat="45.21845" lon="5.72633">
        <ele>651.20001220703</ele>
        <time>2021-05-29T04:42:24.000Z</time>
      </trkpt>
      <trkpt lat="45.21847" lon="5.72636">
        <ele>652.20001220703</ele>
        <time>2021-05-29T04:42:27.000Z</time>
      </trkpt>
      <trkpt lat="45.2185" lon="5.72637">
        <ele>653</ele>
        <time>2021-05-29T04:42:31.000Z</time>
      </trkpt>
      <trkpt lat="45.21851" lon="5.72637">
        <ele>653.59997558594</ele>
        <time>2021-05-29T04:42:32.000Z</time>
      </trkpt>
      <trkpt lat="45.21852" lon="5.72637">
        <ele>653.79998779297</ele>
        <time>2021-05-29T04:42:33.000Z</time>
      </trkpt>
      <trkpt lat="45.21852" lon="5.72639">
        <ele>654.40002441406</ele>
        <time>2021-05-29T04:42:35.000Z</time>
      </trkpt>
      <trkpt lat="45.21852" lon="5.72639">
        <ele>654.79998779297</ele>
        <time>2021-05-29T04:42:36.000Z</time>
      </trkpt>
      <trkpt lat="45.21852" lon="5.72639">
        <ele>655.20001220703</ele>
        <time>2021-05-29T04:42:38.000Z</time>
      </trkpt>
      <trkpt lat="45.21852" lon="5.72639">
        <ele>655.79998779297</ele>
        <time>2021-05-29T04:42:40.000Z</time>
      </trkpt>
      <trkpt lat="45.21855" lon="5.7264">
        <ele>656.59997558594</ele>
        <time>2021-05-29T04:42:44.000Z</time>
      </trkpt>
      <trkpt lat="45.21856" lon="5.7264">
        <ele>657.20001220703</ele>
        <time>2021-05-29T04:42:46.000Z</time>
      </trkpt>
      <trkpt lat="45.21857" lon="5.72639">
        <ele>658</ele>
        <time>2021-05-29T04:42:48.000Z</time>
      </trkpt>
      <trkpt lat="45.21857" lon="5.72638">
        <ele>658.40002441406</ele>
        <time>2021-05-29T04:42:49.000Z</time>
      </trkpt>
      <trkpt lat="45.21857" lon="5.72638">
        <ele>658.59997558594</ele>
        <time>2021-05-29T04:42:50.000Z</time>
      </trkpt>
      <trkpt lat="45.21859" lon="5.72634">
        <ele>659.79998779297</ele>
        <time>2021-05-29T04:42:54.000Z</time>
      </trkpt>
      <trkpt lat="45.21859" lon="5.72634">
        <ele>660.20001220703</ele>
        <time>2021-05-29T04:42:55.000Z</time>
      </trkpt>
      <trkpt lat="45.21859" lon="5.72634">
        <ele>660.40002441406</ele>
        <time>2021-05-29T04:42:56.000Z</time>
      </trkpt>
      <trkpt lat="45.2186" lon="5.72634">
        <ele>660.59997558594</ele>
        <time>2021-05-29T04:42:57.000Z</time>
      </trkpt>
      <trkpt lat="45.2186" lon="5.72634">
        <ele>660.79998779297</ele>
        <time>2021-05-29T04:42:58.000Z</time>
      </trkpt>
      <trkpt lat="45.21861" lon="5.72633">
        <ele>661.20001220703</ele>
        <time>2021-05-29T04:42:59.000Z</time>
      </trkpt>
      <trkpt lat="45.21863" lon="5.7263">
        <ele>662.20001220703</ele>
        <time>2021-05-29T04:43:02.000Z</time>
      </trkpt>
      <trkpt lat="45.21865" lon="5.72628">
        <ele>663.20001220703</ele>
        <time>2021-05-29T04:43:05.000Z</time>
      </trkpt>
      <trkpt lat="45.21865" lon="5.72626">
        <ele>664.40002441406</ele>
        <time>2021-05-29T04:43:08.000Z</time>
      </trkpt>
      <trkpt lat="45.21866" lon="5.72626">
        <ele>664.79998779297</ele>
        <time>2021-05-29T04:43:09.000Z</time>
      </trkpt>
      <trkpt lat="45.21867" lon="5.72625">
        <ele>665</ele>
        <time>2021-05-29T04:43:10.000Z</time>
      </trkpt>
      <trkpt lat="45.21868" lon="5.72625">
        <ele>665.40002441406</ele>
        <time>2021-05-29T04:43:11.000Z</time>
      </trkpt>
      <trkpt lat="45.21869" lon="5.72624">
        <ele>665.79998779297</ele>
        <time>2021-05-29T04:43:12.000Z</time>
      </trkpt>
      <trkpt lat="45.21872" lon="5.72622">
        <ele>666.79998779297</ele>
        <time>2021-05-29T04:43:15.000Z</time>
      </trkpt>
      <trkpt lat="45.21873" lon="5.72623">
        <ele>667</ele>
        <time>2021-05-29T04:43:16.000Z</time>
      </trkpt>
      <trkpt lat="45.21874" lon="5.72623">
        <ele>667.20001220703</ele>
        <time>2021-05-29T04:43:17.000Z</time>
      </trkpt>
      <trkpt lat="45.21877" lon="5.72626">
        <ele>668</ele>
        <time>2021-05-29T04:43:20.000Z</time>
      </trkpt>
      <trkpt lat="45.21879" lon="5.72626">
        <ele>668.20001220703</ele>
        <time>2021-05-29T04:43:22.000Z</time>
      </trkpt>
      <trkpt lat="45.21882" lon="5.72627">
        <ele>669</ele>
        <time>2021-05-29T04:43:25.000Z</time>
      </trkpt>
      <trkpt lat="45.21885" lon="5.72629">
        <ele>670.20001220703</ele>
        <time>2021-05-29T04:43:29.000Z</time>
      </trkpt>
      <trkpt lat="45.21889" lon="5.72631">
        <ele>671.20001220703</ele>
        <time>2021-05-29T04:43:33.000Z</time>
      </trkpt>
      <trkpt lat="45.2189" lon="5.72633">
        <ele>671.79998779297</ele>
        <time>2021-05-29T04:43:35.000Z</time>
      </trkpt>
      <trkpt lat="45.21891" lon="5.72634">
        <ele>672.40002441406</ele>
        <time>2021-05-29T04:43:37.000Z</time>
      </trkpt>
      <trkpt lat="45.21892" lon="5.72634">
        <ele>672.40002441406</ele>
        <time>2021-05-29T04:43:38.000Z</time>
      </trkpt>
      <trkpt lat="45.21894" lon="5.72636">
        <ele>673.40002441406</ele>
        <time>2021-05-29T04:43:41.000Z</time>
      </trkpt>
      <trkpt lat="45.21898" lon="5.72638">
        <ele>674.40002441406</ele>
        <time>2021-05-29T04:43:44.000Z</time>
      </trkpt>
      <trkpt lat="45.21899" lon="5.72639">
        <ele>674.59997558594</ele>
        <time>2021-05-29T04:43:45.000Z</time>
      </trkpt>
      <trkpt lat="45.21901" lon="5.72641">
        <ele>675.40002441406</ele>
        <time>2021-05-29T04:43:48.000Z</time>
      </trkpt>
      <trkpt lat="45.21902" lon="5.72642">
        <ele>675.59997558594</ele>
        <time>2021-05-29T04:43:49.000Z</time>
      </trkpt>
      <trkpt lat="45.21904" lon="5.72647">
        <ele>677</ele>
        <time>2021-05-29T04:43:53.000Z</time>
      </trkpt>
      <trkpt lat="45.21907" lon="5.7265">
        <ele>677.79998779297</ele>
        <time>2021-05-29T04:43:57.000Z</time>
      </trkpt>
      <trkpt lat="45.21908" lon="5.72651">
        <ele>678</ele>
        <time>2021-05-29T04:43:58.000Z</time>
      </trkpt>
      <trkpt lat="45.2191" lon="5.72653">
        <ele>679.20001220703</ele>
        <time>2021-05-29T04:44:01.000Z</time>
      </trkpt>
      <trkpt lat="45.21911" lon="5.72654">
        <ele>679.79998779297</ele>
        <time>2021-05-29T04:44:03.000Z</time>
      </trkpt>
      <trkpt lat="45.21913" lon="5.72656">
        <ele>680.20001220703</ele>
        <time>2021-05-29T04:44:05.000Z</time>
      </trkpt>
      <trkpt lat="45.21913" lon="5.72656">
        <ele>680.40002441406</ele>
        <time>2021-05-29T04:44:06.000Z</time>
      </trkpt>
      <trkpt lat="45.21915" lon="5.72656">
        <ele>681.59997558594</ele>
        <time>2021-05-29T04:44:08.000Z</time>
      </trkpt>
      <trkpt lat="45.21917" lon="5.72657">
        <ele>682.20001220703</ele>
        <time>2021-05-29T04:44:11.000Z</time>
      </trkpt>
      <trkpt lat="45.21918" lon="5.72658">
        <ele>682.59997558594</ele>
        <time>2021-05-29T04:44:12.000Z</time>
      </trkpt>
      <trkpt lat="45.2192" lon="5.72659">
        <ele>683.79998779297</ele>
        <time>2021-05-29T04:44:16.000Z</time>
      </trkpt>
      <trkpt lat="45.2192" lon="5.72659">
        <ele>684.40002441406</ele>
        <time>2021-05-29T04:44:17.000Z</time>
      </trkpt>
      <trkpt lat="45.21921" lon="5.7266">
        <ele>684.79998779297</ele>
        <time>2021-05-29T04:44:18.000Z</time>
      </trkpt>
      <trkpt lat="45.21921" lon="5.72661">
        <ele>685</ele>
        <time>2021-05-29T04:44:19.000Z</time>
      </trkpt>
      <trkpt lat="45.21926" lon="5.72664">
        <ele>685.79998779297</ele>
        <time>2021-05-29T04:44:23.000Z</time>
      </trkpt>
      <trkpt lat="45.2193" lon="5.72667">
        <ele>686.40002441406</ele>
        <time>2021-05-29T04:44:26.000Z</time>
      </trkpt>
      <trkpt lat="45.21931" lon="5.72668">
        <ele>686.59997558594</ele>
        <time>2021-05-29T04:44:27.000Z</time>
      </trkpt>
      <trkpt lat="45.21932" lon="5.72669">
        <ele>686.79998779297</ele>
        <time>2021-05-29T04:44:28.000Z</time>
      </trkpt>
      <trkpt lat="45.21938" lon="5.72674">
        <ele>687.20001220703</ele>
        <time>2021-05-29T04:44:31.000Z</time>
      </trkpt>
      <trkpt lat="45.21947" lon="5.72681">
        <ele>687.59997558594</ele>
        <time>2021-05-29T04:44:36.000Z</time>
      </trkpt>
      <trkpt lat="45.2196" lon="5.72686">
        <ele>686.59997558594</ele>
        <time>2021-05-29T04:44:43.000Z</time>
      </trkpt>
      <trkpt lat="45.21966" lon="5.72687">
        <ele>686.20001220703</ele>
        <time>2021-05-29T04:44:46.000Z</time>
      </trkpt>
      <trkpt lat="45.2197" lon="5.72686">
        <ele>685.79998779297</ele>
        <time>2021-05-29T04:44:48.000Z</time>
      </trkpt>
      <trkpt lat="45.21973" lon="5.72685">
        <ele>685.59997558594</ele>
        <time>2021-05-29T04:44:49.000Z</time>
      </trkpt>
      <trkpt lat="45.21982" lon="5.72688">
        <ele>684.40002441406</ele>
        <time>2021-05-29T04:44:54.000Z</time>
      </trkpt>
      <trkpt lat="45.21985" lon="5.72689">
        <ele>684</ele>
        <time>2021-05-29T04:44:56.000Z</time>
      </trkpt>
      <trkpt lat="45.21991" lon="5.72691">
        <ele>683.40002441406</ele>
        <time>2021-05-29T04:44:58.000Z</time>
      </trkpt>
      <trkpt lat="45.21997" lon="5.72695">
        <ele>682.20001220703</ele>
        <time>2021-05-29T04:45:01.000Z</time>
      </trkpt>
      <trkpt lat="45.21999" lon="5.72697">
        <ele>681.20001220703</ele>
        <time>2021-05-29T04:45:03.000Z</time>
      </trkpt>
      <trkpt lat="45.22" lon="5.727">
        <ele>680.79998779297</ele>
        <time>2021-05-29T04:45:04.000Z</time>
      </trkpt>
      <trkpt lat="45.22001" lon="5.72702">
        <ele>680.40002441406</ele>
        <time>2021-05-29T04:45:05.000Z</time>
      </trkpt>
      <trkpt lat="45.22006" lon="5.72711">
        <ele>679.59997558594</ele>
        <time>2021-05-29T04:45:08.000Z</time>
      </trkpt>
      <trkpt lat="45.22007" lon="5.72713">
        <ele>679.20001220703</ele>
        <time>2021-05-29T04:45:09.000Z</time>
      </trkpt>
      <trkpt lat="45.22011" lon="5.72717">
        <ele>678.20001220703</ele>
        <time>2021-05-29T04:45:11.000Z</time>
      </trkpt>
      <trkpt lat="45.22016" lon="5.72722">
        <ele>677.20001220703</ele>
        <time>2021-05-29T04:45:14.000Z</time>
      </trkpt>
      <trkpt lat="45.22018" lon="5.72724">
        <ele>677</ele>
        <time>2021-05-29T04:45:15.000Z</time>
      </trkpt>
      <trkpt lat="45.22027" lon="5.72728">
        <ele>675.79998779297</ele>
        <time>2021-05-29T04:45:20.000Z</time>
      </trkpt>
      <trkpt lat="45.22029" lon="5.72729">
        <ele>675.59997558594</ele>
        <time>2021-05-29T04:45:21.000Z</time>
      </trkpt>
      <trkpt lat="45.22035" lon="5.72735">
        <ele>675</ele>
        <time>2021-05-29T04:45:24.000Z</time>
      </trkpt>
      <trkpt lat="45.22039" lon="5.72737">
        <ele>674.79998779297</ele>
        <time>2021-05-29T04:45:26.000Z</time>
      </trkpt>
      <trkpt lat="45.22044" lon="5.7274">
        <ele>674.79998779297</ele>
        <time>2021-05-29T04:45:29.000Z</time>
      </trkpt>
      <trkpt lat="45.22049" lon="5.72744">
        <ele>675.79998779297</ele>
        <time>2021-05-29T04:45:33.000Z</time>
      </trkpt>
      <trkpt lat="45.2205" lon="5.72744">
        <ele>676</ele>
        <time>2021-05-29T04:45:34.000Z</time>
      </trkpt>
      <trkpt lat="45.22055" lon="5.72743">
        <ele>676.79998779297</ele>
        <time>2021-05-29T04:45:37.000Z</time>
      </trkpt>
      <trkpt lat="45.22057" lon="5.72743">
        <ele>677</ele>
        <time>2021-05-29T04:45:38.000Z</time>
      </trkpt>
      <trkpt lat="45.22063" lon="5.72744">
        <ele>677.59997558594</ele>
        <time>2021-05-29T04:45:40.000Z</time>
      </trkpt>
      <trkpt lat="45.22065" lon="5.72745">
        <ele>677.79998779297</ele>
        <time>2021-05-29T04:45:41.000Z</time>
      </trkpt>
      <trkpt lat="45.22069" lon="5.72748">
        <ele>678</ele>
        <time>2021-05-29T04:45:43.000Z</time>
      </trkpt>
      <trkpt lat="45.2207" lon="5.7275">
        <ele>678.40002441406</ele>
        <time>2021-05-29T04:45:44.000Z</time>
      </trkpt>
      <trkpt lat="45.22075" lon="5.72753">
        <ele>679.20001220703</ele>
        <time>2021-05-29T04:45:47.000Z</time>
      </trkpt>
      <trkpt lat="45.22077" lon="5.72754">
        <ele>679.40002441406</ele>
        <time>2021-05-29T04:45:48.000Z</time>
      </trkpt>
      <trkpt lat="45.22084" lon="5.72755">
        <ele>680.59997558594</ele>
        <time>2021-05-29T04:45:52.000Z</time>
      </trkpt>
      <trkpt lat="45.22085" lon="5.72755">
        <ele>680.79998779297</ele>
        <time>2021-05-29T04:45:53.000Z</time>
      </trkpt>
      <trkpt lat="45.22087" lon="5.72755">
        <ele>681.20001220703</ele>
        <time>2021-05-29T04:45:54.000Z</time>
      </trkpt>
      <trkpt lat="45.22088" lon="5.72754">
        <ele>681.59997558594</ele>
        <time>2021-05-29T04:45:55.000Z</time>
      </trkpt>
      <trkpt lat="45.2209" lon="5.72753">
        <ele>682.20001220703</ele>
        <time>2021-05-29T04:45:57.000Z</time>
      </trkpt>
      <trkpt lat="45.22092" lon="5.72753">
        <ele>682.59997558594</ele>
        <time>2021-05-29T04:45:58.000Z</time>
      </trkpt>
      <trkpt lat="45.22099" lon="5.72758">
        <ele>683.40002441406</ele>
        <time>2021-05-29T04:46:03.000Z</time>
      </trkpt>
      <trkpt lat="45.22101" lon="5.72761">
        <ele>683.20001220703</ele>
        <time>2021-05-29T04:46:04.000Z</time>
      </trkpt>
      <trkpt lat="45.22103" lon="5.72763">
        <ele>683.20001220703</ele>
        <time>2021-05-29T04:46:05.000Z</time>
      </trkpt>
      <trkpt lat="45.22106" lon="5.72765">
        <ele>683</ele>
        <time>2021-05-29T04:46:07.000Z</time>
      </trkpt>
      <trkpt lat="45.2211" lon="5.72763">
        <ele>682.40002441406</ele>
        <time>2021-05-29T04:46:10.000Z</time>
      </trkpt>
      <trkpt lat="45.22111" lon="5.72763">
        <ele>682.40002441406</ele>
        <time>2021-05-29T04:46:11.000Z</time>
      </trkpt>
      <trkpt lat="45.22113" lon="5.72763">
        <ele>682</ele>
        <time>2021-05-29T04:46:12.000Z</time>
      </trkpt>
      <trkpt lat="45.22115" lon="5.72763">
        <ele>681.59997558594</ele>
        <time>2021-05-29T04:46:14.000Z</time>
      </trkpt>
      <trkpt lat="45.22116" lon="5.72764">
        <ele>681</ele>
        <time>2021-05-29T04:46:15.000Z</time>
      </trkpt>
      <trkpt lat="45.22117" lon="5.72764">
        <ele>680.79998779297</ele>
        <time>2021-05-29T04:46:16.000Z</time>
      </trkpt>
      <trkpt lat="45.22119" lon="5.72764">
        <ele>680</ele>
        <time>2021-05-29T04:46:19.000Z</time>
      </trkpt>
      <trkpt lat="45.2212" lon="5.72762">
        <ele>678.79998779297</ele>
        <time>2021-05-29T04:46:22.000Z</time>
      </trkpt>
      <trkpt lat="45.22121" lon="5.72762">
        <ele>678.40002441406</ele>
        <time>2021-05-29T04:46:23.000Z</time>
      </trkpt>
      <trkpt lat="45.22123" lon="5.72761">
        <ele>678</ele>
        <time>2021-05-29T04:46:24.000Z</time>
      </trkpt>
      <trkpt lat="45.22124" lon="5.72761">
        <ele>677.59997558594</ele>
        <time>2021-05-29T04:46:25.000Z</time>
      </trkpt>
      <trkpt lat="45.22125" lon="5.72759">
        <ele>676.59997558594</ele>
        <time>2021-05-29T04:46:27.000Z</time>
      </trkpt>
      <trkpt lat="45.22128" lon="5.72758">
        <ele>675.59997558594</ele>
        <time>2021-05-29T04:46:29.000Z</time>
      </trkpt>
      <trkpt lat="45.22129" lon="5.72757">
        <ele>675.20001220703</ele>
        <time>2021-05-29T04:46:30.000Z</time>
      </trkpt>
      <trkpt lat="45.22132" lon="5.72756">
        <ele>674.40002441406</ele>
        <time>2021-05-29T04:46:32.000Z</time>
      </trkpt>
      <trkpt lat="45.22132" lon="5.72756">
        <ele>674</ele>
        <time>2021-05-29T04:46:33.000Z</time>
      </trkpt>
      <trkpt lat="45.22135" lon="5.72753">
        <ele>673.20001220703</ele>
        <time>2021-05-29T04:46:36.000Z</time>
      </trkpt>
      <trkpt lat="45.22135" lon="5.72753">
        <ele>672.79998779297</ele>
        <time>2021-05-29T04:46:37.000Z</time>
      </trkpt>
      <trkpt lat="45.22137" lon="5.72752">
        <ele>671.20001220703</ele>
        <time>2021-05-29T04:46:39.000Z</time>
      </trkpt>
      <trkpt lat="45.2214" lon="5.72751">
        <ele>670</ele>
        <time>2021-05-29T04:46:41.000Z</time>
      </trkpt>
      <trkpt lat="45.22144" lon="5.72747">
        <ele>669</ele>
        <time>2021-05-29T04:46:44.000Z</time>
      </trkpt>
      <trkpt lat="45.22144" lon="5.72746">
        <ele>668.40002441406</ele>
        <time>2021-05-29T04:46:45.000Z</time>
      </trkpt>
      <trkpt lat="45.22144" lon="5.72745">
        <ele>668</ele>
        <time>2021-05-29T04:46:46.000Z</time>
      </trkpt>
      <trkpt lat="45.22146" lon="5.72743">
        <ele>667.20001220703</ele>
        <time>2021-05-29T04:46:48.000Z</time>
      </trkpt>
      <trkpt lat="45.22147" lon="5.7274">
        <ele>666.79998779297</ele>
        <time>2021-05-29T04:46:49.000Z</time>
      </trkpt>
      <trkpt lat="45.22151" lon="5.72733">
        <ele>666</ele>
        <time>2021-05-29T04:46:52.000Z</time>
      </trkpt>
      <trkpt lat="45.22153" lon="5.72731">
        <ele>666</ele>
        <time>2021-05-29T04:46:53.000Z</time>
      </trkpt>
      <trkpt lat="45.22158" lon="5.7273">
        <ele>666</ele>
        <time>2021-05-29T04:46:55.000Z</time>
      </trkpt>
      <trkpt lat="45.22161" lon="5.72727">
        <ele>666.20001220703</ele>
        <time>2021-05-29T04:46:57.000Z</time>
      </trkpt>
      <trkpt lat="45.22164" lon="5.72726">
        <ele>667</ele>
        <time>2021-05-29T04:46:59.000Z</time>
      </trkpt>
      <trkpt lat="45.22166" lon="5.72724">
        <ele>667.20001220703</ele>
        <time>2021-05-29T04:47:00.000Z</time>
      </trkpt>
      <trkpt lat="45.22167" lon="5.72723">
        <ele>667.20001220703</ele>
        <time>2021-05-29T04:47:01.000Z</time>
      </trkpt>
      <trkpt lat="45.22168" lon="5.72721">
        <ele>667.59997558594</ele>
        <time>2021-05-29T04:47:02.000Z</time>
      </trkpt>
      <trkpt lat="45.22174" lon="5.72712">
        <ele>668.40002441406</ele>
        <time>2021-05-29T04:47:06.000Z</time>
      </trkpt>
      <trkpt lat="45.22176" lon="5.72711">
        <ele>668.59997558594</ele>
        <time>2021-05-29T04:47:07.000Z</time>
      </trkpt>
      <trkpt lat="45.22182" lon="5.72706">
        <ele>668.79998779297</ele>
        <time>2021-05-29T04:47:10.000Z</time>
      </trkpt>
      <trkpt lat="45.22185" lon="5.72706">
        <ele>668.79998779297</ele>
        <time>2021-05-29T04:47:11.000Z</time>
      </trkpt>
      <trkpt lat="45.2219" lon="5.72707">
        <ele>668.79998779297</ele>
        <time>2021-05-29T04:47:13.000Z</time>
      </trkpt>
      <trkpt lat="45.22195" lon="5.72709">
        <ele>668.79998779297</ele>
        <time>2021-05-29T04:47:15.000Z</time>
      </trkpt>
      <trkpt lat="45.222" lon="5.7271">
        <ele>668.59997558594</ele>
        <time>2021-05-29T04:47:17.000Z</time>
      </trkpt>
      <trkpt lat="45.22207" lon="5.72711">
        <ele>668.59997558594</ele>
        <time>2021-05-29T04:47:20.000Z</time>
      </trkpt>
      <trkpt lat="45.2221" lon="5.72715">
        <ele>668.59997558594</ele>
        <time>2021-05-29T04:47:22.000Z</time>
      </trkpt>
      <trkpt lat="45.22214" lon="5.72718">
        <ele>668.59997558594</ele>
        <time>2021-05-29T04:47:24.000Z</time>
      </trkpt>
      <trkpt lat="45.22219" lon="5.7272">
        <ele>668.59997558594</ele>
        <time>2021-05-29T04:47:27.000Z</time>
      </trkpt>
      <trkpt lat="45.22222" lon="5.72722">
        <ele>668.40002441406</ele>
        <time>2021-05-29T04:47:29.000Z</time>
      </trkpt>
      <trkpt lat="45.22228" lon="5.72722">
        <ele>668.20001220703</ele>
        <time>2021-05-29T04:47:32.000Z</time>
      </trkpt>
      <trkpt lat="45.2223" lon="5.72721">
        <ele>668.20001220703</ele>
        <time>2021-05-29T04:47:33.000Z</time>
      </trkpt>
      <trkpt lat="45.22238" lon="5.7272">
        <ele>668.20001220703</ele>
        <time>2021-05-29T04:47:37.000Z</time>
      </trkpt>
      <trkpt lat="45.22239" lon="5.7272">
        <ele>668.20001220703</ele>
        <time>2021-05-29T04:47:38.000Z</time>
      </trkpt>
      <trkpt lat="45.22244" lon="5.72723">
        <ele>668.79998779297</ele>
        <time>2021-05-29T04:47:41.000Z</time>
      </trkpt>
      <trkpt lat="45.22248" lon="5.72727">
        <ele>669.20001220703</ele>
        <time>2021-05-29T04:47:43.000Z</time>
      </trkpt>
      <trkpt lat="45.22254" lon="5.72729">
        <ele>669.40002441406</ele>
        <time>2021-05-29T04:47:46.000Z</time>
      </trkpt>
      <trkpt lat="45.22259" lon="5.72731">
        <ele>669.40002441406</ele>
        <time>2021-05-29T04:47:48.000Z</time>
      </trkpt>
      <trkpt lat="45.22262" lon="5.72734">
        <ele>669.79998779297</ele>
        <time>2021-05-29T04:47:50.000Z</time>
      </trkpt>
      <trkpt lat="45.22265" lon="5.72735">
        <ele>669.79998779297</ele>
        <time>2021-05-29T04:47:51.000Z</time>
      </trkpt>
      <trkpt lat="45.22269" lon="5.72736">
        <ele>670.20001220703</ele>
        <time>2021-05-29T04:47:53.000Z</time>
      </trkpt>
      <trkpt lat="45.22271" lon="5.72738">
        <ele>670.40002441406</ele>
        <time>2021-05-29T04:47:54.000Z</time>
      </trkpt>
      <trkpt lat="45.2228" lon="5.72743">
        <ele>671.20001220703</ele>
        <time>2021-05-29T04:47:59.000Z</time>
      </trkpt>
      <trkpt lat="45.22282" lon="5.72744">
        <ele>671.20001220703</ele>
        <time>2021-05-29T04:48:00.000Z</time>
      </trkpt>
      <trkpt lat="45.22288" lon="5.72745">
        <ele>670.79998779297</ele>
        <time>2021-05-29T04:48:04.000Z</time>
      </trkpt>
      <trkpt lat="45.22291" lon="5.72742">
        <ele>670.20001220703</ele>
        <time>2021-05-29T04:48:06.000Z</time>
      </trkpt>
      <trkpt lat="45.22292" lon="5.72741">
        <ele>669.59997558594</ele>
        <time>2021-05-29T04:48:07.000Z</time>
      </trkpt>
      <trkpt lat="45.22294" lon="5.72741">
        <ele>669.20001220703</ele>
        <time>2021-05-29T04:48:08.000Z</time>
      </trkpt>
      <trkpt lat="45.22296" lon="5.72741">
        <ele>669</ele>
        <time>2021-05-29T04:48:09.000Z</time>
      </trkpt>
      <trkpt lat="45.22301" lon="5.72742">
        <ele>668.59997558594</ele>
        <time>2021-05-29T04:48:11.000Z</time>
      </trkpt>
      <trkpt lat="45.22307" lon="5.72744">
        <ele>668</ele>
        <time>2021-05-29T04:48:14.000Z</time>
      </trkpt>
      <trkpt lat="45.22312" lon="5.72746">
        <ele>667.59997558594</ele>
        <time>2021-05-29T04:48:17.000Z</time>
      </trkpt>
      <trkpt lat="45.22314" lon="5.72747">
        <ele>667.40002441406</ele>
        <time>2021-05-29T04:48:18.000Z</time>
      </trkpt>
      <trkpt lat="45.22317" lon="5.72747">
        <ele>667</ele>
        <time>2021-05-29T04:48:20.000Z</time>
      </trkpt>
      <trkpt lat="45.22319" lon="5.72747">
        <ele>666.59997558594</ele>
        <time>2021-05-29T04:48:21.000Z</time>
      </trkpt>
      <trkpt lat="45.22322" lon="5.72748">
        <ele>665.79998779297</ele>
        <time>2021-05-29T04:48:23.000Z</time>
      </trkpt>
      <trkpt lat="45.22324" lon="5.72748">
        <ele>665.59997558594</ele>
        <time>2021-05-29T04:48:24.000Z</time>
      </trkpt>
      <trkpt lat="45.22326" lon="5.72749">
        <ele>665.40002441406</ele>
        <time>2021-05-29T04:48:25.000Z</time>
      </trkpt>
      <trkpt lat="45.22327" lon="5.72749">
        <ele>665.40002441406</ele>
        <time>2021-05-29T04:48:26.000Z</time>
      </trkpt>
      <trkpt lat="45.22333" lon="5.72749">
        <ele>665.20001220703</ele>
        <time>2021-05-29T04:48:29.000Z</time>
      </trkpt>
      <trkpt lat="45.22335" lon="5.72749">
        <ele>665.20001220703</ele>
        <time>2021-05-29T04:48:30.000Z</time>
      </trkpt>
      <trkpt lat="45.22346" lon="5.7275">
        <ele>664.79998779297</ele>
        <time>2021-05-29T04:48:35.000Z</time>
      </trkpt>
      <trkpt lat="45.22348" lon="5.7275">
        <ele>664.79998779297</ele>
        <time>2021-05-29T04:48:36.000Z</time>
      </trkpt>
      <trkpt lat="45.22358" lon="5.72754">
        <ele>665.20001220703</ele>
        <time>2021-05-29T04:48:40.000Z</time>
      </trkpt>
      <trkpt lat="45.22369" lon="5.72755">
        <ele>666.20001220703</ele>
        <time>2021-05-29T04:48:45.000Z</time>
      </trkpt>
      <trkpt lat="45.22374" lon="5.72756">
        <ele>666</ele>
        <time>2021-05-29T04:48:47.000Z</time>
      </trkpt>
      <trkpt lat="45.22377" lon="5.72758">
        <ele>666</ele>
        <time>2021-05-29T04:48:49.000Z</time>
      </trkpt>
      <trkpt lat="45.2238" lon="5.72759">
        <ele>665.79998779297</ele>
        <time>2021-05-29T04:48:51.000Z</time>
      </trkpt>
      <trkpt lat="45.22384" lon="5.72759">
        <ele>665.40002441406</ele>
        <time>2021-05-29T04:48:53.000Z</time>
      </trkpt>
      <trkpt lat="45.22387" lon="5.72761">
        <ele>665.20001220703</ele>
        <time>2021-05-29T04:48:54.000Z</time>
      </trkpt>
      <trkpt lat="45.2239" lon="5.72764">
        <ele>664.59997558594</ele>
        <time>2021-05-29T04:48:56.000Z</time>
      </trkpt>
      <trkpt lat="45.22393" lon="5.72763">
        <ele>664.20001220703</ele>
        <time>2021-05-29T04:48:57.000Z</time>
      </trkpt>
      <trkpt lat="45.22399" lon="5.72758">
        <ele>663</ele>
        <time>2021-05-29T04:49:00.000Z</time>
      </trkpt>
      <trkpt lat="45.22403" lon="5.72754">
        <ele>662</ele>
        <time>2021-05-29T04:49:03.000Z</time>
      </trkpt>
      <trkpt lat="45.22406" lon="5.72752">
        <ele>661.40002441406</ele>
        <time>2021-05-29T04:49:05.000Z</time>
      </trkpt>
      <trkpt lat="45.22408" lon="5.72752">
        <ele>660.59997558594</ele>
        <time>2021-05-29T04:49:06.000Z</time>
      </trkpt>
      <trkpt lat="45.22412" lon="5.72753">
        <ele>659.79998779297</ele>
        <time>2021-05-29T04:49:08.000Z</time>
      </trkpt>
      <trkpt lat="45.22414" lon="5.72753">
        <ele>659.40002441406</ele>
        <time>2021-05-29T04:49:09.000Z</time>
      </trkpt>
      <trkpt lat="45.22418" lon="5.7275">
        <ele>658.20001220703</ele>
        <time>2021-05-29T04:49:12.000Z</time>
      </trkpt>
      <trkpt lat="45.22423" lon="5.7275">
        <ele>658</ele>
        <time>2021-05-29T04:49:13.000Z</time>
      </trkpt>
      <trkpt lat="45.22425" lon="5.72752">
        <ele>657.59997558594</ele>
        <time>2021-05-29T04:49:15.000Z</time>
      </trkpt>
      <trkpt lat="45.2243" lon="5.72755">
        <ele>657.20001220703</ele>
        <time>2021-05-29T04:49:17.000Z</time>
      </trkpt>
      <trkpt lat="45.22437" lon="5.72759">
        <ele>656.79998779297</ele>
        <time>2021-05-29T04:49:20.000Z</time>
      </trkpt>
      <trkpt lat="45.22445" lon="5.72765">
        <ele>656.40002441406</ele>
        <time>2021-05-29T04:49:24.000Z</time>
      </trkpt>
      <trkpt lat="45.22447" lon="5.72766">
        <ele>656.40002441406</ele>
        <time>2021-05-29T04:49:25.000Z</time>
      </trkpt>
      <trkpt lat="45.22453" lon="5.7277">
        <ele>656.20001220703</ele>
        <time>2021-05-29T04:49:28.000Z</time>
      </trkpt>
      <trkpt lat="45.2246" lon="5.72775">
        <ele>656.79998779297</ele>
        <time>2021-05-29T04:49:31.000Z</time>
      </trkpt>
      <trkpt lat="45.22463" lon="5.72776">
        <ele>657.20001220703</ele>
        <time>2021-05-29T04:49:33.000Z</time>
      </trkpt>
      <trkpt lat="45.22465" lon="5.72778">
        <ele>657.79998779297</ele>
        <time>2021-05-29T04:49:36.000Z</time>
      </trkpt>
      <trkpt lat="45.22466" lon="5.72778">
        <ele>657.79998779297</ele>
        <time>2021-05-29T04:49:37.000Z</time>
      </trkpt>
      <trkpt lat="45.2247" lon="5.7278">
        <ele>658</ele>
        <time>2021-05-29T04:49:40.000Z</time>
      </trkpt>
      <trkpt lat="45.22474" lon="5.72781">
        <ele>658</ele>
        <time>2021-05-29T04:49:42.000Z</time>
      </trkpt>
      <trkpt lat="45.22476" lon="5.72778">
        <ele>658</ele>
        <time>2021-05-29T04:49:44.000Z</time>
      </trkpt>
      <trkpt lat="45.22478" lon="5.72775">
        <ele>658</ele>
        <time>2021-05-29T04:49:45.000Z</time>
      </trkpt>
      <trkpt lat="45.22479" lon="5.72772">
        <ele>658</ele>
        <time>2021-05-29T04:49:46.000Z</time>
      </trkpt>
      <trkpt lat="45.2248" lon="5.72769">
        <ele>658.20001220703</ele>
        <time>2021-05-29T04:49:47.000Z</time>
      </trkpt>
      <trkpt lat="45.22482" lon="5.72767">
        <ele>658.20001220703</ele>
        <time>2021-05-29T04:49:48.000Z</time>
      </trkpt>
      <trkpt lat="45.22485" lon="5.72758">
        <ele>658</ele>
        <time>2021-05-29T04:49:51.000Z</time>
      </trkpt>
      <trkpt lat="45.22488" lon="5.72754">
        <ele>658</ele>
        <time>2021-05-29T04:49:53.000Z</time>
      </trkpt>
      <trkpt lat="45.22491" lon="5.72749">
        <ele>658</ele>
        <time>2021-05-29T04:49:55.000Z</time>
      </trkpt>
      <trkpt lat="45.22493" lon="5.72747">
        <ele>657.79998779297</ele>
        <time>2021-05-29T04:49:56.000Z</time>
      </trkpt>
      <trkpt lat="45.22497" lon="5.72746">
        <ele>657.59997558594</ele>
        <time>2021-05-29T04:49:59.000Z</time>
      </trkpt>
      <trkpt lat="45.22498" lon="5.72746">
        <ele>657.40002441406</ele>
        <time>2021-05-29T04:50:00.000Z</time>
      </trkpt>
      <trkpt lat="45.22501" lon="5.72743">
        <ele>656.20001220703</ele>
        <time>2021-05-29T04:50:03.000Z</time>
      </trkpt>
      <trkpt lat="45.22502" lon="5.72741">
        <ele>655.79998779297</ele>
        <time>2021-05-29T04:50:04.000Z</time>
      </trkpt>
      <trkpt lat="45.22503" lon="5.72741">
        <ele>655.79998779297</ele>
        <time>2021-05-29T04:50:05.000Z</time>
      </trkpt>
      <trkpt lat="45.22507" lon="5.7274">
        <ele>655</ele>
        <time>2021-05-29T04:50:07.000Z</time>
      </trkpt>
      <trkpt lat="45.2251" lon="5.72738">
        <ele>654.40002441406</ele>
        <time>2021-05-29T04:50:09.000Z</time>
      </trkpt>
      <trkpt lat="45.22514" lon="5.72737">
        <ele>653.59997558594</ele>
        <time>2021-05-29T04:50:11.000Z</time>
      </trkpt>
      <trkpt lat="45.22516" lon="5.72736">
        <ele>652.59997558594</ele>
        <time>2021-05-29T04:50:13.000Z</time>
      </trkpt>
      <trkpt lat="45.22519" lon="5.72735">
        <ele>651.79998779297</ele>
        <time>2021-05-29T04:50:15.000Z</time>
      </trkpt>
      <trkpt lat="45.22521" lon="5.72735">
        <ele>651.40002441406</ele>
        <time>2021-05-29T04:50:16.000Z</time>
      </trkpt>
      <trkpt lat="45.22523" lon="5.72735">
        <ele>651.20001220703</ele>
        <time>2021-05-29T04:50:17.000Z</time>
      </trkpt>
      <trkpt lat="45.22527" lon="5.72737">
        <ele>650</ele>
        <time>2021-05-29T04:50:19.000Z</time>
      </trkpt>
      <trkpt lat="45.2253" lon="5.72736">
        <ele>648.79998779297</ele>
        <time>2021-05-29T04:50:21.000Z</time>
      </trkpt>
      <trkpt lat="45.22532" lon="5.72734">
        <ele>647.59997558594</ele>
        <time>2021-05-29T04:50:23.000Z</time>
      </trkpt>
      <trkpt lat="45.22535" lon="5.72733">
        <ele>647.20001220703</ele>
        <time>2021-05-29T04:50:24.000Z</time>
      </trkpt>
      <trkpt lat="45.22537" lon="5.72731">
        <ele>646.40002441406</ele>
        <time>2021-05-29T04:50:26.000Z</time>
      </trkpt>
      <trkpt lat="45.22539" lon="5.7273">
        <ele>646.20001220703</ele>
        <time>2021-05-29T04:50:27.000Z</time>
      </trkpt>
      <trkpt lat="45.22542" lon="5.72728">
        <ele>645.20001220703</ele>
        <time>2021-05-29T04:50:29.000Z</time>
      </trkpt>
      <trkpt lat="45.22544" lon="5.72726">
        <ele>644.20001220703</ele>
        <time>2021-05-29T04:50:31.000Z</time>
      </trkpt>
      <trkpt lat="45.22544" lon="5.72726">
        <ele>643.59997558594</ele>
        <time>2021-05-29T04:50:32.000Z</time>
      </trkpt>
      <trkpt lat="45.22547" lon="5.72724">
        <ele>642.79998779297</ele>
        <time>2021-05-29T04:50:34.000Z</time>
      </trkpt>
      <trkpt lat="45.22549" lon="5.72725">
        <ele>642.40002441406</ele>
        <time>2021-05-29T04:50:35.000Z</time>
      </trkpt>
      <trkpt lat="45.2255" lon="5.72725">
        <ele>642.20001220703</ele>
        <time>2021-05-29T04:50:36.000Z</time>
      </trkpt>
      <trkpt lat="45.22553" lon="5.72726">
        <ele>640.79998779297</ele>
        <time>2021-05-29T04:50:38.000Z</time>
      </trkpt>
      <trkpt lat="45.22555" lon="5.72727">
        <ele>640</ele>
        <time>2021-05-29T04:50:40.000Z</time>
      </trkpt>
      <trkpt lat="45.22556" lon="5.72728">
        <ele>639.59997558594</ele>
        <time>2021-05-29T04:50:41.000Z</time>
      </trkpt>
      <trkpt lat="45.22558" lon="5.72729">
        <ele>639</ele>
        <time>2021-05-29T04:50:42.000Z</time>
      </trkpt>
      <trkpt lat="45.22562" lon="5.72728">
        <ele>638.40002441406</ele>
        <time>2021-05-29T04:50:44.000Z</time>
      </trkpt>
      <trkpt lat="45.22564" lon="5.72728">
        <ele>638.20001220703</ele>
        <time>2021-05-29T04:50:45.000Z</time>
      </trkpt>
      <trkpt lat="45.22575" lon="5.72728">
        <ele>637.40002441406</ele>
        <time>2021-05-29T04:50:50.000Z</time>
      </trkpt>
      <trkpt lat="45.22577" lon="5.72727">
        <ele>636.79998779297</ele>
        <time>2021-05-29T04:50:51.000Z</time>
      </trkpt>
      <trkpt lat="45.22579" lon="5.72728">
        <ele>636.20001220703</ele>
        <time>2021-05-29T04:50:52.000Z</time>
      </trkpt>
      <trkpt lat="45.22581" lon="5.72729">
        <ele>635.79998779297</ele>
        <time>2021-05-29T04:50:53.000Z</time>
      </trkpt>
      <trkpt lat="45.22586" lon="5.72731">
        <ele>635.40002441406</ele>
        <time>2021-05-29T04:50:56.000Z</time>
      </trkpt>
      <trkpt lat="45.22588" lon="5.72732">
        <ele>635</ele>
        <time>2021-05-29T04:50:57.000Z</time>
      </trkpt>
      <trkpt lat="45.22591" lon="5.72734">
        <ele>634.59997558594</ele>
        <time>2021-05-29T04:50:59.000Z</time>
      </trkpt>
      <trkpt lat="45.22597" lon="5.72736">
        <ele>634</ele>
        <time>2021-05-29T04:51:01.000Z</time>
      </trkpt>
      <trkpt lat="45.22598" lon="5.72737">
        <ele>633.40002441406</ele>
        <time>2021-05-29T04:51:03.000Z</time>
      </trkpt>
      <trkpt lat="45.22603" lon="5.72738">
        <ele>633</ele>
        <time>2021-05-29T04:51:05.000Z</time>
      </trkpt>
      <trkpt lat="45.22608" lon="5.72739">
        <ele>632</ele>
        <time>2021-05-29T04:51:08.000Z</time>
      </trkpt>
      <trkpt lat="45.22609" lon="5.72739">
        <ele>631.79998779297</ele>
        <time>2021-05-29T04:51:09.000Z</time>
      </trkpt>
      <trkpt lat="45.22611" lon="5.7274">
        <ele>631.20001220703</ele>
        <time>2021-05-29T04:51:11.000Z</time>
      </trkpt>
      <trkpt lat="45.22614" lon="5.7274">
        <ele>630.59997558594</ele>
        <time>2021-05-29T04:51:13.000Z</time>
      </trkpt>
      <trkpt lat="45.22615" lon="5.72739">
        <ele>630.40002441406</ele>
        <time>2021-05-29T04:51:14.000Z</time>
      </trkpt>
      <trkpt lat="45.22617" lon="5.72737">
        <ele>630.20001220703</ele>
        <time>2021-05-29T04:51:15.000Z</time>
      </trkpt>
      <trkpt lat="45.22619" lon="5.72739">
        <ele>630</ele>
        <time>2021-05-29T04:51:18.000Z</time>
      </trkpt>
      <trkpt lat="45.22619" lon="5.72741">
        <ele>630</ele>
        <time>2021-05-29T04:51:20.000Z</time>
      </trkpt>
      <trkpt lat="45.2262" lon="5.72742">
        <ele>630</ele>
        <time>2021-05-29T04:51:21.000Z</time>
      </trkpt>
      <trkpt lat="45.2262" lon="5.72742">
        <ele>630</ele>
        <time>2021-05-29T04:51:22.000Z</time>
      </trkpt>
      <trkpt lat="45.2262" lon="5.72742">
        <ele>630.20001220703</ele>
        <time>2021-05-29T04:51:24.000Z</time>
      </trkpt>
      <trkpt lat="45.22618" lon="5.72746">
        <ele>630.40002441406</ele>
        <time>2021-05-29T04:51:27.000Z</time>
      </trkpt>
      <trkpt lat="45.22614" lon="5.72747">
        <ele>631.59997558594</ele>
        <time>2021-05-29T04:51:31.000Z</time>
      </trkpt>
      <trkpt lat="45.22613" lon="5.72746">
        <ele>631.59997558594</ele>
        <time>2021-05-29T04:51:32.000Z</time>
      </trkpt>
      <trkpt lat="45.22613" lon="5.72746">
        <ele>632</ele>
        <time>2021-05-29T04:51:33.000Z</time>
      </trkpt>
      <trkpt lat="45.2261" lon="5.72749">
        <ele>632.79998779297</ele>
        <time>2021-05-29T04:51:36.000Z</time>
      </trkpt>
      <trkpt lat="45.22604" lon="5.72751">
        <ele>633.79998779297</ele>
        <time>2021-05-29T04:51:41.000Z</time>
      </trkpt>
      <trkpt lat="45.22603" lon="5.7275">
        <ele>633.79998779297</ele>
        <time>2021-05-29T04:51:42.000Z</time>
      </trkpt>
      <trkpt lat="45.226" lon="5.72749">
        <ele>634.59997558594</ele>
        <time>2021-05-29T04:51:44.000Z</time>
      </trkpt>
      <trkpt lat="45.22598" lon="5.72748">
        <ele>635.20001220703</ele>
        <time>2021-05-29T04:51:46.000Z</time>
      </trkpt>
      <trkpt lat="45.22592" lon="5.7275">
        <ele>635.59997558594</ele>
        <time>2021-05-29T04:51:49.000Z</time>
      </trkpt>
      <trkpt lat="45.2259" lon="5.72751">
        <ele>636.40002441406</ele>
        <time>2021-05-29T04:51:51.000Z</time>
      </trkpt>
      <trkpt lat="45.22585" lon="5.7275">
        <ele>637</ele>
        <time>2021-05-29T04:51:55.000Z</time>
      </trkpt>
      <trkpt lat="45.22584" lon="5.7275">
        <ele>637.59997558594</ele>
        <time>2021-05-29T04:51:57.000Z</time>
      </trkpt>
      <trkpt lat="45.22578" lon="5.72752">
        <ele>638</ele>
        <time>2021-05-29T04:52:00.000Z</time>
      </trkpt>
      <trkpt lat="45.22575" lon="5.72753">
        <ele>638</ele>
        <time>2021-05-29T04:52:02.000Z</time>
      </trkpt>
      <trkpt lat="45.22573" lon="5.72752">
        <ele>638.59997558594</ele>
        <time>2021-05-29T04:52:04.000Z</time>
      </trkpt>
      <trkpt lat="45.22572" lon="5.72752">
        <ele>638.79998779297</ele>
        <time>2021-05-29T04:52:05.000Z</time>
      </trkpt>
      <trkpt lat="45.2257" lon="5.72753">
        <ele>639.40002441406</ele>
        <time>2021-05-29T04:52:07.000Z</time>
      </trkpt>
      <trkpt lat="45.22569" lon="5.72753">
        <ele>639.59997558594</ele>
        <time>2021-05-29T04:52:08.000Z</time>
      </trkpt>
      <trkpt lat="45.22566" lon="5.72753">
        <ele>640.40002441406</ele>
        <time>2021-05-29T04:52:10.000Z</time>
      </trkpt>
      <trkpt lat="45.22564" lon="5.72752">
        <ele>640.79998779297</ele>
        <time>2021-05-29T04:52:11.000Z</time>
      </trkpt>
      <trkpt lat="45.22562" lon="5.72751">
        <ele>641</ele>
        <time>2021-05-29T04:52:12.000Z</time>
      </trkpt>
      <trkpt lat="45.22559" lon="5.72749">
        <ele>641.59997558594</ele>
        <time>2021-05-29T04:52:14.000Z</time>
      </trkpt>
      <trkpt lat="45.22557" lon="5.72747">
        <ele>642</ele>
        <time>2021-05-29T04:52:15.000Z</time>
      </trkpt>
      <trkpt lat="45.22556" lon="5.72745">
        <ele>642.20001220703</ele>
        <time>2021-05-29T04:52:16.000Z</time>
      </trkpt>
      <trkpt lat="45.2255" lon="5.72746">
        <ele>643.20001220703</ele>
        <time>2021-05-29T04:52:19.000Z</time>
      </trkpt>
      <trkpt lat="45.22548" lon="5.72746">
        <ele>644</ele>
        <time>2021-05-29T04:52:21.000Z</time>
      </trkpt>
      <trkpt lat="45.22547" lon="5.72746">
        <ele>644.20001220703</ele>
        <time>2021-05-29T04:52:22.000Z</time>
      </trkpt>
      <trkpt lat="45.22542" lon="5.72747">
        <ele>645.40002441406</ele>
        <time>2021-05-29T04:52:26.000Z</time>
      </trkpt>
      <trkpt lat="45.22537" lon="5.72747">
        <ele>646.79998779297</ele>
        <time>2021-05-29T04:52:30.000Z</time>
      </trkpt>
      <trkpt lat="45.22536" lon="5.72745">
        <ele>647.40002441406</ele>
        <time>2021-05-29T04:52:32.000Z</time>
      </trkpt>
      <trkpt lat="45.22533" lon="5.72744">
        <ele>647.79998779297</ele>
        <time>2021-05-29T04:52:34.000Z</time>
      </trkpt>
      <trkpt lat="45.22533" lon="5.72744">
        <ele>648.40002441406</ele>
        <time>2021-05-29T04:52:35.000Z</time>
      </trkpt>
      <trkpt lat="45.2253" lon="5.72742">
        <ele>649</ele>
        <time>2021-05-29T04:52:37.000Z</time>
      </trkpt>
      <trkpt lat="45.22527" lon="5.72741">
        <ele>649.79998779297</ele>
        <time>2021-05-29T04:52:40.000Z</time>
      </trkpt>
      <trkpt lat="45.22525" lon="5.72741">
        <ele>650</ele>
        <time>2021-05-29T04:52:41.000Z</time>
      </trkpt>
      <trkpt lat="45.22524" lon="5.72741">
        <ele>650.20001220703</ele>
        <time>2021-05-29T04:52:42.000Z</time>
      </trkpt>
      <trkpt lat="45.22523" lon="5.72741">
        <ele>650.40002441406</ele>
        <time>2021-05-29T04:52:43.000Z</time>
      </trkpt>
      <trkpt lat="45.22523" lon="5.72742">
        <ele>651</ele>
        <time>2021-05-29T04:52:44.000Z</time>
      </trkpt>
      <trkpt lat="45.22522" lon="5.72741">
        <ele>651.20001220703</ele>
        <time>2021-05-29T04:52:45.000Z</time>
      </trkpt>
      <trkpt lat="45.22522" lon="5.72742">
        <ele>651.40002441406</ele>
        <time>2021-05-29T04:52:46.000Z</time>
      </trkpt>
      <trkpt lat="45.22521" lon="5.72742">
        <ele>651.79998779297</ele>
        <time>2021-05-29T04:52:47.000Z</time>
      </trkpt>
      <trkpt lat="45.2252" lon="5.72744">
        <ele>652.40002441406</ele>
        <time>2021-05-29T04:52:49.000Z</time>
      </trkpt>
      <trkpt lat="45.22518" lon="5.72744">
        <ele>652.59997558594</ele>
        <time>2021-05-29T04:52:51.000Z</time>
      </trkpt>
      <trkpt lat="45.22517" lon="5.72744">
        <ele>653.20001220703</ele>
        <time>2021-05-29T04:52:52.000Z</time>
      </trkpt>
      <trkpt lat="45.22516" lon="5.72745">
        <ele>653.40002441406</ele>
        <time>2021-05-29T04:52:53.000Z</time>
      </trkpt>
      <trkpt lat="45.22514" lon="5.72744">
        <ele>653.79998779297</ele>
        <time>2021-05-29T04:52:55.000Z</time>
      </trkpt>
      <trkpt lat="45.22513" lon="5.72746">
        <ele>654.40002441406</ele>
        <time>2021-05-29T04:52:58.000Z</time>
      </trkpt>
      <trkpt lat="45.22512" lon="5.72747">
        <ele>655</ele>
        <time>2021-05-29T04:53:00.000Z</time>
      </trkpt>
      <trkpt lat="45.22511" lon="5.72747">
        <ele>655.40002441406</ele>
        <time>2021-05-29T04:53:02.000Z</time>
      </trkpt>
      <trkpt lat="45.22511" lon="5.72748">
        <ele>655.59997558594</ele>
        <time>2021-05-29T04:53:03.000Z</time>
      </trkpt>
      <trkpt lat="45.2251" lon="5.72749">
        <ele>656.20001220703</ele>
        <time>2021-05-29T04:53:06.000Z</time>
      </trkpt>
      <trkpt lat="45.2251" lon="5.7275">
        <ele>656.79998779297</ele>
        <time>2021-05-29T04:53:07.000Z</time>
      </trkpt>
      <trkpt lat="45.22509" lon="5.72753">
        <ele>657.20001220703</ele>
        <time>2021-05-29T04:53:09.000Z</time>
      </trkpt>
      <trkpt lat="45.22508" lon="5.72754">
        <ele>657.40002441406</ele>
        <time>2021-05-29T04:53:10.000Z</time>
      </trkpt>
      <trkpt lat="45.22508" lon="5.72755">
        <ele>658</ele>
        <time>2021-05-29T04:53:12.000Z</time>
      </trkpt>
      <trkpt lat="45.22508" lon="5.72756">
        <ele>658.40002441406</ele>
        <time>2021-05-29T04:53:13.000Z</time>
      </trkpt>
      <trkpt lat="45.22508" lon="5.72758">
        <ele>659.20001220703</ele>
        <time>2021-05-29T04:53:17.000Z</time>
      </trkpt>
      <trkpt lat="45.22508" lon="5.72758">
        <ele>659.40002441406</ele>
        <time>2021-05-29T04:53:18.000Z</time>
      </trkpt>
      <trkpt lat="45.22508" lon="5.72759">
        <ele>659.59997558594</ele>
        <time>2021-05-29T04:53:19.000Z</time>
      </trkpt>
      <trkpt lat="45.22508" lon="5.7276">
        <ele>660.20001220703</ele>
        <time>2021-05-29T04:53:21.000Z</time>
      </trkpt>
      <trkpt lat="45.22507" lon="5.72763">
        <ele>660.79998779297</ele>
        <time>2021-05-29T04:53:24.000Z</time>
      </trkpt>
      <trkpt lat="45.22506" lon="5.72765">
        <ele>661.59997558594</ele>
        <time>2021-05-29T04:53:26.000Z</time>
      </trkpt>
      <trkpt lat="45.22505" lon="5.72767">
        <ele>662</ele>
        <time>2021-05-29T04:53:28.000Z</time>
      </trkpt>
      <trkpt lat="45.22506" lon="5.72768">
        <ele>662.20001220703</ele>
        <time>2021-05-29T04:53:29.000Z</time>
      </trkpt>
      <trkpt lat="45.22506" lon="5.72771">
        <ele>662.79998779297</ele>
        <time>2021-05-29T04:53:31.000Z</time>
      </trkpt>
      <trkpt lat="45.22505" lon="5.72772">
        <ele>663</ele>
        <time>2021-05-29T04:53:32.000Z</time>
      </trkpt>
      <trkpt lat="45.22505" lon="5.72774">
        <ele>663.40002441406</ele>
        <time>2021-05-29T04:53:34.000Z</time>
      </trkpt>
      <trkpt lat="45.22506" lon="5.72777">
        <ele>663.79998779297</ele>
        <time>2021-05-29T04:53:36.000Z</time>
      </trkpt>
      <trkpt lat="45.22506" lon="5.72778">
        <ele>664.20001220703</ele>
        <time>2021-05-29T04:53:37.000Z</time>
      </trkpt>
      <trkpt lat="45.22505" lon="5.72779">
        <ele>664.79998779297</ele>
        <time>2021-05-29T04:53:39.000Z</time>
      </trkpt>
      <trkpt lat="45.22504" lon="5.7278">
        <ele>665.20001220703</ele>
        <time>2021-05-29T04:53:41.000Z</time>
      </trkpt>
      <trkpt lat="45.22504" lon="5.72781">
        <ele>665.40002441406</ele>
        <time>2021-05-29T04:53:42.000Z</time>
      </trkpt>
      <trkpt lat="45.22504" lon="5.72783">
        <ele>666.40002441406</ele>
        <time>2021-05-29T04:53:45.000Z</time>
      </trkpt>
      <trkpt lat="45.22504" lon="5.72785">
        <ele>666.40002441406</ele>
        <time>2021-05-29T04:53:46.000Z</time>
      </trkpt>
      <trkpt lat="45.22504" lon="5.72787">
        <ele>666.79998779297</ele>
        <time>2021-05-29T04:53:47.000Z</time>
      </trkpt>
      <trkpt lat="45.22503" lon="5.7279">
        <ele>667.40002441406</ele>
        <time>2021-05-29T04:53:49.000Z</time>
      </trkpt>
      <trkpt lat="45.22503" lon="5.72791">
        <ele>668</ele>
        <time>2021-05-29T04:53:51.000Z</time>
      </trkpt>
      <trkpt lat="45.22503" lon="5.72794">
        <ele>668.40002441406</ele>
        <time>2021-05-29T04:53:53.000Z</time>
      </trkpt>
      <trkpt lat="45.22502" lon="5.72795">
        <ele>668.59997558594</ele>
        <time>2021-05-29T04:53:54.000Z</time>
      </trkpt>
      <trkpt lat="45.225" lon="5.728">
        <ele>669.59997558594</ele>
        <time>2021-05-29T04:53:58.000Z</time>
      </trkpt>
      <trkpt lat="45.225" lon="5.72801">
        <ele>669.79998779297</ele>
        <time>2021-05-29T04:53:59.000Z</time>
      </trkpt>
      <trkpt lat="45.22497" lon="5.72811">
        <ele>671</ele>
        <time>2021-05-29T04:54:03.000Z</time>
      </trkpt>
      <trkpt lat="45.22496" lon="5.72813">
        <ele>671.20001220703</ele>
        <time>2021-05-29T04:54:04.000Z</time>
      </trkpt>
      <trkpt lat="45.22496" lon="5.72814">
        <ele>671.40002441406</ele>
        <time>2021-05-29T04:54:05.000Z</time>
      </trkpt>
      <trkpt lat="45.22496" lon="5.72816">
        <ele>672.20001220703</ele>
        <time>2021-05-29T04:54:08.000Z</time>
      </trkpt>
      <trkpt lat="45.22496" lon="5.72817">
        <ele>672.59997558594</ele>
        <time>2021-05-29T04:54:09.000Z</time>
      </trkpt>
      <trkpt lat="45.22495" lon="5.72818">
        <ele>672.79998779297</ele>
        <time>2021-05-29T04:54:10.000Z</time>
      </trkpt>
      <trkpt lat="45.22495" lon="5.72819">
        <ele>673.20001220703</ele>
        <time>2021-05-29T04:54:11.000Z</time>
      </trkpt>
      <trkpt lat="45.22494" lon="5.72821">
        <ele>673.79998779297</ele>
        <time>2021-05-29T04:54:13.000Z</time>
      </trkpt>
      <trkpt lat="45.22493" lon="5.72823">
        <ele>674.20001220703</ele>
        <time>2021-05-29T04:54:15.000Z</time>
      </trkpt>
      <trkpt lat="45.22493" lon="5.72824">
        <ele>674.40002441406</ele>
        <time>2021-05-29T04:54:16.000Z</time>
      </trkpt>
      <trkpt lat="45.22496" lon="5.72829">
        <ele>675.20001220703</ele>
        <time>2021-05-29T04:54:19.000Z</time>
      </trkpt>
      <trkpt lat="45.22495" lon="5.72832">
        <ele>676.20001220703</ele>
        <time>2021-05-29T04:54:22.000Z</time>
      </trkpt>
      <trkpt lat="45.22496" lon="5.72834">
        <ele>676.40002441406</ele>
        <time>2021-05-29T04:54:23.000Z</time>
      </trkpt>
      <trkpt lat="45.22497" lon="5.72838">
        <ele>677.59997558594</ele>
        <time>2021-05-29T04:54:26.000Z</time>
      </trkpt>
      <trkpt lat="45.22498" lon="5.72839">
        <ele>678</ele>
        <time>2021-05-29T04:54:28.000Z</time>
      </trkpt>
      <trkpt lat="45.22498" lon="5.7284">
        <ele>678.20001220703</ele>
        <time>2021-05-29T04:54:29.000Z</time>
      </trkpt>
      <trkpt lat="45.22497" lon="5.72843">
        <ele>678.59997558594</ele>
        <time>2021-05-29T04:54:31.000Z</time>
      </trkpt>
      <trkpt lat="45.22497" lon="5.72844">
        <ele>678.79998779297</ele>
        <time>2021-05-29T04:54:32.000Z</time>
      </trkpt>
      <trkpt lat="45.22497" lon="5.72848">
        <ele>679.59997558594</ele>
        <time>2021-05-29T04:54:35.000Z</time>
      </trkpt>
      <trkpt lat="45.22496" lon="5.7285">
        <ele>679.59997558594</ele>
        <time>2021-05-29T04:54:36.000Z</time>
      </trkpt>
      <trkpt lat="45.22495" lon="5.72852">
        <ele>680</ele>
        <time>2021-05-29T04:54:37.000Z</time>
      </trkpt>
      <trkpt lat="45.22494" lon="5.72854">
        <ele>680.79998779297</ele>
        <time>2021-05-29T04:54:39.000Z</time>
      </trkpt>
      <trkpt lat="45.22495" lon="5.72857">
        <ele>681.40002441406</ele>
        <time>2021-05-29T04:54:41.000Z</time>
      </trkpt>
      <trkpt lat="45.22496" lon="5.72861">
        <ele>682</ele>
        <time>2021-05-29T04:54:44.000Z</time>
      </trkpt>
      <trkpt lat="45.22495" lon="5.72863">
        <ele>682.20001220703</ele>
        <time>2021-05-29T04:54:46.000Z</time>
      </trkpt>
      <trkpt lat="45.22496" lon="5.72866">
        <ele>683.20001220703</ele>
        <time>2021-05-29T04:54:48.000Z</time>
      </trkpt>
      <trkpt lat="45.22497" lon="5.72867">
        <ele>683.40002441406</ele>
        <time>2021-05-29T04:54:49.000Z</time>
      </trkpt>
      <trkpt lat="45.22497" lon="5.72869">
        <ele>683.79998779297</ele>
        <time>2021-05-29T04:54:50.000Z</time>
      </trkpt>
      <trkpt lat="45.22499" lon="5.7287">
        <ele>684.59997558594</ele>
        <time>2021-05-29T04:54:52.000Z</time>
      </trkpt>
      <trkpt lat="45.22499" lon="5.7287">
        <ele>684.79998779297</ele>
        <time>2021-05-29T04:54:53.000Z</time>
      </trkpt>
      <trkpt lat="45.22499" lon="5.7287">
        <ele>685.20001220703</ele>
        <time>2021-05-29T04:54:54.000Z</time>
      </trkpt>
      <trkpt lat="45.22499" lon="5.72871">
        <ele>685.20001220703</ele>
        <time>2021-05-29T04:54:55.000Z</time>
      </trkpt>
      <trkpt lat="45.225" lon="5.72873">
        <ele>685.59997558594</ele>
        <time>2021-05-29T04:54:57.000Z</time>
      </trkpt>
      <trkpt lat="45.22502" lon="5.72877">
        <ele>686.40002441406</ele>
        <time>2021-05-29T04:54:59.000Z</time>
      </trkpt>
      <trkpt lat="45.22503" lon="5.72879">
        <ele>687</ele>
        <time>2021-05-29T04:55:01.000Z</time>
      </trkpt>
      <trkpt lat="45.22504" lon="5.72879">
        <ele>687.40002441406</ele>
        <time>2021-05-29T04:55:03.000Z</time>
      </trkpt>
      <trkpt lat="45.22505" lon="5.7288">
        <ele>688</ele>
        <time>2021-05-29T04:55:05.000Z</time>
      </trkpt>
      <trkpt lat="45.22507" lon="5.7288">
        <ele>689.20001220703</ele>
        <time>2021-05-29T04:55:10.000Z</time>
      </trkpt>
      <trkpt lat="45.2251" lon="5.72879">
        <ele>690</ele>
        <time>2021-05-29T04:55:13.000Z</time>
      </trkpt>
      <trkpt lat="45.2251" lon="5.72879">
        <ele>690.20001220703</ele>
        <time>2021-05-29T04:55:14.000Z</time>
      </trkpt>
      <trkpt lat="45.22511" lon="5.72879">
        <ele>690.40002441406</ele>
        <time>2021-05-29T04:55:15.000Z</time>
      </trkpt>
      <trkpt lat="45.22511" lon="5.7288">
        <ele>690.79998779297</ele>
        <time>2021-05-29T04:55:17.000Z</time>
      </trkpt>
      <trkpt lat="45.22514" lon="5.7288">
        <ele>691.20001220703</ele>
        <time>2021-05-29T04:55:19.000Z</time>
      </trkpt>
      <trkpt lat="45.22515" lon="5.7288">
        <ele>691.59997558594</ele>
        <time>2021-05-29T04:55:21.000Z</time>
      </trkpt>
      <trkpt lat="45.22516" lon="5.72879">
        <ele>692</ele>
        <time>2021-05-29T04:55:22.000Z</time>
      </trkpt>
      <trkpt lat="45.2252" lon="5.72879">
        <ele>692.40002441406</ele>
        <time>2021-05-29T04:55:24.000Z</time>
      </trkpt>
      <trkpt lat="45.22521" lon="5.72879">
        <ele>692.79998779297</ele>
        <time>2021-05-29T04:55:25.000Z</time>
      </trkpt>
      <trkpt lat="45.22522" lon="5.72879">
        <ele>693.20001220703</ele>
        <time>2021-05-29T04:55:26.000Z</time>
      </trkpt>
      <trkpt lat="45.22524" lon="5.72879">
        <ele>693.59997558594</ele>
        <time>2021-05-29T04:55:28.000Z</time>
      </trkpt>
      <trkpt lat="45.22528" lon="5.72879">
        <ele>694</ele>
        <time>2021-05-29T04:55:30.000Z</time>
      </trkpt>
      <trkpt lat="45.2253" lon="5.72879">
        <ele>694.40002441406</ele>
        <time>2021-05-29T04:55:31.000Z</time>
      </trkpt>
      <trkpt lat="45.2253" lon="5.7288">
        <ele>695.20001220703</ele>
        <time>2021-05-29T04:55:33.000Z</time>
      </trkpt>
      <trkpt lat="45.22535" lon="5.7288">
        <ele>696.20001220703</ele>
        <time>2021-05-29T04:55:37.000Z</time>
      </trkpt>
      <trkpt lat="45.22536" lon="5.7288">
        <ele>696.20001220703</ele>
        <time>2021-05-29T04:55:38.000Z</time>
      </trkpt>
      <trkpt lat="45.22538" lon="5.7288">
        <ele>696.59997558594</ele>
        <time>2021-05-29T04:55:40.000Z</time>
      </trkpt>
      <trkpt lat="45.2254" lon="5.7288">
        <ele>697.59997558594</ele>
        <time>2021-05-29T04:55:42.000Z</time>
      </trkpt>
      <trkpt lat="45.22541" lon="5.72879">
        <ele>697.79998779297</ele>
        <time>2021-05-29T04:55:43.000Z</time>
      </trkpt>
      <trkpt lat="45.22544" lon="5.72878">
        <ele>698.59997558594</ele>
        <time>2021-05-29T04:55:46.000Z</time>
      </trkpt>
      <trkpt lat="45.22545" lon="5.72878">
        <ele>698.79998779297</ele>
        <time>2021-05-29T04:55:47.000Z</time>
      </trkpt>
      <trkpt lat="45.22548" lon="5.72879">
        <ele>699.79998779297</ele>
        <time>2021-05-29T04:55:50.000Z</time>
      </trkpt>
      <trkpt lat="45.22554" lon="5.72879">
        <ele>701</ele>
        <time>2021-05-29T04:55:55.000Z</time>
      </trkpt>
      <trkpt lat="45.22556" lon="5.72879">
        <ele>701.79998779297</ele>
        <time>2021-05-29T04:55:57.000Z</time>
      </trkpt>
      <trkpt lat="45.22558" lon="5.72879">
        <ele>702.20001220703</ele>
        <time>2021-05-29T04:55:58.000Z</time>
      </trkpt>
      <trkpt lat="45.22559" lon="5.72879">
        <ele>702.40002441406</ele>
        <time>2021-05-29T04:55:59.000Z</time>
      </trkpt>
      <trkpt lat="45.22562" lon="5.72881">
        <ele>703.40002441406</ele>
        <time>2021-05-29T04:56:02.000Z</time>
      </trkpt>
      <trkpt lat="45.22564" lon="5.72881">
        <ele>703.79998779297</ele>
        <time>2021-05-29T04:56:03.000Z</time>
      </trkpt>
      <trkpt lat="45.2257" lon="5.72886">
        <ele>704.59997558594</ele>
        <time>2021-05-29T04:56:08.000Z</time>
      </trkpt>
      <trkpt lat="45.22572" lon="5.72888">
        <ele>705.59997558594</ele>
        <time>2021-05-29T04:56:10.000Z</time>
      </trkpt>
      <trkpt lat="45.22573" lon="5.72889">
        <ele>706</ele>
        <time>2021-05-29T04:56:11.000Z</time>
      </trkpt>
      <trkpt lat="45.22577" lon="5.72892">
        <ele>707</ele>
        <time>2021-05-29T04:56:15.000Z</time>
      </trkpt>
      <trkpt lat="45.22578" lon="5.72893">
        <ele>707.40002441406</ele>
        <time>2021-05-29T04:56:16.000Z</time>
      </trkpt>
      <trkpt lat="45.22578" lon="5.72893">
        <ele>707.59997558594</ele>
        <time>2021-05-29T04:56:17.000Z</time>
      </trkpt>
      <trkpt lat="45.2258" lon="5.72893">
        <ele>708</ele>
        <time>2021-05-29T04:56:19.000Z</time>
      </trkpt>
      <trkpt lat="45.22582" lon="5.72895">
        <ele>709</ele>
        <time>2021-05-29T04:56:23.000Z</time>
      </trkpt>
      <trkpt lat="45.22583" lon="5.72896">
        <ele>709</ele>
        <time>2021-05-29T04:56:24.000Z</time>
      </trkpt>
      <trkpt lat="45.22585" lon="5.729">
        <ele>710.20001220703</ele>
        <time>2021-05-29T04:56:27.000Z</time>
      </trkpt>
      <trkpt lat="45.22587" lon="5.72901">
        <ele>710.59997558594</ele>
        <time>2021-05-29T04:56:28.000Z</time>
      </trkpt>
      <trkpt lat="45.22591" lon="5.72904">
        <ele>711.40002441406</ele>
        <time>2021-05-29T04:56:31.000Z</time>
      </trkpt>
      <trkpt lat="45.22592" lon="5.72904">
        <ele>711.59997558594</ele>
        <time>2021-05-29T04:56:32.000Z</time>
      </trkpt>
      <trkpt lat="45.22593" lon="5.72907">
        <ele>712.40002441406</ele>
        <time>2021-05-29T04:56:34.000Z</time>
      </trkpt>
      <trkpt lat="45.22596" lon="5.72909">
        <ele>713.59997558594</ele>
        <time>2021-05-29T04:56:37.000Z</time>
      </trkpt>
      <trkpt lat="45.22596" lon="5.7291">
        <ele>713.79998779297</ele>
        <time>2021-05-29T04:56:38.000Z</time>
      </trkpt>
      <trkpt lat="45.22597" lon="5.72912">
        <ele>714</ele>
        <time>2021-05-29T04:56:39.000Z</time>
      </trkpt>
      <trkpt lat="45.22597" lon="5.72919">
        <ele>714.79998779297</ele>
        <time>2021-05-29T04:56:42.000Z</time>
      </trkpt>
      <trkpt lat="45.22598" lon="5.7292">
        <ele>715</ele>
        <time>2021-05-29T04:56:43.000Z</time>
      </trkpt>
      <trkpt lat="45.226" lon="5.72923">
        <ele>716</ele>
        <time>2021-05-29T04:56:45.000Z</time>
      </trkpt>
      <trkpt lat="45.22602" lon="5.72928">
        <ele>717</ele>
        <time>2021-05-29T04:56:48.000Z</time>
      </trkpt>
      <trkpt lat="45.22604" lon="5.7293">
        <ele>718</ele>
        <time>2021-05-29T04:56:51.000Z</time>
      </trkpt>
      <trkpt lat="45.22605" lon="5.72933">
        <ele>718</ele>
        <time>2021-05-29T04:56:52.000Z</time>
      </trkpt>
      <trkpt lat="45.22608" lon="5.72934">
        <ele>718.20001220703</ele>
        <time>2021-05-29T04:56:55.000Z</time>
      </trkpt>
      <trkpt lat="45.22609" lon="5.72935">
        <ele>718.20001220703</ele>
        <time>2021-05-29T04:56:56.000Z</time>
      </trkpt>
      <trkpt lat="45.22611" lon="5.72937">
        <ele>718.20001220703</ele>
        <time>2021-05-29T04:56:58.000Z</time>
      </trkpt>
      <trkpt lat="45.22617" lon="5.72946">
        <ele>718</ele>
        <time>2021-05-29T04:57:03.000Z</time>
      </trkpt>
      <trkpt lat="45.2262" lon="5.7295">
        <ele>718</ele>
        <time>2021-05-29T04:57:05.000Z</time>
      </trkpt>
      <trkpt lat="45.22622" lon="5.72953">
        <ele>718</ele>
        <time>2021-05-29T04:57:07.000Z</time>
      </trkpt>
      <trkpt lat="45.22626" lon="5.72955">
        <ele>717.59997558594</ele>
        <time>2021-05-29T04:57:10.000Z</time>
      </trkpt>
      <trkpt lat="45.22636" lon="5.72957">
        <ele>717.20001220703</ele>
        <time>2021-05-29T04:57:15.000Z</time>
      </trkpt>
      <trkpt lat="45.22639" lon="5.72958">
        <ele>717</ele>
        <time>2021-05-29T04:57:16.000Z</time>
      </trkpt>
      <trkpt lat="45.22643" lon="5.7296">
        <ele>716.59997558594</ele>
        <time>2021-05-29T04:57:18.000Z</time>
      </trkpt>
      <trkpt lat="45.22646" lon="5.72963">
        <ele>716.40002441406</ele>
        <time>2021-05-29T04:57:20.000Z</time>
      </trkpt>
      <trkpt lat="45.22649" lon="5.72965">
        <ele>716.40002441406</ele>
        <time>2021-05-29T04:57:22.000Z</time>
      </trkpt>
      <trkpt lat="45.22651" lon="5.72965">
        <ele>716</ele>
        <time>2021-05-29T04:57:23.000Z</time>
      </trkpt>
      <trkpt lat="45.22654" lon="5.72966">
        <ele>716.59997558594</ele>
        <time>2021-05-29T04:57:25.000Z</time>
      </trkpt>
      <trkpt lat="45.22656" lon="5.72966">
        <ele>716.20001220703</ele>
        <time>2021-05-29T04:57:26.000Z</time>
      </trkpt>
      <trkpt lat="45.22663" lon="5.72968">
        <ele>716</ele>
        <time>2021-05-29T04:57:30.000Z</time>
      </trkpt>
      <trkpt lat="45.22666" lon="5.72969">
        <ele>715.79998779297</ele>
        <time>2021-05-29T04:57:32.000Z</time>
      </trkpt>
      <trkpt lat="45.22669" lon="5.7297">
        <ele>715.59997558594</ele>
        <time>2021-05-29T04:57:33.000Z</time>
      </trkpt>
      <trkpt lat="45.22672" lon="5.72971">
        <ele>715.59997558594</ele>
        <time>2021-05-29T04:57:34.000Z</time>
      </trkpt>
      <trkpt lat="45.2268" lon="5.72974">
        <ele>714.79998779297</ele>
        <time>2021-05-29T04:57:38.000Z</time>
      </trkpt>
      <trkpt lat="45.22683" lon="5.72975">
        <ele>714.79998779297</ele>
        <time>2021-05-29T04:57:39.000Z</time>
      </trkpt>
      <trkpt lat="45.22689" lon="5.72978">
        <ele>714.59997558594</ele>
        <time>2021-05-29T04:57:41.000Z</time>
      </trkpt>
      <trkpt lat="45.22694" lon="5.72981">
        <ele>713.59997558594</ele>
        <time>2021-05-29T04:57:44.000Z</time>
      </trkpt>
      <trkpt lat="45.22695" lon="5.72981">
        <ele>713.20001220703</ele>
        <time>2021-05-29T04:57:45.000Z</time>
      </trkpt>
      <trkpt lat="45.22696" lon="5.72982">
        <ele>712.79998779297</ele>
        <time>2021-05-29T04:57:46.000Z</time>
      </trkpt>
      <trkpt lat="45.22698" lon="5.72982">
        <ele>712.59997558594</ele>
        <time>2021-05-29T04:57:47.000Z</time>
      </trkpt>
      <trkpt lat="45.227" lon="5.72983">
        <ele>712.40002441406</ele>
        <time>2021-05-29T04:57:48.000Z</time>
      </trkpt>
      <trkpt lat="45.2271" lon="5.72989">
        <ele>711.40002441406</ele>
        <time>2021-05-29T04:57:53.000Z</time>
      </trkpt>
      <trkpt lat="45.22711" lon="5.72989">
        <ele>711</ele>
        <time>2021-05-29T04:57:54.000Z</time>
      </trkpt>
      <trkpt lat="45.22715" lon="5.72991">
        <ele>710.20001220703</ele>
        <time>2021-05-29T04:57:56.000Z</time>
      </trkpt>
      <trkpt lat="45.22725" lon="5.72996">
        <ele>709.20001220703</ele>
        <time>2021-05-29T04:58:01.000Z</time>
      </trkpt>
      <trkpt lat="45.22726" lon="5.72996">
        <ele>708.79998779297</ele>
        <time>2021-05-29T04:58:03.000Z</time>
      </trkpt>
      <trkpt lat="45.22731" lon="5.72997">
        <ele>708.40002441406</ele>
        <time>2021-05-29T04:58:06.000Z</time>
      </trkpt>
      <trkpt lat="45.22738" lon="5.73">
        <ele>708.20001220703</ele>
        <time>2021-05-29T04:58:09.000Z</time>
      </trkpt>
      <trkpt lat="45.22741" lon="5.73001">
        <ele>708</ele>
        <time>2021-05-29T04:58:10.000Z</time>
      </trkpt>
      <trkpt lat="45.22757" lon="5.73015">
        <ele>707</ele>
        <time>2021-05-29T04:58:16.000Z</time>
      </trkpt>
      <trkpt lat="45.22759" lon="5.73016">
        <ele>706.79998779297</ele>
        <time>2021-05-29T04:58:17.000Z</time>
      </trkpt>
      <trkpt lat="45.22761" lon="5.73017">
        <ele>706.59997558594</ele>
        <time>2021-05-29T04:58:18.000Z</time>
      </trkpt>
      <trkpt lat="45.22763" lon="5.73019">
        <ele>706.40002441406</ele>
        <time>2021-05-29T04:58:19.000Z</time>
      </trkpt>
      <trkpt lat="45.22772" lon="5.73023">
        <ele>705.59997558594</ele>
        <time>2021-05-29T04:58:23.000Z</time>
      </trkpt>
      <trkpt lat="45.22784" lon="5.73031">
        <ele>704.59997558594</ele>
        <time>2021-05-29T04:58:29.000Z</time>
      </trkpt>
      <trkpt lat="45.22787" lon="5.73033">
        <ele>704.40002441406</ele>
        <time>2021-05-29T04:58:30.000Z</time>
      </trkpt>
      <trkpt lat="45.22792" lon="5.73036">
        <ele>703.79998779297</ele>
        <time>2021-05-29T04:58:33.000Z</time>
      </trkpt>
      <trkpt lat="45.22794" lon="5.73037">
        <ele>703.59997558594</ele>
        <time>2021-05-29T04:58:34.000Z</time>
      </trkpt>
      <trkpt lat="45.22796" lon="5.73038">
        <ele>703.59997558594</ele>
        <time>2021-05-29T04:58:35.000Z</time>
      </trkpt>
      <trkpt lat="45.22798" lon="5.73039">
        <ele>703.40002441406</ele>
        <time>2021-05-29T04:58:36.000Z</time>
      </trkpt>
      <trkpt lat="45.22805" lon="5.73045">
        <ele>702.40002441406</ele>
        <time>2021-05-29T04:58:40.000Z</time>
      </trkpt>
      <trkpt lat="45.22814" lon="5.73051">
        <ele>702</ele>
        <time>2021-05-29T04:58:44.000Z</time>
      </trkpt>
      <trkpt lat="45.2283" lon="5.73059">
        <ele>702</ele>
        <time>2021-05-29T04:58:51.000Z</time>
      </trkpt>
      <trkpt lat="45.22841" lon="5.73069">
        <ele>702</ele>
        <time>2021-05-29T04:58:57.000Z</time>
      </trkpt>
      <trkpt lat="45.22848" lon="5.73076">
        <ele>701.79998779297</ele>
        <time>2021-05-29T04:59:00.000Z</time>
      </trkpt>
      <trkpt lat="45.22857" lon="5.73081">
        <ele>701.59997558594</ele>
        <time>2021-05-29T04:59:04.000Z</time>
      </trkpt>
      <trkpt lat="45.22862" lon="5.73082">
        <ele>701.20001220703</ele>
        <time>2021-05-29T04:59:06.000Z</time>
      </trkpt>
      <trkpt lat="45.22876" lon="5.73091">
        <ele>700.40002441406</ele>
        <time>2021-05-29T04:59:12.000Z</time>
      </trkpt>
      <trkpt lat="45.22881" lon="5.73094">
        <ele>700.20001220703</ele>
        <time>2021-05-29T04:59:14.000Z</time>
      </trkpt>
      <trkpt lat="45.2289" lon="5.73097">
        <ele>700</ele>
        <time>2021-05-29T04:59:18.000Z</time>
      </trkpt>
      <trkpt lat="45.22903" lon="5.73102">
        <ele>699.59997558594</ele>
        <time>2021-05-29T04:59:23.000Z</time>
      </trkpt>
      <trkpt lat="45.22909" lon="5.73104">
        <ele>699.20001220703</ele>
        <time>2021-05-29T04:59:25.000Z</time>
      </trkpt>
      <trkpt lat="45.22925" lon="5.73104">
        <ele>699.20001220703</ele>
        <time>2021-05-29T04:59:32.000Z</time>
      </trkpt>
      <trkpt lat="45.22927" lon="5.73104">
        <ele>699.20001220703</ele>
        <time>2021-05-29T04:59:33.000Z</time>
      </trkpt>
      <trkpt lat="45.22935" lon="5.73105">
        <ele>698.79998779297</ele>
        <time>2021-05-29T04:59:36.000Z</time>
      </trkpt>
      <trkpt lat="45.22937" lon="5.73105">
        <ele>698.40002441406</ele>
        <time>2021-05-29T04:59:37.000Z</time>
      </trkpt>
      <trkpt lat="45.2294" lon="5.73106">
        <ele>698.20001220703</ele>
        <time>2021-05-29T04:59:38.000Z</time>
      </trkpt>
      <trkpt lat="45.22945" lon="5.73106">
        <ele>697</ele>
        <time>2021-05-29T04:59:41.000Z</time>
      </trkpt>
      <trkpt lat="45.22947" lon="5.73106">
        <ele>696.59997558594</ele>
        <time>2021-05-29T04:59:42.000Z</time>
      </trkpt>
      <trkpt lat="45.22951" lon="5.73106">
        <ele>696</ele>
        <time>2021-05-29T04:59:44.000Z</time>
      </trkpt>
      <trkpt lat="45.22953" lon="5.73107">
        <ele>695.59997558594</ele>
        <time>2021-05-29T04:59:45.000Z</time>
      </trkpt>
      <trkpt lat="45.22955" lon="5.73109">
        <ele>695</ele>
        <time>2021-05-29T04:59:47.000Z</time>
      </trkpt>
      <trkpt lat="45.22958" lon="5.73111">
        <ele>694.79998779297</ele>
        <time>2021-05-29T04:59:49.000Z</time>
      </trkpt>
      <trkpt lat="45.22961" lon="5.73117">
        <ele>694.79998779297</ele>
        <time>2021-05-29T04:59:52.000Z</time>
      </trkpt>
      <trkpt lat="45.22963" lon="5.73121">
        <ele>695.20001220703</ele>
        <time>2021-05-29T04:59:54.000Z</time>
      </trkpt>
      <trkpt lat="45.22965" lon="5.73124">
        <ele>695.79998779297</ele>
        <time>2021-05-29T04:59:56.000Z</time>
      </trkpt>
      <trkpt lat="45.22968" lon="5.73127">
        <ele>696.79998779297</ele>
        <time>2021-05-29T04:59:59.000Z</time>
      </trkpt>
      <trkpt lat="45.22971" lon="5.73131">
        <ele>698.20001220703</ele>
        <time>2021-05-29T05:00:02.000Z</time>
      </trkpt>
      <trkpt lat="45.22976" lon="5.73137">
        <ele>699.20001220703</ele>
        <time>2021-05-29T05:00:05.000Z</time>
      </trkpt>
      <trkpt lat="45.22977" lon="5.73139">
        <ele>699.40002441406</ele>
        <time>2021-05-29T05:00:06.000Z</time>
      </trkpt>
      <trkpt lat="45.22979" lon="5.73142">
        <ele>700.20001220703</ele>
        <time>2021-05-29T05:00:08.000Z</time>
      </trkpt>
      <trkpt lat="45.22981" lon="5.73144">
        <ele>700.40002441406</ele>
        <time>2021-05-29T05:00:09.000Z</time>
      </trkpt>
      <trkpt lat="45.22983" lon="5.73146">
        <ele>701</ele>
        <time>2021-05-29T05:00:11.000Z</time>
      </trkpt>
      <trkpt lat="45.22985" lon="5.73148">
        <ele>701.40002441406</ele>
        <time>2021-05-29T05:00:13.000Z</time>
      </trkpt>
      <trkpt lat="45.22987" lon="5.73148">
        <ele>701.79998779297</ele>
        <time>2021-05-29T05:00:14.000Z</time>
      </trkpt>
      <trkpt lat="45.2299" lon="5.73148">
        <ele>702.40002441406</ele>
        <time>2021-05-29T05:00:17.000Z</time>
      </trkpt>
      <trkpt lat="45.22991" lon="5.73147">
        <ele>702.40002441406</ele>
        <time>2021-05-29T05:00:18.000Z</time>
      </trkpt>
      <trkpt lat="45.22992" lon="5.73146">
        <ele>703</ele>
        <time>2021-05-29T05:00:19.000Z</time>
      </trkpt>
      <trkpt lat="45.22993" lon="5.73146">
        <ele>703.40002441406</ele>
        <time>2021-05-29T05:00:20.000Z</time>
      </trkpt>
      <trkpt lat="45.22994" lon="5.73146">
        <ele>703.59997558594</ele>
        <time>2021-05-29T05:00:21.000Z</time>
      </trkpt>
      <trkpt lat="45.22996" lon="5.73146">
        <ele>703.59997558594</ele>
        <time>2021-05-29T05:00:22.000Z</time>
      </trkpt>
      <trkpt lat="45.22997" lon="5.73146">
        <ele>704</ele>
        <time>2021-05-29T05:00:23.000Z</time>
      </trkpt>
      <trkpt lat="45.22999" lon="5.73145">
        <ele>705</ele>
        <time>2021-05-29T05:00:26.000Z</time>
      </trkpt>
      <trkpt lat="45.23" lon="5.73144">
        <ele>705.20001220703</ele>
        <time>2021-05-29T05:00:27.000Z</time>
      </trkpt>
      <trkpt lat="45.23008" lon="5.73144">
        <ele>706.40002441406</ele>
        <time>2021-05-29T05:00:31.000Z</time>
      </trkpt>
      <trkpt lat="45.23011" lon="5.73145">
        <ele>706.79998779297</ele>
        <time>2021-05-29T05:00:33.000Z</time>
      </trkpt>
      <trkpt lat="45.23016" lon="5.73145">
        <ele>707.59997558594</ele>
        <time>2021-05-29T05:00:37.000Z</time>
      </trkpt>
      <trkpt lat="45.23019" lon="5.73146">
        <ele>708.40002441406</ele>
        <time>2021-05-29T05:00:40.000Z</time>
      </trkpt>
      <trkpt lat="45.2302" lon="5.73145">
        <ele>709</ele>
        <time>2021-05-29T05:00:42.000Z</time>
      </trkpt>
      <trkpt lat="45.23022" lon="5.73145">
        <ele>709.79998779297</ele>
        <time>2021-05-29T05:00:45.000Z</time>
      </trkpt>
      <trkpt lat="45.23024" lon="5.73145">
        <ele>710</ele>
        <time>2021-05-29T05:00:46.000Z</time>
      </trkpt>
      <trkpt lat="45.23027" lon="5.73146">
        <ele>711.40002441406</ele>
        <time>2021-05-29T05:00:49.000Z</time>
      </trkpt>
      <trkpt lat="45.23033" lon="5.73147">
        <ele>712.79998779297</ele>
        <time>2021-05-29T05:00:53.000Z</time>
      </trkpt>
      <trkpt lat="45.23037" lon="5.73149">
        <ele>713.79998779297</ele>
        <time>2021-05-29T05:00:56.000Z</time>
      </trkpt>
      <trkpt lat="45.2304" lon="5.7315">
        <ele>715</ele>
        <time>2021-05-29T05:01:00.000Z</time>
      </trkpt>
      <trkpt lat="45.23041" lon="5.73151">
        <ele>715.79998779297</ele>
        <time>2021-05-29T05:01:02.000Z</time>
      </trkpt>
      <trkpt lat="45.23043" lon="5.73152">
        <ele>716.40002441406</ele>
        <time>2021-05-29T05:01:04.000Z</time>
      </trkpt>
      <trkpt lat="45.23044" lon="5.73154">
        <ele>716.79998779297</ele>
        <time>2021-05-29T05:01:05.000Z</time>
      </trkpt>
      <trkpt lat="45.23045" lon="5.73155">
        <ele>717</ele>
        <time>2021-05-29T05:01:06.000Z</time>
      </trkpt>
      <trkpt lat="45.23046" lon="5.73157">
        <ele>717.59997558594</ele>
        <time>2021-05-29T05:01:09.000Z</time>
      </trkpt>
      <trkpt lat="45.23048" lon="5.73159">
        <ele>718.20001220703</ele>
        <time>2021-05-29T05:01:11.000Z</time>
      </trkpt>
      <trkpt lat="45.23049" lon="5.73161">
        <ele>718.79998779297</ele>
        <time>2021-05-29T05:01:13.000Z</time>
      </trkpt>
      <trkpt lat="45.23052" lon="5.73164">
        <ele>720</ele>
        <time>2021-05-29T05:01:17.000Z</time>
      </trkpt>
      <trkpt lat="45.23053" lon="5.73165">
        <ele>720.20001220703</ele>
        <time>2021-05-29T05:01:18.000Z</time>
      </trkpt>
      <trkpt lat="45.2306" lon="5.73169">
        <ele>721</ele>
        <time>2021-05-29T05:01:21.000Z</time>
      </trkpt>
      <trkpt lat="45.23064" lon="5.73172">
        <ele>721.59997558594</ele>
        <time>2021-05-29T05:01:23.000Z</time>
      </trkpt>
      <trkpt lat="45.23067" lon="5.73173">
        <ele>722</ele>
        <time>2021-05-29T05:01:25.000Z</time>
      </trkpt>
      <trkpt lat="45.23068" lon="5.73174">
        <ele>722.20001220703</ele>
        <time>2021-05-29T05:01:26.000Z</time>
      </trkpt>
      <trkpt lat="45.23073" lon="5.73177">
        <ele>722.79998779297</ele>
        <time>2021-05-29T05:01:30.000Z</time>
      </trkpt>
      <trkpt lat="45.23077" lon="5.73178">
        <ele>723</ele>
        <time>2021-05-29T05:01:32.000Z</time>
      </trkpt>
      <trkpt lat="45.23078" lon="5.73179">
        <ele>723.20001220703</ele>
        <time>2021-05-29T05:01:33.000Z</time>
      </trkpt>
      <trkpt lat="45.23079" lon="5.73179">
        <ele>723.59997558594</ele>
        <time>2021-05-29T05:01:34.000Z</time>
      </trkpt>
      <trkpt lat="45.23082" lon="5.73179">
        <ele>723.79998779297</ele>
        <time>2021-05-29T05:01:36.000Z</time>
      </trkpt>
      <trkpt lat="45.23085" lon="5.73176">
        <ele>724</ele>
        <time>2021-05-29T05:01:39.000Z</time>
      </trkpt>
      <trkpt lat="45.23086" lon="5.73177">
        <ele>724.20001220703</ele>
        <time>2021-05-29T05:01:40.000Z</time>
      </trkpt>
      <trkpt lat="45.23087" lon="5.73177">
        <ele>724.20001220703</ele>
        <time>2021-05-29T05:01:41.000Z</time>
      </trkpt>
      <trkpt lat="45.23095" lon="5.73176">
        <ele>725.20001220703</ele>
        <time>2021-05-29T05:01:45.000Z</time>
      </trkpt>
      <trkpt lat="45.23097" lon="5.73176">
        <ele>725.40002441406</ele>
        <time>2021-05-29T05:01:46.000Z</time>
      </trkpt>
      <trkpt lat="45.231" lon="5.73174">
        <ele>726</ele>
        <time>2021-05-29T05:01:49.000Z</time>
      </trkpt>
      <trkpt lat="45.23101" lon="5.73175">
        <ele>726.20001220703</ele>
        <time>2021-05-29T05:01:50.000Z</time>
      </trkpt>
      <trkpt lat="45.23102" lon="5.73174">
        <ele>726.59997558594</ele>
        <time>2021-05-29T05:01:51.000Z</time>
      </trkpt>
      <trkpt lat="45.23105" lon="5.73174">
        <ele>727.20001220703</ele>
        <time>2021-05-29T05:01:53.000Z</time>
      </trkpt>
      <trkpt lat="45.23108" lon="5.73175">
        <ele>727.79998779297</ele>
        <time>2021-05-29T05:01:55.000Z</time>
      </trkpt>
      <trkpt lat="45.2311" lon="5.73176">
        <ele>728.20001220703</ele>
        <time>2021-05-29T05:01:56.000Z</time>
      </trkpt>
      <trkpt lat="45.23113" lon="5.73176">
        <ele>729</ele>
        <time>2021-05-29T05:01:59.000Z</time>
      </trkpt>
      <trkpt lat="45.23115" lon="5.73176">
        <ele>729.20001220703</ele>
        <time>2021-05-29T05:02:00.000Z</time>
      </trkpt>
      <trkpt lat="45.23118" lon="5.73178">
        <ele>729.79998779297</ele>
        <time>2021-05-29T05:02:02.000Z</time>
      </trkpt>
      <trkpt lat="45.23122" lon="5.73178">
        <ele>730.20001220703</ele>
        <time>2021-05-29T05:02:05.000Z</time>
      </trkpt>
      <trkpt lat="45.23124" lon="5.73178">
        <ele>730.79998779297</ele>
        <time>2021-05-29T05:02:07.000Z</time>
      </trkpt>
      <trkpt lat="45.23128" lon="5.73179">
        <ele>731.20001220703</ele>
        <time>2021-05-29T05:02:09.000Z</time>
      </trkpt>
      <trkpt lat="45.2313" lon="5.73179">
        <ele>731.59997558594</ele>
        <time>2021-05-29T05:02:11.000Z</time>
      </trkpt>
      <trkpt lat="45.23139" lon="5.73181">
        <ele>732.40002441406</ele>
        <time>2021-05-29T05:02:15.000Z</time>
      </trkpt>
      <trkpt lat="45.23141" lon="5.73181">
        <ele>732.40002441406</ele>
        <time>2021-05-29T05:02:16.000Z</time>
      </trkpt>
      <trkpt lat="45.23149" lon="5.73184">
        <ele>733.20001220703</ele>
        <time>2021-05-29T05:02:20.000Z</time>
      </trkpt>
      <trkpt lat="45.23153" lon="5.73188">
        <ele>733.40002441406</ele>
        <time>2021-05-29T05:02:22.000Z</time>
      </trkpt>
      <trkpt lat="45.23156" lon="5.73191">
        <ele>733.79998779297</ele>
        <time>2021-05-29T05:02:24.000Z</time>
      </trkpt>
      <trkpt lat="45.23158" lon="5.73192">
        <ele>734</ele>
        <time>2021-05-29T05:02:25.000Z</time>
      </trkpt>
      <trkpt lat="45.23162" lon="5.73194">
        <ele>734.59997558594</ele>
        <time>2021-05-29T05:02:28.000Z</time>
      </trkpt>
      <trkpt lat="45.23165" lon="5.73197">
        <ele>734.79998779297</ele>
        <time>2021-05-29T05:02:30.000Z</time>
      </trkpt>
      <trkpt lat="45.23172" lon="5.732">
        <ele>735.79998779297</ele>
        <time>2021-05-29T05:02:35.000Z</time>
      </trkpt>
      <trkpt lat="45.23175" lon="5.73203">
        <ele>736.20001220703</ele>
        <time>2021-05-29T05:02:38.000Z</time>
      </trkpt>
      <trkpt lat="45.23178" lon="5.73204">
        <ele>736.40002441406</ele>
        <time>2021-05-29T05:02:40.000Z</time>
      </trkpt>
      <trkpt lat="45.23181" lon="5.73207">
        <ele>736.79998779297</ele>
        <time>2021-05-29T05:02:42.000Z</time>
      </trkpt>
      <trkpt lat="45.23187" lon="5.73212">
        <ele>737.79998779297</ele>
        <time>2021-05-29T05:02:46.000Z</time>
      </trkpt>
      <trkpt lat="45.23188" lon="5.73213">
        <ele>738</ele>
        <time>2021-05-29T05:02:47.000Z</time>
      </trkpt>
      <trkpt lat="45.23192" lon="5.73213">
        <ele>738.79998779297</ele>
        <time>2021-05-29T05:02:50.000Z</time>
      </trkpt>
      <trkpt lat="45.23196" lon="5.73214">
        <ele>739.20001220703</ele>
        <time>2021-05-29T05:02:52.000Z</time>
      </trkpt>
      <trkpt lat="45.23201" lon="5.73217">
        <ele>739.79998779297</ele>
        <time>2021-05-29T05:02:54.000Z</time>
      </trkpt>
      <trkpt lat="45.23205" lon="5.73217">
        <ele>740.40002441406</ele>
        <time>2021-05-29T05:02:56.000Z</time>
      </trkpt>
      <trkpt lat="45.23206" lon="5.73217">
        <ele>740.79998779297</ele>
        <time>2021-05-29T05:02:57.000Z</time>
      </trkpt>
      <trkpt lat="45.23216" lon="5.73223">
        <ele>741.79998779297</ele>
        <time>2021-05-29T05:03:01.000Z</time>
      </trkpt>
      <trkpt lat="45.23217" lon="5.73225">
        <ele>742</ele>
        <time>2021-05-29T05:03:02.000Z</time>
      </trkpt>
      <trkpt lat="45.2322" lon="5.73228">
        <ele>743</ele>
        <time>2021-05-29T05:03:05.000Z</time>
      </trkpt>
      <trkpt lat="45.23224" lon="5.73231">
        <ele>744</ele>
        <time>2021-05-29T05:03:08.000Z</time>
      </trkpt>
      <trkpt lat="45.23228" lon="5.73234">
        <ele>744.79998779297</ele>
        <time>2021-05-29T05:03:11.000Z</time>
      </trkpt>
      <trkpt lat="45.23229" lon="5.73236">
        <ele>745.20001220703</ele>
        <time>2021-05-29T05:03:12.000Z</time>
      </trkpt>
      <trkpt lat="45.23231" lon="5.73237">
        <ele>745.40002441406</ele>
        <time>2021-05-29T05:03:13.000Z</time>
      </trkpt>
      <trkpt lat="45.23232" lon="5.73239">
        <ele>746.40002441406</ele>
        <time>2021-05-29T05:03:16.000Z</time>
      </trkpt>
      <trkpt lat="45.23234" lon="5.73241">
        <ele>747.20001220703</ele>
        <time>2021-05-29T05:03:18.000Z</time>
      </trkpt>
      <trkpt lat="45.23235" lon="5.73241">
        <ele>747.59997558594</ele>
        <time>2021-05-29T05:03:19.000Z</time>
      </trkpt>
      <trkpt lat="45.23237" lon="5.73244">
        <ele>748.20001220703</ele>
        <time>2021-05-29T05:03:21.000Z</time>
      </trkpt>
      <trkpt lat="45.23239" lon="5.73246">
        <ele>748.79998779297</ele>
        <time>2021-05-29T05:03:23.000Z</time>
      </trkpt>
      <trkpt lat="45.23241" lon="5.73247">
        <ele>749.79998779297</ele>
        <time>2021-05-29T05:03:25.000Z</time>
      </trkpt>
      <trkpt lat="45.23241" lon="5.73247">
        <ele>750</ele>
        <time>2021-05-29T05:03:26.000Z</time>
      </trkpt>
      <trkpt lat="45.23242" lon="5.73248">
        <ele>750.40002441406</ele>
        <time>2021-05-29T05:03:27.000Z</time>
      </trkpt>
      <trkpt lat="45.23243" lon="5.73249">
        <ele>750.79998779297</ele>
        <time>2021-05-29T05:03:29.000Z</time>
      </trkpt>
      <trkpt lat="45.23246" lon="5.7325">
        <ele>751.79998779297</ele>
        <time>2021-05-29T05:03:32.000Z</time>
      </trkpt>
      <trkpt lat="45.23247" lon="5.7325">
        <ele>752</ele>
        <time>2021-05-29T05:03:33.000Z</time>
      </trkpt>
      <trkpt lat="45.23249" lon="5.73251">
        <ele>752.79998779297</ele>
        <time>2021-05-29T05:03:35.000Z</time>
      </trkpt>
      <trkpt lat="45.2325" lon="5.73251">
        <ele>753.20001220703</ele>
        <time>2021-05-29T05:03:36.000Z</time>
      </trkpt>
      <trkpt lat="45.2325" lon="5.73252">
        <ele>753.40002441406</ele>
        <time>2021-05-29T05:03:37.000Z</time>
      </trkpt>
      <trkpt lat="45.23251" lon="5.73252">
        <ele>753.59997558594</ele>
        <time>2021-05-29T05:03:38.000Z</time>
      </trkpt>
      <trkpt lat="45.23251" lon="5.73253">
        <ele>754</ele>
        <time>2021-05-29T05:03:39.000Z</time>
      </trkpt>
      <trkpt lat="45.23252" lon="5.73254">
        <ele>754.40002441406</ele>
        <time>2021-05-29T05:03:40.000Z</time>
      </trkpt>
      <trkpt lat="45.23252" lon="5.73256">
        <ele>754.59997558594</ele>
        <time>2021-05-29T05:03:41.000Z</time>
      </trkpt>
      <trkpt lat="45.23253" lon="5.7326">
        <ele>755</ele>
        <time>2021-05-29T05:03:44.000Z</time>
      </trkpt>
      <trkpt lat="45.23253" lon="5.73266">
        <ele>755.79998779297</ele>
        <time>2021-05-29T05:03:46.000Z</time>
      </trkpt>
      <trkpt lat="45.23253" lon="5.73267">
        <ele>756</ele>
        <time>2021-05-29T05:03:47.000Z</time>
      </trkpt>
      <trkpt lat="45.23252" lon="5.73273">
        <ele>756.79998779297</ele>
        <time>2021-05-29T05:03:50.000Z</time>
      </trkpt>
      <trkpt lat="45.23252" lon="5.73282">
        <ele>757.40002441406</ele>
        <time>2021-05-29T05:03:53.000Z</time>
      </trkpt>
      <trkpt lat="45.23252" lon="5.73284">
        <ele>758</ele>
        <time>2021-05-29T05:03:54.000Z</time>
      </trkpt>
      <trkpt lat="45.23253" lon="5.73285">
        <ele>758.40002441406</ele>
        <time>2021-05-29T05:03:55.000Z</time>
      </trkpt>
      <trkpt lat="45.23254" lon="5.73287">
        <ele>758.79998779297</ele>
        <time>2021-05-29T05:03:57.000Z</time>
      </trkpt>
      <trkpt lat="45.23254" lon="5.73285">
        <ele>759.20001220703</ele>
        <time>2021-05-29T05:03:59.000Z</time>
      </trkpt>
      <trkpt lat="45.23255" lon="5.73284">
        <ele>759.20001220703</ele>
        <time>2021-05-29T05:04:00.000Z</time>
      </trkpt>
      <trkpt lat="45.23259" lon="5.73276">
        <ele>759.40002441406</ele>
        <time>2021-05-29T05:04:05.000Z</time>
      </trkpt>
      <trkpt lat="45.23262" lon="5.73272">
        <ele>759.40002441406</ele>
        <time>2021-05-29T05:04:08.000Z</time>
      </trkpt>
      <trkpt lat="45.23268" lon="5.73263">
        <ele>758.40002441406</ele>
        <time>2021-05-29T05:04:13.000Z</time>
      </trkpt>
      <trkpt lat="45.23271" lon="5.7326">
        <ele>757.59997558594</ele>
        <time>2021-05-29T05:04:15.000Z</time>
      </trkpt>
      <trkpt lat="45.23273" lon="5.73258">
        <ele>757.40002441406</ele>
        <time>2021-05-29T05:04:16.000Z</time>
      </trkpt>
      <trkpt lat="45.23276" lon="5.73258">
        <ele>756.79998779297</ele>
        <time>2021-05-29T05:04:18.000Z</time>
      </trkpt>
      <trkpt lat="45.23278" lon="5.73258">
        <ele>756.20001220703</ele>
        <time>2021-05-29T05:04:19.000Z</time>
      </trkpt>
      <trkpt lat="45.2328" lon="5.73258">
        <ele>755.79998779297</ele>
        <time>2021-05-29T05:04:20.000Z</time>
      </trkpt>
      <trkpt lat="45.23283" lon="5.7326">
        <ele>755.20001220703</ele>
        <time>2021-05-29T05:04:22.000Z</time>
      </trkpt>
      <trkpt lat="45.2329" lon="5.73261">
        <ele>754</ele>
        <time>2021-05-29T05:04:25.000Z</time>
      </trkpt>
      <trkpt lat="45.23298" lon="5.73261">
        <ele>752.79998779297</ele>
        <time>2021-05-29T05:04:29.000Z</time>
      </trkpt>
      <trkpt lat="45.23307" lon="5.73264">
        <ele>751.79998779297</ele>
        <time>2021-05-29T05:04:33.000Z</time>
      </trkpt>
      <trkpt lat="45.2331" lon="5.73268">
        <ele>751.59997558594</ele>
        <time>2021-05-29T05:04:35.000Z</time>
      </trkpt>
      <trkpt lat="45.23313" lon="5.73269">
        <ele>751.59997558594</ele>
        <time>2021-05-29T05:04:36.000Z</time>
      </trkpt>
      <trkpt lat="45.23315" lon="5.73272">
        <ele>751.59997558594</ele>
        <time>2021-05-29T05:04:37.000Z</time>
      </trkpt>
      <trkpt lat="45.23322" lon="5.73277">
        <ele>751.20001220703</ele>
        <time>2021-05-29T05:04:40.000Z</time>
      </trkpt>
      <trkpt lat="45.23324" lon="5.73278">
        <ele>751.20001220703</ele>
        <time>2021-05-29T05:04:41.000Z</time>
      </trkpt>
      <trkpt lat="45.23327" lon="5.73281">
        <ele>751.20001220703</ele>
        <time>2021-05-29T05:04:43.000Z</time>
      </trkpt>
      <trkpt lat="45.23331" lon="5.73284">
        <ele>751</ele>
        <time>2021-05-29T05:04:45.000Z</time>
      </trkpt>
      <trkpt lat="45.23334" lon="5.73287">
        <ele>750.79998779297</ele>
        <time>2021-05-29T05:04:47.000Z</time>
      </trkpt>
      <trkpt lat="45.23338" lon="5.7329">
        <ele>750.59997558594</ele>
        <time>2021-05-29T05:04:49.000Z</time>
      </trkpt>
      <trkpt lat="45.23345" lon="5.73295">
        <ele>751</ele>
        <time>2021-05-29T05:04:53.000Z</time>
      </trkpt>
      <trkpt lat="45.23347" lon="5.73298">
        <ele>751.20001220703</ele>
        <time>2021-05-29T05:04:55.000Z</time>
      </trkpt>
      <trkpt lat="45.2335" lon="5.73302">
        <ele>751.59997558594</ele>
        <time>2021-05-29T05:04:57.000Z</time>
      </trkpt>
      <trkpt lat="45.23351" lon="5.73304">
        <ele>752.20001220703</ele>
        <time>2021-05-29T05:04:58.000Z</time>
      </trkpt>
      <trkpt lat="45.23351" lon="5.73306">
        <ele>752.40002441406</ele>
        <time>2021-05-29T05:04:59.000Z</time>
      </trkpt>
      <trkpt lat="45.23352" lon="5.73308">
        <ele>753</ele>
        <time>2021-05-29T05:05:01.000Z</time>
      </trkpt>
      <trkpt lat="45.23353" lon="5.73312">
        <ele>754</ele>
        <time>2021-05-29T05:05:04.000Z</time>
      </trkpt>
      <trkpt lat="45.23354" lon="5.73314">
        <ele>754.59997558594</ele>
        <time>2021-05-29T05:05:06.000Z</time>
      </trkpt>
      <trkpt lat="45.23354" lon="5.73316">
        <ele>755</ele>
        <time>2021-05-29T05:05:08.000Z</time>
      </trkpt>
      <trkpt lat="45.23354" lon="5.73317">
        <ele>755.40002441406</ele>
        <time>2021-05-29T05:05:09.000Z</time>
      </trkpt>
      <trkpt lat="45.23355" lon="5.73318">
        <ele>755.79998779297</ele>
        <time>2021-05-29T05:05:10.000Z</time>
      </trkpt>
      <trkpt lat="45.23356" lon="5.7332">
        <ele>756.20001220703</ele>
        <time>2021-05-29T05:05:12.000Z</time>
      </trkpt>
      <trkpt lat="45.23356" lon="5.7332">
        <ele>756.59997558594</ele>
        <time>2021-05-29T05:05:13.000Z</time>
      </trkpt>
      <trkpt lat="45.23356" lon="5.73323">
        <ele>757</ele>
        <time>2021-05-29T05:05:15.000Z</time>
      </trkpt>
      <trkpt lat="45.23356" lon="5.73324">
        <ele>757.59997558594</ele>
        <time>2021-05-29T05:05:17.000Z</time>
      </trkpt>
      <trkpt lat="45.23356" lon="5.73325">
        <ele>757.79998779297</ele>
        <time>2021-05-29T05:05:18.000Z</time>
      </trkpt>
      <trkpt lat="45.23358" lon="5.73329">
        <ele>758.79998779297</ele>
        <time>2021-05-29T05:05:22.000Z</time>
      </trkpt>
      <trkpt lat="45.23359" lon="5.7333">
        <ele>759.40002441406</ele>
        <time>2021-05-29T05:05:24.000Z</time>
      </trkpt>
      <trkpt lat="45.23359" lon="5.73331">
        <ele>759.79998779297</ele>
        <time>2021-05-29T05:05:26.000Z</time>
      </trkpt>
      <trkpt lat="45.23361" lon="5.73334">
        <ele>760.40002441406</ele>
        <time>2021-05-29T05:05:29.000Z</time>
      </trkpt>
      <trkpt lat="45.23361" lon="5.73334">
        <ele>761</ele>
        <time>2021-05-29T05:05:30.000Z</time>
      </trkpt>
      <trkpt lat="45.23362" lon="5.73335">
        <ele>761.20001220703</ele>
        <time>2021-05-29T05:05:31.000Z</time>
      </trkpt>
      <trkpt lat="45.23363" lon="5.73339">
        <ele>762</ele>
        <time>2021-05-29T05:05:34.000Z</time>
      </trkpt>
      <trkpt lat="45.23364" lon="5.73341">
        <ele>762.20001220703</ele>
        <time>2021-05-29T05:05:35.000Z</time>
      </trkpt>
      <trkpt lat="45.23365" lon="5.73342">
        <ele>762.40002441406</ele>
        <time>2021-05-29T05:05:36.000Z</time>
      </trkpt>
      <trkpt lat="45.23366" lon="5.73343">
        <ele>762.59997558594</ele>
        <time>2021-05-29T05:05:37.000Z</time>
      </trkpt>
      <trkpt lat="45.23367" lon="5.73344">
        <ele>762.79998779297</ele>
        <time>2021-05-29T05:05:38.000Z</time>
      </trkpt>
      <trkpt lat="45.23367" lon="5.73344">
        <ele>763.40002441406</ele>
        <time>2021-05-29T05:05:39.000Z</time>
      </trkpt>
      <trkpt lat="45.23368" lon="5.73347">
        <ele>763.79998779297</ele>
        <time>2021-05-29T05:05:41.000Z</time>
      </trkpt>
      <trkpt lat="45.23368" lon="5.73348">
        <ele>764</ele>
        <time>2021-05-29T05:05:42.000Z</time>
      </trkpt>
      <trkpt lat="45.2337" lon="5.73351">
        <ele>764.59997558594</ele>
        <time>2021-05-29T05:05:44.000Z</time>
      </trkpt>
      <trkpt lat="45.2337" lon="5.73353">
        <ele>764.79998779297</ele>
        <time>2021-05-29T05:05:45.000Z</time>
      </trkpt>
      <trkpt lat="45.23372" lon="5.73358">
        <ele>765.59997558594</ele>
        <time>2021-05-29T05:05:48.000Z</time>
      </trkpt>
      <trkpt lat="45.23373" lon="5.73359">
        <ele>766</ele>
        <time>2021-05-29T05:05:49.000Z</time>
      </trkpt>
      <trkpt lat="45.23374" lon="5.73361">
        <ele>766.59997558594</ele>
        <time>2021-05-29T05:05:51.000Z</time>
      </trkpt>
      <trkpt lat="45.23376" lon="5.73368">
        <ele>767.59997558594</ele>
        <time>2021-05-29T05:05:54.000Z</time>
      </trkpt>
      <trkpt lat="45.23376" lon="5.7337">
        <ele>767.79998779297</ele>
        <time>2021-05-29T05:05:55.000Z</time>
      </trkpt>
      <trkpt lat="45.23378" lon="5.73373">
        <ele>768.59997558594</ele>
        <time>2021-05-29T05:05:57.000Z</time>
      </trkpt>
      <trkpt lat="45.23378" lon="5.73374">
        <ele>769</ele>
        <time>2021-05-29T05:05:58.000Z</time>
      </trkpt>
      <trkpt lat="45.23379" lon="5.73376">
        <ele>769.59997558594</ele>
        <time>2021-05-29T05:06:00.000Z</time>
      </trkpt>
      <trkpt lat="45.23381" lon="5.73379">
        <ele>770.20001220703</ele>
        <time>2021-05-29T05:06:01.000Z</time>
      </trkpt>
      <trkpt lat="45.23381" lon="5.73379">
        <ele>770.59997558594</ele>
        <time>2021-05-29T05:06:03.000Z</time>
      </trkpt>
      <trkpt lat="45.23382" lon="5.73382">
        <ele>771.59997558594</ele>
        <time>2021-05-29T05:06:06.000Z</time>
      </trkpt>
      <trkpt lat="45.23384" lon="5.73386">
        <ele>773</ele>
        <time>2021-05-29T05:06:10.000Z</time>
      </trkpt>
      <trkpt lat="45.23385" lon="5.73386">
        <ele>773.40002441406</ele>
        <time>2021-05-29T05:06:11.000Z</time>
      </trkpt>
      <trkpt lat="45.23386" lon="5.7339">
        <ele>774.40002441406</ele>
        <time>2021-05-29T05:06:15.000Z</time>
      </trkpt>
      <trkpt lat="45.23387" lon="5.73391">
        <ele>774.59997558594</ele>
        <time>2021-05-29T05:06:16.000Z</time>
      </trkpt>
      <trkpt lat="45.23389" lon="5.73393">
        <ele>775.59997558594</ele>
        <time>2021-05-29T05:06:20.000Z</time>
      </trkpt>
      <trkpt lat="45.23389" lon="5.73397">
        <ele>776.20001220703</ele>
        <time>2021-05-29T05:06:23.000Z</time>
      </trkpt>
      <trkpt lat="45.2339" lon="5.73399">
        <ele>776.40002441406</ele>
        <time>2021-05-29T05:06:24.000Z</time>
      </trkpt>
      <trkpt lat="45.2339" lon="5.734">
        <ele>776.59997558594</ele>
        <time>2021-05-29T05:06:25.000Z</time>
      </trkpt>
      <trkpt lat="45.2339" lon="5.73406">
        <ele>777.79998779297</ele>
        <time>2021-05-29T05:06:29.000Z</time>
      </trkpt>
      <trkpt lat="45.23391" lon="5.73407">
        <ele>778</ele>
        <time>2021-05-29T05:06:30.000Z</time>
      </trkpt>
      <trkpt lat="45.23391" lon="5.73408">
        <ele>778.59997558594</ele>
        <time>2021-05-29T05:06:32.000Z</time>
      </trkpt>
      <trkpt lat="45.23392" lon="5.73408">
        <ele>779</ele>
        <time>2021-05-29T05:06:33.000Z</time>
      </trkpt>
      <trkpt lat="45.23393" lon="5.73409">
        <ele>779.20001220703</ele>
        <time>2021-05-29T05:06:34.000Z</time>
      </trkpt>
      <trkpt lat="45.23394" lon="5.73413">
        <ele>780</ele>
        <time>2021-05-29T05:06:36.000Z</time>
      </trkpt>
      <trkpt lat="45.23396" lon="5.73415">
        <ele>780.79998779297</ele>
        <time>2021-05-29T05:06:39.000Z</time>
      </trkpt>
      <trkpt lat="45.23397" lon="5.73419">
        <ele>781.20001220703</ele>
        <time>2021-05-29T05:06:41.000Z</time>
      </trkpt>
      <trkpt lat="45.23397" lon="5.7342">
        <ele>781.59997558594</ele>
        <time>2021-05-29T05:06:42.000Z</time>
      </trkpt>
      <trkpt lat="45.23397" lon="5.73424">
        <ele>782.40002441406</ele>
        <time>2021-05-29T05:06:44.000Z</time>
      </trkpt>
      <trkpt lat="45.23397" lon="5.73425">
        <ele>782.59997558594</ele>
        <time>2021-05-29T05:06:45.000Z</time>
      </trkpt>
      <trkpt lat="45.23398" lon="5.73428">
        <ele>783.59997558594</ele>
        <time>2021-05-29T05:06:48.000Z</time>
      </trkpt>
      <trkpt lat="45.23399" lon="5.73429">
        <ele>784.20001220703</ele>
        <time>2021-05-29T05:06:50.000Z</time>
      </trkpt>
      <trkpt lat="45.234" lon="5.73432">
        <ele>784.79998779297</ele>
        <time>2021-05-29T05:06:53.000Z</time>
      </trkpt>
      <trkpt lat="45.234" lon="5.73433">
        <ele>786</ele>
        <time>2021-05-29T05:06:56.000Z</time>
      </trkpt>
      <trkpt lat="45.23401" lon="5.73438">
        <ele>787.20001220703</ele>
        <time>2021-05-29T05:07:01.000Z</time>
      </trkpt>
      <trkpt lat="45.23401" lon="5.73438">
        <ele>787.40002441406</ele>
        <time>2021-05-29T05:07:02.000Z</time>
      </trkpt>
      <trkpt lat="45.23401" lon="5.73439">
        <ele>787.79998779297</ele>
        <time>2021-05-29T05:07:03.000Z</time>
      </trkpt>
      <trkpt lat="45.23401" lon="5.73442">
        <ele>788.40002441406</ele>
        <time>2021-05-29T05:07:07.000Z</time>
      </trkpt>
      <trkpt lat="45.23401" lon="5.73444">
        <ele>789</ele>
        <time>2021-05-29T05:07:08.000Z</time>
      </trkpt>
      <trkpt lat="45.23402" lon="5.73445">
        <ele>789.40002441406</ele>
        <time>2021-05-29T05:07:09.000Z</time>
      </trkpt>
      <trkpt lat="45.23404" lon="5.73447">
        <ele>790.20001220703</ele>
        <time>2021-05-29T05:07:11.000Z</time>
      </trkpt>
      <trkpt lat="45.23405" lon="5.73449">
        <ele>790.40002441406</ele>
        <time>2021-05-29T05:07:12.000Z</time>
      </trkpt>
      <trkpt lat="45.23406" lon="5.73452">
        <ele>790.79998779297</ele>
        <time>2021-05-29T05:07:14.000Z</time>
      </trkpt>
      <trkpt lat="45.23406" lon="5.73452">
        <ele>791.59997558594</ele>
        <time>2021-05-29T05:07:16.000Z</time>
      </trkpt>
      <trkpt lat="45.23406" lon="5.73454">
        <ele>792</ele>
        <time>2021-05-29T05:07:18.000Z</time>
      </trkpt>
      <trkpt lat="45.23406" lon="5.73456">
        <ele>792</ele>
        <time>2021-05-29T05:07:19.000Z</time>
      </trkpt>
      <trkpt lat="45.23406" lon="5.73459">
        <ele>792.59997558594</ele>
        <time>2021-05-29T05:07:21.000Z</time>
      </trkpt>
      <trkpt lat="45.23407" lon="5.73459">
        <ele>793.20001220703</ele>
        <time>2021-05-29T05:07:22.000Z</time>
      </trkpt>
      <trkpt lat="45.23409" lon="5.73464">
        <ele>793.79998779297</ele>
        <time>2021-05-29T05:07:25.000Z</time>
      </trkpt>
      <trkpt lat="45.23412" lon="5.73469">
        <ele>795</ele>
        <time>2021-05-29T05:07:29.000Z</time>
      </trkpt>
      <trkpt lat="45.23415" lon="5.73475">
        <ele>795.79998779297</ele>
        <time>2021-05-29T05:07:34.000Z</time>
      </trkpt>
      <trkpt lat="45.23416" lon="5.73475">
        <ele>796</ele>
        <time>2021-05-29T05:07:35.000Z</time>
      </trkpt>
      <trkpt lat="45.23418" lon="5.73478">
        <ele>797</ele>
        <time>2021-05-29T05:07:38.000Z</time>
      </trkpt>
      <trkpt lat="45.23419" lon="5.7348">
        <ele>797.20001220703</ele>
        <time>2021-05-29T05:07:39.000Z</time>
      </trkpt>
      <trkpt lat="45.2342" lon="5.73483">
        <ele>798</ele>
        <time>2021-05-29T05:07:42.000Z</time>
      </trkpt>
      <trkpt lat="45.23421" lon="5.73484">
        <ele>798.20001220703</ele>
        <time>2021-05-29T05:07:43.000Z</time>
      </trkpt>
      <trkpt lat="45.23422" lon="5.73485">
        <ele>799</ele>
        <time>2021-05-29T05:07:45.000Z</time>
      </trkpt>
      <trkpt lat="45.23422" lon="5.73486">
        <ele>799.40002441406</ele>
        <time>2021-05-29T05:07:46.000Z</time>
      </trkpt>
      <trkpt lat="45.23426" lon="5.73496">
        <ele>800.59997558594</ele>
        <time>2021-05-29T05:07:51.000Z</time>
      </trkpt>
      <trkpt lat="45.23428" lon="5.73499">
        <ele>801.79998779297</ele>
        <time>2021-05-29T05:07:53.000Z</time>
      </trkpt>
      <trkpt lat="45.23433" lon="5.73502">
        <ele>803.20001220703</ele>
        <time>2021-05-29T05:07:58.000Z</time>
      </trkpt>
      <trkpt lat="45.23437" lon="5.73507">
        <ele>804.20001220703</ele>
        <time>2021-05-29T05:08:03.000Z</time>
      </trkpt>
      <trkpt lat="45.23437" lon="5.73507">
        <ele>805</ele>
        <time>2021-05-29T05:08:05.000Z</time>
      </trkpt>
      <trkpt lat="45.23438" lon="5.73508">
        <ele>805.40002441406</ele>
        <time>2021-05-29T05:08:06.000Z</time>
      </trkpt>
      <trkpt lat="45.23438" lon="5.73509">
        <ele>805.59997558594</ele>
        <time>2021-05-29T05:08:07.000Z</time>
      </trkpt>
      <trkpt lat="45.2344" lon="5.73511">
        <ele>806.59997558594</ele>
        <time>2021-05-29T05:08:11.000Z</time>
      </trkpt>
      <trkpt lat="45.23441" lon="5.73512">
        <ele>806.79998779297</ele>
        <time>2021-05-29T05:08:12.000Z</time>
      </trkpt>
      <trkpt lat="45.23444" lon="5.73517">
        <ele>807.79998779297</ele>
        <time>2021-05-29T05:08:16.000Z</time>
      </trkpt>
      <trkpt lat="45.23445" lon="5.73518">
        <ele>808.20001220703</ele>
        <time>2021-05-29T05:08:17.000Z</time>
      </trkpt>
      <trkpt lat="45.23447" lon="5.73519">
        <ele>808.79998779297</ele>
        <time>2021-05-29T05:08:19.000Z</time>
      </trkpt>
      <trkpt lat="45.23448" lon="5.73525">
        <ele>810</ele>
        <time>2021-05-29T05:08:24.000Z</time>
      </trkpt>
      <trkpt lat="45.23449" lon="5.73529">
        <ele>810.59997558594</ele>
        <time>2021-05-29T05:08:26.000Z</time>
      </trkpt>
      <trkpt lat="45.23451" lon="5.73535">
        <ele>811.20001220703</ele>
        <time>2021-05-29T05:08:29.000Z</time>
      </trkpt>
      <trkpt lat="45.23453" lon="5.73538">
        <ele>812.59997558594</ele>
        <time>2021-05-29T05:08:32.000Z</time>
      </trkpt>
      <trkpt lat="45.23456" lon="5.73541">
        <ele>813.79998779297</ele>
        <time>2021-05-29T05:08:36.000Z</time>
      </trkpt>
      <trkpt lat="45.23456" lon="5.73542">
        <ele>814.79998779297</ele>
        <time>2021-05-29T05:08:38.000Z</time>
      </trkpt>
      <trkpt lat="45.23457" lon="5.73542">
        <ele>815</ele>
        <time>2021-05-29T05:08:39.000Z</time>
      </trkpt>
      <trkpt lat="45.23458" lon="5.73543">
        <ele>815</ele>
        <time>2021-05-29T05:08:40.000Z</time>
      </trkpt>
      <trkpt lat="45.2346" lon="5.73546">
        <ele>816</ele>
        <time>2021-05-29T05:08:44.000Z</time>
      </trkpt>
      <trkpt lat="45.2346" lon="5.73546">
        <ele>816.79998779297</ele>
        <time>2021-05-29T05:08:45.000Z</time>
      </trkpt>
      <trkpt lat="45.2346" lon="5.73547">
        <ele>817.20001220703</ele>
        <time>2021-05-29T05:08:46.000Z</time>
      </trkpt>
      <trkpt lat="45.23463" lon="5.73548">
        <ele>818.20001220703</ele>
        <time>2021-05-29T05:08:50.000Z</time>
      </trkpt>
      <trkpt lat="45.23463" lon="5.73548">
        <ele>818.79998779297</ele>
        <time>2021-05-29T05:08:51.000Z</time>
      </trkpt>
      <trkpt lat="45.23464" lon="5.73548">
        <ele>819.20001220703</ele>
        <time>2021-05-29T05:08:52.000Z</time>
      </trkpt>
      <trkpt lat="45.23464" lon="5.73553">
        <ele>819.79998779297</ele>
        <time>2021-05-29T05:08:55.000Z</time>
      </trkpt>
      <trkpt lat="45.23464" lon="5.73555">
        <ele>820</ele>
        <time>2021-05-29T05:08:56.000Z</time>
      </trkpt>
      <trkpt lat="45.23464" lon="5.73557">
        <ele>820.59997558594</ele>
        <time>2021-05-29T05:08:58.000Z</time>
      </trkpt>
      <trkpt lat="45.23465" lon="5.73558">
        <ele>820.79998779297</ele>
        <time>2021-05-29T05:08:59.000Z</time>
      </trkpt>
      <trkpt lat="45.23465" lon="5.73559">
        <ele>821.20001220703</ele>
        <time>2021-05-29T05:09:00.000Z</time>
      </trkpt>
      <trkpt lat="45.23466" lon="5.73561">
        <ele>822.59997558594</ele>
        <time>2021-05-29T05:09:03.000Z</time>
      </trkpt>
      <trkpt lat="45.23468" lon="5.73563">
        <ele>823.40002441406</ele>
        <time>2021-05-29T05:09:05.000Z</time>
      </trkpt>
      <trkpt lat="45.23468" lon="5.73565">
        <ele>823.59997558594</ele>
        <time>2021-05-29T05:09:06.000Z</time>
      </trkpt>
      <trkpt lat="45.23469" lon="5.73566">
        <ele>823.79998779297</ele>
        <time>2021-05-29T05:09:07.000Z</time>
      </trkpt>
      <trkpt lat="45.23469" lon="5.73568">
        <ele>824.20001220703</ele>
        <time>2021-05-29T05:09:09.000Z</time>
      </trkpt>
      <trkpt lat="45.2347" lon="5.73568">
        <ele>824.79998779297</ele>
        <time>2021-05-29T05:09:11.000Z</time>
      </trkpt>
      <trkpt lat="45.23473" lon="5.73569">
        <ele>825.79998779297</ele>
        <time>2021-05-29T05:09:14.000Z</time>
      </trkpt>
      <trkpt lat="45.23474" lon="5.7357">
        <ele>826</ele>
        <time>2021-05-29T05:09:15.000Z</time>
      </trkpt>
      <trkpt lat="45.23474" lon="5.73571">
        <ele>826.59997558594</ele>
        <time>2021-05-29T05:09:17.000Z</time>
      </trkpt>
      <trkpt lat="45.23475" lon="5.73572">
        <ele>827</ele>
        <time>2021-05-29T05:09:18.000Z</time>
      </trkpt>
      <trkpt lat="45.23474" lon="5.73574">
        <ele>827.40002441406</ele>
        <time>2021-05-29T05:09:20.000Z</time>
      </trkpt>
      <trkpt lat="45.23475" lon="5.73575">
        <ele>828.20001220703</ele>
        <time>2021-05-29T05:09:21.000Z</time>
      </trkpt>
      <trkpt lat="45.23475" lon="5.73576">
        <ele>828.59997558594</ele>
        <time>2021-05-29T05:09:22.000Z</time>
      </trkpt>
      <trkpt lat="45.23476" lon="5.73577">
        <ele>829.40002441406</ele>
        <time>2021-05-29T05:09:25.000Z</time>
      </trkpt>
      <trkpt lat="45.23476" lon="5.73577">
        <ele>829.59997558594</ele>
        <time>2021-05-29T05:09:26.000Z</time>
      </trkpt>
      <trkpt lat="45.23478" lon="5.73577">
        <ele>830.40002441406</ele>
        <time>2021-05-29T05:09:29.000Z</time>
      </trkpt>
      <trkpt lat="45.23479" lon="5.73578">
        <ele>830.79998779297</ele>
        <time>2021-05-29T05:09:30.000Z</time>
      </trkpt>
      <trkpt lat="45.2348" lon="5.73579">
        <ele>830.79998779297</ele>
        <time>2021-05-29T05:09:31.000Z</time>
      </trkpt>
      <trkpt lat="45.2348" lon="5.73579">
        <ele>831</ele>
        <time>2021-05-29T05:09:32.000Z</time>
      </trkpt>
      <trkpt lat="45.23483" lon="5.73581">
        <ele>831.40002441406</ele>
        <time>2021-05-29T05:09:35.000Z</time>
      </trkpt>
      <trkpt lat="45.23489" lon="5.73582">
        <ele>831.59997558594</ele>
        <time>2021-05-29T05:09:39.000Z</time>
      </trkpt>
      <trkpt lat="45.23492" lon="5.73587">
        <ele>832</ele>
        <time>2021-05-29T05:09:42.000Z</time>
      </trkpt>
      <trkpt lat="45.23493" lon="5.7359">
        <ele>832.59997558594</ele>
        <time>2021-05-29T05:09:44.000Z</time>
      </trkpt>
      <trkpt lat="45.23495" lon="5.73592">
        <ele>832.79998779297</ele>
        <time>2021-05-29T05:09:46.000Z</time>
      </trkpt>
      <trkpt lat="45.23498" lon="5.73594">
        <ele>833.59997558594</ele>
        <time>2021-05-29T05:09:49.000Z</time>
      </trkpt>
      <trkpt lat="45.235" lon="5.73594">
        <ele>834.40002441406</ele>
        <time>2021-05-29T05:09:51.000Z</time>
      </trkpt>
      <trkpt lat="45.235" lon="5.73595">
        <ele>834.59997558594</ele>
        <time>2021-05-29T05:09:52.000Z</time>
      </trkpt>
      <trkpt lat="45.23501" lon="5.73595">
        <ele>834.79998779297</ele>
        <time>2021-05-29T05:09:53.000Z</time>
      </trkpt>
      <trkpt lat="45.23504" lon="5.73597">
        <ele>835.79998779297</ele>
        <time>2021-05-29T05:09:57.000Z</time>
      </trkpt>
      <trkpt lat="45.23505" lon="5.73597">
        <ele>836.79998779297</ele>
        <time>2021-05-29T05:09:59.000Z</time>
      </trkpt>
      <trkpt lat="45.23505" lon="5.73597">
        <ele>837</ele>
        <time>2021-05-29T05:10:00.000Z</time>
      </trkpt>
      <trkpt lat="45.23505" lon="5.73598">
        <ele>837.20001220703</ele>
        <time>2021-05-29T05:10:01.000Z</time>
      </trkpt>
      <trkpt lat="45.23507" lon="5.73599">
        <ele>838</ele>
        <time>2021-05-29T05:10:03.000Z</time>
      </trkpt>
      <trkpt lat="45.23508" lon="5.73599">
        <ele>838.20001220703</ele>
        <time>2021-05-29T05:10:04.000Z</time>
      </trkpt>
      <trkpt lat="45.23513" lon="5.73602">
        <ele>839.40002441406</ele>
        <time>2021-05-29T05:10:07.000Z</time>
      </trkpt>
      <trkpt lat="45.23514" lon="5.73604">
        <ele>839.79998779297</ele>
        <time>2021-05-29T05:10:08.000Z</time>
      </trkpt>
      <trkpt lat="45.23514" lon="5.73609">
        <ele>840.40002441406</ele>
        <time>2021-05-29T05:10:11.000Z</time>
      </trkpt>
      <trkpt lat="45.23516" lon="5.73611">
        <ele>841.40002441406</ele>
        <time>2021-05-29T05:10:14.000Z</time>
      </trkpt>
      <trkpt lat="45.23519" lon="5.73612">
        <ele>842</ele>
        <time>2021-05-29T05:10:17.000Z</time>
      </trkpt>
      <trkpt lat="45.23521" lon="5.73613">
        <ele>843</ele>
        <time>2021-05-29T05:10:19.000Z</time>
      </trkpt>
      <trkpt lat="45.23522" lon="5.73614">
        <ele>843.59997558594</ele>
        <time>2021-05-29T05:10:20.000Z</time>
      </trkpt>
      <trkpt lat="45.23524" lon="5.73616">
        <ele>844</ele>
        <time>2021-05-29T05:10:22.000Z</time>
      </trkpt>
      <trkpt lat="45.23528" lon="5.73619">
        <ele>844.79998779297</ele>
        <time>2021-05-29T05:10:26.000Z</time>
      </trkpt>
      <trkpt lat="45.23529" lon="5.7362">
        <ele>845.20001220703</ele>
        <time>2021-05-29T05:10:27.000Z</time>
      </trkpt>
      <trkpt lat="45.23533" lon="5.73619">
        <ele>846.20001220703</ele>
        <time>2021-05-29T05:10:31.000Z</time>
      </trkpt>
      <trkpt lat="45.23534" lon="5.73619">
        <ele>846.20001220703</ele>
        <time>2021-05-29T05:10:32.000Z</time>
      </trkpt>
      <trkpt lat="45.23535" lon="5.7362">
        <ele>846.59997558594</ele>
        <time>2021-05-29T05:10:33.000Z</time>
      </trkpt>
      <trkpt lat="45.23538" lon="5.7362">
        <ele>847.79998779297</ele>
        <time>2021-05-29T05:10:36.000Z</time>
      </trkpt>
      <trkpt lat="45.23541" lon="5.73623">
        <ele>848.79998779297</ele>
        <time>2021-05-29T05:10:40.000Z</time>
      </trkpt>
      <trkpt lat="45.23544" lon="5.73626">
        <ele>849.79998779297</ele>
        <time>2021-05-29T05:10:43.000Z</time>
      </trkpt>
      <trkpt lat="45.23544" lon="5.73627">
        <ele>850</ele>
        <time>2021-05-29T05:10:44.000Z</time>
      </trkpt>
      <trkpt lat="45.23546" lon="5.73631">
        <ele>851.59997558594</ele>
        <time>2021-05-29T05:10:48.000Z</time>
      </trkpt>
      <trkpt lat="45.23548" lon="5.73631">
        <ele>852.40002441406</ele>
        <time>2021-05-29T05:10:50.000Z</time>
      </trkpt>
      <trkpt lat="45.23548" lon="5.7363">
        <ele>852.59997558594</ele>
        <time>2021-05-29T05:10:51.000Z</time>
      </trkpt>
      <trkpt lat="45.2355" lon="5.7363">
        <ele>853</ele>
        <time>2021-05-29T05:10:53.000Z</time>
      </trkpt>
      <trkpt lat="45.23551" lon="5.73631">
        <ele>853.79998779297</ele>
        <time>2021-05-29T05:10:56.000Z</time>
      </trkpt>
      <trkpt lat="45.23552" lon="5.73631">
        <ele>854.40002441406</ele>
        <time>2021-05-29T05:10:57.000Z</time>
      </trkpt>
      <trkpt lat="45.23554" lon="5.73632">
        <ele>855</ele>
        <time>2021-05-29T05:11:00.000Z</time>
      </trkpt>
      <trkpt lat="45.23555" lon="5.73633">
        <ele>855.20001220703</ele>
        <time>2021-05-29T05:11:01.000Z</time>
      </trkpt>
      <trkpt lat="45.23555" lon="5.73633">
        <ele>855.59997558594</ele>
        <time>2021-05-29T05:11:02.000Z</time>
      </trkpt>
      <trkpt lat="45.23556" lon="5.73633">
        <ele>856</ele>
        <time>2021-05-29T05:11:03.000Z</time>
      </trkpt>
      <trkpt lat="45.23558" lon="5.73633">
        <ele>856.59997558594</ele>
        <time>2021-05-29T05:11:05.000Z</time>
      </trkpt>
      <trkpt lat="45.23559" lon="5.73635">
        <ele>857.40002441406</ele>
        <time>2021-05-29T05:11:07.000Z</time>
      </trkpt>
      <trkpt lat="45.23561" lon="5.73638">
        <ele>858.40002441406</ele>
        <time>2021-05-29T05:11:10.000Z</time>
      </trkpt>
      <trkpt lat="45.23563" lon="5.7364">
        <ele>859.59997558594</ele>
        <time>2021-05-29T05:11:13.000Z</time>
      </trkpt>
      <trkpt lat="45.23564" lon="5.73641">
        <ele>859.79998779297</ele>
        <time>2021-05-29T05:11:14.000Z</time>
      </trkpt>
      <trkpt lat="45.23565" lon="5.73646">
        <ele>861</ele>
        <time>2021-05-29T05:11:18.000Z</time>
      </trkpt>
      <trkpt lat="45.23565" lon="5.73646">
        <ele>861.40002441406</ele>
        <time>2021-05-29T05:11:19.000Z</time>
      </trkpt>
      <trkpt lat="45.23566" lon="5.73647">
        <ele>862</ele>
        <time>2021-05-29T05:11:21.000Z</time>
      </trkpt>
      <trkpt lat="45.23567" lon="5.73646">
        <ele>862.20001220703</ele>
        <time>2021-05-29T05:11:22.000Z</time>
      </trkpt>
      <trkpt lat="45.2357" lon="5.73646">
        <ele>863.20001220703</ele>
        <time>2021-05-29T05:11:26.000Z</time>
      </trkpt>
      <trkpt lat="45.23572" lon="5.73648">
        <ele>864.20001220703</ele>
        <time>2021-05-29T05:11:28.000Z</time>
      </trkpt>
      <trkpt lat="45.23573" lon="5.73648">
        <ele>864.40002441406</ele>
        <time>2021-05-29T05:11:29.000Z</time>
      </trkpt>
      <trkpt lat="45.23576" lon="5.73652">
        <ele>865.40002441406</ele>
        <time>2021-05-29T05:11:34.000Z</time>
      </trkpt>
      <trkpt lat="45.23576" lon="5.73655">
        <ele>866.59997558594</ele>
        <time>2021-05-29T05:11:37.000Z</time>
      </trkpt>
      <trkpt lat="45.23579" lon="5.7366">
        <ele>867.79998779297</ele>
        <time>2021-05-29T05:11:41.000Z</time>
      </trkpt>
      <trkpt lat="45.2358" lon="5.73661">
        <ele>868.40002441406</ele>
        <time>2021-05-29T05:11:42.000Z</time>
      </trkpt>
      <trkpt lat="45.23581" lon="5.73662">
        <ele>868.79998779297</ele>
        <time>2021-05-29T05:11:44.000Z</time>
      </trkpt>
      <trkpt lat="45.23583" lon="5.73664">
        <ele>870</ele>
        <time>2021-05-29T05:11:48.000Z</time>
      </trkpt>
      <trkpt lat="45.23584" lon="5.73664">
        <ele>871</ele>
        <time>2021-05-29T05:11:50.000Z</time>
      </trkpt>
      <trkpt lat="45.23586" lon="5.73668">
        <ele>872.20001220703</ele>
        <time>2021-05-29T05:11:54.000Z</time>
      </trkpt>
      <trkpt lat="45.23592" lon="5.73672">
        <ele>873.40002441406</ele>
        <time>2021-05-29T05:11:59.000Z</time>
      </trkpt>
      <trkpt lat="45.23592" lon="5.73674">
        <ele>874.20001220703</ele>
        <time>2021-05-29T05:12:00.000Z</time>
      </trkpt>
      <trkpt lat="45.23591" lon="5.73676">
        <ele>874.59997558594</ele>
        <time>2021-05-29T05:12:01.000Z</time>
      </trkpt>
      <trkpt lat="45.23594" lon="5.73678">
        <ele>875.79998779297</ele>
        <time>2021-05-29T05:12:05.000Z</time>
      </trkpt>
      <trkpt lat="45.23595" lon="5.73678">
        <ele>876.20001220703</ele>
        <time>2021-05-29T05:12:06.000Z</time>
      </trkpt>
      <trkpt lat="45.23597" lon="5.73681">
        <ele>877</ele>
        <time>2021-05-29T05:12:09.000Z</time>
      </trkpt>
      <trkpt lat="45.23598" lon="5.73682">
        <ele>878</ele>
        <time>2021-05-29T05:12:11.000Z</time>
      </trkpt>
      <trkpt lat="45.23601" lon="5.73683">
        <ele>879.20001220703</ele>
        <time>2021-05-29T05:12:15.000Z</time>
      </trkpt>
      <trkpt lat="45.23603" lon="5.73683">
        <ele>880</ele>
        <time>2021-05-29T05:12:19.000Z</time>
      </trkpt>
      <trkpt lat="45.23604" lon="5.73682">
        <ele>880.40002441406</ele>
        <time>2021-05-29T05:12:20.000Z</time>
      </trkpt>
      <trkpt lat="45.23605" lon="5.73685">
        <ele>881</ele>
        <time>2021-05-29T05:12:22.000Z</time>
      </trkpt>
      <trkpt lat="45.23606" lon="5.73685">
        <ele>882</ele>
        <time>2021-05-29T05:12:24.000Z</time>
      </trkpt>
      <trkpt lat="45.23606" lon="5.73686">
        <ele>882.59997558594</ele>
        <time>2021-05-29T05:12:25.000Z</time>
      </trkpt>
      <trkpt lat="45.23607" lon="5.73688">
        <ele>883</ele>
        <time>2021-05-29T05:12:27.000Z</time>
      </trkpt>
      <trkpt lat="45.23608" lon="5.73691">
        <ele>884.20001220703</ele>
        <time>2021-05-29T05:12:30.000Z</time>
      </trkpt>
      <trkpt lat="45.2361" lon="5.73692">
        <ele>884.59997558594</ele>
        <time>2021-05-29T05:12:32.000Z</time>
      </trkpt>
      <trkpt lat="45.23611" lon="5.73694">
        <ele>885</ele>
        <time>2021-05-29T05:12:34.000Z</time>
      </trkpt>
      <trkpt lat="45.23612" lon="5.73695">
        <ele>885.40002441406</ele>
        <time>2021-05-29T05:12:35.000Z</time>
      </trkpt>
      <trkpt lat="45.23612" lon="5.73696">
        <ele>885.59997558594</ele>
        <time>2021-05-29T05:12:36.000Z</time>
      </trkpt>
      <trkpt lat="45.23613" lon="5.73696">
        <ele>886.40002441406</ele>
        <time>2021-05-29T05:12:37.000Z</time>
      </trkpt>
      <trkpt lat="45.23615" lon="5.73699">
        <ele>887.40002441406</ele>
        <time>2021-05-29T05:12:41.000Z</time>
      </trkpt>
      <trkpt lat="45.23615" lon="5.737">
        <ele>887.79998779297</ele>
        <time>2021-05-29T05:12:43.000Z</time>
      </trkpt>
      <trkpt lat="45.23616" lon="5.73702">
        <ele>888.20001220703</ele>
        <time>2021-05-29T05:12:44.000Z</time>
      </trkpt>
      <trkpt lat="45.23616" lon="5.73703">
        <ele>888.59997558594</ele>
        <time>2021-05-29T05:12:45.000Z</time>
      </trkpt>
      <trkpt lat="45.23618" lon="5.73708">
        <ele>889.40002441406</ele>
        <time>2021-05-29T05:12:48.000Z</time>
      </trkpt>
      <trkpt lat="45.23619" lon="5.73709">
        <ele>889.59997558594</ele>
        <time>2021-05-29T05:12:49.000Z</time>
      </trkpt>
      <trkpt lat="45.2362" lon="5.73709">
        <ele>889.79998779297</ele>
        <time>2021-05-29T05:12:50.000Z</time>
      </trkpt>
      <trkpt lat="45.23622" lon="5.73709">
        <ele>890.59997558594</ele>
        <time>2021-05-29T05:12:52.000Z</time>
      </trkpt>
      <trkpt lat="45.23622" lon="5.7371">
        <ele>891.20001220703</ele>
        <time>2021-05-29T05:12:53.000Z</time>
      </trkpt>
      <trkpt lat="45.23623" lon="5.73711">
        <ele>891.40002441406</ele>
        <time>2021-05-29T05:12:54.000Z</time>
      </trkpt>
      <trkpt lat="45.23626" lon="5.73716">
        <ele>892.59997558594</ele>
        <time>2021-05-29T05:12:58.000Z</time>
      </trkpt>
      <trkpt lat="45.23627" lon="5.73717">
        <ele>893</ele>
        <time>2021-05-29T05:12:59.000Z</time>
      </trkpt>
      <trkpt lat="45.23627" lon="5.73718">
        <ele>893.79998779297</ele>
        <time>2021-05-29T05:13:02.000Z</time>
      </trkpt>
      <trkpt lat="45.23628" lon="5.73719">
        <ele>894.79998779297</ele>
        <time>2021-05-29T05:13:04.000Z</time>
      </trkpt>
      <trkpt lat="45.23629" lon="5.7372">
        <ele>895.20001220703</ele>
        <time>2021-05-29T05:13:05.000Z</time>
      </trkpt>
      <trkpt lat="45.23631" lon="5.73721">
        <ele>895.59997558594</ele>
        <time>2021-05-29T05:13:07.000Z</time>
      </trkpt>
      <trkpt lat="45.23632" lon="5.73724">
        <ele>896</ele>
        <time>2021-05-29T05:13:09.000Z</time>
      </trkpt>
      <trkpt lat="45.23632" lon="5.73724">
        <ele>896.40002441406</ele>
        <time>2021-05-29T05:13:10.000Z</time>
      </trkpt>
      <trkpt lat="45.23632" lon="5.73725">
        <ele>897</ele>
        <time>2021-05-29T05:13:12.000Z</time>
      </trkpt>
      <trkpt lat="45.23632" lon="5.73725">
        <ele>897.20001220703</ele>
        <time>2021-05-29T05:13:13.000Z</time>
      </trkpt>
      <trkpt lat="45.23634" lon="5.73728">
        <ele>898</ele>
        <time>2021-05-29T05:13:16.000Z</time>
      </trkpt>
      <trkpt lat="45.23635" lon="5.7373">
        <ele>898.59997558594</ele>
        <time>2021-05-29T05:13:17.000Z</time>
      </trkpt>
      <trkpt lat="45.23636" lon="5.73732">
        <ele>899.20001220703</ele>
        <time>2021-05-29T05:13:18.000Z</time>
      </trkpt>
      <trkpt lat="45.23639" lon="5.73737">
        <ele>899.79998779297</ele>
        <time>2021-05-29T05:13:21.000Z</time>
      </trkpt>
      <trkpt lat="45.23641" lon="5.73737">
        <ele>900.40002441406</ele>
        <time>2021-05-29T05:13:23.000Z</time>
      </trkpt>
      <trkpt lat="45.23641" lon="5.73737">
        <ele>900.59997558594</ele>
        <time>2021-05-29T05:13:24.000Z</time>
      </trkpt>
      <trkpt lat="45.23641" lon="5.73738">
        <ele>901.40002441406</ele>
        <time>2021-05-29T05:13:26.000Z</time>
      </trkpt>
      <trkpt lat="45.23641" lon="5.73739">
        <ele>901.59997558594</ele>
        <time>2021-05-29T05:13:27.000Z</time>
      </trkpt>
      <trkpt lat="45.23642" lon="5.73742">
        <ele>901.79998779297</ele>
        <time>2021-05-29T05:13:29.000Z</time>
      </trkpt>
      <trkpt lat="45.23644" lon="5.73747">
        <ele>902.59997558594</ele>
        <time>2021-05-29T05:13:31.000Z</time>
      </trkpt>
      <trkpt lat="45.23645" lon="5.7375">
        <ele>903.79998779297</ele>
        <time>2021-05-29T05:13:33.000Z</time>
      </trkpt>
      <trkpt lat="45.23647" lon="5.73751">
        <ele>904.20001220703</ele>
        <time>2021-05-29T05:13:35.000Z</time>
      </trkpt>
      <trkpt lat="45.23648" lon="5.73753">
        <ele>904.40002441406</ele>
        <time>2021-05-29T05:13:36.000Z</time>
      </trkpt>
      <trkpt lat="45.23649" lon="5.73756">
        <ele>904.59997558594</ele>
        <time>2021-05-29T05:13:38.000Z</time>
      </trkpt>
      <trkpt lat="45.2365" lon="5.73757">
        <ele>905.20001220703</ele>
        <time>2021-05-29T05:13:39.000Z</time>
      </trkpt>
      <trkpt lat="45.23651" lon="5.73758">
        <ele>905.40002441406</ele>
        <time>2021-05-29T05:13:40.000Z</time>
      </trkpt>
      <trkpt lat="45.23652" lon="5.7376">
        <ele>905.79998779297</ele>
        <time>2021-05-29T05:13:41.000Z</time>
      </trkpt>
      <trkpt lat="45.23653" lon="5.73763">
        <ele>906.40002441406</ele>
        <time>2021-05-29T05:13:44.000Z</time>
      </trkpt>
      <trkpt lat="45.23654" lon="5.73769">
        <ele>907.40002441406</ele>
        <time>2021-05-29T05:13:47.000Z</time>
      </trkpt>
      <trkpt lat="45.23655" lon="5.7377">
        <ele>907.59997558594</ele>
        <time>2021-05-29T05:13:48.000Z</time>
      </trkpt>
      <trkpt lat="45.2366" lon="5.73778">
        <ele>908.40002441406</ele>
        <time>2021-05-29T05:13:54.000Z</time>
      </trkpt>
      <trkpt lat="45.23661" lon="5.73782">
        <ele>908.79998779297</ele>
        <time>2021-05-29T05:13:56.000Z</time>
      </trkpt>
      <trkpt lat="45.23662" lon="5.73786">
        <ele>909.59997558594</ele>
        <time>2021-05-29T05:13:59.000Z</time>
      </trkpt>
      <trkpt lat="45.23663" lon="5.7379">
        <ele>909.79998779297</ele>
        <time>2021-05-29T05:14:01.000Z</time>
      </trkpt>
      <trkpt lat="45.23664" lon="5.73794">
        <ele>910.59997558594</ele>
        <time>2021-05-29T05:14:04.000Z</time>
      </trkpt>
      <trkpt lat="45.23667" lon="5.73796">
        <ele>911</ele>
        <time>2021-05-29T05:14:06.000Z</time>
      </trkpt>
      <trkpt lat="45.23667" lon="5.73798">
        <ele>911.20001220703</ele>
        <time>2021-05-29T05:14:07.000Z</time>
      </trkpt>
      <trkpt lat="45.23668" lon="5.73803">
        <ele>911.79998779297</ele>
        <time>2021-05-29T05:14:09.000Z</time>
      </trkpt>
      <trkpt lat="45.2367" lon="5.73811">
        <ele>912.79998779297</ele>
        <time>2021-05-29T05:14:14.000Z</time>
      </trkpt>
      <trkpt lat="45.23671" lon="5.73813">
        <ele>913.40002441406</ele>
        <time>2021-05-29T05:14:16.000Z</time>
      </trkpt>
      <trkpt lat="45.23673" lon="5.73817">
        <ele>913.79998779297</ele>
        <time>2021-05-29T05:14:19.000Z</time>
      </trkpt>
      <trkpt lat="45.23674" lon="5.73818">
        <ele>914</ele>
        <time>2021-05-29T05:14:20.000Z</time>
      </trkpt>
      <trkpt lat="45.23678" lon="5.73823">
        <ele>915.20001220703</ele>
        <time>2021-05-29T05:14:24.000Z</time>
      </trkpt>
      <trkpt lat="45.23678" lon="5.73824">
        <ele>915.40002441406</ele>
        <time>2021-05-29T05:14:25.000Z</time>
      </trkpt>
      <trkpt lat="45.23682" lon="5.73828">
        <ele>916.40002441406</ele>
        <time>2021-05-29T05:14:29.000Z</time>
      </trkpt>
      <trkpt lat="45.23683" lon="5.7383">
        <ele>916.59997558594</ele>
        <time>2021-05-29T05:14:30.000Z</time>
      </trkpt>
      <trkpt lat="45.23685" lon="5.73831">
        <ele>917</ele>
        <time>2021-05-29T05:14:32.000Z</time>
      </trkpt>
      <trkpt lat="45.23685" lon="5.73832">
        <ele>917.40002441406</ele>
        <time>2021-05-29T05:14:33.000Z</time>
      </trkpt>
      <trkpt lat="45.23687" lon="5.73835">
        <ele>917.59997558594</ele>
        <time>2021-05-29T05:14:34.000Z</time>
      </trkpt>
      <trkpt lat="45.23688" lon="5.73836">
        <ele>918.40002441406</ele>
        <time>2021-05-29T05:14:36.000Z</time>
      </trkpt>
      <trkpt lat="45.23689" lon="5.7384">
        <ele>918.79998779297</ele>
        <time>2021-05-29T05:14:38.000Z</time>
      </trkpt>
      <trkpt lat="45.2369" lon="5.73848">
        <ele>919.40002441406</ele>
        <time>2021-05-29T05:14:41.000Z</time>
      </trkpt>
      <trkpt lat="45.23692" lon="5.73849">
        <ele>919.79998779297</ele>
        <time>2021-05-29T05:14:42.000Z</time>
      </trkpt>
      <trkpt lat="45.23694" lon="5.73853">
        <ele>920.40002441406</ele>
        <time>2021-05-29T05:14:45.000Z</time>
      </trkpt>
      <trkpt lat="45.23694" lon="5.73856">
        <ele>920.79998779297</ele>
        <time>2021-05-29T05:14:46.000Z</time>
      </trkpt>
      <trkpt lat="45.23695" lon="5.73857">
        <ele>920.59997558594</ele>
        <time>2021-05-29T05:14:47.000Z</time>
      </trkpt>
      <trkpt lat="45.23695" lon="5.73864">
        <ele>920.59997558594</ele>
        <time>2021-05-29T05:14:50.000Z</time>
      </trkpt>
      <trkpt lat="45.23697" lon="5.73868">
        <ele>920.40002441406</ele>
        <time>2021-05-29T05:14:52.000Z</time>
      </trkpt>
      <trkpt lat="45.23702" lon="5.73879">
        <ele>920</ele>
        <time>2021-05-29T05:14:57.000Z</time>
      </trkpt>
      <trkpt lat="45.23703" lon="5.73882">
        <ele>920</ele>
        <time>2021-05-29T05:14:58.000Z</time>
      </trkpt>
      <trkpt lat="45.23704" lon="5.73893">
        <ele>920.40002441406</ele>
        <time>2021-05-29T05:15:01.000Z</time>
      </trkpt>
      <trkpt lat="45.23705" lon="5.73897">
        <ele>921</ele>
        <time>2021-05-29T05:15:04.000Z</time>
      </trkpt>
      <trkpt lat="45.23706" lon="5.73899">
        <ele>921</ele>
        <time>2021-05-29T05:15:05.000Z</time>
      </trkpt>
      <trkpt lat="45.23709" lon="5.73903">
        <ele>921.20001220703</ele>
        <time>2021-05-29T05:15:08.000Z</time>
      </trkpt>
      <trkpt lat="45.23715" lon="5.73914">
        <ele>921.40002441406</ele>
        <time>2021-05-29T05:15:12.000Z</time>
      </trkpt>
      <trkpt lat="45.23719" lon="5.73919">
        <ele>921.79998779297</ele>
        <time>2021-05-29T05:15:15.000Z</time>
      </trkpt>
      <trkpt lat="45.23725" lon="5.73924">
        <ele>922</ele>
        <time>2021-05-29T05:15:19.000Z</time>
      </trkpt>
      <trkpt lat="45.23729" lon="5.73928">
        <ele>922.59997558594</ele>
        <time>2021-05-29T05:15:22.000Z</time>
      </trkpt>
      <trkpt lat="45.23731" lon="5.73931">
        <ele>922.79998779297</ele>
        <time>2021-05-29T05:15:24.000Z</time>
      </trkpt>
      <trkpt lat="45.23732" lon="5.73932">
        <ele>923</ele>
        <time>2021-05-29T05:15:25.000Z</time>
      </trkpt>
      <trkpt lat="45.23735" lon="5.73935">
        <ele>923.20001220703</ele>
        <time>2021-05-29T05:15:27.000Z</time>
      </trkpt>
      <trkpt lat="45.23737" lon="5.73938">
        <ele>923.40002441406</ele>
        <time>2021-05-29T05:15:29.000Z</time>
      </trkpt>
      <trkpt lat="45.2374" lon="5.73941">
        <ele>924</ele>
        <time>2021-05-29T05:15:31.000Z</time>
      </trkpt>
      <trkpt lat="45.23742" lon="5.73943">
        <ele>924.40002441406</ele>
        <time>2021-05-29T05:15:32.000Z</time>
      </trkpt>
      <trkpt lat="45.2375" lon="5.7395">
        <ele>925.20001220703</ele>
        <time>2021-05-29T05:15:37.000Z</time>
      </trkpt>
      <trkpt lat="45.23752" lon="5.73952">
        <ele>925.40002441406</ele>
        <time>2021-05-29T05:15:38.000Z</time>
      </trkpt>
      <trkpt lat="45.23754" lon="5.73957">
        <ele>925.79998779297</ele>
        <time>2021-05-29T05:15:40.000Z</time>
      </trkpt>
      <trkpt lat="45.23756" lon="5.73963">
        <ele>926.20001220703</ele>
        <time>2021-05-29T05:15:42.000Z</time>
      </trkpt>
      <trkpt lat="45.23757" lon="5.73967">
        <ele>926.59997558594</ele>
        <time>2021-05-29T05:15:44.000Z</time>
      </trkpt>
      <trkpt lat="45.23759" lon="5.73976">
        <ele>926.79998779297</ele>
        <time>2021-05-29T05:15:47.000Z</time>
      </trkpt>
      <trkpt lat="45.23761" lon="5.73986">
        <ele>927.20001220703</ele>
        <time>2021-05-29T05:15:50.000Z</time>
      </trkpt>
      <trkpt lat="45.23762" lon="5.73993">
        <ele>927.40002441406</ele>
        <time>2021-05-29T05:15:51.000Z</time>
      </trkpt>
      <trkpt lat="45.23764" lon="5.73998">
        <ele>927.79998779297</ele>
        <time>2021-05-29T05:15:54.000Z</time>
      </trkpt>
      <trkpt lat="45.23766" lon="5.74002">
        <ele>928</ele>
        <time>2021-05-29T05:15:56.000Z</time>
      </trkpt>
      <trkpt lat="45.23767" lon="5.74008">
        <ele>928.59997558594</ele>
        <time>2021-05-29T05:15:58.000Z</time>
      </trkpt>
      <trkpt lat="45.23771" lon="5.74017">
        <ele>928.79998779297</ele>
        <time>2021-05-29T05:16:00.000Z</time>
      </trkpt>
      <trkpt lat="45.23772" lon="5.74023">
        <ele>929</ele>
        <time>2021-05-29T05:16:02.000Z</time>
      </trkpt>
      <trkpt lat="45.23773" lon="5.74029">
        <ele>929.40002441406</ele>
        <time>2021-05-29T05:16:05.000Z</time>
      </trkpt>
      <trkpt lat="45.23773" lon="5.74031">
        <ele>929.59997558594</ele>
        <time>2021-05-29T05:16:06.000Z</time>
      </trkpt>
      <trkpt lat="45.23773" lon="5.74035">
        <ele>930.40002441406</ele>
        <time>2021-05-29T05:16:08.000Z</time>
      </trkpt>
      <trkpt lat="45.23773" lon="5.74037">
        <ele>930.59997558594</ele>
        <time>2021-05-29T05:16:09.000Z</time>
      </trkpt>
      <trkpt lat="45.23773" lon="5.7404">
        <ele>931</ele>
        <time>2021-05-29T05:16:10.000Z</time>
      </trkpt>
      <trkpt lat="45.23773" lon="5.74045">
        <ele>931.59997558594</ele>
        <time>2021-05-29T05:16:12.000Z</time>
      </trkpt>
      <trkpt lat="45.23774" lon="5.74047">
        <ele>931.79998779297</ele>
        <time>2021-05-29T05:16:13.000Z</time>
      </trkpt>
      <trkpt lat="45.23774" lon="5.74052">
        <ele>932.20001220703</ele>
        <time>2021-05-29T05:16:15.000Z</time>
      </trkpt>
      <trkpt lat="45.23775" lon="5.74056">
        <ele>932.59997558594</ele>
        <time>2021-05-29T05:16:17.000Z</time>
      </trkpt>
      <trkpt lat="45.23775" lon="5.7406">
        <ele>932.79998779297</ele>
        <time>2021-05-29T05:16:18.000Z</time>
      </trkpt>
      <trkpt lat="45.23775" lon="5.74063">
        <ele>933</ele>
        <time>2021-05-29T05:16:19.000Z</time>
      </trkpt>
      <trkpt lat="45.23778" lon="5.74071">
        <ele>933</ele>
        <time>2021-05-29T05:16:21.000Z</time>
      </trkpt>
      <trkpt lat="45.2378" lon="5.74079">
        <ele>933</ele>
        <time>2021-05-29T05:16:23.000Z</time>
      </trkpt>
      <trkpt lat="45.23782" lon="5.74084">
        <ele>932.79998779297</ele>
        <time>2021-05-29T05:16:25.000Z</time>
      </trkpt>
      <trkpt lat="45.23785" lon="5.74094">
        <ele>932.59997558594</ele>
        <time>2021-05-29T05:16:29.000Z</time>
      </trkpt>
      <trkpt lat="45.23785" lon="5.74098">
        <ele>932.59997558594</ele>
        <time>2021-05-29T05:16:30.000Z</time>
      </trkpt>
      <trkpt lat="45.23784" lon="5.741">
        <ele>932.59997558594</ele>
        <time>2021-05-29T05:16:31.000Z</time>
      </trkpt>
      <trkpt lat="45.23773" lon="5.74111">
        <ele>934</ele>
        <time>2021-05-29T05:16:39.000Z</time>
      </trkpt>
      <trkpt lat="45.23772" lon="5.74111">
        <ele>934.20001220703</ele>
        <time>2021-05-29T05:16:40.000Z</time>
      </trkpt>
      <trkpt lat="45.2377" lon="5.74113">
        <ele>934.79998779297</ele>
        <time>2021-05-29T05:16:42.000Z</time>
      </trkpt>
      <trkpt lat="45.2377" lon="5.74114">
        <ele>935.20001220703</ele>
        <time>2021-05-29T05:16:44.000Z</time>
      </trkpt>
      <trkpt lat="45.2377" lon="5.74114">
        <ele>935.59997558594</ele>
        <time>2021-05-29T05:16:46.000Z</time>
      </trkpt>
      <trkpt lat="45.23768" lon="5.74116">
        <ele>936.20001220703</ele>
        <time>2021-05-29T05:16:48.000Z</time>
      </trkpt>
      <trkpt lat="45.23765" lon="5.74119">
        <ele>936.79998779297</ele>
        <time>2021-05-29T05:16:50.000Z</time>
      </trkpt>
      <trkpt lat="45.23764" lon="5.7412">
        <ele>936.79998779297</ele>
        <time>2021-05-29T05:16:51.000Z</time>
      </trkpt>
      <trkpt lat="45.23763" lon="5.74121">
        <ele>937.20001220703</ele>
        <time>2021-05-29T05:16:52.000Z</time>
      </trkpt>
      <trkpt lat="45.23763" lon="5.74122">
        <ele>937.40002441406</ele>
        <time>2021-05-29T05:16:53.000Z</time>
      </trkpt>
      <trkpt lat="45.2376" lon="5.74124">
        <ele>938</ele>
        <time>2021-05-29T05:16:56.000Z</time>
      </trkpt>
      <trkpt lat="45.23759" lon="5.74125">
        <ele>938.40002441406</ele>
        <time>2021-05-29T05:16:57.000Z</time>
      </trkpt>
      <trkpt lat="45.23759" lon="5.74125">
        <ele>938.59997558594</ele>
        <time>2021-05-29T05:16:58.000Z</time>
      </trkpt>
      <trkpt lat="45.23758" lon="5.74125">
        <ele>938.79998779297</ele>
        <time>2021-05-29T05:16:59.000Z</time>
      </trkpt>
      <trkpt lat="45.23757" lon="5.74128">
        <ele>939.59997558594</ele>
        <time>2021-05-29T05:17:02.000Z</time>
      </trkpt>
      <trkpt lat="45.23755" lon="5.7413">
        <ele>939.79998779297</ele>
        <time>2021-05-29T05:17:03.000Z</time>
      </trkpt>
      <trkpt lat="45.23752" lon="5.74135">
        <ele>940.59997558594</ele>
        <time>2021-05-29T05:17:07.000Z</time>
      </trkpt>
      <trkpt lat="45.23751" lon="5.74136">
        <ele>940.79998779297</ele>
        <time>2021-05-29T05:17:08.000Z</time>
      </trkpt>
      <trkpt lat="45.2375" lon="5.74137">
        <ele>941</ele>
        <time>2021-05-29T05:17:09.000Z</time>
      </trkpt>
      <trkpt lat="45.23747" lon="5.74141">
        <ele>942</ele>
        <time>2021-05-29T05:17:12.000Z</time>
      </trkpt>
      <trkpt lat="45.23746" lon="5.74143">
        <ele>942.40002441406</ele>
        <time>2021-05-29T05:17:13.000Z</time>
      </trkpt>
      <trkpt lat="45.23741" lon="5.74149">
        <ele>943.20001220703</ele>
        <time>2021-05-29T05:17:17.000Z</time>
      </trkpt>
      <trkpt lat="45.23741" lon="5.74149">
        <ele>943.59997558594</ele>
        <time>2021-05-29T05:17:18.000Z</time>
      </trkpt>
      <trkpt lat="45.23741" lon="5.7415">
        <ele>944.40002441406</ele>
        <time>2021-05-29T05:17:21.000Z</time>
      </trkpt>
      <trkpt lat="45.2374" lon="5.74152">
        <ele>945.20001220703</ele>
        <time>2021-05-29T05:17:24.000Z</time>
      </trkpt>
      <trkpt lat="45.23739" lon="5.74154">
        <ele>945.59997558594</ele>
        <time>2021-05-29T05:17:26.000Z</time>
      </trkpt>
      <trkpt lat="45.23738" lon="5.74155">
        <ele>946.40002441406</ele>
        <time>2021-05-29T05:17:28.000Z</time>
      </trkpt>
      <trkpt lat="45.23737" lon="5.74157">
        <ele>946.79998779297</ele>
        <time>2021-05-29T05:17:30.000Z</time>
      </trkpt>
      <trkpt lat="45.23738" lon="5.7416">
        <ele>947.40002441406</ele>
        <time>2021-05-29T05:17:32.000Z</time>
      </trkpt>
      <trkpt lat="45.23738" lon="5.74163">
        <ele>947.79998779297</ele>
        <time>2021-05-29T05:17:36.000Z</time>
      </trkpt>
      <trkpt lat="45.2374" lon="5.74165">
        <ele>948.59997558594</ele>
        <time>2021-05-29T05:17:40.000Z</time>
      </trkpt>
      <trkpt lat="45.23739" lon="5.74166">
        <ele>948.79998779297</ele>
        <time>2021-05-29T05:17:41.000Z</time>
      </trkpt>
      <trkpt lat="45.23739" lon="5.74167">
        <ele>949.20001220703</ele>
        <time>2021-05-29T05:17:42.000Z</time>
      </trkpt>
      <trkpt lat="45.2374" lon="5.74169">
        <ele>950.20001220703</ele>
        <time>2021-05-29T05:17:45.000Z</time>
      </trkpt>
      <trkpt lat="45.2374" lon="5.7417">
        <ele>950.20001220703</ele>
        <time>2021-05-29T05:17:46.000Z</time>
      </trkpt>
      <trkpt lat="45.23739" lon="5.74172">
        <ele>951</ele>
        <time>2021-05-29T05:17:48.000Z</time>
      </trkpt>
      <trkpt lat="45.23739" lon="5.74173">
        <ele>951.20001220703</ele>
        <time>2021-05-29T05:17:49.000Z</time>
      </trkpt>
      <trkpt lat="45.23739" lon="5.74174">
        <ele>951.40002441406</ele>
        <time>2021-05-29T05:17:50.000Z</time>
      </trkpt>
      <trkpt lat="45.23738" lon="5.74175">
        <ele>951.59997558594</ele>
        <time>2021-05-29T05:17:51.000Z</time>
      </trkpt>
      <trkpt lat="45.23735" lon="5.7418">
        <ele>951.79998779297</ele>
        <time>2021-05-29T05:17:53.000Z</time>
      </trkpt>
      <trkpt lat="45.23734" lon="5.74183">
        <ele>951.79998779297</ele>
        <time>2021-05-29T05:17:55.000Z</time>
      </trkpt>
      <trkpt lat="45.23732" lon="5.74188">
        <ele>952</ele>
        <time>2021-05-29T05:17:59.000Z</time>
      </trkpt>
      <trkpt lat="45.2373" lon="5.74191">
        <ele>952.20001220703</ele>
        <time>2021-05-29T05:18:02.000Z</time>
      </trkpt>
      <trkpt lat="45.23729" lon="5.74192">
        <ele>952.40002441406</ele>
        <time>2021-05-29T05:18:04.000Z</time>
      </trkpt>
      <trkpt lat="45.23728" lon="5.74194">
        <ele>952.40002441406</ele>
        <time>2021-05-29T05:18:05.000Z</time>
      </trkpt>
      <trkpt lat="45.23724" lon="5.74201">
        <ele>953</ele>
        <time>2021-05-29T05:18:08.000Z</time>
      </trkpt>
      <trkpt lat="45.23721" lon="5.74205">
        <ele>953.59997558594</ele>
        <time>2021-05-29T05:18:10.000Z</time>
      </trkpt>
      <trkpt lat="45.23716" lon="5.74213">
        <ele>954.20001220703</ele>
        <time>2021-05-29T05:18:13.000Z</time>
      </trkpt>
      <trkpt lat="45.23715" lon="5.74214">
        <ele>954.40002441406</ele>
        <time>2021-05-29T05:18:15.000Z</time>
      </trkpt>
      <trkpt lat="45.23714" lon="5.74215">
        <ele>954.59997558594</ele>
        <time>2021-05-29T05:18:16.000Z</time>
      </trkpt>
      <trkpt lat="45.23707" lon="5.74222">
        <ele>955.59997558594</ele>
        <time>2021-05-29T05:18:21.000Z</time>
      </trkpt>
      <trkpt lat="45.23705" lon="5.74222">
        <ele>956.40002441406</ele>
        <time>2021-05-29T05:18:24.000Z</time>
      </trkpt>
      <trkpt lat="45.23705" lon="5.74222">
        <ele>956.59997558594</ele>
        <time>2021-05-29T05:18:25.000Z</time>
      </trkpt>
      <trkpt lat="45.23705" lon="5.74222">
        <ele>957</ele>
        <time>2021-05-29T05:18:26.000Z</time>
      </trkpt>
      <trkpt lat="45.23704" lon="5.74223">
        <ele>957.20001220703</ele>
        <time>2021-05-29T05:18:27.000Z</time>
      </trkpt>
      <trkpt lat="45.23704" lon="5.74224">
        <ele>957.40002441406</ele>
        <time>2021-05-29T05:18:28.000Z</time>
      </trkpt>
      <trkpt lat="45.23705" lon="5.74226">
        <ele>957.59997558594</ele>
        <time>2021-05-29T05:18:30.000Z</time>
      </trkpt>
      <trkpt lat="45.23704" lon="5.74227">
        <ele>957.79998779297</ele>
        <time>2021-05-29T05:18:31.000Z</time>
      </trkpt>
      <trkpt lat="45.23703" lon="5.74229">
        <ele>958.79998779297</ele>
        <time>2021-05-29T05:18:34.000Z</time>
      </trkpt>
      <trkpt lat="45.23698" lon="5.74234">
        <ele>960</ele>
        <time>2021-05-29T05:18:41.000Z</time>
      </trkpt>
      <trkpt lat="45.23693" lon="5.7424">
        <ele>960.79998779297</ele>
        <time>2021-05-29T05:18:45.000Z</time>
      </trkpt>
      <trkpt lat="45.23691" lon="5.74241">
        <ele>961.20001220703</ele>
        <time>2021-05-29T05:18:46.000Z</time>
      </trkpt>
      <trkpt lat="45.2369" lon="5.74243">
        <ele>961.40002441406</ele>
        <time>2021-05-29T05:18:47.000Z</time>
      </trkpt>
      <trkpt lat="45.23688" lon="5.74245">
        <ele>962.20001220703</ele>
        <time>2021-05-29T05:18:50.000Z</time>
      </trkpt>
      <trkpt lat="45.23684" lon="5.74247">
        <ele>962.59997558594</ele>
        <time>2021-05-29T05:18:53.000Z</time>
      </trkpt>
      <trkpt lat="45.23683" lon="5.74249">
        <ele>962.79998779297</ele>
        <time>2021-05-29T05:18:54.000Z</time>
      </trkpt>
      <trkpt lat="45.2368" lon="5.74249">
        <ele>963.20001220703</ele>
        <time>2021-05-29T05:18:56.000Z</time>
      </trkpt>
      <trkpt lat="45.23676" lon="5.74251">
        <ele>963.59997558594</ele>
        <time>2021-05-29T05:18:58.000Z</time>
      </trkpt>
      <trkpt lat="45.23675" lon="5.74252">
        <ele>964</ele>
        <time>2021-05-29T05:18:59.000Z</time>
      </trkpt>
      <trkpt lat="45.23672" lon="5.74254">
        <ele>964.40002441406</ele>
        <time>2021-05-29T05:19:01.000Z</time>
      </trkpt>
      <trkpt lat="45.23669" lon="5.74257">
        <ele>964.79998779297</ele>
        <time>2021-05-29T05:19:03.000Z</time>
      </trkpt>
      <trkpt lat="45.23663" lon="5.74263">
        <ele>965.20001220703</ele>
        <time>2021-05-29T05:19:05.000Z</time>
      </trkpt>
      <trkpt lat="45.2366" lon="5.74266">
        <ele>965.20001220703</ele>
        <time>2021-05-29T05:19:06.000Z</time>
      </trkpt>
      <trkpt lat="45.23657" lon="5.74269">
        <ele>965.59997558594</ele>
        <time>2021-05-29T05:19:07.000Z</time>
      </trkpt>
      <trkpt lat="45.23653" lon="5.74273">
        <ele>966.79998779297</ele>
        <time>2021-05-29T05:19:11.000Z</time>
      </trkpt>
      <trkpt lat="45.23653" lon="5.74273">
        <ele>967</ele>
        <time>2021-05-29T05:19:12.000Z</time>
      </trkpt>
      <trkpt lat="45.23649" lon="5.74275">
        <ele>968</ele>
        <time>2021-05-29T05:19:16.000Z</time>
      </trkpt>
      <trkpt lat="45.23647" lon="5.74276">
        <ele>968.40002441406</ele>
        <time>2021-05-29T05:19:18.000Z</time>
      </trkpt>
      <trkpt lat="45.23644" lon="5.74278">
        <ele>969</ele>
        <time>2021-05-29T05:19:21.000Z</time>
      </trkpt>
      <trkpt lat="45.23639" lon="5.7428">
        <ele>969.79998779297</ele>
        <time>2021-05-29T05:19:25.000Z</time>
      </trkpt>
      <trkpt lat="45.23639" lon="5.74279">
        <ele>970.20001220703</ele>
        <time>2021-05-29T05:19:26.000Z</time>
      </trkpt>
      <trkpt lat="45.23637" lon="5.74278">
        <ele>970.79998779297</ele>
        <time>2021-05-29T05:19:28.000Z</time>
      </trkpt>
      <trkpt lat="45.23634" lon="5.74278">
        <ele>971</ele>
        <time>2021-05-29T05:19:30.000Z</time>
      </trkpt>
      <trkpt lat="45.23633" lon="5.7428">
        <ele>971.40002441406</ele>
        <time>2021-05-29T05:19:31.000Z</time>
      </trkpt>
      <trkpt lat="45.23631" lon="5.74281">
        <ele>972</ele>
        <time>2021-05-29T05:19:33.000Z</time>
      </trkpt>
      <trkpt lat="45.23629" lon="5.74283">
        <ele>972.59997558594</ele>
        <time>2021-05-29T05:19:36.000Z</time>
      </trkpt>
      <trkpt lat="45.23625" lon="5.74287">
        <ele>973.20001220703</ele>
        <time>2021-05-29T05:19:40.000Z</time>
      </trkpt>
      <trkpt lat="45.23624" lon="5.74287">
        <ele>973.59997558594</ele>
        <time>2021-05-29T05:19:41.000Z</time>
      </trkpt>
      <trkpt lat="45.23622" lon="5.74289">
        <ele>974.20001220703</ele>
        <time>2021-05-29T05:19:42.000Z</time>
      </trkpt>
      <trkpt lat="45.2362" lon="5.7429">
        <ele>974.79998779297</ele>
        <time>2021-05-29T05:19:45.000Z</time>
      </trkpt>
      <trkpt lat="45.23613" lon="5.74297">
        <ele>975.79998779297</ele>
        <time>2021-05-29T05:19:50.000Z</time>
      </trkpt>
      <trkpt lat="45.23609" lon="5.743">
        <ele>977</ele>
        <time>2021-05-29T05:19:54.000Z</time>
      </trkpt>
      <trkpt lat="45.23608" lon="5.743">
        <ele>977.20001220703</ele>
        <time>2021-05-29T05:19:55.000Z</time>
      </trkpt>
      <trkpt lat="45.23606" lon="5.74299">
        <ele>977.40002441406</ele>
        <time>2021-05-29T05:19:56.000Z</time>
      </trkpt>
      <trkpt lat="45.236" lon="5.743">
        <ele>978</ele>
        <time>2021-05-29T05:19:59.000Z</time>
      </trkpt>
      <trkpt lat="45.23594" lon="5.74303">
        <ele>978.79998779297</ele>
        <time>2021-05-29T05:20:02.000Z</time>
      </trkpt>
      <trkpt lat="45.23593" lon="5.74304">
        <ele>979.20001220703</ele>
        <time>2021-05-29T05:20:03.000Z</time>
      </trkpt>
      <trkpt lat="45.23589" lon="5.74305">
        <ele>980.20001220703</ele>
        <time>2021-05-29T05:20:07.000Z</time>
      </trkpt>
      <trkpt lat="45.23586" lon="5.74306">
        <ele>980.79998779297</ele>
        <time>2021-05-29T05:20:10.000Z</time>
      </trkpt>
      <trkpt lat="45.23584" lon="5.74304">
        <ele>981.40002441406</ele>
        <time>2021-05-29T05:20:12.000Z</time>
      </trkpt>
      <trkpt lat="45.23584" lon="5.74303">
        <ele>981.59997558594</ele>
        <time>2021-05-29T05:20:13.000Z</time>
      </trkpt>
      <trkpt lat="45.23582" lon="5.74305">
        <ele>982.59997558594</ele>
        <time>2021-05-29T05:20:15.000Z</time>
      </trkpt>
      <trkpt lat="45.23581" lon="5.74307">
        <ele>983.20001220703</ele>
        <time>2021-05-29T05:20:17.000Z</time>
      </trkpt>
      <trkpt lat="45.23581" lon="5.74308">
        <ele>983.40002441406</ele>
        <time>2021-05-29T05:20:18.000Z</time>
      </trkpt>
      <trkpt lat="45.2358" lon="5.74308">
        <ele>983.59997558594</ele>
        <time>2021-05-29T05:20:19.000Z</time>
      </trkpt>
      <trkpt lat="45.2358" lon="5.74308">
        <ele>984.40002441406</ele>
        <time>2021-05-29T05:20:21.000Z</time>
      </trkpt>
      <trkpt lat="45.2358" lon="5.74308">
        <ele>984.59997558594</ele>
        <time>2021-05-29T05:20:22.000Z</time>
      </trkpt>
      <trkpt lat="45.2358" lon="5.74308">
        <ele>985</ele>
        <time>2021-05-29T05:20:23.000Z</time>
      </trkpt>
      <trkpt lat="45.2358" lon="5.74308">
        <ele>985</ele>
        <time>2021-05-29T05:20:24.000Z</time>
      </trkpt>
      <trkpt lat="45.23579" lon="5.74309">
        <ele>985.20001220703</ele>
        <time>2021-05-29T05:20:26.000Z</time>
      </trkpt>
      <trkpt lat="45.23578" lon="5.74309">
        <ele>985.79998779297</ele>
        <time>2021-05-29T05:20:28.000Z</time>
      </trkpt>
      <trkpt lat="45.23577" lon="5.74309">
        <ele>986.20001220703</ele>
        <time>2021-05-29T05:20:29.000Z</time>
      </trkpt>
      <trkpt lat="45.23577" lon="5.74309">
        <ele>986.79998779297</ele>
        <time>2021-05-29T05:20:31.000Z</time>
      </trkpt>
      <trkpt lat="45.23577" lon="5.74309">
        <ele>987</ele>
        <time>2021-05-29T05:20:32.000Z</time>
      </trkpt>
      <trkpt lat="45.23577" lon="5.74309">
        <ele>987.59997558594</ele>
        <time>2021-05-29T05:20:34.000Z</time>
      </trkpt>
      <trkpt lat="45.23577" lon="5.74309">
        <ele>988</ele>
        <time>2021-05-29T05:20:35.000Z</time>
      </trkpt>
      <trkpt lat="45.2357" lon="5.74309">
        <ele>989</ele>
        <time>2021-05-29T05:20:41.000Z</time>
      </trkpt>
      <trkpt lat="45.23568" lon="5.74309">
        <ele>989.59997558594</ele>
        <time>2021-05-29T05:20:43.000Z</time>
      </trkpt>
      <trkpt lat="45.23566" lon="5.7431">
        <ele>990</ele>
        <time>2021-05-29T05:20:44.000Z</time>
      </trkpt>
      <trkpt lat="45.23564" lon="5.74311">
        <ele>990.20001220703</ele>
        <time>2021-05-29T05:20:45.000Z</time>
      </trkpt>
      <trkpt lat="45.23559" lon="5.74313">
        <ele>991</ele>
        <time>2021-05-29T05:20:47.000Z</time>
      </trkpt>
      <trkpt lat="45.23559" lon="5.74313">
        <ele>991.20001220703</ele>
        <time>2021-05-29T05:20:48.000Z</time>
      </trkpt>
      <trkpt lat="45.23558" lon="5.74313">
        <ele>991.40002441406</ele>
        <time>2021-05-29T05:20:49.000Z</time>
      </trkpt>
      <trkpt lat="45.23556" lon="5.74312">
        <ele>991.59997558594</ele>
        <time>2021-05-29T05:20:51.000Z</time>
      </trkpt>
      <trkpt lat="45.23552" lon="5.74315">
        <ele>992.59997558594</ele>
        <time>2021-05-29T05:20:54.000Z</time>
      </trkpt>
      <trkpt lat="45.23546" lon="5.74317">
        <ele>993.79998779297</ele>
        <time>2021-05-29T05:20:58.000Z</time>
      </trkpt>
      <trkpt lat="45.23543" lon="5.74318">
        <ele>994</ele>
        <time>2021-05-29T05:21:00.000Z</time>
      </trkpt>
      <trkpt lat="45.23539" lon="5.74322">
        <ele>994.40002441406</ele>
        <time>2021-05-29T05:21:02.000Z</time>
      </trkpt>
      <trkpt lat="45.23538" lon="5.74323">
        <ele>994.79998779297</ele>
        <time>2021-05-29T05:21:03.000Z</time>
      </trkpt>
      <trkpt lat="45.23536" lon="5.74323">
        <ele>995.59997558594</ele>
        <time>2021-05-29T05:21:05.000Z</time>
      </trkpt>
      <trkpt lat="45.23536" lon="5.74323">
        <ele>996</ele>
        <time>2021-05-29T05:21:06.000Z</time>
      </trkpt>
      <trkpt lat="45.23534" lon="5.74322">
        <ele>996.20001220703</ele>
        <time>2021-05-29T05:21:08.000Z</time>
      </trkpt>
      <trkpt lat="45.23533" lon="5.74322">
        <ele>996.79998779297</ele>
        <time>2021-05-29T05:21:09.000Z</time>
      </trkpt>
      <trkpt lat="45.23532" lon="5.74324">
        <ele>997</ele>
        <time>2021-05-29T05:21:10.000Z</time>
      </trkpt>
      <trkpt lat="45.23526" lon="5.74326">
        <ele>997.79998779297</ele>
        <time>2021-05-29T05:21:14.000Z</time>
      </trkpt>
      <trkpt lat="45.23525" lon="5.74326">
        <ele>998</ele>
        <time>2021-05-29T05:21:15.000Z</time>
      </trkpt>
      <trkpt lat="45.23524" lon="5.74326">
        <ele>998.20001220703</ele>
        <time>2021-05-29T05:21:16.000Z</time>
      </trkpt>
      <trkpt lat="45.23521" lon="5.74327">
        <ele>998.59997558594</ele>
        <time>2021-05-29T05:21:18.000Z</time>
      </trkpt>
      <trkpt lat="45.2352" lon="5.74328">
        <ele>998.79998779297</ele>
        <time>2021-05-29T05:21:19.000Z</time>
      </trkpt>
      <trkpt lat="45.23518" lon="5.74328">
        <ele>999</ele>
        <time>2021-05-29T05:21:20.000Z</time>
      </trkpt>
      <trkpt lat="45.23517" lon="5.74328">
        <ele>999.40002441406</ele>
        <time>2021-05-29T05:21:21.000Z</time>
      </trkpt>
      <trkpt lat="45.23515" lon="5.74327">
        <ele>1000.200012207</ele>
        <time>2021-05-29T05:21:23.000Z</time>
      </trkpt>
      <trkpt lat="45.23511" lon="5.74328">
        <ele>1000.4000244141</ele>
        <time>2021-05-29T05:21:25.000Z</time>
      </trkpt>
      <trkpt lat="45.23507" lon="5.7433">
        <ele>1000.799987793</ele>
        <time>2021-05-29T05:21:27.000Z</time>
      </trkpt>
      <trkpt lat="45.23505" lon="5.74329">
        <ele>1001.4000244141</ele>
        <time>2021-05-29T05:21:28.000Z</time>
      </trkpt>
      <trkpt lat="45.23503" lon="5.74327">
        <ele>1002</ele>
        <time>2021-05-29T05:21:30.000Z</time>
      </trkpt>
      <trkpt lat="45.23502" lon="5.74326">
        <ele>1002.200012207</ele>
        <time>2021-05-29T05:21:31.000Z</time>
      </trkpt>
      <trkpt lat="45.23501" lon="5.74326">
        <ele>1002.5999755859</ele>
        <time>2021-05-29T05:21:32.000Z</time>
      </trkpt>
      <trkpt lat="45.23501" lon="5.74325">
        <ele>1002.799987793</ele>
        <time>2021-05-29T05:21:33.000Z</time>
      </trkpt>
      <trkpt lat="45.235" lon="5.74323">
        <ele>1003.5999755859</ele>
        <time>2021-05-29T05:21:35.000Z</time>
      </trkpt>
      <trkpt lat="45.235" lon="5.74322">
        <ele>1003.799987793</ele>
        <time>2021-05-29T05:21:36.000Z</time>
      </trkpt>
      <trkpt lat="45.235" lon="5.74322">
        <ele>1004.200012207</ele>
        <time>2021-05-29T05:21:38.000Z</time>
      </trkpt>
      <trkpt lat="45.23499" lon="5.74322">
        <ele>1004.200012207</ele>
        <time>2021-05-29T05:21:39.000Z</time>
      </trkpt>
      <trkpt lat="45.23499" lon="5.74321">
        <ele>1004.4000244141</ele>
        <time>2021-05-29T05:21:40.000Z</time>
      </trkpt>
      <trkpt lat="45.23498" lon="5.74321">
        <ele>1004.799987793</ele>
        <time>2021-05-29T05:21:41.000Z</time>
      </trkpt>
      <trkpt lat="45.23497" lon="5.74321">
        <ele>1005.200012207</ele>
        <time>2021-05-29T05:21:42.000Z</time>
      </trkpt>
      <trkpt lat="45.23495" lon="5.74321">
        <ele>1005.799987793</ele>
        <time>2021-05-29T05:21:44.000Z</time>
      </trkpt>
      <trkpt lat="45.23494" lon="5.74321">
        <ele>1006</ele>
        <time>2021-05-29T05:21:45.000Z</time>
      </trkpt>
      <trkpt lat="45.23493" lon="5.74321">
        <ele>1006.4000244141</ele>
        <time>2021-05-29T05:21:46.000Z</time>
      </trkpt>
      <trkpt lat="45.23491" lon="5.7432">
        <ele>1007.200012207</ele>
        <time>2021-05-29T05:21:48.000Z</time>
      </trkpt>
      <trkpt lat="45.23491" lon="5.7432">
        <ele>1007.4000244141</ele>
        <time>2021-05-29T05:21:49.000Z</time>
      </trkpt>
      <trkpt lat="45.23488" lon="5.74319">
        <ele>1007.799987793</ele>
        <time>2021-05-29T05:21:51.000Z</time>
      </trkpt>
      <trkpt lat="45.23488" lon="5.74314">
        <ele>1008.4000244141</ele>
        <time>2021-05-29T05:21:53.000Z</time>
      </trkpt>
      <trkpt lat="45.23486" lon="5.7431">
        <ele>1009.4000244141</ele>
        <time>2021-05-29T05:21:56.000Z</time>
      </trkpt>
      <trkpt lat="45.23483" lon="5.74306">
        <ele>1010.5999755859</ele>
        <time>2021-05-29T05:21:59.000Z</time>
      </trkpt>
      <trkpt lat="45.2348" lon="5.74304">
        <ele>1011.5999755859</ele>
        <time>2021-05-29T05:22:02.000Z</time>
      </trkpt>
      <trkpt lat="45.23479" lon="5.74304">
        <ele>1011.799987793</ele>
        <time>2021-05-29T05:22:03.000Z</time>
      </trkpt>
      <trkpt lat="45.23476" lon="5.74303">
        <ele>1012</ele>
        <time>2021-05-29T05:22:05.000Z</time>
      </trkpt>
      <trkpt lat="45.23473" lon="5.74303">
        <ele>1013</ele>
        <time>2021-05-29T05:22:07.000Z</time>
      </trkpt>
      <trkpt lat="45.23468" lon="5.74302">
        <ele>1014</ele>
        <time>2021-05-29T05:22:10.000Z</time>
      </trkpt>
      <trkpt lat="45.23467" lon="5.74301">
        <ele>1014.4000244141</ele>
        <time>2021-05-29T05:22:11.000Z</time>
      </trkpt>
      <trkpt lat="45.23465" lon="5.74299">
        <ele>1015</ele>
        <time>2021-05-29T05:22:14.000Z</time>
      </trkpt>
      <trkpt lat="45.23464" lon="5.74297">
        <ele>1015.4000244141</ele>
        <time>2021-05-29T05:22:16.000Z</time>
      </trkpt>
      <trkpt lat="45.23463" lon="5.74295">
        <ele>1015.799987793</ele>
        <time>2021-05-29T05:22:17.000Z</time>
      </trkpt>
      <trkpt lat="45.23461" lon="5.74294">
        <ele>1016</ele>
        <time>2021-05-29T05:22:18.000Z</time>
      </trkpt>
      <trkpt lat="45.23458" lon="5.74294">
        <ele>1016.4000244141</ele>
        <time>2021-05-29T05:22:20.000Z</time>
      </trkpt>
      <trkpt lat="45.23458" lon="5.74294">
        <ele>1016.5999755859</ele>
        <time>2021-05-29T05:22:21.000Z</time>
      </trkpt>
      <trkpt lat="45.23457" lon="5.74293">
        <ele>1016.799987793</ele>
        <time>2021-05-29T05:22:22.000Z</time>
      </trkpt>
      <trkpt lat="45.23456" lon="5.74291">
        <ele>1017</ele>
        <time>2021-05-29T05:22:23.000Z</time>
      </trkpt>
      <trkpt lat="45.23454" lon="5.74288">
        <ele>1017.4000244141</ele>
        <time>2021-05-29T05:22:25.000Z</time>
      </trkpt>
      <trkpt lat="45.23454" lon="5.74287">
        <ele>1017.799987793</ele>
        <time>2021-05-29T05:22:26.000Z</time>
      </trkpt>
      <trkpt lat="45.2345" lon="5.74284">
        <ele>1018.5999755859</ele>
        <time>2021-05-29T05:22:30.000Z</time>
      </trkpt>
      <trkpt lat="45.23449" lon="5.74283">
        <ele>1018.799987793</ele>
        <time>2021-05-29T05:22:31.000Z</time>
      </trkpt>
      <trkpt lat="45.23445" lon="5.74282">
        <ele>1019.799987793</ele>
        <time>2021-05-29T05:22:35.000Z</time>
      </trkpt>
      <trkpt lat="45.23443" lon="5.7428">
        <ele>1020.4000244141</ele>
        <time>2021-05-29T05:22:37.000Z</time>
      </trkpt>
      <trkpt lat="45.23439" lon="5.74279">
        <ele>1021</ele>
        <time>2021-05-29T05:22:40.000Z</time>
      </trkpt>
      <trkpt lat="45.23436" lon="5.74277">
        <ele>1021.4000244141</ele>
        <time>2021-05-29T05:22:42.000Z</time>
      </trkpt>
      <trkpt lat="45.23433" lon="5.74275">
        <ele>1022</ele>
        <time>2021-05-29T05:22:45.000Z</time>
      </trkpt>
      <trkpt lat="45.23426" lon="5.74273">
        <ele>1023</ele>
        <time>2021-05-29T05:22:50.000Z</time>
      </trkpt>
      <trkpt lat="45.23421" lon="5.74272">
        <ele>1024.1999511719</ele>
        <time>2021-05-29T05:22:54.000Z</time>
      </trkpt>
      <trkpt lat="45.23418" lon="5.74271">
        <ele>1024.5999755859</ele>
        <time>2021-05-29T05:22:56.000Z</time>
      </trkpt>
      <trkpt lat="45.23416" lon="5.7427">
        <ele>1024.8000488281</ele>
        <time>2021-05-29T05:22:57.000Z</time>
      </trkpt>
      <trkpt lat="45.23413" lon="5.74271">
        <ele>1025.4000244141</ele>
        <time>2021-05-29T05:22:59.000Z</time>
      </trkpt>
      <trkpt lat="45.23407" lon="5.74268">
        <ele>1026.1999511719</ele>
        <time>2021-05-29T05:23:02.000Z</time>
      </trkpt>
      <trkpt lat="45.23405" lon="5.74266">
        <ele>1026.4000244141</ele>
        <time>2021-05-29T05:23:04.000Z</time>
      </trkpt>
      <trkpt lat="45.23404" lon="5.74264">
        <ele>1026.5999755859</ele>
        <time>2021-05-29T05:23:06.000Z</time>
      </trkpt>
      <trkpt lat="45.23403" lon="5.74263">
        <ele>1026.8000488281</ele>
        <time>2021-05-29T05:23:07.000Z</time>
      </trkpt>
      <trkpt lat="45.23402" lon="5.74263">
        <ele>1027</ele>
        <time>2021-05-29T05:23:08.000Z</time>
      </trkpt>
      <trkpt lat="45.234" lon="5.74263">
        <ele>1027.1999511719</ele>
        <time>2021-05-29T05:23:09.000Z</time>
      </trkpt>
      <trkpt lat="45.23397" lon="5.74264">
        <ele>1027.5999755859</ele>
        <time>2021-05-29T05:23:11.000Z</time>
      </trkpt>
      <trkpt lat="45.23395" lon="5.74266">
        <ele>1027.8000488281</ele>
        <time>2021-05-29T05:23:13.000Z</time>
      </trkpt>
      <trkpt lat="45.23392" lon="5.7427">
        <ele>1027.8000488281</ele>
        <time>2021-05-29T05:23:16.000Z</time>
      </trkpt>
      <trkpt lat="45.23391" lon="5.74277">
        <ele>1026.4000244141</ele>
        <time>2021-05-29T05:23:20.000Z</time>
      </trkpt>
      <trkpt lat="45.23392" lon="5.74283">
        <ele>1025</ele>
        <time>2021-05-29T05:23:23.000Z</time>
      </trkpt>
      <trkpt lat="45.23392" lon="5.74287">
        <ele>1024</ele>
        <time>2021-05-29T05:23:25.000Z</time>
      </trkpt>
      <trkpt lat="45.23392" lon="5.74293">
        <ele>1022.799987793</ele>
        <time>2021-05-29T05:23:28.000Z</time>
      </trkpt>
      <trkpt lat="45.2339" lon="5.74298">
        <ele>1022.200012207</ele>
        <time>2021-05-29T05:23:30.000Z</time>
      </trkpt>
      <trkpt lat="45.23387" lon="5.74303">
        <ele>1021.799987793</ele>
        <time>2021-05-29T05:23:32.000Z</time>
      </trkpt>
      <trkpt lat="45.23386" lon="5.74308">
        <ele>1021.200012207</ele>
        <time>2021-05-29T05:23:35.000Z</time>
      </trkpt>
      <trkpt lat="45.23384" lon="5.74313">
        <ele>1020.5999755859</ele>
        <time>2021-05-29T05:23:38.000Z</time>
      </trkpt>
      <trkpt lat="45.23383" lon="5.74333">
        <ele>1019.799987793</ele>
        <time>2021-05-29T05:23:45.000Z</time>
      </trkpt>
      <trkpt lat="45.23383" lon="5.74333">
        <ele>1019.200012207</ele>
        <time>2021-05-29T05:23:46.000Z</time>
      </trkpt>
      <trkpt lat="45.23385" lon="5.74347">
        <ele>1018</ele>
        <time>2021-05-29T05:23:50.000Z</time>
      </trkpt>
      <trkpt lat="45.23385" lon="5.74351">
        <ele>1017.5999755859</ele>
        <time>2021-05-29T05:23:51.000Z</time>
      </trkpt>
      <trkpt lat="45.23389" lon="5.7436">
        <ele>1017.200012207</ele>
        <time>2021-05-29T05:23:55.000Z</time>
      </trkpt>
      <trkpt lat="45.23391" lon="5.7436">
        <ele>1017.200012207</ele>
        <time>2021-05-29T05:23:57.000Z</time>
      </trkpt>
      <trkpt lat="45.23403" lon="5.74361">
        <ele>1018.4000244141</ele>
        <time>2021-05-29T05:24:04.000Z</time>
      </trkpt>
      <trkpt lat="45.23417" lon="5.74367">
        <ele>1019.200012207</ele>
        <time>2021-05-29T05:24:10.000Z</time>
      </trkpt>
      <trkpt lat="45.23423" lon="5.74373">
        <ele>1019.5999755859</ele>
        <time>2021-05-29T05:24:13.000Z</time>
      </trkpt>
      <trkpt lat="45.23433" lon="5.7438">
        <ele>1020.4000244141</ele>
        <time>2021-05-29T05:24:17.000Z</time>
      </trkpt>
      <trkpt lat="45.23442" lon="5.74386">
        <ele>1020.799987793</ele>
        <time>2021-05-29T05:24:21.000Z</time>
      </trkpt>
      <trkpt lat="45.23444" lon="5.74388">
        <ele>1021.200012207</ele>
        <time>2021-05-29T05:24:22.000Z</time>
      </trkpt>
      <trkpt lat="45.23449" lon="5.74391">
        <ele>1021.4000244141</ele>
        <time>2021-05-29T05:24:24.000Z</time>
      </trkpt>
      <trkpt lat="45.23452" lon="5.74393">
        <ele>1021.5999755859</ele>
        <time>2021-05-29T05:24:26.000Z</time>
      </trkpt>
      <trkpt lat="45.23463" lon="5.74401">
        <ele>1022</ele>
        <time>2021-05-29T05:24:31.000Z</time>
      </trkpt>
      <trkpt lat="45.23472" lon="5.74409">
        <ele>1022.4000244141</ele>
        <time>2021-05-29T05:24:36.000Z</time>
      </trkpt>
      <trkpt lat="45.23474" lon="5.74411">
        <ele>1022.4000244141</ele>
        <time>2021-05-29T05:24:37.000Z</time>
      </trkpt>
      <trkpt lat="45.23484" lon="5.74423">
        <ele>1022.200012207</ele>
        <time>2021-05-29T05:24:43.000Z</time>
      </trkpt>
      <trkpt lat="45.23491" lon="5.74435">
        <ele>1021.5999755859</ele>
        <time>2021-05-29T05:24:48.000Z</time>
      </trkpt>
      <trkpt lat="45.23492" lon="5.74438">
        <ele>1021.4000244141</ele>
        <time>2021-05-29T05:24:49.000Z</time>
      </trkpt>
      <trkpt lat="45.23493" lon="5.74442">
        <ele>1021</ele>
        <time>2021-05-29T05:24:50.000Z</time>
      </trkpt>
      <trkpt lat="45.23498" lon="5.7445">
        <ele>1020</ele>
        <time>2021-05-29T05:24:53.000Z</time>
      </trkpt>
      <trkpt lat="45.23502" lon="5.74454">
        <ele>1019.5999755859</ele>
        <time>2021-05-29T05:24:55.000Z</time>
      </trkpt>
      <trkpt lat="45.2351" lon="5.74459">
        <ele>1019</ele>
        <time>2021-05-29T05:24:58.000Z</time>
      </trkpt>
      <trkpt lat="45.23512" lon="5.7446">
        <ele>1018.799987793</ele>
        <time>2021-05-29T05:24:59.000Z</time>
      </trkpt>
      <trkpt lat="45.23518" lon="5.74467">
        <ele>1017.5999755859</ele>
        <time>2021-05-29T05:25:02.000Z</time>
      </trkpt>
      <trkpt lat="45.2352" lon="5.74468">
        <ele>1017.4000244141</ele>
        <time>2021-05-29T05:25:03.000Z</time>
      </trkpt>
      <trkpt lat="45.23522" lon="5.7447">
        <ele>1017.4000244141</ele>
        <time>2021-05-29T05:25:04.000Z</time>
      </trkpt>
      <trkpt lat="45.23529" lon="5.74477">
        <ele>1016.5999755859</ele>
        <time>2021-05-29T05:25:08.000Z</time>
      </trkpt>
      <trkpt lat="45.23532" lon="5.74479">
        <ele>1015.799987793</ele>
        <time>2021-05-29T05:25:10.000Z</time>
      </trkpt>
      <trkpt lat="45.23534" lon="5.7448">
        <ele>1015.5999755859</ele>
        <time>2021-05-29T05:25:11.000Z</time>
      </trkpt>
      <trkpt lat="45.23536" lon="5.7448">
        <ele>1015.4000244141</ele>
        <time>2021-05-29T05:25:12.000Z</time>
      </trkpt>
      <trkpt lat="45.23541" lon="5.74481">
        <ele>1014.4000244141</ele>
        <time>2021-05-29T05:25:15.000Z</time>
      </trkpt>
      <trkpt lat="45.23544" lon="5.74482">
        <ele>1013.799987793</ele>
        <time>2021-05-29T05:25:17.000Z</time>
      </trkpt>
      <trkpt lat="45.2355" lon="5.74484">
        <ele>1012.799987793</ele>
        <time>2021-05-29T05:25:20.000Z</time>
      </trkpt>
      <trkpt lat="45.23552" lon="5.74486">
        <ele>1012.5999755859</ele>
        <time>2021-05-29T05:25:21.000Z</time>
      </trkpt>
      <trkpt lat="45.23554" lon="5.74489">
        <ele>1012.200012207</ele>
        <time>2021-05-29T05:25:23.000Z</time>
      </trkpt>
      <trkpt lat="45.23557" lon="5.74492">
        <ele>1012</ele>
        <time>2021-05-29T05:25:25.000Z</time>
      </trkpt>
      <trkpt lat="45.23558" lon="5.74495">
        <ele>1011.5999755859</ele>
        <time>2021-05-29T05:25:26.000Z</time>
      </trkpt>
      <trkpt lat="45.23563" lon="5.74503">
        <ele>1011</ele>
        <time>2021-05-29T05:25:29.000Z</time>
      </trkpt>
      <trkpt lat="45.23565" lon="5.74508">
        <ele>1010.799987793</ele>
        <time>2021-05-29T05:25:30.000Z</time>
      </trkpt>
      <trkpt lat="45.23567" lon="5.74513">
        <ele>1010.5999755859</ele>
        <time>2021-05-29T05:25:31.000Z</time>
      </trkpt>
      <trkpt lat="45.23571" lon="5.7452">
        <ele>1010.200012207</ele>
        <time>2021-05-29T05:25:33.000Z</time>
      </trkpt>
      <trkpt lat="45.23578" lon="5.74539">
        <ele>1009.5999755859</ele>
        <time>2021-05-29T05:25:38.000Z</time>
      </trkpt>
      <trkpt lat="45.23579" lon="5.74543">
        <ele>1009.5999755859</ele>
        <time>2021-05-29T05:25:39.000Z</time>
      </trkpt>
      <trkpt lat="45.23583" lon="5.74551">
        <ele>1008.4000244141</ele>
        <time>2021-05-29T05:25:42.000Z</time>
      </trkpt>
      <trkpt lat="45.23588" lon="5.74565">
        <ele>1007.200012207</ele>
        <time>2021-05-29T05:25:47.000Z</time>
      </trkpt>
      <trkpt lat="45.2359" lon="5.74567">
        <ele>1007</ele>
        <time>2021-05-29T05:25:48.000Z</time>
      </trkpt>
      <trkpt lat="45.23592" lon="5.74569">
        <ele>1006.799987793</ele>
        <time>2021-05-29T05:25:49.000Z</time>
      </trkpt>
      <trkpt lat="45.23597" lon="5.74572">
        <ele>1006.200012207</ele>
        <time>2021-05-29T05:25:51.000Z</time>
      </trkpt>
      <trkpt lat="45.236" lon="5.74572">
        <ele>1005.799987793</ele>
        <time>2021-05-29T05:25:52.000Z</time>
      </trkpt>
      <trkpt lat="45.23606" lon="5.74576">
        <ele>1005</ele>
        <time>2021-05-29T05:25:55.000Z</time>
      </trkpt>
      <trkpt lat="45.23611" lon="5.74576">
        <ele>1004.4000244141</ele>
        <time>2021-05-29T05:25:57.000Z</time>
      </trkpt>
      <trkpt lat="45.23616" lon="5.74575">
        <ele>1004</ele>
        <time>2021-05-29T05:25:59.000Z</time>
      </trkpt>
      <trkpt lat="45.23618" lon="5.74573">
        <ele>1003.5999755859</ele>
        <time>2021-05-29T05:26:00.000Z</time>
      </trkpt>
      <trkpt lat="45.23623" lon="5.74573">
        <ele>1002.5999755859</ele>
        <time>2021-05-29T05:26:03.000Z</time>
      </trkpt>
      <trkpt lat="45.23632" lon="5.74569">
        <ele>1001.5999755859</ele>
        <time>2021-05-29T05:26:08.000Z</time>
      </trkpt>
      <trkpt lat="45.23638" lon="5.74567">
        <ele>1000.799987793</ele>
        <time>2021-05-29T05:26:11.000Z</time>
      </trkpt>
      <trkpt lat="45.23642" lon="5.74566">
        <ele>1000.4000244141</ele>
        <time>2021-05-29T05:26:13.000Z</time>
      </trkpt>
      <trkpt lat="45.23648" lon="5.74564">
        <ele>999.40002441406</ele>
        <time>2021-05-29T05:26:16.000Z</time>
      </trkpt>
      <trkpt lat="45.2365" lon="5.74564">
        <ele>999.20001220703</ele>
        <time>2021-05-29T05:26:17.000Z</time>
      </trkpt>
      <trkpt lat="45.23656" lon="5.74563">
        <ele>998.79998779297</ele>
        <time>2021-05-29T05:26:19.000Z</time>
      </trkpt>
      <trkpt lat="45.23662" lon="5.74563">
        <ele>998.20001220703</ele>
        <time>2021-05-29T05:26:21.000Z</time>
      </trkpt>
      <trkpt lat="45.23674" lon="5.74561">
        <ele>997.20001220703</ele>
        <time>2021-05-29T05:26:26.000Z</time>
      </trkpt>
      <trkpt lat="45.23677" lon="5.74561">
        <ele>996.79998779297</ele>
        <time>2021-05-29T05:26:27.000Z</time>
      </trkpt>
      <trkpt lat="45.23683" lon="5.7456">
        <ele>996</ele>
        <time>2021-05-29T05:26:30.000Z</time>
      </trkpt>
      <trkpt lat="45.23694" lon="5.74556">
        <ele>994.59997558594</ele>
        <time>2021-05-29T05:26:35.000Z</time>
      </trkpt>
      <trkpt lat="45.23696" lon="5.74555">
        <ele>994.20001220703</ele>
        <time>2021-05-29T05:26:36.000Z</time>
      </trkpt>
      <trkpt lat="45.23705" lon="5.74551">
        <ele>993.40002441406</ele>
        <time>2021-05-29T05:26:40.000Z</time>
      </trkpt>
      <trkpt lat="45.23714" lon="5.74543">
        <ele>992.40002441406</ele>
        <time>2021-05-29T05:26:45.000Z</time>
      </trkpt>
      <trkpt lat="45.23717" lon="5.74541">
        <ele>992.40002441406</ele>
        <time>2021-05-29T05:26:46.000Z</time>
      </trkpt>
      <trkpt lat="45.23734" lon="5.74536">
        <ele>991.59997558594</ele>
        <time>2021-05-29T05:26:52.000Z</time>
      </trkpt>
      <trkpt lat="45.23745" lon="5.74537">
        <ele>991.59997558594</ele>
        <time>2021-05-29T05:26:57.000Z</time>
      </trkpt>
      <trkpt lat="45.23747" lon="5.74539">
        <ele>991.59997558594</ele>
        <time>2021-05-29T05:26:58.000Z</time>
      </trkpt>
      <trkpt lat="45.23749" lon="5.74541">
        <ele>991.40002441406</ele>
        <time>2021-05-29T05:26:59.000Z</time>
      </trkpt>
      <trkpt lat="45.23763" lon="5.7455">
        <ele>991.40002441406</ele>
        <time>2021-05-29T05:27:06.000Z</time>
      </trkpt>
      <trkpt lat="45.23765" lon="5.74551">
        <ele>991.40002441406</ele>
        <time>2021-05-29T05:27:07.000Z</time>
      </trkpt>
      <trkpt lat="45.2377" lon="5.74553">
        <ele>991.79998779297</ele>
        <time>2021-05-29T05:27:09.000Z</time>
      </trkpt>
      <trkpt lat="45.23775" lon="5.74555">
        <ele>992</ele>
        <time>2021-05-29T05:27:12.000Z</time>
      </trkpt>
      <trkpt lat="45.23776" lon="5.74556">
        <ele>992</ele>
        <time>2021-05-29T05:27:13.000Z</time>
      </trkpt>
      <trkpt lat="45.23778" lon="5.74558">
        <ele>992.59997558594</ele>
        <time>2021-05-29T05:27:14.000Z</time>
      </trkpt>
      <trkpt lat="45.23779" lon="5.74559">
        <ele>992.79998779297</ele>
        <time>2021-05-29T05:27:15.000Z</time>
      </trkpt>
      <trkpt lat="45.23784" lon="5.7456">
        <ele>993</ele>
        <time>2021-05-29T05:27:17.000Z</time>
      </trkpt>
      <trkpt lat="45.23786" lon="5.7456">
        <ele>993.20001220703</ele>
        <time>2021-05-29T05:27:18.000Z</time>
      </trkpt>
      <trkpt lat="45.23789" lon="5.7456">
        <ele>993.40002441406</ele>
        <time>2021-05-29T05:27:19.000Z</time>
      </trkpt>
      <trkpt lat="45.23791" lon="5.7456">
        <ele>993.59997558594</ele>
        <time>2021-05-29T05:27:20.000Z</time>
      </trkpt>
      <trkpt lat="45.23793" lon="5.74561">
        <ele>993.79998779297</ele>
        <time>2021-05-29T05:27:21.000Z</time>
      </trkpt>
      <trkpt lat="45.23799" lon="5.74562">
        <ele>994.59997558594</ele>
        <time>2021-05-29T05:27:24.000Z</time>
      </trkpt>
      <trkpt lat="45.238" lon="5.74562">
        <ele>994.59997558594</ele>
        <time>2021-05-29T05:27:25.000Z</time>
      </trkpt>
      <trkpt lat="45.23805" lon="5.74562">
        <ele>995.40002441406</ele>
        <time>2021-05-29T05:27:28.000Z</time>
      </trkpt>
      <trkpt lat="45.23809" lon="5.74562">
        <ele>995.79998779297</ele>
        <time>2021-05-29T05:27:30.000Z</time>
      </trkpt>
      <trkpt lat="45.23813" lon="5.74563">
        <ele>996.20001220703</ele>
        <time>2021-05-29T05:27:32.000Z</time>
      </trkpt>
      <trkpt lat="45.23817" lon="5.74567">
        <ele>996.79998779297</ele>
        <time>2021-05-29T05:27:35.000Z</time>
      </trkpt>
      <trkpt lat="45.23822" lon="5.74569">
        <ele>997.20001220703</ele>
        <time>2021-05-29T05:27:38.000Z</time>
      </trkpt>
      <trkpt lat="45.23824" lon="5.74569">
        <ele>997.40002441406</ele>
        <time>2021-05-29T05:27:39.000Z</time>
      </trkpt>
      <trkpt lat="45.23825" lon="5.74569">
        <ele>997.59997558594</ele>
        <time>2021-05-29T05:27:40.000Z</time>
      </trkpt>
      <trkpt lat="45.23828" lon="5.7457">
        <ele>997.79998779297</ele>
        <time>2021-05-29T05:27:41.000Z</time>
      </trkpt>
      <trkpt lat="45.23833" lon="5.74571">
        <ele>998.40002441406</ele>
        <time>2021-05-29T05:27:43.000Z</time>
      </trkpt>
      <trkpt lat="45.23835" lon="5.74572">
        <ele>998.59997558594</ele>
        <time>2021-05-29T05:27:44.000Z</time>
      </trkpt>
      <trkpt lat="45.23839" lon="5.74574">
        <ele>999</ele>
        <time>2021-05-29T05:27:46.000Z</time>
      </trkpt>
      <trkpt lat="45.23846" lon="5.74575">
        <ele>999.59997558594</ele>
        <time>2021-05-29T05:27:49.000Z</time>
      </trkpt>
      <trkpt lat="45.2385" lon="5.74577">
        <ele>999.79998779297</ele>
        <time>2021-05-29T05:27:51.000Z</time>
      </trkpt>
      <trkpt lat="45.23853" lon="5.74576">
        <ele>1000.200012207</ele>
        <time>2021-05-29T05:27:52.000Z</time>
      </trkpt>
      <trkpt lat="45.23855" lon="5.74577">
        <ele>1000.5999755859</ele>
        <time>2021-05-29T05:27:53.000Z</time>
      </trkpt>
      <trkpt lat="45.23864" lon="5.7458">
        <ele>1001.4000244141</ele>
        <time>2021-05-29T05:27:58.000Z</time>
      </trkpt>
      <trkpt lat="45.23868" lon="5.7458">
        <ele>1001.799987793</ele>
        <time>2021-05-29T05:28:00.000Z</time>
      </trkpt>
      <trkpt lat="45.23871" lon="5.74582">
        <ele>1002.200012207</ele>
        <time>2021-05-29T05:28:02.000Z</time>
      </trkpt>
      <trkpt lat="45.23872" lon="5.74582">
        <ele>1002.4000244141</ele>
        <time>2021-05-29T05:28:03.000Z</time>
      </trkpt>
      <trkpt lat="45.23878" lon="5.74583">
        <ele>1003.200012207</ele>
        <time>2021-05-29T05:28:07.000Z</time>
      </trkpt>
      <trkpt lat="45.23882" lon="5.74583">
        <ele>1003.4000244141</ele>
        <time>2021-05-29T05:28:08.000Z</time>
      </trkpt>
      <trkpt lat="45.23882" lon="5.74583">
        <ele>1003.4000244141</ele>
        <time>2021-05-29T05:28:09.000Z</time>
      </trkpt>
      <trkpt lat="45.23883" lon="5.74584">
        <ele>1003.5999755859</ele>
        <time>2021-05-29T05:28:10.000Z</time>
      </trkpt>
      <trkpt lat="45.23884" lon="5.74587">
        <ele>1004</ele>
        <time>2021-05-29T05:28:12.000Z</time>
      </trkpt>
      <trkpt lat="45.23885" lon="5.74589">
        <ele>1004.200012207</ele>
        <time>2021-05-29T05:28:13.000Z</time>
      </trkpt>
      <trkpt lat="45.23886" lon="5.74589">
        <ele>1004.4000244141</ele>
        <time>2021-05-29T05:28:14.000Z</time>
      </trkpt>
      <trkpt lat="45.23892" lon="5.74589">
        <ele>1004.799987793</ele>
        <time>2021-05-29T05:28:17.000Z</time>
      </trkpt>
      <trkpt lat="45.23894" lon="5.74589">
        <ele>1005</ele>
        <time>2021-05-29T05:28:18.000Z</time>
      </trkpt>
      <trkpt lat="45.23897" lon="5.74589">
        <ele>1005.200012207</ele>
        <time>2021-05-29T05:28:19.000Z</time>
      </trkpt>
      <trkpt lat="45.23901" lon="5.74591">
        <ele>1005.5999755859</ele>
        <time>2021-05-29T05:28:21.000Z</time>
      </trkpt>
      <trkpt lat="45.23903" lon="5.74591">
        <ele>1005.799987793</ele>
        <time>2021-05-29T05:28:22.000Z</time>
      </trkpt>
      <trkpt lat="45.23906" lon="5.74592">
        <ele>1006</ele>
        <time>2021-05-29T05:28:24.000Z</time>
      </trkpt>
      <trkpt lat="45.23908" lon="5.74594">
        <ele>1006.4000244141</ele>
        <time>2021-05-29T05:28:26.000Z</time>
      </trkpt>
      <trkpt lat="45.2391" lon="5.74595">
        <ele>1006.799987793</ele>
        <time>2021-05-29T05:28:27.000Z</time>
      </trkpt>
      <trkpt lat="45.23913" lon="5.74596">
        <ele>1007.200012207</ele>
        <time>2021-05-29T05:28:29.000Z</time>
      </trkpt>
      <trkpt lat="45.23914" lon="5.74596">
        <ele>1007.200012207</ele>
        <time>2021-05-29T05:28:30.000Z</time>
      </trkpt>
      <trkpt lat="45.23915" lon="5.74596">
        <ele>1007.4000244141</ele>
        <time>2021-05-29T05:28:31.000Z</time>
      </trkpt>
      <trkpt lat="45.23919" lon="5.74599">
        <ele>1007.799987793</ele>
        <time>2021-05-29T05:28:34.000Z</time>
      </trkpt>
      <trkpt lat="45.2392" lon="5.74599">
        <ele>1008</ele>
        <time>2021-05-29T05:28:35.000Z</time>
      </trkpt>
      <trkpt lat="45.23923" lon="5.746">
        <ele>1008</ele>
        <time>2021-05-29T05:28:36.000Z</time>
      </trkpt>
      <trkpt lat="45.23929" lon="5.74605">
        <ele>1008.5999755859</ele>
        <time>2021-05-29T05:28:40.000Z</time>
      </trkpt>
      <trkpt lat="45.23931" lon="5.74606">
        <ele>1008.799987793</ele>
        <time>2021-05-29T05:28:41.000Z</time>
      </trkpt>
      <trkpt lat="45.23932" lon="5.74607">
        <ele>1009</ele>
        <time>2021-05-29T05:28:42.000Z</time>
      </trkpt>
      <trkpt lat="45.23936" lon="5.74611">
        <ele>1009.5999755859</ele>
        <time>2021-05-29T05:28:45.000Z</time>
      </trkpt>
      <trkpt lat="45.2394" lon="5.74612">
        <ele>1009.5999755859</ele>
        <time>2021-05-29T05:28:47.000Z</time>
      </trkpt>
      <trkpt lat="45.23945" lon="5.74612">
        <ele>1010</ele>
        <time>2021-05-29T05:28:49.000Z</time>
      </trkpt>
      <trkpt lat="45.23951" lon="5.74609">
        <ele>1010.4000244141</ele>
        <time>2021-05-29T05:28:52.000Z</time>
      </trkpt>
      <trkpt lat="45.23955" lon="5.74603">
        <ele>1010.799987793</ele>
        <time>2021-05-29T05:28:55.000Z</time>
      </trkpt>
      <trkpt lat="45.23956" lon="5.74597">
        <ele>1011.200012207</ele>
        <time>2021-05-29T05:28:57.000Z</time>
      </trkpt>
      <trkpt lat="45.23956" lon="5.74597">
        <ele>1011.4000244141</ele>
        <time>2021-05-29T05:28:58.000Z</time>
      </trkpt>
      <trkpt lat="45.23953" lon="5.74591">
        <ele>1012</ele>
        <time>2021-05-29T05:29:02.000Z</time>
      </trkpt>
      <trkpt lat="45.23952" lon="5.74588">
        <ele>1012.4000244141</ele>
        <time>2021-05-29T05:29:04.000Z</time>
      </trkpt>
      <trkpt lat="45.23946" lon="5.74578">
        <ele>1013</ele>
        <time>2021-05-29T05:29:10.000Z</time>
      </trkpt>
      <trkpt lat="45.23944" lon="5.74576">
        <ele>1013.200012207</ele>
        <time>2021-05-29T05:29:11.000Z</time>
      </trkpt>
      <trkpt lat="45.23943" lon="5.74575">
        <ele>1013.4000244141</ele>
        <time>2021-05-29T05:29:12.000Z</time>
      </trkpt>
      <trkpt lat="45.23943" lon="5.74574">
        <ele>1013.5999755859</ele>
        <time>2021-05-29T05:29:13.000Z</time>
      </trkpt>
      <trkpt lat="45.2394" lon="5.74568">
        <ele>1013.799987793</ele>
        <time>2021-05-29T05:29:16.000Z</time>
      </trkpt>
      <trkpt lat="45.23933" lon="5.74565">
        <ele>1014.4000244141</ele>
        <time>2021-05-29T05:29:20.000Z</time>
      </trkpt>
      <trkpt lat="45.23931" lon="5.74561">
        <ele>1015</ele>
        <time>2021-05-29T05:29:22.000Z</time>
      </trkpt>
      <trkpt lat="45.23929" lon="5.74554">
        <ele>1015.5999755859</ele>
        <time>2021-05-29T05:29:26.000Z</time>
      </trkpt>
      <trkpt lat="45.23929" lon="5.74551">
        <ele>1015.799987793</ele>
        <time>2021-05-29T05:29:27.000Z</time>
      </trkpt>
      <trkpt lat="45.23928" lon="5.74545">
        <ele>1016.4000244141</ele>
        <time>2021-05-29T05:29:30.000Z</time>
      </trkpt>
      <trkpt lat="45.23929" lon="5.74536">
        <ele>1016.799987793</ele>
        <time>2021-05-29T05:29:33.000Z</time>
      </trkpt>
      <trkpt lat="45.2393" lon="5.74533">
        <ele>1017</ele>
        <time>2021-05-29T05:29:34.000Z</time>
      </trkpt>
      <trkpt lat="45.23934" lon="5.74519">
        <ele>1017.799987793</ele>
        <time>2021-05-29T05:29:39.000Z</time>
      </trkpt>
      <trkpt lat="45.23937" lon="5.74514">
        <ele>1018.4000244141</ele>
        <time>2021-05-29T05:29:42.000Z</time>
      </trkpt>
      <trkpt lat="45.23939" lon="5.7451">
        <ele>1019</ele>
        <time>2021-05-29T05:29:45.000Z</time>
      </trkpt>
      <trkpt lat="45.23943" lon="5.74503">
        <ele>1019.4000244141</ele>
        <time>2021-05-29T05:29:48.000Z</time>
      </trkpt>
      <trkpt lat="45.23949" lon="5.74496">
        <ele>1020</ele>
        <time>2021-05-29T05:29:52.000Z</time>
      </trkpt>
      <trkpt lat="45.23951" lon="5.74492">
        <ele>1020.4000244141</ele>
        <time>2021-05-29T05:29:54.000Z</time>
      </trkpt>
      <trkpt lat="45.23952" lon="5.7449">
        <ele>1020.4000244141</ele>
        <time>2021-05-29T05:29:55.000Z</time>
      </trkpt>
      <trkpt lat="45.23957" lon="5.74483">
        <ele>1021</ele>
        <time>2021-05-29T05:29:59.000Z</time>
      </trkpt>
      <trkpt lat="45.23961" lon="5.74475">
        <ele>1021.799987793</ele>
        <time>2021-05-29T05:30:02.000Z</time>
      </trkpt>
      <trkpt lat="45.23965" lon="5.74468">
        <ele>1021.799987793</ele>
        <time>2021-05-29T05:30:05.000Z</time>
      </trkpt>
      <trkpt lat="45.23968" lon="5.74464">
        <ele>1022.200012207</ele>
        <time>2021-05-29T05:30:07.000Z</time>
      </trkpt>
      <trkpt lat="45.23971" lon="5.74458">
        <ele>1022.5999755859</ele>
        <time>2021-05-29T05:30:09.000Z</time>
      </trkpt>
      <trkpt lat="45.23973" lon="5.74453">
        <ele>1023</ele>
        <time>2021-05-29T05:30:11.000Z</time>
      </trkpt>
      <trkpt lat="45.23975" lon="5.74451">
        <ele>1023</ele>
        <time>2021-05-29T05:30:12.000Z</time>
      </trkpt>
      <trkpt lat="45.23978" lon="5.74446">
        <ele>1023.200012207</ele>
        <time>2021-05-29T05:30:14.000Z</time>
      </trkpt>
      <trkpt lat="45.23981" lon="5.74443">
        <ele>1023.200012207</ele>
        <time>2021-05-29T05:30:15.000Z</time>
      </trkpt>
      <trkpt lat="45.23982" lon="5.74441">
        <ele>1023.4000244141</ele>
        <time>2021-05-29T05:30:17.000Z</time>
      </trkpt>
      <trkpt lat="45.23989" lon="5.74429">
        <ele>1024.4000244141</ele>
        <time>2021-05-29T05:30:22.000Z</time>
      </trkpt>
      <trkpt lat="45.23992" lon="5.74424">
        <ele>1024.8000488281</ele>
        <time>2021-05-29T05:30:24.000Z</time>
      </trkpt>
      <trkpt lat="45.23998" lon="5.74413">
        <ele>1025.4000244141</ele>
        <time>2021-05-29T05:30:29.000Z</time>
      </trkpt>
      <trkpt lat="45.24001" lon="5.74409">
        <ele>1025.5999755859</ele>
        <time>2021-05-29T05:30:31.000Z</time>
      </trkpt>
      <trkpt lat="45.24008" lon="5.74398">
        <ele>1025.5999755859</ele>
        <time>2021-05-29T05:30:35.000Z</time>
      </trkpt>
      <trkpt lat="45.24014" lon="5.74387">
        <ele>1026.4000244141</ele>
        <time>2021-05-29T05:30:39.000Z</time>
      </trkpt>
      <trkpt lat="45.24017" lon="5.74382">
        <ele>1026.5999755859</ele>
        <time>2021-05-29T05:30:41.000Z</time>
      </trkpt>
      <trkpt lat="45.24024" lon="5.74369">
        <ele>1027.4000244141</ele>
        <time>2021-05-29T05:30:47.000Z</time>
      </trkpt>
      <trkpt lat="45.24025" lon="5.74366">
        <ele>1027.5999755859</ele>
        <time>2021-05-29T05:30:48.000Z</time>
      </trkpt>
      <trkpt lat="45.24034" lon="5.74353">
        <ele>1028.4000244141</ele>
        <time>2021-05-29T05:30:54.000Z</time>
      </trkpt>
      <trkpt lat="45.24036" lon="5.74351">
        <ele>1028.5999755859</ele>
        <time>2021-05-29T05:30:55.000Z</time>
      </trkpt>
      <trkpt lat="45.24037" lon="5.7435">
        <ele>1028.8000488281</ele>
        <time>2021-05-29T05:30:56.000Z</time>
      </trkpt>
      <trkpt lat="45.24042" lon="5.74346">
        <ele>1029.4000244141</ele>
        <time>2021-05-29T05:30:59.000Z</time>
      </trkpt>
      <trkpt lat="45.24045" lon="5.74346">
        <ele>1029.5999755859</ele>
        <time>2021-05-29T05:31:00.000Z</time>
      </trkpt>
      <trkpt lat="45.24047" lon="5.74347">
        <ele>1029.8000488281</ele>
        <time>2021-05-29T05:31:02.000Z</time>
      </trkpt>
      <trkpt lat="45.24053" lon="5.74354">
        <ele>1030.5999755859</ele>
        <time>2021-05-29T05:31:06.000Z</time>
      </trkpt>
      <trkpt lat="45.24058" lon="5.74361">
        <ele>1031.4000244141</ele>
        <time>2021-05-29T05:31:10.000Z</time>
      </trkpt>
      <trkpt lat="45.24059" lon="5.74363">
        <ele>1031.5999755859</ele>
        <time>2021-05-29T05:31:11.000Z</time>
      </trkpt>
      <trkpt lat="45.24059" lon="5.74365">
        <ele>1032</ele>
        <time>2021-05-29T05:31:12.000Z</time>
      </trkpt>
      <trkpt lat="45.24059" lon="5.74374">
        <ele>1032.5999755859</ele>
        <time>2021-05-29T05:31:15.000Z</time>
      </trkpt>
      <trkpt lat="45.24059" lon="5.74376">
        <ele>1032.8000488281</ele>
        <time>2021-05-29T05:31:16.000Z</time>
      </trkpt>
      <trkpt lat="45.24061" lon="5.74388">
        <ele>1033.8000488281</ele>
        <time>2021-05-29T05:31:22.000Z</time>
      </trkpt>
      <trkpt lat="45.24061" lon="5.74394">
        <ele>1034.4000244141</ele>
        <time>2021-05-29T05:31:25.000Z</time>
      </trkpt>
      <trkpt lat="45.24062" lon="5.74396">
        <ele>1034.8000488281</ele>
        <time>2021-05-29T05:31:26.000Z</time>
      </trkpt>
      <trkpt lat="45.24062" lon="5.74399">
        <ele>1035</ele>
        <time>2021-05-29T05:31:27.000Z</time>
      </trkpt>
      <trkpt lat="45.24062" lon="5.74403">
        <ele>1035</ele>
        <time>2021-05-29T05:31:28.000Z</time>
      </trkpt>
      <trkpt lat="45.24062" lon="5.74412">
        <ele>1036</ele>
        <time>2021-05-29T05:31:31.000Z</time>
      </trkpt>
      <trkpt lat="45.24063" lon="5.74422">
        <ele>1036.4000244141</ele>
        <time>2021-05-29T05:31:34.000Z</time>
      </trkpt>
      <trkpt lat="45.24064" lon="5.7443">
        <ele>1037</ele>
        <time>2021-05-29T05:31:37.000Z</time>
      </trkpt>
      <trkpt lat="45.24066" lon="5.74432">
        <ele>1037</ele>
        <time>2021-05-29T05:31:38.000Z</time>
      </trkpt>
      <trkpt lat="45.24068" lon="5.74433">
        <ele>1037.5999755859</ele>
        <time>2021-05-29T05:31:40.000Z</time>
      </trkpt>
      <trkpt lat="45.24072" lon="5.74434">
        <ele>1038.1999511719</ele>
        <time>2021-05-29T05:31:44.000Z</time>
      </trkpt>
      <trkpt lat="45.24073" lon="5.74433">
        <ele>1038.1999511719</ele>
        <time>2021-05-29T05:31:45.000Z</time>
      </trkpt>
      <trkpt lat="45.24073" lon="5.74431">
        <ele>1038.4000244141</ele>
        <time>2021-05-29T05:31:46.000Z</time>
      </trkpt>
      <trkpt lat="45.24074" lon="5.74425">
        <ele>1039.4000244141</ele>
        <time>2021-05-29T05:31:50.000Z</time>
      </trkpt>
      <trkpt lat="45.24075" lon="5.74418">
        <ele>1040.4000244141</ele>
        <time>2021-05-29T05:31:54.000Z</time>
      </trkpt>
      <trkpt lat="45.24077" lon="5.74415">
        <ele>1041</ele>
        <time>2021-05-29T05:31:56.000Z</time>
      </trkpt>
      <trkpt lat="45.24078" lon="5.74412">
        <ele>1041.5999755859</ele>
        <time>2021-05-29T05:31:58.000Z</time>
      </trkpt>
      <trkpt lat="45.24079" lon="5.74408">
        <ele>1042.1999511719</ele>
        <time>2021-05-29T05:32:00.000Z</time>
      </trkpt>
      <trkpt lat="45.24081" lon="5.74402">
        <ele>1042.8000488281</ele>
        <time>2021-05-29T05:32:03.000Z</time>
      </trkpt>
      <trkpt lat="45.24083" lon="5.74397">
        <ele>1043.5999755859</ele>
        <time>2021-05-29T05:32:06.000Z</time>
      </trkpt>
      <trkpt lat="45.24085" lon="5.74395">
        <ele>1044.1999511719</ele>
        <time>2021-05-29T05:32:08.000Z</time>
      </trkpt>
      <trkpt lat="45.24087" lon="5.7439">
        <ele>1045</ele>
        <time>2021-05-29T05:32:11.000Z</time>
      </trkpt>
      <trkpt lat="45.24087" lon="5.74388">
        <ele>1045.1999511719</ele>
        <time>2021-05-29T05:32:12.000Z</time>
      </trkpt>
      <trkpt lat="45.24089" lon="5.74384">
        <ele>1045.8000488281</ele>
        <time>2021-05-29T05:32:14.000Z</time>
      </trkpt>
      <trkpt lat="45.24091" lon="5.7438">
        <ele>1046.5999755859</ele>
        <time>2021-05-29T05:32:17.000Z</time>
      </trkpt>
      <trkpt lat="45.24095" lon="5.74376">
        <ele>1047.4000244141</ele>
        <time>2021-05-29T05:32:20.000Z</time>
      </trkpt>
      <trkpt lat="45.24097" lon="5.74375">
        <ele>1047.5999755859</ele>
        <time>2021-05-29T05:32:21.000Z</time>
      </trkpt>
      <trkpt lat="45.24099" lon="5.74374">
        <ele>1048</ele>
        <time>2021-05-29T05:32:22.000Z</time>
      </trkpt>
      <trkpt lat="45.24105" lon="5.7437">
        <ele>1049</ele>
        <time>2021-05-29T05:32:26.000Z</time>
      </trkpt>
      <trkpt lat="45.24116" lon="5.74367">
        <ele>1050.4000244141</ele>
        <time>2021-05-29T05:32:32.000Z</time>
      </trkpt>
      <trkpt lat="45.2413" lon="5.74369">
        <ele>1051.1999511719</ele>
        <time>2021-05-29T05:32:39.000Z</time>
      </trkpt>
      <trkpt lat="45.24131" lon="5.74369">
        <ele>1051.8000488281</ele>
        <time>2021-05-29T05:32:40.000Z</time>
      </trkpt>
      <trkpt lat="45.24137" lon="5.74366">
        <ele>1053.1999511719</ele>
        <time>2021-05-29T05:32:44.000Z</time>
      </trkpt>
      <trkpt lat="45.24141" lon="5.74365">
        <ele>1053.5999755859</ele>
        <time>2021-05-29T05:32:47.000Z</time>
      </trkpt>
      <trkpt lat="45.24142" lon="5.74364">
        <ele>1053.8000488281</ele>
        <time>2021-05-29T05:32:48.000Z</time>
      </trkpt>
      <trkpt lat="45.24146" lon="5.74365">
        <ele>1053.8000488281</ele>
        <time>2021-05-29T05:32:50.000Z</time>
      </trkpt>
      <trkpt lat="45.24147" lon="5.74369">
        <ele>1053.8000488281</ele>
        <time>2021-05-29T05:32:52.000Z</time>
      </trkpt>
      <trkpt lat="45.24148" lon="5.74378">
        <ele>1053.8000488281</ele>
        <time>2021-05-29T05:32:55.000Z</time>
      </trkpt>
      <trkpt lat="45.24147" lon="5.74383">
        <ele>1054.1999511719</ele>
        <time>2021-05-29T05:32:57.000Z</time>
      </trkpt>
      <trkpt lat="45.24147" lon="5.74387">
        <ele>1054.5999755859</ele>
        <time>2021-05-29T05:32:59.000Z</time>
      </trkpt>
      <trkpt lat="45.24146" lon="5.74391">
        <ele>1055</ele>
        <time>2021-05-29T05:33:01.000Z</time>
      </trkpt>
      <trkpt lat="45.24145" lon="5.74391">
        <ele>1055.4000244141</ele>
        <time>2021-05-29T05:33:02.000Z</time>
      </trkpt>
      <trkpt lat="45.24143" lon="5.74393">
        <ele>1055.8000488281</ele>
        <time>2021-05-29T05:33:04.000Z</time>
      </trkpt>
      <trkpt lat="45.24142" lon="5.74395">
        <ele>1056.4000244141</ele>
        <time>2021-05-29T05:33:07.000Z</time>
      </trkpt>
      <trkpt lat="45.2414" lon="5.74398">
        <ele>1056.4000244141</ele>
        <time>2021-05-29T05:33:08.000Z</time>
      </trkpt>
      <trkpt lat="45.2414" lon="5.74398">
        <ele>1056.5999755859</ele>
        <time>2021-05-29T05:33:09.000Z</time>
      </trkpt>
      <trkpt lat="45.24136" lon="5.744">
        <ele>1057.4000244141</ele>
        <time>2021-05-29T05:33:13.000Z</time>
      </trkpt>
      <trkpt lat="45.24135" lon="5.744">
        <ele>1057.8000488281</ele>
        <time>2021-05-29T05:33:14.000Z</time>
      </trkpt>
      <trkpt lat="45.24132" lon="5.74398">
        <ele>1058.4000244141</ele>
        <time>2021-05-29T05:33:17.000Z</time>
      </trkpt>
      <trkpt lat="45.2413" lon="5.74398">
        <ele>1058.4000244141</ele>
        <time>2021-05-29T05:33:19.000Z</time>
      </trkpt>
      <trkpt lat="45.24129" lon="5.74397">
        <ele>1058.4000244141</ele>
        <time>2021-05-29T05:33:21.000Z</time>
      </trkpt>
      <trkpt lat="45.24131" lon="5.74395">
        <ele>1058.1999511719</ele>
        <time>2021-05-29T05:33:25.000Z</time>
      </trkpt>
      <trkpt lat="45.24132" lon="5.74394">
        <ele>1058.4000244141</ele>
        <time>2021-05-29T05:33:28.000Z</time>
      </trkpt>
      <trkpt lat="45.24134" lon="5.74394">
        <ele>1058.4000244141</ele>
        <time>2021-05-29T05:33:32.000Z</time>
      </trkpt>
      <trkpt lat="45.24134" lon="5.74394">
        <ele>1058.4000244141</ele>
        <time>2021-05-29T05:33:36.000Z</time>
      </trkpt>
      <trkpt lat="45.24134" lon="5.74393">
        <ele>1058.4000244141</ele>
        <time>2021-05-29T05:33:42.000Z</time>
      </trkpt>
      <trkpt lat="45.24134" lon="5.74393">
        <ele>1058.4000244141</ele>
        <time>2021-05-29T05:33:47.000Z</time>
      </trkpt>
      <trkpt lat="45.24134" lon="5.74393">
        <ele>1058.4000244141</ele>
        <time>2021-05-29T05:33:49.000Z</time>
      </trkpt>
      <trkpt lat="45.24134" lon="5.74393">
        <ele>1058.4000244141</ele>
        <time>2021-05-29T05:33:51.000Z</time>
      </trkpt>
      <trkpt lat="45.24134" lon="5.74393">
        <ele>1058.4000244141</ele>
        <time>2021-05-29T05:33:53.000Z</time>
      </trkpt>
      <trkpt lat="45.24134" lon="5.74393">
        <ele>1058.4000244141</ele>
        <time>2021-05-29T05:33:55.000Z</time>
      </trkpt>
      <trkpt lat="45.24134" lon="5.74393">
        <ele>1058.5999755859</ele>
        <time>2021-05-29T05:33:57.000Z</time>
      </trkpt>
      <trkpt lat="45.24134" lon="5.74393">
        <ele>1058.5999755859</ele>
        <time>2021-05-29T05:33:59.000Z</time>
      </trkpt>
      <trkpt lat="45.24134" lon="5.74393">
        <ele>1058.5999755859</ele>
        <time>2021-05-29T05:34:01.000Z</time>
      </trkpt>
      <trkpt lat="45.24134" lon="5.74393">
        <ele>1058.4000244141</ele>
        <time>2021-05-29T05:34:03.000Z</time>
      </trkpt>
      <trkpt lat="45.24134" lon="5.74393">
        <ele>1058.4000244141</ele>
        <time>2021-05-29T05:34:07.000Z</time>
      </trkpt>
      <trkpt lat="45.24132" lon="5.74395">
        <ele>1058.1999511719</ele>
        <time>2021-05-29T05:34:13.000Z</time>
      </trkpt>
      <trkpt lat="45.24132" lon="5.74395">
        <ele>1058.4000244141</ele>
        <time>2021-05-29T05:34:15.000Z</time>
      </trkpt>
      <trkpt lat="45.24132" lon="5.74396">
        <ele>1058.4000244141</ele>
        <time>2021-05-29T05:34:21.000Z</time>
      </trkpt>
      <trkpt lat="45.2413" lon="5.744">
        <ele>1058.4000244141</ele>
        <time>2021-05-29T05:34:44.000Z</time>
      </trkpt>
      <trkpt lat="45.24131" lon="5.744">
        <ele>1058.4000244141</ele>
        <time>2021-05-29T05:34:47.000Z</time>
      </trkpt>
      <trkpt lat="45.24136" lon="5.74399">
        <ele>1058.4000244141</ele>
        <time>2021-05-29T05:34:50.000Z</time>
      </trkpt>
      <trkpt lat="45.24138" lon="5.74397">
        <ele>1058.4000244141</ele>
        <time>2021-05-29T05:34:52.000Z</time>
      </trkpt>
      <trkpt lat="45.24144" lon="5.74394">
        <ele>1058</ele>
        <time>2021-05-29T05:34:57.000Z</time>
      </trkpt>
      <trkpt lat="45.24144" lon="5.74394">
        <ele>1057.5999755859</ele>
        <time>2021-05-29T05:34:58.000Z</time>
      </trkpt>
      <trkpt lat="45.24145" lon="5.74391">
        <ele>1057.4000244141</ele>
        <time>2021-05-29T05:35:00.000Z</time>
      </trkpt>
      <trkpt lat="45.24146" lon="5.74389">
        <ele>1057.1999511719</ele>
        <time>2021-05-29T05:35:02.000Z</time>
      </trkpt>
      <trkpt lat="45.24145" lon="5.7439">
        <ele>1056.5999755859</ele>
        <time>2021-05-29T05:35:04.000Z</time>
      </trkpt>
      <trkpt lat="45.24143" lon="5.7439">
        <ele>1056.1999511719</ele>
        <time>2021-05-29T05:35:06.000Z</time>
      </trkpt>
      <trkpt lat="45.24139" lon="5.7439">
        <ele>1055.5999755859</ele>
        <time>2021-05-29T05:35:08.000Z</time>
      </trkpt>
      <trkpt lat="45.24138" lon="5.7439">
        <ele>1055.4000244141</ele>
        <time>2021-05-29T05:35:09.000Z</time>
      </trkpt>
      <trkpt lat="45.24131" lon="5.74385">
        <ele>1054.4000244141</ele>
        <time>2021-05-29T05:35:13.000Z</time>
      </trkpt>
      <trkpt lat="45.24131" lon="5.74383">
        <ele>1054.1999511719</ele>
        <time>2021-05-29T05:35:14.000Z</time>
      </trkpt>
      <trkpt lat="45.2413" lon="5.74381">
        <ele>1053.8000488281</ele>
        <time>2021-05-29T05:35:15.000Z</time>
      </trkpt>
      <trkpt lat="45.24125" lon="5.74379">
        <ele>1053.4000244141</ele>
        <time>2021-05-29T05:35:17.000Z</time>
      </trkpt>
      <trkpt lat="45.24123" lon="5.74379">
        <ele>1053.1999511719</ele>
        <time>2021-05-29T05:35:18.000Z</time>
      </trkpt>
      <trkpt lat="45.2412" lon="5.74377">
        <ele>1052.5999755859</ele>
        <time>2021-05-29T05:35:20.000Z</time>
      </trkpt>
      <trkpt lat="45.24119" lon="5.74376">
        <ele>1052</ele>
        <time>2021-05-29T05:35:21.000Z</time>
      </trkpt>
      <trkpt lat="45.24117" lon="5.74376">
        <ele>1051.8000488281</ele>
        <time>2021-05-29T05:35:22.000Z</time>
      </trkpt>
      <trkpt lat="45.24112" lon="5.74381">
        <ele>1050.4000244141</ele>
        <time>2021-05-29T05:35:27.000Z</time>
      </trkpt>
      <trkpt lat="45.24106" lon="5.74387">
        <ele>1049.1999511719</ele>
        <time>2021-05-29T05:35:30.000Z</time>
      </trkpt>
      <trkpt lat="45.24102" lon="5.74393">
        <ele>1048.1999511719</ele>
        <time>2021-05-29T05:35:34.000Z</time>
      </trkpt>
      <trkpt lat="45.24103" lon="5.74395">
        <ele>1047.8000488281</ele>
        <time>2021-05-29T05:35:35.000Z</time>
      </trkpt>
      <trkpt lat="45.24102" lon="5.74401">
        <ele>1046.4000244141</ele>
        <time>2021-05-29T05:35:38.000Z</time>
      </trkpt>
      <trkpt lat="45.24101" lon="5.74404">
        <ele>1046.1999511719</ele>
        <time>2021-05-29T05:35:39.000Z</time>
      </trkpt>
      <trkpt lat="45.241" lon="5.74407">
        <ele>1045</ele>
        <time>2021-05-29T05:35:41.000Z</time>
      </trkpt>
      <trkpt lat="45.24099" lon="5.74409">
        <ele>1044.5999755859</ele>
        <time>2021-05-29T05:35:42.000Z</time>
      </trkpt>
      <trkpt lat="45.24096" lon="5.74415">
        <ele>1044</ele>
        <time>2021-05-29T05:35:45.000Z</time>
      </trkpt>
      <trkpt lat="45.24095" lon="5.74416">
        <ele>1043.4000244141</ele>
        <time>2021-05-29T05:35:46.000Z</time>
      </trkpt>
      <trkpt lat="45.24094" lon="5.74418">
        <ele>1042.8000488281</ele>
        <time>2021-05-29T05:35:47.000Z</time>
      </trkpt>
      <trkpt lat="45.24093" lon="5.74421">
        <ele>1042.4000244141</ele>
        <time>2021-05-29T05:35:48.000Z</time>
      </trkpt>
      <trkpt lat="45.24092" lon="5.74424">
        <ele>1042</ele>
        <time>2021-05-29T05:35:49.000Z</time>
      </trkpt>
      <trkpt lat="45.24088" lon="5.74428">
        <ele>1041.5999755859</ele>
        <time>2021-05-29T05:35:50.000Z</time>
      </trkpt>
      <trkpt lat="45.2408" lon="5.74436">
        <ele>1040.8000488281</ele>
        <time>2021-05-29T05:35:53.000Z</time>
      </trkpt>
      <trkpt lat="45.24076" lon="5.74439">
        <ele>1040.5999755859</ele>
        <time>2021-05-29T05:35:54.000Z</time>
      </trkpt>
      <trkpt lat="45.24069" lon="5.74436">
        <ele>1040.1999511719</ele>
        <time>2021-05-29T05:35:56.000Z</time>
      </trkpt>
      <trkpt lat="45.24067" lon="5.74434">
        <ele>1040</ele>
        <time>2021-05-29T05:35:58.000Z</time>
      </trkpt>
      <trkpt lat="45.24063" lon="5.74425">
        <ele>1039.4000244141</ele>
        <time>2021-05-29T05:36:01.000Z</time>
      </trkpt>
      <trkpt lat="45.24061" lon="5.74413">
        <ele>1038.4000244141</ele>
        <time>2021-05-29T05:36:04.000Z</time>
      </trkpt>
      <trkpt lat="45.24061" lon="5.74398">
        <ele>1037.1999511719</ele>
        <time>2021-05-29T05:36:09.000Z</time>
      </trkpt>
      <trkpt lat="45.24061" lon="5.74393">
        <ele>1036.8000488281</ele>
        <time>2021-05-29T05:36:10.000Z</time>
      </trkpt>
      <trkpt lat="45.24061" lon="5.74385">
        <ele>1036.1999511719</ele>
        <time>2021-05-29T05:36:12.000Z</time>
      </trkpt>
      <trkpt lat="45.24061" lon="5.74378">
        <ele>1035.4000244141</ele>
        <time>2021-05-29T05:36:14.000Z</time>
      </trkpt>
      <trkpt lat="45.2406" lon="5.74369">
        <ele>1035</ele>
        <time>2021-05-29T05:36:16.000Z</time>
      </trkpt>
      <trkpt lat="45.24058" lon="5.74357">
        <ele>1034</ele>
        <time>2021-05-29T05:36:20.000Z</time>
      </trkpt>
      <trkpt lat="45.24057" lon="5.74352">
        <ele>1033.5999755859</ele>
        <time>2021-05-29T05:36:22.000Z</time>
      </trkpt>
      <trkpt lat="45.24059" lon="5.74347">
        <ele>1033.4000244141</ele>
        <time>2021-05-29T05:36:24.000Z</time>
      </trkpt>
      <trkpt lat="45.24068" lon="5.7434">
        <ele>1033.4000244141</ele>
        <time>2021-05-29T05:36:30.000Z</time>
      </trkpt>
      <trkpt lat="45.24076" lon="5.74335">
        <ele>1032.8000488281</ele>
        <time>2021-05-29T05:36:34.000Z</time>
      </trkpt>
      <trkpt lat="45.24084" lon="5.74332">
        <ele>1032.5999755859</ele>
        <time>2021-05-29T05:36:37.000Z</time>
      </trkpt>
      <trkpt lat="45.24097" lon="5.74323">
        <ele>1032.8000488281</ele>
        <time>2021-05-29T05:36:43.000Z</time>
      </trkpt>
      <trkpt lat="45.24107" lon="5.74321">
        <ele>1032.8000488281</ele>
        <time>2021-05-29T05:36:48.000Z</time>
      </trkpt>
      <trkpt lat="45.24119" lon="5.74323">
        <ele>1033.4000244141</ele>
        <time>2021-05-29T05:36:54.000Z</time>
      </trkpt>
      <trkpt lat="45.24121" lon="5.74323">
        <ele>1033.4000244141</ele>
        <time>2021-05-29T05:36:56.000Z</time>
      </trkpt>
      <trkpt lat="45.24124" lon="5.74321">
        <ele>1033.4000244141</ele>
        <time>2021-05-29T05:36:58.000Z</time>
      </trkpt>
      <trkpt lat="45.24125" lon="5.74321">
        <ele>1033.4000244141</ele>
        <time>2021-05-29T05:36:59.000Z</time>
      </trkpt>
      <trkpt lat="45.2413" lon="5.7432">
        <ele>1033</ele>
        <time>2021-05-29T05:37:02.000Z</time>
      </trkpt>
      <trkpt lat="45.24133" lon="5.74319">
        <ele>1032.5999755859</ele>
        <time>2021-05-29T05:37:06.000Z</time>
      </trkpt>
      <trkpt lat="45.24137" lon="5.74316">
        <ele>1032</ele>
        <time>2021-05-29T05:37:11.000Z</time>
      </trkpt>
      <trkpt lat="45.24139" lon="5.74316">
        <ele>1031.5999755859</ele>
        <time>2021-05-29T05:37:12.000Z</time>
      </trkpt>
      <trkpt lat="45.24147" lon="5.74316">
        <ele>1030.5999755859</ele>
        <time>2021-05-29T05:37:16.000Z</time>
      </trkpt>
      <trkpt lat="45.24148" lon="5.74315">
        <ele>1030.1999511719</ele>
        <time>2021-05-29T05:37:17.000Z</time>
      </trkpt>
      <trkpt lat="45.24155" lon="5.74314">
        <ele>1029.1999511719</ele>
        <time>2021-05-29T05:37:22.000Z</time>
      </trkpt>
      <trkpt lat="45.24156" lon="5.74314">
        <ele>1028.8000488281</ele>
        <time>2021-05-29T05:37:23.000Z</time>
      </trkpt>
      <trkpt lat="45.24156" lon="5.74314">
        <ele>1028.4000244141</ele>
        <time>2021-05-29T05:37:24.000Z</time>
      </trkpt>
      <trkpt lat="45.24157" lon="5.74313">
        <ele>1028.1999511719</ele>
        <time>2021-05-29T05:37:26.000Z</time>
      </trkpt>
      <trkpt lat="45.24158" lon="5.74313">
        <ele>1027.8000488281</ele>
        <time>2021-05-29T05:37:28.000Z</time>
      </trkpt>
      <trkpt lat="45.24158" lon="5.74312">
        <ele>1027.5999755859</ele>
        <time>2021-05-29T05:37:29.000Z</time>
      </trkpt>
      <trkpt lat="45.24159" lon="5.74312">
        <ele>1027.1999511719</ele>
        <time>2021-05-29T05:37:30.000Z</time>
      </trkpt>
      <trkpt lat="45.24159" lon="5.74312">
        <ele>1027</ele>
        <time>2021-05-29T05:37:31.000Z</time>
      </trkpt>
      <trkpt lat="45.24161" lon="5.74311">
        <ele>1026.4000244141</ele>
        <time>2021-05-29T05:37:33.000Z</time>
      </trkpt>
      <trkpt lat="45.24162" lon="5.74311">
        <ele>1025.8000488281</ele>
        <time>2021-05-29T05:37:34.000Z</time>
      </trkpt>
      <trkpt lat="45.24165" lon="5.74312">
        <ele>1025</ele>
        <time>2021-05-29T05:37:36.000Z</time>
      </trkpt>
      <trkpt lat="45.24166" lon="5.74312">
        <ele>1024.8000488281</ele>
        <time>2021-05-29T05:37:37.000Z</time>
      </trkpt>
      <trkpt lat="45.24171" lon="5.74312">
        <ele>1024</ele>
        <time>2021-05-29T05:37:41.000Z</time>
      </trkpt>
      <trkpt lat="45.24172" lon="5.74312">
        <ele>1023.5999755859</ele>
        <time>2021-05-29T05:37:42.000Z</time>
      </trkpt>
      <trkpt lat="45.24175" lon="5.74312">
        <ele>1023.4000244141</ele>
        <time>2021-05-29T05:37:43.000Z</time>
      </trkpt>
      <trkpt lat="45.24178" lon="5.74313">
        <ele>1022.5999755859</ele>
        <time>2021-05-29T05:37:45.000Z</time>
      </trkpt>
      <trkpt lat="45.24179" lon="5.74314">
        <ele>1021.5999755859</ele>
        <time>2021-05-29T05:37:48.000Z</time>
      </trkpt>
      <trkpt lat="45.2418" lon="5.74314">
        <ele>1021</ele>
        <time>2021-05-29T05:37:49.000Z</time>
      </trkpt>
      <trkpt lat="45.24181" lon="5.74315">
        <ele>1020.5999755859</ele>
        <time>2021-05-29T05:37:50.000Z</time>
      </trkpt>
      <trkpt lat="45.24182" lon="5.74315">
        <ele>1020.200012207</ele>
        <time>2021-05-29T05:37:51.000Z</time>
      </trkpt>
      <trkpt lat="45.24184" lon="5.74315">
        <ele>1018.799987793</ele>
        <time>2021-05-29T05:37:54.000Z</time>
      </trkpt>
      <trkpt lat="45.24185" lon="5.74315">
        <ele>1018.5999755859</ele>
        <time>2021-05-29T05:37:56.000Z</time>
      </trkpt>
      <trkpt lat="45.24183" lon="5.7431">
        <ele>1017.799987793</ele>
        <time>2021-05-29T05:38:03.000Z</time>
      </trkpt>
      <trkpt lat="45.24181" lon="5.74309">
        <ele>1017.799987793</ele>
        <time>2021-05-29T05:38:04.000Z</time>
      </trkpt>
      <trkpt lat="45.24177" lon="5.74305">
        <ele>1017.799987793</ele>
        <time>2021-05-29T05:38:08.000Z</time>
      </trkpt>
      <trkpt lat="45.24176" lon="5.74303">
        <ele>1017.4000244141</ele>
        <time>2021-05-29T05:38:09.000Z</time>
      </trkpt>
      <trkpt lat="45.24169" lon="5.743">
        <ele>1016.5999755859</ele>
        <time>2021-05-29T05:38:13.000Z</time>
      </trkpt>
      <trkpt lat="45.24167" lon="5.74298">
        <ele>1016.200012207</ele>
        <time>2021-05-29T05:38:16.000Z</time>
      </trkpt>
      <trkpt lat="45.24163" lon="5.74292">
        <ele>1015.5999755859</ele>
        <time>2021-05-29T05:38:20.000Z</time>
      </trkpt>
      <trkpt lat="45.24161" lon="5.7429">
        <ele>1014.4000244141</ele>
        <time>2021-05-29T05:38:23.000Z</time>
      </trkpt>
      <trkpt lat="45.24157" lon="5.74288">
        <ele>1013.200012207</ele>
        <time>2021-05-29T05:38:26.000Z</time>
      </trkpt>
      <trkpt lat="45.24154" lon="5.74287">
        <ele>1012.5999755859</ele>
        <time>2021-05-29T05:38:28.000Z</time>
      </trkpt>
      <trkpt lat="45.24153" lon="5.74286">
        <ele>1011.799987793</ele>
        <time>2021-05-29T05:38:29.000Z</time>
      </trkpt>
      <trkpt lat="45.24151" lon="5.74285">
        <ele>1011.4000244141</ele>
        <time>2021-05-29T05:38:30.000Z</time>
      </trkpt>
      <trkpt lat="45.24146" lon="5.74279">
        <ele>1010.4000244141</ele>
        <time>2021-05-29T05:38:33.000Z</time>
      </trkpt>
      <trkpt lat="45.24145" lon="5.74279">
        <ele>1010.200012207</ele>
        <time>2021-05-29T05:38:34.000Z</time>
      </trkpt>
      <trkpt lat="45.24143" lon="5.74278">
        <ele>1009.799987793</ele>
        <time>2021-05-29T05:38:36.000Z</time>
      </trkpt>
      <trkpt lat="45.24142" lon="5.74277">
        <ele>1009.4000244141</ele>
        <time>2021-05-29T05:38:37.000Z</time>
      </trkpt>
      <trkpt lat="45.24135" lon="5.74275">
        <ele>1008.200012207</ele>
        <time>2021-05-29T05:38:41.000Z</time>
      </trkpt>
      <trkpt lat="45.24135" lon="5.74275">
        <ele>1007.4000244141</ele>
        <time>2021-05-29T05:38:42.000Z</time>
      </trkpt>
      <trkpt lat="45.24133" lon="5.74275">
        <ele>1006.799987793</ele>
        <time>2021-05-29T05:38:43.000Z</time>
      </trkpt>
      <trkpt lat="45.2413" lon="5.74275">
        <ele>1006</ele>
        <time>2021-05-29T05:38:45.000Z</time>
      </trkpt>
      <trkpt lat="45.24128" lon="5.74274">
        <ele>1005.4000244141</ele>
        <time>2021-05-29T05:38:46.000Z</time>
      </trkpt>
      <trkpt lat="45.24125" lon="5.74274">
        <ele>1004.4000244141</ele>
        <time>2021-05-29T05:38:48.000Z</time>
      </trkpt>
      <trkpt lat="45.24123" lon="5.74273">
        <ele>1004</ele>
        <time>2021-05-29T05:38:49.000Z</time>
      </trkpt>
      <trkpt lat="45.24119" lon="5.74273">
        <ele>1003</ele>
        <time>2021-05-29T05:38:51.000Z</time>
      </trkpt>
      <trkpt lat="45.24118" lon="5.74273">
        <ele>1002.5999755859</ele>
        <time>2021-05-29T05:38:52.000Z</time>
      </trkpt>
      <trkpt lat="45.24115" lon="5.74272">
        <ele>1002</ele>
        <time>2021-05-29T05:38:54.000Z</time>
      </trkpt>
      <trkpt lat="45.24114" lon="5.74271">
        <ele>1001.5999755859</ele>
        <time>2021-05-29T05:38:55.000Z</time>
      </trkpt>
      <trkpt lat="45.24113" lon="5.7427">
        <ele>1000.799987793</ele>
        <time>2021-05-29T05:38:56.000Z</time>
      </trkpt>
      <trkpt lat="45.2411" lon="5.74269">
        <ele>999.40002441406</ele>
        <time>2021-05-29T05:38:59.000Z</time>
      </trkpt>
      <trkpt lat="45.24103" lon="5.74268">
        <ele>998.40002441406</ele>
        <time>2021-05-29T05:39:03.000Z</time>
      </trkpt>
      <trkpt lat="45.24101" lon="5.74267">
        <ele>997.40002441406</ele>
        <time>2021-05-29T05:39:04.000Z</time>
      </trkpt>
      <trkpt lat="45.24099" lon="5.74266">
        <ele>996.20001220703</ele>
        <time>2021-05-29T05:39:06.000Z</time>
      </trkpt>
      <trkpt lat="45.24096" lon="5.74263">
        <ele>995</ele>
        <time>2021-05-29T05:39:09.000Z</time>
      </trkpt>
      <trkpt lat="45.24094" lon="5.74261">
        <ele>994.20001220703</ele>
        <time>2021-05-29T05:39:11.000Z</time>
      </trkpt>
      <trkpt lat="45.24094" lon="5.74258">
        <ele>994</ele>
        <time>2021-05-29T05:39:12.000Z</time>
      </trkpt>
      <trkpt lat="45.24093" lon="5.74257">
        <ele>993.59997558594</ele>
        <time>2021-05-29T05:39:13.000Z</time>
      </trkpt>
      <trkpt lat="45.24091" lon="5.74255">
        <ele>993</ele>
        <time>2021-05-29T05:39:15.000Z</time>
      </trkpt>
      <trkpt lat="45.24089" lon="5.74254">
        <ele>992.59997558594</ele>
        <time>2021-05-29T05:39:16.000Z</time>
      </trkpt>
      <trkpt lat="45.24088" lon="5.74252">
        <ele>992</ele>
        <time>2021-05-29T05:39:19.000Z</time>
      </trkpt>
      <trkpt lat="45.24087" lon="5.74251">
        <ele>991.59997558594</ele>
        <time>2021-05-29T05:39:21.000Z</time>
      </trkpt>
      <trkpt lat="45.24084" lon="5.7425">
        <ele>991.59997558594</ele>
        <time>2021-05-29T05:39:23.000Z</time>
      </trkpt>
      <trkpt lat="45.24082" lon="5.74251">
        <ele>991.59997558594</ele>
        <time>2021-05-29T05:39:26.000Z</time>
      </trkpt>
      <trkpt lat="45.24084" lon="5.74249">
        <ele>991.79998779297</ele>
        <time>2021-05-29T05:39:28.000Z</time>
      </trkpt>
      <trkpt lat="45.24086" lon="5.74248">
        <ele>992.59997558594</ele>
        <time>2021-05-29T05:39:31.000Z</time>
      </trkpt>
      <trkpt lat="45.24088" lon="5.74251">
        <ele>993.59997558594</ele>
        <time>2021-05-29T05:39:34.000Z</time>
      </trkpt>
      <trkpt lat="45.24089" lon="5.74251">
        <ele>993.79998779297</ele>
        <time>2021-05-29T05:39:35.000Z</time>
      </trkpt>
      <trkpt lat="45.24091" lon="5.74253">
        <ele>994.40002441406</ele>
        <time>2021-05-29T05:39:37.000Z</time>
      </trkpt>
      <trkpt lat="45.24091" lon="5.74254">
        <ele>994.79998779297</ele>
        <time>2021-05-29T05:39:38.000Z</time>
      </trkpt>
      <trkpt lat="45.24093" lon="5.74254">
        <ele>995.79998779297</ele>
        <time>2021-05-29T05:39:40.000Z</time>
      </trkpt>
      <trkpt lat="45.24093" lon="5.74254">
        <ele>996.40002441406</ele>
        <time>2021-05-29T05:39:42.000Z</time>
      </trkpt>
      <trkpt lat="45.24094" lon="5.74253">
        <ele>996.59997558594</ele>
        <time>2021-05-29T05:39:43.000Z</time>
      </trkpt>
      <trkpt lat="45.24096" lon="5.74253">
        <ele>997</ele>
        <time>2021-05-29T05:39:44.000Z</time>
      </trkpt>
      <trkpt lat="45.24097" lon="5.74253">
        <ele>997.20001220703</ele>
        <time>2021-05-29T05:39:45.000Z</time>
      </trkpt>
      <trkpt lat="45.24098" lon="5.74253">
        <ele>998</ele>
        <time>2021-05-29T05:39:47.000Z</time>
      </trkpt>
      <trkpt lat="45.241" lon="5.74253">
        <ele>998.40002441406</ele>
        <time>2021-05-29T05:39:49.000Z</time>
      </trkpt>
      <trkpt lat="45.24101" lon="5.74253">
        <ele>999</ele>
        <time>2021-05-29T05:39:51.000Z</time>
      </trkpt>
      <trkpt lat="45.24102" lon="5.74254">
        <ele>999.79998779297</ele>
        <time>2021-05-29T05:39:53.000Z</time>
      </trkpt>
      <trkpt lat="45.24104" lon="5.74255">
        <ele>1000.200012207</ele>
        <time>2021-05-29T05:39:55.000Z</time>
      </trkpt>
      <trkpt lat="45.24106" lon="5.74257">
        <ele>1001.200012207</ele>
        <time>2021-05-29T05:39:58.000Z</time>
      </trkpt>
      <trkpt lat="45.24106" lon="5.74257">
        <ele>1001.4000244141</ele>
        <time>2021-05-29T05:39:59.000Z</time>
      </trkpt>
      <trkpt lat="45.24107" lon="5.74257">
        <ele>1002.200012207</ele>
        <time>2021-05-29T05:40:03.000Z</time>
      </trkpt>
      <trkpt lat="45.24109" lon="5.74258">
        <ele>1002.799987793</ele>
        <time>2021-05-29T05:40:05.000Z</time>
      </trkpt>
      <trkpt lat="45.24111" lon="5.7426">
        <ele>1003.200012207</ele>
        <time>2021-05-29T05:40:07.000Z</time>
      </trkpt>
      <trkpt lat="45.24117" lon="5.74261">
        <ele>1004.4000244141</ele>
        <time>2021-05-29T05:40:12.000Z</time>
      </trkpt>
      <trkpt lat="45.24118" lon="5.74262">
        <ele>1005</ele>
        <time>2021-05-29T05:40:13.000Z</time>
      </trkpt>
      <trkpt lat="45.24119" lon="5.74262">
        <ele>1005.4000244141</ele>
        <time>2021-05-29T05:40:15.000Z</time>
      </trkpt>
      <trkpt lat="45.24124" lon="5.74263">
        <ele>1006.200012207</ele>
        <time>2021-05-29T05:40:20.000Z</time>
      </trkpt>
      <trkpt lat="45.24125" lon="5.74263">
        <ele>1006.4000244141</ele>
        <time>2021-05-29T05:40:21.000Z</time>
      </trkpt>
      <trkpt lat="45.24125" lon="5.74263">
        <ele>1006.5999755859</ele>
        <time>2021-05-29T05:40:22.000Z</time>
      </trkpt>
      <trkpt lat="45.24126" lon="5.74263">
        <ele>1007.4000244141</ele>
        <time>2021-05-29T05:40:24.000Z</time>
      </trkpt>
      <trkpt lat="45.24128" lon="5.74263">
        <ele>1007.799987793</ele>
        <time>2021-05-29T05:40:26.000Z</time>
      </trkpt>
      <trkpt lat="45.24129" lon="5.74263">
        <ele>1008</ele>
        <time>2021-05-29T05:40:27.000Z</time>
      </trkpt>
      <trkpt lat="45.24132" lon="5.74263">
        <ele>1008.799987793</ele>
        <time>2021-05-29T05:40:31.000Z</time>
      </trkpt>
      <trkpt lat="45.24134" lon="5.74265">
        <ele>1009.200012207</ele>
        <time>2021-05-29T05:40:33.000Z</time>
      </trkpt>
      <trkpt lat="45.24138" lon="5.74267">
        <ele>1009.799987793</ele>
        <time>2021-05-29T05:40:36.000Z</time>
      </trkpt>
      <trkpt lat="45.24138" lon="5.74268">
        <ele>1010.200012207</ele>
        <time>2021-05-29T05:40:38.000Z</time>
      </trkpt>
      <trkpt lat="45.2414" lon="5.7427">
        <ele>1011</ele>
        <time>2021-05-29T05:40:40.000Z</time>
      </trkpt>
      <trkpt lat="45.24142" lon="5.74272">
        <ele>1011.4000244141</ele>
        <time>2021-05-29T05:40:42.000Z</time>
      </trkpt>
      <trkpt lat="45.24145" lon="5.74274">
        <ele>1012</ele>
        <time>2021-05-29T05:40:44.000Z</time>
      </trkpt>
      <trkpt lat="45.24147" lon="5.74275">
        <ele>1012.4000244141</ele>
        <time>2021-05-29T05:40:46.000Z</time>
      </trkpt>
      <trkpt lat="45.24148" lon="5.74277">
        <ele>1012.5999755859</ele>
        <time>2021-05-29T05:40:47.000Z</time>
      </trkpt>
      <trkpt lat="45.2415" lon="5.74279">
        <ele>1013</ele>
        <time>2021-05-29T05:40:49.000Z</time>
      </trkpt>
      <trkpt lat="45.24151" lon="5.74279">
        <ele>1013</ele>
        <time>2021-05-29T05:40:50.000Z</time>
      </trkpt>
      <trkpt lat="45.24152" lon="5.74279">
        <ele>1013.5999755859</ele>
        <time>2021-05-29T05:40:51.000Z</time>
      </trkpt>
      <trkpt lat="45.24154" lon="5.7428">
        <ele>1014.200012207</ele>
        <time>2021-05-29T05:40:53.000Z</time>
      </trkpt>
      <trkpt lat="45.24157" lon="5.74283">
        <ele>1015</ele>
        <time>2021-05-29T05:40:57.000Z</time>
      </trkpt>
      <trkpt lat="45.24158" lon="5.74284">
        <ele>1015.200012207</ele>
        <time>2021-05-29T05:40:58.000Z</time>
      </trkpt>
      <trkpt lat="45.24159" lon="5.74286">
        <ele>1015.4000244141</ele>
        <time>2021-05-29T05:40:59.000Z</time>
      </trkpt>
      <trkpt lat="45.24164" lon="5.74287">
        <ele>1015.799987793</ele>
        <time>2021-05-29T05:41:03.000Z</time>
      </trkpt>
      <trkpt lat="45.2417" lon="5.74293">
        <ele>1016</ele>
        <time>2021-05-29T05:41:08.000Z</time>
      </trkpt>
      <trkpt lat="45.24173" lon="5.74294">
        <ele>1016.4000244141</ele>
        <time>2021-05-29T05:41:10.000Z</time>
      </trkpt>
      <trkpt lat="45.24177" lon="5.74297">
        <ele>1016.799987793</ele>
        <time>2021-05-29T05:41:12.000Z</time>
      </trkpt>
      <trkpt lat="45.24179" lon="5.74301">
        <ele>1017.4000244141</ele>
        <time>2021-05-29T05:41:15.000Z</time>
      </trkpt>
      <trkpt lat="45.24183" lon="5.74303">
        <ele>1017.4000244141</ele>
        <time>2021-05-29T05:41:18.000Z</time>
      </trkpt>
      <trkpt lat="45.24184" lon="5.74304">
        <ele>1017.4000244141</ele>
        <time>2021-05-29T05:41:20.000Z</time>
      </trkpt>
      <trkpt lat="45.24185" lon="5.74306">
        <ele>1017.4000244141</ele>
        <time>2021-05-29T05:41:21.000Z</time>
      </trkpt>
      <trkpt lat="45.24186" lon="5.7431">
        <ele>1017.5999755859</ele>
        <time>2021-05-29T05:41:24.000Z</time>
      </trkpt>
      <trkpt lat="45.2419" lon="5.74314">
        <ele>1017.799987793</ele>
        <time>2021-05-29T05:41:27.000Z</time>
      </trkpt>
      <trkpt lat="45.24192" lon="5.74316">
        <ele>1018.200012207</ele>
        <time>2021-05-29T05:41:29.000Z</time>
      </trkpt>
      <trkpt lat="45.24192" lon="5.74317">
        <ele>1018.4000244141</ele>
        <time>2021-05-29T05:41:31.000Z</time>
      </trkpt>
      <trkpt lat="45.24192" lon="5.74317">
        <ele>1018.5999755859</ele>
        <time>2021-05-29T05:41:32.000Z</time>
      </trkpt>
      <trkpt lat="45.2419" lon="5.74315">
        <ele>1019.5999755859</ele>
        <time>2021-05-29T05:41:35.000Z</time>
      </trkpt>
      <trkpt lat="45.24189" lon="5.74315">
        <ele>1020</ele>
        <time>2021-05-29T05:41:36.000Z</time>
      </trkpt>
      <trkpt lat="45.24188" lon="5.74316">
        <ele>1020.799987793</ele>
        <time>2021-05-29T05:41:39.000Z</time>
      </trkpt>
      <trkpt lat="45.24189" lon="5.74315">
        <ele>1021.5999755859</ele>
        <time>2021-05-29T05:41:41.000Z</time>
      </trkpt>
      <trkpt lat="45.24189" lon="5.74315">
        <ele>1021.799987793</ele>
        <time>2021-05-29T05:41:42.000Z</time>
      </trkpt>
      <trkpt lat="45.24189" lon="5.74315">
        <ele>1022.5999755859</ele>
        <time>2021-05-29T05:41:44.000Z</time>
      </trkpt>
      <trkpt lat="45.2419" lon="5.74315">
        <ele>1022.799987793</ele>
        <time>2021-05-29T05:41:45.000Z</time>
      </trkpt>
      <trkpt lat="45.24186" lon="5.74316">
        <ele>1024</ele>
        <time>2021-05-29T05:41:50.000Z</time>
      </trkpt>
      <trkpt lat="45.24185" lon="5.74315">
        <ele>1024</ele>
        <time>2021-05-29T05:41:51.000Z</time>
      </trkpt>
      <trkpt lat="45.24185" lon="5.74315">
        <ele>1024.1999511719</ele>
        <time>2021-05-29T05:41:52.000Z</time>
      </trkpt>
      <trkpt lat="45.2418" lon="5.74318">
        <ele>1025.1999511719</ele>
        <time>2021-05-29T05:41:58.000Z</time>
      </trkpt>
      <trkpt lat="45.24177" lon="5.7432">
        <ele>1026.4000244141</ele>
        <time>2021-05-29T05:42:02.000Z</time>
      </trkpt>
      <trkpt lat="45.24173" lon="5.74321">
        <ele>1027.8000488281</ele>
        <time>2021-05-29T05:42:05.000Z</time>
      </trkpt>
      <trkpt lat="45.2417" lon="5.74322">
        <ele>1028.4000244141</ele>
        <time>2021-05-29T05:42:08.000Z</time>
      </trkpt>
      <trkpt lat="45.24168" lon="5.74321">
        <ele>1028.8000488281</ele>
        <time>2021-05-29T05:42:11.000Z</time>
      </trkpt>
      <trkpt lat="45.24166" lon="5.74321">
        <ele>1029.1999511719</ele>
        <time>2021-05-29T05:42:13.000Z</time>
      </trkpt>
      <trkpt lat="45.24165" lon="5.74321">
        <ele>1029.4000244141</ele>
        <time>2021-05-29T05:42:14.000Z</time>
      </trkpt>
      <trkpt lat="45.24161" lon="5.74323">
        <ele>1029.8000488281</ele>
        <time>2021-05-29T05:42:17.000Z</time>
      </trkpt>
      <trkpt lat="45.2416" lon="5.74323">
        <ele>1030</ele>
        <time>2021-05-29T05:42:18.000Z</time>
      </trkpt>
      <trkpt lat="45.24158" lon="5.74324">
        <ele>1030.4000244141</ele>
        <time>2021-05-29T05:42:20.000Z</time>
      </trkpt>
      <trkpt lat="45.24156" lon="5.74323">
        <ele>1031</ele>
        <time>2021-05-29T05:42:22.000Z</time>
      </trkpt>
      <trkpt lat="45.24153" lon="5.74324">
        <ele>1031.4000244141</ele>
        <time>2021-05-29T05:42:25.000Z</time>
      </trkpt>
      <trkpt lat="45.24152" lon="5.74324">
        <ele>1031.8000488281</ele>
        <time>2021-05-29T05:42:26.000Z</time>
      </trkpt>
      <trkpt lat="45.24151" lon="5.74323">
        <ele>1032</ele>
        <time>2021-05-29T05:42:27.000Z</time>
      </trkpt>
      <trkpt lat="45.24146" lon="5.7432">
        <ele>1032.1999511719</ele>
        <time>2021-05-29T05:42:31.000Z</time>
      </trkpt>
      <trkpt lat="45.24145" lon="5.7432">
        <ele>1032.4000244141</ele>
        <time>2021-05-29T05:42:32.000Z</time>
      </trkpt>
      <trkpt lat="45.24141" lon="5.74322">
        <ele>1032.4000244141</ele>
        <time>2021-05-29T05:42:33.000Z</time>
      </trkpt>
      <trkpt lat="45.24139" lon="5.74322">
        <ele>1032.5999755859</ele>
        <time>2021-05-29T05:42:36.000Z</time>
      </trkpt>
      <trkpt lat="45.24138" lon="5.74323">
        <ele>1032.5999755859</ele>
        <time>2021-05-29T05:42:38.000Z</time>
      </trkpt>
      <trkpt lat="45.24136" lon="5.74323">
        <ele>1032.5999755859</ele>
        <time>2021-05-29T05:42:40.000Z</time>
      </trkpt>
      <trkpt lat="45.24135" lon="5.74324">
        <ele>1032.4000244141</ele>
        <time>2021-05-29T05:42:41.000Z</time>
      </trkpt>
      <trkpt lat="45.24129" lon="5.74325">
        <ele>1032</ele>
        <time>2021-05-29T05:42:44.000Z</time>
      </trkpt>
      <trkpt lat="45.24127" lon="5.74325">
        <ele>1032</ele>
        <time>2021-05-29T05:42:45.000Z</time>
      </trkpt>
      <trkpt lat="45.24122" lon="5.74327">
        <ele>1031.8000488281</ele>
        <time>2021-05-29T05:42:48.000Z</time>
      </trkpt>
      <trkpt lat="45.24118" lon="5.74328">
        <ele>1031.5999755859</ele>
        <time>2021-05-29T05:42:50.000Z</time>
      </trkpt>
      <trkpt lat="45.24112" lon="5.74326">
        <ele>1031.4000244141</ele>
        <time>2021-05-29T05:42:53.000Z</time>
      </trkpt>
      <trkpt lat="45.24106" lon="5.74327">
        <ele>1031.1999511719</ele>
        <time>2021-05-29T05:42:58.000Z</time>
      </trkpt>
      <trkpt lat="45.24101" lon="5.7433">
        <ele>1031.4000244141</ele>
        <time>2021-05-29T05:43:01.000Z</time>
      </trkpt>
      <trkpt lat="45.24093" lon="5.74336">
        <ele>1031.8000488281</ele>
        <time>2021-05-29T05:43:05.000Z</time>
      </trkpt>
      <trkpt lat="45.24089" lon="5.74338">
        <ele>1032.4000244141</ele>
        <time>2021-05-29T05:43:07.000Z</time>
      </trkpt>
      <trkpt lat="45.24081" lon="5.74343">
        <ele>1032.5999755859</ele>
        <time>2021-05-29T05:43:11.000Z</time>
      </trkpt>
      <trkpt lat="45.24074" lon="5.74347">
        <ele>1032.1999511719</ele>
        <time>2021-05-29T05:43:14.000Z</time>
      </trkpt>
      <trkpt lat="45.24071" lon="5.74348">
        <ele>1032</ele>
        <time>2021-05-29T05:43:15.000Z</time>
      </trkpt>
      <trkpt lat="45.2407" lon="5.74348">
        <ele>1031.8000488281</ele>
        <time>2021-05-29T05:43:16.000Z</time>
      </trkpt>
      <trkpt lat="45.24069" lon="5.74347">
        <ele>1031.5999755859</ele>
        <time>2021-05-29T05:43:18.000Z</time>
      </trkpt>
      <trkpt lat="45.24068" lon="5.74347">
        <ele>1031.5999755859</ele>
        <time>2021-05-29T05:43:19.000Z</time>
      </trkpt>
      <trkpt lat="45.24066" lon="5.74347">
        <ele>1031.4000244141</ele>
        <time>2021-05-29T05:43:22.000Z</time>
      </trkpt>
      <trkpt lat="45.24064" lon="5.74348">
        <ele>1031.4000244141</ele>
        <time>2021-05-29T05:43:27.000Z</time>
      </trkpt>
      <trkpt lat="45.24064" lon="5.74349">
        <ele>1031.4000244141</ele>
        <time>2021-05-29T05:43:28.000Z</time>
      </trkpt>
      <trkpt lat="45.24063" lon="5.74349">
        <ele>1031.4000244141</ele>
        <time>2021-05-29T05:43:29.000Z</time>
      </trkpt>
      <trkpt lat="45.24061" lon="5.7435">
        <ele>1031.1999511719</ele>
        <time>2021-05-29T05:43:32.000Z</time>
      </trkpt>
      <trkpt lat="45.24054" lon="5.7435">
        <ele>1031.1999511719</ele>
        <time>2021-05-29T05:43:37.000Z</time>
      </trkpt>
      <trkpt lat="45.24053" lon="5.74347">
        <ele>1031.1999511719</ele>
        <time>2021-05-29T05:43:41.000Z</time>
      </trkpt>
      <trkpt lat="45.24056" lon="5.7435">
        <ele>1031</ele>
        <time>2021-05-29T05:43:50.000Z</time>
      </trkpt>
      <trkpt lat="45.24055" lon="5.74352">
        <ele>1030.8000488281</ele>
        <time>2021-05-29T05:43:52.000Z</time>
      </trkpt>
      <trkpt lat="45.24053" lon="5.74356">
        <ele>1030.1999511719</ele>
        <time>2021-05-29T05:43:54.000Z</time>
      </trkpt>
      <trkpt lat="45.24052" lon="5.74358">
        <ele>1030</ele>
        <time>2021-05-29T05:43:55.000Z</time>
      </trkpt>
      <trkpt lat="45.24051" lon="5.7436">
        <ele>1029.8000488281</ele>
        <time>2021-05-29T05:43:56.000Z</time>
      </trkpt>
      <trkpt lat="45.24044" lon="5.74372">
        <ele>1028.8000488281</ele>
        <time>2021-05-29T05:44:02.000Z</time>
      </trkpt>
      <trkpt lat="45.24039" lon="5.74381">
        <ele>1027.8000488281</ele>
        <time>2021-05-29T05:44:05.000Z</time>
      </trkpt>
      <trkpt lat="45.24033" lon="5.74389">
        <ele>1027.4000244141</ele>
        <time>2021-05-29T05:44:07.000Z</time>
      </trkpt>
      <trkpt lat="45.24024" lon="5.74401">
        <ele>1027</ele>
        <time>2021-05-29T05:44:11.000Z</time>
      </trkpt>
      <trkpt lat="45.2402" lon="5.74406">
        <ele>1027</ele>
        <time>2021-05-29T05:44:13.000Z</time>
      </trkpt>
      <trkpt lat="45.24014" lon="5.74413">
        <ele>1026.5999755859</ele>
        <time>2021-05-29T05:44:17.000Z</time>
      </trkpt>
      <trkpt lat="45.24011" lon="5.74418">
        <ele>1026.4000244141</ele>
        <time>2021-05-29T05:44:19.000Z</time>
      </trkpt>
      <trkpt lat="45.2401" lon="5.7442">
        <ele>1026.1999511719</ele>
        <time>2021-05-29T05:44:20.000Z</time>
      </trkpt>
      <trkpt lat="45.24009" lon="5.74426">
        <ele>1026</ele>
        <time>2021-05-29T05:44:23.000Z</time>
      </trkpt>
      <trkpt lat="45.24009" lon="5.74428">
        <ele>1026</ele>
        <time>2021-05-29T05:44:24.000Z</time>
      </trkpt>
      <trkpt lat="45.24008" lon="5.74429">
        <ele>1026</ele>
        <time>2021-05-29T05:44:25.000Z</time>
      </trkpt>
      <trkpt lat="45.24007" lon="5.74431">
        <ele>1025.8000488281</ele>
        <time>2021-05-29T05:44:26.000Z</time>
      </trkpt>
      <trkpt lat="45.24006" lon="5.74432">
        <ele>1025.8000488281</ele>
        <time>2021-05-29T05:44:27.000Z</time>
      </trkpt>
      <trkpt lat="45.24001" lon="5.74439">
        <ele>1025.1999511719</ele>
        <time>2021-05-29T05:44:30.000Z</time>
      </trkpt>
      <trkpt lat="45.23998" lon="5.74444">
        <ele>1024.5999755859</ele>
        <time>2021-05-29T05:44:32.000Z</time>
      </trkpt>
      <trkpt lat="45.23994" lon="5.7445">
        <ele>1024.1999511719</ele>
        <time>2021-05-29T05:44:34.000Z</time>
      </trkpt>
      <trkpt lat="45.23983" lon="5.74462">
        <ele>1023.5999755859</ele>
        <time>2021-05-29T05:44:38.000Z</time>
      </trkpt>
      <trkpt lat="45.2398" lon="5.74468">
        <ele>1023</ele>
        <time>2021-05-29T05:44:40.000Z</time>
      </trkpt>
      <trkpt lat="45.23971" lon="5.74483">
        <ele>1021.799987793</ele>
        <time>2021-05-29T05:44:45.000Z</time>
      </trkpt>
      <trkpt lat="45.23967" lon="5.74488">
        <ele>1021.5999755859</ele>
        <time>2021-05-29T05:44:47.000Z</time>
      </trkpt>
      <trkpt lat="45.23965" lon="5.74493">
        <ele>1021</ele>
        <time>2021-05-29T05:44:49.000Z</time>
      </trkpt>
      <trkpt lat="45.23964" lon="5.74496">
        <ele>1020.5999755859</ele>
        <time>2021-05-29T05:44:50.000Z</time>
      </trkpt>
      <trkpt lat="45.23959" lon="5.74504">
        <ele>1020</ele>
        <time>2021-05-29T05:44:53.000Z</time>
      </trkpt>
      <trkpt lat="45.23956" lon="5.74509">
        <ele>1019.4000244141</ele>
        <time>2021-05-29T05:44:55.000Z</time>
      </trkpt>
      <trkpt lat="45.23955" lon="5.74511">
        <ele>1019</ele>
        <time>2021-05-29T05:44:56.000Z</time>
      </trkpt>
      <trkpt lat="45.23954" lon="5.74521">
        <ele>1018.5999755859</ele>
        <time>2021-05-29T05:44:59.000Z</time>
      </trkpt>
      <trkpt lat="45.23953" lon="5.74525">
        <ele>1018.4000244141</ele>
        <time>2021-05-29T05:45:00.000Z</time>
      </trkpt>
      <trkpt lat="45.23954" lon="5.74538">
        <ele>1017.200012207</ele>
        <time>2021-05-29T05:45:04.000Z</time>
      </trkpt>
      <trkpt lat="45.23953" lon="5.74541">
        <ele>1016.799987793</ele>
        <time>2021-05-29T05:45:05.000Z</time>
      </trkpt>
      <trkpt lat="45.23954" lon="5.74547">
        <ele>1016</ele>
        <time>2021-05-29T05:45:08.000Z</time>
      </trkpt>
      <trkpt lat="45.23956" lon="5.74552">
        <ele>1015.4000244141</ele>
        <time>2021-05-29T05:45:10.000Z</time>
      </trkpt>
      <trkpt lat="45.23957" lon="5.74555">
        <ele>1015</ele>
        <time>2021-05-29T05:45:11.000Z</time>
      </trkpt>
      <trkpt lat="45.23964" lon="5.7457">
        <ele>1014.4000244141</ele>
        <time>2021-05-29T05:45:16.000Z</time>
      </trkpt>
      <trkpt lat="45.23964" lon="5.74573">
        <ele>1014.200012207</ele>
        <time>2021-05-29T05:45:17.000Z</time>
      </trkpt>
      <trkpt lat="45.23965" lon="5.74578">
        <ele>1013.799987793</ele>
        <time>2021-05-29T05:45:19.000Z</time>
      </trkpt>
      <trkpt lat="45.23968" lon="5.74592">
        <ele>1012.5999755859</ele>
        <time>2021-05-29T05:45:24.000Z</time>
      </trkpt>
      <trkpt lat="45.23966" lon="5.74597">
        <ele>1012.200012207</ele>
        <time>2021-05-29T05:45:26.000Z</time>
      </trkpt>
      <trkpt lat="45.23963" lon="5.74599">
        <ele>1012</ele>
        <time>2021-05-29T05:45:27.000Z</time>
      </trkpt>
      <trkpt lat="45.23959" lon="5.746">
        <ele>1011.5999755859</ele>
        <time>2021-05-29T05:45:29.000Z</time>
      </trkpt>
      <trkpt lat="45.23955" lon="5.746">
        <ele>1011.4000244141</ele>
        <time>2021-05-29T05:45:31.000Z</time>
      </trkpt>
      <trkpt lat="45.23953" lon="5.746">
        <ele>1011.4000244141</ele>
        <time>2021-05-29T05:45:32.000Z</time>
      </trkpt>
      <trkpt lat="45.23949" lon="5.746">
        <ele>1010.799987793</ele>
        <time>2021-05-29T05:45:34.000Z</time>
      </trkpt>
      <trkpt lat="45.23945" lon="5.74599">
        <ele>1010.4000244141</ele>
        <time>2021-05-29T05:45:36.000Z</time>
      </trkpt>
      <trkpt lat="45.23939" lon="5.74597">
        <ele>1009.200012207</ele>
        <time>2021-05-29T05:45:40.000Z</time>
      </trkpt>
      <trkpt lat="45.23933" lon="5.74598">
        <ele>1008.799987793</ele>
        <time>2021-05-29T05:45:42.000Z</time>
      </trkpt>
      <trkpt lat="45.23925" lon="5.74599">
        <ele>1007.799987793</ele>
        <time>2021-05-29T05:45:45.000Z</time>
      </trkpt>
      <trkpt lat="45.23923" lon="5.74598">
        <ele>1007.5999755859</ele>
        <time>2021-05-29T05:45:46.000Z</time>
      </trkpt>
      <trkpt lat="45.23916" lon="5.74597">
        <ele>1006.799987793</ele>
        <time>2021-05-29T05:45:50.000Z</time>
      </trkpt>
      <trkpt lat="45.23913" lon="5.74595">
        <ele>1006.4000244141</ele>
        <time>2021-05-29T05:45:52.000Z</time>
      </trkpt>
      <trkpt lat="45.23907" lon="5.74594">
        <ele>1005.4000244141</ele>
        <time>2021-05-29T05:45:55.000Z</time>
      </trkpt>
      <trkpt lat="45.23898" lon="5.74594">
        <ele>1004.4000244141</ele>
        <time>2021-05-29T05:45:58.000Z</time>
      </trkpt>
      <trkpt lat="45.23885" lon="5.74594">
        <ele>1003.4000244141</ele>
        <time>2021-05-29T05:46:02.000Z</time>
      </trkpt>
      <trkpt lat="45.23879" lon="5.74594">
        <ele>1002.799987793</ele>
        <time>2021-05-29T05:46:04.000Z</time>
      </trkpt>
      <trkpt lat="45.23874" lon="5.74594">
        <ele>1002.200012207</ele>
        <time>2021-05-29T05:46:06.000Z</time>
      </trkpt>
      <trkpt lat="45.23867" lon="5.74595">
        <ele>1001</ele>
        <time>2021-05-29T05:46:09.000Z</time>
      </trkpt>
      <trkpt lat="45.23865" lon="5.74594">
        <ele>1000.799987793</ele>
        <time>2021-05-29T05:46:10.000Z</time>
      </trkpt>
      <trkpt lat="45.23858" lon="5.74591">
        <ele>1000</ele>
        <time>2021-05-29T05:46:13.000Z</time>
      </trkpt>
      <trkpt lat="45.23852" lon="5.74592">
        <ele>999.20001220703</ele>
        <time>2021-05-29T05:46:15.000Z</time>
      </trkpt>
      <trkpt lat="45.23846" lon="5.74594">
        <ele>998.79998779297</ele>
        <time>2021-05-29T05:46:17.000Z</time>
      </trkpt>
      <trkpt lat="45.23836" lon="5.74594">
        <ele>997.79998779297</ele>
        <time>2021-05-29T05:46:20.000Z</time>
      </trkpt>
      <trkpt lat="45.23832" lon="5.74594">
        <ele>997.40002441406</ele>
        <time>2021-05-29T05:46:21.000Z</time>
      </trkpt>
      <trkpt lat="45.23816" lon="5.74593">
        <ele>996.40002441406</ele>
        <time>2021-05-29T05:46:25.000Z</time>
      </trkpt>
      <trkpt lat="45.23813" lon="5.74592">
        <ele>996.20001220703</ele>
        <time>2021-05-29T05:46:26.000Z</time>
      </trkpt>
      <trkpt lat="45.23803" lon="5.74593">
        <ele>995.40002441406</ele>
        <time>2021-05-29T05:46:30.000Z</time>
      </trkpt>
      <trkpt lat="45.23799" lon="5.74591">
        <ele>994.40002441406</ele>
        <time>2021-05-29T05:46:32.000Z</time>
      </trkpt>
      <trkpt lat="45.23795" lon="5.74589">
        <ele>994.20001220703</ele>
        <time>2021-05-29T05:46:33.000Z</time>
      </trkpt>
      <trkpt lat="45.2379" lon="5.74586">
        <ele>993.20001220703</ele>
        <time>2021-05-29T05:46:36.000Z</time>
      </trkpt>
      <trkpt lat="45.23785" lon="5.74587">
        <ele>992.59997558594</ele>
        <time>2021-05-29T05:46:38.000Z</time>
      </trkpt>
      <trkpt lat="45.23767" lon="5.74583">
        <ele>992.40002441406</ele>
        <time>2021-05-29T05:46:44.000Z</time>
      </trkpt>
      <trkpt lat="45.23765" lon="5.74581">
        <ele>992.40002441406</ele>
        <time>2021-05-29T05:46:45.000Z</time>
      </trkpt>
      <trkpt lat="45.23759" lon="5.74575">
        <ele>992.79998779297</ele>
        <time>2021-05-29T05:46:48.000Z</time>
      </trkpt>
      <trkpt lat="45.23746" lon="5.74566">
        <ele>992.79998779297</ele>
        <time>2021-05-29T05:46:54.000Z</time>
      </trkpt>
      <trkpt lat="45.23742" lon="5.74562">
        <ele>993</ele>
        <time>2021-05-29T05:46:58.000Z</time>
      </trkpt>
      <trkpt lat="45.23741" lon="5.7456">
        <ele>993</ele>
        <time>2021-05-29T05:47:00.000Z</time>
      </trkpt>
      <trkpt lat="45.23737" lon="5.74563">
        <ele>993.79998779297</ele>
        <time>2021-05-29T05:47:04.000Z</time>
      </trkpt>
      <trkpt lat="45.23734" lon="5.74566">
        <ele>994.20001220703</ele>
        <time>2021-05-29T05:47:06.000Z</time>
      </trkpt>
      <trkpt lat="45.23723" lon="5.74579">
        <ele>995.20001220703</ele>
        <time>2021-05-29T05:47:12.000Z</time>
      </trkpt>
      <trkpt lat="45.23722" lon="5.7458">
        <ele>995.40002441406</ele>
        <time>2021-05-29T05:47:13.000Z</time>
      </trkpt>
      <trkpt lat="45.23717" lon="5.74583">
        <ele>996</ele>
        <time>2021-05-29T05:47:16.000Z</time>
      </trkpt>
      <trkpt lat="45.23714" lon="5.74584">
        <ele>996.20001220703</ele>
        <time>2021-05-29T05:47:17.000Z</time>
      </trkpt>
      <trkpt lat="45.23708" lon="5.74586">
        <ele>996.59997558594</ele>
        <time>2021-05-29T05:47:19.000Z</time>
      </trkpt>
      <trkpt lat="45.23701" lon="5.74589">
        <ele>997.20001220703</ele>
        <time>2021-05-29T05:47:21.000Z</time>
      </trkpt>
      <trkpt lat="45.23698" lon="5.74589">
        <ele>997.40002441406</ele>
        <time>2021-05-29T05:47:22.000Z</time>
      </trkpt>
      <trkpt lat="45.2369" lon="5.7459">
        <ele>998.40002441406</ele>
        <time>2021-05-29T05:47:26.000Z</time>
      </trkpt>
      <trkpt lat="45.23688" lon="5.74589">
        <ele>998.40002441406</ele>
        <time>2021-05-29T05:47:27.000Z</time>
      </trkpt>
      <trkpt lat="45.23677" lon="5.74591">
        <ele>999.59997558594</ele>
        <time>2021-05-29T05:47:33.000Z</time>
      </trkpt>
      <trkpt lat="45.23671" lon="5.74594">
        <ele>1000.4000244141</ele>
        <time>2021-05-29T05:47:36.000Z</time>
      </trkpt>
      <trkpt lat="45.23665" lon="5.74595">
        <ele>1000.799987793</ele>
        <time>2021-05-29T05:47:39.000Z</time>
      </trkpt>
      <trkpt lat="45.23663" lon="5.74595">
        <ele>1001</ele>
        <time>2021-05-29T05:47:41.000Z</time>
      </trkpt>
      <trkpt lat="45.23661" lon="5.74597">
        <ele>1001</ele>
        <time>2021-05-29T05:47:43.000Z</time>
      </trkpt>
      <trkpt lat="45.23659" lon="5.74599">
        <ele>1001.4000244141</ele>
        <time>2021-05-29T05:47:45.000Z</time>
      </trkpt>
      <trkpt lat="45.23655" lon="5.74604">
        <ele>1001.799987793</ele>
        <time>2021-05-29T05:47:47.000Z</time>
      </trkpt>
      <trkpt lat="45.23651" lon="5.74607">
        <ele>1002.200012207</ele>
        <time>2021-05-29T05:47:49.000Z</time>
      </trkpt>
      <trkpt lat="45.23649" lon="5.74608">
        <ele>1002.799987793</ele>
        <time>2021-05-29T05:47:51.000Z</time>
      </trkpt>
      <trkpt lat="45.23646" lon="5.74609">
        <ele>1003</ele>
        <time>2021-05-29T05:47:53.000Z</time>
      </trkpt>
      <trkpt lat="45.23636" lon="5.74614">
        <ele>1004.200012207</ele>
        <time>2021-05-29T05:47:58.000Z</time>
      </trkpt>
      <trkpt lat="45.23627" lon="5.74617">
        <ele>1004.799987793</ele>
        <time>2021-05-29T05:48:01.000Z</time>
      </trkpt>
      <trkpt lat="45.23627" lon="5.74617">
        <ele>1005.200012207</ele>
        <time>2021-05-29T05:48:02.000Z</time>
      </trkpt>
      <trkpt lat="45.23624" lon="5.74617">
        <ele>1005.4000244141</ele>
        <time>2021-05-29T05:48:03.000Z</time>
      </trkpt>
      <trkpt lat="45.23614" lon="5.74613">
        <ele>1006.4000244141</ele>
        <time>2021-05-29T05:48:08.000Z</time>
      </trkpt>
      <trkpt lat="45.23611" lon="5.74612">
        <ele>1006.5999755859</ele>
        <time>2021-05-29T05:48:09.000Z</time>
      </trkpt>
      <trkpt lat="45.23606" lon="5.74606">
        <ele>1007.200012207</ele>
        <time>2021-05-29T05:48:12.000Z</time>
      </trkpt>
      <trkpt lat="45.23604" lon="5.74604">
        <ele>1007.5999755859</ele>
        <time>2021-05-29T05:48:13.000Z</time>
      </trkpt>
      <trkpt lat="45.23601" lon="5.74598">
        <ele>1007.799987793</ele>
        <time>2021-05-29T05:48:15.000Z</time>
      </trkpt>
      <trkpt lat="45.23598" lon="5.7459">
        <ele>1008.200012207</ele>
        <time>2021-05-29T05:48:17.000Z</time>
      </trkpt>
      <trkpt lat="45.23595" lon="5.74584">
        <ele>1008.5999755859</ele>
        <time>2021-05-29T05:48:19.000Z</time>
      </trkpt>
      <trkpt lat="45.23591" lon="5.74579">
        <ele>1009</ele>
        <time>2021-05-29T05:48:21.000Z</time>
      </trkpt>
      <trkpt lat="45.23588" lon="5.74569">
        <ele>1009.4000244141</ele>
        <time>2021-05-29T05:48:24.000Z</time>
      </trkpt>
      <trkpt lat="45.23587" lon="5.74566">
        <ele>1009.5999755859</ele>
        <time>2021-05-29T05:48:25.000Z</time>
      </trkpt>
      <trkpt lat="45.2358" lon="5.74549">
        <ele>1010.5999755859</ele>
        <time>2021-05-29T05:48:30.000Z</time>
      </trkpt>
      <trkpt lat="45.23579" lon="5.74546">
        <ele>1010.799987793</ele>
        <time>2021-05-29T05:48:31.000Z</time>
      </trkpt>
      <trkpt lat="45.23573" lon="5.74536">
        <ele>1011.4000244141</ele>
        <time>2021-05-29T05:48:35.000Z</time>
      </trkpt>
      <trkpt lat="45.23568" lon="5.74533">
        <ele>1011.799987793</ele>
        <time>2021-05-29T05:48:38.000Z</time>
      </trkpt>
      <trkpt lat="45.23567" lon="5.74533">
        <ele>1011.799987793</ele>
        <time>2021-05-29T05:48:39.000Z</time>
      </trkpt>
      <trkpt lat="45.23564" lon="5.74531">
        <ele>1012</ele>
        <time>2021-05-29T05:48:41.000Z</time>
      </trkpt>
      <trkpt lat="45.23557" lon="5.74527">
        <ele>1012.5999755859</ele>
        <time>2021-05-29T05:48:45.000Z</time>
      </trkpt>
      <trkpt lat="45.23556" lon="5.74524">
        <ele>1012.799987793</ele>
        <time>2021-05-29T05:48:46.000Z</time>
      </trkpt>
      <trkpt lat="45.23555" lon="5.74523">
        <ele>1013</ele>
        <time>2021-05-29T05:48:47.000Z</time>
      </trkpt>
      <trkpt lat="45.23553" lon="5.7452">
        <ele>1013.200012207</ele>
        <time>2021-05-29T05:48:49.000Z</time>
      </trkpt>
      <trkpt lat="45.2355" lon="5.74516">
        <ele>1013.5999755859</ele>
        <time>2021-05-29T05:48:52.000Z</time>
      </trkpt>
      <trkpt lat="45.23547" lon="5.74517">
        <ele>1014</ele>
        <time>2021-05-29T05:48:54.000Z</time>
      </trkpt>
      <trkpt lat="45.23543" lon="5.74516">
        <ele>1014.200012207</ele>
        <time>2021-05-29T05:48:56.000Z</time>
      </trkpt>
      <trkpt lat="45.23541" lon="5.74514">
        <ele>1015</ele>
        <time>2021-05-29T05:48:58.000Z</time>
      </trkpt>
      <trkpt lat="45.23539" lon="5.74515">
        <ele>1015.200012207</ele>
        <time>2021-05-29T05:48:59.000Z</time>
      </trkpt>
      <trkpt lat="45.23538" lon="5.74514">
        <ele>1015.200012207</ele>
        <time>2021-05-29T05:49:00.000Z</time>
      </trkpt>
      <trkpt lat="45.23532" lon="5.74512">
        <ele>1016.200012207</ele>
        <time>2021-05-29T05:49:03.000Z</time>
      </trkpt>
      <trkpt lat="45.23525" lon="5.74508">
        <ele>1017.4000244141</ele>
        <time>2021-05-29T05:49:07.000Z</time>
      </trkpt>
      <trkpt lat="45.23519" lon="5.74506">
        <ele>1018.200012207</ele>
        <time>2021-05-29T05:49:10.000Z</time>
      </trkpt>
      <trkpt lat="45.23516" lon="5.74504">
        <ele>1018.4000244141</ele>
        <time>2021-05-29T05:49:13.000Z</time>
      </trkpt>
      <trkpt lat="45.23517" lon="5.74507">
        <ele>1018.4000244141</ele>
        <time>2021-05-29T05:49:15.000Z</time>
      </trkpt>
      <trkpt lat="45.23519" lon="5.74512">
        <ele>1018</ele>
        <time>2021-05-29T05:49:17.000Z</time>
      </trkpt>
      <trkpt lat="45.2352" lon="5.7452">
        <ele>1017.4000244141</ele>
        <time>2021-05-29T05:49:20.000Z</time>
      </trkpt>
      <trkpt lat="45.23515" lon="5.74535">
        <ele>1016.5999755859</ele>
        <time>2021-05-29T05:49:25.000Z</time>
      </trkpt>
      <trkpt lat="45.23514" lon="5.74554">
        <ele>1016.4000244141</ele>
        <time>2021-05-29T05:49:31.000Z</time>
      </trkpt>
      <trkpt lat="45.23512" lon="5.74567">
        <ele>1015.4000244141</ele>
        <time>2021-05-29T05:49:35.000Z</time>
      </trkpt>
      <trkpt lat="45.23511" lon="5.7457">
        <ele>1015.200012207</ele>
        <time>2021-05-29T05:49:36.000Z</time>
      </trkpt>
      <trkpt lat="45.2351" lon="5.74587">
        <ele>1014</ele>
        <time>2021-05-29T05:49:42.000Z</time>
      </trkpt>
      <trkpt lat="45.23509" lon="5.74589">
        <ele>1014</ele>
        <time>2021-05-29T05:49:43.000Z</time>
      </trkpt>
      <trkpt lat="45.23508" lon="5.74585">
        <ele>1013.5999755859</ele>
        <time>2021-05-29T05:49:46.000Z</time>
      </trkpt>
      <trkpt lat="45.23506" lon="5.74584">
        <ele>1013.4000244141</ele>
        <time>2021-05-29T05:49:49.000Z</time>
      </trkpt>
      <trkpt lat="45.23502" lon="5.74587">
        <ele>1013.4000244141</ele>
        <time>2021-05-29T05:49:53.000Z</time>
      </trkpt>
      <trkpt lat="45.23501" lon="5.7459">
        <ele>1013.4000244141</ele>
        <time>2021-05-29T05:49:55.000Z</time>
      </trkpt>
      <trkpt lat="45.235" lon="5.74593">
        <ele>1013.200012207</ele>
        <time>2021-05-29T05:49:57.000Z</time>
      </trkpt>
      <trkpt lat="45.23498" lon="5.74597">
        <ele>1013</ele>
        <time>2021-05-29T05:49:59.000Z</time>
      </trkpt>
      <trkpt lat="45.23496" lon="5.74603">
        <ele>1012</ele>
        <time>2021-05-29T05:50:02.000Z</time>
      </trkpt>
      <trkpt lat="45.23496" lon="5.74604">
        <ele>1011</ele>
        <time>2021-05-29T05:50:03.000Z</time>
      </trkpt>
      <trkpt lat="45.23496" lon="5.74606">
        <ele>1010.4000244141</ele>
        <time>2021-05-29T05:50:04.000Z</time>
      </trkpt>
      <trkpt lat="45.23495" lon="5.74607">
        <ele>1009.799987793</ele>
        <time>2021-05-29T05:50:05.000Z</time>
      </trkpt>
      <trkpt lat="45.23492" lon="5.74608">
        <ele>1009</ele>
        <time>2021-05-29T05:50:07.000Z</time>
      </trkpt>
      <trkpt lat="45.23489" lon="5.74607">
        <ele>1008.799987793</ele>
        <time>2021-05-29T05:50:08.000Z</time>
      </trkpt>
      <trkpt lat="45.23477" lon="5.74604">
        <ele>1007.799987793</ele>
        <time>2021-05-29T05:50:12.000Z</time>
      </trkpt>
      <trkpt lat="45.23476" lon="5.74604">
        <ele>1007.5999755859</ele>
        <time>2021-05-29T05:50:13.000Z</time>
      </trkpt>
      <trkpt lat="45.23475" lon="5.74604">
        <ele>1007.5999755859</ele>
        <time>2021-05-29T05:50:14.000Z</time>
      </trkpt>
      <trkpt lat="45.2347" lon="5.746">
        <ele>1007.200012207</ele>
        <time>2021-05-29T05:50:18.000Z</time>
      </trkpt>
      <trkpt lat="45.23467" lon="5.74597">
        <ele>1006.4000244141</ele>
        <time>2021-05-29T05:50:20.000Z</time>
      </trkpt>
      <trkpt lat="45.23466" lon="5.74596">
        <ele>1005.4000244141</ele>
        <time>2021-05-29T05:50:22.000Z</time>
      </trkpt>
      <trkpt lat="45.23464" lon="5.74595">
        <ele>1004.4000244141</ele>
        <time>2021-05-29T05:50:24.000Z</time>
      </trkpt>
      <trkpt lat="45.23462" lon="5.74594">
        <ele>1004.200012207</ele>
        <time>2021-05-29T05:50:25.000Z</time>
      </trkpt>
      <trkpt lat="45.23459" lon="5.74592">
        <ele>1003</ele>
        <time>2021-05-29T05:50:28.000Z</time>
      </trkpt>
      <trkpt lat="45.23458" lon="5.74592">
        <ele>1002.5999755859</ele>
        <time>2021-05-29T05:50:29.000Z</time>
      </trkpt>
      <trkpt lat="45.23454" lon="5.74588">
        <ele>1001.5999755859</ele>
        <time>2021-05-29T05:50:32.000Z</time>
      </trkpt>
      <trkpt lat="45.23452" lon="5.74587">
        <ele>1001.200012207</ele>
        <time>2021-05-29T05:50:33.000Z</time>
      </trkpt>
      <trkpt lat="45.23448" lon="5.74586">
        <ele>1000.5999755859</ele>
        <time>2021-05-29T05:50:35.000Z</time>
      </trkpt>
      <trkpt lat="45.23446" lon="5.74586">
        <ele>1000.4000244141</ele>
        <time>2021-05-29T05:50:36.000Z</time>
      </trkpt>
      <trkpt lat="45.23443" lon="5.74586">
        <ele>999.20001220703</ele>
        <time>2021-05-29T05:50:38.000Z</time>
      </trkpt>
      <trkpt lat="45.23442" lon="5.74587">
        <ele>998.79998779297</ele>
        <time>2021-05-29T05:50:39.000Z</time>
      </trkpt>
      <trkpt lat="45.23441" lon="5.74586">
        <ele>997.79998779297</ele>
        <time>2021-05-29T05:50:41.000Z</time>
      </trkpt>
      <trkpt lat="45.23437" lon="5.74587">
        <ele>996.59997558594</ele>
        <time>2021-05-29T05:50:44.000Z</time>
      </trkpt>
      <trkpt lat="45.23435" lon="5.74588">
        <ele>996.40002441406</ele>
        <time>2021-05-29T05:50:45.000Z</time>
      </trkpt>
      <trkpt lat="45.2343" lon="5.7459">
        <ele>995.59997558594</ele>
        <time>2021-05-29T05:50:47.000Z</time>
      </trkpt>
      <trkpt lat="45.23428" lon="5.7459">
        <ele>995.20001220703</ele>
        <time>2021-05-29T05:50:48.000Z</time>
      </trkpt>
      <trkpt lat="45.23421" lon="5.74588">
        <ele>994.40002441406</ele>
        <time>2021-05-29T05:50:51.000Z</time>
      </trkpt>
      <trkpt lat="45.23409" lon="5.74585">
        <ele>993.59997558594</ele>
        <time>2021-05-29T05:50:56.000Z</time>
      </trkpt>
      <trkpt lat="45.23406" lon="5.74585">
        <ele>993.40002441406</ele>
        <time>2021-05-29T05:50:57.000Z</time>
      </trkpt>
      <trkpt lat="45.2339" lon="5.74582">
        <ele>992.20001220703</ele>
        <time>2021-05-29T05:51:02.000Z</time>
      </trkpt>
      <trkpt lat="45.23386" lon="5.7458">
        <ele>991.79998779297</ele>
        <time>2021-05-29T05:51:03.000Z</time>
      </trkpt>
      <trkpt lat="45.23376" lon="5.74578">
        <ele>991</ele>
        <time>2021-05-29T05:51:06.000Z</time>
      </trkpt>
      <trkpt lat="45.2337" lon="5.74575">
        <ele>990.59997558594</ele>
        <time>2021-05-29T05:51:08.000Z</time>
      </trkpt>
      <trkpt lat="45.23361" lon="5.74573">
        <ele>990</ele>
        <time>2021-05-29T05:51:11.000Z</time>
      </trkpt>
      <trkpt lat="45.23359" lon="5.74571">
        <ele>989.79998779297</ele>
        <time>2021-05-29T05:51:12.000Z</time>
      </trkpt>
      <trkpt lat="45.23353" lon="5.74565">
        <ele>989.59997558594</ele>
        <time>2021-05-29T05:51:14.000Z</time>
      </trkpt>
      <trkpt lat="45.23343" lon="5.74558">
        <ele>988.79998779297</ele>
        <time>2021-05-29T05:51:18.000Z</time>
      </trkpt>
      <trkpt lat="45.23334" lon="5.74553">
        <ele>988</ele>
        <time>2021-05-29T05:51:22.000Z</time>
      </trkpt>
      <trkpt lat="45.2333" lon="5.74551">
        <ele>987.59997558594</ele>
        <time>2021-05-29T05:51:24.000Z</time>
      </trkpt>
      <trkpt lat="45.23328" lon="5.74552">
        <ele>987.40002441406</ele>
        <time>2021-05-29T05:51:25.000Z</time>
      </trkpt>
      <trkpt lat="45.23324" lon="5.74551">
        <ele>986.59997558594</ele>
        <time>2021-05-29T05:51:27.000Z</time>
      </trkpt>
      <trkpt lat="45.23322" lon="5.74549">
        <ele>985.59997558594</ele>
        <time>2021-05-29T05:51:29.000Z</time>
      </trkpt>
      <trkpt lat="45.23319" lon="5.74548">
        <ele>985.40002441406</ele>
        <time>2021-05-29T05:51:30.000Z</time>
      </trkpt>
      <trkpt lat="45.23318" lon="5.74544">
        <ele>985</ele>
        <time>2021-05-29T05:51:32.000Z</time>
      </trkpt>
      <trkpt lat="45.23315" lon="5.74541">
        <ele>984.20001220703</ele>
        <time>2021-05-29T05:51:35.000Z</time>
      </trkpt>
      <trkpt lat="45.23314" lon="5.74541">
        <ele>983</ele>
        <time>2021-05-29T05:51:37.000Z</time>
      </trkpt>
      <trkpt lat="45.23312" lon="5.74539">
        <ele>982.40002441406</ele>
        <time>2021-05-29T05:51:39.000Z</time>
      </trkpt>
      <trkpt lat="45.23311" lon="5.74539">
        <ele>982</ele>
        <time>2021-05-29T05:51:41.000Z</time>
      </trkpt>
      <trkpt lat="45.2331" lon="5.74539">
        <ele>981.59997558594</ele>
        <time>2021-05-29T05:51:42.000Z</time>
      </trkpt>
      <trkpt lat="45.2331" lon="5.74538">
        <ele>980.59997558594</ele>
        <time>2021-05-29T05:51:43.000Z</time>
      </trkpt>
      <trkpt lat="45.23308" lon="5.74538">
        <ele>980</ele>
        <time>2021-05-29T05:51:44.000Z</time>
      </trkpt>
      <trkpt lat="45.23307" lon="5.74537">
        <ele>979.40002441406</ele>
        <time>2021-05-29T05:51:45.000Z</time>
      </trkpt>
      <trkpt lat="45.23307" lon="5.74537">
        <ele>979</ele>
        <time>2021-05-29T05:51:46.000Z</time>
      </trkpt>
      <trkpt lat="45.23302" lon="5.74535">
        <ele>978.20001220703</ele>
        <time>2021-05-29T05:51:49.000Z</time>
      </trkpt>
      <trkpt lat="45.23301" lon="5.74535">
        <ele>977.59997558594</ele>
        <time>2021-05-29T05:51:50.000Z</time>
      </trkpt>
      <trkpt lat="45.233" lon="5.74534">
        <ele>976.59997558594</ele>
        <time>2021-05-29T05:51:52.000Z</time>
      </trkpt>
      <trkpt lat="45.23298" lon="5.74534">
        <ele>976.20001220703</ele>
        <time>2021-05-29T05:51:53.000Z</time>
      </trkpt>
      <trkpt lat="45.23296" lon="5.74533">
        <ele>975.79998779297</ele>
        <time>2021-05-29T05:51:54.000Z</time>
      </trkpt>
      <trkpt lat="45.23294" lon="5.74533">
        <ele>975.59997558594</ele>
        <time>2021-05-29T05:51:55.000Z</time>
      </trkpt>
      <trkpt lat="45.2329" lon="5.74532">
        <ele>974.20001220703</ele>
        <time>2021-05-29T05:51:57.000Z</time>
      </trkpt>
      <trkpt lat="45.23285" lon="5.7453">
        <ele>972.79998779297</ele>
        <time>2021-05-29T05:52:00.000Z</time>
      </trkpt>
      <trkpt lat="45.23284" lon="5.7453">
        <ele>972.59997558594</ele>
        <time>2021-05-29T05:52:01.000Z</time>
      </trkpt>
      <trkpt lat="45.23283" lon="5.74529">
        <ele>972.40002441406</ele>
        <time>2021-05-29T05:52:02.000Z</time>
      </trkpt>
      <trkpt lat="45.23281" lon="5.74526">
        <ele>971.59997558594</ele>
        <time>2021-05-29T05:52:04.000Z</time>
      </trkpt>
      <trkpt lat="45.2328" lon="5.74525">
        <ele>971.40002441406</ele>
        <time>2021-05-29T05:52:05.000Z</time>
      </trkpt>
      <trkpt lat="45.23279" lon="5.74524">
        <ele>971.20001220703</ele>
        <time>2021-05-29T05:52:06.000Z</time>
      </trkpt>
      <trkpt lat="45.23277" lon="5.74523">
        <ele>970.40002441406</ele>
        <time>2021-05-29T05:52:08.000Z</time>
      </trkpt>
      <trkpt lat="45.23275" lon="5.74523">
        <ele>969.40002441406</ele>
        <time>2021-05-29T05:52:10.000Z</time>
      </trkpt>
      <trkpt lat="45.23272" lon="5.74523">
        <ele>969.20001220703</ele>
        <time>2021-05-29T05:52:11.000Z</time>
      </trkpt>
      <trkpt lat="45.23267" lon="5.74524">
        <ele>967.59997558594</ele>
        <time>2021-05-29T05:52:14.000Z</time>
      </trkpt>
      <trkpt lat="45.23263" lon="5.74523">
        <ele>966.20001220703</ele>
        <time>2021-05-29T05:52:17.000Z</time>
      </trkpt>
      <trkpt lat="45.23262" lon="5.74522">
        <ele>966</ele>
        <time>2021-05-29T05:52:18.000Z</time>
      </trkpt>
      <trkpt lat="45.2326" lon="5.7452">
        <ele>964.79998779297</ele>
        <time>2021-05-29T05:52:20.000Z</time>
      </trkpt>
      <trkpt lat="45.23255" lon="5.74515">
        <ele>963.59997558594</ele>
        <time>2021-05-29T05:52:23.000Z</time>
      </trkpt>
      <trkpt lat="45.23253" lon="5.74512">
        <ele>962.79998779297</ele>
        <time>2021-05-29T05:52:25.000Z</time>
      </trkpt>
      <trkpt lat="45.23252" lon="5.74511">
        <ele>962.40002441406</ele>
        <time>2021-05-29T05:52:26.000Z</time>
      </trkpt>
      <trkpt lat="45.23249" lon="5.74512">
        <ele>961.79998779297</ele>
        <time>2021-05-29T05:52:28.000Z</time>
      </trkpt>
      <trkpt lat="45.23248" lon="5.74512">
        <ele>961.59997558594</ele>
        <time>2021-05-29T05:52:29.000Z</time>
      </trkpt>
      <trkpt lat="45.23246" lon="5.74511">
        <ele>961.20001220703</ele>
        <time>2021-05-29T05:52:30.000Z</time>
      </trkpt>
      <trkpt lat="45.23245" lon="5.74509">
        <ele>960</ele>
        <time>2021-05-29T05:52:32.000Z</time>
      </trkpt>
      <trkpt lat="45.23241" lon="5.74507">
        <ele>959.59997558594</ele>
        <time>2021-05-29T05:52:34.000Z</time>
      </trkpt>
      <trkpt lat="45.23235" lon="5.74504">
        <ele>958.79998779297</ele>
        <time>2021-05-29T05:52:37.000Z</time>
      </trkpt>
      <trkpt lat="45.23234" lon="5.74502">
        <ele>958.20001220703</ele>
        <time>2021-05-29T05:52:38.000Z</time>
      </trkpt>
      <trkpt lat="45.23231" lon="5.74502">
        <ele>957.79998779297</ele>
        <time>2021-05-29T05:52:39.000Z</time>
      </trkpt>
      <trkpt lat="45.23227" lon="5.74502">
        <ele>956.40002441406</ele>
        <time>2021-05-29T05:52:41.000Z</time>
      </trkpt>
      <trkpt lat="45.23225" lon="5.74502">
        <ele>955.79998779297</ele>
        <time>2021-05-29T05:52:42.000Z</time>
      </trkpt>
      <trkpt lat="45.23222" lon="5.74501">
        <ele>955.20001220703</ele>
        <time>2021-05-29T05:52:44.000Z</time>
      </trkpt>
      <trkpt lat="45.23218" lon="5.74499">
        <ele>954.20001220703</ele>
        <time>2021-05-29T05:52:47.000Z</time>
      </trkpt>
      <trkpt lat="45.23216" lon="5.74499">
        <ele>953.79998779297</ele>
        <time>2021-05-29T05:52:48.000Z</time>
      </trkpt>
      <trkpt lat="45.23214" lon="5.74498">
        <ele>953.40002441406</ele>
        <time>2021-05-29T05:52:49.000Z</time>
      </trkpt>
      <trkpt lat="45.23212" lon="5.74497">
        <ele>953</ele>
        <time>2021-05-29T05:52:51.000Z</time>
      </trkpt>
      <trkpt lat="45.23212" lon="5.74497">
        <ele>952.79998779297</ele>
        <time>2021-05-29T05:52:52.000Z</time>
      </trkpt>
      <trkpt lat="45.23211" lon="5.74497">
        <ele>952.79998779297</ele>
        <time>2021-05-29T05:52:53.000Z</time>
      </trkpt>
      <trkpt lat="45.2321" lon="5.74497">
        <ele>952.59997558594</ele>
        <time>2021-05-29T05:52:57.000Z</time>
      </trkpt>
      <trkpt lat="45.23209" lon="5.74499">
        <ele>952.59997558594</ele>
        <time>2021-05-29T05:53:01.000Z</time>
      </trkpt>
      <trkpt lat="45.23208" lon="5.74498">
        <ele>952.40002441406</ele>
        <time>2021-05-29T05:53:10.000Z</time>
      </trkpt>
      <trkpt lat="45.23208" lon="5.74498">
        <ele>952</ele>
        <time>2021-05-29T05:53:13.000Z</time>
      </trkpt>
      <trkpt lat="45.23208" lon="5.74498">
        <ele>951.79998779297</ele>
        <time>2021-05-29T05:53:15.000Z</time>
      </trkpt>
      <trkpt lat="45.23208" lon="5.74498">
        <ele>951.59997558594</ele>
        <time>2021-05-29T05:53:18.000Z</time>
      </trkpt>
      <trkpt lat="45.23208" lon="5.74498">
        <ele>951.59997558594</ele>
        <time>2021-05-29T05:53:21.000Z</time>
      </trkpt>
      <trkpt lat="45.23208" lon="5.74496">
        <ele>951.40002441406</ele>
        <time>2021-05-29T05:53:25.000Z</time>
      </trkpt>
      <trkpt lat="45.23208" lon="5.74493">
        <ele>950.79998779297</ele>
        <time>2021-05-29T05:53:29.000Z</time>
      </trkpt>
      <trkpt lat="45.23204" lon="5.7449">
        <ele>949.79998779297</ele>
        <time>2021-05-29T05:53:32.000Z</time>
      </trkpt>
      <trkpt lat="45.23202" lon="5.74487">
        <ele>949.20001220703</ele>
        <time>2021-05-29T05:53:34.000Z</time>
      </trkpt>
      <trkpt lat="45.23201" lon="5.74486">
        <ele>948.79998779297</ele>
        <time>2021-05-29T05:53:35.000Z</time>
      </trkpt>
      <trkpt lat="45.232" lon="5.74485">
        <ele>948.79998779297</ele>
        <time>2021-05-29T05:53:36.000Z</time>
      </trkpt>
      <trkpt lat="45.23197" lon="5.74484">
        <ele>948</ele>
        <time>2021-05-29T05:53:38.000Z</time>
      </trkpt>
      <trkpt lat="45.23195" lon="5.74483">
        <ele>947.79998779297</ele>
        <time>2021-05-29T05:53:39.000Z</time>
      </trkpt>
      <trkpt lat="45.23194" lon="5.74483">
        <ele>947.40002441406</ele>
        <time>2021-05-29T05:53:40.000Z</time>
      </trkpt>
      <trkpt lat="45.23185" lon="5.74484">
        <ele>946.20001220703</ele>
        <time>2021-05-29T05:53:44.000Z</time>
      </trkpt>
      <trkpt lat="45.23183" lon="5.74483">
        <ele>945.79998779297</ele>
        <time>2021-05-29T05:53:45.000Z</time>
      </trkpt>
      <trkpt lat="45.2318" lon="5.74482">
        <ele>945</ele>
        <time>2021-05-29T05:53:47.000Z</time>
      </trkpt>
      <trkpt lat="45.23177" lon="5.74481">
        <ele>944.79998779297</ele>
        <time>2021-05-29T05:53:49.000Z</time>
      </trkpt>
      <trkpt lat="45.23176" lon="5.7448">
        <ele>944.40002441406</ele>
        <time>2021-05-29T05:53:50.000Z</time>
      </trkpt>
      <trkpt lat="45.23175" lon="5.7448">
        <ele>944</ele>
        <time>2021-05-29T05:53:51.000Z</time>
      </trkpt>
      <trkpt lat="45.23173" lon="5.7448">
        <ele>943.59997558594</ele>
        <time>2021-05-29T05:53:52.000Z</time>
      </trkpt>
      <trkpt lat="45.23171" lon="5.74479">
        <ele>943.20001220703</ele>
        <time>2021-05-29T05:53:53.000Z</time>
      </trkpt>
      <trkpt lat="45.23169" lon="5.74478">
        <ele>943</ele>
        <time>2021-05-29T05:53:54.000Z</time>
      </trkpt>
      <trkpt lat="45.23168" lon="5.74477">
        <ele>942.59997558594</ele>
        <time>2021-05-29T05:53:55.000Z</time>
      </trkpt>
      <trkpt lat="45.23166" lon="5.74476">
        <ele>942.40002441406</ele>
        <time>2021-05-29T05:53:56.000Z</time>
      </trkpt>
      <trkpt lat="45.23164" lon="5.74476">
        <ele>941.79998779297</ele>
        <time>2021-05-29T05:53:57.000Z</time>
      </trkpt>
      <trkpt lat="45.23159" lon="5.74476">
        <ele>941.20001220703</ele>
        <time>2021-05-29T05:53:59.000Z</time>
      </trkpt>
      <trkpt lat="45.23157" lon="5.74476">
        <ele>940.59997558594</ele>
        <time>2021-05-29T05:54:00.000Z</time>
      </trkpt>
      <trkpt lat="45.23155" lon="5.74476">
        <ele>940</ele>
        <time>2021-05-29T05:54:01.000Z</time>
      </trkpt>
      <trkpt lat="45.23153" lon="5.74476">
        <ele>939.40002441406</ele>
        <time>2021-05-29T05:54:03.000Z</time>
      </trkpt>
      <trkpt lat="45.23151" lon="5.74476">
        <ele>939.20001220703</ele>
        <time>2021-05-29T05:54:04.000Z</time>
      </trkpt>
      <trkpt lat="45.23148" lon="5.74476">
        <ele>938.79998779297</ele>
        <time>2021-05-29T05:54:06.000Z</time>
      </trkpt>
      <trkpt lat="45.23147" lon="5.74475">
        <ele>937.79998779297</ele>
        <time>2021-05-29T05:54:07.000Z</time>
      </trkpt>
      <trkpt lat="45.23144" lon="5.74473">
        <ele>936.59997558594</ele>
        <time>2021-05-29T05:54:09.000Z</time>
      </trkpt>
      <trkpt lat="45.23141" lon="5.74473">
        <ele>936</ele>
        <time>2021-05-29T05:54:11.000Z</time>
      </trkpt>
      <trkpt lat="45.23139" lon="5.74472">
        <ele>935</ele>
        <time>2021-05-29T05:54:13.000Z</time>
      </trkpt>
      <trkpt lat="45.23134" lon="5.74472">
        <ele>934.59997558594</ele>
        <time>2021-05-29T05:54:15.000Z</time>
      </trkpt>
      <trkpt lat="45.23134" lon="5.74472">
        <ele>934</ele>
        <time>2021-05-29T05:54:16.000Z</time>
      </trkpt>
      <trkpt lat="45.23133" lon="5.74471">
        <ele>933.40002441406</ele>
        <time>2021-05-29T05:54:17.000Z</time>
      </trkpt>
      <trkpt lat="45.23132" lon="5.74471">
        <ele>932.59997558594</ele>
        <time>2021-05-29T05:54:18.000Z</time>
      </trkpt>
      <trkpt lat="45.2313" lon="5.74471">
        <ele>932.20001220703</ele>
        <time>2021-05-29T05:54:19.000Z</time>
      </trkpt>
      <trkpt lat="45.23128" lon="5.74472">
        <ele>931.59997558594</ele>
        <time>2021-05-29T05:54:20.000Z</time>
      </trkpt>
      <trkpt lat="45.23122" lon="5.74471">
        <ele>930.59997558594</ele>
        <time>2021-05-29T05:54:23.000Z</time>
      </trkpt>
      <trkpt lat="45.2312" lon="5.7447">
        <ele>930</ele>
        <time>2021-05-29T05:54:24.000Z</time>
      </trkpt>
      <trkpt lat="45.23117" lon="5.7447">
        <ele>929.59997558594</ele>
        <time>2021-05-29T05:54:26.000Z</time>
      </trkpt>
      <trkpt lat="45.23116" lon="5.74469">
        <ele>928.79998779297</ele>
        <time>2021-05-29T05:54:27.000Z</time>
      </trkpt>
      <trkpt lat="45.23114" lon="5.74467">
        <ele>927.59997558594</ele>
        <time>2021-05-29T05:54:29.000Z</time>
      </trkpt>
      <trkpt lat="45.2311" lon="5.74467">
        <ele>926.59997558594</ele>
        <time>2021-05-29T05:54:31.000Z</time>
      </trkpt>
      <trkpt lat="45.23104" lon="5.74466">
        <ele>925.40002441406</ele>
        <time>2021-05-29T05:54:34.000Z</time>
      </trkpt>
      <trkpt lat="45.23101" lon="5.74465">
        <ele>924.40002441406</ele>
        <time>2021-05-29T05:54:36.000Z</time>
      </trkpt>
      <trkpt lat="45.23098" lon="5.74464">
        <ele>923</ele>
        <time>2021-05-29T05:54:39.000Z</time>
      </trkpt>
      <trkpt lat="45.23095" lon="5.74465">
        <ele>922.59997558594</ele>
        <time>2021-05-29T05:54:41.000Z</time>
      </trkpt>
      <trkpt lat="45.23093" lon="5.74465">
        <ele>922.20001220703</ele>
        <time>2021-05-29T05:54:42.000Z</time>
      </trkpt>
      <trkpt lat="45.23092" lon="5.74464">
        <ele>921.79998779297</ele>
        <time>2021-05-29T05:54:43.000Z</time>
      </trkpt>
      <trkpt lat="45.2309" lon="5.74464">
        <ele>921.59997558594</ele>
        <time>2021-05-29T05:54:44.000Z</time>
      </trkpt>
      <trkpt lat="45.23085" lon="5.74463">
        <ele>920.59997558594</ele>
        <time>2021-05-29T05:54:46.000Z</time>
      </trkpt>
      <trkpt lat="45.23082" lon="5.74463">
        <ele>920.20001220703</ele>
        <time>2021-05-29T05:54:47.000Z</time>
      </trkpt>
      <trkpt lat="45.23077" lon="5.7446">
        <ele>919.59997558594</ele>
        <time>2021-05-29T05:54:49.000Z</time>
      </trkpt>
      <trkpt lat="45.23075" lon="5.74459">
        <ele>919.20001220703</ele>
        <time>2021-05-29T05:54:50.000Z</time>
      </trkpt>
      <trkpt lat="45.23071" lon="5.74457">
        <ele>918.40002441406</ele>
        <time>2021-05-29T05:54:52.000Z</time>
      </trkpt>
      <trkpt lat="45.23068" lon="5.74458">
        <ele>917.79998779297</ele>
        <time>2021-05-29T05:54:53.000Z</time>
      </trkpt>
      <trkpt lat="45.23067" lon="5.74457">
        <ele>916.59997558594</ele>
        <time>2021-05-29T05:54:54.000Z</time>
      </trkpt>
      <trkpt lat="45.23064" lon="5.74456">
        <ele>915</ele>
        <time>2021-05-29T05:54:56.000Z</time>
      </trkpt>
      <trkpt lat="45.23062" lon="5.74456">
        <ele>914.59997558594</ele>
        <time>2021-05-29T05:54:57.000Z</time>
      </trkpt>
      <trkpt lat="45.23061" lon="5.74456">
        <ele>914</ele>
        <time>2021-05-29T05:54:58.000Z</time>
      </trkpt>
      <trkpt lat="45.23052" lon="5.74453">
        <ele>912.79998779297</ele>
        <time>2021-05-29T05:55:02.000Z</time>
      </trkpt>
      <trkpt lat="45.2305" lon="5.74451">
        <ele>912.20001220703</ele>
        <time>2021-05-29T05:55:03.000Z</time>
      </trkpt>
      <trkpt lat="45.23048" lon="5.74451">
        <ele>911.59997558594</ele>
        <time>2021-05-29T05:55:04.000Z</time>
      </trkpt>
      <trkpt lat="45.23039" lon="5.74447">
        <ele>910.40002441406</ele>
        <time>2021-05-29T05:55:08.000Z</time>
      </trkpt>
      <trkpt lat="45.23037" lon="5.74446">
        <ele>909.79998779297</ele>
        <time>2021-05-29T05:55:09.000Z</time>
      </trkpt>
      <trkpt lat="45.23033" lon="5.74444">
        <ele>909.20001220703</ele>
        <time>2021-05-29T05:55:11.000Z</time>
      </trkpt>
      <trkpt lat="45.2303" lon="5.74442">
        <ele>908.40002441406</ele>
        <time>2021-05-29T05:55:13.000Z</time>
      </trkpt>
      <trkpt lat="45.23028" lon="5.7444">
        <ele>907.79998779297</ele>
        <time>2021-05-29T05:55:14.000Z</time>
      </trkpt>
      <trkpt lat="45.2302" lon="5.74438">
        <ele>906.59997558594</ele>
        <time>2021-05-29T05:55:17.000Z</time>
      </trkpt>
      <trkpt lat="45.23011" lon="5.74439">
        <ele>905</ele>
        <time>2021-05-29T05:55:21.000Z</time>
      </trkpt>
      <trkpt lat="45.23009" lon="5.74438">
        <ele>904.59997558594</ele>
        <time>2021-05-29T05:55:22.000Z</time>
      </trkpt>
      <trkpt lat="45.23007" lon="5.74437">
        <ele>904</ele>
        <time>2021-05-29T05:55:23.000Z</time>
      </trkpt>
      <trkpt lat="45.23" lon="5.74435">
        <ele>902.59997558594</ele>
        <time>2021-05-29T05:55:26.000Z</time>
      </trkpt>
      <trkpt lat="45.22999" lon="5.74434">
        <ele>902.20001220703</ele>
        <time>2021-05-29T05:55:27.000Z</time>
      </trkpt>
      <trkpt lat="45.22995" lon="5.74432">
        <ele>901.40002441406</ele>
        <time>2021-05-29T05:55:29.000Z</time>
      </trkpt>
      <trkpt lat="45.22993" lon="5.74432">
        <ele>900.40002441406</ele>
        <time>2021-05-29T05:55:30.000Z</time>
      </trkpt>
      <trkpt lat="45.2299" lon="5.74431">
        <ele>899.20001220703</ele>
        <time>2021-05-29T05:55:32.000Z</time>
      </trkpt>
      <trkpt lat="45.22986" lon="5.74431">
        <ele>898.20001220703</ele>
        <time>2021-05-29T05:55:34.000Z</time>
      </trkpt>
      <trkpt lat="45.22981" lon="5.74431">
        <ele>897</ele>
        <time>2021-05-29T05:55:37.000Z</time>
      </trkpt>
      <trkpt lat="45.22979" lon="5.7443">
        <ele>896.79998779297</ele>
        <time>2021-05-29T05:55:38.000Z</time>
      </trkpt>
      <trkpt lat="45.22976" lon="5.74429">
        <ele>896.20001220703</ele>
        <time>2021-05-29T05:55:40.000Z</time>
      </trkpt>
      <trkpt lat="45.22975" lon="5.74428">
        <ele>895.79998779297</ele>
        <time>2021-05-29T05:55:41.000Z</time>
      </trkpt>
      <trkpt lat="45.22973" lon="5.74426">
        <ele>895.40002441406</ele>
        <time>2021-05-29T05:55:43.000Z</time>
      </trkpt>
      <trkpt lat="45.22971" lon="5.74426">
        <ele>894.40002441406</ele>
        <time>2021-05-29T05:55:44.000Z</time>
      </trkpt>
      <trkpt lat="45.2297" lon="5.74426">
        <ele>893.59997558594</ele>
        <time>2021-05-29T05:55:45.000Z</time>
      </trkpt>
      <trkpt lat="45.22968" lon="5.74427">
        <ele>893</ele>
        <time>2021-05-29T05:55:46.000Z</time>
      </trkpt>
      <trkpt lat="45.22966" lon="5.74428">
        <ele>892.20001220703</ele>
        <time>2021-05-29T05:55:47.000Z</time>
      </trkpt>
      <trkpt lat="45.22965" lon="5.74428">
        <ele>892</ele>
        <time>2021-05-29T05:55:48.000Z</time>
      </trkpt>
      <trkpt lat="45.22962" lon="5.74429">
        <ele>890.40002441406</ele>
        <time>2021-05-29T05:55:51.000Z</time>
      </trkpt>
      <trkpt lat="45.22959" lon="5.7443">
        <ele>889.20001220703</ele>
        <time>2021-05-29T05:55:53.000Z</time>
      </trkpt>
      <trkpt lat="45.22955" lon="5.74433">
        <ele>888</ele>
        <time>2021-05-29T05:55:55.000Z</time>
      </trkpt>
      <trkpt lat="45.2295" lon="5.74434">
        <ele>887.20001220703</ele>
        <time>2021-05-29T05:55:57.000Z</time>
      </trkpt>
      <trkpt lat="45.22948" lon="5.74434">
        <ele>886.79998779297</ele>
        <time>2021-05-29T05:55:58.000Z</time>
      </trkpt>
      <trkpt lat="45.22944" lon="5.74433">
        <ele>885.59997558594</ele>
        <time>2021-05-29T05:56:00.000Z</time>
      </trkpt>
      <trkpt lat="45.22943" lon="5.74433">
        <ele>885</ele>
        <time>2021-05-29T05:56:01.000Z</time>
      </trkpt>
      <trkpt lat="45.22941" lon="5.74433">
        <ele>884.40002441406</ele>
        <time>2021-05-29T05:56:03.000Z</time>
      </trkpt>
      <trkpt lat="45.22939" lon="5.74431">
        <ele>883.20001220703</ele>
        <time>2021-05-29T05:56:06.000Z</time>
      </trkpt>
      <trkpt lat="45.22938" lon="5.74431">
        <ele>882</ele>
        <time>2021-05-29T05:56:08.000Z</time>
      </trkpt>
      <trkpt lat="45.22937" lon="5.74432">
        <ele>880.79998779297</ele>
        <time>2021-05-29T05:56:10.000Z</time>
      </trkpt>
      <trkpt lat="45.22936" lon="5.74432">
        <ele>880.20001220703</ele>
        <time>2021-05-29T05:56:11.000Z</time>
      </trkpt>
      <trkpt lat="45.22935" lon="5.74432">
        <ele>879.59997558594</ele>
        <time>2021-05-29T05:56:12.000Z</time>
      </trkpt>
      <trkpt lat="45.22931" lon="5.74432">
        <ele>878.20001220703</ele>
        <time>2021-05-29T05:56:15.000Z</time>
      </trkpt>
      <trkpt lat="45.22928" lon="5.74432">
        <ele>876.79998779297</ele>
        <time>2021-05-29T05:56:17.000Z</time>
      </trkpt>
      <trkpt lat="45.22923" lon="5.74434">
        <ele>875</ele>
        <time>2021-05-29T05:56:20.000Z</time>
      </trkpt>
      <trkpt lat="45.2292" lon="5.74435">
        <ele>874</ele>
        <time>2021-05-29T05:56:23.000Z</time>
      </trkpt>
      <trkpt lat="45.2292" lon="5.74435">
        <ele>873.79998779297</ele>
        <time>2021-05-29T05:56:24.000Z</time>
      </trkpt>
      <trkpt lat="45.22918" lon="5.74436">
        <ele>872.79998779297</ele>
        <time>2021-05-29T05:56:26.000Z</time>
      </trkpt>
      <trkpt lat="45.22917" lon="5.74436">
        <ele>871.40002441406</ele>
        <time>2021-05-29T05:56:28.000Z</time>
      </trkpt>
      <trkpt lat="45.22915" lon="5.74436">
        <ele>870.40002441406</ele>
        <time>2021-05-29T05:56:30.000Z</time>
      </trkpt>
      <trkpt lat="45.22915" lon="5.74436">
        <ele>870</ele>
        <time>2021-05-29T05:56:31.000Z</time>
      </trkpt>
      <trkpt lat="45.22912" lon="5.74435">
        <ele>869</ele>
        <time>2021-05-29T05:56:34.000Z</time>
      </trkpt>
      <trkpt lat="45.22911" lon="5.74436">
        <ele>868.79998779297</ele>
        <time>2021-05-29T05:56:35.000Z</time>
      </trkpt>
      <trkpt lat="45.22911" lon="5.74436">
        <ele>868.40002441406</ele>
        <time>2021-05-29T05:56:36.000Z</time>
      </trkpt>
      <trkpt lat="45.22909" lon="5.74436">
        <ele>867.79998779297</ele>
        <time>2021-05-29T05:56:37.000Z</time>
      </trkpt>
      <trkpt lat="45.22906" lon="5.74437">
        <ele>867.20001220703</ele>
        <time>2021-05-29T05:56:39.000Z</time>
      </trkpt>
      <trkpt lat="45.22904" lon="5.74437">
        <ele>866.40002441406</ele>
        <time>2021-05-29T05:56:40.000Z</time>
      </trkpt>
      <trkpt lat="45.229" lon="5.74438">
        <ele>865.59997558594</ele>
        <time>2021-05-29T05:56:42.000Z</time>
      </trkpt>
      <trkpt lat="45.229" lon="5.74438">
        <ele>865.40002441406</ele>
        <time>2021-05-29T05:56:43.000Z</time>
      </trkpt>
      <trkpt lat="45.229" lon="5.74437">
        <ele>864</ele>
        <time>2021-05-29T05:56:46.000Z</time>
      </trkpt>
      <trkpt lat="45.229" lon="5.74439">
        <ele>862.59997558594</ele>
        <time>2021-05-29T05:56:48.000Z</time>
      </trkpt>
      <trkpt lat="45.22899" lon="5.74441">
        <ele>861.79998779297</ele>
        <time>2021-05-29T05:56:50.000Z</time>
      </trkpt>
      <trkpt lat="45.22899" lon="5.74442">
        <ele>861.40002441406</ele>
        <time>2021-05-29T05:56:51.000Z</time>
      </trkpt>
      <trkpt lat="45.22898" lon="5.74442">
        <ele>861.20001220703</ele>
        <time>2021-05-29T05:56:52.000Z</time>
      </trkpt>
      <trkpt lat="45.22894" lon="5.74444">
        <ele>860.20001220703</ele>
        <time>2021-05-29T05:56:55.000Z</time>
      </trkpt>
      <trkpt lat="45.22893" lon="5.74445">
        <ele>859.59997558594</ele>
        <time>2021-05-29T05:56:56.000Z</time>
      </trkpt>
      <trkpt lat="45.22892" lon="5.74445">
        <ele>858.40002441406</ele>
        <time>2021-05-29T05:56:57.000Z</time>
      </trkpt>
      <trkpt lat="45.22889" lon="5.74446">
        <ele>857.40002441406</ele>
        <time>2021-05-29T05:56:59.000Z</time>
      </trkpt>
      <trkpt lat="45.22886" lon="5.74447">
        <ele>856.20001220703</ele>
        <time>2021-05-29T05:57:02.000Z</time>
      </trkpt>
      <trkpt lat="45.22884" lon="5.74447">
        <ele>855.20001220703</ele>
        <time>2021-05-29T05:57:04.000Z</time>
      </trkpt>
      <trkpt lat="45.22883" lon="5.74447">
        <ele>855</ele>
        <time>2021-05-29T05:57:05.000Z</time>
      </trkpt>
      <trkpt lat="45.22877" lon="5.74445">
        <ele>853.20001220703</ele>
        <time>2021-05-29T05:57:08.000Z</time>
      </trkpt>
      <trkpt lat="45.22873" lon="5.74445">
        <ele>852.40002441406</ele>
        <time>2021-05-29T05:57:10.000Z</time>
      </trkpt>
      <trkpt lat="45.22871" lon="5.74446">
        <ele>852</ele>
        <time>2021-05-29T05:57:11.000Z</time>
      </trkpt>
      <trkpt lat="45.2287" lon="5.74445">
        <ele>851.79998779297</ele>
        <time>2021-05-29T05:57:12.000Z</time>
      </trkpt>
      <trkpt lat="45.2287" lon="5.74443">
        <ele>851.59997558594</ele>
        <time>2021-05-29T05:57:14.000Z</time>
      </trkpt>
      <trkpt lat="45.22871" lon="5.74441">
        <ele>851.40002441406</ele>
        <time>2021-05-29T05:57:18.000Z</time>
      </trkpt>
      <trkpt lat="45.22871" lon="5.74441">
        <ele>851</ele>
        <time>2021-05-29T05:57:25.000Z</time>
      </trkpt>
      <trkpt lat="45.22871" lon="5.74441">
        <ele>851</ele>
        <time>2021-05-29T05:57:27.000Z</time>
      </trkpt>
      <trkpt lat="45.22871" lon="5.74441">
        <ele>850.79998779297</ele>
        <time>2021-05-29T05:57:29.000Z</time>
      </trkpt>
      <trkpt lat="45.22871" lon="5.74441">
        <ele>850.79998779297</ele>
        <time>2021-05-29T05:57:36.000Z</time>
      </trkpt>
      <trkpt lat="45.22871" lon="5.74441">
        <ele>850.59997558594</ele>
        <time>2021-05-29T05:57:42.000Z</time>
      </trkpt>
      <trkpt lat="45.22871" lon="5.74442">
        <ele>850.59997558594</ele>
        <time>2021-05-29T05:57:45.000Z</time>
      </trkpt>
      <trkpt lat="45.2287" lon="5.74442">
        <ele>851</ele>
        <time>2021-05-29T05:57:53.000Z</time>
      </trkpt>
      <trkpt lat="45.22869" lon="5.74437">
        <ele>851.20001220703</ele>
        <time>2021-05-29T05:57:56.000Z</time>
      </trkpt>
      <trkpt lat="45.22866" lon="5.74434">
        <ele>851.59997558594</ele>
        <time>2021-05-29T05:57:58.000Z</time>
      </trkpt>
      <trkpt lat="45.22864" lon="5.7443">
        <ele>852</ele>
        <time>2021-05-29T05:58:00.000Z</time>
      </trkpt>
      <trkpt lat="45.22859" lon="5.74426">
        <ele>852.20001220703</ele>
        <time>2021-05-29T05:58:01.000Z</time>
      </trkpt>
      <trkpt lat="45.22852" lon="5.74423">
        <ele>852.79998779297</ele>
        <time>2021-05-29T05:58:05.000Z</time>
      </trkpt>
      <trkpt lat="45.22847" lon="5.74423">
        <ele>853.20001220703</ele>
        <time>2021-05-29T05:58:07.000Z</time>
      </trkpt>
      <trkpt lat="45.22837" lon="5.74426">
        <ele>854</ele>
        <time>2021-05-29T05:58:11.000Z</time>
      </trkpt>
      <trkpt lat="45.22835" lon="5.74426">
        <ele>854.20001220703</ele>
        <time>2021-05-29T05:58:12.000Z</time>
      </trkpt>
      <trkpt lat="45.22833" lon="5.74425">
        <ele>854.40002441406</ele>
        <time>2021-05-29T05:58:13.000Z</time>
      </trkpt>
      <trkpt lat="45.22822" lon="5.74419">
        <ele>855.59997558594</ele>
        <time>2021-05-29T05:58:19.000Z</time>
      </trkpt>
      <trkpt lat="45.22821" lon="5.74418">
        <ele>855.79998779297</ele>
        <time>2021-05-29T05:58:20.000Z</time>
      </trkpt>
      <trkpt lat="45.22818" lon="5.74416">
        <ele>856.20001220703</ele>
        <time>2021-05-29T05:58:22.000Z</time>
      </trkpt>
      <trkpt lat="45.22814" lon="5.74414">
        <ele>856.79998779297</ele>
        <time>2021-05-29T05:58:24.000Z</time>
      </trkpt>
      <trkpt lat="45.22806" lon="5.7441">
        <ele>857.79998779297</ele>
        <time>2021-05-29T05:58:28.000Z</time>
      </trkpt>
      <trkpt lat="45.22795" lon="5.744">
        <ele>858.79998779297</ele>
        <time>2021-05-29T05:58:34.000Z</time>
      </trkpt>
      <trkpt lat="45.22793" lon="5.744">
        <ele>858.79998779297</ele>
        <time>2021-05-29T05:58:35.000Z</time>
      </trkpt>
      <trkpt lat="45.22785" lon="5.74401">
        <ele>859.79998779297</ele>
        <time>2021-05-29T05:58:39.000Z</time>
      </trkpt>
      <trkpt lat="45.22781" lon="5.74401">
        <ele>860.20001220703</ele>
        <time>2021-05-29T05:58:41.000Z</time>
      </trkpt>
      <trkpt lat="45.22778" lon="5.74401">
        <ele>860.59997558594</ele>
        <time>2021-05-29T05:58:43.000Z</time>
      </trkpt>
      <trkpt lat="45.22774" lon="5.74401">
        <ele>861</ele>
        <time>2021-05-29T05:58:45.000Z</time>
      </trkpt>
      <trkpt lat="45.22771" lon="5.744">
        <ele>861.40002441406</ele>
        <time>2021-05-29T05:58:47.000Z</time>
      </trkpt>
      <trkpt lat="45.22767" lon="5.74397">
        <ele>862.20001220703</ele>
        <time>2021-05-29T05:58:50.000Z</time>
      </trkpt>
      <trkpt lat="45.22764" lon="5.74395">
        <ele>862.40002441406</ele>
        <time>2021-05-29T05:58:52.000Z</time>
      </trkpt>
      <trkpt lat="45.22757" lon="5.7439">
        <ele>863</ele>
        <time>2021-05-29T05:58:56.000Z</time>
      </trkpt>
      <trkpt lat="45.22756" lon="5.74389">
        <ele>863.20001220703</ele>
        <time>2021-05-29T05:58:57.000Z</time>
      </trkpt>
      <trkpt lat="45.22752" lon="5.74382">
        <ele>863.79998779297</ele>
        <time>2021-05-29T05:59:00.000Z</time>
      </trkpt>
      <trkpt lat="45.2275" lon="5.74382">
        <ele>863.79998779297</ele>
        <time>2021-05-29T05:59:01.000Z</time>
      </trkpt>
      <trkpt lat="45.22749" lon="5.74381">
        <ele>864</ele>
        <time>2021-05-29T05:59:02.000Z</time>
      </trkpt>
      <trkpt lat="45.22747" lon="5.74378">
        <ele>864.20001220703</ele>
        <time>2021-05-29T05:59:03.000Z</time>
      </trkpt>
      <trkpt lat="45.22745" lon="5.74376">
        <ele>864.40002441406</ele>
        <time>2021-05-29T05:59:04.000Z</time>
      </trkpt>
      <trkpt lat="45.22743" lon="5.74374">
        <ele>864.59997558594</ele>
        <time>2021-05-29T05:59:05.000Z</time>
      </trkpt>
      <trkpt lat="45.22738" lon="5.74367">
        <ele>865.20001220703</ele>
        <time>2021-05-29T05:59:09.000Z</time>
      </trkpt>
      <trkpt lat="45.22734" lon="5.74361">
        <ele>866</ele>
        <time>2021-05-29T05:59:12.000Z</time>
      </trkpt>
      <trkpt lat="45.2273" lon="5.74361">
        <ele>866.40002441406</ele>
        <time>2021-05-29T05:59:14.000Z</time>
      </trkpt>
      <trkpt lat="45.22728" lon="5.74361">
        <ele>866.40002441406</ele>
        <time>2021-05-29T05:59:15.000Z</time>
      </trkpt>
      <trkpt lat="45.22724" lon="5.74359">
        <ele>867</ele>
        <time>2021-05-29T05:59:18.000Z</time>
      </trkpt>
      <trkpt lat="45.22719" lon="5.74356">
        <ele>867.40002441406</ele>
        <time>2021-05-29T05:59:19.000Z</time>
      </trkpt>
      <trkpt lat="45.22719" lon="5.74356">
        <ele>867.40002441406</ele>
        <time>2021-05-29T05:59:21.000Z</time>
      </trkpt>
      <trkpt lat="45.22711" lon="5.74353">
        <ele>868.40002441406</ele>
        <time>2021-05-29T05:59:26.000Z</time>
      </trkpt>
      <trkpt lat="45.22708" lon="5.74349">
        <ele>868.79998779297</ele>
        <time>2021-05-29T05:59:28.000Z</time>
      </trkpt>
      <trkpt lat="45.22706" lon="5.74344">
        <ele>869</ele>
        <time>2021-05-29T05:59:30.000Z</time>
      </trkpt>
      <trkpt lat="45.22701" lon="5.74339">
        <ele>869.79998779297</ele>
        <time>2021-05-29T05:59:34.000Z</time>
      </trkpt>
      <trkpt lat="45.22695" lon="5.74331">
        <ele>871</ele>
        <time>2021-05-29T05:59:39.000Z</time>
      </trkpt>
      <trkpt lat="45.22693" lon="5.74327">
        <ele>871.40002441406</ele>
        <time>2021-05-29T05:59:41.000Z</time>
      </trkpt>
      <trkpt lat="45.22686" lon="5.74319">
        <ele>872</ele>
        <time>2021-05-29T05:59:46.000Z</time>
      </trkpt>
      <trkpt lat="45.22683" lon="5.74316">
        <ele>872.20001220703</ele>
        <time>2021-05-29T05:59:48.000Z</time>
      </trkpt>
      <trkpt lat="45.22676" lon="5.7431">
        <ele>873.20001220703</ele>
        <time>2021-05-29T05:59:52.000Z</time>
      </trkpt>
      <trkpt lat="45.22673" lon="5.74305">
        <ele>873.59997558594</ele>
        <time>2021-05-29T05:59:55.000Z</time>
      </trkpt>
      <trkpt lat="45.22672" lon="5.74305">
        <ele>873.79998779297</ele>
        <time>2021-05-29T05:59:56.000Z</time>
      </trkpt>
      <trkpt lat="45.22669" lon="5.74304">
        <ele>874.20001220703</ele>
        <time>2021-05-29T05:59:58.000Z</time>
      </trkpt>
      <trkpt lat="45.22662" lon="5.743">
        <ele>875</ele>
        <time>2021-05-29T06:00:03.000Z</time>
      </trkpt>
      <trkpt lat="45.2266" lon="5.743">
        <ele>875.20001220703</ele>
        <time>2021-05-29T06:00:04.000Z</time>
      </trkpt>
      <trkpt lat="45.22652" lon="5.74301">
        <ele>875.79998779297</ele>
        <time>2021-05-29T06:00:08.000Z</time>
      </trkpt>
      <trkpt lat="45.22649" lon="5.74301">
        <ele>876</ele>
        <time>2021-05-29T06:00:09.000Z</time>
      </trkpt>
      <trkpt lat="45.22645" lon="5.74301">
        <ele>876.40002441406</ele>
        <time>2021-05-29T06:00:11.000Z</time>
      </trkpt>
      <trkpt lat="45.22641" lon="5.74299">
        <ele>876.79998779297</ele>
        <time>2021-05-29T06:00:13.000Z</time>
      </trkpt>
      <trkpt lat="45.2264" lon="5.74298">
        <ele>877.20001220703</ele>
        <time>2021-05-29T06:00:14.000Z</time>
      </trkpt>
      <trkpt lat="45.22638" lon="5.74298">
        <ele>877.40002441406</ele>
        <time>2021-05-29T06:00:15.000Z</time>
      </trkpt>
      <trkpt lat="45.22637" lon="5.74298">
        <ele>877.59997558594</ele>
        <time>2021-05-29T06:00:16.000Z</time>
      </trkpt>
      <trkpt lat="45.22636" lon="5.74298">
        <ele>877.59997558594</ele>
        <time>2021-05-29T06:00:17.000Z</time>
      </trkpt>
      <trkpt lat="45.22635" lon="5.74297">
        <ele>877.79998779297</ele>
        <time>2021-05-29T06:00:18.000Z</time>
      </trkpt>
      <trkpt lat="45.22634" lon="5.74297">
        <ele>878</ele>
        <time>2021-05-29T06:00:19.000Z</time>
      </trkpt>
      <trkpt lat="45.22626" lon="5.74296">
        <ele>878.59997558594</ele>
        <time>2021-05-29T06:00:23.000Z</time>
      </trkpt>
      <trkpt lat="45.22619" lon="5.74296">
        <ele>879.59997558594</ele>
        <time>2021-05-29T06:00:28.000Z</time>
      </trkpt>
      <trkpt lat="45.22617" lon="5.74295">
        <ele>879.79998779297</ele>
        <time>2021-05-29T06:00:29.000Z</time>
      </trkpt>
      <trkpt lat="45.22611" lon="5.74293">
        <ele>880.79998779297</ele>
        <time>2021-05-29T06:00:34.000Z</time>
      </trkpt>
      <trkpt lat="45.22607" lon="5.7429">
        <ele>881.20001220703</ele>
        <time>2021-05-29T06:00:37.000Z</time>
      </trkpt>
      <trkpt lat="45.22602" lon="5.74289">
        <ele>881.59997558594</ele>
        <time>2021-05-29T06:00:39.000Z</time>
      </trkpt>
      <trkpt lat="45.226" lon="5.74289">
        <ele>881.79998779297</ele>
        <time>2021-05-29T06:00:40.000Z</time>
      </trkpt>
      <trkpt lat="45.22593" lon="5.74289">
        <ele>882.20001220703</ele>
        <time>2021-05-29T06:00:43.000Z</time>
      </trkpt>
      <trkpt lat="45.22591" lon="5.74288">
        <ele>882.59997558594</ele>
        <time>2021-05-29T06:00:45.000Z</time>
      </trkpt>
      <trkpt lat="45.22589" lon="5.74287">
        <ele>882.79998779297</ele>
        <time>2021-05-29T06:00:46.000Z</time>
      </trkpt>
      <trkpt lat="45.22587" lon="5.74286">
        <ele>883.20001220703</ele>
        <time>2021-05-29T06:00:48.000Z</time>
      </trkpt>
      <trkpt lat="45.22583" lon="5.74284">
        <ele>884</ele>
        <time>2021-05-29T06:00:51.000Z</time>
      </trkpt>
      <trkpt lat="45.22579" lon="5.74283">
        <ele>884.59997558594</ele>
        <time>2021-05-29T06:00:54.000Z</time>
      </trkpt>
      <trkpt lat="45.22576" lon="5.74281">
        <ele>885</ele>
        <time>2021-05-29T06:00:56.000Z</time>
      </trkpt>
      <trkpt lat="45.22574" lon="5.7428">
        <ele>885.20001220703</ele>
        <time>2021-05-29T06:00:57.000Z</time>
      </trkpt>
      <trkpt lat="45.22563" lon="5.74274">
        <ele>886</ele>
        <time>2021-05-29T06:01:03.000Z</time>
      </trkpt>
      <trkpt lat="45.22561" lon="5.74273">
        <ele>886.40002441406</ele>
        <time>2021-05-29T06:01:04.000Z</time>
      </trkpt>
      <trkpt lat="45.22555" lon="5.74269">
        <ele>887.20001220703</ele>
        <time>2021-05-29T06:01:09.000Z</time>
      </trkpt>
      <trkpt lat="45.22552" lon="5.74267">
        <ele>887.40002441406</ele>
        <time>2021-05-29T06:01:11.000Z</time>
      </trkpt>
      <trkpt lat="45.2255" lon="5.74267">
        <ele>887.59997558594</ele>
        <time>2021-05-29T06:01:12.000Z</time>
      </trkpt>
      <trkpt lat="45.22548" lon="5.74266">
        <ele>887.79998779297</ele>
        <time>2021-05-29T06:01:13.000Z</time>
      </trkpt>
      <trkpt lat="45.22545" lon="5.74264">
        <ele>888.20001220703</ele>
        <time>2021-05-29T06:01:15.000Z</time>
      </trkpt>
      <trkpt lat="45.22542" lon="5.74261">
        <ele>888.59997558594</ele>
        <time>2021-05-29T06:01:17.000Z</time>
      </trkpt>
      <trkpt lat="45.22537" lon="5.74257">
        <ele>889.40002441406</ele>
        <time>2021-05-29T06:01:20.000Z</time>
      </trkpt>
      <trkpt lat="45.22533" lon="5.74255">
        <ele>889.59997558594</ele>
        <time>2021-05-29T06:01:22.000Z</time>
      </trkpt>
      <trkpt lat="45.22531" lon="5.74254">
        <ele>890</ele>
        <time>2021-05-29T06:01:23.000Z</time>
      </trkpt>
      <trkpt lat="45.22527" lon="5.74251">
        <ele>890.40002441406</ele>
        <time>2021-05-29T06:01:25.000Z</time>
      </trkpt>
      <trkpt lat="45.22519" lon="5.74246">
        <ele>891</ele>
        <time>2021-05-29T06:01:29.000Z</time>
      </trkpt>
      <trkpt lat="45.22516" lon="5.74245">
        <ele>891.20001220703</ele>
        <time>2021-05-29T06:01:30.000Z</time>
      </trkpt>
      <trkpt lat="45.22514" lon="5.74244">
        <ele>891.40002441406</ele>
        <time>2021-05-29T06:01:31.000Z</time>
      </trkpt>
      <trkpt lat="45.22506" lon="5.74238">
        <ele>892</ele>
        <time>2021-05-29T06:01:35.000Z</time>
      </trkpt>
      <trkpt lat="45.22504" lon="5.74238">
        <ele>892.20001220703</ele>
        <time>2021-05-29T06:01:36.000Z</time>
      </trkpt>
      <trkpt lat="45.22499" lon="5.74234">
        <ele>892.59997558594</ele>
        <time>2021-05-29T06:01:39.000Z</time>
      </trkpt>
      <trkpt lat="45.22495" lon="5.7423">
        <ele>893.59997558594</ele>
        <time>2021-05-29T06:01:42.000Z</time>
      </trkpt>
      <trkpt lat="45.22493" lon="5.74229">
        <ele>893.79998779297</ele>
        <time>2021-05-29T06:01:43.000Z</time>
      </trkpt>
      <trkpt lat="45.22488" lon="5.74226">
        <ele>894.40002441406</ele>
        <time>2021-05-29T06:01:47.000Z</time>
      </trkpt>
      <trkpt lat="45.22485" lon="5.74223">
        <ele>895</ele>
        <time>2021-05-29T06:01:49.000Z</time>
      </trkpt>
      <trkpt lat="45.22476" lon="5.74212">
        <ele>896.20001220703</ele>
        <time>2021-05-29T06:01:56.000Z</time>
      </trkpt>
      <trkpt lat="45.22468" lon="5.74201">
        <ele>897.40002441406</ele>
        <time>2021-05-29T06:02:02.000Z</time>
      </trkpt>
      <trkpt lat="45.22464" lon="5.74197">
        <ele>897.79998779297</ele>
        <time>2021-05-29T06:02:04.000Z</time>
      </trkpt>
      <trkpt lat="45.22458" lon="5.74192">
        <ele>898.20001220703</ele>
        <time>2021-05-29T06:02:08.000Z</time>
      </trkpt>
      <trkpt lat="45.22456" lon="5.74191">
        <ele>898.59997558594</ele>
        <time>2021-05-29T06:02:09.000Z</time>
      </trkpt>
      <trkpt lat="45.22449" lon="5.7418">
        <ele>899.40002441406</ele>
        <time>2021-05-29T06:02:14.000Z</time>
      </trkpt>
      <trkpt lat="45.22448" lon="5.74179">
        <ele>899.59997558594</ele>
        <time>2021-05-29T06:02:15.000Z</time>
      </trkpt>
      <trkpt lat="45.22439" lon="5.74164">
        <ele>900.79998779297</ele>
        <time>2021-05-29T06:02:21.000Z</time>
      </trkpt>
      <trkpt lat="45.22438" lon="5.74162">
        <ele>901</ele>
        <time>2021-05-29T06:02:22.000Z</time>
      </trkpt>
      <trkpt lat="45.22432" lon="5.7415">
        <ele>902</ele>
        <time>2021-05-29T06:02:28.000Z</time>
      </trkpt>
      <trkpt lat="45.2243" lon="5.74149">
        <ele>902.20001220703</ele>
        <time>2021-05-29T06:02:29.000Z</time>
      </trkpt>
      <trkpt lat="45.22425" lon="5.74142">
        <ele>903</ele>
        <time>2021-05-29T06:02:32.000Z</time>
      </trkpt>
      <trkpt lat="45.22421" lon="5.74137">
        <ele>903.40002441406</ele>
        <time>2021-05-29T06:02:35.000Z</time>
      </trkpt>
      <trkpt lat="45.22416" lon="5.74128">
        <ele>904</ele>
        <time>2021-05-29T06:02:39.000Z</time>
      </trkpt>
      <trkpt lat="45.22414" lon="5.74124">
        <ele>904.59997558594</ele>
        <time>2021-05-29T06:02:41.000Z</time>
      </trkpt>
      <trkpt lat="45.22413" lon="5.74121">
        <ele>904.79998779297</ele>
        <time>2021-05-29T06:02:42.000Z</time>
      </trkpt>
      <trkpt lat="45.22411" lon="5.74117">
        <ele>905.20001220703</ele>
        <time>2021-05-29T06:02:44.000Z</time>
      </trkpt>
      <trkpt lat="45.22408" lon="5.74115">
        <ele>905.59997558594</ele>
        <time>2021-05-29T06:02:46.000Z</time>
      </trkpt>
      <trkpt lat="45.22407" lon="5.74111">
        <ele>906.20001220703</ele>
        <time>2021-05-29T06:02:48.000Z</time>
      </trkpt>
      <trkpt lat="45.22406" lon="5.7411">
        <ele>906.20001220703</ele>
        <time>2021-05-29T06:02:49.000Z</time>
      </trkpt>
      <trkpt lat="45.22402" lon="5.74104">
        <ele>907.20001220703</ele>
        <time>2021-05-29T06:02:53.000Z</time>
      </trkpt>
      <trkpt lat="45.224" lon="5.74103">
        <ele>907.40002441406</ele>
        <time>2021-05-29T06:02:54.000Z</time>
      </trkpt>
      <trkpt lat="45.22397" lon="5.74099">
        <ele>907.79998779297</ele>
        <time>2021-05-29T06:02:56.000Z</time>
      </trkpt>
      <trkpt lat="45.22393" lon="5.74093">
        <ele>908.40002441406</ele>
        <time>2021-05-29T06:02:58.000Z</time>
      </trkpt>
      <trkpt lat="45.22392" lon="5.7409">
        <ele>908.59997558594</ele>
        <time>2021-05-29T06:03:00.000Z</time>
      </trkpt>
      <trkpt lat="45.2239" lon="5.74077">
        <ele>909</ele>
        <time>2021-05-29T06:03:03.000Z</time>
      </trkpt>
      <trkpt lat="45.22391" lon="5.74075">
        <ele>909.40002441406</ele>
        <time>2021-05-29T06:03:05.000Z</time>
      </trkpt>
      <trkpt lat="45.22392" lon="5.74073">
        <ele>909.40002441406</ele>
        <time>2021-05-29T06:03:06.000Z</time>
      </trkpt>
      <trkpt lat="45.22394" lon="5.74072">
        <ele>909.79998779297</ele>
        <time>2021-05-29T06:03:08.000Z</time>
      </trkpt>
      <trkpt lat="45.22396" lon="5.74072">
        <ele>910.20001220703</ele>
        <time>2021-05-29T06:03:10.000Z</time>
      </trkpt>
      <trkpt lat="45.22399" lon="5.74073">
        <ele>910.79998779297</ele>
        <time>2021-05-29T06:03:12.000Z</time>
      </trkpt>
      <trkpt lat="45.22407" lon="5.74074">
        <ele>911</ele>
        <time>2021-05-29T06:03:15.000Z</time>
      </trkpt>
      <trkpt lat="45.22412" lon="5.74075">
        <ele>911.20001220703</ele>
        <time>2021-05-29T06:03:17.000Z</time>
      </trkpt>
      <trkpt lat="45.22416" lon="5.74077">
        <ele>911.59997558594</ele>
        <time>2021-05-29T06:03:19.000Z</time>
      </trkpt>
      <trkpt lat="45.22418" lon="5.74078">
        <ele>912</ele>
        <time>2021-05-29T06:03:20.000Z</time>
      </trkpt>
      <trkpt lat="45.22421" lon="5.74081">
        <ele>912.20001220703</ele>
        <time>2021-05-29T06:03:22.000Z</time>
      </trkpt>
      <trkpt lat="45.22426" lon="5.74085">
        <ele>912.59997558594</ele>
        <time>2021-05-29T06:03:25.000Z</time>
      </trkpt>
      <trkpt lat="45.22427" lon="5.74086">
        <ele>913</ele>
        <time>2021-05-29T06:03:26.000Z</time>
      </trkpt>
      <trkpt lat="45.2243" lon="5.74089">
        <ele>913.40002441406</ele>
        <time>2021-05-29T06:03:28.000Z</time>
      </trkpt>
      <trkpt lat="45.22435" lon="5.74091">
        <ele>914</ele>
        <time>2021-05-29T06:03:31.000Z</time>
      </trkpt>
      <trkpt lat="45.22438" lon="5.74095">
        <ele>914.79998779297</ele>
        <time>2021-05-29T06:03:34.000Z</time>
      </trkpt>
      <trkpt lat="45.22441" lon="5.74097">
        <ele>915</ele>
        <time>2021-05-29T06:03:36.000Z</time>
      </trkpt>
      <trkpt lat="45.2245" lon="5.74101">
        <ele>915.79998779297</ele>
        <time>2021-05-29T06:03:41.000Z</time>
      </trkpt>
      <trkpt lat="45.22454" lon="5.74102">
        <ele>916.20001220703</ele>
        <time>2021-05-29T06:03:43.000Z</time>
      </trkpt>
      <trkpt lat="45.22466" lon="5.74104">
        <ele>917.40002441406</ele>
        <time>2021-05-29T06:03:49.000Z</time>
      </trkpt>
      <trkpt lat="45.22476" lon="5.74105">
        <ele>918.40002441406</ele>
        <time>2021-05-29T06:03:54.000Z</time>
      </trkpt>
      <trkpt lat="45.22481" lon="5.74105">
        <ele>919</ele>
        <time>2021-05-29T06:03:57.000Z</time>
      </trkpt>
      <trkpt lat="45.22482" lon="5.74106">
        <ele>919</ele>
        <time>2021-05-29T06:03:58.000Z</time>
      </trkpt>
      <trkpt lat="45.22485" lon="5.74107">
        <ele>919.59997558594</ele>
        <time>2021-05-29T06:04:00.000Z</time>
      </trkpt>
      <trkpt lat="45.22488" lon="5.74109">
        <ele>919.79998779297</ele>
        <time>2021-05-29T06:04:02.000Z</time>
      </trkpt>
      <trkpt lat="45.22493" lon="5.74109">
        <ele>920.59997558594</ele>
        <time>2021-05-29T06:04:05.000Z</time>
      </trkpt>
      <trkpt lat="45.22495" lon="5.74108">
        <ele>920.79998779297</ele>
        <time>2021-05-29T06:04:06.000Z</time>
      </trkpt>
      <trkpt lat="45.225" lon="5.74108">
        <ele>921</ele>
        <time>2021-05-29T06:04:08.000Z</time>
      </trkpt>
      <trkpt lat="45.22505" lon="5.74106">
        <ele>921.20001220703</ele>
        <time>2021-05-29T06:04:10.000Z</time>
      </trkpt>
      <trkpt lat="45.22507" lon="5.74105">
        <ele>921.59997558594</ele>
        <time>2021-05-29T06:04:12.000Z</time>
      </trkpt>
      <trkpt lat="45.22509" lon="5.74105">
        <ele>921.79998779297</ele>
        <time>2021-05-29T06:04:13.000Z</time>
      </trkpt>
      <trkpt lat="45.22514" lon="5.74103">
        <ele>922.20001220703</ele>
        <time>2021-05-29T06:04:15.000Z</time>
      </trkpt>
      <trkpt lat="45.22516" lon="5.74104">
        <ele>922.40002441406</ele>
        <time>2021-05-29T06:04:17.000Z</time>
      </trkpt>
      <trkpt lat="45.22523" lon="5.74103">
        <ele>923</ele>
        <time>2021-05-29T06:04:20.000Z</time>
      </trkpt>
      <trkpt lat="45.22529" lon="5.74103">
        <ele>923.40002441406</ele>
        <time>2021-05-29T06:04:23.000Z</time>
      </trkpt>
      <trkpt lat="45.22533" lon="5.74102">
        <ele>923.79998779297</ele>
        <time>2021-05-29T06:04:26.000Z</time>
      </trkpt>
      <trkpt lat="45.22535" lon="5.74101">
        <ele>924.20001220703</ele>
        <time>2021-05-29T06:04:27.000Z</time>
      </trkpt>
      <trkpt lat="45.22541" lon="5.74099">
        <ele>925.20001220703</ele>
        <time>2021-05-29T06:04:31.000Z</time>
      </trkpt>
      <trkpt lat="45.22547" lon="5.74098">
        <ele>925.79998779297</ele>
        <time>2021-05-29T06:04:34.000Z</time>
      </trkpt>
      <trkpt lat="45.22554" lon="5.74094">
        <ele>926.20001220703</ele>
        <time>2021-05-29T06:04:37.000Z</time>
      </trkpt>
      <trkpt lat="45.22561" lon="5.74091">
        <ele>927.40002441406</ele>
        <time>2021-05-29T06:04:42.000Z</time>
      </trkpt>
      <trkpt lat="45.22569" lon="5.74087">
        <ele>928.40002441406</ele>
        <time>2021-05-29T06:04:47.000Z</time>
      </trkpt>
      <trkpt lat="45.2258" lon="5.74087">
        <ele>929.59997558594</ele>
        <time>2021-05-29T06:04:54.000Z</time>
      </trkpt>
      <trkpt lat="45.22581" lon="5.74087">
        <ele>929.59997558594</ele>
        <time>2021-05-29T06:04:55.000Z</time>
      </trkpt>
      <trkpt lat="45.2259" lon="5.74086">
        <ele>930.59997558594</ele>
        <time>2021-05-29T06:05:00.000Z</time>
      </trkpt>
      <trkpt lat="45.22604" lon="5.74083">
        <ele>931.79998779297</ele>
        <time>2021-05-29T06:05:06.000Z</time>
      </trkpt>
      <trkpt lat="45.22606" lon="5.74083">
        <ele>932</ele>
        <time>2021-05-29T06:05:07.000Z</time>
      </trkpt>
      <trkpt lat="45.22614" lon="5.74085">
        <ele>932.79998779297</ele>
        <time>2021-05-29T06:05:11.000Z</time>
      </trkpt>
      <trkpt lat="45.22623" lon="5.74088">
        <ele>933.79998779297</ele>
        <time>2021-05-29T06:05:16.000Z</time>
      </trkpt>
      <trkpt lat="45.22624" lon="5.74088">
        <ele>933.79998779297</ele>
        <time>2021-05-29T06:05:17.000Z</time>
      </trkpt>
      <trkpt lat="45.22627" lon="5.74088">
        <ele>934.40002441406</ele>
        <time>2021-05-29T06:05:19.000Z</time>
      </trkpt>
      <trkpt lat="45.22633" lon="5.74089">
        <ele>935</ele>
        <time>2021-05-29T06:05:22.000Z</time>
      </trkpt>
      <trkpt lat="45.22636" lon="5.7409">
        <ele>935</ele>
        <time>2021-05-29T06:05:24.000Z</time>
      </trkpt>
      <trkpt lat="45.22644" lon="5.74092">
        <ele>936.20001220703</ele>
        <time>2021-05-29T06:05:28.000Z</time>
      </trkpt>
      <trkpt lat="45.2265" lon="5.74093">
        <ele>936.59997558594</ele>
        <time>2021-05-29T06:05:32.000Z</time>
      </trkpt>
      <trkpt lat="45.22654" lon="5.74093">
        <ele>937.20001220703</ele>
        <time>2021-05-29T06:05:34.000Z</time>
      </trkpt>
      <trkpt lat="45.22665" lon="5.74097">
        <ele>938</ele>
        <time>2021-05-29T06:05:40.000Z</time>
      </trkpt>
      <trkpt lat="45.22667" lon="5.74097">
        <ele>938.40002441406</ele>
        <time>2021-05-29T06:05:41.000Z</time>
      </trkpt>
      <trkpt lat="45.22673" lon="5.741">
        <ele>939.40002441406</ele>
        <time>2021-05-29T06:05:46.000Z</time>
      </trkpt>
      <trkpt lat="45.22675" lon="5.741">
        <ele>939.59997558594</ele>
        <time>2021-05-29T06:05:47.000Z</time>
      </trkpt>
      <trkpt lat="45.22682" lon="5.74104">
        <ele>940.40002441406</ele>
        <time>2021-05-29T06:05:52.000Z</time>
      </trkpt>
      <trkpt lat="45.22684" lon="5.74103">
        <ele>940.59997558594</ele>
        <time>2021-05-29T06:05:53.000Z</time>
      </trkpt>
      <trkpt lat="45.22695" lon="5.74105">
        <ele>941.59997558594</ele>
        <time>2021-05-29T06:06:00.000Z</time>
      </trkpt>
      <trkpt lat="45.22699" lon="5.74106">
        <ele>942</ele>
        <time>2021-05-29T06:06:03.000Z</time>
      </trkpt>
      <trkpt lat="45.22703" lon="5.74107">
        <ele>942.59997558594</ele>
        <time>2021-05-29T06:06:06.000Z</time>
      </trkpt>
      <trkpt lat="45.22705" lon="5.74108">
        <ele>943</ele>
        <time>2021-05-29T06:06:07.000Z</time>
      </trkpt>
      <trkpt lat="45.22709" lon="5.74109">
        <ele>943.40002441406</ele>
        <time>2021-05-29T06:06:09.000Z</time>
      </trkpt>
      <trkpt lat="45.22713" lon="5.74109">
        <ele>943.79998779297</ele>
        <time>2021-05-29T06:06:11.000Z</time>
      </trkpt>
      <trkpt lat="45.22718" lon="5.74109">
        <ele>944.20001220703</ele>
        <time>2021-05-29T06:06:14.000Z</time>
      </trkpt>
      <trkpt lat="45.22723" lon="5.74109">
        <ele>944.59997558594</ele>
        <time>2021-05-29T06:06:17.000Z</time>
      </trkpt>
      <trkpt lat="45.22727" lon="5.7411">
        <ele>945</ele>
        <time>2021-05-29T06:06:19.000Z</time>
      </trkpt>
      <trkpt lat="45.22735" lon="5.74112">
        <ele>946</ele>
        <time>2021-05-29T06:06:24.000Z</time>
      </trkpt>
      <trkpt lat="45.22736" lon="5.74113">
        <ele>946</ele>
        <time>2021-05-29T06:06:25.000Z</time>
      </trkpt>
      <trkpt lat="45.2274" lon="5.74117">
        <ele>946.79998779297</ele>
        <time>2021-05-29T06:06:29.000Z</time>
      </trkpt>
      <trkpt lat="45.22741" lon="5.74118">
        <ele>947.20001220703</ele>
        <time>2021-05-29T06:06:30.000Z</time>
      </trkpt>
      <trkpt lat="45.22746" lon="5.74122">
        <ele>948.20001220703</ele>
        <time>2021-05-29T06:06:35.000Z</time>
      </trkpt>
      <trkpt lat="45.22752" lon="5.74128">
        <ele>948.79998779297</ele>
        <time>2021-05-29T06:06:41.000Z</time>
      </trkpt>
      <trkpt lat="45.22753" lon="5.74128">
        <ele>949</ele>
        <time>2021-05-29T06:06:42.000Z</time>
      </trkpt>
      <trkpt lat="45.22757" lon="5.74129">
        <ele>949.20001220703</ele>
        <time>2021-05-29T06:06:44.000Z</time>
      </trkpt>
      <trkpt lat="45.22759" lon="5.74131">
        <ele>949.40002441406</ele>
        <time>2021-05-29T06:06:45.000Z</time>
      </trkpt>
      <trkpt lat="45.22767" lon="5.74134">
        <ele>949.79998779297</ele>
        <time>2021-05-29T06:06:47.000Z</time>
      </trkpt>
      <trkpt lat="45.22774" lon="5.74135">
        <ele>950</ele>
        <time>2021-05-29T06:06:50.000Z</time>
      </trkpt>
      <trkpt lat="45.22776" lon="5.74136">
        <ele>950.20001220703</ele>
        <time>2021-05-29T06:06:52.000Z</time>
      </trkpt>
      <trkpt lat="45.22776" lon="5.74136">
        <ele>950.40002441406</ele>
        <time>2021-05-29T06:06:53.000Z</time>
      </trkpt>
      <trkpt lat="45.22779" lon="5.7414">
        <ele>951.40002441406</ele>
        <time>2021-05-29T06:06:58.000Z</time>
      </trkpt>
      <trkpt lat="45.22783" lon="5.7414">
        <ele>951.59997558594</ele>
        <time>2021-05-29T06:06:59.000Z</time>
      </trkpt>
      <trkpt lat="45.22783" lon="5.7414">
        <ele>951.79998779297</ele>
        <time>2021-05-29T06:07:00.000Z</time>
      </trkpt>
      <trkpt lat="45.2279" lon="5.74142">
        <ele>952.40002441406</ele>
        <time>2021-05-29T06:07:05.000Z</time>
      </trkpt>
      <trkpt lat="45.22794" lon="5.74142">
        <ele>952.79998779297</ele>
        <time>2021-05-29T06:07:07.000Z</time>
      </trkpt>
      <trkpt lat="45.22796" lon="5.74142">
        <ele>953.20001220703</ele>
        <time>2021-05-29T06:07:09.000Z</time>
      </trkpt>
      <trkpt lat="45.22798" lon="5.74143">
        <ele>953.40002441406</ele>
        <time>2021-05-29T06:07:11.000Z</time>
      </trkpt>
      <trkpt lat="45.22799" lon="5.74144">
        <ele>953.79998779297</ele>
        <time>2021-05-29T06:07:12.000Z</time>
      </trkpt>
      <trkpt lat="45.22801" lon="5.74143">
        <ele>954</ele>
        <time>2021-05-29T06:07:13.000Z</time>
      </trkpt>
      <trkpt lat="45.22803" lon="5.74145">
        <ele>954</ele>
        <time>2021-05-29T06:07:14.000Z</time>
      </trkpt>
      <trkpt lat="45.22807" lon="5.74146">
        <ele>954.40002441406</ele>
        <time>2021-05-29T06:07:16.000Z</time>
      </trkpt>
      <trkpt lat="45.22812" lon="5.74145">
        <ele>954.79998779297</ele>
        <time>2021-05-29T06:07:18.000Z</time>
      </trkpt>
      <trkpt lat="45.22819" lon="5.74146">
        <ele>955.40002441406</ele>
        <time>2021-05-29T06:07:21.000Z</time>
      </trkpt>
      <trkpt lat="45.2282" lon="5.74146">
        <ele>955.59997558594</ele>
        <time>2021-05-29T06:07:22.000Z</time>
      </trkpt>
      <trkpt lat="45.22823" lon="5.74147">
        <ele>956</ele>
        <time>2021-05-29T06:07:24.000Z</time>
      </trkpt>
      <trkpt lat="45.22824" lon="5.74148">
        <ele>956.20001220703</ele>
        <time>2021-05-29T06:07:25.000Z</time>
      </trkpt>
      <trkpt lat="45.22824" lon="5.74151">
        <ele>956.40002441406</ele>
        <time>2021-05-29T06:07:27.000Z</time>
      </trkpt>
      <trkpt lat="45.22825" lon="5.74153">
        <ele>956.59997558594</ele>
        <time>2021-05-29T06:07:28.000Z</time>
      </trkpt>
      <trkpt lat="45.22826" lon="5.74154">
        <ele>956.79998779297</ele>
        <time>2021-05-29T06:07:29.000Z</time>
      </trkpt>
      <trkpt lat="45.22828" lon="5.74156">
        <ele>957.20001220703</ele>
        <time>2021-05-29T06:07:31.000Z</time>
      </trkpt>
      <trkpt lat="45.22831" lon="5.74158">
        <ele>957.79998779297</ele>
        <time>2021-05-29T06:07:33.000Z</time>
      </trkpt>
      <trkpt lat="45.22837" lon="5.74164">
        <ele>958.79998779297</ele>
        <time>2021-05-29T06:07:39.000Z</time>
      </trkpt>
      <trkpt lat="45.22842" lon="5.74167">
        <ele>959.40002441406</ele>
        <time>2021-05-29T06:07:43.000Z</time>
      </trkpt>
      <trkpt lat="45.22845" lon="5.74168">
        <ele>959.59997558594</ele>
        <time>2021-05-29T06:07:45.000Z</time>
      </trkpt>
      <trkpt lat="45.22847" lon="5.74169">
        <ele>960.20001220703</ele>
        <time>2021-05-29T06:07:46.000Z</time>
      </trkpt>
      <trkpt lat="45.22857" lon="5.74174">
        <ele>961.20001220703</ele>
        <time>2021-05-29T06:07:53.000Z</time>
      </trkpt>
      <trkpt lat="45.22861" lon="5.74175">
        <ele>962</ele>
        <time>2021-05-29T06:07:57.000Z</time>
      </trkpt>
      <trkpt lat="45.22864" lon="5.74175">
        <ele>962.20001220703</ele>
        <time>2021-05-29T06:07:58.000Z</time>
      </trkpt>
      <trkpt lat="45.22872" lon="5.74179">
        <ele>962.40002441406</ele>
        <time>2021-05-29T06:08:02.000Z</time>
      </trkpt>
      <trkpt lat="45.22872" lon="5.74179">
        <ele>962.40002441406</ele>
        <time>2021-05-29T06:08:03.000Z</time>
      </trkpt>
      <trkpt lat="45.22872" lon="5.74179">
        <ele>962.79998779297</ele>
        <time>2021-05-29T06:08:04.000Z</time>
      </trkpt>
      <trkpt lat="45.22875" lon="5.7418">
        <ele>963.20001220703</ele>
        <time>2021-05-29T06:08:06.000Z</time>
      </trkpt>
      <trkpt lat="45.22877" lon="5.74181">
        <ele>963.59997558594</ele>
        <time>2021-05-29T06:08:08.000Z</time>
      </trkpt>
      <trkpt lat="45.22882" lon="5.74183">
        <ele>964.40002441406</ele>
        <time>2021-05-29T06:08:11.000Z</time>
      </trkpt>
      <trkpt lat="45.22886" lon="5.74185">
        <ele>964.59997558594</ele>
        <time>2021-05-29T06:08:13.000Z</time>
      </trkpt>
      <trkpt lat="45.2289" lon="5.74187">
        <ele>965.20001220703</ele>
        <time>2021-05-29T06:08:15.000Z</time>
      </trkpt>
      <trkpt lat="45.22896" lon="5.74188">
        <ele>965.40002441406</ele>
        <time>2021-05-29T06:08:17.000Z</time>
      </trkpt>
      <trkpt lat="45.22904" lon="5.74189">
        <ele>965.79998779297</ele>
        <time>2021-05-29T06:08:18.000Z</time>
      </trkpt>
      <trkpt lat="45.22911" lon="5.74191">
        <ele>966</ele>
        <time>2021-05-29T06:08:21.000Z</time>
      </trkpt>
      <trkpt lat="45.22914" lon="5.74194">
        <ele>966.59997558594</ele>
        <time>2021-05-29T06:08:23.000Z</time>
      </trkpt>
      <trkpt lat="45.22916" lon="5.74195">
        <ele>966.79998779297</ele>
        <time>2021-05-29T06:08:24.000Z</time>
      </trkpt>
      <trkpt lat="45.22926" lon="5.74199">
        <ele>967.79998779297</ele>
        <time>2021-05-29T06:08:29.000Z</time>
      </trkpt>
      <trkpt lat="45.2293" lon="5.74204">
        <ele>968.59997558594</ele>
        <time>2021-05-29T06:08:33.000Z</time>
      </trkpt>
      <trkpt lat="45.22931" lon="5.74206">
        <ele>968.79998779297</ele>
        <time>2021-05-29T06:08:34.000Z</time>
      </trkpt>
      <trkpt lat="45.22932" lon="5.74206">
        <ele>968.79998779297</ele>
        <time>2021-05-29T06:08:35.000Z</time>
      </trkpt>
      <trkpt lat="45.22934" lon="5.74207">
        <ele>969</ele>
        <time>2021-05-29T06:08:36.000Z</time>
      </trkpt>
      <trkpt lat="45.22937" lon="5.74207">
        <ele>969.20001220703</ele>
        <time>2021-05-29T06:08:38.000Z</time>
      </trkpt>
      <trkpt lat="45.22939" lon="5.74207">
        <ele>969.59997558594</ele>
        <time>2021-05-29T06:08:39.000Z</time>
      </trkpt>
      <trkpt lat="45.22941" lon="5.74207">
        <ele>969.79998779297</ele>
        <time>2021-05-29T06:08:40.000Z</time>
      </trkpt>
      <trkpt lat="45.22943" lon="5.74207">
        <ele>970.20001220703</ele>
        <time>2021-05-29T06:08:41.000Z</time>
      </trkpt>
      <trkpt lat="45.22945" lon="5.74207">
        <ele>970.59997558594</ele>
        <time>2021-05-29T06:08:43.000Z</time>
      </trkpt>
      <trkpt lat="45.22946" lon="5.74208">
        <ele>970.59997558594</ele>
        <time>2021-05-29T06:08:44.000Z</time>
      </trkpt>
      <trkpt lat="45.22947" lon="5.74208">
        <ele>970.79998779297</ele>
        <time>2021-05-29T06:08:45.000Z</time>
      </trkpt>
      <trkpt lat="45.22951" lon="5.74209">
        <ele>971</ele>
        <time>2021-05-29T06:08:47.000Z</time>
      </trkpt>
      <trkpt lat="45.22953" lon="5.74209">
        <ele>971.20001220703</ele>
        <time>2021-05-29T06:08:48.000Z</time>
      </trkpt>
      <trkpt lat="45.22957" lon="5.7421">
        <ele>971.79998779297</ele>
        <time>2021-05-29T06:08:50.000Z</time>
      </trkpt>
      <trkpt lat="45.22958" lon="5.74211">
        <ele>972</ele>
        <time>2021-05-29T06:08:51.000Z</time>
      </trkpt>
      <trkpt lat="45.22968" lon="5.74214">
        <ele>972.59997558594</ele>
        <time>2021-05-29T06:08:56.000Z</time>
      </trkpt>
      <trkpt lat="45.2297" lon="5.74214">
        <ele>972.79998779297</ele>
        <time>2021-05-29T06:08:57.000Z</time>
      </trkpt>
      <trkpt lat="45.22971" lon="5.74213">
        <ele>973</ele>
        <time>2021-05-29T06:08:58.000Z</time>
      </trkpt>
      <trkpt lat="45.22974" lon="5.74212">
        <ele>973.59997558594</ele>
        <time>2021-05-29T06:09:00.000Z</time>
      </trkpt>
      <trkpt lat="45.22982" lon="5.74212">
        <ele>974.20001220703</ele>
        <time>2021-05-29T06:09:02.000Z</time>
      </trkpt>
      <trkpt lat="45.22983" lon="5.74212">
        <ele>974.40002441406</ele>
        <time>2021-05-29T06:09:05.000Z</time>
      </trkpt>
      <trkpt lat="45.22985" lon="5.74213">
        <ele>974.79998779297</ele>
        <time>2021-05-29T06:09:06.000Z</time>
      </trkpt>
      <trkpt lat="45.22991" lon="5.74217">
        <ele>975.20001220703</ele>
        <time>2021-05-29T06:09:09.000Z</time>
      </trkpt>
      <trkpt lat="45.22994" lon="5.7422">
        <ele>975.59997558594</ele>
        <time>2021-05-29T06:09:11.000Z</time>
      </trkpt>
      <trkpt lat="45.22999" lon="5.74222">
        <ele>976.20001220703</ele>
        <time>2021-05-29T06:09:14.000Z</time>
      </trkpt>
      <trkpt lat="45.23003" lon="5.74222">
        <ele>976.59997558594</ele>
        <time>2021-05-29T06:09:16.000Z</time>
      </trkpt>
      <trkpt lat="45.23008" lon="5.74222">
        <ele>977</ele>
        <time>2021-05-29T06:09:18.000Z</time>
      </trkpt>
      <trkpt lat="45.23011" lon="5.74222">
        <ele>977</ele>
        <time>2021-05-29T06:09:19.000Z</time>
      </trkpt>
      <trkpt lat="45.23013" lon="5.74224">
        <ele>977.59997558594</ele>
        <time>2021-05-29T06:09:20.000Z</time>
      </trkpt>
      <trkpt lat="45.23016" lon="5.74227">
        <ele>978</ele>
        <time>2021-05-29T06:09:23.000Z</time>
      </trkpt>
      <trkpt lat="45.23018" lon="5.74229">
        <ele>978.40002441406</ele>
        <time>2021-05-29T06:09:25.000Z</time>
      </trkpt>
      <trkpt lat="45.2302" lon="5.7423">
        <ele>978.79998779297</ele>
        <time>2021-05-29T06:09:27.000Z</time>
      </trkpt>
      <trkpt lat="45.23021" lon="5.74232">
        <ele>979.20001220703</ele>
        <time>2021-05-29T06:09:29.000Z</time>
      </trkpt>
      <trkpt lat="45.23022" lon="5.74233">
        <ele>979.40002441406</ele>
        <time>2021-05-29T06:09:30.000Z</time>
      </trkpt>
      <trkpt lat="45.23027" lon="5.74236">
        <ele>980</ele>
        <time>2021-05-29T06:09:33.000Z</time>
      </trkpt>
      <trkpt lat="45.23028" lon="5.74236">
        <ele>980.20001220703</ele>
        <time>2021-05-29T06:09:34.000Z</time>
      </trkpt>
      <trkpt lat="45.2303" lon="5.74237">
        <ele>980.40002441406</ele>
        <time>2021-05-29T06:09:35.000Z</time>
      </trkpt>
      <trkpt lat="45.23033" lon="5.7424">
        <ele>980.79998779297</ele>
        <time>2021-05-29T06:09:37.000Z</time>
      </trkpt>
      <trkpt lat="45.23038" lon="5.74243">
        <ele>981.20001220703</ele>
        <time>2021-05-29T06:09:39.000Z</time>
      </trkpt>
      <trkpt lat="45.23041" lon="5.74246">
        <ele>981.59997558594</ele>
        <time>2021-05-29T06:09:41.000Z</time>
      </trkpt>
      <trkpt lat="45.23043" lon="5.74248">
        <ele>981.79998779297</ele>
        <time>2021-05-29T06:09:42.000Z</time>
      </trkpt>
      <trkpt lat="45.23045" lon="5.7425">
        <ele>981.79998779297</ele>
        <time>2021-05-29T06:09:43.000Z</time>
      </trkpt>
      <trkpt lat="45.23047" lon="5.7425">
        <ele>982.20001220703</ele>
        <time>2021-05-29T06:09:44.000Z</time>
      </trkpt>
      <trkpt lat="45.23051" lon="5.74251">
        <ele>982.79998779297</ele>
        <time>2021-05-29T06:09:46.000Z</time>
      </trkpt>
      <trkpt lat="45.23054" lon="5.74252">
        <ele>983.20001220703</ele>
        <time>2021-05-29T06:09:49.000Z</time>
      </trkpt>
      <trkpt lat="45.23057" lon="5.74253">
        <ele>983.59997558594</ele>
        <time>2021-05-29T06:09:51.000Z</time>
      </trkpt>
      <trkpt lat="45.23059" lon="5.74254">
        <ele>984</ele>
        <time>2021-05-29T06:09:53.000Z</time>
      </trkpt>
      <trkpt lat="45.23062" lon="5.74254">
        <ele>984.20001220703</ele>
        <time>2021-05-29T06:09:55.000Z</time>
      </trkpt>
      <trkpt lat="45.23065" lon="5.74254">
        <ele>984.59997558594</ele>
        <time>2021-05-29T06:09:56.000Z</time>
      </trkpt>
      <trkpt lat="45.23067" lon="5.74254">
        <ele>984.79998779297</ele>
        <time>2021-05-29T06:09:57.000Z</time>
      </trkpt>
      <trkpt lat="45.23069" lon="5.74254">
        <ele>985</ele>
        <time>2021-05-29T06:09:58.000Z</time>
      </trkpt>
      <trkpt lat="45.23075" lon="5.74257">
        <ele>985.40002441406</ele>
        <time>2021-05-29T06:10:02.000Z</time>
      </trkpt>
      <trkpt lat="45.23081" lon="5.74258">
        <ele>986</ele>
        <time>2021-05-29T06:10:04.000Z</time>
      </trkpt>
      <trkpt lat="45.23096" lon="5.74259">
        <ele>987</ele>
        <time>2021-05-29T06:10:09.000Z</time>
      </trkpt>
      <trkpt lat="45.231" lon="5.74262">
        <ele>987.40002441406</ele>
        <time>2021-05-29T06:10:11.000Z</time>
      </trkpt>
      <trkpt lat="45.23113" lon="5.74267">
        <ele>988</ele>
        <time>2021-05-29T06:10:15.000Z</time>
      </trkpt>
      <trkpt lat="45.23118" lon="5.74268">
        <ele>988.20001220703</ele>
        <time>2021-05-29T06:10:17.000Z</time>
      </trkpt>
      <trkpt lat="45.2312" lon="5.74268">
        <ele>988.59997558594</ele>
        <time>2021-05-29T06:10:18.000Z</time>
      </trkpt>
      <trkpt lat="45.23126" lon="5.7427">
        <ele>988.79998779297</ele>
        <time>2021-05-29T06:10:20.000Z</time>
      </trkpt>
      <trkpt lat="45.23129" lon="5.7427">
        <ele>989.20001220703</ele>
        <time>2021-05-29T06:10:21.000Z</time>
      </trkpt>
      <trkpt lat="45.23133" lon="5.74271">
        <ele>989.79998779297</ele>
        <time>2021-05-29T06:10:23.000Z</time>
      </trkpt>
      <trkpt lat="45.23136" lon="5.74274">
        <ele>990.40002441406</ele>
        <time>2021-05-29T06:10:26.000Z</time>
      </trkpt>
      <trkpt lat="45.23142" lon="5.74278">
        <ele>991.40002441406</ele>
        <time>2021-05-29T06:10:31.000Z</time>
      </trkpt>
      <trkpt lat="45.23143" lon="5.74279">
        <ele>991.59997558594</ele>
        <time>2021-05-29T06:10:32.000Z</time>
      </trkpt>
      <trkpt lat="45.23148" lon="5.74281">
        <ele>992</ele>
        <time>2021-05-29T06:10:36.000Z</time>
      </trkpt>
      <trkpt lat="45.23151" lon="5.74283">
        <ele>992.79998779297</ele>
        <time>2021-05-29T06:10:38.000Z</time>
      </trkpt>
      <trkpt lat="45.23158" lon="5.74286">
        <ele>993.40002441406</ele>
        <time>2021-05-29T06:10:42.000Z</time>
      </trkpt>
      <trkpt lat="45.23159" lon="5.74287">
        <ele>993.40002441406</ele>
        <time>2021-05-29T06:10:43.000Z</time>
      </trkpt>
      <trkpt lat="45.23162" lon="5.74288">
        <ele>993.79998779297</ele>
        <time>2021-05-29T06:10:45.000Z</time>
      </trkpt>
      <trkpt lat="45.23164" lon="5.7429">
        <ele>994</ele>
        <time>2021-05-29T06:10:47.000Z</time>
      </trkpt>
      <trkpt lat="45.23165" lon="5.7429">
        <ele>994.40002441406</ele>
        <time>2021-05-29T06:10:48.000Z</time>
      </trkpt>
      <trkpt lat="45.2317" lon="5.74291">
        <ele>995</ele>
        <time>2021-05-29T06:10:51.000Z</time>
      </trkpt>
      <trkpt lat="45.23174" lon="5.74295">
        <ele>995.40002441406</ele>
        <time>2021-05-29T06:10:54.000Z</time>
      </trkpt>
      <trkpt lat="45.23178" lon="5.74299">
        <ele>996.20001220703</ele>
        <time>2021-05-29T06:10:57.000Z</time>
      </trkpt>
      <trkpt lat="45.23185" lon="5.74301">
        <ele>996.79998779297</ele>
        <time>2021-05-29T06:11:00.000Z</time>
      </trkpt>
      <trkpt lat="45.23191" lon="5.74302">
        <ele>997.40002441406</ele>
        <time>2021-05-29T06:11:03.000Z</time>
      </trkpt>
      <trkpt lat="45.23197" lon="5.74302">
        <ele>997.59997558594</ele>
        <time>2021-05-29T06:11:05.000Z</time>
      </trkpt>
      <trkpt lat="45.23205" lon="5.74302">
        <ele>997.59997558594</ele>
        <time>2021-05-29T06:11:06.000Z</time>
      </trkpt>
      <trkpt lat="45.23212" lon="5.74302">
        <ele>998.40002441406</ele>
        <time>2021-05-29T06:11:09.000Z</time>
      </trkpt>
      <trkpt lat="45.23226" lon="5.74304">
        <ele>999.40002441406</ele>
        <time>2021-05-29T06:11:14.000Z</time>
      </trkpt>
      <trkpt lat="45.23229" lon="5.74304">
        <ele>999.59997558594</ele>
        <time>2021-05-29T06:11:15.000Z</time>
      </trkpt>
      <trkpt lat="45.23242" lon="5.74308">
        <ele>1000.799987793</ele>
        <time>2021-05-29T06:11:21.000Z</time>
      </trkpt>
      <trkpt lat="45.23252" lon="5.74312">
        <ele>1001.5999755859</ele>
        <time>2021-05-29T06:11:25.000Z</time>
      </trkpt>
      <trkpt lat="45.23254" lon="5.74313">
        <ele>1001.799987793</ele>
        <time>2021-05-29T06:11:26.000Z</time>
      </trkpt>
      <trkpt lat="45.23265" lon="5.74321">
        <ele>1002.799987793</ele>
        <time>2021-05-29T06:11:32.000Z</time>
      </trkpt>
      <trkpt lat="45.23267" lon="5.74322">
        <ele>1003</ele>
        <time>2021-05-29T06:11:33.000Z</time>
      </trkpt>
      <trkpt lat="45.23274" lon="5.74329">
        <ele>1004</ele>
        <time>2021-05-29T06:11:37.000Z</time>
      </trkpt>
      <trkpt lat="45.23278" lon="5.74334">
        <ele>1004.5999755859</ele>
        <time>2021-05-29T06:11:40.000Z</time>
      </trkpt>
      <trkpt lat="45.23281" lon="5.74337">
        <ele>1005</ele>
        <time>2021-05-29T06:11:42.000Z</time>
      </trkpt>
      <trkpt lat="45.23289" lon="5.74342">
        <ele>1005.799987793</ele>
        <time>2021-05-29T06:11:47.000Z</time>
      </trkpt>
      <trkpt lat="45.23293" lon="5.74346">
        <ele>1006.4000244141</ele>
        <time>2021-05-29T06:11:49.000Z</time>
      </trkpt>
      <trkpt lat="45.23301" lon="5.74352">
        <ele>1007.200012207</ele>
        <time>2021-05-29T06:11:54.000Z</time>
      </trkpt>
      <trkpt lat="45.23304" lon="5.74355">
        <ele>1007.4000244141</ele>
        <time>2021-05-29T06:11:56.000Z</time>
      </trkpt>
      <trkpt lat="45.2331" lon="5.74361">
        <ele>1008.4000244141</ele>
        <time>2021-05-29T06:12:00.000Z</time>
      </trkpt>
      <trkpt lat="45.23315" lon="5.74364">
        <ele>1009</ele>
        <time>2021-05-29T06:12:03.000Z</time>
      </trkpt>
      <trkpt lat="45.23316" lon="5.74365">
        <ele>1009.200012207</ele>
        <time>2021-05-29T06:12:04.000Z</time>
      </trkpt>
      <trkpt lat="45.23321" lon="5.74368">
        <ele>1009.5999755859</ele>
        <time>2021-05-29T06:12:07.000Z</time>
      </trkpt>
      <trkpt lat="45.23327" lon="5.7437">
        <ele>1010.4000244141</ele>
        <time>2021-05-29T06:12:10.000Z</time>
      </trkpt>
      <trkpt lat="45.2333" lon="5.74373">
        <ele>1010.799987793</ele>
        <time>2021-05-29T06:12:12.000Z</time>
      </trkpt>
      <trkpt lat="45.23333" lon="5.74375">
        <ele>1011</ele>
        <time>2021-05-29T06:12:14.000Z</time>
      </trkpt>
      <trkpt lat="45.23343" lon="5.74375">
        <ele>1011.799987793</ele>
        <time>2021-05-29T06:12:19.000Z</time>
      </trkpt>
      <trkpt lat="45.2335" lon="5.74375">
        <ele>1012.4000244141</ele>
        <time>2021-05-29T06:12:22.000Z</time>
      </trkpt>
      <trkpt lat="45.23354" lon="5.74374">
        <ele>1012.799987793</ele>
        <time>2021-05-29T06:12:24.000Z</time>
      </trkpt>
      <trkpt lat="45.23366" lon="5.74367">
        <ele>1013.799987793</ele>
        <time>2021-05-29T06:12:30.000Z</time>
      </trkpt>
      <trkpt lat="45.23368" lon="5.74367">
        <ele>1014</ele>
        <time>2021-05-29T06:12:31.000Z</time>
      </trkpt>
      <trkpt lat="45.23378" lon="5.74361">
        <ele>1015</ele>
        <time>2021-05-29T06:12:37.000Z</time>
      </trkpt>
      <trkpt lat="45.23383" lon="5.74358">
        <ele>1015.5999755859</ele>
        <time>2021-05-29T06:12:40.000Z</time>
      </trkpt>
      <trkpt lat="45.23384" lon="5.74354">
        <ele>1016</ele>
        <time>2021-05-29T06:12:42.000Z</time>
      </trkpt>
      <trkpt lat="45.23384" lon="5.74352">
        <ele>1016.200012207</ele>
        <time>2021-05-29T06:12:43.000Z</time>
      </trkpt>
      <trkpt lat="45.23382" lon="5.74352">
        <ele>1016.4000244141</ele>
        <time>2021-05-29T06:12:44.000Z</time>
      </trkpt>
      <trkpt lat="45.23379" lon="5.74349">
        <ele>1017</ele>
        <time>2021-05-29T06:12:46.000Z</time>
      </trkpt>
      <trkpt lat="45.23377" lon="5.74347">
        <ele>1017.5999755859</ele>
        <time>2021-05-29T06:12:47.000Z</time>
      </trkpt>
      <trkpt lat="45.23374" lon="5.7434">
        <ele>1018.4000244141</ele>
        <time>2021-05-29T06:12:50.000Z</time>
      </trkpt>
      <trkpt lat="45.23373" lon="5.74338">
        <ele>1018.5999755859</ele>
        <time>2021-05-29T06:12:51.000Z</time>
      </trkpt>
      <trkpt lat="45.23371" lon="5.74333">
        <ele>1019</ele>
        <time>2021-05-29T06:12:53.000Z</time>
      </trkpt>
      <trkpt lat="45.2337" lon="5.74324">
        <ele>1019.4000244141</ele>
        <time>2021-05-29T06:12:56.000Z</time>
      </trkpt>
      <trkpt lat="45.23367" lon="5.74316">
        <ele>1019.799987793</ele>
        <time>2021-05-29T06:12:59.000Z</time>
      </trkpt>
      <trkpt lat="45.23366" lon="5.74312">
        <ele>1019.799987793</ele>
        <time>2021-05-29T06:13:01.000Z</time>
      </trkpt>
      <trkpt lat="45.23368" lon="5.74303">
        <ele>1020.4000244141</ele>
        <time>2021-05-29T06:13:04.000Z</time>
      </trkpt>
      <trkpt lat="45.23373" lon="5.74296">
        <ele>1021.5999755859</ele>
        <time>2021-05-29T06:13:09.000Z</time>
      </trkpt>
      <trkpt lat="45.23377" lon="5.74291">
        <ele>1022.799987793</ele>
        <time>2021-05-29T06:13:13.000Z</time>
      </trkpt>
      <trkpt lat="45.23379" lon="5.74288">
        <ele>1023.200012207</ele>
        <time>2021-05-29T06:13:15.000Z</time>
      </trkpt>
      <trkpt lat="45.23379" lon="5.74286">
        <ele>1024</ele>
        <time>2021-05-29T06:13:16.000Z</time>
      </trkpt>
      <trkpt lat="45.2338" lon="5.7428">
        <ele>1025</ele>
        <time>2021-05-29T06:13:19.000Z</time>
      </trkpt>
      <trkpt lat="45.2338" lon="5.74278">
        <ele>1025.5999755859</ele>
        <time>2021-05-29T06:13:20.000Z</time>
      </trkpt>
      <trkpt lat="45.2338" lon="5.74276">
        <ele>1026</ele>
        <time>2021-05-29T06:13:21.000Z</time>
      </trkpt>
      <trkpt lat="45.2338" lon="5.74269">
        <ele>1026.8000488281</ele>
        <time>2021-05-29T06:13:24.000Z</time>
      </trkpt>
      <trkpt lat="45.2338" lon="5.74266">
        <ele>1027</ele>
        <time>2021-05-29T06:13:25.000Z</time>
      </trkpt>
      <trkpt lat="45.23382" lon="5.7426">
        <ele>1027.4000244141</ele>
        <time>2021-05-29T06:13:28.000Z</time>
      </trkpt>
      <trkpt lat="45.23377" lon="5.74253">
        <ele>1027.4000244141</ele>
        <time>2021-05-29T06:13:34.000Z</time>
      </trkpt>
      <trkpt lat="45.23375" lon="5.74252">
        <ele>1027.8000488281</ele>
        <time>2021-05-29T06:13:36.000Z</time>
      </trkpt>
      <trkpt lat="45.23374" lon="5.74252">
        <ele>1028</ele>
        <time>2021-05-29T06:13:37.000Z</time>
      </trkpt>
      <trkpt lat="45.23373" lon="5.74249">
        <ele>1028.1999511719</ele>
        <time>2021-05-29T06:13:39.000Z</time>
      </trkpt>
      <trkpt lat="45.23372" lon="5.74247">
        <ele>1028.1999511719</ele>
        <time>2021-05-29T06:13:40.000Z</time>
      </trkpt>
      <trkpt lat="45.23364" lon="5.74241">
        <ele>1028.5999755859</ele>
        <time>2021-05-29T06:13:44.000Z</time>
      </trkpt>
      <trkpt lat="45.23358" lon="5.74237">
        <ele>1028.8000488281</ele>
        <time>2021-05-29T06:13:47.000Z</time>
      </trkpt>
      <trkpt lat="45.23355" lon="5.74236">
        <ele>1028.8000488281</ele>
        <time>2021-05-29T06:13:49.000Z</time>
      </trkpt>
      <trkpt lat="45.23348" lon="5.74231">
        <ele>1028.8000488281</ele>
        <time>2021-05-29T06:13:53.000Z</time>
      </trkpt>
      <trkpt lat="45.23331" lon="5.74219">
        <ele>1028.8000488281</ele>
        <time>2021-05-29T06:14:02.000Z</time>
      </trkpt>
      <trkpt lat="45.23329" lon="5.74219">
        <ele>1028.8000488281</ele>
        <time>2021-05-29T06:14:03.000Z</time>
      </trkpt>
      <trkpt lat="45.23322" lon="5.74216">
        <ele>1028.8000488281</ele>
        <time>2021-05-29T06:14:07.000Z</time>
      </trkpt>
      <trkpt lat="45.23316" lon="5.74213">
        <ele>1029</ele>
        <time>2021-05-29T06:14:10.000Z</time>
      </trkpt>
      <trkpt lat="45.2331" lon="5.74208">
        <ele>1029</ele>
        <time>2021-05-29T06:14:13.000Z</time>
      </trkpt>
      <trkpt lat="45.23304" lon="5.74204">
        <ele>1029.1999511719</ele>
        <time>2021-05-29T06:14:15.000Z</time>
      </trkpt>
      <trkpt lat="45.23289" lon="5.74191">
        <ele>1030</ele>
        <time>2021-05-29T06:14:20.000Z</time>
      </trkpt>
      <trkpt lat="45.23288" lon="5.74189">
        <ele>1030</ele>
        <time>2021-05-29T06:14:21.000Z</time>
      </trkpt>
      <trkpt lat="45.23287" lon="5.74186">
        <ele>1030.1999511719</ele>
        <time>2021-05-29T06:14:22.000Z</time>
      </trkpt>
      <trkpt lat="45.23281" lon="5.74176">
        <ele>1031</ele>
        <time>2021-05-29T06:14:27.000Z</time>
      </trkpt>
      <trkpt lat="45.23275" lon="5.7417">
        <ele>1031.1999511719</ele>
        <time>2021-05-29T06:14:30.000Z</time>
      </trkpt>
      <trkpt lat="45.2326" lon="5.74156">
        <ele>1030.5999755859</ele>
        <time>2021-05-29T06:14:38.000Z</time>
      </trkpt>
      <trkpt lat="45.23249" lon="5.74147">
        <ele>1030</ele>
        <time>2021-05-29T06:14:46.000Z</time>
      </trkpt>
      <trkpt lat="45.23242" lon="5.74138">
        <ele>1030.8000488281</ele>
        <time>2021-05-29T06:14:51.000Z</time>
      </trkpt>
      <trkpt lat="45.23236" lon="5.74128">
        <ele>1031.1999511719</ele>
        <time>2021-05-29T06:14:54.000Z</time>
      </trkpt>
      <trkpt lat="45.23231" lon="5.74119">
        <ele>1031.1999511719</ele>
        <time>2021-05-29T06:14:57.000Z</time>
      </trkpt>
      <trkpt lat="45.2323" lon="5.74112">
        <ele>1031</ele>
        <time>2021-05-29T06:14:59.000Z</time>
      </trkpt>
      <trkpt lat="45.2323" lon="5.7411">
        <ele>1031</ele>
        <time>2021-05-29T06:15:00.000Z</time>
      </trkpt>
      <trkpt lat="45.23229" lon="5.74104">
        <ele>1031</ele>
        <time>2021-05-29T06:15:01.000Z</time>
      </trkpt>
      <trkpt lat="45.23225" lon="5.7409">
        <ele>1031</ele>
        <time>2021-05-29T06:15:06.000Z</time>
      </trkpt>
      <trkpt lat="45.23226" lon="5.74078">
        <ele>1030.1999511719</ele>
        <time>2021-05-29T06:15:10.000Z</time>
      </trkpt>
      <trkpt lat="45.23227" lon="5.74074">
        <ele>1029.8000488281</ele>
        <time>2021-05-29T06:15:11.000Z</time>
      </trkpt>
      <trkpt lat="45.23227" lon="5.74071">
        <ele>1029.4000244141</ele>
        <time>2021-05-29T06:15:12.000Z</time>
      </trkpt>
      <trkpt lat="45.23228" lon="5.74064">
        <ele>1028.8000488281</ele>
        <time>2021-05-29T06:15:14.000Z</time>
      </trkpt>
      <trkpt lat="45.23228" lon="5.74061">
        <ele>1028.5999755859</ele>
        <time>2021-05-29T06:15:15.000Z</time>
      </trkpt>
      <trkpt lat="45.23226" lon="5.74056">
        <ele>1028.1999511719</ele>
        <time>2021-05-29T06:15:17.000Z</time>
      </trkpt>
      <trkpt lat="45.23213" lon="5.74042">
        <ele>1027.8000488281</ele>
        <time>2021-05-29T06:15:23.000Z</time>
      </trkpt>
      <trkpt lat="45.23209" lon="5.74037">
        <ele>1027.8000488281</ele>
        <time>2021-05-29T06:15:25.000Z</time>
      </trkpt>
      <trkpt lat="45.23197" lon="5.74025">
        <ele>1028.4000244141</ele>
        <time>2021-05-29T06:15:32.000Z</time>
      </trkpt>
      <trkpt lat="45.2319" lon="5.74021">
        <ele>1028.8000488281</ele>
        <time>2021-05-29T06:15:36.000Z</time>
      </trkpt>
      <trkpt lat="45.23182" lon="5.74017">
        <ele>1029.5999755859</ele>
        <time>2021-05-29T06:15:39.000Z</time>
      </trkpt>
      <trkpt lat="45.23179" lon="5.74015">
        <ele>1029.8000488281</ele>
        <time>2021-05-29T06:15:40.000Z</time>
      </trkpt>
      <trkpt lat="45.23167" lon="5.74007">
        <ele>1031</ele>
        <time>2021-05-29T06:15:45.000Z</time>
      </trkpt>
      <trkpt lat="45.2316" lon="5.74004">
        <ele>1031.5999755859</ele>
        <time>2021-05-29T06:15:48.000Z</time>
      </trkpt>
      <trkpt lat="45.23155" lon="5.74003">
        <ele>1032</ele>
        <time>2021-05-29T06:15:50.000Z</time>
      </trkpt>
      <trkpt lat="45.2315" lon="5.73998">
        <ele>1032.4000244141</ele>
        <time>2021-05-29T06:15:53.000Z</time>
      </trkpt>
      <trkpt lat="45.23131" lon="5.73993">
        <ele>1031.4000244141</ele>
        <time>2021-05-29T06:16:01.000Z</time>
      </trkpt>
      <trkpt lat="45.23128" lon="5.73993">
        <ele>1031.4000244141</ele>
        <time>2021-05-29T06:16:02.000Z</time>
      </trkpt>
      <trkpt lat="45.23115" lon="5.73992">
        <ele>1031</ele>
        <time>2021-05-29T06:16:07.000Z</time>
      </trkpt>
      <trkpt lat="45.23097" lon="5.73996">
        <ele>1030.4000244141</ele>
        <time>2021-05-29T06:16:14.000Z</time>
      </trkpt>
      <trkpt lat="45.23095" lon="5.73995">
        <ele>1030.4000244141</ele>
        <time>2021-05-29T06:16:15.000Z</time>
      </trkpt>
      <trkpt lat="45.23092" lon="5.7399">
        <ele>1030</ele>
        <time>2021-05-29T06:16:18.000Z</time>
      </trkpt>
      <trkpt lat="45.2309" lon="5.73989">
        <ele>1029.8000488281</ele>
        <time>2021-05-29T06:16:19.000Z</time>
      </trkpt>
      <trkpt lat="45.2308" lon="5.73982">
        <ele>1028.5999755859</ele>
        <time>2021-05-29T06:16:23.000Z</time>
      </trkpt>
      <trkpt lat="45.23073" lon="5.73981">
        <ele>1027.1999511719</ele>
        <time>2021-05-29T06:16:26.000Z</time>
      </trkpt>
      <trkpt lat="45.23065" lon="5.73983">
        <ele>1026.1999511719</ele>
        <time>2021-05-29T06:16:29.000Z</time>
      </trkpt>
      <trkpt lat="45.23059" lon="5.73983">
        <ele>1025.5999755859</ele>
        <time>2021-05-29T06:16:31.000Z</time>
      </trkpt>
      <trkpt lat="45.23053" lon="5.73985">
        <ele>1025.1999511719</ele>
        <time>2021-05-29T06:16:33.000Z</time>
      </trkpt>
      <trkpt lat="45.23042" lon="5.7399">
        <ele>1024.5999755859</ele>
        <time>2021-05-29T06:16:38.000Z</time>
      </trkpt>
      <trkpt lat="45.23026" lon="5.73987">
        <ele>1024.4000244141</ele>
        <time>2021-05-29T06:16:43.000Z</time>
      </trkpt>
      <trkpt lat="45.23017" lon="5.73985">
        <ele>1024</ele>
        <time>2021-05-29T06:16:46.000Z</time>
      </trkpt>
      <trkpt lat="45.23" lon="5.73982">
        <ele>1023.799987793</ele>
        <time>2021-05-29T06:16:51.000Z</time>
      </trkpt>
      <trkpt lat="45.22987" lon="5.7398">
        <ele>1023.4000244141</ele>
        <time>2021-05-29T06:16:55.000Z</time>
      </trkpt>
      <trkpt lat="45.22977" lon="5.73976">
        <ele>1023</ele>
        <time>2021-05-29T06:16:58.000Z</time>
      </trkpt>
      <trkpt lat="45.22972" lon="5.73974">
        <ele>1022.799987793</ele>
        <time>2021-05-29T06:17:00.000Z</time>
      </trkpt>
      <trkpt lat="45.22959" lon="5.73961">
        <ele>1022.200012207</ele>
        <time>2021-05-29T06:17:05.000Z</time>
      </trkpt>
      <trkpt lat="45.22952" lon="5.73953">
        <ele>1022.4000244141</ele>
        <time>2021-05-29T06:17:08.000Z</time>
      </trkpt>
      <trkpt lat="45.22944" lon="5.73931">
        <ele>1022.200012207</ele>
        <time>2021-05-29T06:17:14.000Z</time>
      </trkpt>
      <trkpt lat="45.22941" lon="5.73903">
        <ele>1023</ele>
        <time>2021-05-29T06:17:21.000Z</time>
      </trkpt>
      <trkpt lat="45.22937" lon="5.73892">
        <ele>1024.4000244141</ele>
        <time>2021-05-29T06:17:25.000Z</time>
      </trkpt>
      <trkpt lat="45.22937" lon="5.73886">
        <ele>1025.1999511719</ele>
        <time>2021-05-29T06:17:27.000Z</time>
      </trkpt>
      <trkpt lat="45.22938" lon="5.73884">
        <ele>1025.8000488281</ele>
        <time>2021-05-29T06:17:28.000Z</time>
      </trkpt>
      <trkpt lat="45.22938" lon="5.73882">
        <ele>1026.1999511719</ele>
        <time>2021-05-29T06:17:29.000Z</time>
      </trkpt>
      <trkpt lat="45.22941" lon="5.73873">
        <ele>1026.4000244141</ele>
        <time>2021-05-29T06:17:31.000Z</time>
      </trkpt>
      <trkpt lat="45.22941" lon="5.73868">
        <ele>1027</ele>
        <time>2021-05-29T06:17:33.000Z</time>
      </trkpt>
      <trkpt lat="45.2294" lon="5.73867">
        <ele>1027.1999511719</ele>
        <time>2021-05-29T06:17:34.000Z</time>
      </trkpt>
      <trkpt lat="45.22935" lon="5.73868">
        <ele>1028</ele>
        <time>2021-05-29T06:17:38.000Z</time>
      </trkpt>
      <trkpt lat="45.22934" lon="5.73869">
        <ele>1028.1999511719</ele>
        <time>2021-05-29T06:17:39.000Z</time>
      </trkpt>
      <trkpt lat="45.22925" lon="5.73869">
        <ele>1029.1999511719</ele>
        <time>2021-05-29T06:17:45.000Z</time>
      </trkpt>
      <trkpt lat="45.2292" lon="5.73869">
        <ele>1029.4000244141</ele>
        <time>2021-05-29T06:17:47.000Z</time>
      </trkpt>
      <trkpt lat="45.22913" lon="5.7387">
        <ele>1029.8000488281</ele>
        <time>2021-05-29T06:17:53.000Z</time>
      </trkpt>
      <trkpt lat="45.22903" lon="5.73873">
        <ele>1030.4000244141</ele>
        <time>2021-05-29T06:17:57.000Z</time>
      </trkpt>
      <trkpt lat="45.22899" lon="5.73874">
        <ele>1030.5999755859</ele>
        <time>2021-05-29T06:17:59.000Z</time>
      </trkpt>
      <trkpt lat="45.22894" lon="5.73876">
        <ele>1031.1999511719</ele>
        <time>2021-05-29T06:18:02.000Z</time>
      </trkpt>
      <trkpt lat="45.22878" lon="5.73883">
        <ele>1031</ele>
        <time>2021-05-29T06:18:08.000Z</time>
      </trkpt>
      <trkpt lat="45.22867" lon="5.73888">
        <ele>1031.1999511719</ele>
        <time>2021-05-29T06:18:12.000Z</time>
      </trkpt>
      <trkpt lat="45.22864" lon="5.73888">
        <ele>1031.4000244141</ele>
        <time>2021-05-29T06:18:13.000Z</time>
      </trkpt>
      <trkpt lat="45.22859" lon="5.73888">
        <ele>1032</ele>
        <time>2021-05-29T06:18:16.000Z</time>
      </trkpt>
      <trkpt lat="45.22855" lon="5.73886">
        <ele>1032.1999511719</ele>
        <time>2021-05-29T06:18:18.000Z</time>
      </trkpt>
      <trkpt lat="45.22853" lon="5.73886">
        <ele>1032.4000244141</ele>
        <time>2021-05-29T06:18:19.000Z</time>
      </trkpt>
      <trkpt lat="45.22842" lon="5.73889">
        <ele>1032.5999755859</ele>
        <time>2021-05-29T06:18:24.000Z</time>
      </trkpt>
      <trkpt lat="45.22827" lon="5.73885">
        <ele>1033.5999755859</ele>
        <time>2021-05-29T06:18:31.000Z</time>
      </trkpt>
      <trkpt lat="45.22825" lon="5.73884">
        <ele>1033.8000488281</ele>
        <time>2021-05-29T06:18:32.000Z</time>
      </trkpt>
      <trkpt lat="45.22817" lon="5.73881">
        <ele>1034.5999755859</ele>
        <time>2021-05-29T06:18:36.000Z</time>
      </trkpt>
      <trkpt lat="45.22814" lon="5.73879">
        <ele>1035.1999511719</ele>
        <time>2021-05-29T06:18:38.000Z</time>
      </trkpt>
      <trkpt lat="45.22811" lon="5.73877">
        <ele>1035.8000488281</ele>
        <time>2021-05-29T06:18:40.000Z</time>
      </trkpt>
      <trkpt lat="45.22808" lon="5.73876">
        <ele>1036.1999511719</ele>
        <time>2021-05-29T06:18:42.000Z</time>
      </trkpt>
      <trkpt lat="45.22805" lon="5.73875">
        <ele>1036.5999755859</ele>
        <time>2021-05-29T06:18:44.000Z</time>
      </trkpt>
      <trkpt lat="45.22802" lon="5.73873">
        <ele>1037</ele>
        <time>2021-05-29T06:18:46.000Z</time>
      </trkpt>
      <trkpt lat="45.22799" lon="5.73869">
        <ele>1037.5999755859</ele>
        <time>2021-05-29T06:18:49.000Z</time>
      </trkpt>
      <trkpt lat="45.22797" lon="5.73868">
        <ele>1037.8000488281</ele>
        <time>2021-05-29T06:18:50.000Z</time>
      </trkpt>
      <trkpt lat="45.22791" lon="5.73865">
        <ele>1038.1999511719</ele>
        <time>2021-05-29T06:18:52.000Z</time>
      </trkpt>
      <trkpt lat="45.22786" lon="5.73863">
        <ele>1038.4000244141</ele>
        <time>2021-05-29T06:18:54.000Z</time>
      </trkpt>
      <trkpt lat="45.22777" lon="5.73861">
        <ele>1038.5999755859</ele>
        <time>2021-05-29T06:18:57.000Z</time>
      </trkpt>
      <trkpt lat="45.22768" lon="5.73851">
        <ele>1038.1999511719</ele>
        <time>2021-05-29T06:19:01.000Z</time>
      </trkpt>
      <trkpt lat="45.22765" lon="5.73849">
        <ele>1038</ele>
        <time>2021-05-29T06:19:02.000Z</time>
      </trkpt>
      <trkpt lat="45.22762" lon="5.73849">
        <ele>1038</ele>
        <time>2021-05-29T06:19:04.000Z</time>
      </trkpt>
      <trkpt lat="45.22751" lon="5.73839">
        <ele>1038</ele>
        <time>2021-05-29T06:19:09.000Z</time>
      </trkpt>
      <trkpt lat="45.22747" lon="5.73838">
        <ele>1038.4000244141</ele>
        <time>2021-05-29T06:19:11.000Z</time>
      </trkpt>
      <trkpt lat="45.22728" lon="5.73833">
        <ele>1039.1999511719</ele>
        <time>2021-05-29T06:19:20.000Z</time>
      </trkpt>
      <trkpt lat="45.22715" lon="5.73828">
        <ele>1039.4000244141</ele>
        <time>2021-05-29T06:19:26.000Z</time>
      </trkpt>
      <trkpt lat="45.227" lon="5.73825">
        <ele>1038.8000488281</ele>
        <time>2021-05-29T06:19:32.000Z</time>
      </trkpt>
      <trkpt lat="45.22688" lon="5.73819">
        <ele>1038</ele>
        <time>2021-05-29T06:19:37.000Z</time>
      </trkpt>
      <trkpt lat="45.22683" lon="5.73816">
        <ele>1037.8000488281</ele>
        <time>2021-05-29T06:19:39.000Z</time>
      </trkpt>
      <trkpt lat="45.22679" lon="5.7381">
        <ele>1037.4000244141</ele>
        <time>2021-05-29T06:19:41.000Z</time>
      </trkpt>
      <trkpt lat="45.22674" lon="5.73802">
        <ele>1037</ele>
        <time>2021-05-29T06:19:45.000Z</time>
      </trkpt>
      <trkpt lat="45.22671" lon="5.738">
        <ele>1035.8000488281</ele>
        <time>2021-05-29T06:19:47.000Z</time>
      </trkpt>
      <trkpt lat="45.22669" lon="5.73799">
        <ele>1035.4000244141</ele>
        <time>2021-05-29T06:19:48.000Z</time>
      </trkpt>
      <trkpt lat="45.22667" lon="5.73798">
        <ele>1034.8000488281</ele>
        <time>2021-05-29T06:19:49.000Z</time>
      </trkpt>
      <trkpt lat="45.22666" lon="5.73797">
        <ele>1034.4000244141</ele>
        <time>2021-05-29T06:19:50.000Z</time>
      </trkpt>
      <trkpt lat="45.2266" lon="5.73794">
        <ele>1033.8000488281</ele>
        <time>2021-05-29T06:19:53.000Z</time>
      </trkpt>
      <trkpt lat="45.22653" lon="5.73788">
        <ele>1033</ele>
        <time>2021-05-29T06:19:56.000Z</time>
      </trkpt>
      <trkpt lat="45.22648" lon="5.73781">
        <ele>1033</ele>
        <time>2021-05-29T06:19:59.000Z</time>
      </trkpt>
      <trkpt lat="45.22645" lon="5.73779">
        <ele>1033</ele>
        <time>2021-05-29T06:20:01.000Z</time>
      </trkpt>
      <trkpt lat="45.22641" lon="5.73773">
        <ele>1033.4000244141</ele>
        <time>2021-05-29T06:20:04.000Z</time>
      </trkpt>
      <trkpt lat="45.22638" lon="5.73769">
        <ele>1033.5999755859</ele>
        <time>2021-05-29T06:20:06.000Z</time>
      </trkpt>
      <trkpt lat="45.22631" lon="5.73766">
        <ele>1033.1999511719</ele>
        <time>2021-05-29T06:20:10.000Z</time>
      </trkpt>
      <trkpt lat="45.22626" lon="5.73762">
        <ele>1032.8000488281</ele>
        <time>2021-05-29T06:20:12.000Z</time>
      </trkpt>
      <trkpt lat="45.22615" lon="5.73756">
        <ele>1031.4000244141</ele>
        <time>2021-05-29T06:20:16.000Z</time>
      </trkpt>
      <trkpt lat="45.22611" lon="5.73752">
        <ele>1030.4000244141</ele>
        <time>2021-05-29T06:20:18.000Z</time>
      </trkpt>
      <trkpt lat="45.22609" lon="5.7375">
        <ele>1030</ele>
        <time>2021-05-29T06:20:19.000Z</time>
      </trkpt>
      <trkpt lat="45.22606" lon="5.73746">
        <ele>1029.1999511719</ele>
        <time>2021-05-29T06:20:22.000Z</time>
      </trkpt>
      <trkpt lat="45.22601" lon="5.73741">
        <ele>1028.8000488281</ele>
        <time>2021-05-29T06:20:25.000Z</time>
      </trkpt>
      <trkpt lat="45.22598" lon="5.73738">
        <ele>1028.1999511719</ele>
        <time>2021-05-29T06:20:27.000Z</time>
      </trkpt>
      <trkpt lat="45.22596" lon="5.73737">
        <ele>1027</ele>
        <time>2021-05-29T06:20:29.000Z</time>
      </trkpt>
      <trkpt lat="45.22585" lon="5.73736">
        <ele>1025.8000488281</ele>
        <time>2021-05-29T06:20:33.000Z</time>
      </trkpt>
      <trkpt lat="45.22581" lon="5.73734">
        <ele>1025.5999755859</ele>
        <time>2021-05-29T06:20:34.000Z</time>
      </trkpt>
      <trkpt lat="45.22577" lon="5.73731">
        <ele>1025.5999755859</ele>
        <time>2021-05-29T06:20:36.000Z</time>
      </trkpt>
      <trkpt lat="45.22574" lon="5.73728">
        <ele>1025.1999511719</ele>
        <time>2021-05-29T06:20:38.000Z</time>
      </trkpt>
      <trkpt lat="45.22574" lon="5.73727">
        <ele>1024.8000488281</ele>
        <time>2021-05-29T06:20:39.000Z</time>
      </trkpt>
      <trkpt lat="45.2257" lon="5.73722">
        <ele>1024</ele>
        <time>2021-05-29T06:20:42.000Z</time>
      </trkpt>
      <trkpt lat="45.22568" lon="5.73721">
        <ele>1023.799987793</ele>
        <time>2021-05-29T06:20:43.000Z</time>
      </trkpt>
      <trkpt lat="45.22567" lon="5.73719">
        <ele>1023.5999755859</ele>
        <time>2021-05-29T06:20:44.000Z</time>
      </trkpt>
      <trkpt lat="45.22562" lon="5.73717">
        <ele>1022.4000244141</ele>
        <time>2021-05-29T06:20:46.000Z</time>
      </trkpt>
      <trkpt lat="45.22558" lon="5.73713">
        <ele>1021.4000244141</ele>
        <time>2021-05-29T06:20:48.000Z</time>
      </trkpt>
      <trkpt lat="45.22555" lon="5.73712">
        <ele>1021</ele>
        <time>2021-05-29T06:20:49.000Z</time>
      </trkpt>
      <trkpt lat="45.2255" lon="5.73707">
        <ele>1019.799987793</ele>
        <time>2021-05-29T06:20:52.000Z</time>
      </trkpt>
      <trkpt lat="45.22545" lon="5.73704">
        <ele>1019.200012207</ele>
        <time>2021-05-29T06:20:54.000Z</time>
      </trkpt>
      <trkpt lat="45.22541" lon="5.73704">
        <ele>1018.799987793</ele>
        <time>2021-05-29T06:20:56.000Z</time>
      </trkpt>
      <trkpt lat="45.22537" lon="5.73703">
        <ele>1018.200012207</ele>
        <time>2021-05-29T06:21:00.000Z</time>
      </trkpt>
      <trkpt lat="45.22536" lon="5.73702">
        <ele>1017.799987793</ele>
        <time>2021-05-29T06:21:01.000Z</time>
      </trkpt>
      <trkpt lat="45.22535" lon="5.73702">
        <ele>1017.5999755859</ele>
        <time>2021-05-29T06:21:02.000Z</time>
      </trkpt>
      <trkpt lat="45.22531" lon="5.737">
        <ele>1016.200012207</ele>
        <time>2021-05-29T06:21:05.000Z</time>
      </trkpt>
      <trkpt lat="45.2253" lon="5.73699">
        <ele>1015.4000244141</ele>
        <time>2021-05-29T06:21:06.000Z</time>
      </trkpt>
      <trkpt lat="45.22529" lon="5.73699">
        <ele>1014.799987793</ele>
        <time>2021-05-29T06:21:07.000Z</time>
      </trkpt>
      <trkpt lat="45.22528" lon="5.73699">
        <ele>1014.4000244141</ele>
        <time>2021-05-29T06:21:08.000Z</time>
      </trkpt>
      <trkpt lat="45.22525" lon="5.73699">
        <ele>1013.5999755859</ele>
        <time>2021-05-29T06:21:10.000Z</time>
      </trkpt>
      <trkpt lat="45.22523" lon="5.73698">
        <ele>1013.200012207</ele>
        <time>2021-05-29T06:21:11.000Z</time>
      </trkpt>
      <trkpt lat="45.22521" lon="5.73698">
        <ele>1012.799987793</ele>
        <time>2021-05-29T06:21:13.000Z</time>
      </trkpt>
      <trkpt lat="45.22518" lon="5.73698">
        <ele>1012.5999755859</ele>
        <time>2021-05-29T06:21:14.000Z</time>
      </trkpt>
      <trkpt lat="45.22513" lon="5.73699">
        <ele>1011.4000244141</ele>
        <time>2021-05-29T06:21:17.000Z</time>
      </trkpt>
      <trkpt lat="45.22508" lon="5.73701">
        <ele>1010.200012207</ele>
        <time>2021-05-29T06:21:20.000Z</time>
      </trkpt>
      <trkpt lat="45.22505" lon="5.73702">
        <ele>1008.5999755859</ele>
        <time>2021-05-29T06:21:23.000Z</time>
      </trkpt>
      <trkpt lat="45.22504" lon="5.73703">
        <ele>1008.200012207</ele>
        <time>2021-05-29T06:21:24.000Z</time>
      </trkpt>
      <trkpt lat="45.225" lon="5.73705">
        <ele>1007.799987793</ele>
        <time>2021-05-29T06:21:26.000Z</time>
      </trkpt>
      <trkpt lat="45.22499" lon="5.73706">
        <ele>1007.5999755859</ele>
        <time>2021-05-29T06:21:27.000Z</time>
      </trkpt>
      <trkpt lat="45.22497" lon="5.73707">
        <ele>1007.200012207</ele>
        <time>2021-05-29T06:21:28.000Z</time>
      </trkpt>
      <trkpt lat="45.22494" lon="5.73708">
        <ele>1006.200012207</ele>
        <time>2021-05-29T06:21:30.000Z</time>
      </trkpt>
      <trkpt lat="45.22492" lon="5.7371">
        <ele>1004.799987793</ele>
        <time>2021-05-29T06:21:32.000Z</time>
      </trkpt>
      <trkpt lat="45.22488" lon="5.73711">
        <ele>1003.200012207</ele>
        <time>2021-05-29T06:21:35.000Z</time>
      </trkpt>
      <trkpt lat="45.22487" lon="5.73711">
        <ele>1002.799987793</ele>
        <time>2021-05-29T06:21:36.000Z</time>
      </trkpt>
      <trkpt lat="45.22481" lon="5.7371">
        <ele>1002.200012207</ele>
        <time>2021-05-29T06:21:38.000Z</time>
      </trkpt>
      <trkpt lat="45.22468" lon="5.73713">
        <ele>1002</ele>
        <time>2021-05-29T06:21:43.000Z</time>
      </trkpt>
      <trkpt lat="45.22457" lon="5.73713">
        <ele>1001.799987793</ele>
        <time>2021-05-29T06:21:49.000Z</time>
      </trkpt>
      <trkpt lat="45.22454" lon="5.73712">
        <ele>1001.4000244141</ele>
        <time>2021-05-29T06:21:51.000Z</time>
      </trkpt>
      <trkpt lat="45.22452" lon="5.73711">
        <ele>1001</ele>
        <time>2021-05-29T06:21:52.000Z</time>
      </trkpt>
      <trkpt lat="45.22444" lon="5.7371">
        <ele>1000.4000244141</ele>
        <time>2021-05-29T06:21:55.000Z</time>
      </trkpt>
      <trkpt lat="45.22443" lon="5.73709">
        <ele>1000</ele>
        <time>2021-05-29T06:21:56.000Z</time>
      </trkpt>
      <trkpt lat="45.22439" lon="5.73708">
        <ele>999</ele>
        <time>2021-05-29T06:21:59.000Z</time>
      </trkpt>
      <trkpt lat="45.22438" lon="5.73709">
        <ele>998.79998779297</ele>
        <time>2021-05-29T06:22:00.000Z</time>
      </trkpt>
      <trkpt lat="45.22438" lon="5.73709">
        <ele>997.79998779297</ele>
        <time>2021-05-29T06:22:02.000Z</time>
      </trkpt>
      <trkpt lat="45.22432" lon="5.73708">
        <ele>997.40002441406</ele>
        <time>2021-05-29T06:22:06.000Z</time>
      </trkpt>
      <trkpt lat="45.22431" lon="5.73708">
        <ele>996.79998779297</ele>
        <time>2021-05-29T06:22:07.000Z</time>
      </trkpt>
      <trkpt lat="45.22428" lon="5.73707">
        <ele>995.79998779297</ele>
        <time>2021-05-29T06:22:10.000Z</time>
      </trkpt>
      <trkpt lat="45.22426" lon="5.73705">
        <ele>994.79998779297</ele>
        <time>2021-05-29T06:22:12.000Z</time>
      </trkpt>
      <trkpt lat="45.22424" lon="5.73705">
        <ele>994.40002441406</ele>
        <time>2021-05-29T06:22:13.000Z</time>
      </trkpt>
      <trkpt lat="45.22421" lon="5.73706">
        <ele>993.59997558594</ele>
        <time>2021-05-29T06:22:15.000Z</time>
      </trkpt>
      <trkpt lat="45.22419" lon="5.73706">
        <ele>993</ele>
        <time>2021-05-29T06:22:16.000Z</time>
      </trkpt>
      <trkpt lat="45.22418" lon="5.73707">
        <ele>992.59997558594</ele>
        <time>2021-05-29T06:22:17.000Z</time>
      </trkpt>
      <trkpt lat="45.22416" lon="5.73707">
        <ele>992.20001220703</ele>
        <time>2021-05-29T06:22:18.000Z</time>
      </trkpt>
      <trkpt lat="45.22415" lon="5.73707">
        <ele>992</ele>
        <time>2021-05-29T06:22:19.000Z</time>
      </trkpt>
      <trkpt lat="45.22411" lon="5.73706">
        <ele>991.20001220703</ele>
        <time>2021-05-29T06:22:21.000Z</time>
      </trkpt>
      <trkpt lat="45.22409" lon="5.73706">
        <ele>991</ele>
        <time>2021-05-29T06:22:22.000Z</time>
      </trkpt>
      <trkpt lat="45.22403" lon="5.73707">
        <ele>990</ele>
        <time>2021-05-29T06:22:25.000Z</time>
      </trkpt>
      <trkpt lat="45.22401" lon="5.73707">
        <ele>989.59997558594</ele>
        <time>2021-05-29T06:22:26.000Z</time>
      </trkpt>
      <trkpt lat="45.22397" lon="5.73706">
        <ele>989.20001220703</ele>
        <time>2021-05-29T06:22:28.000Z</time>
      </trkpt>
      <trkpt lat="45.22387" lon="5.73701">
        <ele>988.59997558594</ele>
        <time>2021-05-29T06:22:32.000Z</time>
      </trkpt>
      <trkpt lat="45.22384" lon="5.73701">
        <ele>988.40002441406</ele>
        <time>2021-05-29T06:22:34.000Z</time>
      </trkpt>
      <trkpt lat="45.22383" lon="5.737">
        <ele>988.20001220703</ele>
        <time>2021-05-29T06:22:35.000Z</time>
      </trkpt>
      <trkpt lat="45.22379" lon="5.73696">
        <ele>988.40002441406</ele>
        <time>2021-05-29T06:22:38.000Z</time>
      </trkpt>
      <trkpt lat="45.22375" lon="5.73693">
        <ele>989.40002441406</ele>
        <time>2021-05-29T06:22:41.000Z</time>
      </trkpt>
      <trkpt lat="45.22374" lon="5.73693">
        <ele>989.79998779297</ele>
        <time>2021-05-29T06:22:42.000Z</time>
      </trkpt>
      <trkpt lat="45.22373" lon="5.73692">
        <ele>989.79998779297</ele>
        <time>2021-05-29T06:22:43.000Z</time>
      </trkpt>
      <trkpt lat="45.22371" lon="5.73692">
        <ele>990</ele>
        <time>2021-05-29T06:22:44.000Z</time>
      </trkpt>
      <trkpt lat="45.22368" lon="5.73691">
        <ele>989.79998779297</ele>
        <time>2021-05-29T06:22:46.000Z</time>
      </trkpt>
      <trkpt lat="45.22367" lon="5.7369">
        <ele>990</ele>
        <time>2021-05-29T06:22:47.000Z</time>
      </trkpt>
      <trkpt lat="45.22353" lon="5.73686">
        <ele>990.79998779297</ele>
        <time>2021-05-29T06:22:54.000Z</time>
      </trkpt>
      <trkpt lat="45.22345" lon="5.73684">
        <ele>991.79998779297</ele>
        <time>2021-05-29T06:22:58.000Z</time>
      </trkpt>
      <trkpt lat="45.22343" lon="5.73684">
        <ele>992.20001220703</ele>
        <time>2021-05-29T06:22:59.000Z</time>
      </trkpt>
      <trkpt lat="45.22337" lon="5.73683">
        <ele>992.59997558594</ele>
        <time>2021-05-29T06:23:01.000Z</time>
      </trkpt>
      <trkpt lat="45.22335" lon="5.73682">
        <ele>993</ele>
        <time>2021-05-29T06:23:03.000Z</time>
      </trkpt>
      <trkpt lat="45.22333" lon="5.73682">
        <ele>993.20001220703</ele>
        <time>2021-05-29T06:23:04.000Z</time>
      </trkpt>
      <trkpt lat="45.22328" lon="5.7368">
        <ele>993.79998779297</ele>
        <time>2021-05-29T06:23:06.000Z</time>
      </trkpt>
      <trkpt lat="45.22324" lon="5.73679">
        <ele>994.20001220703</ele>
        <time>2021-05-29T06:23:08.000Z</time>
      </trkpt>
      <trkpt lat="45.2232" lon="5.73678">
        <ele>994.59997558594</ele>
        <time>2021-05-29T06:23:10.000Z</time>
      </trkpt>
      <trkpt lat="45.22319" lon="5.73676">
        <ele>994.79998779297</ele>
        <time>2021-05-29T06:23:11.000Z</time>
      </trkpt>
      <trkpt lat="45.22317" lon="5.73674">
        <ele>995.40002441406</ele>
        <time>2021-05-29T06:23:13.000Z</time>
      </trkpt>
      <trkpt lat="45.22314" lon="5.73673">
        <ele>996.20001220703</ele>
        <time>2021-05-29T06:23:16.000Z</time>
      </trkpt>
      <trkpt lat="45.22311" lon="5.73673">
        <ele>996.59997558594</ele>
        <time>2021-05-29T06:23:18.000Z</time>
      </trkpt>
      <trkpt lat="45.22306" lon="5.73671">
        <ele>998</ele>
        <time>2021-05-29T06:23:23.000Z</time>
      </trkpt>
      <trkpt lat="45.22305" lon="5.7367">
        <ele>998.40002441406</ele>
        <time>2021-05-29T06:23:24.000Z</time>
      </trkpt>
      <trkpt lat="45.22302" lon="5.7367">
        <ele>999</ele>
        <time>2021-05-29T06:23:27.000Z</time>
      </trkpt>
      <trkpt lat="45.22298" lon="5.73669">
        <ele>1000.200012207</ele>
        <time>2021-05-29T06:23:31.000Z</time>
      </trkpt>
      <trkpt lat="45.22293" lon="5.73668">
        <ele>1001.5999755859</ele>
        <time>2021-05-29T06:23:36.000Z</time>
      </trkpt>
      <trkpt lat="45.22292" lon="5.73668">
        <ele>1002</ele>
        <time>2021-05-29T06:23:37.000Z</time>
      </trkpt>
      <trkpt lat="45.22291" lon="5.73669">
        <ele>1002.200012207</ele>
        <time>2021-05-29T06:23:38.000Z</time>
      </trkpt>
      <trkpt lat="45.22288" lon="5.73669">
        <ele>1002.5999755859</ele>
        <time>2021-05-29T06:23:40.000Z</time>
      </trkpt>
      <trkpt lat="45.22287" lon="5.73668">
        <ele>1003</ele>
        <time>2021-05-29T06:23:41.000Z</time>
      </trkpt>
      <trkpt lat="45.22284" lon="5.73667">
        <ele>1003.200012207</ele>
        <time>2021-05-29T06:23:43.000Z</time>
      </trkpt>
      <trkpt lat="45.22282" lon="5.73666">
        <ele>1003.4000244141</ele>
        <time>2021-05-29T06:23:45.000Z</time>
      </trkpt>
      <trkpt lat="45.22279" lon="5.73666">
        <ele>1004</ele>
        <time>2021-05-29T06:23:47.000Z</time>
      </trkpt>
      <trkpt lat="45.22277" lon="5.73667">
        <ele>1004.200012207</ele>
        <time>2021-05-29T06:23:48.000Z</time>
      </trkpt>
      <trkpt lat="45.22273" lon="5.73667">
        <ele>1005</ele>
        <time>2021-05-29T06:23:51.000Z</time>
      </trkpt>
      <trkpt lat="45.22272" lon="5.73667">
        <ele>1005.200012207</ele>
        <time>2021-05-29T06:23:52.000Z</time>
      </trkpt>
      <trkpt lat="45.22271" lon="5.73666">
        <ele>1005.4000244141</ele>
        <time>2021-05-29T06:23:53.000Z</time>
      </trkpt>
      <trkpt lat="45.22266" lon="5.73664">
        <ele>1006</ele>
        <time>2021-05-29T06:23:56.000Z</time>
      </trkpt>
      <trkpt lat="45.22264" lon="5.73664">
        <ele>1006.5999755859</ele>
        <time>2021-05-29T06:23:58.000Z</time>
      </trkpt>
      <trkpt lat="45.22261" lon="5.73663">
        <ele>1006.799987793</ele>
        <time>2021-05-29T06:24:00.000Z</time>
      </trkpt>
      <trkpt lat="45.22259" lon="5.73663">
        <ele>1007.200012207</ele>
        <time>2021-05-29T06:24:02.000Z</time>
      </trkpt>
      <trkpt lat="45.22257" lon="5.73662">
        <ele>1007.5999755859</ele>
        <time>2021-05-29T06:24:04.000Z</time>
      </trkpt>
      <trkpt lat="45.22256" lon="5.7366">
        <ele>1008</ele>
        <time>2021-05-29T06:24:06.000Z</time>
      </trkpt>
      <trkpt lat="45.22255" lon="5.73659">
        <ele>1008.200012207</ele>
        <time>2021-05-29T06:24:07.000Z</time>
      </trkpt>
      <trkpt lat="45.22254" lon="5.73658">
        <ele>1008.200012207</ele>
        <time>2021-05-29T06:24:08.000Z</time>
      </trkpt>
      <trkpt lat="45.22253" lon="5.73657">
        <ele>1008.4000244141</ele>
        <time>2021-05-29T06:24:09.000Z</time>
      </trkpt>
      <trkpt lat="45.2225" lon="5.73655">
        <ele>1009.200012207</ele>
        <time>2021-05-29T06:24:12.000Z</time>
      </trkpt>
      <trkpt lat="45.22249" lon="5.73653">
        <ele>1009.4000244141</ele>
        <time>2021-05-29T06:24:13.000Z</time>
      </trkpt>
      <trkpt lat="45.22247" lon="5.73652">
        <ele>1009.4000244141</ele>
        <time>2021-05-29T06:24:14.000Z</time>
      </trkpt>
      <trkpt lat="45.22237" lon="5.73644">
        <ele>1009.799987793</ele>
        <time>2021-05-29T06:24:19.000Z</time>
      </trkpt>
      <trkpt lat="45.22234" lon="5.73643">
        <ele>1009.799987793</ele>
        <time>2021-05-29T06:24:20.000Z</time>
      </trkpt>
      <trkpt lat="45.22228" lon="5.73638">
        <ele>1010.200012207</ele>
        <time>2021-05-29T06:24:24.000Z</time>
      </trkpt>
      <trkpt lat="45.22227" lon="5.73637">
        <ele>1010.200012207</ele>
        <time>2021-05-29T06:24:25.000Z</time>
      </trkpt>
      <trkpt lat="45.22225" lon="5.73634">
        <ele>1010.4000244141</ele>
        <time>2021-05-29T06:24:26.000Z</time>
      </trkpt>
      <trkpt lat="45.22222" lon="5.7363">
        <ele>1010.799987793</ele>
        <time>2021-05-29T06:24:28.000Z</time>
      </trkpt>
      <trkpt lat="45.22215" lon="5.73626">
        <ele>1011.200012207</ele>
        <time>2021-05-29T06:24:32.000Z</time>
      </trkpt>
      <trkpt lat="45.22213" lon="5.73625">
        <ele>1011.5999755859</ele>
        <time>2021-05-29T06:24:33.000Z</time>
      </trkpt>
      <trkpt lat="45.22208" lon="5.73618">
        <ele>1012.200012207</ele>
        <time>2021-05-29T06:24:37.000Z</time>
      </trkpt>
      <trkpt lat="45.22204" lon="5.73613">
        <ele>1012.5999755859</ele>
        <time>2021-05-29T06:24:39.000Z</time>
      </trkpt>
      <trkpt lat="45.22199" lon="5.73606">
        <ele>1013</ele>
        <time>2021-05-29T06:24:42.000Z</time>
      </trkpt>
      <trkpt lat="45.22196" lon="5.73602">
        <ele>1013.4000244141</ele>
        <time>2021-05-29T06:24:44.000Z</time>
      </trkpt>
      <trkpt lat="45.22193" lon="5.73599">
        <ele>1014</ele>
        <time>2021-05-29T06:24:46.000Z</time>
      </trkpt>
      <trkpt lat="45.2219" lon="5.73598">
        <ele>1014.4000244141</ele>
        <time>2021-05-29T06:24:49.000Z</time>
      </trkpt>
      <trkpt lat="45.22188" lon="5.73597">
        <ele>1014.5999755859</ele>
        <time>2021-05-29T06:24:50.000Z</time>
      </trkpt>
      <trkpt lat="45.22186" lon="5.73596">
        <ele>1015.200012207</ele>
        <time>2021-05-29T06:24:51.000Z</time>
      </trkpt>
      <trkpt lat="45.22183" lon="5.73594">
        <ele>1016</ele>
        <time>2021-05-29T06:24:54.000Z</time>
      </trkpt>
      <trkpt lat="45.22182" lon="5.73593">
        <ele>1016.200012207</ele>
        <time>2021-05-29T06:24:55.000Z</time>
      </trkpt>
      <trkpt lat="45.22181" lon="5.73591">
        <ele>1016.4000244141</ele>
        <time>2021-05-29T06:24:56.000Z</time>
      </trkpt>
      <trkpt lat="45.22179" lon="5.73589">
        <ele>1016.5999755859</ele>
        <time>2021-05-29T06:24:57.000Z</time>
      </trkpt>
      <trkpt lat="45.22177" lon="5.73584">
        <ele>1017</ele>
        <time>2021-05-29T06:25:00.000Z</time>
      </trkpt>
      <trkpt lat="45.22177" lon="5.73582">
        <ele>1017.5999755859</ele>
        <time>2021-05-29T06:25:02.000Z</time>
      </trkpt>
      <trkpt lat="45.22177" lon="5.73581">
        <ele>1018</ele>
        <time>2021-05-29T06:25:03.000Z</time>
      </trkpt>
      <trkpt lat="45.22175" lon="5.7358">
        <ele>1018.200012207</ele>
        <time>2021-05-29T06:25:04.000Z</time>
      </trkpt>
      <trkpt lat="45.22175" lon="5.73579">
        <ele>1018.200012207</ele>
        <time>2021-05-29T06:25:05.000Z</time>
      </trkpt>
      <trkpt lat="45.22174" lon="5.73579">
        <ele>1018.5999755859</ele>
        <time>2021-05-29T06:25:07.000Z</time>
      </trkpt>
      <trkpt lat="45.22173" lon="5.73579">
        <ele>1019</ele>
        <time>2021-05-29T06:25:08.000Z</time>
      </trkpt>
      <trkpt lat="45.22173" lon="5.73579">
        <ele>1019.200012207</ele>
        <time>2021-05-29T06:25:09.000Z</time>
      </trkpt>
      <trkpt lat="45.22173" lon="5.73579">
        <ele>1019.5999755859</ele>
        <time>2021-05-29T06:25:11.000Z</time>
      </trkpt>
      <trkpt lat="45.22172" lon="5.73578">
        <ele>1019.799987793</ele>
        <time>2021-05-29T06:25:12.000Z</time>
      </trkpt>
      <trkpt lat="45.22171" lon="5.73576">
        <ele>1020.200012207</ele>
        <time>2021-05-29T06:25:13.000Z</time>
      </trkpt>
      <trkpt lat="45.22169" lon="5.73574">
        <ele>1020.5999755859</ele>
        <time>2021-05-29T06:25:15.000Z</time>
      </trkpt>
      <trkpt lat="45.22168" lon="5.73572">
        <ele>1021.200012207</ele>
        <time>2021-05-29T06:25:17.000Z</time>
      </trkpt>
      <trkpt lat="45.22167" lon="5.73572">
        <ele>1021.5999755859</ele>
        <time>2021-05-29T06:25:18.000Z</time>
      </trkpt>
      <trkpt lat="45.22165" lon="5.73571">
        <ele>1021.799987793</ele>
        <time>2021-05-29T06:25:19.000Z</time>
      </trkpt>
      <trkpt lat="45.2216" lon="5.7357">
        <ele>1022.4000244141</ele>
        <time>2021-05-29T06:25:22.000Z</time>
      </trkpt>
      <trkpt lat="45.22159" lon="5.73569">
        <ele>1022.799987793</ele>
        <time>2021-05-29T06:25:23.000Z</time>
      </trkpt>
      <trkpt lat="45.22155" lon="5.73565">
        <ele>1023.4000244141</ele>
        <time>2021-05-29T06:25:25.000Z</time>
      </trkpt>
      <trkpt lat="45.22155" lon="5.73563">
        <ele>1023.5999755859</ele>
        <time>2021-05-29T06:25:26.000Z</time>
      </trkpt>
      <trkpt lat="45.22154" lon="5.73562">
        <ele>1024</ele>
        <time>2021-05-29T06:25:28.000Z</time>
      </trkpt>
      <trkpt lat="45.22151" lon="5.73561">
        <ele>1024.4000244141</ele>
        <time>2021-05-29T06:25:30.000Z</time>
      </trkpt>
      <trkpt lat="45.2215" lon="5.7356">
        <ele>1024.5999755859</ele>
        <time>2021-05-29T06:25:31.000Z</time>
      </trkpt>
      <trkpt lat="45.22148" lon="5.73561">
        <ele>1024.5999755859</ele>
        <time>2021-05-29T06:25:32.000Z</time>
      </trkpt>
      <trkpt lat="45.22148" lon="5.73561">
        <ele>1025.1999511719</ele>
        <time>2021-05-29T06:25:33.000Z</time>
      </trkpt>
      <trkpt lat="45.22145" lon="5.73561">
        <ele>1025.5999755859</ele>
        <time>2021-05-29T06:25:35.000Z</time>
      </trkpt>
      <trkpt lat="45.2214" lon="5.73559">
        <ele>1026.4000244141</ele>
        <time>2021-05-29T06:25:38.000Z</time>
      </trkpt>
      <trkpt lat="45.22139" lon="5.73559">
        <ele>1026.5999755859</ele>
        <time>2021-05-29T06:25:39.000Z</time>
      </trkpt>
      <trkpt lat="45.22134" lon="5.73556">
        <ele>1027.8000488281</ele>
        <time>2021-05-29T06:25:43.000Z</time>
      </trkpt>
      <trkpt lat="45.22132" lon="5.73555">
        <ele>1028</ele>
        <time>2021-05-29T06:25:44.000Z</time>
      </trkpt>
      <trkpt lat="45.22129" lon="5.73552">
        <ele>1029.1999511719</ele>
        <time>2021-05-29T06:25:47.000Z</time>
      </trkpt>
      <trkpt lat="45.22128" lon="5.7355">
        <ele>1029.4000244141</ele>
        <time>2021-05-29T06:25:48.000Z</time>
      </trkpt>
      <trkpt lat="45.22128" lon="5.73548">
        <ele>1029.4000244141</ele>
        <time>2021-05-29T06:25:49.000Z</time>
      </trkpt>
      <trkpt lat="45.22127" lon="5.73541">
        <ele>1030.4000244141</ele>
        <time>2021-05-29T06:25:53.000Z</time>
      </trkpt>
      <trkpt lat="45.22126" lon="5.73539">
        <ele>1031</ele>
        <time>2021-05-29T06:25:55.000Z</time>
      </trkpt>
      <trkpt lat="45.22125" lon="5.73537">
        <ele>1031.5999755859</ele>
        <time>2021-05-29T06:25:57.000Z</time>
      </trkpt>
      <trkpt lat="45.22125" lon="5.73537">
        <ele>1031.8000488281</ele>
        <time>2021-05-29T06:25:58.000Z</time>
      </trkpt>
      <trkpt lat="45.22124" lon="5.73537">
        <ele>1032.1999511719</ele>
        <time>2021-05-29T06:25:59.000Z</time>
      </trkpt>
      <trkpt lat="45.22123" lon="5.73537">
        <ele>1032.5999755859</ele>
        <time>2021-05-29T06:26:00.000Z</time>
      </trkpt>
      <trkpt lat="45.22122" lon="5.73536">
        <ele>1032.8000488281</ele>
        <time>2021-05-29T06:26:01.000Z</time>
      </trkpt>
      <trkpt lat="45.22121" lon="5.73536">
        <ele>1033</ele>
        <time>2021-05-29T06:26:03.000Z</time>
      </trkpt>
      <trkpt lat="45.22119" lon="5.73535">
        <ele>1033.8000488281</ele>
        <time>2021-05-29T06:26:05.000Z</time>
      </trkpt>
      <trkpt lat="45.22115" lon="5.73533">
        <ele>1034.5999755859</ele>
        <time>2021-05-29T06:26:07.000Z</time>
      </trkpt>
      <trkpt lat="45.22113" lon="5.73532">
        <ele>1035</ele>
        <time>2021-05-29T06:26:09.000Z</time>
      </trkpt>
      <trkpt lat="45.22111" lon="5.73531">
        <ele>1036</ele>
        <time>2021-05-29T06:26:11.000Z</time>
      </trkpt>
      <trkpt lat="45.2211" lon="5.73531">
        <ele>1036.4000244141</ele>
        <time>2021-05-29T06:26:12.000Z</time>
      </trkpt>
      <trkpt lat="45.22109" lon="5.7353">
        <ele>1036.5999755859</ele>
        <time>2021-05-29T06:26:14.000Z</time>
      </trkpt>
      <trkpt lat="45.22106" lon="5.73528">
        <ele>1037</ele>
        <time>2021-05-29T06:26:17.000Z</time>
      </trkpt>
      <trkpt lat="45.22105" lon="5.73527">
        <ele>1037.1999511719</ele>
        <time>2021-05-29T06:26:18.000Z</time>
      </trkpt>
      <trkpt lat="45.22104" lon="5.73527">
        <ele>1037.5999755859</ele>
        <time>2021-05-29T06:26:19.000Z</time>
      </trkpt>
      <trkpt lat="45.22101" lon="5.73524">
        <ele>1038.1999511719</ele>
        <time>2021-05-29T06:26:22.000Z</time>
      </trkpt>
      <trkpt lat="45.22098" lon="5.73523">
        <ele>1038.8000488281</ele>
        <time>2021-05-29T06:26:24.000Z</time>
      </trkpt>
      <trkpt lat="45.22096" lon="5.73523">
        <ele>1039.1999511719</ele>
        <time>2021-05-29T06:26:26.000Z</time>
      </trkpt>
      <trkpt lat="45.22093" lon="5.7352">
        <ele>1040</ele>
        <time>2021-05-29T06:26:30.000Z</time>
      </trkpt>
      <trkpt lat="45.22092" lon="5.73519">
        <ele>1040</ele>
        <time>2021-05-29T06:26:31.000Z</time>
      </trkpt>
      <trkpt lat="45.22089" lon="5.73516">
        <ele>1041</ele>
        <time>2021-05-29T06:26:34.000Z</time>
      </trkpt>
      <trkpt lat="45.22088" lon="5.73515">
        <ele>1041.1999511719</ele>
        <time>2021-05-29T06:26:35.000Z</time>
      </trkpt>
      <trkpt lat="45.22082" lon="5.73509">
        <ele>1041.8000488281</ele>
        <time>2021-05-29T06:26:39.000Z</time>
      </trkpt>
      <trkpt lat="45.22081" lon="5.73509">
        <ele>1042</ele>
        <time>2021-05-29T06:26:40.000Z</time>
      </trkpt>
      <trkpt lat="45.22079" lon="5.73508">
        <ele>1042.4000244141</ele>
        <time>2021-05-29T06:26:41.000Z</time>
      </trkpt>
      <trkpt lat="45.22076" lon="5.73507">
        <ele>1042.5999755859</ele>
        <time>2021-05-29T06:26:43.000Z</time>
      </trkpt>
      <trkpt lat="45.22069" lon="5.73501">
        <ele>1043.1999511719</ele>
        <time>2021-05-29T06:26:47.000Z</time>
      </trkpt>
      <trkpt lat="45.22068" lon="5.73499">
        <ele>1043.5999755859</ele>
        <time>2021-05-29T06:26:48.000Z</time>
      </trkpt>
      <trkpt lat="45.22068" lon="5.73499">
        <ele>1043.5999755859</ele>
        <time>2021-05-29T06:26:49.000Z</time>
      </trkpt>
      <trkpt lat="45.22065" lon="5.73498">
        <ele>1044.1999511719</ele>
        <time>2021-05-29T06:26:52.000Z</time>
      </trkpt>
      <trkpt lat="45.22062" lon="5.73496">
        <ele>1044.5999755859</ele>
        <time>2021-05-29T06:26:54.000Z</time>
      </trkpt>
      <trkpt lat="45.22056" lon="5.7349">
        <ele>1045.4000244141</ele>
        <time>2021-05-29T06:26:58.000Z</time>
      </trkpt>
      <trkpt lat="45.22055" lon="5.73488">
        <ele>1045.8000488281</ele>
        <time>2021-05-29T06:26:59.000Z</time>
      </trkpt>
      <trkpt lat="45.22047" lon="5.73481">
        <ele>1047</ele>
        <time>2021-05-29T06:27:05.000Z</time>
      </trkpt>
      <trkpt lat="45.22045" lon="5.73478">
        <ele>1047.5999755859</ele>
        <time>2021-05-29T06:27:07.000Z</time>
      </trkpt>
      <trkpt lat="45.22041" lon="5.73476">
        <ele>1048.4000244141</ele>
        <time>2021-05-29T06:27:10.000Z</time>
      </trkpt>
      <trkpt lat="45.22036" lon="5.73473">
        <ele>1049</ele>
        <time>2021-05-29T06:27:13.000Z</time>
      </trkpt>
      <trkpt lat="45.22035" lon="5.7347">
        <ele>1049.4000244141</ele>
        <time>2021-05-29T06:27:15.000Z</time>
      </trkpt>
      <trkpt lat="45.22035" lon="5.73469">
        <ele>1049.8000488281</ele>
        <time>2021-05-29T06:27:16.000Z</time>
      </trkpt>
      <trkpt lat="45.22029" lon="5.73463">
        <ele>1050.8000488281</ele>
        <time>2021-05-29T06:27:20.000Z</time>
      </trkpt>
      <trkpt lat="45.22023" lon="5.73457">
        <ele>1051.5999755859</ele>
        <time>2021-05-29T06:27:24.000Z</time>
      </trkpt>
      <trkpt lat="45.22022" lon="5.73456">
        <ele>1051.8000488281</ele>
        <time>2021-05-29T06:27:25.000Z</time>
      </trkpt>
      <trkpt lat="45.22012" lon="5.7345">
        <ele>1052.8000488281</ele>
        <time>2021-05-29T06:27:31.000Z</time>
      </trkpt>
      <trkpt lat="45.22008" lon="5.7345">
        <ele>1053</ele>
        <time>2021-05-29T06:27:34.000Z</time>
      </trkpt>
      <trkpt lat="45.21992" lon="5.73446">
        <ele>1052.4000244141</ele>
        <time>2021-05-29T06:27:42.000Z</time>
      </trkpt>
      <trkpt lat="45.21984" lon="5.73443">
        <ele>1051.5999755859</ele>
        <time>2021-05-29T06:27:46.000Z</time>
      </trkpt>
      <trkpt lat="45.21982" lon="5.73442">
        <ele>1051.1999511719</ele>
        <time>2021-05-29T06:27:47.000Z</time>
      </trkpt>
      <trkpt lat="45.21979" lon="5.7344">
        <ele>1050.5999755859</ele>
        <time>2021-05-29T06:27:49.000Z</time>
      </trkpt>
      <trkpt lat="45.21972" lon="5.73435">
        <ele>1049.4000244141</ele>
        <time>2021-05-29T06:27:53.000Z</time>
      </trkpt>
      <trkpt lat="45.2197" lon="5.73434">
        <ele>1049.1999511719</ele>
        <time>2021-05-29T06:27:54.000Z</time>
      </trkpt>
      <trkpt lat="45.21959" lon="5.73434">
        <ele>1048.5999755859</ele>
        <time>2021-05-29T06:28:00.000Z</time>
      </trkpt>
      <trkpt lat="45.21957" lon="5.73435">
        <ele>1048.1999511719</ele>
        <time>2021-05-29T06:28:01.000Z</time>
      </trkpt>
      <trkpt lat="45.2195" lon="5.73434">
        <ele>1048</ele>
        <time>2021-05-29T06:28:04.000Z</time>
      </trkpt>
      <trkpt lat="45.21949" lon="5.73433">
        <ele>1047.5999755859</ele>
        <time>2021-05-29T06:28:06.000Z</time>
      </trkpt>
      <trkpt lat="45.21947" lon="5.73431">
        <ele>1047.1999511719</ele>
        <time>2021-05-29T06:28:08.000Z</time>
      </trkpt>
      <trkpt lat="45.21943" lon="5.73427">
        <ele>1046.5999755859</ele>
        <time>2021-05-29T06:28:11.000Z</time>
      </trkpt>
      <trkpt lat="45.21939" lon="5.73423">
        <ele>1046</ele>
        <time>2021-05-29T06:28:13.000Z</time>
      </trkpt>
      <trkpt lat="45.21934" lon="5.73418">
        <ele>1045.5999755859</ele>
        <time>2021-05-29T06:28:17.000Z</time>
      </trkpt>
      <trkpt lat="45.21933" lon="5.73416">
        <ele>1045.4000244141</ele>
        <time>2021-05-29T06:28:18.000Z</time>
      </trkpt>
      <trkpt lat="45.21931" lon="5.73414">
        <ele>1045.1999511719</ele>
        <time>2021-05-29T06:28:19.000Z</time>
      </trkpt>
      <trkpt lat="45.2193" lon="5.73412">
        <ele>1045</ele>
        <time>2021-05-29T06:28:20.000Z</time>
      </trkpt>
      <trkpt lat="45.21927" lon="5.73406">
        <ele>1045</ele>
        <time>2021-05-29T06:28:22.000Z</time>
      </trkpt>
      <trkpt lat="45.21926" lon="5.73404">
        <ele>1045</ele>
        <time>2021-05-29T06:28:23.000Z</time>
      </trkpt>
      <trkpt lat="45.21925" lon="5.734">
        <ele>1045</ele>
        <time>2021-05-29T06:28:25.000Z</time>
      </trkpt>
      <trkpt lat="45.21921" lon="5.73398">
        <ele>1045.1999511719</ele>
        <time>2021-05-29T06:28:27.000Z</time>
      </trkpt>
      <trkpt lat="45.21909" lon="5.73391">
        <ele>1046</ele>
        <time>2021-05-29T06:28:34.000Z</time>
      </trkpt>
      <trkpt lat="45.21906" lon="5.7339">
        <ele>1046.1999511719</ele>
        <time>2021-05-29T06:28:36.000Z</time>
      </trkpt>
      <trkpt lat="45.219" lon="5.73389">
        <ele>1045.8000488281</ele>
        <time>2021-05-29T06:28:40.000Z</time>
      </trkpt>
      <trkpt lat="45.219" lon="5.73388">
        <ele>1045.5999755859</ele>
        <time>2021-05-29T06:28:41.000Z</time>
      </trkpt>
      <trkpt lat="45.21898" lon="5.73387">
        <ele>1045.5999755859</ele>
        <time>2021-05-29T06:28:42.000Z</time>
      </trkpt>
      <trkpt lat="45.21892" lon="5.73381">
        <ele>1045.5999755859</ele>
        <time>2021-05-29T06:28:47.000Z</time>
      </trkpt>
      <trkpt lat="45.21888" lon="5.73379">
        <ele>1045</ele>
        <time>2021-05-29T06:28:49.000Z</time>
      </trkpt>
      <trkpt lat="45.21887" lon="5.73379">
        <ele>1045</ele>
        <time>2021-05-29T06:28:50.000Z</time>
      </trkpt>
      <trkpt lat="45.21883" lon="5.73377">
        <ele>1045.4000244141</ele>
        <time>2021-05-29T06:28:53.000Z</time>
      </trkpt>
      <trkpt lat="45.21878" lon="5.73375">
        <ele>1045.5999755859</ele>
        <time>2021-05-29T06:28:56.000Z</time>
      </trkpt>
      <trkpt lat="45.21876" lon="5.73373">
        <ele>1046.1999511719</ele>
        <time>2021-05-29T06:28:58.000Z</time>
      </trkpt>
      <trkpt lat="45.21873" lon="5.73369">
        <ele>1046.8000488281</ele>
        <time>2021-05-29T06:29:01.000Z</time>
      </trkpt>
      <trkpt lat="45.2187" lon="5.73366">
        <ele>1047.5999755859</ele>
        <time>2021-05-29T06:29:04.000Z</time>
      </trkpt>
      <trkpt lat="45.21869" lon="5.73366">
        <ele>1048</ele>
        <time>2021-05-29T06:29:05.000Z</time>
      </trkpt>
      <trkpt lat="45.21864" lon="5.73362">
        <ele>1048.8000488281</ele>
        <time>2021-05-29T06:29:08.000Z</time>
      </trkpt>
      <trkpt lat="45.21858" lon="5.7336">
        <ele>1049.8000488281</ele>
        <time>2021-05-29T06:29:11.000Z</time>
      </trkpt>
      <trkpt lat="45.21857" lon="5.73359">
        <ele>1050.1999511719</ele>
        <time>2021-05-29T06:29:12.000Z</time>
      </trkpt>
      <trkpt lat="45.21855" lon="5.73358">
        <ele>1050.4000244141</ele>
        <time>2021-05-29T06:29:13.000Z</time>
      </trkpt>
      <trkpt lat="45.21853" lon="5.73354">
        <ele>1051.1999511719</ele>
        <time>2021-05-29T06:29:17.000Z</time>
      </trkpt>
      <trkpt lat="45.21852" lon="5.73353">
        <ele>1051.4000244141</ele>
        <time>2021-05-29T06:29:18.000Z</time>
      </trkpt>
      <trkpt lat="45.21848" lon="5.7335">
        <ele>1052.1999511719</ele>
        <time>2021-05-29T06:29:22.000Z</time>
      </trkpt>
      <trkpt lat="45.21844" lon="5.73345">
        <ele>1052.1999511719</ele>
        <time>2021-05-29T06:29:26.000Z</time>
      </trkpt>
      <trkpt lat="45.21839" lon="5.73341">
        <ele>1052.1999511719</ele>
        <time>2021-05-29T06:29:29.000Z</time>
      </trkpt>
      <trkpt lat="45.21837" lon="5.73339">
        <ele>1052.1999511719</ele>
        <time>2021-05-29T06:29:31.000Z</time>
      </trkpt>
      <trkpt lat="45.21833" lon="5.73333">
        <ele>1051.1999511719</ele>
        <time>2021-05-29T06:29:35.000Z</time>
      </trkpt>
      <trkpt lat="45.21831" lon="5.7333">
        <ele>1050.8000488281</ele>
        <time>2021-05-29T06:29:36.000Z</time>
      </trkpt>
      <trkpt lat="45.2183" lon="5.73329">
        <ele>1050.4000244141</ele>
        <time>2021-05-29T06:29:38.000Z</time>
      </trkpt>
      <trkpt lat="45.21828" lon="5.73328">
        <ele>1050.1999511719</ele>
        <time>2021-05-29T06:29:39.000Z</time>
      </trkpt>
      <trkpt lat="45.21825" lon="5.73322">
        <ele>1049</ele>
        <time>2021-05-29T06:29:42.000Z</time>
      </trkpt>
      <trkpt lat="45.21818" lon="5.73318">
        <ele>1047.8000488281</ele>
        <time>2021-05-29T06:29:46.000Z</time>
      </trkpt>
      <trkpt lat="45.21816" lon="5.73316">
        <ele>1047.5999755859</ele>
        <time>2021-05-29T06:29:47.000Z</time>
      </trkpt>
      <trkpt lat="45.21813" lon="5.73313">
        <ele>1047.1999511719</ele>
        <time>2021-05-29T06:29:49.000Z</time>
      </trkpt>
      <trkpt lat="45.21811" lon="5.73309">
        <ele>1046.5999755859</ele>
        <time>2021-05-29T06:29:51.000Z</time>
      </trkpt>
      <trkpt lat="45.21807" lon="5.73305">
        <ele>1046.1999511719</ele>
        <time>2021-05-29T06:29:53.000Z</time>
      </trkpt>
      <trkpt lat="45.21803" lon="5.73302">
        <ele>1045.4000244141</ele>
        <time>2021-05-29T06:29:55.000Z</time>
      </trkpt>
      <trkpt lat="45.21799" lon="5.73297">
        <ele>1045.1999511719</ele>
        <time>2021-05-29T06:29:57.000Z</time>
      </trkpt>
      <trkpt lat="45.21795" lon="5.73292">
        <ele>1044.4000244141</ele>
        <time>2021-05-29T06:30:00.000Z</time>
      </trkpt>
      <trkpt lat="45.21792" lon="5.73289">
        <ele>1043.4000244141</ele>
        <time>2021-05-29T06:30:03.000Z</time>
      </trkpt>
      <trkpt lat="45.21791" lon="5.73287">
        <ele>1043</ele>
        <time>2021-05-29T06:30:04.000Z</time>
      </trkpt>
      <trkpt lat="45.21788" lon="5.73284">
        <ele>1042.1999511719</ele>
        <time>2021-05-29T06:30:06.000Z</time>
      </trkpt>
      <trkpt lat="45.21788" lon="5.73283">
        <ele>1042</ele>
        <time>2021-05-29T06:30:07.000Z</time>
      </trkpt>
      <trkpt lat="45.21785" lon="5.73281">
        <ele>1041.1999511719</ele>
        <time>2021-05-29T06:30:10.000Z</time>
      </trkpt>
      <trkpt lat="45.21783" lon="5.7328">
        <ele>1041</ele>
        <time>2021-05-29T06:30:11.000Z</time>
      </trkpt>
      <trkpt lat="45.21782" lon="5.73276">
        <ele>1040.5999755859</ele>
        <time>2021-05-29T06:30:12.000Z</time>
      </trkpt>
      <trkpt lat="45.21784" lon="5.73273">
        <ele>1040</ele>
        <time>2021-05-29T06:30:14.000Z</time>
      </trkpt>
      <trkpt lat="45.21784" lon="5.73271">
        <ele>1039.5999755859</ele>
        <time>2021-05-29T06:30:15.000Z</time>
      </trkpt>
      <trkpt lat="45.21784" lon="5.73268">
        <ele>1039.4000244141</ele>
        <time>2021-05-29T06:30:16.000Z</time>
      </trkpt>
      <trkpt lat="45.21784" lon="5.73267">
        <ele>1039.1999511719</ele>
        <time>2021-05-29T06:30:17.000Z</time>
      </trkpt>
      <trkpt lat="45.21784" lon="5.73266">
        <ele>1039.1999511719</ele>
        <time>2021-05-29T06:30:18.000Z</time>
      </trkpt>
      <trkpt lat="45.21784" lon="5.73265">
        <ele>1038.5999755859</ele>
        <time>2021-05-29T06:30:20.000Z</time>
      </trkpt>
      <trkpt lat="45.21783" lon="5.73263">
        <ele>1038.1999511719</ele>
        <time>2021-05-29T06:30:22.000Z</time>
      </trkpt>
      <trkpt lat="45.21783" lon="5.73259">
        <ele>1037.1999511719</ele>
        <time>2021-05-29T06:30:24.000Z</time>
      </trkpt>
      <trkpt lat="45.21778" lon="5.73249">
        <ele>1035.8000488281</ele>
        <time>2021-05-29T06:30:29.000Z</time>
      </trkpt>
      <trkpt lat="45.21776" lon="5.73245">
        <ele>1035.5999755859</ele>
        <time>2021-05-29T06:30:31.000Z</time>
      </trkpt>
      <trkpt lat="45.21775" lon="5.73244">
        <ele>1035.4000244141</ele>
        <time>2021-05-29T06:30:32.000Z</time>
      </trkpt>
      <trkpt lat="45.21771" lon="5.73242">
        <ele>1035.8000488281</ele>
        <time>2021-05-29T06:30:35.000Z</time>
      </trkpt>
      <trkpt lat="45.21769" lon="5.73239">
        <ele>1036</ele>
        <time>2021-05-29T06:30:37.000Z</time>
      </trkpt>
      <trkpt lat="45.21767" lon="5.73234">
        <ele>1035.8000488281</ele>
        <time>2021-05-29T06:30:39.000Z</time>
      </trkpt>
      <trkpt lat="45.21766" lon="5.73231">
        <ele>1036</ele>
        <time>2021-05-29T06:30:41.000Z</time>
      </trkpt>
      <trkpt lat="45.21765" lon="5.73229">
        <ele>1035.5999755859</ele>
        <time>2021-05-29T06:30:43.000Z</time>
      </trkpt>
      <trkpt lat="45.21763" lon="5.73227">
        <ele>1035.1999511719</ele>
        <time>2021-05-29T06:30:45.000Z</time>
      </trkpt>
      <trkpt lat="45.21763" lon="5.73226">
        <ele>1034.5999755859</ele>
        <time>2021-05-29T06:30:46.000Z</time>
      </trkpt>
      <trkpt lat="45.21763" lon="5.73225">
        <ele>1034.1999511719</ele>
        <time>2021-05-29T06:30:47.000Z</time>
      </trkpt>
      <trkpt lat="45.21762" lon="5.73224">
        <ele>1033.8000488281</ele>
        <time>2021-05-29T06:30:48.000Z</time>
      </trkpt>
      <trkpt lat="45.21761" lon="5.73222">
        <ele>1033.4000244141</ele>
        <time>2021-05-29T06:30:49.000Z</time>
      </trkpt>
      <trkpt lat="45.2176" lon="5.73219">
        <ele>1033.1999511719</ele>
        <time>2021-05-29T06:30:50.000Z</time>
      </trkpt>
      <trkpt lat="45.21759" lon="5.73218">
        <ele>1033</ele>
        <time>2021-05-29T06:30:52.000Z</time>
      </trkpt>
      <trkpt lat="45.21754" lon="5.73213">
        <ele>1032.5999755859</ele>
        <time>2021-05-29T06:30:55.000Z</time>
      </trkpt>
      <trkpt lat="45.21753" lon="5.73211">
        <ele>1032.1999511719</ele>
        <time>2021-05-29T06:30:56.000Z</time>
      </trkpt>
      <trkpt lat="45.21749" lon="5.73208">
        <ele>1031.8000488281</ele>
        <time>2021-05-29T06:30:58.000Z</time>
      </trkpt>
      <trkpt lat="45.21746" lon="5.73207">
        <ele>1032.4000244141</ele>
        <time>2021-05-29T06:31:00.000Z</time>
      </trkpt>
      <trkpt lat="45.21743" lon="5.73208">
        <ele>1032.4000244141</ele>
        <time>2021-05-29T06:31:02.000Z</time>
      </trkpt>
      <trkpt lat="45.21738" lon="5.73212">
        <ele>1033</ele>
        <time>2021-05-29T06:31:07.000Z</time>
      </trkpt>
      <trkpt lat="45.21732" lon="5.73218">
        <ele>1030.8000488281</ele>
        <time>2021-05-29T06:31:15.000Z</time>
      </trkpt>
      <trkpt lat="45.21731" lon="5.73219">
        <ele>1030.5999755859</ele>
        <time>2021-05-29T06:31:16.000Z</time>
      </trkpt>
      <trkpt lat="45.21729" lon="5.73221">
        <ele>1030.1999511719</ele>
        <time>2021-05-29T06:31:19.000Z</time>
      </trkpt>
      <trkpt lat="45.21728" lon="5.73222">
        <ele>1030.1999511719</ele>
        <time>2021-05-29T06:31:20.000Z</time>
      </trkpt>
      <trkpt lat="45.21725" lon="5.73223">
        <ele>1029.5999755859</ele>
        <time>2021-05-29T06:31:23.000Z</time>
      </trkpt>
      <trkpt lat="45.21724" lon="5.73223">
        <ele>1029.4000244141</ele>
        <time>2021-05-29T06:31:24.000Z</time>
      </trkpt>
      <trkpt lat="45.21722" lon="5.73222">
        <ele>1028.4000244141</ele>
        <time>2021-05-29T06:31:26.000Z</time>
      </trkpt>
      <trkpt lat="45.21721" lon="5.73222">
        <ele>1027</ele>
        <time>2021-05-29T06:31:29.000Z</time>
      </trkpt>
      <trkpt lat="45.21719" lon="5.73223">
        <ele>1026.8000488281</ele>
        <time>2021-05-29T06:31:31.000Z</time>
      </trkpt>
      <trkpt lat="45.21719" lon="5.73224">
        <ele>1026.5999755859</ele>
        <time>2021-05-29T06:31:33.000Z</time>
      </trkpt>
      <trkpt lat="45.21719" lon="5.73225">
        <ele>1026.4000244141</ele>
        <time>2021-05-29T06:31:35.000Z</time>
      </trkpt>
      <trkpt lat="45.21719" lon="5.73226">
        <ele>1026.4000244141</ele>
        <time>2021-05-29T06:31:37.000Z</time>
      </trkpt>
      <trkpt lat="45.21719" lon="5.73227">
        <ele>1026.4000244141</ele>
        <time>2021-05-29T06:31:40.000Z</time>
      </trkpt>
      <trkpt lat="45.21719" lon="5.73227">
        <ele>1026.4000244141</ele>
        <time>2021-05-29T06:31:41.000Z</time>
      </trkpt>
      <trkpt lat="45.21719" lon="5.73227">
        <ele>1026.1999511719</ele>
        <time>2021-05-29T06:31:50.000Z</time>
      </trkpt>
      <trkpt lat="45.21719" lon="5.73226">
        <ele>1026.1999511719</ele>
        <time>2021-05-29T06:31:56.000Z</time>
      </trkpt>
      <trkpt lat="45.21719" lon="5.73226">
        <ele>1026.1999511719</ele>
        <time>2021-05-29T06:32:00.000Z</time>
      </trkpt>
      <trkpt lat="45.21719" lon="5.73225">
        <ele>1026.1999511719</ele>
        <time>2021-05-29T06:32:04.000Z</time>
      </trkpt>
      <trkpt lat="45.21719" lon="5.73226">
        <ele>1026.1999511719</ele>
        <time>2021-05-29T06:32:07.000Z</time>
      </trkpt>
      <trkpt lat="45.21719" lon="5.73226">
        <ele>1026</ele>
        <time>2021-05-29T06:32:14.000Z</time>
      </trkpt>
      <trkpt lat="45.21719" lon="5.73226">
        <ele>1026</ele>
        <time>2021-05-29T06:32:20.000Z</time>
      </trkpt>
      <trkpt lat="45.21717" lon="5.73226">
        <ele>1025.8000488281</ele>
        <time>2021-05-29T06:32:31.000Z</time>
      </trkpt>
      <trkpt lat="45.21716" lon="5.7322">
        <ele>1026</ele>
        <time>2021-05-29T06:32:43.000Z</time>
      </trkpt>
      <trkpt lat="45.21712" lon="5.73208">
        <ele>1025.8000488281</ele>
        <time>2021-05-29T06:32:49.000Z</time>
      </trkpt>
      <trkpt lat="45.21709" lon="5.73206">
        <ele>1025.8000488281</ele>
        <time>2021-05-29T06:32:51.000Z</time>
      </trkpt>
      <trkpt lat="45.21704" lon="5.73197">
        <ele>1025.4000244141</ele>
        <time>2021-05-29T06:32:55.000Z</time>
      </trkpt>
      <trkpt lat="45.217" lon="5.73191">
        <ele>1024.8000488281</ele>
        <time>2021-05-29T06:32:58.000Z</time>
      </trkpt>
      <trkpt lat="45.21699" lon="5.73189">
        <ele>1024.8000488281</ele>
        <time>2021-05-29T06:32:59.000Z</time>
      </trkpt>
      <trkpt lat="45.21697" lon="5.73186">
        <ele>1024.5999755859</ele>
        <time>2021-05-29T06:33:01.000Z</time>
      </trkpt>
      <trkpt lat="45.21693" lon="5.73181">
        <ele>1024.4000244141</ele>
        <time>2021-05-29T06:33:03.000Z</time>
      </trkpt>
      <trkpt lat="45.21693" lon="5.73181">
        <ele>1024.4000244141</ele>
        <time>2021-05-29T06:33:04.000Z</time>
      </trkpt>
      <trkpt lat="45.21691" lon="5.73176">
        <ele>1023.4000244141</ele>
        <time>2021-05-29T06:33:07.000Z</time>
      </trkpt>
      <trkpt lat="45.21688" lon="5.73171">
        <ele>1022.200012207</ele>
        <time>2021-05-29T06:33:10.000Z</time>
      </trkpt>
      <trkpt lat="45.21686" lon="5.7317">
        <ele>1021.799987793</ele>
        <time>2021-05-29T06:33:11.000Z</time>
      </trkpt>
      <trkpt lat="45.21685" lon="5.73169">
        <ele>1021</ele>
        <time>2021-05-29T06:33:13.000Z</time>
      </trkpt>
      <trkpt lat="45.21682" lon="5.73165">
        <ele>1020</ele>
        <time>2021-05-29T06:33:17.000Z</time>
      </trkpt>
      <trkpt lat="45.21681" lon="5.73162">
        <ele>1018.799987793</ele>
        <time>2021-05-29T06:33:21.000Z</time>
      </trkpt>
      <trkpt lat="45.21679" lon="5.73157">
        <ele>1018.200012207</ele>
        <time>2021-05-29T06:33:24.000Z</time>
      </trkpt>
      <trkpt lat="45.21678" lon="5.73156">
        <ele>1017.799987793</ele>
        <time>2021-05-29T06:33:25.000Z</time>
      </trkpt>
      <trkpt lat="45.21677" lon="5.73154">
        <ele>1016.799987793</ele>
        <time>2021-05-29T06:33:27.000Z</time>
      </trkpt>
      <trkpt lat="45.21674" lon="5.73149">
        <ele>1015.4000244141</ele>
        <time>2021-05-29T06:33:31.000Z</time>
      </trkpt>
      <trkpt lat="45.21673" lon="5.73148">
        <ele>1014.799987793</ele>
        <time>2021-05-29T06:33:33.000Z</time>
      </trkpt>
      <trkpt lat="45.21672" lon="5.73148">
        <ele>1014</ele>
        <time>2021-05-29T06:33:35.000Z</time>
      </trkpt>
      <trkpt lat="45.21672" lon="5.73147">
        <ele>1013.5999755859</ele>
        <time>2021-05-29T06:33:36.000Z</time>
      </trkpt>
      <trkpt lat="45.21669" lon="5.73148">
        <ele>1012.799987793</ele>
        <time>2021-05-29T06:33:38.000Z</time>
      </trkpt>
      <trkpt lat="45.21669" lon="5.73149">
        <ele>1012.200012207</ele>
        <time>2021-05-29T06:33:39.000Z</time>
      </trkpt>
      <trkpt lat="45.21668" lon="5.73148">
        <ele>1011.799987793</ele>
        <time>2021-05-29T06:33:40.000Z</time>
      </trkpt>
      <trkpt lat="45.21665" lon="5.73147">
        <ele>1011.200012207</ele>
        <time>2021-05-29T06:33:42.000Z</time>
      </trkpt>
      <trkpt lat="45.21663" lon="5.73145">
        <ele>1010.799987793</ele>
        <time>2021-05-29T06:33:44.000Z</time>
      </trkpt>
      <trkpt lat="45.21663" lon="5.73144">
        <ele>1010.4000244141</ele>
        <time>2021-05-29T06:33:45.000Z</time>
      </trkpt>
      <trkpt lat="45.21662" lon="5.73145">
        <ele>1009.5999755859</ele>
        <time>2021-05-29T06:33:47.000Z</time>
      </trkpt>
      <trkpt lat="45.21661" lon="5.73145">
        <ele>1008.799987793</ele>
        <time>2021-05-29T06:33:48.000Z</time>
      </trkpt>
      <trkpt lat="45.21658" lon="5.73143">
        <ele>1008.4000244141</ele>
        <time>2021-05-29T06:33:49.000Z</time>
      </trkpt>
      <trkpt lat="45.21657" lon="5.73143">
        <ele>1007.5999755859</ele>
        <time>2021-05-29T06:33:51.000Z</time>
      </trkpt>
      <trkpt lat="45.21655" lon="5.73143">
        <ele>1007.4000244141</ele>
        <time>2021-05-29T06:33:53.000Z</time>
      </trkpt>
      <trkpt lat="45.2165" lon="5.73143">
        <ele>1006</ele>
        <time>2021-05-29T06:33:57.000Z</time>
      </trkpt>
      <trkpt lat="45.21645" lon="5.73143">
        <ele>1004.799987793</ele>
        <time>2021-05-29T06:34:01.000Z</time>
      </trkpt>
      <trkpt lat="45.21641" lon="5.73145">
        <ele>1003.4000244141</ele>
        <time>2021-05-29T06:34:04.000Z</time>
      </trkpt>
      <trkpt lat="45.21638" lon="5.73146">
        <ele>1002.799987793</ele>
        <time>2021-05-29T06:34:06.000Z</time>
      </trkpt>
      <trkpt lat="45.21635" lon="5.73143">
        <ele>1002.5999755859</ele>
        <time>2021-05-29T06:34:07.000Z</time>
      </trkpt>
      <trkpt lat="45.21632" lon="5.73142">
        <ele>1002</ele>
        <time>2021-05-29T06:34:09.000Z</time>
      </trkpt>
      <trkpt lat="45.2163" lon="5.73141">
        <ele>1001.4000244141</ele>
        <time>2021-05-29T06:34:10.000Z</time>
      </trkpt>
      <trkpt lat="45.21628" lon="5.7314">
        <ele>1000.799987793</ele>
        <time>2021-05-29T06:34:11.000Z</time>
      </trkpt>
      <trkpt lat="45.21623" lon="5.73137">
        <ele>1000</ele>
        <time>2021-05-29T06:34:13.000Z</time>
      </trkpt>
      <trkpt lat="45.2162" lon="5.73137">
        <ele>999.59997558594</ele>
        <time>2021-05-29T06:34:14.000Z</time>
      </trkpt>
      <trkpt lat="45.21615" lon="5.73135">
        <ele>998.40002441406</ele>
        <time>2021-05-29T06:34:16.000Z</time>
      </trkpt>
      <trkpt lat="45.21611" lon="5.73134">
        <ele>997.79998779297</ele>
        <time>2021-05-29T06:34:18.000Z</time>
      </trkpt>
      <trkpt lat="45.21609" lon="5.73133">
        <ele>997.40002441406</ele>
        <time>2021-05-29T06:34:19.000Z</time>
      </trkpt>
      <trkpt lat="45.21606" lon="5.73133">
        <ele>997.20001220703</ele>
        <time>2021-05-29T06:34:20.000Z</time>
      </trkpt>
      <trkpt lat="45.21602" lon="5.73129">
        <ele>996</ele>
        <time>2021-05-29T06:34:22.000Z</time>
      </trkpt>
      <trkpt lat="45.21599" lon="5.73126">
        <ele>995.20001220703</ele>
        <time>2021-05-29T06:34:24.000Z</time>
      </trkpt>
      <trkpt lat="45.21597" lon="5.73126">
        <ele>994.59997558594</ele>
        <time>2021-05-29T06:34:25.000Z</time>
      </trkpt>
      <trkpt lat="45.21594" lon="5.73127">
        <ele>994.20001220703</ele>
        <time>2021-05-29T06:34:27.000Z</time>
      </trkpt>
      <trkpt lat="45.21592" lon="5.73127">
        <ele>993.59997558594</ele>
        <time>2021-05-29T06:34:28.000Z</time>
      </trkpt>
      <trkpt lat="45.2159" lon="5.73128">
        <ele>993.40002441406</ele>
        <time>2021-05-29T06:34:29.000Z</time>
      </trkpt>
      <trkpt lat="45.21588" lon="5.73129">
        <ele>992</ele>
        <time>2021-05-29T06:34:31.000Z</time>
      </trkpt>
      <trkpt lat="45.21587" lon="5.73131">
        <ele>991.40002441406</ele>
        <time>2021-05-29T06:34:33.000Z</time>
      </trkpt>
      <trkpt lat="45.21587" lon="5.73132">
        <ele>991</ele>
        <time>2021-05-29T06:34:34.000Z</time>
      </trkpt>
      <trkpt lat="45.21587" lon="5.73133">
        <ele>990.40002441406</ele>
        <time>2021-05-29T06:34:35.000Z</time>
      </trkpt>
      <trkpt lat="45.21587" lon="5.73136">
        <ele>989.59997558594</ele>
        <time>2021-05-29T06:34:37.000Z</time>
      </trkpt>
      <trkpt lat="45.21587" lon="5.73137">
        <ele>989.20001220703</ele>
        <time>2021-05-29T06:34:38.000Z</time>
      </trkpt>
      <trkpt lat="45.21586" lon="5.73139">
        <ele>988.20001220703</ele>
        <time>2021-05-29T06:34:40.000Z</time>
      </trkpt>
      <trkpt lat="45.21586" lon="5.7314">
        <ele>988</ele>
        <time>2021-05-29T06:34:41.000Z</time>
      </trkpt>
      <trkpt lat="45.21585" lon="5.73142">
        <ele>988</ele>
        <time>2021-05-29T06:34:42.000Z</time>
      </trkpt>
      <trkpt lat="45.21583" lon="5.73143">
        <ele>986.79998779297</ele>
        <time>2021-05-29T06:34:45.000Z</time>
      </trkpt>
      <trkpt lat="45.21583" lon="5.73143">
        <ele>986.40002441406</ele>
        <time>2021-05-29T06:34:46.000Z</time>
      </trkpt>
      <trkpt lat="45.21583" lon="5.73144">
        <ele>986</ele>
        <time>2021-05-29T06:34:47.000Z</time>
      </trkpt>
      <trkpt lat="45.21582" lon="5.73145">
        <ele>985.59997558594</ele>
        <time>2021-05-29T06:34:48.000Z</time>
      </trkpt>
      <trkpt lat="45.21582" lon="5.73149">
        <ele>984.40002441406</ele>
        <time>2021-05-29T06:34:51.000Z</time>
      </trkpt>
      <trkpt lat="45.21581" lon="5.73152">
        <ele>983</ele>
        <time>2021-05-29T06:34:53.000Z</time>
      </trkpt>
      <trkpt lat="45.2158" lon="5.73153">
        <ele>982.40002441406</ele>
        <time>2021-05-29T06:34:54.000Z</time>
      </trkpt>
      <trkpt lat="45.2158" lon="5.73156">
        <ele>981.59997558594</ele>
        <time>2021-05-29T06:34:56.000Z</time>
      </trkpt>
      <trkpt lat="45.21579" lon="5.73159">
        <ele>981.20001220703</ele>
        <time>2021-05-29T06:34:58.000Z</time>
      </trkpt>
      <trkpt lat="45.21576" lon="5.73159">
        <ele>980.20001220703</ele>
        <time>2021-05-29T06:35:00.000Z</time>
      </trkpt>
      <trkpt lat="45.21574" lon="5.7316">
        <ele>979</ele>
        <time>2021-05-29T06:35:02.000Z</time>
      </trkpt>
      <trkpt lat="45.21573" lon="5.73164">
        <ele>977.59997558594</ele>
        <time>2021-05-29T06:35:05.000Z</time>
      </trkpt>
      <trkpt lat="45.21573" lon="5.73168">
        <ele>976.20001220703</ele>
        <time>2021-05-29T06:35:07.000Z</time>
      </trkpt>
      <trkpt lat="45.21573" lon="5.73172">
        <ele>974.79998779297</ele>
        <time>2021-05-29T06:35:11.000Z</time>
      </trkpt>
      <trkpt lat="45.21574" lon="5.73176">
        <ele>973.79998779297</ele>
        <time>2021-05-29T06:35:14.000Z</time>
      </trkpt>
      <trkpt lat="45.21576" lon="5.73181">
        <ele>972.40002441406</ele>
        <time>2021-05-29T06:35:18.000Z</time>
      </trkpt>
      <trkpt lat="45.21578" lon="5.73182">
        <ele>972</ele>
        <time>2021-05-29T06:35:19.000Z</time>
      </trkpt>
      <trkpt lat="45.21581" lon="5.73185">
        <ele>971.20001220703</ele>
        <time>2021-05-29T06:35:21.000Z</time>
      </trkpt>
      <trkpt lat="45.21588" lon="5.73191">
        <ele>970</ele>
        <time>2021-05-29T06:35:25.000Z</time>
      </trkpt>
      <trkpt lat="45.21593" lon="5.73197">
        <ele>968.79998779297</ele>
        <time>2021-05-29T06:35:28.000Z</time>
      </trkpt>
      <trkpt lat="45.216" lon="5.73203">
        <ele>967.79998779297</ele>
        <time>2021-05-29T06:35:31.000Z</time>
      </trkpt>
      <trkpt lat="45.21602" lon="5.73206">
        <ele>967.40002441406</ele>
        <time>2021-05-29T06:35:32.000Z</time>
      </trkpt>
      <trkpt lat="45.21608" lon="5.73214">
        <ele>966.40002441406</ele>
        <time>2021-05-29T06:35:37.000Z</time>
      </trkpt>
      <trkpt lat="45.21609" lon="5.73216">
        <ele>966</ele>
        <time>2021-05-29T06:35:38.000Z</time>
      </trkpt>
      <trkpt lat="45.2161" lon="5.73221">
        <ele>964.79998779297</ele>
        <time>2021-05-29T06:35:40.000Z</time>
      </trkpt>
      <trkpt lat="45.21612" lon="5.73225">
        <ele>963.40002441406</ele>
        <time>2021-05-29T06:35:43.000Z</time>
      </trkpt>
      <trkpt lat="45.21613" lon="5.73226">
        <ele>963</ele>
        <time>2021-05-29T06:35:44.000Z</time>
      </trkpt>
      <trkpt lat="45.21615" lon="5.73228">
        <ele>962</ele>
        <time>2021-05-29T06:35:46.000Z</time>
      </trkpt>
      <trkpt lat="45.21616" lon="5.73231">
        <ele>961.20001220703</ele>
        <time>2021-05-29T06:35:48.000Z</time>
      </trkpt>
      <trkpt lat="45.21618" lon="5.73233">
        <ele>961</ele>
        <time>2021-05-29T06:35:49.000Z</time>
      </trkpt>
      <trkpt lat="45.2162" lon="5.73239">
        <ele>960.40002441406</ele>
        <time>2021-05-29T06:35:52.000Z</time>
      </trkpt>
      <trkpt lat="45.21622" lon="5.73245">
        <ele>959.40002441406</ele>
        <time>2021-05-29T06:35:55.000Z</time>
      </trkpt>
      <trkpt lat="45.21626" lon="5.73249">
        <ele>958.20001220703</ele>
        <time>2021-05-29T06:35:57.000Z</time>
      </trkpt>
      <trkpt lat="45.21631" lon="5.73257">
        <ele>957</ele>
        <time>2021-05-29T06:36:01.000Z</time>
      </trkpt>
      <trkpt lat="45.21635" lon="5.73266">
        <ele>956</ele>
        <time>2021-05-29T06:36:04.000Z</time>
      </trkpt>
      <trkpt lat="45.21639" lon="5.73276">
        <ele>954.59997558594</ele>
        <time>2021-05-29T06:36:07.000Z</time>
      </trkpt>
      <trkpt lat="45.21644" lon="5.73287">
        <ele>953.59997558594</ele>
        <time>2021-05-29T06:36:11.000Z</time>
      </trkpt>
      <trkpt lat="45.21645" lon="5.7329">
        <ele>953.59997558594</ele>
        <time>2021-05-29T06:36:12.000Z</time>
      </trkpt>
      <trkpt lat="45.21646" lon="5.73298">
        <ele>952.40002441406</ele>
        <time>2021-05-29T06:36:15.000Z</time>
      </trkpt>
      <trkpt lat="45.21645" lon="5.73301">
        <ele>951.79998779297</ele>
        <time>2021-05-29T06:36:16.000Z</time>
      </trkpt>
      <trkpt lat="45.21645" lon="5.73306">
        <ele>951.20001220703</ele>
        <time>2021-05-29T06:36:18.000Z</time>
      </trkpt>
      <trkpt lat="45.21647" lon="5.73316">
        <ele>949.79998779297</ele>
        <time>2021-05-29T06:36:22.000Z</time>
      </trkpt>
      <trkpt lat="45.21648" lon="5.73318">
        <ele>949.40002441406</ele>
        <time>2021-05-29T06:36:23.000Z</time>
      </trkpt>
      <trkpt lat="45.21649" lon="5.73322">
        <ele>948</ele>
        <time>2021-05-29T06:36:25.000Z</time>
      </trkpt>
      <trkpt lat="45.2165" lon="5.73324">
        <ele>947.40002441406</ele>
        <time>2021-05-29T06:36:26.000Z</time>
      </trkpt>
      <trkpt lat="45.2165" lon="5.73326">
        <ele>947</ele>
        <time>2021-05-29T06:36:28.000Z</time>
      </trkpt>
      <trkpt lat="45.21651" lon="5.73328">
        <ele>946.79998779297</ele>
        <time>2021-05-29T06:36:29.000Z</time>
      </trkpt>
      <trkpt lat="45.21655" lon="5.73332">
        <ele>945.40002441406</ele>
        <time>2021-05-29T06:36:32.000Z</time>
      </trkpt>
      <trkpt lat="45.21655" lon="5.73333">
        <ele>945.20001220703</ele>
        <time>2021-05-29T06:36:33.000Z</time>
      </trkpt>
      <trkpt lat="45.21651" lon="5.73332">
        <ele>944.40002441406</ele>
        <time>2021-05-29T06:36:36.000Z</time>
      </trkpt>
      <trkpt lat="45.21646" lon="5.73328">
        <ele>943.40002441406</ele>
        <time>2021-05-29T06:36:39.000Z</time>
      </trkpt>
      <trkpt lat="45.21643" lon="5.73323">
        <ele>942.79998779297</ele>
        <time>2021-05-29T06:36:41.000Z</time>
      </trkpt>
      <trkpt lat="45.21638" lon="5.73318">
        <ele>942.20001220703</ele>
        <time>2021-05-29T06:36:43.000Z</time>
      </trkpt>
      <trkpt lat="45.21638" lon="5.73318">
        <ele>941.79998779297</ele>
        <time>2021-05-29T06:36:44.000Z</time>
      </trkpt>
      <trkpt lat="45.21635" lon="5.73316">
        <ele>941</ele>
        <time>2021-05-29T06:36:46.000Z</time>
      </trkpt>
      <trkpt lat="45.21632" lon="5.73312">
        <ele>940.59997558594</ele>
        <time>2021-05-29T06:36:48.000Z</time>
      </trkpt>
      <trkpt lat="45.21629" lon="5.73309">
        <ele>939.59997558594</ele>
        <time>2021-05-29T06:36:50.000Z</time>
      </trkpt>
      <trkpt lat="45.21623" lon="5.73303">
        <ele>938.59997558594</ele>
        <time>2021-05-29T06:36:54.000Z</time>
      </trkpt>
      <trkpt lat="45.2162" lon="5.73299">
        <ele>937.79998779297</ele>
        <time>2021-05-29T06:36:56.000Z</time>
      </trkpt>
      <trkpt lat="45.21618" lon="5.73298">
        <ele>937.59997558594</ele>
        <time>2021-05-29T06:36:57.000Z</time>
      </trkpt>
      <trkpt lat="45.21607" lon="5.73294">
        <ele>936.20001220703</ele>
        <time>2021-05-29T06:37:03.000Z</time>
      </trkpt>
      <trkpt lat="45.21604" lon="5.73293">
        <ele>935.40002441406</ele>
        <time>2021-05-29T06:37:06.000Z</time>
      </trkpt>
      <trkpt lat="45.21601" lon="5.73292">
        <ele>935.20001220703</ele>
        <time>2021-05-29T06:37:08.000Z</time>
      </trkpt>
      <trkpt lat="45.21595" lon="5.73288">
        <ele>934.20001220703</ele>
        <time>2021-05-29T06:37:11.000Z</time>
      </trkpt>
      <trkpt lat="45.21592" lon="5.73287">
        <ele>933.79998779297</ele>
        <time>2021-05-29T06:37:12.000Z</time>
      </trkpt>
      <trkpt lat="45.21587" lon="5.73287">
        <ele>932.40002441406</ele>
        <time>2021-05-29T06:37:15.000Z</time>
      </trkpt>
      <trkpt lat="45.21586" lon="5.73287">
        <ele>932.20001220703</ele>
        <time>2021-05-29T06:37:16.000Z</time>
      </trkpt>
      <trkpt lat="45.21585" lon="5.73286">
        <ele>932</ele>
        <time>2021-05-29T06:37:17.000Z</time>
      </trkpt>
      <trkpt lat="45.21583" lon="5.73286">
        <ele>931.40002441406</ele>
        <time>2021-05-29T06:37:18.000Z</time>
      </trkpt>
      <trkpt lat="45.2158" lon="5.73285">
        <ele>930.40002441406</ele>
        <time>2021-05-29T06:37:20.000Z</time>
      </trkpt>
      <trkpt lat="45.21579" lon="5.73284">
        <ele>930</ele>
        <time>2021-05-29T06:37:23.000Z</time>
      </trkpt>
      <trkpt lat="45.21575" lon="5.73283">
        <ele>929.20001220703</ele>
        <time>2021-05-29T06:37:27.000Z</time>
      </trkpt>
      <trkpt lat="45.21574" lon="5.73283">
        <ele>928.79998779297</ele>
        <time>2021-05-29T06:37:28.000Z</time>
      </trkpt>
      <trkpt lat="45.21573" lon="5.73284">
        <ele>928.59997558594</ele>
        <time>2021-05-29T06:37:30.000Z</time>
      </trkpt>
      <trkpt lat="45.21571" lon="5.73285">
        <ele>928.20001220703</ele>
        <time>2021-05-29T06:37:32.000Z</time>
      </trkpt>
      <trkpt lat="45.21569" lon="5.73285">
        <ele>928</ele>
        <time>2021-05-29T06:37:33.000Z</time>
      </trkpt>
      <trkpt lat="45.21564" lon="5.73285">
        <ele>926.59997558594</ele>
        <time>2021-05-29T06:37:36.000Z</time>
      </trkpt>
      <trkpt lat="45.21561" lon="5.73285">
        <ele>925.59997558594</ele>
        <time>2021-05-29T06:37:38.000Z</time>
      </trkpt>
      <trkpt lat="45.2156" lon="5.73285">
        <ele>925.40002441406</ele>
        <time>2021-05-29T06:37:39.000Z</time>
      </trkpt>
      <trkpt lat="45.21555" lon="5.73288">
        <ele>924.20001220703</ele>
        <time>2021-05-29T06:37:42.000Z</time>
      </trkpt>
      <trkpt lat="45.2155" lon="5.73289">
        <ele>923.20001220703</ele>
        <time>2021-05-29T06:37:45.000Z</time>
      </trkpt>
      <trkpt lat="45.21545" lon="5.73288">
        <ele>921.59997558594</ele>
        <time>2021-05-29T06:37:48.000Z</time>
      </trkpt>
      <trkpt lat="45.21545" lon="5.73288">
        <ele>920.20001220703</ele>
        <time>2021-05-29T06:37:50.000Z</time>
      </trkpt>
      <trkpt lat="45.21546" lon="5.73289">
        <ele>919.79998779297</ele>
        <time>2021-05-29T06:37:51.000Z</time>
      </trkpt>
      <trkpt lat="45.21547" lon="5.73291">
        <ele>919</ele>
        <time>2021-05-29T06:37:53.000Z</time>
      </trkpt>
      <trkpt lat="45.21547" lon="5.73294">
        <ele>918.40002441406</ele>
        <time>2021-05-29T06:37:55.000Z</time>
      </trkpt>
      <trkpt lat="45.21548" lon="5.73295">
        <ele>917.79998779297</ele>
        <time>2021-05-29T06:37:56.000Z</time>
      </trkpt>
      <trkpt lat="45.2155" lon="5.73297">
        <ele>916.79998779297</ele>
        <time>2021-05-29T06:37:59.000Z</time>
      </trkpt>
      <trkpt lat="45.2155" lon="5.73298">
        <ele>916.40002441406</ele>
        <time>2021-05-29T06:38:00.000Z</time>
      </trkpt>
      <trkpt lat="45.21552" lon="5.733">
        <ele>915.40002441406</ele>
        <time>2021-05-29T06:38:03.000Z</time>
      </trkpt>
      <trkpt lat="45.21554" lon="5.73299">
        <ele>914.79998779297</ele>
        <time>2021-05-29T06:38:05.000Z</time>
      </trkpt>
      <trkpt lat="45.21555" lon="5.73299">
        <ele>914.59997558594</ele>
        <time>2021-05-29T06:38:06.000Z</time>
      </trkpt>
      <trkpt lat="45.21556" lon="5.733">
        <ele>914.20001220703</ele>
        <time>2021-05-29T06:38:08.000Z</time>
      </trkpt>
      <trkpt lat="45.21557" lon="5.73301">
        <ele>913.59997558594</ele>
        <time>2021-05-29T06:38:09.000Z</time>
      </trkpt>
      <trkpt lat="45.21558" lon="5.73302">
        <ele>913.20001220703</ele>
        <time>2021-05-29T06:38:10.000Z</time>
      </trkpt>
      <trkpt lat="45.21559" lon="5.73304">
        <ele>912.20001220703</ele>
        <time>2021-05-29T06:38:12.000Z</time>
      </trkpt>
      <trkpt lat="45.2156" lon="5.73304">
        <ele>912</ele>
        <time>2021-05-29T06:38:13.000Z</time>
      </trkpt>
      <trkpt lat="45.21561" lon="5.73307">
        <ele>911</ele>
        <time>2021-05-29T06:38:16.000Z</time>
      </trkpt>
      <trkpt lat="45.21564" lon="5.73314">
        <ele>909.79998779297</ele>
        <time>2021-05-29T06:38:19.000Z</time>
      </trkpt>
      <trkpt lat="45.21564" lon="5.73315">
        <ele>909.40002441406</ele>
        <time>2021-05-29T06:38:20.000Z</time>
      </trkpt>
      <trkpt lat="45.21566" lon="5.73318">
        <ele>908</ele>
        <time>2021-05-29T06:38:22.000Z</time>
      </trkpt>
      <trkpt lat="45.21566" lon="5.73319">
        <ele>907.20001220703</ele>
        <time>2021-05-29T06:38:23.000Z</time>
      </trkpt>
      <trkpt lat="45.21567" lon="5.7332">
        <ele>906.79998779297</ele>
        <time>2021-05-29T06:38:24.000Z</time>
      </trkpt>
      <trkpt lat="45.21569" lon="5.73325">
        <ele>905.79998779297</ele>
        <time>2021-05-29T06:38:28.000Z</time>
      </trkpt>
      <trkpt lat="45.2157" lon="5.73326">
        <ele>905.40002441406</ele>
        <time>2021-05-29T06:38:29.000Z</time>
      </trkpt>
      <trkpt lat="45.21575" lon="5.73328">
        <ele>904.79998779297</ele>
        <time>2021-05-29T06:38:34.000Z</time>
      </trkpt>
      <trkpt lat="45.21578" lon="5.7333">
        <ele>904.40002441406</ele>
        <time>2021-05-29T06:38:36.000Z</time>
      </trkpt>
      <trkpt lat="45.21587" lon="5.73336">
        <ele>904.59997558594</ele>
        <time>2021-05-29T06:38:40.000Z</time>
      </trkpt>
      <trkpt lat="45.21591" lon="5.73338">
        <ele>905.40002441406</ele>
        <time>2021-05-29T06:38:42.000Z</time>
      </trkpt>
      <trkpt lat="45.21597" lon="5.73344">
        <ele>906.40002441406</ele>
        <time>2021-05-29T06:38:46.000Z</time>
      </trkpt>
      <trkpt lat="45.216" lon="5.73347">
        <ele>907</ele>
        <time>2021-05-29T06:38:48.000Z</time>
      </trkpt>
      <trkpt lat="45.21606" lon="5.73356">
        <ele>907.59997558594</ele>
        <time>2021-05-29T06:38:51.000Z</time>
      </trkpt>
      <trkpt lat="45.21611" lon="5.73362">
        <ele>908.79998779297</ele>
        <time>2021-05-29T06:38:55.000Z</time>
      </trkpt>
      <trkpt lat="45.21613" lon="5.73363">
        <ele>909</ele>
        <time>2021-05-29T06:38:56.000Z</time>
      </trkpt>
      <trkpt lat="45.21618" lon="5.73367">
        <ele>910</ele>
        <time>2021-05-29T06:38:59.000Z</time>
      </trkpt>
      <trkpt lat="45.21621" lon="5.73371">
        <ele>910.79998779297</ele>
        <time>2021-05-29T06:39:02.000Z</time>
      </trkpt>
      <trkpt lat="45.21622" lon="5.73372">
        <ele>911.20001220703</ele>
        <time>2021-05-29T06:39:03.000Z</time>
      </trkpt>
      <trkpt lat="45.21625" lon="5.73374">
        <ele>911.59997558594</ele>
        <time>2021-05-29T06:39:05.000Z</time>
      </trkpt>
      <trkpt lat="45.21626" lon="5.73375">
        <ele>911.79998779297</ele>
        <time>2021-05-29T06:39:06.000Z</time>
      </trkpt>
      <trkpt lat="45.21627" lon="5.73376">
        <ele>912.20001220703</ele>
        <time>2021-05-29T06:39:07.000Z</time>
      </trkpt>
      <trkpt lat="45.21628" lon="5.73379">
        <ele>912.40002441406</ele>
        <time>2021-05-29T06:39:08.000Z</time>
      </trkpt>
      <trkpt lat="45.21633" lon="5.73386">
        <ele>913.20001220703</ele>
        <time>2021-05-29T06:39:12.000Z</time>
      </trkpt>
      <trkpt lat="45.21636" lon="5.73388">
        <ele>913.59997558594</ele>
        <time>2021-05-29T06:39:14.000Z</time>
      </trkpt>
      <trkpt lat="45.21641" lon="5.73395">
        <ele>914.79998779297</ele>
        <time>2021-05-29T06:39:19.000Z</time>
      </trkpt>
      <trkpt lat="45.21647" lon="5.73403">
        <ele>915.20001220703</ele>
        <time>2021-05-29T06:39:23.000Z</time>
      </trkpt>
      <trkpt lat="45.2165" lon="5.73412">
        <ele>915.59997558594</ele>
        <time>2021-05-29T06:39:26.000Z</time>
      </trkpt>
      <trkpt lat="45.21652" lon="5.73416">
        <ele>915.79998779297</ele>
        <time>2021-05-29T06:39:28.000Z</time>
      </trkpt>
      <trkpt lat="45.21656" lon="5.73422">
        <ele>916.20001220703</ele>
        <time>2021-05-29T06:39:31.000Z</time>
      </trkpt>
      <trkpt lat="45.21657" lon="5.73426">
        <ele>916.20001220703</ele>
        <time>2021-05-29T06:39:33.000Z</time>
      </trkpt>
      <trkpt lat="45.2166" lon="5.73434">
        <ele>917</ele>
        <time>2021-05-29T06:39:36.000Z</time>
      </trkpt>
      <trkpt lat="45.21665" lon="5.7345">
        <ele>918</ele>
        <time>2021-05-29T06:39:42.000Z</time>
      </trkpt>
      <trkpt lat="45.21665" lon="5.73453">
        <ele>918.20001220703</ele>
        <time>2021-05-29T06:39:43.000Z</time>
      </trkpt>
      <trkpt lat="45.2167" lon="5.73465">
        <ele>919.20001220703</ele>
        <time>2021-05-29T06:39:47.000Z</time>
      </trkpt>
      <trkpt lat="45.21674" lon="5.73478">
        <ele>920.20001220703</ele>
        <time>2021-05-29T06:39:52.000Z</time>
      </trkpt>
      <trkpt lat="45.21677" lon="5.73483">
        <ele>920.20001220703</ele>
        <time>2021-05-29T06:39:54.000Z</time>
      </trkpt>
      <trkpt lat="45.21685" lon="5.7349">
        <ele>921.40002441406</ele>
        <time>2021-05-29T06:39:58.000Z</time>
      </trkpt>
      <trkpt lat="45.21689" lon="5.73492">
        <ele>921.59997558594</ele>
        <time>2021-05-29T06:40:00.000Z</time>
      </trkpt>
      <trkpt lat="45.21701" lon="5.73492">
        <ele>922.20001220703</ele>
        <time>2021-05-29T06:40:06.000Z</time>
      </trkpt>
      <trkpt lat="45.21703" lon="5.73492">
        <ele>922.40002441406</ele>
        <time>2021-05-29T06:40:07.000Z</time>
      </trkpt>
      <trkpt lat="45.21712" lon="5.73496">
        <ele>923</ele>
        <time>2021-05-29T06:40:12.000Z</time>
      </trkpt>
      <trkpt lat="45.21716" lon="5.73501">
        <ele>923.40002441406</ele>
        <time>2021-05-29T06:40:15.000Z</time>
      </trkpt>
      <trkpt lat="45.21719" lon="5.73505">
        <ele>923.40002441406</ele>
        <time>2021-05-29T06:40:17.000Z</time>
      </trkpt>
      <trkpt lat="45.2172" lon="5.73506">
        <ele>923.59997558594</ele>
        <time>2021-05-29T06:40:18.000Z</time>
      </trkpt>
      <trkpt lat="45.21726" lon="5.73513">
        <ele>923.59997558594</ele>
        <time>2021-05-29T06:40:22.000Z</time>
      </trkpt>
      <trkpt lat="45.21738" lon="5.7352">
        <ele>923.20001220703</ele>
        <time>2021-05-29T06:40:28.000Z</time>
      </trkpt>
      <trkpt lat="45.21749" lon="5.73521">
        <ele>923.59997558594</ele>
        <time>2021-05-29T06:40:32.000Z</time>
      </trkpt>
      <trkpt lat="45.21755" lon="5.73522">
        <ele>924.20001220703</ele>
        <time>2021-05-29T06:40:35.000Z</time>
      </trkpt>
      <trkpt lat="45.21757" lon="5.73522">
        <ele>924.40002441406</ele>
        <time>2021-05-29T06:40:36.000Z</time>
      </trkpt>
      <trkpt lat="45.2177" lon="5.73529">
        <ele>923.79998779297</ele>
        <time>2021-05-29T06:40:41.000Z</time>
      </trkpt>
      <trkpt lat="45.21773" lon="5.7353">
        <ele>923.59997558594</ele>
        <time>2021-05-29T06:40:42.000Z</time>
      </trkpt>
      <trkpt lat="45.21776" lon="5.73532">
        <ele>923.40002441406</ele>
        <time>2021-05-29T06:40:43.000Z</time>
      </trkpt>
      <trkpt lat="45.21777" lon="5.73533">
        <ele>923.20001220703</ele>
        <time>2021-05-29T06:40:44.000Z</time>
      </trkpt>
      <trkpt lat="45.2178" lon="5.73537">
        <ele>922.20001220703</ele>
        <time>2021-05-29T06:40:46.000Z</time>
      </trkpt>
      <trkpt lat="45.2178" lon="5.73539">
        <ele>921.79998779297</ele>
        <time>2021-05-29T06:40:47.000Z</time>
      </trkpt>
      <trkpt lat="45.21782" lon="5.73541">
        <ele>921.59997558594</ele>
        <time>2021-05-29T06:40:48.000Z</time>
      </trkpt>
      <trkpt lat="45.21786" lon="5.73545">
        <ele>921</ele>
        <time>2021-05-29T06:40:50.000Z</time>
      </trkpt>
      <trkpt lat="45.2179" lon="5.73548">
        <ele>919.79998779297</ele>
        <time>2021-05-29T06:40:52.000Z</time>
      </trkpt>
      <trkpt lat="45.21793" lon="5.73556">
        <ele>918.20001220703</ele>
        <time>2021-05-29T06:40:57.000Z</time>
      </trkpt>
      <trkpt lat="45.21795" lon="5.73559">
        <ele>917.40002441406</ele>
        <time>2021-05-29T06:40:59.000Z</time>
      </trkpt>
      <trkpt lat="45.21796" lon="5.73561">
        <ele>917</ele>
        <time>2021-05-29T06:41:00.000Z</time>
      </trkpt>
      <trkpt lat="45.21798" lon="5.73564">
        <ele>916.20001220703</ele>
        <time>2021-05-29T06:41:02.000Z</time>
      </trkpt>
      <trkpt lat="45.21799" lon="5.73566">
        <ele>915.59997558594</ele>
        <time>2021-05-29T06:41:03.000Z</time>
      </trkpt>
      <trkpt lat="45.21801" lon="5.73567">
        <ele>915.20001220703</ele>
        <time>2021-05-29T06:41:04.000Z</time>
      </trkpt>
      <trkpt lat="45.21802" lon="5.73569">
        <ele>915</ele>
        <time>2021-05-29T06:41:05.000Z</time>
      </trkpt>
      <trkpt lat="45.21806" lon="5.73572">
        <ele>914.40002441406</ele>
        <time>2021-05-29T06:41:07.000Z</time>
      </trkpt>
      <trkpt lat="45.2181" lon="5.73578">
        <ele>913.20001220703</ele>
        <time>2021-05-29T06:41:10.000Z</time>
      </trkpt>
      <trkpt lat="45.21811" lon="5.7358">
        <ele>912.79998779297</ele>
        <time>2021-05-29T06:41:11.000Z</time>
      </trkpt>
      <trkpt lat="45.21812" lon="5.73581">
        <ele>912.40002441406</ele>
        <time>2021-05-29T06:41:12.000Z</time>
      </trkpt>
      <trkpt lat="45.21817" lon="5.73588">
        <ele>912</ele>
        <time>2021-05-29T06:41:14.000Z</time>
      </trkpt>
      <trkpt lat="45.21821" lon="5.73593">
        <ele>911.40002441406</ele>
        <time>2021-05-29T06:41:16.000Z</time>
      </trkpt>
      <trkpt lat="45.21826" lon="5.73597">
        <ele>910.79998779297</ele>
        <time>2021-05-29T06:41:18.000Z</time>
      </trkpt>
      <trkpt lat="45.21831" lon="5.73602">
        <ele>910.40002441406</ele>
        <time>2021-05-29T06:41:20.000Z</time>
      </trkpt>
      <trkpt lat="45.21832" lon="5.73605">
        <ele>910</ele>
        <time>2021-05-29T06:41:21.000Z</time>
      </trkpt>
      <trkpt lat="45.21834" lon="5.73608">
        <ele>909.79998779297</ele>
        <time>2021-05-29T06:41:22.000Z</time>
      </trkpt>
      <trkpt lat="45.21836" lon="5.73613">
        <ele>909.59997558594</ele>
        <time>2021-05-29T06:41:23.000Z</time>
      </trkpt>
      <trkpt lat="45.21836" lon="5.73614">
        <ele>909.59997558594</ele>
        <time>2021-05-29T06:41:25.000Z</time>
      </trkpt>
      <trkpt lat="45.21838" lon="5.73616">
        <ele>909.40002441406</ele>
        <time>2021-05-29T06:41:27.000Z</time>
      </trkpt>
      <trkpt lat="45.21837" lon="5.73621">
        <ele>909.20001220703</ele>
        <time>2021-05-29T06:41:31.000Z</time>
      </trkpt>
      <trkpt lat="45.21836" lon="5.73622">
        <ele>909.20001220703</ele>
        <time>2021-05-29T06:41:33.000Z</time>
      </trkpt>
      <trkpt lat="45.21836" lon="5.73624">
        <ele>909.20001220703</ele>
        <time>2021-05-29T06:41:35.000Z</time>
      </trkpt>
      <trkpt lat="45.21837" lon="5.73626">
        <ele>909.20001220703</ele>
        <time>2021-05-29T06:41:39.000Z</time>
      </trkpt>
      <trkpt lat="45.21838" lon="5.73626">
        <ele>909.20001220703</ele>
        <time>2021-05-29T06:41:41.000Z</time>
      </trkpt>
      <trkpt lat="45.21838" lon="5.73626">
        <ele>909.20001220703</ele>
        <time>2021-05-29T06:41:43.000Z</time>
      </trkpt>
      <trkpt lat="45.21838" lon="5.73626">
        <ele>909.20001220703</ele>
        <time>2021-05-29T06:41:44.000Z</time>
      </trkpt>
      <trkpt lat="45.21838" lon="5.73626">
        <ele>909.20001220703</ele>
        <time>2021-05-29T06:41:45.000Z</time>
      </trkpt>
      <trkpt lat="45.21839" lon="5.73627">
        <ele>909.20001220703</ele>
        <time>2021-05-29T06:41:46.000Z</time>
      </trkpt>
      <trkpt lat="45.21839" lon="5.73627">
        <ele>909.20001220703</ele>
        <time>2021-05-29T06:41:47.000Z</time>
      </trkpt>
      <trkpt lat="45.21839" lon="5.73627">
        <ele>909.20001220703</ele>
        <time>2021-05-29T06:41:48.000Z</time>
      </trkpt>
      <trkpt lat="45.21839" lon="5.73627">
        <ele>909.20001220703</ele>
        <time>2021-05-29T06:41:49.000Z</time>
      </trkpt>
      <trkpt lat="45.21839" lon="5.73627">
        <ele>909.20001220703</ele>
        <time>2021-05-29T06:41:50.000Z</time>
      </trkpt>
      <trkpt lat="45.21839" lon="5.73627">
        <ele>909.20001220703</ele>
        <time>2021-05-29T06:41:51.000Z</time>
      </trkpt>
      <trkpt lat="45.21839" lon="5.73627">
        <ele>909.20001220703</ele>
        <time>2021-05-29T06:41:52.000Z</time>
      </trkpt>
      <trkpt lat="45.21839" lon="5.73627">
        <ele>909.20001220703</ele>
        <time>2021-05-29T06:41:55.000Z</time>
      </trkpt>
      <trkpt lat="45.21839" lon="5.73627">
        <ele>909</ele>
        <time>2021-05-29T06:41:59.000Z</time>
      </trkpt>
      <trkpt lat="45.21839" lon="5.73627">
        <ele>909</ele>
        <time>2021-05-29T06:42:01.000Z</time>
      </trkpt>
      <trkpt lat="45.21839" lon="5.73627">
        <ele>908.40002441406</ele>
        <time>2021-05-29T06:42:03.000Z</time>
      </trkpt>
      <trkpt lat="45.21838" lon="5.73623">
        <ele>907.79998779297</ele>
        <time>2021-05-29T06:42:06.000Z</time>
      </trkpt>
      <trkpt lat="45.21837" lon="5.73622">
        <ele>907.59997558594</ele>
        <time>2021-05-29T06:42:07.000Z</time>
      </trkpt>
      <trkpt lat="45.21836" lon="5.7362">
        <ele>907.40002441406</ele>
        <time>2021-05-29T06:42:08.000Z</time>
      </trkpt>
      <trkpt lat="45.21834" lon="5.73618">
        <ele>907.20001220703</ele>
        <time>2021-05-29T06:42:09.000Z</time>
      </trkpt>
      <trkpt lat="45.21831" lon="5.73614">
        <ele>906.79998779297</ele>
        <time>2021-05-29T06:42:11.000Z</time>
      </trkpt>
      <trkpt lat="45.21829" lon="5.73612">
        <ele>906.79998779297</ele>
        <time>2021-05-29T06:42:12.000Z</time>
      </trkpt>
      <trkpt lat="45.21816" lon="5.73606">
        <ele>906.59997558594</ele>
        <time>2021-05-29T06:42:18.000Z</time>
      </trkpt>
      <trkpt lat="45.21808" lon="5.73603">
        <ele>906.40002441406</ele>
        <time>2021-05-29T06:42:21.000Z</time>
      </trkpt>
      <trkpt lat="45.21801" lon="5.73598">
        <ele>906.40002441406</ele>
        <time>2021-05-29T06:42:25.000Z</time>
      </trkpt>
      <trkpt lat="45.21799" lon="5.73596">
        <ele>906.40002441406</ele>
        <time>2021-05-29T06:42:26.000Z</time>
      </trkpt>
      <trkpt lat="45.21798" lon="5.73594">
        <ele>906.40002441406</ele>
        <time>2021-05-29T06:42:27.000Z</time>
      </trkpt>
      <trkpt lat="45.21795" lon="5.73591">
        <ele>906.40002441406</ele>
        <time>2021-05-29T06:42:29.000Z</time>
      </trkpt>
      <trkpt lat="45.21784" lon="5.7358">
        <ele>907</ele>
        <time>2021-05-29T06:42:33.000Z</time>
      </trkpt>
      <trkpt lat="45.21782" lon="5.73577">
        <ele>907</ele>
        <time>2021-05-29T06:42:36.000Z</time>
      </trkpt>
      <trkpt lat="45.21782" lon="5.73576">
        <ele>907</ele>
        <time>2021-05-29T06:42:37.000Z</time>
      </trkpt>
      <trkpt lat="45.21782" lon="5.73576">
        <ele>906.79998779297</ele>
        <time>2021-05-29T06:42:40.000Z</time>
      </trkpt>
      <trkpt lat="45.21783" lon="5.73576">
        <ele>906.79998779297</ele>
        <time>2021-05-29T06:42:41.000Z</time>
      </trkpt>
      <trkpt lat="45.21781" lon="5.73574">
        <ele>907.20001220703</ele>
        <time>2021-05-29T06:42:49.000Z</time>
      </trkpt>
      <trkpt lat="45.21781" lon="5.73574">
        <ele>907.20001220703</ele>
        <time>2021-05-29T06:42:55.000Z</time>
      </trkpt>
      <trkpt lat="45.21781" lon="5.73574">
        <ele>907.20001220703</ele>
        <time>2021-05-29T06:42:57.000Z</time>
      </trkpt>
      <trkpt lat="45.21781" lon="5.73574">
        <ele>907</ele>
        <time>2021-05-29T06:43:00.000Z</time>
      </trkpt>
      <trkpt lat="45.21781" lon="5.73573">
        <ele>906.79998779297</ele>
        <time>2021-05-29T06:43:06.000Z</time>
      </trkpt>
      <trkpt lat="45.21781" lon="5.73571">
        <ele>906.59997558594</ele>
        <time>2021-05-29T06:43:10.000Z</time>
      </trkpt>
      <trkpt lat="45.21778" lon="5.73565">
        <ele>907</ele>
        <time>2021-05-29T06:43:28.000Z</time>
      </trkpt>
      <trkpt lat="45.21776" lon="5.73564">
        <ele>907</ele>
        <time>2021-05-29T06:43:39.000Z</time>
      </trkpt>
      <trkpt lat="45.21776" lon="5.73564">
        <ele>907</ele>
        <time>2021-05-29T06:43:41.000Z</time>
      </trkpt>
      <trkpt lat="45.21776" lon="5.73564">
        <ele>907</ele>
        <time>2021-05-29T06:43:42.000Z</time>
      </trkpt>
      <trkpt lat="45.21775" lon="5.73563">
        <ele>906.79998779297</ele>
        <time>2021-05-29T06:43:48.000Z</time>
      </trkpt>
      <trkpt lat="45.21774" lon="5.73562">
        <ele>906.79998779297</ele>
        <time>2021-05-29T06:43:57.000Z</time>
      </trkpt>
      <trkpt lat="45.21774" lon="5.73558">
        <ele>906.79998779297</ele>
        <time>2021-05-29T06:44:04.000Z</time>
      </trkpt>
      <trkpt lat="45.21769" lon="5.73555">
        <ele>906.79998779297</ele>
        <time>2021-05-29T06:44:17.000Z</time>
      </trkpt>
      <trkpt lat="45.21764" lon="5.73554">
        <ele>908.40002441406</ele>
        <time>2021-05-29T06:44:22.000Z</time>
      </trkpt>
      <trkpt lat="45.21762" lon="5.73554">
        <ele>908.79998779297</ele>
        <time>2021-05-29T06:44:23.000Z</time>
      </trkpt>
      <trkpt lat="45.21757" lon="5.73553">
        <ele>909.20001220703</ele>
        <time>2021-05-29T06:44:26.000Z</time>
      </trkpt>
      <trkpt lat="45.21755" lon="5.73553">
        <ele>909.59997558594</ele>
        <time>2021-05-29T06:44:27.000Z</time>
      </trkpt>
      <trkpt lat="45.21749" lon="5.73554">
        <ele>910.20001220703</ele>
        <time>2021-05-29T06:44:30.000Z</time>
      </trkpt>
      <trkpt lat="45.21746" lon="5.73555">
        <ele>910.20001220703</ele>
        <time>2021-05-29T06:44:32.000Z</time>
      </trkpt>
      <trkpt lat="45.21743" lon="5.73557">
        <ele>910.40002441406</ele>
        <time>2021-05-29T06:44:34.000Z</time>
      </trkpt>
      <trkpt lat="45.21742" lon="5.73557">
        <ele>910.40002441406</ele>
        <time>2021-05-29T06:44:35.000Z</time>
      </trkpt>
      <trkpt lat="45.21738" lon="5.73559">
        <ele>910.40002441406</ele>
        <time>2021-05-29T06:44:38.000Z</time>
      </trkpt>
      <trkpt lat="45.21733" lon="5.73556">
        <ele>910.40002441406</ele>
        <time>2021-05-29T06:44:40.000Z</time>
      </trkpt>
      <trkpt lat="45.21727" lon="5.73546">
        <ele>910</ele>
        <time>2021-05-29T06:44:44.000Z</time>
      </trkpt>
      <trkpt lat="45.21725" lon="5.73544">
        <ele>909.59997558594</ele>
        <time>2021-05-29T06:44:45.000Z</time>
      </trkpt>
      <trkpt lat="45.21715" lon="5.7354">
        <ele>908.40002441406</ele>
        <time>2021-05-29T06:44:50.000Z</time>
      </trkpt>
      <trkpt lat="45.21713" lon="5.73539">
        <ele>907.40002441406</ele>
        <time>2021-05-29T06:44:51.000Z</time>
      </trkpt>
      <trkpt lat="45.21711" lon="5.73539">
        <ele>907</ele>
        <time>2021-05-29T06:44:52.000Z</time>
      </trkpt>
      <trkpt lat="45.21706" lon="5.7354">
        <ele>905.59997558594</ele>
        <time>2021-05-29T06:44:55.000Z</time>
      </trkpt>
      <trkpt lat="45.21704" lon="5.73541">
        <ele>905.20001220703</ele>
        <time>2021-05-29T06:44:56.000Z</time>
      </trkpt>
      <trkpt lat="45.217" lon="5.7354">
        <ele>904.40002441406</ele>
        <time>2021-05-29T06:44:58.000Z</time>
      </trkpt>
      <trkpt lat="45.21691" lon="5.73539">
        <ele>903.40002441406</ele>
        <time>2021-05-29T06:45:02.000Z</time>
      </trkpt>
      <trkpt lat="45.21689" lon="5.73539">
        <ele>903.20001220703</ele>
        <time>2021-05-29T06:45:03.000Z</time>
      </trkpt>
      <trkpt lat="45.21686" lon="5.73541">
        <ele>902.79998779297</ele>
        <time>2021-05-29T06:45:05.000Z</time>
      </trkpt>
      <trkpt lat="45.21682" lon="5.73543">
        <ele>901.59997558594</ele>
        <time>2021-05-29T06:45:07.000Z</time>
      </trkpt>
      <trkpt lat="45.21678" lon="5.73545">
        <ele>900.79998779297</ele>
        <time>2021-05-29T06:45:09.000Z</time>
      </trkpt>
      <trkpt lat="45.21677" lon="5.73545">
        <ele>900.40002441406</ele>
        <time>2021-05-29T06:45:10.000Z</time>
      </trkpt>
      <trkpt lat="45.21675" lon="5.73546">
        <ele>899</ele>
        <time>2021-05-29T06:45:13.000Z</time>
      </trkpt>
      <trkpt lat="45.21675" lon="5.73546">
        <ele>898.79998779297</ele>
        <time>2021-05-29T06:45:14.000Z</time>
      </trkpt>
      <trkpt lat="45.21676" lon="5.73546">
        <ele>897.79998779297</ele>
        <time>2021-05-29T06:45:16.000Z</time>
      </trkpt>
      <trkpt lat="45.21679" lon="5.73544">
        <ele>897</ele>
        <time>2021-05-29T06:45:19.000Z</time>
      </trkpt>
      <trkpt lat="45.2168" lon="5.73544">
        <ele>896.40002441406</ele>
        <time>2021-05-29T06:45:20.000Z</time>
      </trkpt>
      <trkpt lat="45.2168" lon="5.73543">
        <ele>896.20001220703</ele>
        <time>2021-05-29T06:45:21.000Z</time>
      </trkpt>
      <trkpt lat="45.21683" lon="5.73543">
        <ele>895.40002441406</ele>
        <time>2021-05-29T06:45:23.000Z</time>
      </trkpt>
      <trkpt lat="45.21685" lon="5.73543">
        <ele>895</ele>
        <time>2021-05-29T06:45:24.000Z</time>
      </trkpt>
      <trkpt lat="45.21686" lon="5.73544">
        <ele>894.59997558594</ele>
        <time>2021-05-29T06:45:25.000Z</time>
      </trkpt>
      <trkpt lat="45.21687" lon="5.73544">
        <ele>894.20001220703</ele>
        <time>2021-05-29T06:45:26.000Z</time>
      </trkpt>
      <trkpt lat="45.21692" lon="5.73547">
        <ele>893.20001220703</ele>
        <time>2021-05-29T06:45:29.000Z</time>
      </trkpt>
      <trkpt lat="45.21694" lon="5.73549">
        <ele>892.59997558594</ele>
        <time>2021-05-29T06:45:30.000Z</time>
      </trkpt>
      <trkpt lat="45.21697" lon="5.73553">
        <ele>891.59997558594</ele>
        <time>2021-05-29T06:45:33.000Z</time>
      </trkpt>
      <trkpt lat="45.217" lon="5.73558">
        <ele>890.40002441406</ele>
        <time>2021-05-29T06:45:36.000Z</time>
      </trkpt>
      <trkpt lat="45.21699" lon="5.73561">
        <ele>889.40002441406</ele>
        <time>2021-05-29T06:45:37.000Z</time>
      </trkpt>
      <trkpt lat="45.21697" lon="5.73561">
        <ele>889</ele>
        <time>2021-05-29T06:45:40.000Z</time>
      </trkpt>
      <trkpt lat="45.21696" lon="5.73561">
        <ele>888.20001220703</ele>
        <time>2021-05-29T06:45:41.000Z</time>
      </trkpt>
      <trkpt lat="45.21692" lon="5.73565">
        <ele>887</ele>
        <time>2021-05-29T06:45:45.000Z</time>
      </trkpt>
      <trkpt lat="45.2169" lon="5.73565">
        <ele>886.79998779297</ele>
        <time>2021-05-29T06:45:46.000Z</time>
      </trkpt>
      <trkpt lat="45.21688" lon="5.73564">
        <ele>886.59997558594</ele>
        <time>2021-05-29T06:45:47.000Z</time>
      </trkpt>
      <trkpt lat="45.21686" lon="5.73564">
        <ele>885.79998779297</ele>
        <time>2021-05-29T06:45:48.000Z</time>
      </trkpt>
      <trkpt lat="45.21683" lon="5.73564">
        <ele>885</ele>
        <time>2021-05-29T06:45:50.000Z</time>
      </trkpt>
      <trkpt lat="45.21681" lon="5.73563">
        <ele>884.79998779297</ele>
        <time>2021-05-29T06:45:51.000Z</time>
      </trkpt>
      <trkpt lat="45.21679" lon="5.73562">
        <ele>884.40002441406</ele>
        <time>2021-05-29T06:45:52.000Z</time>
      </trkpt>
      <trkpt lat="45.21674" lon="5.73563">
        <ele>883.59997558594</ele>
        <time>2021-05-29T06:45:55.000Z</time>
      </trkpt>
      <trkpt lat="45.21673" lon="5.73565">
        <ele>883.20001220703</ele>
        <time>2021-05-29T06:45:56.000Z</time>
      </trkpt>
      <trkpt lat="45.21668" lon="5.73567">
        <ele>882.59997558594</ele>
        <time>2021-05-29T06:45:59.000Z</time>
      </trkpt>
      <trkpt lat="45.21663" lon="5.73568">
        <ele>881.20001220703</ele>
        <time>2021-05-29T06:46:02.000Z</time>
      </trkpt>
      <trkpt lat="45.21662" lon="5.73568">
        <ele>881</ele>
        <time>2021-05-29T06:46:03.000Z</time>
      </trkpt>
      <trkpt lat="45.21658" lon="5.7357">
        <ele>880</ele>
        <time>2021-05-29T06:46:06.000Z</time>
      </trkpt>
      <trkpt lat="45.21655" lon="5.73571">
        <ele>879</ele>
        <time>2021-05-29T06:46:08.000Z</time>
      </trkpt>
      <trkpt lat="45.21652" lon="5.73571">
        <ele>878</ele>
        <time>2021-05-29T06:46:10.000Z</time>
      </trkpt>
      <trkpt lat="45.2165" lon="5.73571">
        <ele>877.79998779297</ele>
        <time>2021-05-29T06:46:11.000Z</time>
      </trkpt>
      <trkpt lat="45.21646" lon="5.7357">
        <ele>877.20001220703</ele>
        <time>2021-05-29T06:46:14.000Z</time>
      </trkpt>
      <trkpt lat="45.21645" lon="5.73569">
        <ele>877</ele>
        <time>2021-05-29T06:46:15.000Z</time>
      </trkpt>
      <trkpt lat="45.2164" lon="5.73564">
        <ele>876.20001220703</ele>
        <time>2021-05-29T06:46:18.000Z</time>
      </trkpt>
      <trkpt lat="45.21638" lon="5.73562">
        <ele>875.79998779297</ele>
        <time>2021-05-29T06:46:19.000Z</time>
      </trkpt>
      <trkpt lat="45.21636" lon="5.7356">
        <ele>875</ele>
        <time>2021-05-29T06:46:20.000Z</time>
      </trkpt>
      <trkpt lat="45.21635" lon="5.73557">
        <ele>874.59997558594</ele>
        <time>2021-05-29T06:46:21.000Z</time>
      </trkpt>
      <trkpt lat="45.21629" lon="5.73549">
        <ele>873.40002441406</ele>
        <time>2021-05-29T06:46:25.000Z</time>
      </trkpt>
      <trkpt lat="45.21625" lon="5.73542">
        <ele>871.79998779297</ele>
        <time>2021-05-29T06:46:28.000Z</time>
      </trkpt>
      <trkpt lat="45.21622" lon="5.73539">
        <ele>870.79998779297</ele>
        <time>2021-05-29T06:46:30.000Z</time>
      </trkpt>
      <trkpt lat="45.21621" lon="5.73539">
        <ele>870.59997558594</ele>
        <time>2021-05-29T06:46:31.000Z</time>
      </trkpt>
      <trkpt lat="45.21618" lon="5.7354">
        <ele>869.59997558594</ele>
        <time>2021-05-29T06:46:34.000Z</time>
      </trkpt>
      <trkpt lat="45.21619" lon="5.73543">
        <ele>869.40002441406</ele>
        <time>2021-05-29T06:46:35.000Z</time>
      </trkpt>
      <trkpt lat="45.2162" lon="5.73551">
        <ele>868.59997558594</ele>
        <time>2021-05-29T06:46:38.000Z</time>
      </trkpt>
      <trkpt lat="45.2162" lon="5.73558">
        <ele>867</ele>
        <time>2021-05-29T06:46:41.000Z</time>
      </trkpt>
      <trkpt lat="45.21621" lon="5.73561">
        <ele>866.59997558594</ele>
        <time>2021-05-29T06:46:42.000Z</time>
      </trkpt>
      <trkpt lat="45.21623" lon="5.73569">
        <ele>865.79998779297</ele>
        <time>2021-05-29T06:46:45.000Z</time>
      </trkpt>
      <trkpt lat="45.21625" lon="5.73574">
        <ele>864.40002441406</ele>
        <time>2021-05-29T06:46:47.000Z</time>
      </trkpt>
      <trkpt lat="45.21626" lon="5.73577">
        <ele>863.59997558594</ele>
        <time>2021-05-29T06:46:49.000Z</time>
      </trkpt>
      <trkpt lat="45.21626" lon="5.73578">
        <ele>863.40002441406</ele>
        <time>2021-05-29T06:46:50.000Z</time>
      </trkpt>
      <trkpt lat="45.21623" lon="5.73579">
        <ele>862.20001220703</ele>
        <time>2021-05-29T06:46:54.000Z</time>
      </trkpt>
      <trkpt lat="45.21618" lon="5.73576">
        <ele>860.79998779297</ele>
        <time>2021-05-29T06:46:57.000Z</time>
      </trkpt>
      <trkpt lat="45.21614" lon="5.73573">
        <ele>859.59997558594</ele>
        <time>2021-05-29T06:46:59.000Z</time>
      </trkpt>
      <trkpt lat="45.2161" lon="5.73569">
        <ele>858.40002441406</ele>
        <time>2021-05-29T06:47:02.000Z</time>
      </trkpt>
      <trkpt lat="45.21609" lon="5.73567">
        <ele>857.79998779297</ele>
        <time>2021-05-29T06:47:03.000Z</time>
      </trkpt>
      <trkpt lat="45.21607" lon="5.73565">
        <ele>857.40002441406</ele>
        <time>2021-05-29T06:47:04.000Z</time>
      </trkpt>
      <trkpt lat="45.21604" lon="5.73562">
        <ele>856.20001220703</ele>
        <time>2021-05-29T06:47:06.000Z</time>
      </trkpt>
      <trkpt lat="45.216" lon="5.73556">
        <ele>855.20001220703</ele>
        <time>2021-05-29T06:47:09.000Z</time>
      </trkpt>
      <trkpt lat="45.21597" lon="5.73554">
        <ele>854.59997558594</ele>
        <time>2021-05-29T06:47:11.000Z</time>
      </trkpt>
      <trkpt lat="45.21596" lon="5.73551">
        <ele>854.20001220703</ele>
        <time>2021-05-29T06:47:12.000Z</time>
      </trkpt>
      <trkpt lat="45.21593" lon="5.73547">
        <ele>852.79998779297</ele>
        <time>2021-05-29T06:47:14.000Z</time>
      </trkpt>
      <trkpt lat="45.2159" lon="5.7354">
        <ele>851.79998779297</ele>
        <time>2021-05-29T06:47:17.000Z</time>
      </trkpt>
      <trkpt lat="45.21584" lon="5.73532">
        <ele>850.59997558594</ele>
        <time>2021-05-29T06:47:21.000Z</time>
      </trkpt>
      <trkpt lat="45.21581" lon="5.73527">
        <ele>849.40002441406</ele>
        <time>2021-05-29T06:47:23.000Z</time>
      </trkpt>
      <trkpt lat="45.21579" lon="5.73521">
        <ele>848.20001220703</ele>
        <time>2021-05-29T06:47:25.000Z</time>
      </trkpt>
      <trkpt lat="45.21575" lon="5.73509">
        <ele>847</ele>
        <time>2021-05-29T06:47:29.000Z</time>
      </trkpt>
      <trkpt lat="45.21573" lon="5.73504">
        <ele>846.59997558594</ele>
        <time>2021-05-29T06:47:31.000Z</time>
      </trkpt>
      <trkpt lat="45.21572" lon="5.73502">
        <ele>846.20001220703</ele>
        <time>2021-05-29T06:47:32.000Z</time>
      </trkpt>
      <trkpt lat="45.21571" lon="5.735">
        <ele>846</ele>
        <time>2021-05-29T06:47:33.000Z</time>
      </trkpt>
      <trkpt lat="45.21568" lon="5.73496">
        <ele>845</ele>
        <time>2021-05-29T06:47:35.000Z</time>
      </trkpt>
      <trkpt lat="45.21567" lon="5.73494">
        <ele>844.40002441406</ele>
        <time>2021-05-29T06:47:36.000Z</time>
      </trkpt>
      <trkpt lat="45.21563" lon="5.7349">
        <ele>844</ele>
        <time>2021-05-29T06:47:38.000Z</time>
      </trkpt>
      <trkpt lat="45.21561" lon="5.73489">
        <ele>843.59997558594</ele>
        <time>2021-05-29T06:47:39.000Z</time>
      </trkpt>
      <trkpt lat="45.21552" lon="5.73487">
        <ele>842.59997558594</ele>
        <time>2021-05-29T06:47:43.000Z</time>
      </trkpt>
      <trkpt lat="45.2155" lon="5.73487">
        <ele>842.20001220703</ele>
        <time>2021-05-29T06:47:44.000Z</time>
      </trkpt>
      <trkpt lat="45.21549" lon="5.73486">
        <ele>841.40002441406</ele>
        <time>2021-05-29T06:47:45.000Z</time>
      </trkpt>
      <trkpt lat="45.21546" lon="5.73485">
        <ele>840.20001220703</ele>
        <time>2021-05-29T06:47:47.000Z</time>
      </trkpt>
      <trkpt lat="45.21545" lon="5.73484">
        <ele>839.59997558594</ele>
        <time>2021-05-29T06:47:49.000Z</time>
      </trkpt>
      <trkpt lat="45.21543" lon="5.73483">
        <ele>839</ele>
        <time>2021-05-29T06:47:50.000Z</time>
      </trkpt>
      <trkpt lat="45.21539" lon="5.73481">
        <ele>837.79998779297</ele>
        <time>2021-05-29T06:47:53.000Z</time>
      </trkpt>
      <trkpt lat="45.21541" lon="5.73481">
        <ele>837.20001220703</ele>
        <time>2021-05-29T06:47:55.000Z</time>
      </trkpt>
      <trkpt lat="45.21544" lon="5.73484">
        <ele>836.79998779297</ele>
        <time>2021-05-29T06:47:57.000Z</time>
      </trkpt>
      <trkpt lat="45.21549" lon="5.73486">
        <ele>835.40002441406</ele>
        <time>2021-05-29T06:48:00.000Z</time>
      </trkpt>
      <trkpt lat="45.21552" lon="5.73489">
        <ele>834.59997558594</ele>
        <time>2021-05-29T06:48:03.000Z</time>
      </trkpt>
      <trkpt lat="45.21552" lon="5.7349">
        <ele>834.40002441406</ele>
        <time>2021-05-29T06:48:04.000Z</time>
      </trkpt>
      <trkpt lat="45.21553" lon="5.73495">
        <ele>833.40002441406</ele>
        <time>2021-05-29T06:48:07.000Z</time>
      </trkpt>
      <trkpt lat="45.21552" lon="5.73498">
        <ele>832.59997558594</ele>
        <time>2021-05-29T06:48:09.000Z</time>
      </trkpt>
      <trkpt lat="45.21552" lon="5.73498">
        <ele>832.20001220703</ele>
        <time>2021-05-29T06:48:10.000Z</time>
      </trkpt>
      <trkpt lat="45.21555" lon="5.73503">
        <ele>831.79998779297</ele>
        <time>2021-05-29T06:48:13.000Z</time>
      </trkpt>
      <trkpt lat="45.21556" lon="5.73508">
        <ele>831.20001220703</ele>
        <time>2021-05-29T06:48:15.000Z</time>
      </trkpt>
      <trkpt lat="45.21558" lon="5.73511">
        <ele>831.20001220703</ele>
        <time>2021-05-29T06:48:16.000Z</time>
      </trkpt>
      <trkpt lat="45.21559" lon="5.7352">
        <ele>830</ele>
        <time>2021-05-29T06:48:19.000Z</time>
      </trkpt>
      <trkpt lat="45.21558" lon="5.73525">
        <ele>829.20001220703</ele>
        <time>2021-05-29T06:48:21.000Z</time>
      </trkpt>
      <trkpt lat="45.21558" lon="5.73527">
        <ele>829</ele>
        <time>2021-05-29T06:48:22.000Z</time>
      </trkpt>
      <trkpt lat="45.21557" lon="5.73531">
        <ele>827.59997558594</ele>
        <time>2021-05-29T06:48:24.000Z</time>
      </trkpt>
      <trkpt lat="45.21558" lon="5.73539">
        <ele>827</ele>
        <time>2021-05-29T06:48:27.000Z</time>
      </trkpt>
      <trkpt lat="45.2156" lon="5.73548">
        <ele>826.40002441406</ele>
        <time>2021-05-29T06:48:30.000Z</time>
      </trkpt>
      <trkpt lat="45.2156" lon="5.73551">
        <ele>825.59997558594</ele>
        <time>2021-05-29T06:48:31.000Z</time>
      </trkpt>
      <trkpt lat="45.2156" lon="5.73554">
        <ele>824.79998779297</ele>
        <time>2021-05-29T06:48:32.000Z</time>
      </trkpt>
      <trkpt lat="45.21561" lon="5.7356">
        <ele>824</ele>
        <time>2021-05-29T06:48:34.000Z</time>
      </trkpt>
      <trkpt lat="45.21563" lon="5.73564">
        <ele>823.79998779297</ele>
        <time>2021-05-29T06:48:35.000Z</time>
      </trkpt>
      <trkpt lat="45.21567" lon="5.73572">
        <ele>822.40002441406</ele>
        <time>2021-05-29T06:48:37.000Z</time>
      </trkpt>
      <trkpt lat="45.21569" lon="5.73579">
        <ele>821</ele>
        <time>2021-05-29T06:48:40.000Z</time>
      </trkpt>
      <trkpt lat="45.21568" lon="5.73581">
        <ele>820.40002441406</ele>
        <time>2021-05-29T06:48:41.000Z</time>
      </trkpt>
      <trkpt lat="45.21567" lon="5.73582">
        <ele>819.59997558594</ele>
        <time>2021-05-29T06:48:42.000Z</time>
      </trkpt>
      <trkpt lat="45.21564" lon="5.73579">
        <ele>819</ele>
        <time>2021-05-29T06:48:44.000Z</time>
      </trkpt>
      <trkpt lat="45.21558" lon="5.73574">
        <ele>818.79998779297</ele>
        <time>2021-05-29T06:48:47.000Z</time>
      </trkpt>
      <trkpt lat="45.21556" lon="5.73573">
        <ele>818.40002441406</ele>
        <time>2021-05-29T06:48:48.000Z</time>
      </trkpt>
      <trkpt lat="45.21554" lon="5.73571">
        <ele>816.79998779297</ele>
        <time>2021-05-29T06:48:50.000Z</time>
      </trkpt>
      <trkpt lat="45.21552" lon="5.7357">
        <ele>816.20001220703</ele>
        <time>2021-05-29T06:48:51.000Z</time>
      </trkpt>
      <trkpt lat="45.2155" lon="5.73568">
        <ele>815.59997558594</ele>
        <time>2021-05-29T06:48:53.000Z</time>
      </trkpt>
      <trkpt lat="45.21546" lon="5.73564">
        <ele>815</ele>
        <time>2021-05-29T06:48:56.000Z</time>
      </trkpt>
      <trkpt lat="45.21542" lon="5.7356">
        <ele>813.79998779297</ele>
        <time>2021-05-29T06:48:58.000Z</time>
      </trkpt>
      <trkpt lat="45.2154" lon="5.73556">
        <ele>812.79998779297</ele>
        <time>2021-05-29T06:49:00.000Z</time>
      </trkpt>
      <trkpt lat="45.21539" lon="5.73554">
        <ele>812.40002441406</ele>
        <time>2021-05-29T06:49:01.000Z</time>
      </trkpt>
      <trkpt lat="45.21538" lon="5.73552">
        <ele>812.20001220703</ele>
        <time>2021-05-29T06:49:02.000Z</time>
      </trkpt>
      <trkpt lat="45.21538" lon="5.73551">
        <ele>811.59997558594</ele>
        <time>2021-05-29T06:49:03.000Z</time>
      </trkpt>
      <trkpt lat="45.21538" lon="5.7355">
        <ele>810.59997558594</ele>
        <time>2021-05-29T06:49:05.000Z</time>
      </trkpt>
      <trkpt lat="45.21538" lon="5.73552">
        <ele>809.79998779297</ele>
        <time>2021-05-29T06:49:08.000Z</time>
      </trkpt>
      <trkpt lat="45.21537" lon="5.73556">
        <ele>809</ele>
        <time>2021-05-29T06:49:10.000Z</time>
      </trkpt>
      <trkpt lat="45.21536" lon="5.73562">
        <ele>808</ele>
        <time>2021-05-29T06:49:13.000Z</time>
      </trkpt>
      <trkpt lat="45.21536" lon="5.73565">
        <ele>807.79998779297</ele>
        <time>2021-05-29T06:49:14.000Z</time>
      </trkpt>
      <trkpt lat="45.21538" lon="5.7357">
        <ele>806.79998779297</ele>
        <time>2021-05-29T06:49:16.000Z</time>
      </trkpt>
      <trkpt lat="45.21539" lon="5.73572">
        <ele>806.40002441406</ele>
        <time>2021-05-29T06:49:17.000Z</time>
      </trkpt>
      <trkpt lat="45.21543" lon="5.73579">
        <ele>805.59997558594</ele>
        <time>2021-05-29T06:49:20.000Z</time>
      </trkpt>
      <trkpt lat="45.21546" lon="5.73584">
        <ele>805</ele>
        <time>2021-05-29T06:49:22.000Z</time>
      </trkpt>
      <trkpt lat="45.21546" lon="5.73584">
        <ele>804.20001220703</ele>
        <time>2021-05-29T06:49:23.000Z</time>
      </trkpt>
      <trkpt lat="45.21547" lon="5.73589">
        <ele>803.59997558594</ele>
        <time>2021-05-29T06:49:25.000Z</time>
      </trkpt>
      <trkpt lat="45.21546" lon="5.73595">
        <ele>803.20001220703</ele>
        <time>2021-05-29T06:49:27.000Z</time>
      </trkpt>
      <trkpt lat="45.21547" lon="5.73597">
        <ele>803</ele>
        <time>2021-05-29T06:49:28.000Z</time>
      </trkpt>
      <trkpt lat="45.21548" lon="5.73599">
        <ele>802.20001220703</ele>
        <time>2021-05-29T06:49:29.000Z</time>
      </trkpt>
      <trkpt lat="45.21548" lon="5.73601">
        <ele>801.79998779297</ele>
        <time>2021-05-29T06:49:30.000Z</time>
      </trkpt>
      <trkpt lat="45.21547" lon="5.73601">
        <ele>801.59997558594</ele>
        <time>2021-05-29T06:49:31.000Z</time>
      </trkpt>
      <trkpt lat="45.21545" lon="5.73601">
        <ele>801</ele>
        <time>2021-05-29T06:49:32.000Z</time>
      </trkpt>
      <trkpt lat="45.21543" lon="5.736">
        <ele>800.59997558594</ele>
        <time>2021-05-29T06:49:33.000Z</time>
      </trkpt>
      <trkpt lat="45.21541" lon="5.73596">
        <ele>800</ele>
        <time>2021-05-29T06:49:35.000Z</time>
      </trkpt>
      <trkpt lat="45.21538" lon="5.73595">
        <ele>799.20001220703</ele>
        <time>2021-05-29T06:49:37.000Z</time>
      </trkpt>
      <trkpt lat="45.21536" lon="5.73595">
        <ele>799</ele>
        <time>2021-05-29T06:49:38.000Z</time>
      </trkpt>
      <trkpt lat="45.21537" lon="5.73596">
        <ele>798.40002441406</ele>
        <time>2021-05-29T06:49:39.000Z</time>
      </trkpt>
      <trkpt lat="45.21538" lon="5.736">
        <ele>798</ele>
        <time>2021-05-29T06:49:41.000Z</time>
      </trkpt>
      <trkpt lat="45.21539" lon="5.73606">
        <ele>797.40002441406</ele>
        <time>2021-05-29T06:49:44.000Z</time>
      </trkpt>
      <trkpt lat="45.21539" lon="5.73609">
        <ele>796.20001220703</ele>
        <time>2021-05-29T06:49:46.000Z</time>
      </trkpt>
      <trkpt lat="45.2154" lon="5.73612">
        <ele>795.20001220703</ele>
        <time>2021-05-29T06:49:48.000Z</time>
      </trkpt>
      <trkpt lat="45.2154" lon="5.73614">
        <ele>795</ele>
        <time>2021-05-29T06:49:49.000Z</time>
      </trkpt>
      <trkpt lat="45.21539" lon="5.73617">
        <ele>794.20001220703</ele>
        <time>2021-05-29T06:49:52.000Z</time>
      </trkpt>
      <trkpt lat="45.21538" lon="5.73616">
        <ele>794</ele>
        <time>2021-05-29T06:49:53.000Z</time>
      </trkpt>
      <trkpt lat="45.21537" lon="5.73613">
        <ele>793.79998779297</ele>
        <time>2021-05-29T06:49:54.000Z</time>
      </trkpt>
      <trkpt lat="45.21533" lon="5.73606">
        <ele>792.40002441406</ele>
        <time>2021-05-29T06:49:58.000Z</time>
      </trkpt>
      <trkpt lat="45.21529" lon="5.73604">
        <ele>791.40002441406</ele>
        <time>2021-05-29T06:50:00.000Z</time>
      </trkpt>
      <trkpt lat="45.21523" lon="5.73596">
        <ele>790</ele>
        <time>2021-05-29T06:50:05.000Z</time>
      </trkpt>
      <trkpt lat="45.21519" lon="5.73591">
        <ele>789</ele>
        <time>2021-05-29T06:50:08.000Z</time>
      </trkpt>
      <trkpt lat="45.21518" lon="5.73585">
        <ele>787.59997558594</ele>
        <time>2021-05-29T06:50:11.000Z</time>
      </trkpt>
      <trkpt lat="45.21518" lon="5.73585">
        <ele>787.20001220703</ele>
        <time>2021-05-29T06:50:12.000Z</time>
      </trkpt>
      <trkpt lat="45.21518" lon="5.73581">
        <ele>786.59997558594</ele>
        <time>2021-05-29T06:50:15.000Z</time>
      </trkpt>
      <trkpt lat="45.21518" lon="5.73581">
        <ele>786.40002441406</ele>
        <time>2021-05-29T06:50:16.000Z</time>
      </trkpt>
      <trkpt lat="45.21519" lon="5.73581">
        <ele>786.20001220703</ele>
        <time>2021-05-29T06:50:17.000Z</time>
      </trkpt>
      <trkpt lat="45.21519" lon="5.73586">
        <ele>785.79998779297</ele>
        <time>2021-05-29T06:50:19.000Z</time>
      </trkpt>
      <trkpt lat="45.21518" lon="5.73593">
        <ele>785.40002441406</ele>
        <time>2021-05-29T06:50:22.000Z</time>
      </trkpt>
      <trkpt lat="45.21518" lon="5.73596">
        <ele>784.59997558594</ele>
        <time>2021-05-29T06:50:24.000Z</time>
      </trkpt>
      <trkpt lat="45.21518" lon="5.73599">
        <ele>783.20001220703</ele>
        <time>2021-05-29T06:50:26.000Z</time>
      </trkpt>
      <trkpt lat="45.21517" lon="5.736">
        <ele>782.20001220703</ele>
        <time>2021-05-29T06:50:28.000Z</time>
      </trkpt>
      <trkpt lat="45.21515" lon="5.73596">
        <ele>781.40002441406</ele>
        <time>2021-05-29T06:50:31.000Z</time>
      </trkpt>
      <trkpt lat="45.21514" lon="5.73593">
        <ele>781.20001220703</ele>
        <time>2021-05-29T06:50:32.000Z</time>
      </trkpt>
      <trkpt lat="45.21514" lon="5.73592">
        <ele>780.79998779297</ele>
        <time>2021-05-29T06:50:33.000Z</time>
      </trkpt>
      <trkpt lat="45.21513" lon="5.73582">
        <ele>779.79998779297</ele>
        <time>2021-05-29T06:50:36.000Z</time>
      </trkpt>
      <trkpt lat="45.21512" lon="5.73579">
        <ele>778.79998779297</ele>
        <time>2021-05-29T06:50:38.000Z</time>
      </trkpt>
      <trkpt lat="45.21511" lon="5.73577">
        <ele>778.40002441406</ele>
        <time>2021-05-29T06:50:39.000Z</time>
      </trkpt>
      <trkpt lat="45.2151" lon="5.73573">
        <ele>778</ele>
        <time>2021-05-29T06:50:41.000Z</time>
      </trkpt>
      <trkpt lat="45.21508" lon="5.73571">
        <ele>777.40002441406</ele>
        <time>2021-05-29T06:50:43.000Z</time>
      </trkpt>
      <trkpt lat="45.21504" lon="5.73569">
        <ele>776</ele>
        <time>2021-05-29T06:50:46.000Z</time>
      </trkpt>
      <trkpt lat="45.21496" lon="5.73566">
        <ele>775</ele>
        <time>2021-05-29T06:50:50.000Z</time>
      </trkpt>
      <trkpt lat="45.21491" lon="5.73564">
        <ele>773.59997558594</ele>
        <time>2021-05-29T06:50:53.000Z</time>
      </trkpt>
      <trkpt lat="45.21485" lon="5.7356">
        <ele>772.79998779297</ele>
        <time>2021-05-29T06:50:56.000Z</time>
      </trkpt>
      <trkpt lat="45.21484" lon="5.73559">
        <ele>772.59997558594</ele>
        <time>2021-05-29T06:50:57.000Z</time>
      </trkpt>
      <trkpt lat="45.21483" lon="5.73558">
        <ele>772.20001220703</ele>
        <time>2021-05-29T06:50:58.000Z</time>
      </trkpt>
      <trkpt lat="45.21482" lon="5.73556">
        <ele>772.20001220703</ele>
        <time>2021-05-29T06:50:59.000Z</time>
      </trkpt>
      <trkpt lat="45.21478" lon="5.73551">
        <ele>771.40002441406</ele>
        <time>2021-05-29T06:51:02.000Z</time>
      </trkpt>
      <trkpt lat="45.21476" lon="5.73546">
        <ele>770.40002441406</ele>
        <time>2021-05-29T06:51:05.000Z</time>
      </trkpt>
      <trkpt lat="45.21476" lon="5.73544">
        <ele>770</ele>
        <time>2021-05-29T06:51:06.000Z</time>
      </trkpt>
      <trkpt lat="45.21469" lon="5.73535">
        <ele>769.20001220703</ele>
        <time>2021-05-29T06:51:10.000Z</time>
      </trkpt>
      <trkpt lat="45.21467" lon="5.7353">
        <ele>768.20001220703</ele>
        <time>2021-05-29T06:51:13.000Z</time>
      </trkpt>
      <trkpt lat="45.21466" lon="5.73529">
        <ele>768</ele>
        <time>2021-05-29T06:51:14.000Z</time>
      </trkpt>
      <trkpt lat="45.21465" lon="5.73528">
        <ele>767.79998779297</ele>
        <time>2021-05-29T06:51:15.000Z</time>
      </trkpt>
      <trkpt lat="45.21464" lon="5.73526">
        <ele>767.40002441406</ele>
        <time>2021-05-29T06:51:16.000Z</time>
      </trkpt>
      <trkpt lat="45.21464" lon="5.73523">
        <ele>767.20001220703</ele>
        <time>2021-05-29T06:51:17.000Z</time>
      </trkpt>
      <trkpt lat="45.21462" lon="5.73514">
        <ele>766.40002441406</ele>
        <time>2021-05-29T06:51:20.000Z</time>
      </trkpt>
      <trkpt lat="45.21462" lon="5.73511">
        <ele>765.79998779297</ele>
        <time>2021-05-29T06:51:21.000Z</time>
      </trkpt>
      <trkpt lat="45.21459" lon="5.735">
        <ele>764.59997558594</ele>
        <time>2021-05-29T06:51:24.000Z</time>
      </trkpt>
      <trkpt lat="45.21457" lon="5.73494">
        <ele>764.20001220703</ele>
        <time>2021-05-29T06:51:26.000Z</time>
      </trkpt>
      <trkpt lat="45.21456" lon="5.73492">
        <ele>763.79998779297</ele>
        <time>2021-05-29T06:51:27.000Z</time>
      </trkpt>
      <trkpt lat="45.21455" lon="5.73491">
        <ele>763</ele>
        <time>2021-05-29T06:51:28.000Z</time>
      </trkpt>
      <trkpt lat="45.21451" lon="5.73489">
        <ele>761.79998779297</ele>
        <time>2021-05-29T06:51:30.000Z</time>
      </trkpt>
      <trkpt lat="45.21449" lon="5.73487">
        <ele>760.79998779297</ele>
        <time>2021-05-29T06:51:33.000Z</time>
      </trkpt>
      <trkpt lat="45.21449" lon="5.73486">
        <ele>760.79998779297</ele>
        <time>2021-05-29T06:51:34.000Z</time>
      </trkpt>
      <trkpt lat="45.21447" lon="5.73482">
        <ele>760</ele>
        <time>2021-05-29T06:51:36.000Z</time>
      </trkpt>
      <trkpt lat="45.21446" lon="5.73479">
        <ele>759.40002441406</ele>
        <time>2021-05-29T06:51:38.000Z</time>
      </trkpt>
      <trkpt lat="45.21444" lon="5.73476">
        <ele>759</ele>
        <time>2021-05-29T06:51:40.000Z</time>
      </trkpt>
      <trkpt lat="45.21442" lon="5.73472">
        <ele>757.79998779297</ele>
        <time>2021-05-29T06:51:42.000Z</time>
      </trkpt>
      <trkpt lat="45.2144" lon="5.73464">
        <ele>756.59997558594</ele>
        <time>2021-05-29T06:51:46.000Z</time>
      </trkpt>
      <trkpt lat="45.2144" lon="5.73462">
        <ele>756.40002441406</ele>
        <time>2021-05-29T06:51:47.000Z</time>
      </trkpt>
      <trkpt lat="45.21439" lon="5.73459">
        <ele>756.20001220703</ele>
        <time>2021-05-29T06:51:48.000Z</time>
      </trkpt>
      <trkpt lat="45.21439" lon="5.73458">
        <ele>755.79998779297</ele>
        <time>2021-05-29T06:51:49.000Z</time>
      </trkpt>
      <trkpt lat="45.21438" lon="5.73456">
        <ele>755.59997558594</ele>
        <time>2021-05-29T06:51:50.000Z</time>
      </trkpt>
      <trkpt lat="45.21437" lon="5.73452">
        <ele>754.79998779297</ele>
        <time>2021-05-29T06:51:53.000Z</time>
      </trkpt>
      <trkpt lat="45.21435" lon="5.73451">
        <ele>754.40002441406</ele>
        <time>2021-05-29T06:51:54.000Z</time>
      </trkpt>
      <trkpt lat="45.21431" lon="5.73449">
        <ele>753.40002441406</ele>
        <time>2021-05-29T06:51:57.000Z</time>
      </trkpt>
      <trkpt lat="45.2143" lon="5.73448">
        <ele>753.40002441406</ele>
        <time>2021-05-29T06:51:58.000Z</time>
      </trkpt>
      <trkpt lat="45.21428" lon="5.73444">
        <ele>752.20001220703</ele>
        <time>2021-05-29T06:52:01.000Z</time>
      </trkpt>
      <trkpt lat="45.21426" lon="5.73436">
        <ele>751</ele>
        <time>2021-05-29T06:52:05.000Z</time>
      </trkpt>
      <trkpt lat="45.21421" lon="5.73426">
        <ele>749.79998779297</ele>
        <time>2021-05-29T06:52:09.000Z</time>
      </trkpt>
      <trkpt lat="45.21414" lon="5.73415">
        <ele>748.40002441406</ele>
        <time>2021-05-29T06:52:14.000Z</time>
      </trkpt>
      <trkpt lat="45.21412" lon="5.73413">
        <ele>748.20001220703</ele>
        <time>2021-05-29T06:52:15.000Z</time>
      </trkpt>
      <trkpt lat="45.2141" lon="5.7341">
        <ele>747.20001220703</ele>
        <time>2021-05-29T06:52:16.000Z</time>
      </trkpt>
      <trkpt lat="45.21408" lon="5.73405">
        <ele>746.20001220703</ele>
        <time>2021-05-29T06:52:18.000Z</time>
      </trkpt>
      <trkpt lat="45.21407" lon="5.73402">
        <ele>746</ele>
        <time>2021-05-29T06:52:19.000Z</time>
      </trkpt>
      <trkpt lat="45.21406" lon="5.734">
        <ele>745.59997558594</ele>
        <time>2021-05-29T06:52:20.000Z</time>
      </trkpt>
      <trkpt lat="45.21406" lon="5.73395">
        <ele>745</ele>
        <time>2021-05-29T06:52:22.000Z</time>
      </trkpt>
      <trkpt lat="45.21405" lon="5.73392">
        <ele>744.79998779297</ele>
        <time>2021-05-29T06:52:23.000Z</time>
      </trkpt>
      <trkpt lat="45.21405" lon="5.7339">
        <ele>744.40002441406</ele>
        <time>2021-05-29T06:52:24.000Z</time>
      </trkpt>
      <trkpt lat="45.21404" lon="5.7339">
        <ele>744.20001220703</ele>
        <time>2021-05-29T06:52:25.000Z</time>
      </trkpt>
      <trkpt lat="45.21398" lon="5.73388">
        <ele>743.59997558594</ele>
        <time>2021-05-29T06:52:28.000Z</time>
      </trkpt>
      <trkpt lat="45.21395" lon="5.73385">
        <ele>742.79998779297</ele>
        <time>2021-05-29T06:52:30.000Z</time>
      </trkpt>
      <trkpt lat="45.21394" lon="5.73382">
        <ele>742</ele>
        <time>2021-05-29T06:52:31.000Z</time>
      </trkpt>
      <trkpt lat="45.2139" lon="5.73374">
        <ele>741</ele>
        <time>2021-05-29T06:52:34.000Z</time>
      </trkpt>
      <trkpt lat="45.21389" lon="5.73373">
        <ele>740.20001220703</ele>
        <time>2021-05-29T06:52:35.000Z</time>
      </trkpt>
      <trkpt lat="45.21388" lon="5.73372">
        <ele>739.79998779297</ele>
        <time>2021-05-29T06:52:36.000Z</time>
      </trkpt>
      <trkpt lat="45.21384" lon="5.7337">
        <ele>739.20001220703</ele>
        <time>2021-05-29T06:52:38.000Z</time>
      </trkpt>
      <trkpt lat="45.21382" lon="5.73368">
        <ele>738.59997558594</ele>
        <time>2021-05-29T06:52:39.000Z</time>
      </trkpt>
      <trkpt lat="45.21377" lon="5.73361">
        <ele>737.40002441406</ele>
        <time>2021-05-29T06:52:42.000Z</time>
      </trkpt>
      <trkpt lat="45.21376" lon="5.73358">
        <ele>737</ele>
        <time>2021-05-29T06:52:43.000Z</time>
      </trkpt>
      <trkpt lat="45.21374" lon="5.73355">
        <ele>736.59997558594</ele>
        <time>2021-05-29T06:52:44.000Z</time>
      </trkpt>
      <trkpt lat="45.21373" lon="5.73352">
        <ele>736.20001220703</ele>
        <time>2021-05-29T06:52:45.000Z</time>
      </trkpt>
      <trkpt lat="45.21372" lon="5.73349">
        <ele>736</ele>
        <time>2021-05-29T06:52:47.000Z</time>
      </trkpt>
      <trkpt lat="45.21369" lon="5.73347">
        <ele>735.20001220703</ele>
        <time>2021-05-29T06:52:50.000Z</time>
      </trkpt>
      <trkpt lat="45.21367" lon="5.73343">
        <ele>734.59997558594</ele>
        <time>2021-05-29T06:52:52.000Z</time>
      </trkpt>
      <trkpt lat="45.21365" lon="5.73339">
        <ele>734.20001220703</ele>
        <time>2021-05-29T06:52:54.000Z</time>
      </trkpt>
      <trkpt lat="45.2136" lon="5.73334">
        <ele>733</ele>
        <time>2021-05-29T06:52:58.000Z</time>
      </trkpt>
      <trkpt lat="45.21357" lon="5.73331">
        <ele>732.20001220703</ele>
        <time>2021-05-29T06:53:00.000Z</time>
      </trkpt>
      <trkpt lat="45.21356" lon="5.73331">
        <ele>731.40002441406</ele>
        <time>2021-05-29T06:53:01.000Z</time>
      </trkpt>
      <trkpt lat="45.21352" lon="5.73328">
        <ele>730.20001220703</ele>
        <time>2021-05-29T06:53:04.000Z</time>
      </trkpt>
      <trkpt lat="45.21347" lon="5.73325">
        <ele>729.40002441406</ele>
        <time>2021-05-29T06:53:08.000Z</time>
      </trkpt>
      <trkpt lat="45.21346" lon="5.73325">
        <ele>728.79998779297</ele>
        <time>2021-05-29T06:53:09.000Z</time>
      </trkpt>
      <trkpt lat="45.21343" lon="5.73323">
        <ele>728</ele>
        <time>2021-05-29T06:53:11.000Z</time>
      </trkpt>
      <trkpt lat="45.21341" lon="5.73319">
        <ele>727.79998779297</ele>
        <time>2021-05-29T06:53:13.000Z</time>
      </trkpt>
      <trkpt lat="45.2134" lon="5.73317">
        <ele>727.40002441406</ele>
        <time>2021-05-29T06:53:14.000Z</time>
      </trkpt>
      <trkpt lat="45.21339" lon="5.73315">
        <ele>727.20001220703</ele>
        <time>2021-05-29T06:53:15.000Z</time>
      </trkpt>
      <trkpt lat="45.21338" lon="5.73313">
        <ele>727</ele>
        <time>2021-05-29T06:53:16.000Z</time>
      </trkpt>
      <trkpt lat="45.21336" lon="5.73307">
        <ele>726.59997558594</ele>
        <time>2021-05-29T06:53:19.000Z</time>
      </trkpt>
      <trkpt lat="45.21333" lon="5.73309">
        <ele>725.59997558594</ele>
        <time>2021-05-29T06:53:24.000Z</time>
      </trkpt>
      <trkpt lat="45.21332" lon="5.7331">
        <ele>725.20001220703</ele>
        <time>2021-05-29T06:53:25.000Z</time>
      </trkpt>
      <trkpt lat="45.21329" lon="5.7331">
        <ele>724.40002441406</ele>
        <time>2021-05-29T06:53:27.000Z</time>
      </trkpt>
      <trkpt lat="45.21324" lon="5.7331">
        <ele>723.79998779297</ele>
        <time>2021-05-29T06:53:30.000Z</time>
      </trkpt>
      <trkpt lat="45.21322" lon="5.73311">
        <ele>723.20001220703</ele>
        <time>2021-05-29T06:53:31.000Z</time>
      </trkpt>
      <trkpt lat="45.21319" lon="5.73314">
        <ele>722</ele>
        <time>2021-05-29T06:53:33.000Z</time>
      </trkpt>
      <trkpt lat="45.21315" lon="5.73317">
        <ele>720.79998779297</ele>
        <time>2021-05-29T06:53:36.000Z</time>
      </trkpt>
      <trkpt lat="45.21313" lon="5.73317">
        <ele>720.59997558594</ele>
        <time>2021-05-29T06:53:37.000Z</time>
      </trkpt>
      <trkpt lat="45.21309" lon="5.73316">
        <ele>719.59997558594</ele>
        <time>2021-05-29T06:53:39.000Z</time>
      </trkpt>
      <trkpt lat="45.21304" lon="5.73305">
        <ele>718.40002441406</ele>
        <time>2021-05-29T06:53:42.000Z</time>
      </trkpt>
      <trkpt lat="45.21303" lon="5.73296">
        <ele>717.20001220703</ele>
        <time>2021-05-29T06:53:45.000Z</time>
      </trkpt>
      <trkpt lat="45.21302" lon="5.73294">
        <ele>717</ele>
        <time>2021-05-29T06:53:46.000Z</time>
      </trkpt>
      <trkpt lat="45.21299" lon="5.73293">
        <ele>716.79998779297</ele>
        <time>2021-05-29T06:53:47.000Z</time>
      </trkpt>
      <trkpt lat="45.21297" lon="5.73294">
        <ele>716.20001220703</ele>
        <time>2021-05-29T06:53:49.000Z</time>
      </trkpt>
      <trkpt lat="45.21292" lon="5.73293">
        <ele>715.20001220703</ele>
        <time>2021-05-29T06:53:52.000Z</time>
      </trkpt>
      <trkpt lat="45.21291" lon="5.73292">
        <ele>715</ele>
        <time>2021-05-29T06:53:53.000Z</time>
      </trkpt>
      <trkpt lat="45.21285" lon="5.73288">
        <ele>714</ele>
        <time>2021-05-29T06:53:56.000Z</time>
      </trkpt>
      <trkpt lat="45.21278" lon="5.73286">
        <ele>712.79998779297</ele>
        <time>2021-05-29T06:54:00.000Z</time>
      </trkpt>
      <trkpt lat="45.21277" lon="5.73285">
        <ele>712.59997558594</ele>
        <time>2021-05-29T06:54:01.000Z</time>
      </trkpt>
      <trkpt lat="45.21273" lon="5.73283">
        <ele>711.59997558594</ele>
        <time>2021-05-29T06:54:03.000Z</time>
      </trkpt>
      <trkpt lat="45.21267" lon="5.73277">
        <ele>710.20001220703</ele>
        <time>2021-05-29T06:54:07.000Z</time>
      </trkpt>
      <trkpt lat="45.21265" lon="5.73274">
        <ele>710</ele>
        <time>2021-05-29T06:54:08.000Z</time>
      </trkpt>
      <trkpt lat="45.21264" lon="5.73272">
        <ele>709.59997558594</ele>
        <time>2021-05-29T06:54:09.000Z</time>
      </trkpt>
      <trkpt lat="45.21262" lon="5.7327">
        <ele>709.20001220703</ele>
        <time>2021-05-29T06:54:10.000Z</time>
      </trkpt>
      <trkpt lat="45.21257" lon="5.73259">
        <ele>708.40002441406</ele>
        <time>2021-05-29T06:54:13.000Z</time>
      </trkpt>
      <trkpt lat="45.21257" lon="5.73259">
        <ele>708.20001220703</ele>
        <time>2021-05-29T06:54:14.000Z</time>
      </trkpt>
      <trkpt lat="45.21254" lon="5.73253">
        <ele>707.40002441406</ele>
        <time>2021-05-29T06:54:17.000Z</time>
      </trkpt>
      <trkpt lat="45.21252" lon="5.73251">
        <ele>706.79998779297</ele>
        <time>2021-05-29T06:54:18.000Z</time>
      </trkpt>
      <trkpt lat="45.21247" lon="5.73243">
        <ele>705.79998779297</ele>
        <time>2021-05-29T06:54:21.000Z</time>
      </trkpt>
      <trkpt lat="45.21246" lon="5.73242">
        <ele>705.20001220703</ele>
        <time>2021-05-29T06:54:22.000Z</time>
      </trkpt>
      <trkpt lat="45.21243" lon="5.7324">
        <ele>704.40002441406</ele>
        <time>2021-05-29T06:54:24.000Z</time>
      </trkpt>
      <trkpt lat="45.21241" lon="5.7324">
        <ele>704</ele>
        <time>2021-05-29T06:54:25.000Z</time>
      </trkpt>
      <trkpt lat="45.21237" lon="5.73239">
        <ele>702.79998779297</ele>
        <time>2021-05-29T06:54:27.000Z</time>
      </trkpt>
      <trkpt lat="45.21236" lon="5.73239">
        <ele>702.40002441406</ele>
        <time>2021-05-29T06:54:28.000Z</time>
      </trkpt>
      <trkpt lat="45.21232" lon="5.73238">
        <ele>701.79998779297</ele>
        <time>2021-05-29T06:54:30.000Z</time>
      </trkpt>
      <trkpt lat="45.21229" lon="5.73236">
        <ele>700.79998779297</ele>
        <time>2021-05-29T06:54:32.000Z</time>
      </trkpt>
      <trkpt lat="45.21227" lon="5.73235">
        <ele>700.40002441406</ele>
        <time>2021-05-29T06:54:33.000Z</time>
      </trkpt>
      <trkpt lat="45.21222" lon="5.73226">
        <ele>699.20001220703</ele>
        <time>2021-05-29T06:54:36.000Z</time>
      </trkpt>
      <trkpt lat="45.2122" lon="5.73222">
        <ele>699</ele>
        <time>2021-05-29T06:54:37.000Z</time>
      </trkpt>
      <trkpt lat="45.21215" lon="5.73214">
        <ele>698</ele>
        <time>2021-05-29T06:54:40.000Z</time>
      </trkpt>
      <trkpt lat="45.2121" lon="5.7321">
        <ele>696.59997558594</ele>
        <time>2021-05-29T06:54:43.000Z</time>
      </trkpt>
      <trkpt lat="45.21208" lon="5.73209">
        <ele>696.20001220703</ele>
        <time>2021-05-29T06:54:44.000Z</time>
      </trkpt>
      <trkpt lat="45.21207" lon="5.73207">
        <ele>695.40002441406</ele>
        <time>2021-05-29T06:54:45.000Z</time>
      </trkpt>
      <trkpt lat="45.21203" lon="5.73201">
        <ele>694.20001220703</ele>
        <time>2021-05-29T06:54:48.000Z</time>
      </trkpt>
      <trkpt lat="45.21203" lon="5.73199">
        <ele>693.79998779297</ele>
        <time>2021-05-29T06:54:49.000Z</time>
      </trkpt>
      <trkpt lat="45.21201" lon="5.73197">
        <ele>693.79998779297</ele>
        <time>2021-05-29T06:54:50.000Z</time>
      </trkpt>
      <trkpt lat="45.21197" lon="5.73191">
        <ele>693</ele>
        <time>2021-05-29T06:54:53.000Z</time>
      </trkpt>
      <trkpt lat="45.21194" lon="5.73187">
        <ele>691.79998779297</ele>
        <time>2021-05-29T06:54:55.000Z</time>
      </trkpt>
      <trkpt lat="45.21193" lon="5.73186">
        <ele>691.59997558594</ele>
        <time>2021-05-29T06:54:56.000Z</time>
      </trkpt>
      <trkpt lat="45.21191" lon="5.73185">
        <ele>691.40002441406</ele>
        <time>2021-05-29T06:54:57.000Z</time>
      </trkpt>
      <trkpt lat="45.21189" lon="5.73181">
        <ele>690.79998779297</ele>
        <time>2021-05-29T06:54:59.000Z</time>
      </trkpt>
      <trkpt lat="45.21185" lon="5.73174">
        <ele>689.59997558594</ele>
        <time>2021-05-29T06:55:02.000Z</time>
      </trkpt>
      <trkpt lat="45.21181" lon="5.7317">
        <ele>688.59997558594</ele>
        <time>2021-05-29T06:55:04.000Z</time>
      </trkpt>
      <trkpt lat="45.21177" lon="5.73166">
        <ele>687.40002441406</ele>
        <time>2021-05-29T06:55:07.000Z</time>
      </trkpt>
      <trkpt lat="45.21174" lon="5.73162">
        <ele>686.79998779297</ele>
        <time>2021-05-29T06:55:09.000Z</time>
      </trkpt>
      <trkpt lat="45.21171" lon="5.73159">
        <ele>686.20001220703</ele>
        <time>2021-05-29T06:55:11.000Z</time>
      </trkpt>
      <trkpt lat="45.21166" lon="5.73153">
        <ele>685</ele>
        <time>2021-05-29T06:55:14.000Z</time>
      </trkpt>
      <trkpt lat="45.21164" lon="5.73149">
        <ele>684.79998779297</ele>
        <time>2021-05-29T06:55:16.000Z</time>
      </trkpt>
      <trkpt lat="45.21162" lon="5.73148">
        <ele>684.59997558594</ele>
        <time>2021-05-29T06:55:18.000Z</time>
      </trkpt>
      <trkpt lat="45.2116" lon="5.73147">
        <ele>683.79998779297</ele>
        <time>2021-05-29T06:55:19.000Z</time>
      </trkpt>
      <trkpt lat="45.21157" lon="5.73145">
        <ele>682.79998779297</ele>
        <time>2021-05-29T06:55:21.000Z</time>
      </trkpt>
      <trkpt lat="45.21156" lon="5.73143">
        <ele>682.40002441406</ele>
        <time>2021-05-29T06:55:22.000Z</time>
      </trkpt>
      <trkpt lat="45.21153" lon="5.73138">
        <ele>681.40002441406</ele>
        <time>2021-05-29T06:55:24.000Z</time>
      </trkpt>
      <trkpt lat="45.21147" lon="5.73135">
        <ele>680.40002441406</ele>
        <time>2021-05-29T06:55:27.000Z</time>
      </trkpt>
      <trkpt lat="45.21146" lon="5.73135">
        <ele>680</ele>
        <time>2021-05-29T06:55:28.000Z</time>
      </trkpt>
      <trkpt lat="45.21144" lon="5.73136">
        <ele>679.59997558594</ele>
        <time>2021-05-29T06:55:29.000Z</time>
      </trkpt>
      <trkpt lat="45.21142" lon="5.73138">
        <ele>679</ele>
        <time>2021-05-29T06:55:31.000Z</time>
      </trkpt>
      <trkpt lat="45.21137" lon="5.73142">
        <ele>678.20001220703</ele>
        <time>2021-05-29T06:55:34.000Z</time>
      </trkpt>
      <trkpt lat="45.21136" lon="5.73142">
        <ele>677.59997558594</ele>
        <time>2021-05-29T06:55:35.000Z</time>
      </trkpt>
      <trkpt lat="45.21131" lon="5.73142">
        <ele>676.20001220703</ele>
        <time>2021-05-29T06:55:37.000Z</time>
      </trkpt>
      <trkpt lat="45.21125" lon="5.73142">
        <ele>675</ele>
        <time>2021-05-29T06:55:40.000Z</time>
      </trkpt>
      <trkpt lat="45.21124" lon="5.73144">
        <ele>674.59997558594</ele>
        <time>2021-05-29T06:55:41.000Z</time>
      </trkpt>
      <trkpt lat="45.21121" lon="5.73146">
        <ele>673.79998779297</ele>
        <time>2021-05-29T06:55:43.000Z</time>
      </trkpt>
      <trkpt lat="45.21118" lon="5.73149">
        <ele>672.79998779297</ele>
        <time>2021-05-29T06:55:46.000Z</time>
      </trkpt>
      <trkpt lat="45.21117" lon="5.73151">
        <ele>671.79998779297</ele>
        <time>2021-05-29T06:55:48.000Z</time>
      </trkpt>
      <trkpt lat="45.21116" lon="5.7315">
        <ele>671.40002441406</ele>
        <time>2021-05-29T06:55:49.000Z</time>
      </trkpt>
      <trkpt lat="45.21117" lon="5.73147">
        <ele>670.59997558594</ele>
        <time>2021-05-29T06:55:52.000Z</time>
      </trkpt>
      <trkpt lat="45.21118" lon="5.73146">
        <ele>670.20001220703</ele>
        <time>2021-05-29T06:55:53.000Z</time>
      </trkpt>
      <trkpt lat="45.21119" lon="5.73143">
        <ele>669.59997558594</ele>
        <time>2021-05-29T06:55:55.000Z</time>
      </trkpt>
      <trkpt lat="45.21121" lon="5.7314">
        <ele>668.79998779297</ele>
        <time>2021-05-29T06:55:57.000Z</time>
      </trkpt>
      <trkpt lat="45.21123" lon="5.7314">
        <ele>668</ele>
        <time>2021-05-29T06:55:59.000Z</time>
      </trkpt>
      <trkpt lat="45.21124" lon="5.7314">
        <ele>667.59997558594</ele>
        <time>2021-05-29T06:56:00.000Z</time>
      </trkpt>
      <trkpt lat="45.21125" lon="5.73142">
        <ele>667</ele>
        <time>2021-05-29T06:56:02.000Z</time>
      </trkpt>
      <trkpt lat="45.21126" lon="5.73142">
        <ele>666.79998779297</ele>
        <time>2021-05-29T06:56:03.000Z</time>
      </trkpt>
      <trkpt lat="45.21127" lon="5.73142">
        <ele>666.59997558594</ele>
        <time>2021-05-29T06:56:04.000Z</time>
      </trkpt>
      <trkpt lat="45.21128" lon="5.73142">
        <ele>666.40002441406</ele>
        <time>2021-05-29T06:56:05.000Z</time>
      </trkpt>
      <trkpt lat="45.21128" lon="5.73144">
        <ele>666</ele>
        <time>2021-05-29T06:56:07.000Z</time>
      </trkpt>
      <trkpt lat="45.21127" lon="5.73147">
        <ele>664.59997558594</ele>
        <time>2021-05-29T06:56:09.000Z</time>
      </trkpt>
      <trkpt lat="45.21125" lon="5.7315">
        <ele>663.40002441406</ele>
        <time>2021-05-29T06:56:11.000Z</time>
      </trkpt>
      <trkpt lat="45.21122" lon="5.73153">
        <ele>662.79998779297</ele>
        <time>2021-05-29T06:56:13.000Z</time>
      </trkpt>
      <trkpt lat="45.2112" lon="5.73155">
        <ele>662.40002441406</ele>
        <time>2021-05-29T06:56:15.000Z</time>
      </trkpt>
      <trkpt lat="45.21116" lon="5.73156">
        <ele>661.59997558594</ele>
        <time>2021-05-29T06:56:18.000Z</time>
      </trkpt>
      <trkpt lat="45.21117" lon="5.73156">
        <ele>661.20001220703</ele>
        <time>2021-05-29T06:56:19.000Z</time>
      </trkpt>
      <trkpt lat="45.21113" lon="5.73162">
        <ele>660</ele>
        <time>2021-05-29T06:56:22.000Z</time>
      </trkpt>
      <trkpt lat="45.21108" lon="5.73161">
        <ele>659.40002441406</ele>
        <time>2021-05-29T06:56:24.000Z</time>
      </trkpt>
      <trkpt lat="45.21105" lon="5.73158">
        <ele>658.79998779297</ele>
        <time>2021-05-29T06:56:26.000Z</time>
      </trkpt>
      <trkpt lat="45.21102" lon="5.73155">
        <ele>658.59997558594</ele>
        <time>2021-05-29T06:56:28.000Z</time>
      </trkpt>
      <trkpt lat="45.21098" lon="5.7315">
        <ele>657.40002441406</ele>
        <time>2021-05-29T06:56:30.000Z</time>
      </trkpt>
      <trkpt lat="45.21092" lon="5.73143">
        <ele>656</ele>
        <time>2021-05-29T06:56:34.000Z</time>
      </trkpt>
      <trkpt lat="45.21091" lon="5.73141">
        <ele>655.59997558594</ele>
        <time>2021-05-29T06:56:35.000Z</time>
      </trkpt>
      <trkpt lat="45.21089" lon="5.7314">
        <ele>655.20001220703</ele>
        <time>2021-05-29T06:56:36.000Z</time>
      </trkpt>
      <trkpt lat="45.21085" lon="5.73138">
        <ele>654.59997558594</ele>
        <time>2021-05-29T06:56:37.000Z</time>
      </trkpt>
      <trkpt lat="45.21083" lon="5.73133">
        <ele>654</ele>
        <time>2021-05-29T06:56:40.000Z</time>
      </trkpt>
      <trkpt lat="45.21081" lon="5.7313">
        <ele>653.59997558594</ele>
        <time>2021-05-29T06:56:42.000Z</time>
      </trkpt>
      <trkpt lat="45.21078" lon="5.73133">
        <ele>652.79998779297</ele>
        <time>2021-05-29T06:56:45.000Z</time>
      </trkpt>
      <trkpt lat="45.21076" lon="5.73134">
        <ele>652.59997558594</ele>
        <time>2021-05-29T06:56:46.000Z</time>
      </trkpt>
      <trkpt lat="45.21067" lon="5.73142">
        <ele>651.20001220703</ele>
        <time>2021-05-29T06:56:51.000Z</time>
      </trkpt>
      <trkpt lat="45.21063" lon="5.73143">
        <ele>650</ele>
        <time>2021-05-29T06:56:53.000Z</time>
      </trkpt>
      <trkpt lat="45.21062" lon="5.73143">
        <ele>649.79998779297</ele>
        <time>2021-05-29T06:56:54.000Z</time>
      </trkpt>
      <trkpt lat="45.21058" lon="5.73141">
        <ele>648.59997558594</ele>
        <time>2021-05-29T06:56:57.000Z</time>
      </trkpt>
      <trkpt lat="45.21051" lon="5.73139">
        <ele>648</ele>
        <time>2021-05-29T06:57:00.000Z</time>
      </trkpt>
      <trkpt lat="45.21049" lon="5.73138">
        <ele>647.40002441406</ele>
        <time>2021-05-29T06:57:01.000Z</time>
      </trkpt>
      <trkpt lat="45.21043" lon="5.73136">
        <ele>646.59997558594</ele>
        <time>2021-05-29T06:57:04.000Z</time>
      </trkpt>
      <trkpt lat="45.21042" lon="5.73136">
        <ele>646.20001220703</ele>
        <time>2021-05-29T06:57:05.000Z</time>
      </trkpt>
      <trkpt lat="45.21036" lon="5.73131">
        <ele>645.20001220703</ele>
        <time>2021-05-29T06:57:10.000Z</time>
      </trkpt>
      <trkpt lat="45.21035" lon="5.73131">
        <ele>644.79998779297</ele>
        <time>2021-05-29T06:57:11.000Z</time>
      </trkpt>
      <trkpt lat="45.21034" lon="5.73129">
        <ele>644.40002441406</ele>
        <time>2021-05-29T06:57:12.000Z</time>
      </trkpt>
      <trkpt lat="45.21029" lon="5.73123">
        <ele>644</ele>
        <time>2021-05-29T06:57:15.000Z</time>
      </trkpt>
      <trkpt lat="45.21027" lon="5.73122">
        <ele>644</ele>
        <time>2021-05-29T06:57:17.000Z</time>
      </trkpt>
      <trkpt lat="45.21027" lon="5.73123">
        <ele>643.79998779297</ele>
        <time>2021-05-29T06:57:19.000Z</time>
      </trkpt>
      <trkpt lat="45.21027" lon="5.73125">
        <ele>643</ele>
        <time>2021-05-29T06:57:21.000Z</time>
      </trkpt>
      <trkpt lat="45.21025" lon="5.73128">
        <ele>642.40002441406</ele>
        <time>2021-05-29T06:57:23.000Z</time>
      </trkpt>
      <trkpt lat="45.21023" lon="5.73132">
        <ele>641.40002441406</ele>
        <time>2021-05-29T06:57:25.000Z</time>
      </trkpt>
      <trkpt lat="45.21023" lon="5.73141">
        <ele>640.59997558594</ele>
        <time>2021-05-29T06:57:29.000Z</time>
      </trkpt>
      <trkpt lat="45.21022" lon="5.73143">
        <ele>640.40002441406</ele>
        <time>2021-05-29T06:57:30.000Z</time>
      </trkpt>
      <trkpt lat="45.21015" lon="5.73146">
        <ele>639.40002441406</ele>
        <time>2021-05-29T06:57:33.000Z</time>
      </trkpt>
      <trkpt lat="45.21013" lon="5.73147">
        <ele>639.20001220703</ele>
        <time>2021-05-29T06:57:34.000Z</time>
      </trkpt>
      <trkpt lat="45.21007" lon="5.73151">
        <ele>638</ele>
        <time>2021-05-29T06:57:36.000Z</time>
      </trkpt>
      <trkpt lat="45.21003" lon="5.73152">
        <ele>637.40002441406</ele>
        <time>2021-05-29T06:57:38.000Z</time>
      </trkpt>
      <trkpt lat="45.21002" lon="5.73152">
        <ele>637</ele>
        <time>2021-05-29T06:57:39.000Z</time>
      </trkpt>
      <trkpt lat="45.21001" lon="5.73153">
        <ele>636.79998779297</ele>
        <time>2021-05-29T06:57:40.000Z</time>
      </trkpt>
      <trkpt lat="45.20999" lon="5.73153">
        <ele>636.59997558594</ele>
        <time>2021-05-29T06:57:41.000Z</time>
      </trkpt>
      <trkpt lat="45.20996" lon="5.73152">
        <ele>636.20001220703</ele>
        <time>2021-05-29T06:57:43.000Z</time>
      </trkpt>
      <trkpt lat="45.20995" lon="5.73151">
        <ele>635.59997558594</ele>
        <time>2021-05-29T06:57:44.000Z</time>
      </trkpt>
      <trkpt lat="45.20996" lon="5.73148">
        <ele>634.59997558594</ele>
        <time>2021-05-29T06:57:47.000Z</time>
      </trkpt>
      <trkpt lat="45.20996" lon="5.73147">
        <ele>634</ele>
        <time>2021-05-29T06:57:48.000Z</time>
      </trkpt>
      <trkpt lat="45.20997" lon="5.73147">
        <ele>633.40002441406</ele>
        <time>2021-05-29T06:57:49.000Z</time>
      </trkpt>
      <trkpt lat="45.20999" lon="5.73147">
        <ele>632.79998779297</ele>
        <time>2021-05-29T06:57:50.000Z</time>
      </trkpt>
      <trkpt lat="45.21" lon="5.73146">
        <ele>632.59997558594</ele>
        <time>2021-05-29T06:57:51.000Z</time>
      </trkpt>
      <trkpt lat="45.21003" lon="5.73145">
        <ele>632.40002441406</ele>
        <time>2021-05-29T06:57:52.000Z</time>
      </trkpt>
      <trkpt lat="45.21004" lon="5.73144">
        <ele>631.79998779297</ele>
        <time>2021-05-29T06:57:55.000Z</time>
      </trkpt>
      <trkpt lat="45.21005" lon="5.73142">
        <ele>631</ele>
        <time>2021-05-29T06:57:56.000Z</time>
      </trkpt>
      <trkpt lat="45.21006" lon="5.73141">
        <ele>630.59997558594</ele>
        <time>2021-05-29T06:57:57.000Z</time>
      </trkpt>
      <trkpt lat="45.21009" lon="5.7314">
        <ele>629.79998779297</ele>
        <time>2021-05-29T06:57:59.000Z</time>
      </trkpt>
      <trkpt lat="45.2101" lon="5.73139">
        <ele>629.40002441406</ele>
        <time>2021-05-29T06:58:01.000Z</time>
      </trkpt>
      <trkpt lat="45.21011" lon="5.73138">
        <ele>629.20001220703</ele>
        <time>2021-05-29T06:58:03.000Z</time>
      </trkpt>
      <trkpt lat="45.21013" lon="5.73136">
        <ele>629</ele>
        <time>2021-05-29T06:58:05.000Z</time>
      </trkpt>
      <trkpt lat="45.21014" lon="5.73135">
        <ele>628.79998779297</ele>
        <time>2021-05-29T06:58:07.000Z</time>
      </trkpt>
      <trkpt lat="45.21016" lon="5.73133">
        <ele>628.59997558594</ele>
        <time>2021-05-29T06:58:09.000Z</time>
      </trkpt>
      <trkpt lat="45.21016" lon="5.73133">
        <ele>628.40002441406</ele>
        <time>2021-05-29T06:58:10.000Z</time>
      </trkpt>
      <trkpt lat="45.21017" lon="5.73133">
        <ele>628.40002441406</ele>
        <time>2021-05-29T06:58:11.000Z</time>
      </trkpt>
      <trkpt lat="45.2102" lon="5.73137">
        <ele>627.40002441406</ele>
        <time>2021-05-29T06:58:16.000Z</time>
      </trkpt>
      <trkpt lat="45.21023" lon="5.73139">
        <ele>626.40002441406</ele>
        <time>2021-05-29T06:58:18.000Z</time>
      </trkpt>
      <trkpt lat="45.21023" lon="5.7314">
        <ele>626</ele>
        <time>2021-05-29T06:58:19.000Z</time>
      </trkpt>
      <trkpt lat="45.21025" lon="5.73146">
        <ele>625.40002441406</ele>
        <time>2021-05-29T06:58:22.000Z</time>
      </trkpt>
      <trkpt lat="45.21026" lon="5.73148">
        <ele>625</ele>
        <time>2021-05-29T06:58:23.000Z</time>
      </trkpt>
      <trkpt lat="45.21028" lon="5.73149">
        <ele>624.59997558594</ele>
        <time>2021-05-29T06:58:24.000Z</time>
      </trkpt>
      <trkpt lat="45.21029" lon="5.7315">
        <ele>624.40002441406</ele>
        <time>2021-05-29T06:58:25.000Z</time>
      </trkpt>
      <trkpt lat="45.21031" lon="5.73151">
        <ele>624</ele>
        <time>2021-05-29T06:58:26.000Z</time>
      </trkpt>
      <trkpt lat="45.21034" lon="5.73152">
        <ele>623.59997558594</ele>
        <time>2021-05-29T06:58:27.000Z</time>
      </trkpt>
      <trkpt lat="45.21035" lon="5.73153">
        <ele>623.20001220703</ele>
        <time>2021-05-29T06:58:28.000Z</time>
      </trkpt>
      <trkpt lat="45.21036" lon="5.73153">
        <ele>623</ele>
        <time>2021-05-29T06:58:29.000Z</time>
      </trkpt>
      <trkpt lat="45.21037" lon="5.73153">
        <ele>622.59997558594</ele>
        <time>2021-05-29T06:58:30.000Z</time>
      </trkpt>
      <trkpt lat="45.2104" lon="5.73154">
        <ele>622.20001220703</ele>
        <time>2021-05-29T06:58:32.000Z</time>
      </trkpt>
      <trkpt lat="45.21041" lon="5.73155">
        <ele>621.59997558594</ele>
        <time>2021-05-29T06:58:33.000Z</time>
      </trkpt>
      <trkpt lat="45.21046" lon="5.73157">
        <ele>620.40002441406</ele>
        <time>2021-05-29T06:58:37.000Z</time>
      </trkpt>
      <trkpt lat="45.21048" lon="5.73156">
        <ele>620.20001220703</ele>
        <time>2021-05-29T06:58:38.000Z</time>
      </trkpt>
      <trkpt lat="45.21057" lon="5.73159">
        <ele>619.59997558594</ele>
        <time>2021-05-29T06:58:42.000Z</time>
      </trkpt>
      <trkpt lat="45.21059" lon="5.73162">
        <ele>619</ele>
        <time>2021-05-29T06:58:43.000Z</time>
      </trkpt>
      <trkpt lat="45.21061" lon="5.73163">
        <ele>618.59997558594</ele>
        <time>2021-05-29T06:58:44.000Z</time>
      </trkpt>
      <trkpt lat="45.21061" lon="5.73165">
        <ele>618.20001220703</ele>
        <time>2021-05-29T06:58:45.000Z</time>
      </trkpt>
      <trkpt lat="45.21061" lon="5.73166">
        <ele>617.79998779297</ele>
        <time>2021-05-29T06:58:46.000Z</time>
      </trkpt>
      <trkpt lat="45.21061" lon="5.73168">
        <ele>617.40002441406</ele>
        <time>2021-05-29T06:58:48.000Z</time>
      </trkpt>
      <trkpt lat="45.21061" lon="5.73169">
        <ele>617.20001220703</ele>
        <time>2021-05-29T06:58:49.000Z</time>
      </trkpt>
      <trkpt lat="45.21061" lon="5.73169">
        <ele>616.79998779297</ele>
        <time>2021-05-29T06:58:50.000Z</time>
      </trkpt>
      <trkpt lat="45.21062" lon="5.7317">
        <ele>616.79998779297</ele>
        <time>2021-05-29T06:58:51.000Z</time>
      </trkpt>
      <trkpt lat="45.21062" lon="5.73172">
        <ele>615.79998779297</ele>
        <time>2021-05-29T06:58:53.000Z</time>
      </trkpt>
      <trkpt lat="45.21066" lon="5.7318">
        <ele>615</ele>
        <time>2021-05-29T06:58:56.000Z</time>
      </trkpt>
      <trkpt lat="45.21069" lon="5.73182">
        <ele>614.59997558594</ele>
        <time>2021-05-29T06:58:58.000Z</time>
      </trkpt>
      <trkpt lat="45.21071" lon="5.73185">
        <ele>614</ele>
        <time>2021-05-29T06:59:00.000Z</time>
      </trkpt>
      <trkpt lat="45.21073" lon="5.73187">
        <ele>613.59997558594</ele>
        <time>2021-05-29T06:59:01.000Z</time>
      </trkpt>
      <trkpt lat="45.21077" lon="5.73192">
        <ele>612.79998779297</ele>
        <time>2021-05-29T06:59:04.000Z</time>
      </trkpt>
      <trkpt lat="45.21078" lon="5.73194">
        <ele>612</ele>
        <time>2021-05-29T06:59:05.000Z</time>
      </trkpt>
      <trkpt lat="45.21081" lon="5.73201">
        <ele>611</ele>
        <time>2021-05-29T06:59:08.000Z</time>
      </trkpt>
      <trkpt lat="45.21081" lon="5.73203">
        <ele>610.79998779297</ele>
        <time>2021-05-29T06:59:09.000Z</time>
      </trkpt>
      <trkpt lat="45.21079" lon="5.73206">
        <ele>610</ele>
        <time>2021-05-29T06:59:12.000Z</time>
      </trkpt>
      <trkpt lat="45.21076" lon="5.73208">
        <ele>609.20001220703</ele>
        <time>2021-05-29T06:59:14.000Z</time>
      </trkpt>
      <trkpt lat="45.21074" lon="5.73208">
        <ele>608.59997558594</ele>
        <time>2021-05-29T06:59:16.000Z</time>
      </trkpt>
      <trkpt lat="45.2107" lon="5.73206">
        <ele>607.59997558594</ele>
        <time>2021-05-29T06:59:19.000Z</time>
      </trkpt>
      <trkpt lat="45.21067" lon="5.73205">
        <ele>606.79998779297</ele>
        <time>2021-05-29T06:59:21.000Z</time>
      </trkpt>
      <trkpt lat="45.21064" lon="5.73205">
        <ele>606.40002441406</ele>
        <time>2021-05-29T06:59:23.000Z</time>
      </trkpt>
      <trkpt lat="45.21059" lon="5.73203">
        <ele>605.40002441406</ele>
        <time>2021-05-29T06:59:27.000Z</time>
      </trkpt>
      <trkpt lat="45.21058" lon="5.73203">
        <ele>605</ele>
        <time>2021-05-29T06:59:28.000Z</time>
      </trkpt>
      <trkpt lat="45.21055" lon="5.73206">
        <ele>604</ele>
        <time>2021-05-29T06:59:31.000Z</time>
      </trkpt>
      <trkpt lat="45.21051" lon="5.73208">
        <ele>603.59997558594</ele>
        <time>2021-05-29T06:59:33.000Z</time>
      </trkpt>
      <trkpt lat="45.21047" lon="5.7321">
        <ele>603</ele>
        <time>2021-05-29T06:59:35.000Z</time>
      </trkpt>
      <trkpt lat="45.21046" lon="5.7321">
        <ele>602.40002441406</ele>
        <time>2021-05-29T06:59:36.000Z</time>
      </trkpt>
      <trkpt lat="45.21043" lon="5.73208">
        <ele>601.59997558594</ele>
        <time>2021-05-29T06:59:38.000Z</time>
      </trkpt>
      <trkpt lat="45.21041" lon="5.73207">
        <ele>601.20001220703</ele>
        <time>2021-05-29T06:59:39.000Z</time>
      </trkpt>
      <trkpt lat="45.21038" lon="5.73206">
        <ele>600.40002441406</ele>
        <time>2021-05-29T06:59:41.000Z</time>
      </trkpt>
      <trkpt lat="45.2103" lon="5.73202">
        <ele>599.40002441406</ele>
        <time>2021-05-29T06:59:45.000Z</time>
      </trkpt>
      <trkpt lat="45.21029" lon="5.73201">
        <ele>599.20001220703</ele>
        <time>2021-05-29T06:59:46.000Z</time>
      </trkpt>
      <trkpt lat="45.21026" lon="5.73197">
        <ele>599</ele>
        <time>2021-05-29T06:59:48.000Z</time>
      </trkpt>
      <trkpt lat="45.21024" lon="5.73196">
        <ele>598.79998779297</ele>
        <time>2021-05-29T06:59:49.000Z</time>
      </trkpt>
      <trkpt lat="45.21023" lon="5.73197">
        <ele>598.40002441406</ele>
        <time>2021-05-29T06:59:51.000Z</time>
      </trkpt>
      <trkpt lat="45.21021" lon="5.73198">
        <ele>598</ele>
        <time>2021-05-29T06:59:52.000Z</time>
      </trkpt>
      <trkpt lat="45.21016" lon="5.73201">
        <ele>597</ele>
        <time>2021-05-29T06:59:55.000Z</time>
      </trkpt>
      <trkpt lat="45.21016" lon="5.73202">
        <ele>596.79998779297</ele>
        <time>2021-05-29T06:59:56.000Z</time>
      </trkpt>
      <trkpt lat="45.21017" lon="5.73207">
        <ele>595.59997558594</ele>
        <time>2021-05-29T06:59:58.000Z</time>
      </trkpt>
      <trkpt lat="45.21014" lon="5.73213">
        <ele>594.79998779297</ele>
        <time>2021-05-29T07:00:01.000Z</time>
      </trkpt>
      <trkpt lat="45.21012" lon="5.73215">
        <ele>594.59997558594</ele>
        <time>2021-05-29T07:00:02.000Z</time>
      </trkpt>
      <trkpt lat="45.2101" lon="5.73216">
        <ele>594.20001220703</ele>
        <time>2021-05-29T07:00:03.000Z</time>
      </trkpt>
      <trkpt lat="45.21006" lon="5.73219">
        <ele>593.59997558594</ele>
        <time>2021-05-29T07:00:05.000Z</time>
      </trkpt>
      <trkpt lat="45.21004" lon="5.73221">
        <ele>593.40002441406</ele>
        <time>2021-05-29T07:00:06.000Z</time>
      </trkpt>
      <trkpt lat="45.21004" lon="5.73224">
        <ele>593</ele>
        <time>2021-05-29T07:00:07.000Z</time>
      </trkpt>
      <trkpt lat="45.21003" lon="5.73226">
        <ele>592.20001220703</ele>
        <time>2021-05-29T07:00:09.000Z</time>
      </trkpt>
      <trkpt lat="45.21002" lon="5.73227">
        <ele>591.79998779297</ele>
        <time>2021-05-29T07:00:10.000Z</time>
      </trkpt>
      <trkpt lat="45.20997" lon="5.73228">
        <ele>591</ele>
        <time>2021-05-29T07:00:12.000Z</time>
      </trkpt>
      <trkpt lat="45.20994" lon="5.73228">
        <ele>590.59997558594</ele>
        <time>2021-05-29T07:00:13.000Z</time>
      </trkpt>
      <trkpt lat="45.20989" lon="5.7323">
        <ele>589.59997558594</ele>
        <time>2021-05-29T07:00:15.000Z</time>
      </trkpt>
      <trkpt lat="45.20987" lon="5.7323">
        <ele>589.20001220703</ele>
        <time>2021-05-29T07:00:16.000Z</time>
      </trkpt>
      <trkpt lat="45.20984" lon="5.73229">
        <ele>588.59997558594</ele>
        <time>2021-05-29T07:00:18.000Z</time>
      </trkpt>
      <trkpt lat="45.20986" lon="5.73226">
        <ele>587.79998779297</ele>
        <time>2021-05-29T07:00:21.000Z</time>
      </trkpt>
      <trkpt lat="45.20989" lon="5.73224">
        <ele>587.20001220703</ele>
        <time>2021-05-29T07:00:23.000Z</time>
      </trkpt>
      <trkpt lat="45.20992" lon="5.73222">
        <ele>586.40002441406</ele>
        <time>2021-05-29T07:00:26.000Z</time>
      </trkpt>
      <trkpt lat="45.20992" lon="5.73222">
        <ele>586.20001220703</ele>
        <time>2021-05-29T07:00:27.000Z</time>
      </trkpt>
      <trkpt lat="45.20992" lon="5.73224">
        <ele>586</ele>
        <time>2021-05-29T07:00:28.000Z</time>
      </trkpt>
      <trkpt lat="45.20992" lon="5.73224">
        <ele>585</ele>
        <time>2021-05-29T07:00:30.000Z</time>
      </trkpt>
      <trkpt lat="45.2099" lon="5.73225">
        <ele>584.40002441406</ele>
        <time>2021-05-29T07:00:32.000Z</time>
      </trkpt>
      <trkpt lat="45.20987" lon="5.73228">
        <ele>583.79998779297</ele>
        <time>2021-05-29T07:00:34.000Z</time>
      </trkpt>
      <trkpt lat="45.20985" lon="5.73229">
        <ele>583.59997558594</ele>
        <time>2021-05-29T07:00:35.000Z</time>
      </trkpt>
      <trkpt lat="45.20977" lon="5.73228">
        <ele>582.59997558594</ele>
        <time>2021-05-29T07:00:38.000Z</time>
      </trkpt>
      <trkpt lat="45.20973" lon="5.73228">
        <ele>582</ele>
        <time>2021-05-29T07:00:40.000Z</time>
      </trkpt>
      <trkpt lat="45.20971" lon="5.73228">
        <ele>581.59997558594</ele>
        <time>2021-05-29T07:00:41.000Z</time>
      </trkpt>
      <trkpt lat="45.20967" lon="5.73231">
        <ele>581.20001220703</ele>
        <time>2021-05-29T07:00:43.000Z</time>
      </trkpt>
      <trkpt lat="45.20961" lon="5.73233">
        <ele>580.59997558594</ele>
        <time>2021-05-29T07:00:45.000Z</time>
      </trkpt>
      <trkpt lat="45.20957" lon="5.73233">
        <ele>579.40002441406</ele>
        <time>2021-05-29T07:00:47.000Z</time>
      </trkpt>
      <trkpt lat="45.2095" lon="5.73235">
        <ele>578.40002441406</ele>
        <time>2021-05-29T07:00:50.000Z</time>
      </trkpt>
      <trkpt lat="45.20947" lon="5.73235">
        <ele>578.20001220703</ele>
        <time>2021-05-29T07:00:51.000Z</time>
      </trkpt>
      <trkpt lat="45.20937" lon="5.73232">
        <ele>577</ele>
        <time>2021-05-29T07:00:55.000Z</time>
      </trkpt>
      <trkpt lat="45.20936" lon="5.73232">
        <ele>576.40002441406</ele>
        <time>2021-05-29T07:00:56.000Z</time>
      </trkpt>
      <trkpt lat="45.20935" lon="5.73231">
        <ele>575.79998779297</ele>
        <time>2021-05-29T07:00:57.000Z</time>
      </trkpt>
      <trkpt lat="45.20933" lon="5.73231">
        <ele>575.40002441406</ele>
        <time>2021-05-29T07:00:59.000Z</time>
      </trkpt>
      <trkpt lat="45.20933" lon="5.73232">
        <ele>574.79998779297</ele>
        <time>2021-05-29T07:01:00.000Z</time>
      </trkpt>
      <trkpt lat="45.20939" lon="5.73237">
        <ele>573.20001220703</ele>
        <time>2021-05-29T07:01:04.000Z</time>
      </trkpt>
      <trkpt lat="45.20941" lon="5.73237">
        <ele>572.79998779297</ele>
        <time>2021-05-29T07:01:05.000Z</time>
      </trkpt>
      <trkpt lat="45.20944" lon="5.73237">
        <ele>572</ele>
        <time>2021-05-29T07:01:07.000Z</time>
      </trkpt>
      <trkpt lat="45.20948" lon="5.73238">
        <ele>571</ele>
        <time>2021-05-29T07:01:10.000Z</time>
      </trkpt>
      <trkpt lat="45.20948" lon="5.73237">
        <ele>570.79998779297</ele>
        <time>2021-05-29T07:01:11.000Z</time>
      </trkpt>
      <trkpt lat="45.20951" lon="5.73236">
        <ele>570</ele>
        <time>2021-05-29T07:01:13.000Z</time>
      </trkpt>
      <trkpt lat="45.20955" lon="5.73236">
        <ele>568.79998779297</ele>
        <time>2021-05-29T07:01:16.000Z</time>
      </trkpt>
      <trkpt lat="45.20957" lon="5.73237">
        <ele>568.40002441406</ele>
        <time>2021-05-29T07:01:17.000Z</time>
      </trkpt>
      <trkpt lat="45.2096" lon="5.73238">
        <ele>567.59997558594</ele>
        <time>2021-05-29T07:01:19.000Z</time>
      </trkpt>
      <trkpt lat="45.2097" lon="5.73242">
        <ele>566.59997558594</ele>
        <time>2021-05-29T07:01:23.000Z</time>
      </trkpt>
      <trkpt lat="45.20976" lon="5.73241">
        <ele>565.79998779297</ele>
        <time>2021-05-29T07:01:25.000Z</time>
      </trkpt>
      <trkpt lat="45.2098" lon="5.73243">
        <ele>565.40002441406</ele>
        <time>2021-05-29T07:01:27.000Z</time>
      </trkpt>
      <trkpt lat="45.20982" lon="5.73245">
        <ele>564.40002441406</ele>
        <time>2021-05-29T07:01:30.000Z</time>
      </trkpt>
      <trkpt lat="45.20982" lon="5.73247">
        <ele>564.40002441406</ele>
        <time>2021-05-29T07:01:31.000Z</time>
      </trkpt>
      <trkpt lat="45.20978" lon="5.73254">
        <ele>563.20001220703</ele>
        <time>2021-05-29T07:01:35.000Z</time>
      </trkpt>
      <trkpt lat="45.20974" lon="5.73259">
        <ele>561.79998779297</ele>
        <time>2021-05-29T07:01:38.000Z</time>
      </trkpt>
      <trkpt lat="45.20969" lon="5.73261">
        <ele>560.79998779297</ele>
        <time>2021-05-29T07:01:41.000Z</time>
      </trkpt>
      <trkpt lat="45.20967" lon="5.73262">
        <ele>560.40002441406</ele>
        <time>2021-05-29T07:01:42.000Z</time>
      </trkpt>
      <trkpt lat="45.20965" lon="5.73262">
        <ele>560</ele>
        <time>2021-05-29T07:01:43.000Z</time>
      </trkpt>
      <trkpt lat="45.20964" lon="5.73261">
        <ele>559.79998779297</ele>
        <time>2021-05-29T07:01:44.000Z</time>
      </trkpt>
      <trkpt lat="45.20962" lon="5.73262">
        <ele>559</ele>
        <time>2021-05-29T07:01:46.000Z</time>
      </trkpt>
      <trkpt lat="45.20958" lon="5.73265">
        <ele>558.40002441406</ele>
        <time>2021-05-29T07:01:48.000Z</time>
      </trkpt>
      <trkpt lat="45.20952" lon="5.73266">
        <ele>557</ele>
        <time>2021-05-29T07:01:52.000Z</time>
      </trkpt>
      <trkpt lat="45.20947" lon="5.73264">
        <ele>556</ele>
        <time>2021-05-29T07:01:55.000Z</time>
      </trkpt>
      <trkpt lat="45.20943" lon="5.73264">
        <ele>554.79998779297</ele>
        <time>2021-05-29T07:01:57.000Z</time>
      </trkpt>
      <trkpt lat="45.20937" lon="5.73263">
        <ele>553.79998779297</ele>
        <time>2021-05-29T07:02:00.000Z</time>
      </trkpt>
      <trkpt lat="45.20928" lon="5.73262">
        <ele>552.59997558594</ele>
        <time>2021-05-29T07:02:04.000Z</time>
      </trkpt>
      <trkpt lat="45.20923" lon="5.73262">
        <ele>551.79998779297</ele>
        <time>2021-05-29T07:02:07.000Z</time>
      </trkpt>
      <trkpt lat="45.20921" lon="5.73262">
        <ele>551.40002441406</ele>
        <time>2021-05-29T07:02:08.000Z</time>
      </trkpt>
      <trkpt lat="45.20919" lon="5.73262">
        <ele>550.79998779297</ele>
        <time>2021-05-29T07:02:09.000Z</time>
      </trkpt>
      <trkpt lat="45.20915" lon="5.73263">
        <ele>550.40002441406</ele>
        <time>2021-05-29T07:02:11.000Z</time>
      </trkpt>
      <trkpt lat="45.20913" lon="5.73263">
        <ele>549.59997558594</ele>
        <time>2021-05-29T07:02:13.000Z</time>
      </trkpt>
      <trkpt lat="45.2091" lon="5.73264">
        <ele>549.20001220703</ele>
        <time>2021-05-29T07:02:16.000Z</time>
      </trkpt>
      <trkpt lat="45.20911" lon="5.73265">
        <ele>548.20001220703</ele>
        <time>2021-05-29T07:02:19.000Z</time>
      </trkpt>
      <trkpt lat="45.20912" lon="5.73265">
        <ele>548</ele>
        <time>2021-05-29T07:02:20.000Z</time>
      </trkpt>
      <trkpt lat="45.20916" lon="5.73267">
        <ele>547</ele>
        <time>2021-05-29T07:02:23.000Z</time>
      </trkpt>
      <trkpt lat="45.20918" lon="5.73267">
        <ele>546.59997558594</ele>
        <time>2021-05-29T07:02:24.000Z</time>
      </trkpt>
      <trkpt lat="45.20921" lon="5.73268">
        <ele>546</ele>
        <time>2021-05-29T07:02:26.000Z</time>
      </trkpt>
      <trkpt lat="45.20922" lon="5.73269">
        <ele>545.59997558594</ele>
        <time>2021-05-29T07:02:27.000Z</time>
      </trkpt>
      <trkpt lat="45.20924" lon="5.7327">
        <ele>545</ele>
        <time>2021-05-29T07:02:29.000Z</time>
      </trkpt>
      <trkpt lat="45.2093" lon="5.73274">
        <ele>543.79998779297</ele>
        <time>2021-05-29T07:02:33.000Z</time>
      </trkpt>
      <trkpt lat="45.20937" lon="5.7328">
        <ele>542.79998779297</ele>
        <time>2021-05-29T07:02:37.000Z</time>
      </trkpt>
      <trkpt lat="45.20942" lon="5.73283">
        <ele>541.59997558594</ele>
        <time>2021-05-29T07:02:40.000Z</time>
      </trkpt>
      <trkpt lat="45.20945" lon="5.73284">
        <ele>540.79998779297</ele>
        <time>2021-05-29T07:02:42.000Z</time>
      </trkpt>
      <trkpt lat="45.20948" lon="5.73284">
        <ele>540.40002441406</ele>
        <time>2021-05-29T07:02:43.000Z</time>
      </trkpt>
      <trkpt lat="45.2095" lon="5.73285">
        <ele>540.20001220703</ele>
        <time>2021-05-29T07:02:44.000Z</time>
      </trkpt>
      <trkpt lat="45.20955" lon="5.73286">
        <ele>539</ele>
        <time>2021-05-29T07:02:47.000Z</time>
      </trkpt>
      <trkpt lat="45.20957" lon="5.73286">
        <ele>538.20001220703</ele>
        <time>2021-05-29T07:02:49.000Z</time>
      </trkpt>
      <trkpt lat="45.20958" lon="5.73287">
        <ele>537.59997558594</ele>
        <time>2021-05-29T07:02:51.000Z</time>
      </trkpt>
      <trkpt lat="45.2096" lon="5.73287">
        <ele>537.40002441406</ele>
        <time>2021-05-29T07:02:52.000Z</time>
      </trkpt>
      <trkpt lat="45.20963" lon="5.73288">
        <ele>536.59997558594</ele>
        <time>2021-05-29T07:02:54.000Z</time>
      </trkpt>
      <trkpt lat="45.20971" lon="5.73286">
        <ele>535.79998779297</ele>
        <time>2021-05-29T07:02:58.000Z</time>
      </trkpt>
      <trkpt lat="45.20973" lon="5.73288">
        <ele>535.59997558594</ele>
        <time>2021-05-29T07:02:59.000Z</time>
      </trkpt>
      <trkpt lat="45.2098" lon="5.73291">
        <ele>534.40002441406</ele>
        <time>2021-05-29T07:03:02.000Z</time>
      </trkpt>
      <trkpt lat="45.20986" lon="5.73293">
        <ele>533.59997558594</ele>
        <time>2021-05-29T07:03:06.000Z</time>
      </trkpt>
      <trkpt lat="45.20986" lon="5.73294">
        <ele>532.79998779297</ele>
        <time>2021-05-29T07:03:07.000Z</time>
      </trkpt>
      <trkpt lat="45.20985" lon="5.73294">
        <ele>532.20001220703</ele>
        <time>2021-05-29T07:03:08.000Z</time>
      </trkpt>
      <trkpt lat="45.20983" lon="5.73296">
        <ele>531.59997558594</ele>
        <time>2021-05-29T07:03:10.000Z</time>
      </trkpt>
      <trkpt lat="45.20977" lon="5.73299">
        <ele>530.59997558594</ele>
        <time>2021-05-29T07:03:14.000Z</time>
      </trkpt>
      <trkpt lat="45.20975" lon="5.73299">
        <ele>529.79998779297</ele>
        <time>2021-05-29T07:03:16.000Z</time>
      </trkpt>
      <trkpt lat="45.20971" lon="5.733">
        <ele>529.40002441406</ele>
        <time>2021-05-29T07:03:18.000Z</time>
      </trkpt>
      <trkpt lat="45.20966" lon="5.73302">
        <ele>528</ele>
        <time>2021-05-29T07:03:21.000Z</time>
      </trkpt>
      <trkpt lat="45.20964" lon="5.73303">
        <ele>527.79998779297</ele>
        <time>2021-05-29T07:03:22.000Z</time>
      </trkpt>
      <trkpt lat="45.20963" lon="5.73305">
        <ele>527.40002441406</ele>
        <time>2021-05-29T07:03:23.000Z</time>
      </trkpt>
      <trkpt lat="45.2096" lon="5.73308">
        <ele>527</ele>
        <time>2021-05-29T07:03:25.000Z</time>
      </trkpt>
      <trkpt lat="45.20958" lon="5.73309">
        <ele>526.59997558594</ele>
        <time>2021-05-29T07:03:26.000Z</time>
      </trkpt>
      <trkpt lat="45.20955" lon="5.73312">
        <ele>526</ele>
        <time>2021-05-29T07:03:28.000Z</time>
      </trkpt>
      <trkpt lat="45.20953" lon="5.73313">
        <ele>525.59997558594</ele>
        <time>2021-05-29T07:03:29.000Z</time>
      </trkpt>
      <trkpt lat="45.20949" lon="5.73313">
        <ele>525.40002441406</ele>
        <time>2021-05-29T07:03:31.000Z</time>
      </trkpt>
      <trkpt lat="45.20947" lon="5.73315">
        <ele>524.79998779297</ele>
        <time>2021-05-29T07:03:33.000Z</time>
      </trkpt>
      <trkpt lat="45.20945" lon="5.73317">
        <ele>524.59997558594</ele>
        <time>2021-05-29T07:03:34.000Z</time>
      </trkpt>
      <trkpt lat="45.20941" lon="5.73318">
        <ele>524.20001220703</ele>
        <time>2021-05-29T07:03:36.000Z</time>
      </trkpt>
      <trkpt lat="45.20938" lon="5.73317">
        <ele>523.79998779297</ele>
        <time>2021-05-29T07:03:37.000Z</time>
      </trkpt>
      <trkpt lat="45.20937" lon="5.73316">
        <ele>523.59997558594</ele>
        <time>2021-05-29T07:03:38.000Z</time>
      </trkpt>
      <trkpt lat="45.20931" lon="5.73314">
        <ele>522.40002441406</ele>
        <time>2021-05-29T07:03:41.000Z</time>
      </trkpt>
      <trkpt lat="45.20928" lon="5.73313">
        <ele>521.79998779297</ele>
        <time>2021-05-29T07:03:43.000Z</time>
      </trkpt>
      <trkpt lat="45.20924" lon="5.73314">
        <ele>521.20001220703</ele>
        <time>2021-05-29T07:03:45.000Z</time>
      </trkpt>
      <trkpt lat="45.20918" lon="5.73315">
        <ele>520</ele>
        <time>2021-05-29T07:03:48.000Z</time>
      </trkpt>
      <trkpt lat="45.20912" lon="5.73317">
        <ele>518.59997558594</ele>
        <time>2021-05-29T07:03:51.000Z</time>
      </trkpt>
      <trkpt lat="45.20906" lon="5.73319">
        <ele>517.79998779297</ele>
        <time>2021-05-29T07:03:54.000Z</time>
      </trkpt>
      <trkpt lat="45.20903" lon="5.73319">
        <ele>517.59997558594</ele>
        <time>2021-05-29T07:03:55.000Z</time>
      </trkpt>
      <trkpt lat="45.20901" lon="5.7332">
        <ele>517.20001220703</ele>
        <time>2021-05-29T07:03:56.000Z</time>
      </trkpt>
      <trkpt lat="45.20893" lon="5.73324">
        <ele>516.59997558594</ele>
        <time>2021-05-29T07:03:59.000Z</time>
      </trkpt>
      <trkpt lat="45.20891" lon="5.73326">
        <ele>516</ele>
        <time>2021-05-29T07:04:00.000Z</time>
      </trkpt>
      <trkpt lat="45.20886" lon="5.73329">
        <ele>514.79998779297</ele>
        <time>2021-05-29T07:04:03.000Z</time>
      </trkpt>
      <trkpt lat="45.20882" lon="5.73329">
        <ele>514.20001220703</ele>
        <time>2021-05-29T07:04:05.000Z</time>
      </trkpt>
      <trkpt lat="45.20878" lon="5.7333">
        <ele>513.79998779297</ele>
        <time>2021-05-29T07:04:07.000Z</time>
      </trkpt>
      <trkpt lat="45.20872" lon="5.73326">
        <ele>513</ele>
        <time>2021-05-29T07:04:10.000Z</time>
      </trkpt>
      <trkpt lat="45.20871" lon="5.73326">
        <ele>512.79998779297</ele>
        <time>2021-05-29T07:04:11.000Z</time>
      </trkpt>
      <trkpt lat="45.20869" lon="5.73326">
        <ele>512.20001220703</ele>
        <time>2021-05-29T07:04:12.000Z</time>
      </trkpt>
      <trkpt lat="45.20868" lon="5.73326">
        <ele>511.60000610352</ele>
        <time>2021-05-29T07:04:13.000Z</time>
      </trkpt>
      <trkpt lat="45.20865" lon="5.73325">
        <ele>510.60000610352</ele>
        <time>2021-05-29T07:04:15.000Z</time>
      </trkpt>
      <trkpt lat="45.20864" lon="5.73323">
        <ele>510</ele>
        <time>2021-05-29T07:04:17.000Z</time>
      </trkpt>
      <trkpt lat="45.20862" lon="5.73322">
        <ele>509.60000610352</ele>
        <time>2021-05-29T07:04:18.000Z</time>
      </trkpt>
      <trkpt lat="45.20858" lon="5.73319">
        <ele>509</ele>
        <time>2021-05-29T07:04:21.000Z</time>
      </trkpt>
      <trkpt lat="45.20855" lon="5.73317">
        <ele>508.60000610352</ele>
        <time>2021-05-29T07:04:23.000Z</time>
      </trkpt>
      <trkpt lat="45.20854" lon="5.73315">
        <ele>508.60000610352</ele>
        <time>2021-05-29T07:04:24.000Z</time>
      </trkpt>
      <trkpt lat="45.20855" lon="5.73314">
        <ele>508.60000610352</ele>
        <time>2021-05-29T07:04:25.000Z</time>
      </trkpt>
      <trkpt lat="45.20854" lon="5.73309">
        <ele>508.39999389648</ele>
        <time>2021-05-29T07:04:30.000Z</time>
      </trkpt>
      <trkpt lat="45.20854" lon="5.73308">
        <ele>508.39999389648</ele>
        <time>2021-05-29T07:04:31.000Z</time>
      </trkpt>
      <trkpt lat="45.20855" lon="5.73307">
        <ele>508.39999389648</ele>
        <time>2021-05-29T07:04:34.000Z</time>
      </trkpt>
      <trkpt lat="45.20854" lon="5.73306">
        <ele>508.39999389648</ele>
        <time>2021-05-29T07:04:36.000Z</time>
      </trkpt>
      <trkpt lat="45.20855" lon="5.73304">
        <ele>508.39999389648</ele>
        <time>2021-05-29T07:04:40.000Z</time>
      </trkpt>
      <trkpt lat="45.20858" lon="5.73311">
        <ele>507.39999389648</ele>
        <time>2021-05-29T07:04:44.000Z</time>
      </trkpt>
      <trkpt lat="45.20858" lon="5.73313">
        <ele>507</ele>
        <time>2021-05-29T07:04:46.000Z</time>
      </trkpt>
      <trkpt lat="45.20857" lon="5.73314">
        <ele>506.79998779297</ele>
        <time>2021-05-29T07:04:49.000Z</time>
      </trkpt>
      <trkpt lat="45.20857" lon="5.73314">
        <ele>507</ele>
        <time>2021-05-29T07:04:53.000Z</time>
      </trkpt>
      <trkpt lat="45.20858" lon="5.73314">
        <ele>507</ele>
        <time>2021-05-29T07:05:03.000Z</time>
      </trkpt>
      <trkpt lat="45.20858" lon="5.73313">
        <ele>507.20001220703</ele>
        <time>2021-05-29T07:05:18.000Z</time>
      </trkpt>
      <trkpt lat="45.20855" lon="5.73307">
        <ele>507.79998779297</ele>
        <time>2021-05-29T07:05:22.000Z</time>
      </trkpt>
      <trkpt lat="45.20854" lon="5.73302">
        <ele>508.60000610352</ele>
        <time>2021-05-29T07:05:25.000Z</time>
      </trkpt>
      <trkpt lat="45.20853" lon="5.733">
        <ele>509</ele>
        <time>2021-05-29T07:05:26.000Z</time>
      </trkpt>
      <trkpt lat="45.2085" lon="5.73296">
        <ele>509.20001220703</ele>
        <time>2021-05-29T07:05:29.000Z</time>
      </trkpt>
      <trkpt lat="45.20842" lon="5.73283">
        <ele>509.39999389648</ele>
        <time>2021-05-29T07:05:35.000Z</time>
      </trkpt>
      <trkpt lat="45.20841" lon="5.73275">
        <ele>509.60000610352</ele>
        <time>2021-05-29T07:05:38.000Z</time>
      </trkpt>
      <trkpt lat="45.20838" lon="5.7327">
        <ele>509.79998779297</ele>
        <time>2021-05-29T07:05:41.000Z</time>
      </trkpt>
      <trkpt lat="45.20833" lon="5.73261">
        <ele>510.20001220703</ele>
        <time>2021-05-29T07:05:45.000Z</time>
      </trkpt>
      <trkpt lat="45.2083" lon="5.73254">
        <ele>510.79998779297</ele>
        <time>2021-05-29T07:05:48.000Z</time>
      </trkpt>
      <trkpt lat="45.20827" lon="5.7325">
        <ele>511</ele>
        <time>2021-05-29T07:05:50.000Z</time>
      </trkpt>
      <trkpt lat="45.20826" lon="5.73248">
        <ele>511.39999389648</ele>
        <time>2021-05-29T07:05:51.000Z</time>
      </trkpt>
      <trkpt lat="45.20824" lon="5.73243">
        <ele>512</ele>
        <time>2021-05-29T07:05:54.000Z</time>
      </trkpt>
      <trkpt lat="45.20821" lon="5.73237">
        <ele>512.59997558594</ele>
        <time>2021-05-29T07:05:57.000Z</time>
      </trkpt>
      <trkpt lat="45.2082" lon="5.73234">
        <ele>513.20001220703</ele>
        <time>2021-05-29T07:05:59.000Z</time>
      </trkpt>
      <trkpt lat="45.20817" lon="5.73228">
        <ele>513.59997558594</ele>
        <time>2021-05-29T07:06:02.000Z</time>
      </trkpt>
      <trkpt lat="45.20816" lon="5.73222">
        <ele>514</ele>
        <time>2021-05-29T07:06:05.000Z</time>
      </trkpt>
      <trkpt lat="45.20815" lon="5.7322">
        <ele>514</ele>
        <time>2021-05-29T07:06:06.000Z</time>
      </trkpt>
      <trkpt lat="45.20813" lon="5.73218">
        <ele>514.40002441406</ele>
        <time>2021-05-29T07:06:07.000Z</time>
      </trkpt>
      <trkpt lat="45.20809" lon="5.73212">
        <ele>515</ele>
        <time>2021-05-29T07:06:10.000Z</time>
      </trkpt>
      <trkpt lat="45.20806" lon="5.73208">
        <ele>515.40002441406</ele>
        <time>2021-05-29T07:06:13.000Z</time>
      </trkpt>
      <trkpt lat="45.20805" lon="5.73206">
        <ele>515.59997558594</ele>
        <time>2021-05-29T07:06:14.000Z</time>
      </trkpt>
      <trkpt lat="45.20801" lon="5.73201">
        <ele>516.20001220703</ele>
        <time>2021-05-29T07:06:17.000Z</time>
      </trkpt>
      <trkpt lat="45.20797" lon="5.73196">
        <ele>516.59997558594</ele>
        <time>2021-05-29T07:06:21.000Z</time>
      </trkpt>
      <trkpt lat="45.20795" lon="5.73192">
        <ele>517.20001220703</ele>
        <time>2021-05-29T07:06:23.000Z</time>
      </trkpt>
      <trkpt lat="45.20795" lon="5.73191">
        <ele>517.40002441406</ele>
        <time>2021-05-29T07:06:24.000Z</time>
      </trkpt>
      <trkpt lat="45.20794" lon="5.73189">
        <ele>517.79998779297</ele>
        <time>2021-05-29T07:06:25.000Z</time>
      </trkpt>
      <trkpt lat="45.20792" lon="5.73184">
        <ele>518.59997558594</ele>
        <time>2021-05-29T07:06:28.000Z</time>
      </trkpt>
      <trkpt lat="45.20791" lon="5.73182">
        <ele>518.79998779297</ele>
        <time>2021-05-29T07:06:29.000Z</time>
      </trkpt>
      <trkpt lat="45.20791" lon="5.73179">
        <ele>519.20001220703</ele>
        <time>2021-05-29T07:06:31.000Z</time>
      </trkpt>
      <trkpt lat="45.2079" lon="5.73175">
        <ele>520.20001220703</ele>
        <time>2021-05-29T07:06:33.000Z</time>
      </trkpt>
      <trkpt lat="45.20789" lon="5.73169">
        <ele>521.40002441406</ele>
        <time>2021-05-29T07:06:36.000Z</time>
      </trkpt>
      <trkpt lat="45.20788" lon="5.73163">
        <ele>522.59997558594</ele>
        <time>2021-05-29T07:06:39.000Z</time>
      </trkpt>
      <trkpt lat="45.20786" lon="5.7316">
        <ele>523.59997558594</ele>
        <time>2021-05-29T07:06:42.000Z</time>
      </trkpt>
      <trkpt lat="45.20785" lon="5.73159">
        <ele>524</ele>
        <time>2021-05-29T07:06:43.000Z</time>
      </trkpt>
      <trkpt lat="45.20783" lon="5.73158">
        <ele>524.59997558594</ele>
        <time>2021-05-29T07:06:45.000Z</time>
      </trkpt>
      <trkpt lat="45.20782" lon="5.73156">
        <ele>524.79998779297</ele>
        <time>2021-05-29T07:06:46.000Z</time>
      </trkpt>
      <trkpt lat="45.20781" lon="5.73154">
        <ele>524.79998779297</ele>
        <time>2021-05-29T07:06:47.000Z</time>
      </trkpt>
      <trkpt lat="45.2078" lon="5.73152">
        <ele>524.79998779297</ele>
        <time>2021-05-29T07:06:48.000Z</time>
      </trkpt>
      <trkpt lat="45.20779" lon="5.7315">
        <ele>524.79998779297</ele>
        <time>2021-05-29T07:06:49.000Z</time>
      </trkpt>
      <trkpt lat="45.20772" lon="5.73142">
        <ele>525.79998779297</ele>
        <time>2021-05-29T07:06:54.000Z</time>
      </trkpt>
      <trkpt lat="45.20771" lon="5.73142">
        <ele>526</ele>
        <time>2021-05-29T07:06:55.000Z</time>
      </trkpt>
      <trkpt lat="45.2077" lon="5.73141">
        <ele>526.20001220703</ele>
        <time>2021-05-29T07:06:56.000Z</time>
      </trkpt>
      <trkpt lat="45.20765" lon="5.73133">
        <ele>526.79998779297</ele>
        <time>2021-05-29T07:07:00.000Z</time>
      </trkpt>
      <trkpt lat="45.20761" lon="5.73127">
        <ele>527</ele>
        <time>2021-05-29T07:07:03.000Z</time>
      </trkpt>
      <trkpt lat="45.20757" lon="5.7312">
        <ele>527.40002441406</ele>
        <time>2021-05-29T07:07:07.000Z</time>
      </trkpt>
      <trkpt lat="45.20755" lon="5.7312">
        <ele>527.40002441406</ele>
        <time>2021-05-29T07:07:08.000Z</time>
      </trkpt>
      <trkpt lat="45.20752" lon="5.73118">
        <ele>527.59997558594</ele>
        <time>2021-05-29T07:07:10.000Z</time>
      </trkpt>
      <trkpt lat="45.20743" lon="5.73107">
        <ele>527.79998779297</ele>
        <time>2021-05-29T07:07:16.000Z</time>
      </trkpt>
      <trkpt lat="45.20735" lon="5.73101">
        <ele>527.40002441406</ele>
        <time>2021-05-29T07:07:21.000Z</time>
      </trkpt>
      <trkpt lat="45.20729" lon="5.73092">
        <ele>527.40002441406</ele>
        <time>2021-05-29T07:07:26.000Z</time>
      </trkpt>
      <trkpt lat="45.20727" lon="5.73089">
        <ele>527.59997558594</ele>
        <time>2021-05-29T07:07:27.000Z</time>
      </trkpt>
      <trkpt lat="45.20718" lon="5.73078">
        <ele>527.79998779297</ele>
        <time>2021-05-29T07:07:32.000Z</time>
      </trkpt>
      <trkpt lat="45.2071" lon="5.73074">
        <ele>528</ele>
        <time>2021-05-29T07:07:36.000Z</time>
      </trkpt>
      <trkpt lat="45.20703" lon="5.7307">
        <ele>527.79998779297</ele>
        <time>2021-05-29T07:07:40.000Z</time>
      </trkpt>
      <trkpt lat="45.20696" lon="5.73062">
        <ele>527.20001220703</ele>
        <time>2021-05-29T07:07:45.000Z</time>
      </trkpt>
      <trkpt lat="45.20693" lon="5.73058">
        <ele>527</ele>
        <time>2021-05-29T07:07:47.000Z</time>
      </trkpt>
      <trkpt lat="45.20688" lon="5.73055">
        <ele>526.59997558594</ele>
        <time>2021-05-29T07:07:50.000Z</time>
      </trkpt>
      <trkpt lat="45.20686" lon="5.73053">
        <ele>526.20001220703</ele>
        <time>2021-05-29T07:07:51.000Z</time>
      </trkpt>
      <trkpt lat="45.20682" lon="5.73049">
        <ele>525.59997558594</ele>
        <time>2021-05-29T07:07:53.000Z</time>
      </trkpt>
      <trkpt lat="45.20681" lon="5.73047">
        <ele>525.40002441406</ele>
        <time>2021-05-29T07:07:54.000Z</time>
      </trkpt>
      <trkpt lat="45.20671" lon="5.73037">
        <ele>524.79998779297</ele>
        <time>2021-05-29T07:07:59.000Z</time>
      </trkpt>
      <trkpt lat="45.20656" lon="5.7302">
        <ele>524.79998779297</ele>
        <time>2021-05-29T07:08:07.000Z</time>
      </trkpt>
      <trkpt lat="45.20655" lon="5.73018">
        <ele>524.79998779297</ele>
        <time>2021-05-29T07:08:08.000Z</time>
      </trkpt>
      <trkpt lat="45.20653" lon="5.73016">
        <ele>524.79998779297</ele>
        <time>2021-05-29T07:08:09.000Z</time>
      </trkpt>
      <trkpt lat="45.2065" lon="5.73011">
        <ele>524.79998779297</ele>
        <time>2021-05-29T07:08:11.000Z</time>
      </trkpt>
      <trkpt lat="45.20643" lon="5.73003">
        <ele>524.40002441406</ele>
        <time>2021-05-29T07:08:15.000Z</time>
      </trkpt>
      <trkpt lat="45.20641" lon="5.73002">
        <ele>524.40002441406</ele>
        <time>2021-05-29T07:08:16.000Z</time>
      </trkpt>
      <trkpt lat="45.20638" lon="5.72997">
        <ele>524.40002441406</ele>
        <time>2021-05-29T07:08:18.000Z</time>
      </trkpt>
      <trkpt lat="45.20635" lon="5.72992">
        <ele>524.40002441406</ele>
        <time>2021-05-29T07:08:21.000Z</time>
      </trkpt>
      <trkpt lat="45.20627" lon="5.72989">
        <ele>524.79998779297</ele>
        <time>2021-05-29T07:08:25.000Z</time>
      </trkpt>
      <trkpt lat="45.20626" lon="5.72988">
        <ele>524.79998779297</ele>
        <time>2021-05-29T07:08:26.000Z</time>
      </trkpt>
      <trkpt lat="45.20621" lon="5.72984">
        <ele>524.59997558594</ele>
        <time>2021-05-29T07:08:29.000Z</time>
      </trkpt>
      <trkpt lat="45.20616" lon="5.72979">
        <ele>524.40002441406</ele>
        <time>2021-05-29T07:08:32.000Z</time>
      </trkpt>
      <trkpt lat="45.20601" lon="5.72966">
        <ele>524.40002441406</ele>
        <time>2021-05-29T07:08:40.000Z</time>
      </trkpt>
      <trkpt lat="45.20588" lon="5.72953">
        <ele>524.79998779297</ele>
        <time>2021-05-29T07:08:47.000Z</time>
      </trkpt>
      <trkpt lat="45.20577" lon="5.72946">
        <ele>525.20001220703</ele>
        <time>2021-05-29T07:08:52.000Z</time>
      </trkpt>
      <trkpt lat="45.20569" lon="5.72939">
        <ele>525.20001220703</ele>
        <time>2021-05-29T07:08:56.000Z</time>
      </trkpt>
      <trkpt lat="45.20564" lon="5.72936">
        <ele>525.20001220703</ele>
        <time>2021-05-29T07:08:59.000Z</time>
      </trkpt>
      <trkpt lat="45.20556" lon="5.72933">
        <ele>525.40002441406</ele>
        <time>2021-05-29T07:09:03.000Z</time>
      </trkpt>
      <trkpt lat="45.20554" lon="5.72932">
        <ele>525.59997558594</ele>
        <time>2021-05-29T07:09:04.000Z</time>
      </trkpt>
      <trkpt lat="45.20552" lon="5.7293">
        <ele>525.79998779297</ele>
        <time>2021-05-29T07:09:05.000Z</time>
      </trkpt>
      <trkpt lat="45.20543" lon="5.72926">
        <ele>526.20001220703</ele>
        <time>2021-05-29T07:09:09.000Z</time>
      </trkpt>
      <trkpt lat="45.20529" lon="5.72911">
        <ele>526.40002441406</ele>
        <time>2021-05-29T07:09:15.000Z</time>
      </trkpt>
      <trkpt lat="45.20524" lon="5.72905">
        <ele>526.40002441406</ele>
        <time>2021-05-29T07:09:17.000Z</time>
      </trkpt>
      <trkpt lat="45.20521" lon="5.72903">
        <ele>526.79998779297</ele>
        <time>2021-05-29T07:09:18.000Z</time>
      </trkpt>
      <trkpt lat="45.20512" lon="5.72891">
        <ele>528</ele>
        <time>2021-05-29T07:09:23.000Z</time>
      </trkpt>
      <trkpt lat="45.20506" lon="5.72886">
        <ele>529</ele>
        <time>2021-05-29T07:09:27.000Z</time>
      </trkpt>
      <trkpt lat="45.20504" lon="5.72885">
        <ele>529.40002441406</ele>
        <time>2021-05-29T07:09:28.000Z</time>
      </trkpt>
      <trkpt lat="45.205" lon="5.72882">
        <ele>529.59997558594</ele>
        <time>2021-05-29T07:09:31.000Z</time>
      </trkpt>
      <trkpt lat="45.20495" lon="5.72878">
        <ele>529.79998779297</ele>
        <time>2021-05-29T07:09:34.000Z</time>
      </trkpt>
      <trkpt lat="45.20491" lon="5.72875">
        <ele>530.20001220703</ele>
        <time>2021-05-29T07:09:36.000Z</time>
      </trkpt>
      <trkpt lat="45.20483" lon="5.72871">
        <ele>530.20001220703</ele>
        <time>2021-05-29T07:09:40.000Z</time>
      </trkpt>
      <trkpt lat="45.20467" lon="5.72857">
        <ele>529.59997558594</ele>
        <time>2021-05-29T07:09:47.000Z</time>
      </trkpt>
      <trkpt lat="45.20462" lon="5.72852">
        <ele>529</ele>
        <time>2021-05-29T07:09:49.000Z</time>
      </trkpt>
      <trkpt lat="45.20459" lon="5.72849">
        <ele>528.59997558594</ele>
        <time>2021-05-29T07:09:51.000Z</time>
      </trkpt>
      <trkpt lat="45.20453" lon="5.72843">
        <ele>528</ele>
        <time>2021-05-29T07:09:55.000Z</time>
      </trkpt>
      <trkpt lat="45.20447" lon="5.72839">
        <ele>527.79998779297</ele>
        <time>2021-05-29T07:09:58.000Z</time>
      </trkpt>
      <trkpt lat="45.20443" lon="5.72835">
        <ele>527.79998779297</ele>
        <time>2021-05-29T07:10:00.000Z</time>
      </trkpt>
      <trkpt lat="45.20438" lon="5.72832">
        <ele>527.59997558594</ele>
        <time>2021-05-29T07:10:02.000Z</time>
      </trkpt>
      <trkpt lat="45.2043" lon="5.72823">
        <ele>526.79998779297</ele>
        <time>2021-05-29T07:10:06.000Z</time>
      </trkpt>
      <trkpt lat="45.20424" lon="5.72815">
        <ele>526.20001220703</ele>
        <time>2021-05-29T07:10:09.000Z</time>
      </trkpt>
      <trkpt lat="45.20421" lon="5.72811">
        <ele>525.59997558594</ele>
        <time>2021-05-29T07:10:11.000Z</time>
      </trkpt>
      <trkpt lat="45.20416" lon="5.72806">
        <ele>524.59997558594</ele>
        <time>2021-05-29T07:10:14.000Z</time>
      </trkpt>
      <trkpt lat="45.20414" lon="5.72804">
        <ele>524.20001220703</ele>
        <time>2021-05-29T07:10:15.000Z</time>
      </trkpt>
      <trkpt lat="45.20407" lon="5.72799">
        <ele>523.20001220703</ele>
        <time>2021-05-29T07:10:18.000Z</time>
      </trkpt>
      <trkpt lat="45.20406" lon="5.72798">
        <ele>523</ele>
        <time>2021-05-29T07:10:19.000Z</time>
      </trkpt>
      <trkpt lat="45.20399" lon="5.72793">
        <ele>522.59997558594</ele>
        <time>2021-05-29T07:10:22.000Z</time>
      </trkpt>
      <trkpt lat="45.20392" lon="5.72788">
        <ele>521.79998779297</ele>
        <time>2021-05-29T07:10:25.000Z</time>
      </trkpt>
      <trkpt lat="45.20385" lon="5.72782">
        <ele>521</ele>
        <time>2021-05-29T07:10:28.000Z</time>
      </trkpt>
      <trkpt lat="45.20383" lon="5.7278">
        <ele>520.79998779297</ele>
        <time>2021-05-29T07:10:29.000Z</time>
      </trkpt>
      <trkpt lat="45.20376" lon="5.72775">
        <ele>519.79998779297</ele>
        <time>2021-05-29T07:10:32.000Z</time>
      </trkpt>
      <trkpt lat="45.20367" lon="5.72767">
        <ele>519</ele>
        <time>2021-05-29T07:10:36.000Z</time>
      </trkpt>
      <trkpt lat="45.20365" lon="5.72765">
        <ele>518.59997558594</ele>
        <time>2021-05-29T07:10:37.000Z</time>
      </trkpt>
      <trkpt lat="45.20358" lon="5.72757">
        <ele>517.59997558594</ele>
        <time>2021-05-29T07:10:41.000Z</time>
      </trkpt>
      <trkpt lat="45.20352" lon="5.72752">
        <ele>516.40002441406</ele>
        <time>2021-05-29T07:10:44.000Z</time>
      </trkpt>
      <trkpt lat="45.20347" lon="5.72748">
        <ele>515.79998779297</ele>
        <time>2021-05-29T07:10:47.000Z</time>
      </trkpt>
      <trkpt lat="45.20339" lon="5.72742">
        <ele>515.59997558594</ele>
        <time>2021-05-29T07:10:50.000Z</time>
      </trkpt>
      <trkpt lat="45.20338" lon="5.72741">
        <ele>515.40002441406</ele>
        <time>2021-05-29T07:10:51.000Z</time>
      </trkpt>
      <trkpt lat="45.20336" lon="5.7274">
        <ele>515.20001220703</ele>
        <time>2021-05-29T07:10:52.000Z</time>
      </trkpt>
      <trkpt lat="45.20332" lon="5.72739">
        <ele>515.20001220703</ele>
        <time>2021-05-29T07:10:54.000Z</time>
      </trkpt>
      <trkpt lat="45.20325" lon="5.72737">
        <ele>515</ele>
        <time>2021-05-29T07:10:57.000Z</time>
      </trkpt>
      <trkpt lat="45.20318" lon="5.72736">
        <ele>514.79998779297</ele>
        <time>2021-05-29T07:11:00.000Z</time>
      </trkpt>
      <trkpt lat="45.20304" lon="5.72727">
        <ele>514.40002441406</ele>
        <time>2021-05-29T07:11:05.000Z</time>
      </trkpt>
      <trkpt lat="45.20302" lon="5.72725">
        <ele>514.40002441406</ele>
        <time>2021-05-29T07:11:06.000Z</time>
      </trkpt>
      <trkpt lat="45.20293" lon="5.72717">
        <ele>513.40002441406</ele>
        <time>2021-05-29T07:11:10.000Z</time>
      </trkpt>
      <trkpt lat="45.20291" lon="5.72715">
        <ele>512.79998779297</ele>
        <time>2021-05-29T07:11:11.000Z</time>
      </trkpt>
      <trkpt lat="45.20286" lon="5.72712">
        <ele>512.20001220703</ele>
        <time>2021-05-29T07:11:13.000Z</time>
      </trkpt>
      <trkpt lat="45.20277" lon="5.72703">
        <ele>511.39999389648</ele>
        <time>2021-05-29T07:11:17.000Z</time>
      </trkpt>
      <trkpt lat="45.20275" lon="5.72702">
        <ele>511.20001220703</ele>
        <time>2021-05-29T07:11:18.000Z</time>
      </trkpt>
      <trkpt lat="45.20266" lon="5.72685">
        <ele>511.60000610352</ele>
        <time>2021-05-29T07:11:23.000Z</time>
      </trkpt>
      <trkpt lat="45.20262" lon="5.72678">
        <ele>512.40002441406</ele>
        <time>2021-05-29T07:11:26.000Z</time>
      </trkpt>
      <trkpt lat="45.20259" lon="5.72672">
        <ele>513.59997558594</ele>
        <time>2021-05-29T07:11:29.000Z</time>
      </trkpt>
      <trkpt lat="45.20252" lon="5.72664">
        <ele>514.79998779297</ele>
        <time>2021-05-29T07:11:33.000Z</time>
      </trkpt>
      <trkpt lat="45.20247" lon="5.72658">
        <ele>516</ele>
        <time>2021-05-29T07:11:36.000Z</time>
      </trkpt>
      <trkpt lat="45.20245" lon="5.72657">
        <ele>516</ele>
        <time>2021-05-29T07:11:37.000Z</time>
      </trkpt>
      <trkpt lat="45.20241" lon="5.72655">
        <ele>517</ele>
        <time>2021-05-29T07:11:39.000Z</time>
      </trkpt>
      <trkpt lat="45.20238" lon="5.72652">
        <ele>517.79998779297</ele>
        <time>2021-05-29T07:11:42.000Z</time>
      </trkpt>
      <trkpt lat="45.20237" lon="5.72651">
        <ele>518</ele>
        <time>2021-05-29T07:11:43.000Z</time>
      </trkpt>
      <trkpt lat="45.20228" lon="5.72643">
        <ele>519.20001220703</ele>
        <time>2021-05-29T07:11:49.000Z</time>
      </trkpt>
      <trkpt lat="45.20226" lon="5.7264">
        <ele>519.20001220703</ele>
        <time>2021-05-29T07:11:51.000Z</time>
      </trkpt>
      <trkpt lat="45.20216" lon="5.72626">
        <ele>520.20001220703</ele>
        <time>2021-05-29T07:11:59.000Z</time>
      </trkpt>
      <trkpt lat="45.2021" lon="5.72616">
        <ele>521.59997558594</ele>
        <time>2021-05-29T07:12:05.000Z</time>
      </trkpt>
      <trkpt lat="45.20209" lon="5.72613">
        <ele>522</ele>
        <time>2021-05-29T07:12:06.000Z</time>
      </trkpt>
      <trkpt lat="45.20206" lon="5.72609">
        <ele>522.79998779297</ele>
        <time>2021-05-29T07:12:09.000Z</time>
      </trkpt>
      <trkpt lat="45.20195" lon="5.72596">
        <ele>524.20001220703</ele>
        <time>2021-05-29T07:12:18.000Z</time>
      </trkpt>
      <trkpt lat="45.20193" lon="5.72589">
        <ele>524.79998779297</ele>
        <time>2021-05-29T07:12:21.000Z</time>
      </trkpt>
      <trkpt lat="45.2019" lon="5.72586">
        <ele>525</ele>
        <time>2021-05-29T07:12:23.000Z</time>
      </trkpt>
      <trkpt lat="45.20181" lon="5.72579">
        <ele>524.20001220703</ele>
        <time>2021-05-29T07:12:27.000Z</time>
      </trkpt>
      <trkpt lat="45.20177" lon="5.72577">
        <ele>523.40002441406</ele>
        <time>2021-05-29T07:12:29.000Z</time>
      </trkpt>
      <trkpt lat="45.20173" lon="5.72574">
        <ele>522.79998779297</ele>
        <time>2021-05-29T07:12:31.000Z</time>
      </trkpt>
      <trkpt lat="45.20172" lon="5.72573">
        <ele>522.40002441406</ele>
        <time>2021-05-29T07:12:32.000Z</time>
      </trkpt>
      <trkpt lat="45.20164" lon="5.72569">
        <ele>521.40002441406</ele>
        <time>2021-05-29T07:12:35.000Z</time>
      </trkpt>
      <trkpt lat="45.20155" lon="5.72565">
        <ele>520.20001220703</ele>
        <time>2021-05-29T07:12:39.000Z</time>
      </trkpt>
      <trkpt lat="45.20143" lon="5.7256">
        <ele>519</ele>
        <time>2021-05-29T07:12:44.000Z</time>
      </trkpt>
      <trkpt lat="45.20137" lon="5.72558">
        <ele>517.79998779297</ele>
        <time>2021-05-29T07:12:47.000Z</time>
      </trkpt>
      <trkpt lat="45.20133" lon="5.72555">
        <ele>517.20001220703</ele>
        <time>2021-05-29T07:12:49.000Z</time>
      </trkpt>
      <trkpt lat="45.20129" lon="5.72554">
        <ele>516.59997558594</ele>
        <time>2021-05-29T07:12:51.000Z</time>
      </trkpt>
      <trkpt lat="45.20125" lon="5.72552">
        <ele>516.20001220703</ele>
        <time>2021-05-29T07:12:53.000Z</time>
      </trkpt>
      <trkpt lat="45.20122" lon="5.72551">
        <ele>515.40002441406</ele>
        <time>2021-05-29T07:12:55.000Z</time>
      </trkpt>
      <trkpt lat="45.20118" lon="5.72549">
        <ele>514.79998779297</ele>
        <time>2021-05-29T07:12:57.000Z</time>
      </trkpt>
      <trkpt lat="45.20115" lon="5.72548">
        <ele>514</ele>
        <time>2021-05-29T07:12:59.000Z</time>
      </trkpt>
      <trkpt lat="45.20108" lon="5.72547">
        <ele>513</ele>
        <time>2021-05-29T07:13:03.000Z</time>
      </trkpt>
      <trkpt lat="45.20106" lon="5.72547">
        <ele>512.40002441406</ele>
        <time>2021-05-29T07:13:04.000Z</time>
      </trkpt>
      <trkpt lat="45.20099" lon="5.72547">
        <ele>511</ele>
        <time>2021-05-29T07:13:07.000Z</time>
      </trkpt>
      <trkpt lat="45.20092" lon="5.72547">
        <ele>510.20001220703</ele>
        <time>2021-05-29T07:13:10.000Z</time>
      </trkpt>
      <trkpt lat="45.2009" lon="5.72547">
        <ele>509</ele>
        <time>2021-05-29T07:13:11.000Z</time>
      </trkpt>
      <trkpt lat="45.20085" lon="5.72548">
        <ele>507.79998779297</ele>
        <time>2021-05-29T07:13:13.000Z</time>
      </trkpt>
      <trkpt lat="45.20078" lon="5.72551">
        <ele>506.79998779297</ele>
        <time>2021-05-29T07:13:16.000Z</time>
      </trkpt>
      <trkpt lat="45.20074" lon="5.72553">
        <ele>506.20001220703</ele>
        <time>2021-05-29T07:13:18.000Z</time>
      </trkpt>
      <trkpt lat="45.20072" lon="5.72555">
        <ele>505.60000610352</ele>
        <time>2021-05-29T07:13:19.000Z</time>
      </trkpt>
      <trkpt lat="45.20072" lon="5.72557">
        <ele>504.79998779297</ele>
        <time>2021-05-29T07:13:22.000Z</time>
      </trkpt>
      <trkpt lat="45.20072" lon="5.72557">
        <ele>504.60000610352</ele>
        <time>2021-05-29T07:13:24.000Z</time>
      </trkpt>
      <trkpt lat="45.20073" lon="5.72557">
        <ele>504.39999389648</ele>
        <time>2021-05-29T07:13:30.000Z</time>
      </trkpt>
      <trkpt lat="45.20074" lon="5.72553">
        <ele>504.39999389648</ele>
        <time>2021-05-29T07:13:41.000Z</time>
      </trkpt>
      <trkpt lat="45.20073" lon="5.7255">
        <ele>504.39999389648</ele>
        <time>2021-05-29T07:13:43.000Z</time>
      </trkpt>
      <trkpt lat="45.20071" lon="5.72542">
        <ele>504.39999389648</ele>
        <time>2021-05-29T07:13:46.000Z</time>
      </trkpt>
      <trkpt lat="45.2007" lon="5.72518">
        <ele>504.39999389648</ele>
        <time>2021-05-29T07:13:53.000Z</time>
      </trkpt>
      <trkpt lat="45.20075" lon="5.72495">
        <ele>504.20001220703</ele>
        <time>2021-05-29T07:13:59.000Z</time>
      </trkpt>
      <trkpt lat="45.20075" lon="5.72491">
        <ele>504.20001220703</ele>
        <time>2021-05-29T07:14:00.000Z</time>
      </trkpt>
      <trkpt lat="45.20076" lon="5.7247">
        <ele>503.39999389648</ele>
        <time>2021-05-29T07:14:05.000Z</time>
      </trkpt>
      <trkpt lat="45.20074" lon="5.72463">
        <ele>503.20001220703</ele>
        <time>2021-05-29T07:14:07.000Z</time>
      </trkpt>
      <trkpt lat="45.20073" lon="5.72456">
        <ele>502.39999389648</ele>
        <time>2021-05-29T07:14:09.000Z</time>
      </trkpt>
      <trkpt lat="45.20071" lon="5.72448">
        <ele>501.79998779297</ele>
        <time>2021-05-29T07:14:11.000Z</time>
      </trkpt>
      <trkpt lat="45.20067" lon="5.72441">
        <ele>501.20001220703</ele>
        <time>2021-05-29T07:14:13.000Z</time>
      </trkpt>
      <trkpt lat="45.20059" lon="5.72435">
        <ele>499.79998779297</ele>
        <time>2021-05-29T07:14:16.000Z</time>
      </trkpt>
      <trkpt lat="45.20053" lon="5.72433">
        <ele>499.39999389648</ele>
        <time>2021-05-29T07:14:18.000Z</time>
      </trkpt>
      <trkpt lat="45.20047" lon="5.72432">
        <ele>498.39999389648</ele>
        <time>2021-05-29T07:14:20.000Z</time>
      </trkpt>
      <trkpt lat="45.20034" lon="5.72432">
        <ele>497.20001220703</ele>
        <time>2021-05-29T07:14:24.000Z</time>
      </trkpt>
      <trkpt lat="45.20031" lon="5.72432">
        <ele>496.79998779297</ele>
        <time>2021-05-29T07:14:25.000Z</time>
      </trkpt>
      <trkpt lat="45.2002" lon="5.72431">
        <ele>496</ele>
        <time>2021-05-29T07:14:27.000Z</time>
      </trkpt>
      <trkpt lat="45.20011" lon="5.7243">
        <ele>495</ele>
        <time>2021-05-29T07:14:31.000Z</time>
      </trkpt>
      <trkpt lat="45.20001" lon="5.72429">
        <ele>493.79998779297</ele>
        <time>2021-05-29T07:14:34.000Z</time>
      </trkpt>
      <trkpt lat="45.19988" lon="5.72427">
        <ele>492.39999389648</ele>
        <time>2021-05-29T07:14:38.000Z</time>
      </trkpt>
      <trkpt lat="45.19979" lon="5.72426">
        <ele>491.39999389648</ele>
        <time>2021-05-29T07:14:41.000Z</time>
      </trkpt>
      <trkpt lat="45.1997" lon="5.72424">
        <ele>490.20001220703</ele>
        <time>2021-05-29T07:14:44.000Z</time>
      </trkpt>
      <trkpt lat="45.19954" lon="5.72424">
        <ele>488.79998779297</ele>
        <time>2021-05-29T07:14:48.000Z</time>
      </trkpt>
      <trkpt lat="45.19948" lon="5.72425">
        <ele>488.20001220703</ele>
        <time>2021-05-29T07:14:50.000Z</time>
      </trkpt>
      <trkpt lat="45.19945" lon="5.72425">
        <ele>487.79998779297</ele>
        <time>2021-05-29T07:14:51.000Z</time>
      </trkpt>
      <trkpt lat="45.19932" lon="5.72428">
        <ele>487</ele>
        <time>2021-05-29T07:14:55.000Z</time>
      </trkpt>
      <trkpt lat="45.19914" lon="5.72434">
        <ele>487.60000610352</ele>
        <time>2021-05-29T07:15:01.000Z</time>
      </trkpt>
      <trkpt lat="45.19909" lon="5.72435">
        <ele>487.79998779297</ele>
        <time>2021-05-29T07:15:03.000Z</time>
      </trkpt>
      <trkpt lat="45.19903" lon="5.72436">
        <ele>489</ele>
        <time>2021-05-29T07:15:05.000Z</time>
      </trkpt>
      <trkpt lat="45.19899" lon="5.72436">
        <ele>489.79998779297</ele>
        <time>2021-05-29T07:15:08.000Z</time>
      </trkpt>
      <trkpt lat="45.19898" lon="5.72437">
        <ele>490.20001220703</ele>
        <time>2021-05-29T07:15:09.000Z</time>
      </trkpt>
      <trkpt lat="45.19895" lon="5.72438">
        <ele>490.60000610352</ele>
        <time>2021-05-29T07:15:12.000Z</time>
      </trkpt>
      <trkpt lat="45.19894" lon="5.7244">
        <ele>490.60000610352</ele>
        <time>2021-05-29T07:15:13.000Z</time>
      </trkpt>
      <trkpt lat="45.19894" lon="5.72447">
        <ele>491.20001220703</ele>
        <time>2021-05-29T07:15:15.000Z</time>
      </trkpt>
      <trkpt lat="45.19892" lon="5.72452">
        <ele>491.60000610352</ele>
        <time>2021-05-29T07:15:16.000Z</time>
      </trkpt>
      <trkpt lat="45.19888" lon="5.72464">
        <ele>492</ele>
        <time>2021-05-29T07:15:18.000Z</time>
      </trkpt>
      <trkpt lat="45.19885" lon="5.72469">
        <ele>492</ele>
        <time>2021-05-29T07:15:19.000Z</time>
      </trkpt>
      <trkpt lat="45.19872" lon="5.72478">
        <ele>491.79998779297</ele>
        <time>2021-05-29T07:15:23.000Z</time>
      </trkpt>
      <trkpt lat="45.19864" lon="5.72481">
        <ele>491.60000610352</ele>
        <time>2021-05-29T07:15:25.000Z</time>
      </trkpt>
      <trkpt lat="45.19858" lon="5.72489">
        <ele>491.39999389648</ele>
        <time>2021-05-29T07:15:28.000Z</time>
      </trkpt>
      <trkpt lat="45.19858" lon="5.72494">
        <ele>491.20001220703</ele>
        <time>2021-05-29T07:15:29.000Z</time>
      </trkpt>
      <trkpt lat="45.19858" lon="5.72524">
        <ele>490.20001220703</ele>
        <time>2021-05-29T07:15:35.000Z</time>
      </trkpt>
      <trkpt lat="45.19859" lon="5.7253">
        <ele>489.79998779297</ele>
        <time>2021-05-29T07:15:36.000Z</time>
      </trkpt>
      <trkpt lat="45.1986" lon="5.72544">
        <ele>489.20001220703</ele>
        <time>2021-05-29T07:15:39.000Z</time>
      </trkpt>
      <trkpt lat="45.19859" lon="5.72551">
        <ele>488.20001220703</ele>
        <time>2021-05-29T07:15:42.000Z</time>
      </trkpt>
      <trkpt lat="45.19858" lon="5.72548">
        <ele>487.79998779297</ele>
        <time>2021-05-29T07:15:43.000Z</time>
      </trkpt>
      <trkpt lat="45.19856" lon="5.72541">
        <ele>487</ele>
        <time>2021-05-29T07:15:45.000Z</time>
      </trkpt>
      <trkpt lat="45.19855" lon="5.72536">
        <ele>486.60000610352</ele>
        <time>2021-05-29T07:15:46.000Z</time>
      </trkpt>
      <trkpt lat="45.19852" lon="5.72519">
        <ele>485.60000610352</ele>
        <time>2021-05-29T07:15:50.000Z</time>
      </trkpt>
      <trkpt lat="45.19852" lon="5.72515">
        <ele>485.39999389648</ele>
        <time>2021-05-29T07:15:51.000Z</time>
      </trkpt>
      <trkpt lat="45.1985" lon="5.725">
        <ele>484.20001220703</ele>
        <time>2021-05-29T07:15:54.000Z</time>
      </trkpt>
      <trkpt lat="45.19848" lon="5.72482">
        <ele>483</ele>
        <time>2021-05-29T07:15:58.000Z</time>
      </trkpt>
      <trkpt lat="45.19846" lon="5.72469">
        <ele>482</ele>
        <time>2021-05-29T07:16:01.000Z</time>
      </trkpt>
      <trkpt lat="45.19846" lon="5.7246">
        <ele>481.20001220703</ele>
        <time>2021-05-29T07:16:03.000Z</time>
      </trkpt>
      <trkpt lat="45.19846" lon="5.72456">
        <ele>481</ele>
        <time>2021-05-29T07:16:04.000Z</time>
      </trkpt>
      <trkpt lat="45.19839" lon="5.72448">
        <ele>480</ele>
        <time>2021-05-29T07:16:08.000Z</time>
      </trkpt>
      <trkpt lat="45.19838" lon="5.72449">
        <ele>479.60000610352</ele>
        <time>2021-05-29T07:16:09.000Z</time>
      </trkpt>
      <trkpt lat="45.19838" lon="5.72455">
        <ele>478.60000610352</ele>
        <time>2021-05-29T07:16:11.000Z</time>
      </trkpt>
      <trkpt lat="45.19838" lon="5.72458">
        <ele>478.39999389648</ele>
        <time>2021-05-29T07:16:12.000Z</time>
      </trkpt>
      <trkpt lat="45.19838" lon="5.72463">
        <ele>477.79998779297</ele>
        <time>2021-05-29T07:16:13.000Z</time>
      </trkpt>
      <trkpt lat="45.19838" lon="5.72472">
        <ele>477</ele>
        <time>2021-05-29T07:16:15.000Z</time>
      </trkpt>
      <trkpt lat="45.19837" lon="5.72476">
        <ele>476.79998779297</ele>
        <time>2021-05-29T07:16:16.000Z</time>
      </trkpt>
      <trkpt lat="45.19833" lon="5.72491">
        <ele>475.39999389648</ele>
        <time>2021-05-29T07:16:19.000Z</time>
      </trkpt>
      <trkpt lat="45.1983" lon="5.72501">
        <ele>474.79998779297</ele>
        <time>2021-05-29T07:16:21.000Z</time>
      </trkpt>
      <trkpt lat="45.19829" lon="5.72505">
        <ele>474.39999389648</ele>
        <time>2021-05-29T07:16:22.000Z</time>
      </trkpt>
      <trkpt lat="45.19825" lon="5.72525">
        <ele>472.79998779297</ele>
        <time>2021-05-29T07:16:26.000Z</time>
      </trkpt>
      <trkpt lat="45.19826" lon="5.72534">
        <ele>471.79998779297</ele>
        <time>2021-05-29T07:16:28.000Z</time>
      </trkpt>
      <trkpt lat="45.19827" lon="5.7254">
        <ele>471.39999389648</ele>
        <time>2021-05-29T07:16:29.000Z</time>
      </trkpt>
      <trkpt lat="45.19827" lon="5.7255">
        <ele>470.60000610352</ele>
        <time>2021-05-29T07:16:31.000Z</time>
      </trkpt>
      <trkpt lat="45.19827" lon="5.72564">
        <ele>469.60000610352</ele>
        <time>2021-05-29T07:16:34.000Z</time>
      </trkpt>
      <trkpt lat="45.19827" lon="5.72569">
        <ele>469.20001220703</ele>
        <time>2021-05-29T07:16:35.000Z</time>
      </trkpt>
      <trkpt lat="45.19826" lon="5.72583">
        <ele>468.39999389648</ele>
        <time>2021-05-29T07:16:38.000Z</time>
      </trkpt>
      <trkpt lat="45.19825" lon="5.72596">
        <ele>467</ele>
        <time>2021-05-29T07:16:41.000Z</time>
      </trkpt>
      <trkpt lat="45.19824" lon="5.726">
        <ele>466.79998779297</ele>
        <time>2021-05-29T07:16:42.000Z</time>
      </trkpt>
      <trkpt lat="45.19826" lon="5.72612">
        <ele>466.20001220703</ele>
        <time>2021-05-29T07:16:45.000Z</time>
      </trkpt>
      <trkpt lat="45.19827" lon="5.72616">
        <ele>466</ele>
        <time>2021-05-29T07:16:46.000Z</time>
      </trkpt>
      <trkpt lat="45.19829" lon="5.7262">
        <ele>465.60000610352</ele>
        <time>2021-05-29T07:16:47.000Z</time>
      </trkpt>
      <trkpt lat="45.19833" lon="5.72635">
        <ele>464.79998779297</ele>
        <time>2021-05-29T07:16:51.000Z</time>
      </trkpt>
      <trkpt lat="45.19835" lon="5.72644">
        <ele>463.79998779297</ele>
        <time>2021-05-29T07:16:53.000Z</time>
      </trkpt>
      <trkpt lat="45.19838" lon="5.72649">
        <ele>463.60000610352</ele>
        <time>2021-05-29T07:16:54.000Z</time>
      </trkpt>
      <trkpt lat="45.19846" lon="5.7266">
        <ele>462.60000610352</ele>
        <time>2021-05-29T07:16:57.000Z</time>
      </trkpt>
      <trkpt lat="45.19849" lon="5.72663">
        <ele>462</ele>
        <time>2021-05-29T07:16:59.000Z</time>
      </trkpt>
      <trkpt lat="45.19852" lon="5.72666">
        <ele>461.60000610352</ele>
        <time>2021-05-29T07:17:00.000Z</time>
      </trkpt>
      <trkpt lat="45.19856" lon="5.72677">
        <ele>460.20001220703</ele>
        <time>2021-05-29T07:17:02.000Z</time>
      </trkpt>
      <trkpt lat="45.19856" lon="5.72677">
        <ele>459.60000610352</ele>
        <time>2021-05-29T07:17:03.000Z</time>
      </trkpt>
      <trkpt lat="45.19855" lon="5.72679">
        <ele>459.20001220703</ele>
        <time>2021-05-29T07:17:04.000Z</time>
      </trkpt>
      <trkpt lat="45.19849" lon="5.72677">
        <ele>458.60000610352</ele>
        <time>2021-05-29T07:17:06.000Z</time>
      </trkpt>
      <trkpt lat="45.19843" lon="5.72672">
        <ele>458.20001220703</ele>
        <time>2021-05-29T07:17:08.000Z</time>
      </trkpt>
      <trkpt lat="45.19841" lon="5.72669">
        <ele>458.20001220703</ele>
        <time>2021-05-29T07:17:09.000Z</time>
      </trkpt>
      <trkpt lat="45.19835" lon="5.72664">
        <ele>458</ele>
        <time>2021-05-29T07:17:11.000Z</time>
      </trkpt>
      <trkpt lat="45.19826" lon="5.72654">
        <ele>456.79998779297</ele>
        <time>2021-05-29T07:17:14.000Z</time>
      </trkpt>
      <trkpt lat="45.19817" lon="5.72647">
        <ele>455.39999389648</ele>
        <time>2021-05-29T07:17:17.000Z</time>
      </trkpt>
      <trkpt lat="45.19814" lon="5.72644">
        <ele>455</ele>
        <time>2021-05-29T07:17:18.000Z</time>
      </trkpt>
      <trkpt lat="45.19807" lon="5.72639">
        <ele>454.20001220703</ele>
        <time>2021-05-29T07:17:20.000Z</time>
      </trkpt>
      <trkpt lat="45.19794" lon="5.72628">
        <ele>452.79998779297</ele>
        <time>2021-05-29T07:17:24.000Z</time>
      </trkpt>
      <trkpt lat="45.19792" lon="5.72625">
        <ele>452.20001220703</ele>
        <time>2021-05-29T07:17:25.000Z</time>
      </trkpt>
      <trkpt lat="45.19787" lon="5.72618">
        <ele>451.60000610352</ele>
        <time>2021-05-29T07:17:27.000Z</time>
      </trkpt>
      <trkpt lat="45.19785" lon="5.72607">
        <ele>450.79998779297</ele>
        <time>2021-05-29T07:17:29.000Z</time>
      </trkpt>
      <trkpt lat="45.19784" lon="5.72597">
        <ele>450</ele>
        <time>2021-05-29T07:17:31.000Z</time>
      </trkpt>
      <trkpt lat="45.19785" lon="5.72581">
        <ele>448.79998779297</ele>
        <time>2021-05-29T07:17:34.000Z</time>
      </trkpt>
      <trkpt lat="45.19785" lon="5.72575">
        <ele>448.39999389648</ele>
        <time>2021-05-29T07:17:35.000Z</time>
      </trkpt>
      <trkpt lat="45.19784" lon="5.72558">
        <ele>447.60000610352</ele>
        <time>2021-05-29T07:17:38.000Z</time>
      </trkpt>
      <trkpt lat="45.19783" lon="5.72542">
        <ele>446.39999389648</ele>
        <time>2021-05-29T07:17:41.000Z</time>
      </trkpt>
      <trkpt lat="45.1978" lon="5.72534">
        <ele>445.39999389648</ele>
        <time>2021-05-29T07:17:44.000Z</time>
      </trkpt>
      <trkpt lat="45.19779" lon="5.72535">
        <ele>445</ele>
        <time>2021-05-29T07:17:45.000Z</time>
      </trkpt>
      <trkpt lat="45.19777" lon="5.72542">
        <ele>444.20001220703</ele>
        <time>2021-05-29T07:17:47.000Z</time>
      </trkpt>
      <trkpt lat="45.19777" lon="5.72547">
        <ele>443.79998779297</ele>
        <time>2021-05-29T07:17:48.000Z</time>
      </trkpt>
      <trkpt lat="45.19778" lon="5.72556">
        <ele>443.20001220703</ele>
        <time>2021-05-29T07:17:50.000Z</time>
      </trkpt>
      <trkpt lat="45.1978" lon="5.72565">
        <ele>442.60000610352</ele>
        <time>2021-05-29T07:17:52.000Z</time>
      </trkpt>
      <trkpt lat="45.1978" lon="5.7257">
        <ele>442</ele>
        <time>2021-05-29T07:17:53.000Z</time>
      </trkpt>
      <trkpt lat="45.1978" lon="5.72575">
        <ele>441.39999389648</ele>
        <time>2021-05-29T07:17:54.000Z</time>
      </trkpt>
      <trkpt lat="45.19779" lon="5.72582">
        <ele>440.39999389648</ele>
        <time>2021-05-29T07:17:56.000Z</time>
      </trkpt>
      <trkpt lat="45.19777" lon="5.72582">
        <ele>439.79998779297</ele>
        <time>2021-05-29T07:17:57.000Z</time>
      </trkpt>
      <trkpt lat="45.19771" lon="5.7257">
        <ele>438.79998779297</ele>
        <time>2021-05-29T07:18:00.000Z</time>
      </trkpt>
      <trkpt lat="45.1977" lon="5.72565">
        <ele>438.60000610352</ele>
        <time>2021-05-29T07:18:01.000Z</time>
      </trkpt>
      <trkpt lat="45.19766" lon="5.72548">
        <ele>437.60000610352</ele>
        <time>2021-05-29T07:18:05.000Z</time>
      </trkpt>
      <trkpt lat="45.19766" lon="5.72543">
        <ele>437</ele>
        <time>2021-05-29T07:18:06.000Z</time>
      </trkpt>
      <trkpt lat="45.19766" lon="5.72532">
        <ele>436.39999389648</ele>
        <time>2021-05-29T07:18:08.000Z</time>
      </trkpt>
      <trkpt lat="45.19769" lon="5.72523">
        <ele>435.39999389648</ele>
        <time>2021-05-29T07:18:10.000Z</time>
      </trkpt>
      <trkpt lat="45.19772" lon="5.72515">
        <ele>435</ele>
        <time>2021-05-29T07:18:12.000Z</time>
      </trkpt>
      <trkpt lat="45.19774" lon="5.7251">
        <ele>433.79998779297</ele>
        <time>2021-05-29T07:18:14.000Z</time>
      </trkpt>
      <trkpt lat="45.19773" lon="5.72509">
        <ele>433</ele>
        <time>2021-05-29T07:18:16.000Z</time>
      </trkpt>
      <trkpt lat="45.19772" lon="5.72511">
        <ele>432.60000610352</ele>
        <time>2021-05-29T07:18:17.000Z</time>
      </trkpt>
      <trkpt lat="45.19769" lon="5.72516">
        <ele>432.20001220703</ele>
        <time>2021-05-29T07:18:19.000Z</time>
      </trkpt>
      <trkpt lat="45.19768" lon="5.72519">
        <ele>432</ele>
        <time>2021-05-29T07:18:20.000Z</time>
      </trkpt>
      <trkpt lat="45.19762" lon="5.72525">
        <ele>431.60000610352</ele>
        <time>2021-05-29T07:18:22.000Z</time>
      </trkpt>
      <trkpt lat="45.1976" lon="5.72537">
        <ele>431.20001220703</ele>
        <time>2021-05-29T07:18:25.000Z</time>
      </trkpt>
      <trkpt lat="45.19759" lon="5.72546">
        <ele>430.79998779297</ele>
        <time>2021-05-29T07:18:27.000Z</time>
      </trkpt>
      <trkpt lat="45.1976" lon="5.72561">
        <ele>430.60000610352</ele>
        <time>2021-05-29T07:18:31.000Z</time>
      </trkpt>
      <trkpt lat="45.19758" lon="5.72592">
        <ele>430.60000610352</ele>
        <time>2021-05-29T07:18:38.000Z</time>
      </trkpt>
      <trkpt lat="45.19759" lon="5.72595">
        <ele>430.60000610352</ele>
        <time>2021-05-29T07:18:39.000Z</time>
      </trkpt>
      <trkpt lat="45.19761" lon="5.72601">
        <ele>430.60000610352</ele>
        <time>2021-05-29T07:18:40.000Z</time>
      </trkpt>
      <trkpt lat="45.19761" lon="5.72601">
        <ele>430.60000610352</ele>
        <time>2021-05-29T07:18:41.000Z</time>
      </trkpt>
      <trkpt lat="45.19769" lon="5.72625">
        <ele>430.60000610352</ele>
        <time>2021-05-29T07:18:46.000Z</time>
      </trkpt>
      <trkpt lat="45.19778" lon="5.7265">
        <ele>430.60000610352</ele>
        <time>2021-05-29T07:18:52.000Z</time>
      </trkpt>
      <trkpt lat="45.19783" lon="5.72659">
        <ele>430.60000610352</ele>
        <time>2021-05-29T07:18:54.000Z</time>
      </trkpt>
      <trkpt lat="45.19795" lon="5.72679">
        <ele>431</ele>
        <time>2021-05-29T07:18:59.000Z</time>
      </trkpt>
      <trkpt lat="45.198" lon="5.72684">
        <ele>431</ele>
        <time>2021-05-29T07:19:01.000Z</time>
      </trkpt>
      <trkpt lat="45.19816" lon="5.72697">
        <ele>431.20001220703</ele>
        <time>2021-05-29T07:19:07.000Z</time>
      </trkpt>
      <trkpt lat="45.19832" lon="5.72712">
        <ele>431.60000610352</ele>
        <time>2021-05-29T07:19:12.000Z</time>
      </trkpt>
      <trkpt lat="45.19836" lon="5.7272">
        <ele>431.79998779297</ele>
        <time>2021-05-29T07:19:14.000Z</time>
      </trkpt>
      <trkpt lat="45.19845" lon="5.72732">
        <ele>431.79998779297</ele>
        <time>2021-05-29T07:19:18.000Z</time>
      </trkpt>
      <trkpt lat="45.19845" lon="5.72732">
        <ele>431.79998779297</ele>
        <time>2021-05-29T07:19:19.000Z</time>
      </trkpt>
      <trkpt lat="45.19857" lon="5.72749">
        <ele>427.79998779297</ele>
        <time>2021-05-29T07:19:32.000Z</time>
      </trkpt>
      <trkpt lat="45.19862" lon="5.72758">
        <ele>426.60000610352</ele>
        <time>2021-05-29T07:19:35.000Z</time>
      </trkpt>
      <trkpt lat="45.19862" lon="5.72759">
        <ele>426.39999389648</ele>
        <time>2021-05-29T07:19:36.000Z</time>
      </trkpt>
      <trkpt lat="45.19861" lon="5.7276">
        <ele>426.20001220703</ele>
        <time>2021-05-29T07:19:37.000Z</time>
      </trkpt>
      <trkpt lat="45.19859" lon="5.72759">
        <ele>425.39999389648</ele>
        <time>2021-05-29T07:19:39.000Z</time>
      </trkpt>
      <trkpt lat="45.19857" lon="5.72755">
        <ele>423.79998779297</ele>
        <time>2021-05-29T07:19:41.000Z</time>
      </trkpt>
      <trkpt lat="45.19856" lon="5.72754">
        <ele>423</ele>
        <time>2021-05-29T07:19:43.000Z</time>
      </trkpt>
      <trkpt lat="45.19855" lon="5.72755">
        <ele>422.79998779297</ele>
        <time>2021-05-29T07:19:44.000Z</time>
      </trkpt>
      <trkpt lat="45.19854" lon="5.72757">
        <ele>422</ele>
        <time>2021-05-29T07:19:46.000Z</time>
      </trkpt>
      <trkpt lat="45.19853" lon="5.72758">
        <ele>421.60000610352</ele>
        <time>2021-05-29T07:19:47.000Z</time>
      </trkpt>
      <trkpt lat="45.1983" lon="5.72766">
        <ele>401.20001220703</ele>
        <time>2021-05-29T07:20:30.000Z</time>
      </trkpt>
      <trkpt lat="45.19824" lon="5.72762">
        <ele>400.60000610352</ele>
        <time>2021-05-29T07:20:32.000Z</time>
      </trkpt>
      <trkpt lat="45.19817" lon="5.72758">
        <ele>399.79998779297</ele>
        <time>2021-05-29T07:20:34.000Z</time>
      </trkpt>
      <trkpt lat="45.1981" lon="5.72755">
        <ele>398.79998779297</ele>
        <time>2021-05-29T07:20:36.000Z</time>
      </trkpt>
      <trkpt lat="45.19804" lon="5.72749">
        <ele>398.39999389648</ele>
        <time>2021-05-29T07:20:38.000Z</time>
      </trkpt>
      <trkpt lat="45.19794" lon="5.72737">
        <ele>397.39999389648</ele>
        <time>2021-05-29T07:20:42.000Z</time>
      </trkpt>
      <trkpt lat="45.1979" lon="5.72735">
        <ele>396.20001220703</ele>
        <time>2021-05-29T07:20:44.000Z</time>
      </trkpt>
      <trkpt lat="45.19789" lon="5.72736">
        <ele>395.79998779297</ele>
        <time>2021-05-29T07:20:45.000Z</time>
      </trkpt>
      <trkpt lat="45.19792" lon="5.72739">
        <ele>394.79998779297</ele>
        <time>2021-05-29T07:20:47.000Z</time>
      </trkpt>
      <trkpt lat="45.19797" lon="5.72742">
        <ele>394.39999389648</ele>
        <time>2021-05-29T07:20:49.000Z</time>
      </trkpt>
      <trkpt lat="45.19805" lon="5.72748">
        <ele>393.79998779297</ele>
        <time>2021-05-29T07:20:52.000Z</time>
      </trkpt>
      <trkpt lat="45.1981" lon="5.72754">
        <ele>392.60000610352</ele>
        <time>2021-05-29T07:20:54.000Z</time>
      </trkpt>
      <trkpt lat="45.19816" lon="5.72765">
        <ele>391.39999389648</ele>
        <time>2021-05-29T07:20:57.000Z</time>
      </trkpt>
      <trkpt lat="45.19822" lon="5.72776">
        <ele>390.39999389648</ele>
        <time>2021-05-29T07:21:00.000Z</time>
      </trkpt>
      <trkpt lat="45.19828" lon="5.72781">
        <ele>389.39999389648</ele>
        <time>2021-05-29T07:21:02.000Z</time>
      </trkpt>
      <trkpt lat="45.19837" lon="5.72788">
        <ele>388.20001220703</ele>
        <time>2021-05-29T07:21:05.000Z</time>
      </trkpt>
      <trkpt lat="45.1984" lon="5.7279">
        <ele>388</ele>
        <time>2021-05-29T07:21:06.000Z</time>
      </trkpt>
      <trkpt lat="45.19842" lon="5.72792">
        <ele>387.20001220703</ele>
        <time>2021-05-29T07:21:07.000Z</time>
      </trkpt>
      <trkpt lat="45.19843" lon="5.72795">
        <ele>386.39999389648</ele>
        <time>2021-05-29T07:21:08.000Z</time>
      </trkpt>
      <trkpt lat="45.19841" lon="5.72797">
        <ele>386</ele>
        <time>2021-05-29T07:21:09.000Z</time>
      </trkpt>
      <trkpt lat="45.19836" lon="5.72797">
        <ele>385.39999389648</ele>
        <time>2021-05-29T07:21:11.000Z</time>
      </trkpt>
      <trkpt lat="45.19832" lon="5.72795">
        <ele>385.20001220703</ele>
        <time>2021-05-29T07:21:12.000Z</time>
      </trkpt>
      <trkpt lat="45.19829" lon="5.72793">
        <ele>385</ele>
        <time>2021-05-29T07:21:13.000Z</time>
      </trkpt>
      <trkpt lat="45.19823" lon="5.7279">
        <ele>383.79998779297</ele>
        <time>2021-05-29T07:21:15.000Z</time>
      </trkpt>
      <trkpt lat="45.19813" lon="5.72785">
        <ele>382.79998779297</ele>
        <time>2021-05-29T07:21:18.000Z</time>
      </trkpt>
      <trkpt lat="45.198" lon="5.72778">
        <ele>381.20001220703</ele>
        <time>2021-05-29T07:21:22.000Z</time>
      </trkpt>
      <trkpt lat="45.19798" lon="5.72779">
        <ele>380.79998779297</ele>
        <time>2021-05-29T07:21:23.000Z</time>
      </trkpt>
      <trkpt lat="45.19797" lon="5.7278">
        <ele>380.60000610352</ele>
        <time>2021-05-29T07:21:24.000Z</time>
      </trkpt>
      <trkpt lat="45.19797" lon="5.72782">
        <ele>380</ele>
        <time>2021-05-29T07:21:25.000Z</time>
      </trkpt>
      <trkpt lat="45.19798" lon="5.72784">
        <ele>379.79998779297</ele>
        <time>2021-05-29T07:21:26.000Z</time>
      </trkpt>
      <trkpt lat="45.19804" lon="5.72791">
        <ele>378.79998779297</ele>
        <time>2021-05-29T07:21:30.000Z</time>
      </trkpt>
      <trkpt lat="45.19812" lon="5.72799">
        <ele>378.20001220703</ele>
        <time>2021-05-29T07:21:32.000Z</time>
      </trkpt>
      <trkpt lat="45.19812" lon="5.72799">
        <ele>377.60000610352</ele>
        <time>2021-05-29T07:21:33.000Z</time>
      </trkpt>
      <trkpt lat="45.19822" lon="5.72807">
        <ele>376.39999389648</ele>
        <time>2021-05-29T07:21:36.000Z</time>
      </trkpt>
      <trkpt lat="45.19828" lon="5.72812">
        <ele>375.60000610352</ele>
        <time>2021-05-29T07:21:38.000Z</time>
      </trkpt>
      <trkpt lat="45.19831" lon="5.72814">
        <ele>375.20001220703</ele>
        <time>2021-05-29T07:21:39.000Z</time>
      </trkpt>
      <trkpt lat="45.19839" lon="5.7282">
        <ele>373.60000610352</ele>
        <time>2021-05-29T07:21:42.000Z</time>
      </trkpt>
      <trkpt lat="45.1984" lon="5.72822">
        <ele>373.20001220703</ele>
        <time>2021-05-29T07:21:43.000Z</time>
      </trkpt>
      <trkpt lat="45.19839" lon="5.72823">
        <ele>372.79998779297</ele>
        <time>2021-05-29T07:21:44.000Z</time>
      </trkpt>
      <trkpt lat="45.19837" lon="5.72822">
        <ele>372.60000610352</ele>
        <time>2021-05-29T07:21:45.000Z</time>
      </trkpt>
      <trkpt lat="45.19829" lon="5.72818">
        <ele>371.60000610352</ele>
        <time>2021-05-29T07:21:48.000Z</time>
      </trkpt>
      <trkpt lat="45.19826" lon="5.72817">
        <ele>371.20001220703</ele>
        <time>2021-05-29T07:21:49.000Z</time>
      </trkpt>
      <trkpt lat="45.19818" lon="5.72813">
        <ele>369.60000610352</ele>
        <time>2021-05-29T07:21:52.000Z</time>
      </trkpt>
      <trkpt lat="45.19814" lon="5.72813">
        <ele>369</ele>
        <time>2021-05-29T07:21:54.000Z</time>
      </trkpt>
      <trkpt lat="45.19814" lon="5.72815">
        <ele>368.20001220703</ele>
        <time>2021-05-29T07:21:56.000Z</time>
      </trkpt>
      <trkpt lat="45.19815" lon="5.72816">
        <ele>368</ele>
        <time>2021-05-29T07:21:57.000Z</time>
      </trkpt>
      <trkpt lat="45.19817" lon="5.72817">
        <ele>367.79998779297</ele>
        <time>2021-05-29T07:21:58.000Z</time>
      </trkpt>
      <trkpt lat="45.19822" lon="5.72821">
        <ele>367.20001220703</ele>
        <time>2021-05-29T07:22:00.000Z</time>
      </trkpt>
      <trkpt lat="45.1983" lon="5.72828">
        <ele>366</ele>
        <time>2021-05-29T07:22:03.000Z</time>
      </trkpt>
      <trkpt lat="45.19829" lon="5.72829">
        <ele>365.79998779297</ele>
        <time>2021-05-29T07:22:04.000Z</time>
      </trkpt>
      <trkpt lat="45.19827" lon="5.72829">
        <ele>365.39999389648</ele>
        <time>2021-05-29T07:22:05.000Z</time>
      </trkpt>
      <trkpt lat="45.19818" lon="5.72826">
        <ele>364.39999389648</ele>
        <time>2021-05-29T07:22:08.000Z</time>
      </trkpt>
      <trkpt lat="45.19816" lon="5.72826">
        <ele>364</ele>
        <time>2021-05-29T07:22:09.000Z</time>
      </trkpt>
      <trkpt lat="45.19805" lon="5.7282">
        <ele>363</ele>
        <time>2021-05-29T07:22:13.000Z</time>
      </trkpt>
      <trkpt lat="45.19799" lon="5.72816">
        <ele>362</ele>
        <time>2021-05-29T07:22:15.000Z</time>
      </trkpt>
      <trkpt lat="45.19794" lon="5.72812">
        <ele>361.60000610352</ele>
        <time>2021-05-29T07:22:17.000Z</time>
      </trkpt>
      <trkpt lat="45.19792" lon="5.72812">
        <ele>361</ele>
        <time>2021-05-29T07:22:18.000Z</time>
      </trkpt>
      <trkpt lat="45.19792" lon="5.72812">
        <ele>360.79998779297</ele>
        <time>2021-05-29T07:22:19.000Z</time>
      </trkpt>
      <trkpt lat="45.19793" lon="5.72812">
        <ele>360.60000610352</ele>
        <time>2021-05-29T07:22:20.000Z</time>
      </trkpt>
      <trkpt lat="45.19795" lon="5.72814">
        <ele>360.39999389648</ele>
        <time>2021-05-29T07:22:21.000Z</time>
      </trkpt>
      <trkpt lat="45.19803" lon="5.72821">
        <ele>359.60000610352</ele>
        <time>2021-05-29T07:22:24.000Z</time>
      </trkpt>
      <trkpt lat="45.19809" lon="5.72827">
        <ele>359</ele>
        <time>2021-05-29T07:22:26.000Z</time>
      </trkpt>
      <trkpt lat="45.19815" lon="5.72834">
        <ele>358.39999389648</ele>
        <time>2021-05-29T07:22:28.000Z</time>
      </trkpt>
      <trkpt lat="45.19824" lon="5.72845">
        <ele>358</ele>
        <time>2021-05-29T07:22:32.000Z</time>
      </trkpt>
      <trkpt lat="45.19822" lon="5.72847">
        <ele>358</ele>
        <time>2021-05-29T07:22:33.000Z</time>
      </trkpt>
      <trkpt lat="45.19819" lon="5.72847">
        <ele>357.79998779297</ele>
        <time>2021-05-29T07:22:34.000Z</time>
      </trkpt>
      <trkpt lat="45.19816" lon="5.72846">
        <ele>357</ele>
        <time>2021-05-29T07:22:35.000Z</time>
      </trkpt>
      <trkpt lat="45.1981" lon="5.72842">
        <ele>356</ele>
        <time>2021-05-29T07:22:37.000Z</time>
      </trkpt>
      <trkpt lat="45.198" lon="5.72837">
        <ele>354.79998779297</ele>
        <time>2021-05-29T07:22:40.000Z</time>
      </trkpt>
      <trkpt lat="45.1979" lon="5.72831">
        <ele>353.60000610352</ele>
        <time>2021-05-29T07:22:43.000Z</time>
      </trkpt>
      <trkpt lat="45.1978" lon="5.72827">
        <ele>352.20001220703</ele>
        <time>2021-05-29T07:22:46.000Z</time>
      </trkpt>
      <trkpt lat="45.19776" lon="5.72825">
        <ele>351.79998779297</ele>
        <time>2021-05-29T07:22:47.000Z</time>
      </trkpt>
      <trkpt lat="45.1977" lon="5.72823">
        <ele>351.20001220703</ele>
        <time>2021-05-29T07:22:49.000Z</time>
      </trkpt>
      <trkpt lat="45.19761" lon="5.72819">
        <ele>349.60000610352</ele>
        <time>2021-05-29T07:22:52.000Z</time>
      </trkpt>
      <trkpt lat="45.19756" lon="5.72818">
        <ele>349</ele>
        <time>2021-05-29T07:22:54.000Z</time>
      </trkpt>
      <trkpt lat="45.19754" lon="5.72817">
        <ele>348.39999389648</ele>
        <time>2021-05-29T07:22:56.000Z</time>
      </trkpt>
      <trkpt lat="45.19755" lon="5.72817">
        <ele>347.79998779297</ele>
        <time>2021-05-29T07:22:57.000Z</time>
      </trkpt>
      <trkpt lat="45.19756" lon="5.72818">
        <ele>347.39999389648</ele>
        <time>2021-05-29T07:22:58.000Z</time>
      </trkpt>
      <trkpt lat="45.19757" lon="5.72819">
        <ele>347.39999389648</ele>
        <time>2021-05-29T07:22:59.000Z</time>
      </trkpt>
      <trkpt lat="45.19762" lon="5.72821">
        <ele>346.20001220703</ele>
        <time>2021-05-29T07:23:01.000Z</time>
      </trkpt>
      <trkpt lat="45.19768" lon="5.72826">
        <ele>345.79998779297</ele>
        <time>2021-05-29T07:23:03.000Z</time>
      </trkpt>
      <trkpt lat="45.19774" lon="5.72832">
        <ele>345</ele>
        <time>2021-05-29T07:23:05.000Z</time>
      </trkpt>
      <trkpt lat="45.19779" lon="5.72839">
        <ele>344</ele>
        <time>2021-05-29T07:23:07.000Z</time>
      </trkpt>
      <trkpt lat="45.19781" lon="5.72842">
        <ele>343.60000610352</ele>
        <time>2021-05-29T07:23:08.000Z</time>
      </trkpt>
      <trkpt lat="45.19788" lon="5.72852">
        <ele>342.39999389648</ele>
        <time>2021-05-29T07:23:11.000Z</time>
      </trkpt>
      <trkpt lat="45.19795" lon="5.72857">
        <ele>341.20001220703</ele>
        <time>2021-05-29T07:23:14.000Z</time>
      </trkpt>
      <trkpt lat="45.19797" lon="5.72861">
        <ele>340.20001220703</ele>
        <time>2021-05-29T07:23:16.000Z</time>
      </trkpt>
      <trkpt lat="45.19803" lon="5.72866">
        <ele>338.60000610352</ele>
        <time>2021-05-29T07:23:19.000Z</time>
      </trkpt>
      <trkpt lat="45.19804" lon="5.72867">
        <ele>338</ele>
        <time>2021-05-29T07:23:20.000Z</time>
      </trkpt>
      <trkpt lat="45.19802" lon="5.72868">
        <ele>337.79998779297</ele>
        <time>2021-05-29T07:23:21.000Z</time>
      </trkpt>
      <trkpt lat="45.198" lon="5.72868">
        <ele>337.60000610352</ele>
        <time>2021-05-29T07:23:22.000Z</time>
      </trkpt>
      <trkpt lat="45.19789" lon="5.7287">
        <ele>336.20001220703</ele>
        <time>2021-05-29T07:23:26.000Z</time>
      </trkpt>
      <trkpt lat="45.1978" lon="5.72867">
        <ele>335.20001220703</ele>
        <time>2021-05-29T07:23:29.000Z</time>
      </trkpt>
      <trkpt lat="45.1977" lon="5.72865">
        <ele>334.39999389648</ele>
        <time>2021-05-29T07:23:32.000Z</time>
      </trkpt>
      <trkpt lat="45.19767" lon="5.72864">
        <ele>334</ele>
        <time>2021-05-29T07:23:33.000Z</time>
      </trkpt>
      <trkpt lat="45.19761" lon="5.7286">
        <ele>332.79998779297</ele>
        <time>2021-05-29T07:23:35.000Z</time>
      </trkpt>
      <trkpt lat="45.19753" lon="5.72856">
        <ele>331.60000610352</ele>
        <time>2021-05-29T07:23:37.000Z</time>
      </trkpt>
      <trkpt lat="45.19739" lon="5.72851">
        <ele>330.39999389648</ele>
        <time>2021-05-29T07:23:41.000Z</time>
      </trkpt>
      <trkpt lat="45.19738" lon="5.7285">
        <ele>330</ele>
        <time>2021-05-29T07:23:42.000Z</time>
      </trkpt>
      <trkpt lat="45.19738" lon="5.72851">
        <ele>329.79998779297</ele>
        <time>2021-05-29T07:23:43.000Z</time>
      </trkpt>
      <trkpt lat="45.19739" lon="5.72853">
        <ele>329.39999389648</ele>
        <time>2021-05-29T07:23:44.000Z</time>
      </trkpt>
      <trkpt lat="45.19744" lon="5.72861">
        <ele>328.20001220703</ele>
        <time>2021-05-29T07:23:47.000Z</time>
      </trkpt>
      <trkpt lat="45.19745" lon="5.72864">
        <ele>327.60000610352</ele>
        <time>2021-05-29T07:23:48.000Z</time>
      </trkpt>
      <trkpt lat="45.1975" lon="5.72868">
        <ele>327</ele>
        <time>2021-05-29T07:23:50.000Z</time>
      </trkpt>
      <trkpt lat="45.19754" lon="5.72873">
        <ele>326</ele>
        <time>2021-05-29T07:23:52.000Z</time>
      </trkpt>
      <trkpt lat="45.19758" lon="5.72877">
        <ele>325.60000610352</ele>
        <time>2021-05-29T07:23:54.000Z</time>
      </trkpt>
      <trkpt lat="45.19762" lon="5.72883">
        <ele>324.79998779297</ele>
        <time>2021-05-29T07:23:56.000Z</time>
      </trkpt>
      <trkpt lat="45.19767" lon="5.72889">
        <ele>323.60000610352</ele>
        <time>2021-05-29T07:23:58.000Z</time>
      </trkpt>
      <trkpt lat="45.1977" lon="5.72891">
        <ele>323.20001220703</ele>
        <time>2021-05-29T07:23:59.000Z</time>
      </trkpt>
      <trkpt lat="45.19773" lon="5.72892">
        <ele>323</ele>
        <time>2021-05-29T07:24:00.000Z</time>
      </trkpt>
      <trkpt lat="45.19781" lon="5.72896">
        <ele>322.20001220703</ele>
        <time>2021-05-29T07:24:02.000Z</time>
      </trkpt>
      <trkpt lat="45.1979" lon="5.72902">
        <ele>320.79998779297</ele>
        <time>2021-05-29T07:24:05.000Z</time>
      </trkpt>
      <trkpt lat="45.19792" lon="5.72904">
        <ele>320.39999389648</ele>
        <time>2021-05-29T07:24:06.000Z</time>
      </trkpt>
      <trkpt lat="45.19795" lon="5.7291">
        <ele>319.79998779297</ele>
        <time>2021-05-29T07:24:08.000Z</time>
      </trkpt>
      <trkpt lat="45.19792" lon="5.72911">
        <ele>319.60000610352</ele>
        <time>2021-05-29T07:24:09.000Z</time>
      </trkpt>
      <trkpt lat="45.19784" lon="5.72912">
        <ele>318</ele>
        <time>2021-05-29T07:24:12.000Z</time>
      </trkpt>
      <trkpt lat="45.19778" lon="5.72912">
        <ele>317.39999389648</ele>
        <time>2021-05-29T07:24:14.000Z</time>
      </trkpt>
      <trkpt lat="45.19772" lon="5.72911">
        <ele>316.79998779297</ele>
        <time>2021-05-29T07:24:16.000Z</time>
      </trkpt>
      <trkpt lat="45.19766" lon="5.72909">
        <ele>316</ele>
        <time>2021-05-29T07:24:18.000Z</time>
      </trkpt>
      <trkpt lat="45.19763" lon="5.72908">
        <ele>315.60000610352</ele>
        <time>2021-05-29T07:24:19.000Z</time>
      </trkpt>
      <trkpt lat="45.19753" lon="5.72904">
        <ele>314.39999389648</ele>
        <time>2021-05-29T07:24:22.000Z</time>
      </trkpt>
      <trkpt lat="45.19746" lon="5.72899">
        <ele>313.39999389648</ele>
        <time>2021-05-29T07:24:24.000Z</time>
      </trkpt>
      <trkpt lat="45.19736" lon="5.72893">
        <ele>311.60000610352</ele>
        <time>2021-05-29T07:24:27.000Z</time>
      </trkpt>
      <trkpt lat="45.19732" lon="5.72891">
        <ele>311</ele>
        <time>2021-05-29T07:24:28.000Z</time>
      </trkpt>
      <trkpt lat="45.19726" lon="5.72888">
        <ele>310.60000610352</ele>
        <time>2021-05-29T07:24:30.000Z</time>
      </trkpt>
      <trkpt lat="45.19713" lon="5.72884">
        <ele>309.20001220703</ele>
        <time>2021-05-29T07:24:34.000Z</time>
      </trkpt>
      <trkpt lat="45.19705" lon="5.7288">
        <ele>307.79998779297</ele>
        <time>2021-05-29T07:24:36.000Z</time>
      </trkpt>
      <trkpt lat="45.19693" lon="5.72868">
        <ele>306.60000610352</ele>
        <time>2021-05-29T07:24:40.000Z</time>
      </trkpt>
      <trkpt lat="45.1969" lon="5.72866">
        <ele>306.60000610352</ele>
        <time>2021-05-29T07:24:41.000Z</time>
      </trkpt>
      <trkpt lat="45.19687" lon="5.72865">
        <ele>305.39999389648</ele>
        <time>2021-05-29T07:24:44.000Z</time>
      </trkpt>
      <trkpt lat="45.19687" lon="5.72867">
        <ele>305</ele>
        <time>2021-05-29T07:24:45.000Z</time>
      </trkpt>
      <trkpt lat="45.19693" lon="5.72875">
        <ele>304.39999389648</ele>
        <time>2021-05-29T07:24:48.000Z</time>
      </trkpt>
      <trkpt lat="45.19695" lon="5.72879">
        <ele>303.60000610352</ele>
        <time>2021-05-29T07:24:49.000Z</time>
      </trkpt>
      <trkpt lat="45.19697" lon="5.72882">
        <ele>303</ele>
        <time>2021-05-29T07:24:50.000Z</time>
      </trkpt>
      <trkpt lat="45.19701" lon="5.72887">
        <ele>302.20001220703</ele>
        <time>2021-05-29T07:24:52.000Z</time>
      </trkpt>
      <trkpt lat="45.19704" lon="5.72893">
        <ele>301.39999389648</ele>
        <time>2021-05-29T07:24:54.000Z</time>
      </trkpt>
      <trkpt lat="45.19706" lon="5.72896">
        <ele>301</ele>
        <time>2021-05-29T07:24:55.000Z</time>
      </trkpt>
      <trkpt lat="45.19707" lon="5.72899">
        <ele>300.60000610352</ele>
        <time>2021-05-29T07:24:56.000Z</time>
      </trkpt>
      <trkpt lat="45.19714" lon="5.72908">
        <ele>299.60000610352</ele>
        <time>2021-05-29T07:24:59.000Z</time>
      </trkpt>
      <trkpt lat="45.19719" lon="5.72914">
        <ele>298.79998779297</ele>
        <time>2021-05-29T07:25:01.000Z</time>
      </trkpt>
      <trkpt lat="45.19721" lon="5.72917">
        <ele>298.39999389648</ele>
        <time>2021-05-29T07:25:02.000Z</time>
      </trkpt>
      <trkpt lat="45.19727" lon="5.72927">
        <ele>297.39999389648</ele>
        <time>2021-05-29T07:25:05.000Z</time>
      </trkpt>
      <trkpt lat="45.19733" lon="5.72931">
        <ele>296.39999389648</ele>
        <time>2021-05-29T07:25:07.000Z</time>
      </trkpt>
      <trkpt lat="45.19735" lon="5.72934">
        <ele>296.20001220703</ele>
        <time>2021-05-29T07:25:08.000Z</time>
      </trkpt>
      <trkpt lat="45.19745" lon="5.72948">
        <ele>295</ele>
        <time>2021-05-29T07:25:12.000Z</time>
      </trkpt>
      <trkpt lat="45.1975" lon="5.72954">
        <ele>294.20001220703</ele>
        <time>2021-05-29T07:25:14.000Z</time>
      </trkpt>
      <trkpt lat="45.19753" lon="5.72956">
        <ele>293.79998779297</ele>
        <time>2021-05-29T07:25:15.000Z</time>
      </trkpt>
      <trkpt lat="45.19757" lon="5.72961">
        <ele>292.79998779297</ele>
        <time>2021-05-29T07:25:17.000Z</time>
      </trkpt>
      <trkpt lat="45.19762" lon="5.72969">
        <ele>291.79998779297</ele>
        <time>2021-05-29T07:25:20.000Z</time>
      </trkpt>
      <trkpt lat="45.19764" lon="5.72972">
        <ele>291.39999389648</ele>
        <time>2021-05-29T07:25:21.000Z</time>
      </trkpt>
      <trkpt lat="45.19768" lon="5.72978">
        <ele>290.79998779297</ele>
        <time>2021-05-29T07:25:23.000Z</time>
      </trkpt>
      <trkpt lat="45.1977" lon="5.72981">
        <ele>290.39999389648</ele>
        <time>2021-05-29T07:25:24.000Z</time>
      </trkpt>
      <trkpt lat="45.19774" lon="5.72985">
        <ele>289.79998779297</ele>
        <time>2021-05-29T07:25:26.000Z</time>
      </trkpt>
      <trkpt lat="45.19777" lon="5.72987">
        <ele>289.39999389648</ele>
        <time>2021-05-29T07:25:27.000Z</time>
      </trkpt>
      <trkpt lat="45.19784" lon="5.72992">
        <ele>288.20001220703</ele>
        <time>2021-05-29T07:25:30.000Z</time>
      </trkpt>
      <trkpt lat="45.19786" lon="5.72995">
        <ele>288.20001220703</ele>
        <time>2021-05-29T07:25:31.000Z</time>
      </trkpt>
      <trkpt lat="45.19789" lon="5.72997">
        <ele>287.39999389648</ele>
        <time>2021-05-29T07:25:32.000Z</time>
      </trkpt>
      <trkpt lat="45.19792" lon="5.72999">
        <ele>287</ele>
        <time>2021-05-29T07:25:33.000Z</time>
      </trkpt>
      <trkpt lat="45.19802" lon="5.73009">
        <ele>286.39999389648</ele>
        <time>2021-05-29T07:25:35.000Z</time>
      </trkpt>
      <trkpt lat="45.19803" lon="5.73013">
        <ele>286.20001220703</ele>
        <time>2021-05-29T07:25:36.000Z</time>
      </trkpt>
      <trkpt lat="45.19801" lon="5.73015">
        <ele>285.60000610352</ele>
        <time>2021-05-29T07:25:37.000Z</time>
      </trkpt>
      <trkpt lat="45.1979" lon="5.73014">
        <ele>284.60000610352</ele>
        <time>2021-05-29T07:25:41.000Z</time>
      </trkpt>
      <trkpt lat="45.19782" lon="5.73015">
        <ele>283.39999389648</ele>
        <time>2021-05-29T07:25:44.000Z</time>
      </trkpt>
      <trkpt lat="45.19774" lon="5.73015">
        <ele>282.60000610352</ele>
        <time>2021-05-29T07:25:47.000Z</time>
      </trkpt>
      <trkpt lat="45.19771" lon="5.73015">
        <ele>282.20001220703</ele>
        <time>2021-05-29T07:25:48.000Z</time>
      </trkpt>
      <trkpt lat="45.19766" lon="5.73016">
        <ele>281.39999389648</ele>
        <time>2021-05-29T07:25:51.000Z</time>
      </trkpt>
      <trkpt lat="45.19768" lon="5.73016">
        <ele>281</ele>
        <time>2021-05-29T07:25:52.000Z</time>
      </trkpt>
      <trkpt lat="45.19771" lon="5.73017">
        <ele>280</ele>
        <time>2021-05-29T07:25:54.000Z</time>
      </trkpt>
      <trkpt lat="45.19774" lon="5.73017">
        <ele>279.79998779297</ele>
        <time>2021-05-29T07:25:55.000Z</time>
      </trkpt>
      <trkpt lat="45.1978" lon="5.73018">
        <ele>278.60000610352</ele>
        <time>2021-05-29T07:25:57.000Z</time>
      </trkpt>
      <trkpt lat="45.19782" lon="5.73019">
        <ele>278.39999389648</ele>
        <time>2021-05-29T07:25:58.000Z</time>
      </trkpt>
      <trkpt lat="45.19791" lon="5.73024">
        <ele>277.60000610352</ele>
        <time>2021-05-29T07:26:01.000Z</time>
      </trkpt>
      <trkpt lat="45.19796" lon="5.73028">
        <ele>277.20001220703</ele>
        <time>2021-05-29T07:26:03.000Z</time>
      </trkpt>
      <trkpt lat="45.19797" lon="5.73031">
        <ele>277</ele>
        <time>2021-05-29T07:26:04.000Z</time>
      </trkpt>
      <trkpt lat="45.198" lon="5.73033">
        <ele>276.60000610352</ele>
        <time>2021-05-29T07:26:05.000Z</time>
      </trkpt>
      <trkpt lat="45.19803" lon="5.73037">
        <ele>275.79998779297</ele>
        <time>2021-05-29T07:26:07.000Z</time>
      </trkpt>
      <trkpt lat="45.19801" lon="5.73038">
        <ele>275.60000610352</ele>
        <time>2021-05-29T07:26:08.000Z</time>
      </trkpt>
      <trkpt lat="45.19799" lon="5.73038">
        <ele>275.39999389648</ele>
        <time>2021-05-29T07:26:09.000Z</time>
      </trkpt>
      <trkpt lat="45.1979" lon="5.73043">
        <ele>273.79998779297</ele>
        <time>2021-05-29T07:26:12.000Z</time>
      </trkpt>
      <trkpt lat="45.19782" lon="5.73044">
        <ele>272.79998779297</ele>
        <time>2021-05-29T07:26:15.000Z</time>
      </trkpt>
      <trkpt lat="45.19773" lon="5.73045">
        <ele>271.79998779297</ele>
        <time>2021-05-29T07:26:18.000Z</time>
      </trkpt>
      <trkpt lat="45.1977" lon="5.73045">
        <ele>271.39999389648</ele>
        <time>2021-05-29T07:26:19.000Z</time>
      </trkpt>
      <trkpt lat="45.19764" lon="5.73043">
        <ele>270.79998779297</ele>
        <time>2021-05-29T07:26:21.000Z</time>
      </trkpt>
      <trkpt lat="45.19757" lon="5.73043">
        <ele>269.60000610352</ele>
        <time>2021-05-29T07:26:24.000Z</time>
      </trkpt>
      <trkpt lat="45.19755" lon="5.73044">
        <ele>269.20001220703</ele>
        <time>2021-05-29T07:26:25.000Z</time>
      </trkpt>
      <trkpt lat="45.19754" lon="5.73043">
        <ele>269</ele>
        <time>2021-05-29T07:26:26.000Z</time>
      </trkpt>
      <trkpt lat="45.19754" lon="5.73043">
        <ele>268.39999389648</ele>
        <time>2021-05-29T07:26:27.000Z</time>
      </trkpt>
      <trkpt lat="45.19755" lon="5.73044">
        <ele>268</ele>
        <time>2021-05-29T07:26:28.000Z</time>
      </trkpt>
      <trkpt lat="45.19756" lon="5.73044">
        <ele>267.79998779297</ele>
        <time>2021-05-29T07:26:29.000Z</time>
      </trkpt>
      <trkpt lat="45.19762" lon="5.73045">
        <ele>267</ele>
        <time>2021-05-29T07:26:32.000Z</time>
      </trkpt>
      <trkpt lat="45.19768" lon="5.73047">
        <ele>266.20001220703</ele>
        <time>2021-05-29T07:26:34.000Z</time>
      </trkpt>
      <trkpt lat="45.19774" lon="5.73049">
        <ele>265.39999389648</ele>
        <time>2021-05-29T07:26:36.000Z</time>
      </trkpt>
      <trkpt lat="45.19783" lon="5.73052">
        <ele>264.39999389648</ele>
        <time>2021-05-29T07:26:39.000Z</time>
      </trkpt>
      <trkpt lat="45.19786" lon="5.73053">
        <ele>264</ele>
        <time>2021-05-29T07:26:40.000Z</time>
      </trkpt>
      <trkpt lat="45.19793" lon="5.73059">
        <ele>263</ele>
        <time>2021-05-29T07:26:43.000Z</time>
      </trkpt>
      <trkpt lat="45.19792" lon="5.73061">
        <ele>262.79998779297</ele>
        <time>2021-05-29T07:26:44.000Z</time>
      </trkpt>
      <trkpt lat="45.1979" lon="5.73062">
        <ele>262.60000610352</ele>
        <time>2021-05-29T07:26:45.000Z</time>
      </trkpt>
      <trkpt lat="45.19784" lon="5.73062">
        <ele>261.79998779297</ele>
        <time>2021-05-29T07:26:47.000Z</time>
      </trkpt>
      <trkpt lat="45.19776" lon="5.73062">
        <ele>260.79998779297</ele>
        <time>2021-05-29T07:26:50.000Z</time>
      </trkpt>
      <trkpt lat="45.19774" lon="5.73063">
        <ele>260.60000610352</ele>
        <time>2021-05-29T07:26:51.000Z</time>
      </trkpt>
      <trkpt lat="45.19772" lon="5.73063">
        <ele>260</ele>
        <time>2021-05-29T07:26:52.000Z</time>
      </trkpt>
      <trkpt lat="45.19771" lon="5.73062">
        <ele>259.60000610352</ele>
        <time>2021-05-29T07:26:53.000Z</time>
      </trkpt>
      <trkpt lat="45.19761" lon="5.73061">
        <ele>258.39999389648</ele>
        <time>2021-05-29T07:26:56.000Z</time>
      </trkpt>
      <trkpt lat="45.19755" lon="5.73061">
        <ele>257.39999389648</ele>
        <time>2021-05-29T07:26:59.000Z</time>
      </trkpt>
      <trkpt lat="45.19755" lon="5.73059">
        <ele>257.20001220703</ele>
        <time>2021-05-29T07:27:00.000Z</time>
      </trkpt>
      <trkpt lat="45.19755" lon="5.73058">
        <ele>257</ele>
        <time>2021-05-29T07:27:01.000Z</time>
      </trkpt>
      <trkpt lat="45.19759" lon="5.73059">
        <ele>257</ele>
        <time>2021-05-29T07:27:02.000Z</time>
      </trkpt>
      <trkpt lat="45.19761" lon="5.7306">
        <ele>256</ele>
        <time>2021-05-29T07:27:04.000Z</time>
      </trkpt>
      <trkpt lat="45.19764" lon="5.73062">
        <ele>255.60000610352</ele>
        <time>2021-05-29T07:27:06.000Z</time>
      </trkpt>
      <trkpt lat="45.1977" lon="5.73064">
        <ele>254.80000305176</ele>
        <time>2021-05-29T07:27:08.000Z</time>
      </trkpt>
      <trkpt lat="45.19774" lon="5.73065">
        <ele>254</ele>
        <time>2021-05-29T07:27:09.000Z</time>
      </trkpt>
      <trkpt lat="45.19778" lon="5.73068">
        <ele>253.60000610352</ele>
        <time>2021-05-29T07:27:10.000Z</time>
      </trkpt>
      <trkpt lat="45.19784" lon="5.73071">
        <ele>252.80000305176</ele>
        <time>2021-05-29T07:27:12.000Z</time>
      </trkpt>
      <trkpt lat="45.19789" lon="5.73075">
        <ele>252</ele>
        <time>2021-05-29T07:27:14.000Z</time>
      </trkpt>
      <trkpt lat="45.19796" lon="5.73079">
        <ele>251.39999389648</ele>
        <time>2021-05-29T07:27:16.000Z</time>
      </trkpt>
      <trkpt lat="45.19798" lon="5.73081">
        <ele>251</ele>
        <time>2021-05-29T07:27:17.000Z</time>
      </trkpt>
      <trkpt lat="45.19801" lon="5.73083">
        <ele>250.80000305176</ele>
        <time>2021-05-29T07:27:18.000Z</time>
      </trkpt>
      <trkpt lat="45.19806" lon="5.73092">
        <ele>249.60000610352</ele>
        <time>2021-05-29T07:27:21.000Z</time>
      </trkpt>
      <trkpt lat="45.19804" lon="5.73094">
        <ele>249.39999389648</ele>
        <time>2021-05-29T07:27:22.000Z</time>
      </trkpt>
      <trkpt lat="45.19791" lon="5.731">
        <ele>248.60000610352</ele>
        <time>2021-05-29T07:27:26.000Z</time>
      </trkpt>
      <trkpt lat="45.19789" lon="5.731">
        <ele>248.39999389648</ele>
        <time>2021-05-29T07:27:27.000Z</time>
      </trkpt>
      <trkpt lat="45.19781" lon="5.731">
        <ele>247.39999389648</ele>
        <time>2021-05-29T07:27:30.000Z</time>
      </trkpt>
      <trkpt lat="45.19776" lon="5.73099">
        <ele>246.39999389648</ele>
        <time>2021-05-29T07:27:32.000Z</time>
      </trkpt>
      <trkpt lat="45.19773" lon="5.73098">
        <ele>246.19999694824</ele>
        <time>2021-05-29T07:27:33.000Z</time>
      </trkpt>
      <trkpt lat="45.19761" lon="5.73097">
        <ele>245</ele>
        <time>2021-05-29T07:27:38.000Z</time>
      </trkpt>
      <trkpt lat="45.19763" lon="5.73097">
        <ele>244</ele>
        <time>2021-05-29T07:27:41.000Z</time>
      </trkpt>
      <trkpt lat="45.19764" lon="5.73098">
        <ele>243.60000610352</ele>
        <time>2021-05-29T07:27:42.000Z</time>
      </trkpt>
      <trkpt lat="45.19768" lon="5.731">
        <ele>242.80000305176</ele>
        <time>2021-05-29T07:27:45.000Z</time>
      </trkpt>
      <trkpt lat="45.1977" lon="5.731">
        <ele>242.39999389648</ele>
        <time>2021-05-29T07:27:46.000Z</time>
      </trkpt>
      <trkpt lat="45.19775" lon="5.7312">
        <ele>240.39999389648</ele>
        <time>2021-05-29T07:27:53.000Z</time>
      </trkpt>
      <trkpt lat="45.19791" lon="5.73124">
        <ele>239.39999389648</ele>
        <time>2021-05-29T07:27:55.000Z</time>
      </trkpt>
      <trkpt lat="45.19794" lon="5.73127">
        <ele>239</ele>
        <time>2021-05-29T07:27:56.000Z</time>
      </trkpt>
      <trkpt lat="45.19795" lon="5.7313">
        <ele>238.60000610352</ele>
        <time>2021-05-29T07:27:57.000Z</time>
      </trkpt>
      <trkpt lat="45.19793" lon="5.73132">
        <ele>238.19999694824</ele>
        <time>2021-05-29T07:27:58.000Z</time>
      </trkpt>
      <trkpt lat="45.19791" lon="5.73132">
        <ele>238</ele>
        <time>2021-05-29T07:27:59.000Z</time>
      </trkpt>
      <trkpt lat="45.19784" lon="5.73138">
        <ele>237.39999389648</ele>
        <time>2021-05-29T07:28:01.000Z</time>
      </trkpt>
      <trkpt lat="45.19784" lon="5.73138">
        <ele>236.80000305176</ele>
        <time>2021-05-29T07:28:02.000Z</time>
      </trkpt>
      <trkpt lat="45.1978" lon="5.73145">
        <ele>236</ele>
        <time>2021-05-29T07:28:04.000Z</time>
      </trkpt>
      <trkpt lat="45.19779" lon="5.73149">
        <ele>235.80000305176</ele>
        <time>2021-05-29T07:28:05.000Z</time>
      </trkpt>
      <trkpt lat="45.19777" lon="5.7316">
        <ele>234.39999389648</ele>
        <time>2021-05-29T07:28:09.000Z</time>
      </trkpt>
      <trkpt lat="45.19776" lon="5.73164">
        <ele>234</ele>
        <time>2021-05-29T07:28:10.000Z</time>
      </trkpt>
      <trkpt lat="45.19775" lon="5.73172">
        <ele>232.80000305176</ele>
        <time>2021-05-29T07:28:12.000Z</time>
      </trkpt>
      <trkpt lat="45.19776" lon="5.73181">
        <ele>231.80000305176</ele>
        <time>2021-05-29T07:28:15.000Z</time>
      </trkpt>
      <trkpt lat="45.19779" lon="5.73192">
        <ele>231.39999389648</ele>
        <time>2021-05-29T07:28:18.000Z</time>
      </trkpt>
      <trkpt lat="45.19781" lon="5.73209">
        <ele>231.19999694824</ele>
        <time>2021-05-29T07:28:23.000Z</time>
      </trkpt>
      <trkpt lat="45.19777" lon="5.73234">
        <ele>231.19999694824</ele>
        <time>2021-05-29T07:28:29.000Z</time>
      </trkpt>
      <trkpt lat="45.19774" lon="5.73247">
        <ele>231.60000610352</ele>
        <time>2021-05-29T07:28:33.000Z</time>
      </trkpt>
      <trkpt lat="45.19777" lon="5.73252">
        <ele>231.19999694824</ele>
        <time>2021-05-29T07:28:35.000Z</time>
      </trkpt>
      <trkpt lat="45.19785" lon="5.73259">
        <ele>231.39999389648</ele>
        <time>2021-05-29T07:28:40.000Z</time>
      </trkpt>
      <trkpt lat="45.1979" lon="5.73261">
        <ele>231.39999389648</ele>
        <time>2021-05-29T07:28:42.000Z</time>
      </trkpt>
      <trkpt lat="45.198" lon="5.73264">
        <ele>231.39999389648</ele>
        <time>2021-05-29T07:28:47.000Z</time>
      </trkpt>
      <trkpt lat="45.19817" lon="5.73268">
        <ele>231.60000610352</ele>
        <time>2021-05-29T07:28:54.000Z</time>
      </trkpt>
      <trkpt lat="45.19836" lon="5.73267">
        <ele>231.60000610352</ele>
        <time>2021-05-29T07:29:01.000Z</time>
      </trkpt>
      <trkpt lat="45.19842" lon="5.73266">
        <ele>231.60000610352</ele>
        <time>2021-05-29T07:29:04.000Z</time>
      </trkpt>
      <trkpt lat="45.19849" lon="5.73264">
        <ele>231.80000305176</ele>
        <time>2021-05-29T07:29:08.000Z</time>
      </trkpt>
      <trkpt lat="45.19863" lon="5.73268">
        <ele>231.80000305176</ele>
        <time>2021-05-29T07:29:13.000Z</time>
      </trkpt>
      <trkpt lat="45.19871" lon="5.73269">
        <ele>231.80000305176</ele>
        <time>2021-05-29T07:29:16.000Z</time>
      </trkpt>
      <trkpt lat="45.19883" lon="5.73274">
        <ele>231.80000305176</ele>
        <time>2021-05-29T07:29:20.000Z</time>
      </trkpt>
      <trkpt lat="45.19902" lon="5.73286">
        <ele>232.19999694824</ele>
        <time>2021-05-29T07:29:27.000Z</time>
      </trkpt>
      <trkpt lat="45.19921" lon="5.73294">
        <ele>232</ele>
        <time>2021-05-29T07:29:33.000Z</time>
      </trkpt>
      <trkpt lat="45.19933" lon="5.73299">
        <ele>232</ele>
        <time>2021-05-29T07:29:37.000Z</time>
      </trkpt>
      <trkpt lat="45.19952" lon="5.73308">
        <ele>231.80000305176</ele>
        <time>2021-05-29T07:29:43.000Z</time>
      </trkpt>
      <trkpt lat="45.19955" lon="5.7331">
        <ele>231.80000305176</ele>
        <time>2021-05-29T07:29:44.000Z</time>
      </trkpt>
      <trkpt lat="45.19975" lon="5.7332">
        <ele>231.80000305176</ele>
        <time>2021-05-29T07:29:50.000Z</time>
      </trkpt>
      <trkpt lat="45.19978" lon="5.73321">
        <ele>231.60000610352</ele>
        <time>2021-05-29T07:29:51.000Z</time>
      </trkpt>
      <trkpt lat="45.19996" lon="5.73325">
        <ele>231.39999389648</ele>
        <time>2021-05-29T07:29:57.000Z</time>
      </trkpt>
      <trkpt lat="45.20001" lon="5.73327">
        <ele>231.39999389648</ele>
        <time>2021-05-29T07:29:59.000Z</time>
      </trkpt>
      <trkpt lat="45.20014" lon="5.73331">
        <ele>231.19999694824</ele>
        <time>2021-05-29T07:30:04.000Z</time>
      </trkpt>
      <trkpt lat="45.20032" lon="5.73338">
        <ele>231.19999694824</ele>
        <time>2021-05-29T07:30:10.000Z</time>
      </trkpt>
      <trkpt lat="45.20044" lon="5.73343">
        <ele>231</ele>
        <time>2021-05-29T07:30:14.000Z</time>
      </trkpt>
      <trkpt lat="45.20058" lon="5.7335">
        <ele>230.60000610352</ele>
        <time>2021-05-29T07:30:19.000Z</time>
      </trkpt>
      <trkpt lat="45.20067" lon="5.73354">
        <ele>230.80000305176</ele>
        <time>2021-05-29T07:30:22.000Z</time>
      </trkpt>
      <trkpt lat="45.20076" lon="5.73358">
        <ele>230.60000610352</ele>
        <time>2021-05-29T07:30:25.000Z</time>
      </trkpt>
      <trkpt lat="45.20093" lon="5.73372">
        <ele>230.60000610352</ele>
        <time>2021-05-29T07:30:31.000Z</time>
      </trkpt>
      <trkpt lat="45.20109" lon="5.73388">
        <ele>230.39999389648</ele>
        <time>2021-05-29T07:30:37.000Z</time>
      </trkpt>
      <trkpt lat="45.20112" lon="5.73392">
        <ele>230.19999694824</ele>
        <time>2021-05-29T07:30:38.000Z</time>
      </trkpt>
      <trkpt lat="45.20125" lon="5.73408">
        <ele>229.60000610352</ele>
        <time>2021-05-29T07:30:43.000Z</time>
      </trkpt>
      <trkpt lat="45.20129" lon="5.73415">
        <ele>229.39999389648</ele>
        <time>2021-05-29T07:30:45.000Z</time>
      </trkpt>
      <trkpt lat="45.20144" lon="5.73436">
        <ele>229</ele>
        <time>2021-05-29T07:30:50.000Z</time>
      </trkpt>
      <trkpt lat="45.20148" lon="5.73446">
        <ele>228.80000305176</ele>
        <time>2021-05-29T07:30:51.000Z</time>
      </trkpt>
      <trkpt lat="45.20156" lon="5.73458">
        <ele>228.60000610352</ele>
        <time>2021-05-29T07:30:55.000Z</time>
      </trkpt>
      <trkpt lat="45.20168" lon="5.73476">
        <ele>228.80000305176</ele>
        <time>2021-05-29T07:31:00.000Z</time>
      </trkpt>
      <trkpt lat="45.20181" lon="5.73496">
        <ele>229</ele>
        <time>2021-05-29T07:31:06.000Z</time>
      </trkpt>
      <trkpt lat="45.20193" lon="5.73516">
        <ele>229.19999694824</ele>
        <time>2021-05-29T07:31:12.000Z</time>
      </trkpt>
      <trkpt lat="45.20199" lon="5.73529">
        <ele>229.39999389648</ele>
        <time>2021-05-29T07:31:16.000Z</time>
      </trkpt>
      <trkpt lat="45.20208" lon="5.73543">
        <ele>229.80000305176</ele>
        <time>2021-05-29T07:31:20.000Z</time>
      </trkpt>
      <trkpt lat="45.2021" lon="5.73547">
        <ele>229.80000305176</ele>
        <time>2021-05-29T07:31:21.000Z</time>
      </trkpt>
      <trkpt lat="45.20223" lon="5.73571">
        <ele>229.80000305176</ele>
        <time>2021-05-29T07:31:28.000Z</time>
      </trkpt>
      <trkpt lat="45.20237" lon="5.73593">
        <ele>229.80000305176</ele>
        <time>2021-05-29T07:31:34.000Z</time>
      </trkpt>
      <trkpt lat="45.20239" lon="5.73597">
        <ele>229.80000305176</ele>
        <time>2021-05-29T07:31:35.000Z</time>
      </trkpt>
      <trkpt lat="45.20247" lon="5.7362">
        <ele>229.60000610352</ele>
        <time>2021-05-29T07:31:41.000Z</time>
      </trkpt>
      <trkpt lat="45.20255" lon="5.7364">
        <ele>230.19999694824</ele>
        <time>2021-05-29T07:31:46.000Z</time>
      </trkpt>
      <trkpt lat="45.20255" lon="5.73645">
        <ele>230.19999694824</ele>
        <time>2021-05-29T07:31:47.000Z</time>
      </trkpt>
      <trkpt lat="45.20257" lon="5.73667">
        <ele>230.19999694824</ele>
        <time>2021-05-29T07:31:52.000Z</time>
      </trkpt>
      <trkpt lat="45.20261" lon="5.73674">
        <ele>230.19999694824</ele>
        <time>2021-05-29T07:31:54.000Z</time>
      </trkpt>
      <trkpt lat="45.20266" lon="5.73691">
        <ele>230.19999694824</ele>
        <time>2021-05-29T07:31:58.000Z</time>
      </trkpt>
      <trkpt lat="45.20268" lon="5.73698">
        <ele>230</ele>
        <time>2021-05-29T07:32:00.000Z</time>
      </trkpt>
      <trkpt lat="45.20273" lon="5.73717">
        <ele>230</ele>
        <time>2021-05-29T07:32:05.000Z</time>
      </trkpt>
      <trkpt lat="45.20275" lon="5.73734">
        <ele>230</ele>
        <time>2021-05-29T07:32:09.000Z</time>
      </trkpt>
      <trkpt lat="45.20271" lon="5.73753">
        <ele>230</ele>
        <time>2021-05-29T07:32:13.000Z</time>
      </trkpt>
      <trkpt lat="45.20269" lon="5.73774">
        <ele>230.39999389648</ele>
        <time>2021-05-29T07:32:18.000Z</time>
      </trkpt>
      <trkpt lat="45.20268" lon="5.73779">
        <ele>230.19999694824</ele>
        <time>2021-05-29T07:32:19.000Z</time>
      </trkpt>
      <trkpt lat="45.20263" lon="5.73802">
        <ele>230.39999389648</ele>
        <time>2021-05-29T07:32:24.000Z</time>
      </trkpt>
      <trkpt lat="45.20258" lon="5.73822">
        <ele>230.60000610352</ele>
        <time>2021-05-29T07:32:29.000Z</time>
      </trkpt>
      <trkpt lat="45.20255" lon="5.73833">
        <ele>230.80000305176</ele>
        <time>2021-05-29T07:32:32.000Z</time>
      </trkpt>
      <trkpt lat="45.20253" lon="5.73841">
        <ele>230.80000305176</ele>
        <time>2021-05-29T07:32:34.000Z</time>
      </trkpt>
      <trkpt lat="45.20247" lon="5.73867">
        <ele>230.19999694824</ele>
        <time>2021-05-29T07:32:40.000Z</time>
      </trkpt>
      <trkpt lat="45.20246" lon="5.73871">
        <ele>230.19999694824</ele>
        <time>2021-05-29T07:32:41.000Z</time>
      </trkpt>
      <trkpt lat="45.20241" lon="5.73895">
        <ele>230.39999389648</ele>
        <time>2021-05-29T07:32:47.000Z</time>
      </trkpt>
      <trkpt lat="45.20236" lon="5.7392">
        <ele>230.60000610352</ele>
        <time>2021-05-29T07:32:53.000Z</time>
      </trkpt>
      <trkpt lat="45.20234" lon="5.73927">
        <ele>230.60000610352</ele>
        <time>2021-05-29T07:32:54.000Z</time>
      </trkpt>
      <trkpt lat="45.20228" lon="5.73947">
        <ele>230.60000610352</ele>
        <time>2021-05-29T07:32:58.000Z</time>
      </trkpt>
      <trkpt lat="45.20227" lon="5.73951">
        <ele>230.60000610352</ele>
        <time>2021-05-29T07:32:59.000Z</time>
      </trkpt>
      <trkpt lat="45.20225" lon="5.73959">
        <ele>230.60000610352</ele>
        <time>2021-05-29T07:33:01.000Z</time>
      </trkpt>
      <trkpt lat="45.20221" lon="5.73967">
        <ele>230.60000610352</ele>
        <time>2021-05-29T07:33:02.000Z</time>
      </trkpt>
      <trkpt lat="45.20215" lon="5.73988">
        <ele>230.80000305176</ele>
        <time>2021-05-29T07:33:09.000Z</time>
      </trkpt>
      <trkpt lat="45.20214" lon="5.73992">
        <ele>230.80000305176</ele>
        <time>2021-05-29T07:33:10.000Z</time>
      </trkpt>
      <trkpt lat="45.20203" lon="5.74015">
        <ele>230.80000305176</ele>
        <time>2021-05-29T07:33:16.000Z</time>
      </trkpt>
      <trkpt lat="45.20198" lon="5.74023">
        <ele>230.60000610352</ele>
        <time>2021-05-29T07:33:18.000Z</time>
      </trkpt>
      <trkpt lat="45.20188" lon="5.74043">
        <ele>230.60000610352</ele>
        <time>2021-05-29T07:33:24.000Z</time>
      </trkpt>
      <trkpt lat="45.20178" lon="5.74063">
        <ele>230.60000610352</ele>
        <time>2021-05-29T07:33:30.000Z</time>
      </trkpt>
      <trkpt lat="45.20175" lon="5.74067">
        <ele>230.80000305176</ele>
        <time>2021-05-29T07:33:31.000Z</time>
      </trkpt>
      <trkpt lat="45.20164" lon="5.74087">
        <ele>231.39999389648</ele>
        <time>2021-05-29T07:33:38.000Z</time>
      </trkpt>
      <trkpt lat="45.20163" lon="5.7409">
        <ele>231.80000305176</ele>
        <time>2021-05-29T07:33:39.000Z</time>
      </trkpt>
      <trkpt lat="45.2016" lon="5.74102">
        <ele>231.80000305176</ele>
        <time>2021-05-29T07:33:43.000Z</time>
      </trkpt>
      <trkpt lat="45.20149" lon="5.74123">
        <ele>233</ele>
        <time>2021-05-29T07:33:49.000Z</time>
      </trkpt>
      <trkpt lat="45.20141" lon="5.74143">
        <ele>234.19999694824</ele>
        <time>2021-05-29T07:33:55.000Z</time>
      </trkpt>
      <trkpt lat="45.20126" lon="5.74167">
        <ele>235.19999694824</ele>
        <time>2021-05-29T07:34:02.000Z</time>
      </trkpt>
      <trkpt lat="45.20126" lon="5.74167">
        <ele>235.39999389648</ele>
        <time>2021-05-29T07:34:03.000Z</time>
      </trkpt>
      <trkpt lat="45.2011" lon="5.74184">
        <ele>235.80000305176</ele>
        <time>2021-05-29T07:34:09.000Z</time>
      </trkpt>
      <trkpt lat="45.20105" lon="5.7419">
        <ele>235.60000610352</ele>
        <time>2021-05-29T07:34:11.000Z</time>
      </trkpt>
      <trkpt lat="45.20103" lon="5.74192">
        <ele>235.39999389648</ele>
        <time>2021-05-29T07:34:12.000Z</time>
      </trkpt>
      <trkpt lat="45.201" lon="5.74193">
        <ele>235.39999389648</ele>
        <time>2021-05-29T07:34:13.000Z</time>
      </trkpt>
      <trkpt lat="45.20095" lon="5.74191">
        <ele>235.39999389648</ele>
        <time>2021-05-29T07:34:15.000Z</time>
      </trkpt>
      <trkpt lat="45.2008" lon="5.74176">
        <ele>235.80000305176</ele>
        <time>2021-05-29T07:34:20.000Z</time>
      </trkpt>
      <trkpt lat="45.20077" lon="5.74173">
        <ele>235.80000305176</ele>
        <time>2021-05-29T07:34:21.000Z</time>
      </trkpt>
      <trkpt lat="45.20065" lon="5.7416">
        <ele>235.80000305176</ele>
        <time>2021-05-29T07:34:26.000Z</time>
      </trkpt>
      <trkpt lat="45.20056" lon="5.74146">
        <ele>235.80000305176</ele>
        <time>2021-05-29T07:34:30.000Z</time>
      </trkpt>
      <trkpt lat="45.2005" lon="5.74139">
        <ele>235.80000305176</ele>
        <time>2021-05-29T07:34:33.000Z</time>
      </trkpt>
      <trkpt lat="45.20048" lon="5.74136">
        <ele>235.60000610352</ele>
        <time>2021-05-29T07:34:34.000Z</time>
      </trkpt>
      <trkpt lat="45.20034" lon="5.74118">
        <ele>235.80000305176</ele>
        <time>2021-05-29T07:34:40.000Z</time>
      </trkpt>
      <trkpt lat="45.20027" lon="5.74109">
        <ele>235.80000305176</ele>
        <time>2021-05-29T07:34:43.000Z</time>
      </trkpt>
      <trkpt lat="45.2002" lon="5.74101">
        <ele>235.80000305176</ele>
        <time>2021-05-29T07:34:46.000Z</time>
      </trkpt>
      <trkpt lat="45.20008" lon="5.74091">
        <ele>235.60000610352</ele>
        <time>2021-05-29T07:34:51.000Z</time>
      </trkpt>
      <trkpt lat="45.20005" lon="5.74092">
        <ele>235.39999389648</ele>
        <time>2021-05-29T07:34:53.000Z</time>
      </trkpt>
      <trkpt lat="45.20002" lon="5.74096">
        <ele>235</ele>
        <time>2021-05-29T07:34:55.000Z</time>
      </trkpt>
      <trkpt lat="45.19991" lon="5.74111">
        <ele>234.19999694824</ele>
        <time>2021-05-29T07:35:00.000Z</time>
      </trkpt>
      <trkpt lat="45.19989" lon="5.74115">
        <ele>234</ele>
        <time>2021-05-29T07:35:01.000Z</time>
      </trkpt>
      <trkpt lat="45.1998" lon="5.74128">
        <ele>233</ele>
        <time>2021-05-29T07:35:05.000Z</time>
      </trkpt>
      <trkpt lat="45.19975" lon="5.74136">
        <ele>232.60000610352</ele>
        <time>2021-05-29T07:35:08.000Z</time>
      </trkpt>
      <trkpt lat="45.19964" lon="5.74149">
        <ele>232.19999694824</ele>
        <time>2021-05-29T07:35:13.000Z</time>
      </trkpt>
      <trkpt lat="45.19959" lon="5.74155">
        <ele>232</ele>
        <time>2021-05-29T07:35:15.000Z</time>
      </trkpt>
      <trkpt lat="45.19942" lon="5.74168">
        <ele>232</ele>
        <time>2021-05-29T07:35:21.000Z</time>
      </trkpt>
      <trkpt lat="45.19924" lon="5.74182">
        <ele>232</ele>
        <time>2021-05-29T07:35:27.000Z</time>
      </trkpt>
      <trkpt lat="45.19917" lon="5.74185">
        <ele>232</ele>
        <time>2021-05-29T07:35:29.000Z</time>
      </trkpt>
      <trkpt lat="45.19909" lon="5.74191">
        <ele>232</ele>
        <time>2021-05-29T07:35:32.000Z</time>
      </trkpt>
      <trkpt lat="45.19892" lon="5.74201">
        <ele>232.19999694824</ele>
        <time>2021-05-29T07:35:38.000Z</time>
      </trkpt>
      <trkpt lat="45.19874" lon="5.7421">
        <ele>231.80000305176</ele>
        <time>2021-05-29T07:35:44.000Z</time>
      </trkpt>
      <trkpt lat="45.19868" lon="5.74213">
        <ele>231.60000610352</ele>
        <time>2021-05-29T07:35:46.000Z</time>
      </trkpt>
      <trkpt lat="45.19851" lon="5.74221">
        <ele>231.80000305176</ele>
        <time>2021-05-29T07:35:52.000Z</time>
      </trkpt>
      <trkpt lat="45.19842" lon="5.74226">
        <ele>232</ele>
        <time>2021-05-29T07:35:55.000Z</time>
      </trkpt>
      <trkpt lat="45.19827" lon="5.74232">
        <ele>232</ele>
        <time>2021-05-29T07:36:00.000Z</time>
      </trkpt>
      <trkpt lat="45.19808" lon="5.74239">
        <ele>232</ele>
        <time>2021-05-29T07:36:06.000Z</time>
      </trkpt>
      <trkpt lat="45.19795" lon="5.74242">
        <ele>232</ele>
        <time>2021-05-29T07:36:10.000Z</time>
      </trkpt>
      <trkpt lat="45.19775" lon="5.74247">
        <ele>232.19999694824</ele>
        <time>2021-05-29T07:36:17.000Z</time>
      </trkpt>
      <trkpt lat="45.1976" lon="5.7425">
        <ele>232.60000610352</ele>
        <time>2021-05-29T07:36:22.000Z</time>
      </trkpt>
      <trkpt lat="45.19757" lon="5.7425">
        <ele>232.19999694824</ele>
        <time>2021-05-29T07:36:23.000Z</time>
      </trkpt>
      <trkpt lat="45.19739" lon="5.74252">
        <ele>232</ele>
        <time>2021-05-29T07:36:29.000Z</time>
      </trkpt>
      <trkpt lat="45.19731" lon="5.74251">
        <ele>232</ele>
        <time>2021-05-29T07:36:32.000Z</time>
      </trkpt>
      <trkpt lat="45.1973" lon="5.74247">
        <ele>231.39999389648</ele>
        <time>2021-05-29T07:36:34.000Z</time>
      </trkpt>
      <trkpt lat="45.1973" lon="5.74245">
        <ele>230.80000305176</ele>
        <time>2021-05-29T07:36:35.000Z</time>
      </trkpt>
      <trkpt lat="45.19725" lon="5.74232">
        <ele>230.19999694824</ele>
        <time>2021-05-29T07:36:39.000Z</time>
      </trkpt>
      <trkpt lat="45.19725" lon="5.74228">
        <ele>230.19999694824</ele>
        <time>2021-05-29T07:36:40.000Z</time>
      </trkpt>
      <trkpt lat="45.19726" lon="5.74218">
        <ele>229.80000305176</ele>
        <time>2021-05-29T07:36:43.000Z</time>
      </trkpt>
      <trkpt lat="45.19726" lon="5.74214">
        <ele>229.80000305176</ele>
        <time>2021-05-29T07:36:44.000Z</time>
      </trkpt>
      <trkpt lat="45.19727" lon="5.74209">
        <ele>229.80000305176</ele>
        <time>2021-05-29T07:36:45.000Z</time>
      </trkpt>
      <trkpt lat="45.19724" lon="5.74197">
        <ele>230</ele>
        <time>2021-05-29T07:36:49.000Z</time>
      </trkpt>
      <trkpt lat="45.19719" lon="5.74173">
        <ele>230</ele>
        <time>2021-05-29T07:36:56.000Z</time>
      </trkpt>
      <trkpt lat="45.19715" lon="5.74157">
        <ele>230</ele>
        <time>2021-05-29T07:37:00.000Z</time>
      </trkpt>
      <trkpt lat="45.19714" lon="5.74138">
        <ele>230.19999694824</ele>
        <time>2021-05-29T07:37:04.000Z</time>
      </trkpt>
      <trkpt lat="45.19704" lon="5.74111">
        <ele>230.60000610352</ele>
        <time>2021-05-29T07:37:10.000Z</time>
      </trkpt>
      <trkpt lat="45.19698" lon="5.74096">
        <ele>230.39999389648</ele>
        <time>2021-05-29T07:37:14.000Z</time>
      </trkpt>
      <trkpt lat="45.19698" lon="5.74091">
        <ele>230.39999389648</ele>
        <time>2021-05-29T07:37:15.000Z</time>
      </trkpt>
      <trkpt lat="45.19695" lon="5.74083">
        <ele>230.39999389648</ele>
        <time>2021-05-29T07:37:17.000Z</time>
      </trkpt>
      <trkpt lat="45.19692" lon="5.74071">
        <ele>230.39999389648</ele>
        <time>2021-05-29T07:37:20.000Z</time>
      </trkpt>
      <trkpt lat="45.19687" lon="5.74064">
        <ele>230.60000610352</ele>
        <time>2021-05-29T07:37:22.000Z</time>
      </trkpt>
      <trkpt lat="45.19686" lon="5.74057">
        <ele>230.60000610352</ele>
        <time>2021-05-29T07:37:24.000Z</time>
      </trkpt>
      <trkpt lat="45.19687" lon="5.7405">
        <ele>230.60000610352</ele>
        <time>2021-05-29T07:37:26.000Z</time>
      </trkpt>
      <trkpt lat="45.19691" lon="5.74036">
        <ele>230.60000610352</ele>
        <time>2021-05-29T07:37:29.000Z</time>
      </trkpt>
      <trkpt lat="45.19695" lon="5.74016">
        <ele>230</ele>
        <time>2021-05-29T07:37:34.000Z</time>
      </trkpt>
      <trkpt lat="45.19687" lon="5.74012">
        <ele>230.19999694824</ele>
        <time>2021-05-29T07:37:37.000Z</time>
      </trkpt>
      <trkpt lat="45.1968" lon="5.74011">
        <ele>230</ele>
        <time>2021-05-29T07:37:39.000Z</time>
      </trkpt>
      <trkpt lat="45.19677" lon="5.74011">
        <ele>230</ele>
        <time>2021-05-29T07:37:40.000Z</time>
      </trkpt>
      <trkpt lat="45.19675" lon="5.74011">
        <ele>230</ele>
        <time>2021-05-29T07:37:41.000Z</time>
      </trkpt>
      <trkpt lat="45.1966" lon="5.74009">
        <ele>229.19999694824</ele>
        <time>2021-05-29T07:37:46.000Z</time>
      </trkpt>
      <trkpt lat="45.19641" lon="5.74005">
        <ele>229.39999389648</ele>
        <time>2021-05-29T07:37:51.000Z</time>
      </trkpt>
      <trkpt lat="45.19634" lon="5.74003">
        <ele>229.60000610352</ele>
        <time>2021-05-29T07:37:53.000Z</time>
      </trkpt>
      <trkpt lat="45.19623" lon="5.74">
        <ele>230</ele>
        <time>2021-05-29T07:37:56.000Z</time>
      </trkpt>
      <trkpt lat="45.1962" lon="5.73992">
        <ele>230.19999694824</ele>
        <time>2021-05-29T07:37:58.000Z</time>
      </trkpt>
      <trkpt lat="45.19619" lon="5.73984">
        <ele>230.19999694824</ele>
        <time>2021-05-29T07:38:00.000Z</time>
      </trkpt>
      <trkpt lat="45.19621" lon="5.73972">
        <ele>230.19999694824</ele>
        <time>2021-05-29T07:38:02.000Z</time>
      </trkpt>
      <trkpt lat="45.19623" lon="5.73971">
        <ele>229.80000305176</ele>
        <time>2021-05-29T07:38:04.000Z</time>
      </trkpt>
      <trkpt lat="45.19628" lon="5.73968">
        <ele>229.60000610352</ele>
        <time>2021-05-29T07:38:07.000Z</time>
      </trkpt>
      <trkpt lat="45.19635" lon="5.73968">
        <ele>229.80000305176</ele>
        <time>2021-05-29T07:38:11.000Z</time>
      </trkpt>
      <trkpt lat="45.19637" lon="5.73971">
        <ele>229.80000305176</ele>
        <time>2021-05-29T07:38:13.000Z</time>
      </trkpt>
      <trkpt lat="45.19638" lon="5.73971">
        <ele>229.80000305176</ele>
        <time>2021-05-29T07:38:16.000Z</time>
      </trkpt>
      <trkpt lat="45.19638" lon="5.73972">
        <ele>229.80000305176</ele>
        <time>2021-05-29T07:38:17.000Z</time>
      </trkpt>
      <trkpt lat="45.19654" lon="5.7395">
        <ele>237.80000305176</ele>
        <time>2021-05-29T07:39:02.000Z</time>
      </trkpt>
      <trkpt lat="45.19658" lon="5.73952">
        <ele>237.80000305176</ele>
        <time>2021-05-29T07:39:04.000Z</time>
      </trkpt>
      <trkpt lat="45.19659" lon="5.73955">
        <ele>237.60000610352</ele>
        <time>2021-05-29T07:39:05.000Z</time>
      </trkpt>
    </trkseg>
  </trk>
</gpx>